<?xml version="1.0" encoding="UTF-8" standalone="no" ?>
<gpx xmlns="http://www.topografix.com/GPX/1/1" creator="MapSource 6.16.3" version="1.1" xmlns:xsi="http://www.w3.org/2001/XMLSchema-instance" xsi:schemaLocation="http://www.topografix.com/GPX/1/1 http://www.topografix.com/GPX/1/1/gpx.xsd">

  <metadata>
    <link href="http://www.garmin.com">
      <text>Garmin International</text>
    </link>
    <time>2012-10-22T16:28:33Z</time>
    <bounds maxlat="47.886857958510518" maxlon="14.759796978905797" minlat="47.554267980158329" minlon="14.242324009537697"/>
  </metadata>

  <trk>
    <name>ENNSRADWEG</name>
    <extensions>
      <gpxx:TrackExtension xmlns:gpxx="http://www.garmin.com/xmlschemas/GpxExtensions/v3">
        <gpxx:DisplayColor>DarkRed</gpxx:DisplayColor>
      </gpxx:TrackExtension>
    </extensions>
    <trkseg>
      <trkpt lat="47.562564974650741" lon="14.242381006479263">
        <ele>646.60000000000002</ele>
        <time>2012-10-21T07:07:27Z</time>
      </trkpt>
      <trkpt lat="47.562572015449405" lon="14.242357034236193">
        <ele>646.60000000000002</ele>
        <time>2012-10-21T07:07:30Z</time>
      </trkpt>
      <trkpt lat="47.562576038762927" lon="14.242348987609148">
        <ele>645.60000000000002</ele>
        <time>2012-10-21T07:07:31Z</time>
      </trkpt>
      <trkpt lat="47.562579978257418" lon="14.242334989830852">
        <ele>646.20000000000005</ele>
        <time>2012-10-21T07:07:32Z</time>
      </trkpt>
      <trkpt lat="47.562579978257418" lon="14.242327027022839">
        <ele>646.79999999999995</ele>
        <time>2012-10-21T07:07:33Z</time>
      </trkpt>
      <trkpt lat="47.562579978257418" lon="14.242324009537697">
        <ele>647.39999999999998</ele>
        <time>2012-10-21T07:07:34Z</time>
      </trkpt>
      <trkpt lat="47.562576038762927" lon="14.242328032851219">
        <ele>648</ele>
        <time>2012-10-21T07:07:35Z</time>
      </trkpt>
      <trkpt lat="47.562576038762927" lon="14.242346975952387">
        <ele>648.60000000000002</ele>
        <time>2012-10-21T07:07:36Z</time>
      </trkpt>
      <trkpt lat="47.562594981864095" lon="14.242371032014489">
        <ele>648.60000000000002</ele>
        <time>2012-10-21T07:07:38Z</time>
      </trkpt>
      <trkpt lat="47.562630018219352" lon="14.242406990379095">
        <ele>648.60000000000002</ele>
        <time>2012-10-21T07:07:41Z</time>
      </trkpt>
      <trkpt lat="47.562648961320519" lon="14.242468010634184">
        <ele>648.60000000000002</ele>
        <time>2012-10-21T07:07:46Z</time>
      </trkpt>
      <trkpt lat="47.562648961320519" lon="14.2424810025841">
        <ele>648.60000000000002</ele>
        <time>2012-10-21T07:07:47Z</time>
      </trkpt>
      <trkpt lat="47.562625994905829" lon="14.242513021454215">
        <ele>648.60000000000002</ele>
        <time>2012-10-21T07:07:50Z</time>
      </trkpt>
      <trkpt lat="47.562489034608006" lon="14.242685018107295">
        <ele>648.60000000000002</ele>
        <time>2012-10-21T07:07:57Z</time>
      </trkpt>
      <trkpt lat="47.562332041561604" lon="14.243032028898597">
        <ele>648.60000000000002</ele>
        <time>2012-10-21T07:08:06Z</time>
      </trkpt>
      <trkpt lat="47.562121991068125" lon="14.243418015539646">
        <ele>648.60000000000002</ele>
        <time>2012-10-21T07:08:14Z</time>
      </trkpt>
      <trkpt lat="47.561981007456779" lon="14.243669975548983">
        <ele>648.60000000000002</ele>
        <time>2012-10-21T07:08:20Z</time>
      </trkpt>
      <trkpt lat="47.561820996925235" lon="14.243952026590705">
        <ele>648.60000000000002</ele>
        <time>2012-10-21T07:08:27Z</time>
      </trkpt>
      <trkpt lat="47.561707003042102" lon="14.244311023503542">
        <ele>648.60000000000002</ele>
        <time>2012-10-21T07:08:34Z</time>
      </trkpt>
      <trkpt lat="47.561550009995699" lon="14.244648981839418">
        <ele>648.60000000000002</ele>
        <time>2012-10-21T07:08:41Z</time>
      </trkpt>
      <trkpt lat="47.561328979209065" lon="14.245071010664105">
        <ele>648.60000000000002</ele>
        <time>2012-10-21T07:08:50Z</time>
      </trkpt>
      <trkpt lat="47.561171986162663" lon="14.245369993150234">
        <ele>648.60000000000002</ele>
        <time>2012-10-21T07:08:56Z</time>
      </trkpt>
      <trkpt lat="47.561123035848141" lon="14.245469989255071">
        <ele>648.60000000000002</ele>
        <time>2012-10-21T07:08:58Z</time>
      </trkpt>
      <trkpt lat="47.560936035588384" lon="14.245867962017655">
        <ele>648.60000000000002</ele>
        <time>2012-10-21T07:09:06Z</time>
      </trkpt>
      <trkpt lat="47.560824975371361" lon="14.246041970327497">
        <ele>648.60000000000002</ele>
        <time>2012-10-21T07:09:11Z</time>
      </trkpt>
      <trkpt lat="47.560745012015104" lon="14.245981033891439">
        <ele>648.60000000000002</ele>
        <time>2012-10-21T07:09:14Z</time>
      </trkpt>
      <trkpt lat="47.560622971504927" lon="14.245842983946204">
        <ele>648.60000000000002</ele>
        <time>2012-10-21T07:09:19Z</time>
      </trkpt>
      <trkpt lat="47.560600005090237" lon="14.245817000046372">
        <ele>648.60000000000002</ele>
        <time>2012-10-21T07:09:20Z</time>
      </trkpt>
      <trkpt lat="47.560432031750679" lon="14.245748016983271">
        <ele>648.20000000000005</ele>
        <time>2012-10-21T07:09:26Z</time>
      </trkpt>
      <trkpt lat="47.56039397791028" lon="14.245757991448045">
        <ele>647.79999999999995</ele>
        <time>2012-10-21T07:09:27Z</time>
      </trkpt>
      <trkpt lat="47.560351984575391" lon="14.24576997756958">
        <ele>647.39999999999998</ele>
        <time>2012-10-21T07:09:28Z</time>
      </trkpt>
      <trkpt lat="47.56030697375536" lon="14.24579001031816">
        <ele>647</ele>
        <time>2012-10-21T07:09:29Z</time>
      </trkpt>
      <trkpt lat="47.560252994298935" lon="14.245810965076089">
        <ele>646.60000000000002</ele>
        <time>2012-10-21T07:09:30Z</time>
      </trkpt>
      <trkpt lat="47.560203960165381" lon="14.245820017531514">
        <ele>646.60000000000002</ele>
        <time>2012-10-21T07:09:31Z</time>
      </trkpt>
      <trkpt lat="47.560001034289598" lon="14.245844995602965">
        <ele>646.60000000000002</ele>
        <time>2012-10-21T07:09:35Z</time>
      </trkpt>
      <trkpt lat="47.559905983507633" lon="14.245830997824669">
        <ele>646.60000000000002</ele>
        <time>2012-10-21T07:09:37Z</time>
      </trkpt>
      <trkpt lat="47.559711020439863" lon="14.245821023359895">
        <ele>646.20000000000005</ele>
        <time>2012-10-21T07:09:41Z</time>
      </trkpt>
      <trkpt lat="47.559666009619832" lon="14.245819011703134">
        <ele>645.79999999999995</ele>
        <time>2012-10-21T07:09:42Z</time>
      </trkpt>
      <trkpt lat="47.55961999297142" lon="14.245821023359895">
        <ele>645.39999999999998</ele>
        <time>2012-10-21T07:09:43Z</time>
      </trkpt>
      <trkpt lat="47.559570036828518" lon="14.245822029188275">
        <ele>644.60000000000002</ele>
        <time>2012-10-21T07:09:44Z</time>
      </trkpt>
      <trkpt lat="47.559215985238552" lon="14.245794033631682">
        <ele>644.60000000000002</ele>
        <time>2012-10-21T07:09:52Z</time>
      </trkpt>
      <trkpt lat="47.559105008840561" lon="14.245786992833018">
        <ele>644.60000000000002</ele>
        <time>2012-10-21T07:09:56Z</time>
      </trkpt>
      <trkpt lat="47.559012975543737" lon="14.245922025293112">
        <ele>644.60000000000002</ele>
        <time>2012-10-21T07:10:00Z</time>
      </trkpt>
      <trkpt lat="47.558891018852592" lon="14.246253026649356">
        <ele>644.60000000000002</ele>
        <time>2012-10-21T07:10:07Z</time>
      </trkpt>
      <trkpt lat="47.55882597528398" lon="14.246489983052015">
        <ele>644.60000000000002</ele>
        <time>2012-10-21T07:10:13Z</time>
      </trkpt>
      <trkpt lat="47.558837961405516" lon="14.246656028553843">
        <ele>644.60000000000002</ele>
        <time>2012-10-21T07:10:16Z</time>
      </trkpt>
      <trkpt lat="47.558861011639237" lon="14.246700033545494">
        <ele>644.60000000000002</ele>
        <time>2012-10-21T07:10:17Z</time>
      </trkpt>
      <trkpt lat="47.55899403244257" lon="14.246880998834968">
        <ele>644.60000000000002</ele>
        <time>2012-10-21T07:10:22Z</time>
      </trkpt>
      <trkpt lat="47.559162005782127" lon="14.247190039604902">
        <ele>644.60000000000002</ele>
        <time>2012-10-21T07:10:30Z</time>
      </trkpt>
      <trkpt lat="47.559326039627194" lon="14.247390031814575">
        <ele>644.60000000000002</ele>
        <time>2012-10-21T07:10:36Z</time>
      </trkpt>
      <trkpt lat="47.55944799631834" lon="14.247495979070663">
        <ele>644.60000000000002</ele>
        <time>2012-10-21T07:10:41Z</time>
      </trkpt>
      <trkpt lat="47.559443973004818" lon="14.247524980455637">
        <ele>644.60000000000002</ele>
        <time>2012-10-21T07:10:42Z</time>
      </trkpt>
      <trkpt lat="47.559390999376774" lon="14.247670993208885">
        <ele>644.60000000000002</ele>
        <time>2012-10-21T07:10:46Z</time>
      </trkpt>
      <trkpt lat="47.559364009648561" lon="14.247730001807213">
        <ele>644.60000000000002</ele>
        <time>2012-10-21T07:10:47Z</time>
      </trkpt>
      <trkpt lat="47.55933802574873" lon="14.247797979041934">
        <ele>644.60000000000002</ele>
        <time>2012-10-21T07:10:48Z</time>
      </trkpt>
      <trkpt lat="47.559199975803494" lon="14.248110959306359">
        <ele>644.60000000000002</ele>
        <time>2012-10-21T07:10:53Z</time>
      </trkpt>
      <trkpt lat="47.559139039367437" lon="14.248234005644917">
        <ele>644</ele>
        <time>2012-10-21T07:10:55Z</time>
      </trkpt>
      <trkpt lat="47.559100985527039" lon="14.248295025900006">
        <ele>643.60000000000002</ele>
        <time>2012-10-21T07:10:56Z</time>
      </trkpt>
      <trkpt lat="47.559067038819194" lon="14.248351017013192">
        <ele>642.79999999999995</ele>
        <time>2012-10-21T07:10:57Z</time>
      </trkpt>
      <trkpt lat="47.559028984978795" lon="14.248404996469617">
        <ele>642.39999999999998</ele>
        <time>2012-10-21T07:10:58Z</time>
      </trkpt>
      <trkpt lat="47.558967964723706" lon="14.248527958989143">
        <ele>642.39999999999998</ele>
        <time>2012-10-21T07:11:00Z</time>
      </trkpt>
      <trkpt lat="47.558711981400847" lon="14.248988041654229">
        <ele>642.39999999999998</ele>
        <time>2012-10-21T07:11:08Z</time>
      </trkpt>
      <trkpt lat="47.558475024998188" lon="14.249487016350031">
        <ele>642.39999999999998</ele>
        <time>2012-10-21T07:11:16Z</time>
      </trkpt>
      <trkpt lat="47.558310991153121" lon="14.249794967472553">
        <ele>642</ele>
        <time>2012-10-21T07:11:21Z</time>
      </trkpt>
      <trkpt lat="47.558273021131754" lon="14.249855987727642">
        <ele>641.20000000000005</ele>
        <time>2012-10-21T07:11:22Z</time>
      </trkpt>
      <trkpt lat="47.5582430139184" lon="14.24991499632597">
        <ele>640.79999999999995</ele>
        <time>2012-10-21T07:11:23Z</time>
      </trkpt>
      <trkpt lat="47.558212000876665" lon="14.24997802823782">
        <ele>640.39999999999998</ele>
        <time>2012-10-21T07:11:24Z</time>
      </trkpt>
      <trkpt lat="47.557953000068665" lon="14.250449007377028">
        <ele>640.39999999999998</ele>
        <time>2012-10-21T07:11:32Z</time>
      </trkpt>
      <trkpt lat="47.557677989825606" lon="14.250984024256468">
        <ele>640.39999999999998</ele>
        <time>2012-10-21T07:11:41Z</time>
      </trkpt>
      <trkpt lat="47.557490989565849" lon="14.251335980370641">
        <ele>640.39999999999998</ele>
        <time>2012-10-21T07:11:47Z</time>
      </trkpt>
      <trkpt lat="47.557391999289393" lon="14.251513006165624">
        <ele>640.39999999999998</ele>
        <time>2012-10-21T07:11:50Z</time>
      </trkpt>
      <trkpt lat="47.557258978486061" lon="14.251758009195328">
        <ele>640</ele>
        <time>2012-10-21T07:11:54Z</time>
      </trkpt>
      <trkpt lat="47.557224025949836" lon="14.251821041107178">
        <ele>639.60000000000002</ele>
        <time>2012-10-21T07:11:55Z</time>
      </trkpt>
      <trkpt lat="47.557189995422959" lon="14.251881977543235">
        <ele>639</ele>
        <time>2012-10-21T07:11:56Z</time>
      </trkpt>
      <trkpt lat="47.557158982381225" lon="14.251948026940227">
        <ele>638.60000000000002</ele>
        <time>2012-10-21T07:11:57Z</time>
      </trkpt>
      <trkpt lat="47.557132998481393" lon="14.252017010003328">
        <ele>638.20000000000005</ele>
        <time>2012-10-21T07:11:58Z</time>
      </trkpt>
      <trkpt lat="47.55699897184968" lon="14.252327978610992">
        <ele>638.20000000000005</ele>
        <time>2012-10-21T07:12:03Z</time>
      </trkpt>
      <trkpt lat="47.556805014610291" lon="14.252659985795617">
        <ele>638.20000000000005</ele>
        <time>2012-10-21T07:12:09Z</time>
      </trkpt>
      <trkpt lat="47.556613991037011" lon="14.253069022670388">
        <ele>638.20000000000005</ele>
        <time>2012-10-21T07:12:16Z</time>
      </trkpt>
      <trkpt lat="47.556384997442365" lon="14.25343899987638">
        <ele>638.20000000000005</ele>
        <time>2012-10-21T07:12:23Z</time>
      </trkpt>
      <trkpt lat="47.556316014379263" lon="14.2535450309515">
        <ele>638.20000000000005</ele>
        <time>2012-10-21T07:12:25Z</time>
      </trkpt>
      <trkpt lat="47.556254994124174" lon="14.253660030663013">
        <ele>638.20000000000005</ele>
        <time>2012-10-21T07:12:27Z</time>
      </trkpt>
      <trkpt lat="47.556190034374595" lon="14.253857005387545">
        <ele>638.20000000000005</ele>
        <time>2012-10-21T07:12:30Z</time>
      </trkpt>
      <trkpt lat="47.556099006906152" lon="14.254024978727102">
        <ele>638.20000000000005</ele>
        <time>2012-10-21T07:12:34Z</time>
      </trkpt>
      <trkpt lat="47.55590102635324" lon="14.254251038655639">
        <ele>638.20000000000005</ele>
        <time>2012-10-21T07:12:40Z</time>
      </trkpt>
      <trkpt lat="47.555736992508173" lon="14.254464022815228">
        <ele>638.20000000000005</ele>
        <time>2012-10-21T07:12:45Z</time>
      </trkpt>
      <trkpt lat="47.555683013051748" lon="14.254549015313387">
        <ele>638.20000000000005</ele>
        <time>2012-10-21T07:12:47Z</time>
      </trkpt>
      <trkpt lat="47.555621992796659" lon="14.254627972841263">
        <ele>638.20000000000005</ele>
        <time>2012-10-21T07:12:49Z</time>
      </trkpt>
      <trkpt lat="47.555476985871792" lon="14.254794018343091">
        <ele>638.20000000000005</ele>
        <time>2012-10-21T07:12:53Z</time>
      </trkpt>
      <trkpt lat="47.555294008925557" lon="14.254990993067622">
        <ele>638.20000000000005</ele>
        <time>2012-10-21T07:12:58Z</time>
      </trkpt>
      <trkpt lat="47.555217985063791" lon="14.255077997222543">
        <ele>638.20000000000005</ele>
        <time>2012-10-21T07:13:00Z</time>
      </trkpt>
      <trkpt lat="47.555098962038755" lon="14.255204983055592">
        <ele>638.20000000000005</ele>
        <time>2012-10-21T07:13:03Z</time>
      </trkpt>
      <trkpt lat="47.554984968155622" lon="14.255311014130712">
        <ele>638.20000000000005</ele>
        <time>2012-10-21T07:13:06Z</time>
      </trkpt>
      <trkpt lat="47.554890001192689" lon="14.25550103187561">
        <ele>638.20000000000005</ele>
        <time>2012-10-21T07:13:10Z</time>
      </trkpt>
      <trkpt lat="47.554885977879167" lon="14.255577977746725">
        <ele>638.20000000000005</ele>
        <time>2012-10-21T07:13:11Z</time>
      </trkpt>
      <trkpt lat="47.554873991757631" lon="14.255747040733695">
        <ele>638.20000000000005</ele>
        <time>2012-10-21T07:13:13Z</time>
      </trkpt>
      <trkpt lat="47.554867034777999" lon="14.255836978554726">
        <ele>637.79999999999995</ele>
        <time>2012-10-21T07:13:14Z</time>
      </trkpt>
      <trkpt lat="47.554852031171322" lon="14.255929011851549">
        <ele>637.20000000000005</ele>
        <time>2012-10-21T07:13:15Z</time>
      </trkpt>
      <trkpt lat="47.554836021736264" lon="14.256011992692947">
        <ele>636.79999999999995</ele>
        <time>2012-10-21T07:13:16Z</time>
      </trkpt>
      <trkpt lat="47.554816994816065" lon="14.256089022383094">
        <ele>636.20000000000005</ele>
        <time>2012-10-21T07:13:17Z</time>
      </trkpt>
      <trkpt lat="47.554794028401375" lon="14.256149958819151">
        <ele>635.79999999999995</ele>
        <time>2012-10-21T07:13:18Z</time>
      </trkpt>
      <trkpt lat="47.554667964577675" lon="14.256241992115974">
        <ele>635.79999999999995</ele>
        <time>2012-10-21T07:13:21Z</time>
      </trkpt>
      <trkpt lat="47.554623037576675" lon="14.256264036521316">
        <ele>635.79999999999995</ele>
        <time>2012-10-21T07:13:22Z</time>
      </trkpt>
      <trkpt lat="47.554405024275184" lon="14.256433015689254">
        <ele>635.79999999999995</ele>
        <time>2012-10-21T07:13:28Z</time>
      </trkpt>
      <trkpt lat="47.554291030392051" lon="14.256538962945342">
        <ele>635.39999999999998</ele>
        <time>2012-10-21T07:13:32Z</time>
      </trkpt>
      <trkpt lat="47.554278960451484" lon="14.256586991250515">
        <ele>635</ele>
        <time>2012-10-21T07:13:33Z</time>
      </trkpt>
      <trkpt lat="47.554267980158329" lon="14.256635019555688">
        <ele>634.39999999999998</ele>
        <time>2012-10-21T07:13:34Z</time>
      </trkpt>
      <trkpt lat="47.554276026785374" lon="14.256682964041829">
        <ele>634</ele>
        <time>2012-10-21T07:13:35Z</time>
      </trkpt>
      <trkpt lat="47.554278960451484" lon="14.256733004003763">
        <ele>633.60000000000002</ele>
        <time>2012-10-21T07:13:36Z</time>
      </trkpt>
      <trkpt lat="47.554287007078528" lon="14.256798969581723">
        <ele>633.60000000000002</ele>
        <time>2012-10-21T07:13:37Z</time>
      </trkpt>
      <trkpt lat="47.554313996806741" lon="14.256863007321954">
        <ele>633.60000000000002</ele>
        <time>2012-10-21T07:13:39Z</time>
      </trkpt>
      <trkpt lat="47.554351966828108" lon="14.256838029250503">
        <ele>633.60000000000002</ele>
        <time>2012-10-21T07:13:40Z</time>
      </trkpt>
      <trkpt lat="47.554516000673175" lon="14.256699979305267">
        <ele>633.60000000000002</ele>
        <time>2012-10-21T07:13:45Z</time>
      </trkpt>
      <trkpt lat="47.554749017581344" lon="14.256616998463869">
        <ele>633.60000000000002</ele>
        <time>2012-10-21T07:13:51Z</time>
      </trkpt>
      <trkpt lat="47.554821018129587" lon="14.256758987903595">
        <ele>633.60000000000002</ele>
        <time>2012-10-21T07:13:54Z</time>
      </trkpt>
      <trkpt lat="47.5548289809376" lon="14.257009020075202">
        <ele>633.60000000000002</ele>
        <time>2012-10-21T07:13:58Z</time>
      </trkpt>
      <trkpt lat="47.55482504144311" lon="14.257073979824781">
        <ele>633.60000000000002</ele>
        <time>2012-10-21T07:13:59Z</time>
      </trkpt>
      <trkpt lat="47.554831998422742" lon="14.25747798755765">
        <ele>633.60000000000002</ele>
        <time>2012-10-21T07:14:05Z</time>
      </trkpt>
      <trkpt lat="47.554890001192689" lon="14.258147031068802">
        <ele>633.60000000000002</ele>
        <time>2012-10-21T07:14:15Z</time>
      </trkpt>
      <trkpt lat="47.554909028112888" lon="14.258345011621714">
        <ele>633.60000000000002</ele>
        <time>2012-10-21T07:14:18Z</time>
      </trkpt>
      <trkpt lat="47.554969964548945" lon="14.258589008823037">
        <ele>633.60000000000002</ele>
        <time>2012-10-21T07:14:22Z</time>
      </trkpt>
      <trkpt lat="47.555045988410711" lon="14.259069040417671">
        <ele>633.60000000000002</ele>
        <time>2012-10-21T07:14:29Z</time>
      </trkpt>
      <trkpt lat="47.555102985352278" lon="14.25971201620996">
        <ele>633.60000000000002</ele>
        <time>2012-10-21T07:14:38Z</time>
      </trkpt>
      <trkpt lat="47.555118994787335" lon="14.259786028414965">
        <ele>633.60000000000002</ele>
        <time>2012-10-21T07:14:39Z</time>
      </trkpt>
      <trkpt lat="47.555175991728902" lon="14.260230017825961">
        <ele>633.60000000000002</ele>
        <time>2012-10-21T07:14:45Z</time>
      </trkpt>
      <trkpt lat="47.555222008377314" lon="14.260447025299072">
        <ele>633.60000000000002</ele>
        <time>2012-10-21T07:14:48Z</time>
      </trkpt>
      <trkpt lat="47.555285962298512" lon="14.260653974488378">
        <ele>633.60000000000002</ele>
        <time>2012-10-21T07:14:51Z</time>
      </trkpt>
      <trkpt lat="47.555507998913527" lon="14.261264009401202">
        <ele>633.60000000000002</ele>
        <time>2012-10-21T07:15:00Z</time>
      </trkpt>
      <trkpt lat="47.555644959211349" lon="14.261740017682314">
        <ele>633.60000000000002</ele>
        <time>2012-10-21T07:15:07Z</time>
      </trkpt>
      <trkpt lat="47.555656023323536" lon="14.261809000745416">
        <ele>633.60000000000002</ele>
        <time>2012-10-21T07:15:08Z</time>
      </trkpt>
      <trkpt lat="47.555659962818027" lon="14.261949984356761">
        <ele>633.60000000000002</ele>
        <time>2012-10-21T07:15:10Z</time>
      </trkpt>
      <trkpt lat="47.555633978918195" lon="14.26216397434473">
        <ele>633.60000000000002</ele>
        <time>2012-10-21T07:15:13Z</time>
      </trkpt>
      <trkpt lat="47.555542029440403" lon="14.262675018981099">
        <ele>633.60000000000002</ele>
        <time>2012-10-21T07:15:20Z</time>
      </trkpt>
      <trkpt lat="47.555419988930225" lon="14.263412039726973">
        <ele>633.60000000000002</ele>
        <time>2012-10-21T07:15:30Z</time>
      </trkpt>
      <trkpt lat="47.555358968675137" lon="14.26398703828454">
        <ele>633.60000000000002</ele>
        <time>2012-10-21T07:15:38Z</time>
      </trkpt>
      <trkpt lat="47.555316975340247" lon="14.264536974951625">
        <ele>633.60000000000002</ele>
        <time>2012-10-21T07:15:46Z</time>
      </trkpt>
      <trkpt lat="47.555298032239079" lon="14.264798993244767">
        <ele>633.60000000000002</ele>
        <time>2012-10-21T07:15:50Z</time>
      </trkpt>
      <trkpt lat="47.555313035845757" lon="14.264999991282821">
        <ele>633.60000000000002</ele>
        <time>2012-10-21T07:15:53Z</time>
      </trkpt>
      <trkpt lat="47.555325021967292" lon="14.265482034534216">
        <ele>633.60000000000002</ele>
        <time>2012-10-21T07:16:00Z</time>
      </trkpt>
      <trkpt lat="47.555351005867124" lon="14.265991989523172">
        <ele>633.60000000000002</ele>
        <time>2012-10-21T07:16:07Z</time>
      </trkpt>
      <trkpt lat="47.555340025573969" lon="14.26620002835989">
        <ele>633.60000000000002</ele>
        <time>2012-10-21T07:16:10Z</time>
      </trkpt>
      <trkpt lat="47.55527900531888" lon="14.266257025301456">
        <ele>633.60000000000002</ele>
        <time>2012-10-21T07:16:12Z</time>
      </trkpt>
      <trkpt lat="47.555186972022057" lon="14.266248978674412">
        <ele>633.60000000000002</ele>
        <time>2012-10-21T07:16:14Z</time>
      </trkpt>
      <trkpt lat="47.555141039192677" lon="14.266248978674412">
        <ele>633.60000000000002</ele>
        <time>2012-10-21T07:16:15Z</time>
      </trkpt>
      <trkpt lat="47.55487097427249" lon="14.266266999766231">
        <ele>633.60000000000002</ele>
        <time>2012-10-21T07:16:21Z</time>
      </trkpt>
      <trkpt lat="47.554604010656476" lon="14.266299018636346">
        <ele>633.60000000000002</ele>
        <time>2012-10-21T07:16:27Z</time>
      </trkpt>
      <trkpt lat="47.554557994008064" lon="14.266389962285757">
        <ele>633.60000000000002</ele>
        <time>2012-10-21T07:16:29Z</time>
      </trkpt>
      <trkpt lat="47.554546007886529" lon="14.266454000025988">
        <ele>633.60000000000002</ele>
        <time>2012-10-21T07:16:30Z</time>
      </trkpt>
      <trkpt lat="47.554557994008064" lon="14.266687016934156">
        <ele>633.60000000000002</ele>
        <time>2012-10-21T07:16:34Z</time>
      </trkpt>
      <trkpt lat="47.554584983736277" lon="14.266805034130812">
        <ele>633.60000000000002</ele>
        <time>2012-10-21T07:16:36Z</time>
      </trkpt>
      <trkpt lat="47.554649021476507" lon="14.267100999131799">
        <ele>633.60000000000002</ele>
        <time>2012-10-21T07:16:41Z</time>
      </trkpt>
      <trkpt lat="47.554767960682511" lon="14.267511963844299">
        <ele>633.60000000000002</ele>
        <time>2012-10-21T07:16:48Z</time>
      </trkpt>
      <trkpt lat="47.55482504144311" lon="14.267742969095707">
        <ele>633.60000000000002</ele>
        <time>2012-10-21T07:16:53Z</time>
      </trkpt>
      <trkpt lat="47.55480601452291" lon="14.267769958823919">
        <ele>634</ele>
        <time>2012-10-21T07:16:55Z</time>
      </trkpt>
      <trkpt lat="47.554790005087852" lon="14.267774987965822">
        <ele>634.39999999999998</ele>
        <time>2012-10-21T07:16:56Z</time>
      </trkpt>
      <trkpt lat="47.554770978167653" lon="14.267793009057641">
        <ele>634.79999999999995</ele>
        <time>2012-10-21T07:16:57Z</time>
      </trkpt>
      <trkpt lat="47.554752035066485" lon="14.267798960208893">
        <ele>635.20000000000005</ele>
        <time>2012-10-21T07:16:58Z</time>
      </trkpt>
      <trkpt lat="47.554737031459808" lon="14.267819998785853">
        <ele>635.60000000000002</ele>
        <time>2012-10-21T07:16:59Z</time>
      </trkpt>
      <trkpt lat="47.554713981226087" lon="14.267839025706053">
        <ele>635.60000000000002</ele>
        <time>2012-10-21T07:17:00Z</time>
      </trkpt>
      <trkpt lat="47.554646003991365" lon="14.26789996214211">
        <ele>635.60000000000002</ele>
        <time>2012-10-21T07:17:03Z</time>
      </trkpt>
      <trkpt lat="47.554478030651808" lon="14.26802703179419">
        <ele>635.60000000000002</ele>
        <time>2012-10-21T07:17:09Z</time>
      </trkpt>
      <trkpt lat="47.554436037316918" lon="14.268100038170815">
        <ele>635.60000000000002</ele>
        <time>2012-10-21T07:17:12Z</time>
      </trkpt>
      <trkpt lat="47.554432014003396" lon="14.268140019848943">
        <ele>635.60000000000002</ele>
        <time>2012-10-21T07:17:13Z</time>
      </trkpt>
      <trkpt lat="47.554489010944963" lon="14.268338000401855">
        <ele>635.60000000000002</ele>
        <time>2012-10-21T07:17:16Z</time>
      </trkpt>
      <trkpt lat="47.55463401786983" lon="14.268781989812851">
        <ele>635.60000000000002</ele>
        <time>2012-10-21T07:17:23Z</time>
      </trkpt>
      <trkpt lat="47.554667964577675" lon="14.268893972039223">
        <ele>635.20000000000005</ele>
        <time>2012-10-21T07:17:25Z</time>
      </trkpt>
      <trkpt lat="47.554683974012733" lon="14.268949963152409">
        <ele>634.79999999999995</ele>
        <time>2012-10-21T07:17:26Z</time>
      </trkpt>
      <trkpt lat="47.55469897761941" lon="14.269005032256246">
        <ele>634.39999999999998</ele>
        <time>2012-10-21T07:17:27Z</time>
      </trkpt>
      <trkpt lat="47.554718004539609" lon="14.269064040854573">
        <ele>634</ele>
        <time>2012-10-21T07:17:28Z</time>
      </trkpt>
      <trkpt lat="47.554733008146286" lon="14.26912103779614">
        <ele>633.60000000000002</ele>
        <time>2012-10-21T07:17:29Z</time>
      </trkpt>
      <trkpt lat="47.554775001481175" lon="14.269246011972427">
        <ele>633.60000000000002</ele>
        <time>2012-10-21T07:17:31Z</time>
      </trkpt>
      <trkpt lat="47.554797967895865" lon="14.269302003085613">
        <ele>633.60000000000002</ele>
        <time>2012-10-21T07:17:32Z</time>
      </trkpt>
      <trkpt lat="47.5548480078578" lon="14.269479028880596">
        <ele>633.60000000000002</ele>
        <time>2012-10-21T07:17:35Z</time>
      </trkpt>
      <trkpt lat="47.554931994527578" lon="14.269693018868566">
        <ele>633.60000000000002</ele>
        <time>2012-10-21T07:17:39Z</time>
      </trkpt>
      <trkpt lat="47.555065015330911" lon="14.270087974146008">
        <ele>633.60000000000002</ele>
        <time>2012-10-21T07:17:46Z</time>
      </trkpt>
      <trkpt lat="47.555114971473813" lon="14.270195011049509">
        <ele>633.60000000000002</ele>
        <time>2012-10-21T07:17:48Z</time>
      </trkpt>
      <trkpt lat="47.555183032527566" lon="14.270350998267531">
        <ele>633.60000000000002</ele>
        <time>2012-10-21T07:17:51Z</time>
      </trkpt>
      <trkpt lat="47.555267019197345" lon="14.270576974377036">
        <ele>633.60000000000002</ele>
        <time>2012-10-21T07:17:55Z</time>
      </trkpt>
      <trkpt lat="47.555313035845757" lon="14.270695997402072">
        <ele>633.60000000000002</ele>
        <time>2012-10-21T07:17:57Z</time>
      </trkpt>
      <trkpt lat="47.555454019457102" lon="14.271034961566329">
        <ele>633.60000000000002</ele>
        <time>2012-10-21T07:18:03Z</time>
      </trkpt>
      <trkpt lat="47.555511016398668" lon="14.271150967106223">
        <ele>633.60000000000002</ele>
        <time>2012-10-21T07:18:05Z</time>
      </trkpt>
      <trkpt lat="47.55557999946177" lon="14.271317012608051">
        <ele>633.60000000000002</ele>
        <time>2012-10-21T07:18:07Z</time>
      </trkpt>
      <trkpt lat="47.555606989189982" lon="14.271375015377998">
        <ele>633.60000000000002</ele>
        <time>2012-10-21T07:18:09Z</time>
      </trkpt>
      <trkpt lat="47.555786026641726" lon="14.27174398675561">
        <ele>633.60000000000002</ele>
        <time>2012-10-21T07:18:16Z</time>
      </trkpt>
      <trkpt lat="47.555859033018351" lon="14.271926963701844">
        <ele>633.60000000000002</ele>
        <time>2012-10-21T07:18:19Z</time>
      </trkpt>
      <trkpt lat="47.555958023294806" lon="14.272085968405008">
        <ele>633.60000000000002</ele>
        <time>2012-10-21T07:18:21Z</time>
      </trkpt>
      <trkpt lat="47.556010996922851" lon="14.272167021408677">
        <ele>633.60000000000002</ele>
        <time>2012-10-21T07:18:22Z</time>
      </trkpt>
      <trkpt lat="47.556133037433028" lon="14.272381011396646">
        <ele>633.60000000000002</ele>
        <time>2012-10-21T07:18:25Z</time>
      </trkpt>
      <trkpt lat="47.556178970262408" lon="14.272458041086793">
        <ele>633.20000000000005</ele>
        <time>2012-10-21T07:18:26Z</time>
      </trkpt>
      <trkpt lat="47.55622498691082" lon="14.272543033584952">
        <ele>632.79999999999995</ele>
        <time>2012-10-21T07:18:27Z</time>
      </trkpt>
      <trkpt lat="47.556266980245709" lon="14.272627020254731">
        <ele>632.39999999999998</ele>
        <time>2012-10-21T07:18:28Z</time>
      </trkpt>
      <trkpt lat="47.556308973580599" lon="14.272713018581271">
        <ele>632</ele>
        <time>2012-10-21T07:18:29Z</time>
      </trkpt>
      <trkpt lat="47.556347027420998" lon="14.27279700525105">
        <ele>631.60000000000002</ele>
        <time>2012-10-21T07:18:30Z</time>
      </trkpt>
      <trkpt lat="47.556389020755887" lon="14.272881997749209">
        <ele>631.60000000000002</ele>
        <time>2012-10-21T07:18:31Z</time>
      </trkpt>
      <trkpt lat="47.556564034894109" lon="14.273190032690763">
        <ele>631.60000000000002</ele>
        <time>2012-10-21T07:18:36Z</time>
      </trkpt>
      <trkpt lat="47.556732008233666" lon="14.273493960499763">
        <ele>631.60000000000002</ele>
        <time>2012-10-21T07:18:42Z</time>
      </trkpt>
      <trkpt lat="47.556778024882078" lon="14.273593034595251">
        <ele>631.60000000000002</ele>
        <time>2012-10-21T07:18:44Z</time>
      </trkpt>
      <trkpt lat="47.556805014610291" lon="14.273780034855008">
        <ele>631.60000000000002</ele>
        <time>2012-10-21T07:18:47Z</time>
      </trkpt>
      <trkpt lat="47.556778024882078" lon="14.273988995701075">
        <ele>631.60000000000002</ele>
        <time>2012-10-21T07:18:50Z</time>
      </trkpt>
      <trkpt lat="47.556758997961879" lon="14.274127967655659">
        <ele>631.60000000000002</ele>
        <time>2012-10-21T07:18:52Z</time>
      </trkpt>
      <trkpt lat="47.556732008233666" lon="14.274484030902386">
        <ele>631.60000000000002</ele>
        <time>2012-10-21T07:18:57Z</time>
      </trkpt>
      <trkpt lat="47.556736031547189" lon="14.27462400868535">
        <ele>631.60000000000002</ele>
        <time>2012-10-21T07:18:59Z</time>
      </trkpt>
      <trkpt lat="47.556754974648356" lon="14.275174029171467">
        <ele>631.60000000000002</ele>
        <time>2012-10-21T07:19:07Z</time>
      </trkpt>
      <trkpt lat="47.556800991296768" lon="14.275720026344061">
        <ele>631.60000000000002</ele>
        <time>2012-10-21T07:19:15Z</time>
      </trkpt>
      <trkpt lat="47.556835021823645" lon="14.276222018525004">
        <ele>631.60000000000002</ele>
        <time>2012-10-21T07:19:22Z</time>
      </trkpt>
      <trkpt lat="47.556872991845012" lon="14.276573974639177">
        <ele>631.60000000000002</ele>
        <time>2012-10-21T07:19:27Z</time>
      </trkpt>
      <trkpt lat="47.556899981573224" lon="14.276784025132656">
        <ele>631.60000000000002</ele>
        <time>2012-10-21T07:19:30Z</time>
      </trkpt>
      <trkpt lat="47.556961001828313" lon="14.277410991489887">
        <ele>631.60000000000002</ele>
        <time>2012-10-21T07:19:39Z</time>
      </trkpt>
      <trkpt lat="47.556972987949848" lon="14.277620958164334">
        <ele>631.60000000000002</ele>
        <time>2012-10-21T07:19:42Z</time>
      </trkpt>
      <trkpt lat="47.55699897184968" lon="14.2779750097543">
        <ele>631.60000000000002</ele>
        <time>2012-10-21T07:19:47Z</time>
      </trkpt>
      <trkpt lat="47.557022022083402" lon="14.278171984478831">
        <ele>631.60000000000002</ele>
        <time>2012-10-21T07:19:50Z</time>
      </trkpt>
      <trkpt lat="47.557025961577892" lon="14.278385974466801">
        <ele>631.60000000000002</ele>
        <time>2012-10-21T07:19:53Z</time>
      </trkpt>
      <trkpt lat="47.557076001539826" lon="14.278949992731214">
        <ele>631.60000000000002</ele>
        <time>2012-10-21T07:20:01Z</time>
      </trkpt>
      <trkpt lat="47.55712503567338" lon="14.279432035982609">
        <ele>631.60000000000002</ele>
        <time>2012-10-21T07:20:08Z</time>
      </trkpt>
      <trkpt lat="47.557140039280057" lon="14.279575031250715">
        <ele>631.60000000000002</ele>
        <time>2012-10-21T07:20:10Z</time>
      </trkpt>
      <trkpt lat="47.557204999029636" lon="14.280289001762867">
        <ele>631.60000000000002</ele>
        <time>2012-10-21T07:20:20Z</time>
      </trkpt>
      <trkpt lat="47.557224025949836" lon="14.280850002542138">
        <ele>631.60000000000002</ele>
        <time>2012-10-21T07:20:28Z</time>
      </trkpt>
      <trkpt lat="47.557261995971203" lon="14.28160697221756">
        <ele>631.60000000000002</ele>
        <time>2012-10-21T07:20:39Z</time>
      </trkpt>
      <trkpt lat="47.557288985699415" lon="14.282227987423539">
        <ele>631.60000000000002</ele>
        <time>2012-10-21T07:20:48Z</time>
      </trkpt>
      <trkpt lat="47.557323016226292" lon="14.282854031771421">
        <ele>631.60000000000002</ele>
        <time>2012-10-21T07:20:57Z</time>
      </trkpt>
      <trkpt lat="47.557357968762517" lon="14.283336997032166">
        <ele>631.60000000000002</ele>
        <time>2012-10-21T07:21:04Z</time>
      </trkpt>
      <trkpt lat="47.557381018996239" lon="14.283895986154675">
        <ele>631.60000000000002</ele>
        <time>2012-10-21T07:21:12Z</time>
      </trkpt>
      <trkpt lat="47.55740700289607" lon="14.284460004419088">
        <ele>631.60000000000002</ele>
        <time>2012-10-21T07:21:20Z</time>
      </trkpt>
      <trkpt lat="47.55742602981627" lon="14.284953027963638">
        <ele>631.60000000000002</ele>
        <time>2012-10-21T07:21:27Z</time>
      </trkpt>
      <trkpt lat="47.557411026209593" lon="14.285592986270785">
        <ele>631.60000000000002</ele>
        <time>2012-10-21T07:21:36Z</time>
      </trkpt>
      <trkpt lat="47.557414965704083" lon="14.286202015355229">
        <ele>631.60000000000002</ele>
        <time>2012-10-21T07:21:45Z</time>
      </trkpt>
      <trkpt lat="47.557418989017606" lon="14.28691104054451">
        <ele>631.60000000000002</ele>
        <time>2012-10-21T07:21:55Z</time>
      </trkpt>
      <trkpt lat="47.557423012331128" lon="14.287478998303413">
        <ele>631.60000000000002</ele>
        <time>2012-10-21T07:22:03Z</time>
      </trkpt>
      <trkpt lat="47.557433992624283" lon="14.288079980760813">
        <ele>631.20000000000005</ele>
        <time>2012-10-21T07:22:11Z</time>
      </trkpt>
      <trkpt lat="47.55742996931076" lon="14.288157010450959">
        <ele>630.79999999999995</ele>
        <time>2012-10-21T07:22:12Z</time>
      </trkpt>
      <trkpt lat="47.55742996931076" lon="14.288236973807216">
        <ele>630.39999999999998</ele>
        <time>2012-10-21T07:22:13Z</time>
      </trkpt>
      <trkpt lat="47.55742996931076" lon="14.288311991840601">
        <ele>630</ele>
        <time>2012-10-21T07:22:14Z</time>
      </trkpt>
      <trkpt lat="47.55742996931076" lon="14.288388015702367">
        <ele>629.60000000000002</ele>
        <time>2012-10-21T07:22:15Z</time>
      </trkpt>
      <trkpt lat="47.55742602981627" lon="14.288695966824889">
        <ele>629.60000000000002</ele>
        <time>2012-10-21T07:22:19Z</time>
      </trkpt>
      <trkpt lat="47.557423012331128" lon="14.289268031716347">
        <ele>629.60000000000002</ele>
        <time>2012-10-21T07:22:27Z</time>
      </trkpt>
      <trkpt lat="47.55742996931076" lon="14.28974999114871">
        <ele>629.60000000000002</ele>
        <time>2012-10-21T07:22:34Z</time>
      </trkpt>
      <trkpt lat="47.557475985959172" lon="14.290273021906614">
        <ele>629.60000000000002</ele>
        <time>2012-10-21T07:22:42Z</time>
      </trkpt>
      <trkpt lat="47.557465005666018" lon="14.290852965787053">
        <ele>629.60000000000002</ele>
        <time>2012-10-21T07:22:50Z</time>
      </trkpt>
      <trkpt lat="47.557442039251328" lon="14.291391000151634">
        <ele>629.60000000000002</ele>
        <time>2012-10-21T07:22:57Z</time>
      </trkpt>
      <trkpt lat="47.557433992624283" lon="14.291892992332578">
        <ele>629.60000000000002</ele>
        <time>2012-10-21T07:23:04Z</time>
      </trkpt>
      <trkpt lat="47.557438015937805" lon="14.292182000353932">
        <ele>629.60000000000002</ele>
        <time>2012-10-21T07:23:08Z</time>
      </trkpt>
      <trkpt lat="47.55742996931076" lon="14.292404958978295">
        <ele>629.60000000000002</ele>
        <time>2012-10-21T07:23:11Z</time>
      </trkpt>
      <trkpt lat="47.557442039251328" lon="14.292964031919837">
        <ele>629.60000000000002</ele>
        <time>2012-10-21T07:23:19Z</time>
      </trkpt>
      <trkpt lat="47.557438015937805" lon="14.293601978570223">
        <ele>629.60000000000002</ele>
        <time>2012-10-21T07:23:28Z</time>
      </trkpt>
      <trkpt lat="47.557433992624283" lon="14.294317960739136">
        <ele>629.60000000000002</ele>
        <time>2012-10-21T07:23:38Z</time>
      </trkpt>
      <trkpt lat="47.557433992624283" lon="14.294875022023916">
        <ele>629.60000000000002</ele>
        <time>2012-10-21T07:23:46Z</time>
      </trkpt>
      <trkpt lat="47.557442039251328" lon="14.295427976176143">
        <ele>629.60000000000002</ele>
        <time>2012-10-21T07:23:54Z</time>
      </trkpt>
      <trkpt lat="47.55742602981627" lon="14.295934997498989">
        <ele>629.60000000000002</ele>
        <time>2012-10-21T07:24:01Z</time>
      </trkpt>
      <trkpt lat="47.557418989017606" lon="14.296274967491627">
        <ele>629.60000000000002</ele>
        <time>2012-10-21T07:24:06Z</time>
      </trkpt>
      <trkpt lat="47.557418989017606" lon="14.296339005231857">
        <ele>629.60000000000002</ele>
        <time>2012-10-21T07:24:07Z</time>
      </trkpt>
      <trkpt lat="47.55742602981627" lon="14.296874022111297">
        <ele>629.60000000000002</ele>
        <time>2012-10-21T07:24:15Z</time>
      </trkpt>
      <trkpt lat="47.55742602981627" lon="14.297367967665195">
        <ele>629.60000000000002</ele>
        <time>2012-10-21T07:24:22Z</time>
      </trkpt>
      <trkpt lat="47.557433992624283" lon="14.297997029498219">
        <ele>629.60000000000002</ele>
        <time>2012-10-21T07:24:30Z</time>
      </trkpt>
      <trkpt lat="47.55747196264565" lon="14.298494998365641">
        <ele>629.60000000000002</ele>
        <time>2012-10-21T07:24:37Z</time>
      </trkpt>
      <trkpt lat="47.557522002607584" lon="14.299103021621704">
        <ele>629.60000000000002</ele>
        <time>2012-10-21T07:24:45Z</time>
      </trkpt>
      <trkpt lat="47.557528959587216" lon="14.299177033826709">
        <ele>629.20000000000005</ele>
        <time>2012-10-21T07:24:46Z</time>
      </trkpt>
      <trkpt lat="47.557537006214261" lon="14.299250040203333">
        <ele>628.79999999999995</ele>
        <time>2012-10-21T07:24:47Z</time>
      </trkpt>
      <trkpt lat="47.557544969022274" lon="14.299322040751576">
        <ele>628.39999999999998</ele>
        <time>2012-10-21T07:24:48Z</time>
      </trkpt>
      <trkpt lat="47.55755603313446" lon="14.299393035471439">
        <ele>628</ele>
        <time>2012-10-21T07:24:49Z</time>
      </trkpt>
      <trkpt lat="47.557568019255996" lon="14.299465036019683">
        <ele>627.60000000000002</ele>
        <time>2012-10-21T07:24:50Z</time>
      </trkpt>
      <trkpt lat="47.55759802646935" lon="14.299669973552227">
        <ele>627.60000000000002</ele>
        <time>2012-10-21T07:24:53Z</time>
      </trkpt>
      <trkpt lat="47.557697016745806" lon="14.300129972398281">
        <ele>627.60000000000002</ele>
        <time>2012-10-21T07:25:00Z</time>
      </trkpt>
      <trkpt lat="47.557827020063996" lon="14.300500033423305">
        <ele>627.60000000000002</ele>
        <time>2012-10-21T07:25:06Z</time>
      </trkpt>
      <trkpt lat="47.558005973696709" lon="14.301002025604248">
        <ele>627.60000000000002</ele>
        <time>2012-10-21T07:25:14Z</time>
      </trkpt>
      <trkpt lat="47.558196997269988" lon="14.3013930413872">
        <ele>627.60000000000002</ele>
        <time>2012-10-21T07:25:21Z</time>
      </trkpt>
      <trkpt lat="47.558228010311723" lon="14.301448026672006">
        <ele>627.60000000000002</ele>
        <time>2012-10-21T07:25:22Z</time>
      </trkpt>
      <trkpt lat="47.558331023901701" lon="14.301666961982846">
        <ele>627.60000000000002</ele>
        <time>2012-10-21T07:25:26Z</time>
      </trkpt>
      <trkpt lat="47.558581978082657" lon="14.302005004137754">
        <ele>627.60000000000002</ele>
        <time>2012-10-21T07:25:33Z</time>
      </trkpt>
      <trkpt lat="47.558922031894326" lon="14.302367018535733">
        <ele>627.60000000000002</ele>
        <time>2012-10-21T07:25:41Z</time>
      </trkpt>
      <trkpt lat="47.559245992451906" lon="14.302692990750074">
        <ele>627.60000000000002</ele>
        <time>2012-10-21T07:25:49Z</time>
      </trkpt>
      <trkpt lat="47.559646982699633" lon="14.3030059710145">
        <ele>627.60000000000002</ele>
        <time>2012-10-21T07:25:58Z</time>
      </trkpt>
      <trkpt lat="47.560103964060545" lon="14.303334960713983">
        <ele>627.60000000000002</ele>
        <time>2012-10-21T07:26:08Z</time>
      </trkpt>
      <trkpt lat="47.56052004173398" lon="14.303637966513634">
        <ele>627.60000000000002</ele>
        <time>2012-10-21T07:26:17Z</time>
      </trkpt>
      <trkpt lat="47.560890018939972" lon="14.30392898619175">
        <ele>627.60000000000002</ele>
        <time>2012-10-21T07:26:25Z</time>
      </trkpt>
      <trkpt lat="47.561274999752641" lon="14.304241966456175">
        <ele>627.60000000000002</ele>
        <time>2012-10-21T07:26:34Z</time>
      </trkpt>
      <trkpt lat="47.561626033857465" lon="14.304513959214091">
        <ele>627.60000000000002</ele>
        <time>2012-10-21T07:26:42Z</time>
      </trkpt>
      <trkpt lat="47.562027024105191" lon="14.304824005812407">
        <ele>627.60000000000002</ele>
        <time>2012-10-21T07:26:51Z</time>
      </trkpt>
      <trkpt lat="47.56228300742805" lon="14.305036989971995">
        <ele>627.60000000000002</ele>
        <time>2012-10-21T07:26:57Z</time>
      </trkpt>
      <trkpt lat="47.562365988269448" lon="14.305094992741942">
        <ele>627.60000000000002</ele>
        <time>2012-10-21T07:26:59Z</time>
      </trkpt>
      <trkpt lat="47.562491968274117" lon="14.305124999955297">
        <ele>627.60000000000002</ele>
        <time>2012-10-21T07:27:02Z</time>
      </trkpt>
      <trkpt lat="47.562527004629374" lon="14.305120976641774">
        <ele>627.60000000000002</ele>
        <time>2012-10-21T07:27:03Z</time>
      </trkpt>
      <trkpt lat="47.562640998512506" lon="14.305114019662142">
        <ele>627.60000000000002</ele>
        <time>2012-10-21T07:27:07Z</time>
      </trkpt>
      <trkpt lat="47.562812995165586" lon="14.305152995511889">
        <ele>627.60000000000002</ele>
        <time>2012-10-21T07:27:13Z</time>
      </trkpt>
      <trkpt lat="47.563041988760233" lon="14.305316023528576">
        <ele>627.60000000000002</ele>
        <time>2012-10-21T07:27:18Z</time>
      </trkpt>
      <trkpt lat="47.563273999840021" lon="14.305506041273475">
        <ele>627</ele>
        <time>2012-10-21T07:27:23Z</time>
      </trkpt>
      <trkpt lat="47.563312975689769" lon="14.305534958839417">
        <ele>626.20000000000005</ele>
        <time>2012-10-21T07:27:24Z</time>
      </trkpt>
      <trkpt lat="47.563347006216645" lon="14.30556102655828">
        <ele>625.79999999999995</ele>
        <time>2012-10-21T07:27:25Z</time>
      </trkpt>
      <trkpt lat="47.563373995944858" lon="14.305586004629731">
        <ele>625.39999999999998</ele>
        <time>2012-10-21T07:27:26Z</time>
      </trkpt>
      <trkpt lat="47.563430992886424" lon="14.305653981864452">
        <ele>625.39999999999998</ele>
        <time>2012-10-21T07:27:29Z</time>
      </trkpt>
      <trkpt lat="47.563477009534836" lon="14.305761018767953">
        <ele>625.39999999999998</ele>
        <time>2012-10-21T07:27:35Z</time>
      </trkpt>
      <trkpt lat="47.563461000099778" lon="14.305758001282811">
        <ele>625.39999999999998</ele>
        <time>2012-10-21T07:27:37Z</time>
      </trkpt>
      <trkpt lat="47.563435016199946" lon="14.305718019604683">
        <ele>625.39999999999998</ele>
        <time>2012-10-21T07:27:39Z</time>
      </trkpt>
      <trkpt lat="47.563430992886424" lon="14.305711984634399">
        <ele>625.39999999999998</ele>
        <time>2012-10-21T07:27:44Z</time>
      </trkpt>
      <trkpt lat="47.563445996493101" lon="14.305754983797669">
        <ele>625.39999999999998</ele>
        <time>2012-10-21T07:27:50Z</time>
      </trkpt>
      <trkpt lat="47.563453959301114" lon="14.305770993232727">
        <ele>625.39999999999998</ele>
        <time>2012-10-21T07:27:51Z</time>
      </trkpt>
      <trkpt lat="47.563487989827991" lon="14.305839976295829">
        <ele>625.39999999999998</ele>
        <time>2012-10-21T07:27:55Z</time>
      </trkpt>
      <trkpt lat="47.563540963456035" lon="14.306024964898825">
        <ele>625.39999999999998</ele>
        <time>2012-10-21T07:28:02Z</time>
      </trkpt>
      <trkpt lat="47.563553033396602" lon="14.306038962677121">
        <ele>625.39999999999998</ele>
        <time>2012-10-21T07:28:03Z</time>
      </trkpt>
      <trkpt lat="47.563628973439336" lon="14.306043991819024">
        <ele>625.39999999999998</ele>
        <time>2012-10-21T07:28:06Z</time>
      </trkpt>
      <trkpt lat="47.563648000359535" lon="14.306030999869108">
        <ele>625.79999999999995</ele>
        <time>2012-10-21T07:28:07Z</time>
      </trkpt>
      <trkpt lat="47.563667027279735" lon="14.306018007919192">
        <ele>626.39999999999998</ele>
        <time>2012-10-21T07:28:08Z</time>
      </trkpt>
      <trkpt lat="47.563685970380902" lon="14.305998980998993">
        <ele>626.79999999999995</ele>
        <time>2012-10-21T07:28:09Z</time>
      </trkpt>
      <trkpt lat="47.563709020614624" lon="14.305978026241064">
        <ele>627.20000000000005</ele>
        <time>2012-10-21T07:28:10Z</time>
      </trkpt>
      <trkpt lat="47.563731987029314" lon="14.305958999320865">
        <ele>627.60000000000002</ele>
        <time>2012-10-21T07:28:11Z</time>
      </trkpt>
      <trkpt lat="47.563755037263036" lon="14.305938966572285">
        <ele>627.60000000000002</ele>
        <time>2012-10-21T07:28:12Z</time>
      </trkpt>
      <trkpt lat="47.563778003677726" lon="14.305917005985975">
        <ele>627.60000000000002</ele>
        <time>2012-10-21T07:28:13Z</time>
      </trkpt>
      <trkpt lat="47.563908006995916" lon="14.305783985182643">
        <ele>627.60000000000002</ele>
        <time>2012-10-21T07:28:19Z</time>
      </trkpt>
      <trkpt lat="47.564026024192572" lon="14.305675020441413">
        <ele>627.60000000000002</ele>
        <time>2012-10-21T07:28:24Z</time>
      </trkpt>
      <trkpt lat="47.56413297727704" lon="14.305558009073138">
        <ele>627.60000000000002</ele>
        <time>2012-10-21T07:28:29Z</time>
      </trkpt>
      <trkpt lat="47.564182011410594" lon="14.305532025173306">
        <ele>627.60000000000002</ele>
        <time>2012-10-21T07:28:31Z</time>
      </trkpt>
      <trkpt lat="47.564307991415262" lon="14.30560695938766">
        <ele>627.60000000000002</ele>
        <time>2012-10-21T07:28:35Z</time>
      </trkpt>
      <trkpt lat="47.564484011381865" lon="14.305778034031391">
        <ele>627.60000000000002</ele>
        <time>2012-10-21T07:28:40Z</time>
      </trkpt>
      <trkpt lat="47.564708981662989" lon="14.305963022634387">
        <ele>627.60000000000002</ele>
        <time>2012-10-21T07:28:46Z</time>
      </trkpt>
      <trkpt lat="47.564864968881011" lon="14.306052960455418">
        <ele>627.60000000000002</ele>
        <time>2012-10-21T07:28:50Z</time>
      </trkpt>
      <trkpt lat="47.565006036311388" lon="14.306162009015679">
        <ele>627.60000000000002</ele>
        <time>2012-10-21T07:28:54Z</time>
      </trkpt>
      <trkpt lat="47.565319016575813" lon="14.306418998166919">
        <ele>627.60000000000002</ele>
        <time>2012-10-21T07:29:02Z</time>
      </trkpt>
      <trkpt lat="47.565624034032226" lon="14.306812025606632">
        <ele>627.60000000000002</ele>
        <time>2012-10-21T07:29:10Z</time>
      </trkpt>
      <trkpt lat="47.565769040957093" lon="14.307042025029659">
        <ele>627.20000000000005</ele>
        <time>2012-10-21T07:29:14Z</time>
      </trkpt>
      <trkpt lat="47.565799970179796" lon="14.307107990607619">
        <ele>626.79999999999995</ele>
        <time>2012-10-21T07:29:15Z</time>
      </trkpt>
      <trkpt lat="47.56582997739315" lon="14.30717496201396">
        <ele>626.39999999999998</ele>
        <time>2012-10-21T07:29:16Z</time>
      </trkpt>
      <trkpt lat="47.565860990434885" lon="14.307243023067713">
        <ele>626</ele>
        <time>2012-10-21T07:29:17Z</time>
      </trkpt>
      <trkpt lat="47.565886974334717" lon="14.30730203166604">
        <ele>625.60000000000002</ele>
        <time>2012-10-21T07:29:18Z</time>
      </trkpt>
      <trkpt lat="47.565917987376451" lon="14.307353999465704">
        <ele>625.60000000000002</ele>
        <time>2012-10-21T07:29:19Z</time>
      </trkpt>
      <trkpt lat="47.566016977652907" lon="14.30749699473381">
        <ele>625.60000000000002</ele>
        <time>2012-10-21T07:29:22Z</time>
      </trkpt>
      <trkpt lat="47.566272960975766" lon="14.307802012190223">
        <ele>625.60000000000002</ele>
        <time>2012-10-21T07:29:29Z</time>
      </trkpt>
      <trkpt lat="47.566586025059223" lon="14.308080961927772">
        <ele>625.60000000000002</ele>
        <time>2012-10-21T07:29:37Z</time>
      </trkpt>
      <trkpt lat="47.566875033080578" lon="14.308299981057644">
        <ele>625.60000000000002</ele>
        <time>2012-10-21T07:29:44Z</time>
      </trkpt>
      <trkpt lat="47.567237969487906" lon="14.308573985472322">
        <ele>625.60000000000002</ele>
        <time>2012-10-21T07:29:52Z</time>
      </trkpt>
      <trkpt lat="47.567424969747663" lon="14.308692002668977">
        <ele>625.60000000000002</ele>
        <time>2012-10-21T07:29:56Z</time>
      </trkpt>
      <trkpt lat="47.567509040236473" lon="14.308747993782163">
        <ele>625.60000000000002</ele>
        <time>2012-10-21T07:29:58Z</time>
      </trkpt>
      <trkpt lat="47.567859990522265" lon="14.308989979326725">
        <ele>625.60000000000002</ele>
        <time>2012-10-21T07:30:06Z</time>
      </trkpt>
      <trkpt lat="47.567879017442465" lon="14.309050999581814">
        <ele>625.60000000000002</ele>
        <time>2012-10-21T07:30:07Z</time>
      </trkpt>
      <trkpt lat="47.568027041852474" lon="14.309210004284978">
        <ele>625.60000000000002</ele>
        <time>2012-10-21T07:30:11Z</time>
      </trkpt>
      <trkpt lat="47.568314038217068" lon="14.309447966516018">
        <ele>625.60000000000002</ele>
        <time>2012-10-21T07:30:18Z</time>
      </trkpt>
      <trkpt lat="47.568672029301524" lon="14.309693975374103">
        <ele>625.60000000000002</ele>
        <time>2012-10-21T07:30:26Z</time>
      </trkpt>
      <trkpt lat="47.568992972373962" lon="14.309886004775763">
        <ele>625.60000000000002</ele>
        <time>2012-10-21T07:30:33Z</time>
      </trkpt>
      <trkpt lat="47.569305030629039" lon="14.310071999207139">
        <ele>625.60000000000002</ele>
        <time>2012-10-21T07:30:40Z</time>
      </trkpt>
      <trkpt lat="47.569625973701477" lon="14.310256987810135">
        <ele>625.60000000000002</ele>
        <time>2012-10-21T07:30:47Z</time>
      </trkpt>
      <trkpt lat="47.569939037784934" lon="14.310449017211795">
        <ele>625.60000000000002</ele>
        <time>2012-10-21T07:30:54Z</time>
      </trkpt>
      <trkpt lat="47.570194015279412" lon="14.310616990551353">
        <ele>625.60000000000002</ele>
        <time>2012-10-21T07:31:00Z</time>
      </trkpt>
      <trkpt lat="47.570403981953859" lon="14.310810025781393">
        <ele>625.60000000000002</ele>
        <time>2012-10-21T07:31:06Z</time>
      </trkpt>
      <trkpt lat="47.570625012740493" lon="14.311086963862181">
        <ele>625.60000000000002</ele>
        <time>2012-10-21T07:31:14Z</time>
      </trkpt>
      <trkpt lat="47.570647979155183" lon="14.311130968853831">
        <ele>626</ele>
        <time>2012-10-21T07:31:15Z</time>
      </trkpt>
      <trkpt lat="47.570671029388905" lon="14.311172962188721">
        <ele>626.39999999999998</ele>
        <time>2012-10-21T07:31:16Z</time>
      </trkpt>
      <trkpt lat="47.570689972490072" lon="14.311213027685881">
        <ele>626.79999999999995</ele>
        <time>2012-10-21T07:31:17Z</time>
      </trkpt>
      <trkpt lat="47.570708999410272" lon="14.31125502102077">
        <ele>627.20000000000005</ele>
        <time>2012-10-21T07:31:18Z</time>
      </trkpt>
      <trkpt lat="47.570724003016949" lon="14.311296008527279">
        <ele>627.60000000000002</ele>
        <time>2012-10-21T07:31:19Z</time>
      </trkpt>
      <trkpt lat="47.57077001966536" lon="14.311370020732284">
        <ele>627.60000000000002</ele>
        <time>2012-10-21T07:31:21Z</time>
      </trkpt>
      <trkpt lat="47.57094201631844" lon="14.311603959649801">
        <ele>627.60000000000002</ele>
        <time>2012-10-21T07:31:28Z</time>
      </trkpt>
      <trkpt lat="47.571048969402909" lon="14.311745027080178">
        <ele>628.39999999999998</ele>
        <time>2012-10-21T07:31:32Z</time>
      </trkpt>
      <trkpt lat="47.571067996323109" lon="14.311778973788023">
        <ele>628.79999999999995</ele>
        <time>2012-10-21T07:31:33Z</time>
      </trkpt>
      <trkpt lat="47.571090962737799" lon="14.31181401014328">
        <ele>629.39999999999998</ele>
        <time>2012-10-21T07:31:34Z</time>
      </trkpt>
      <trkpt lat="47.571117030456662" lon="14.311848040670156">
        <ele>629.79999999999995</ele>
        <time>2012-10-21T07:31:35Z</time>
      </trkpt>
      <trkpt lat="47.571334959939122" lon="14.312090026214719">
        <ele>629.79999999999995</ele>
        <time>2012-10-21T07:31:43Z</time>
      </trkpt>
      <trkpt lat="47.571555990725756" lon="14.312242995947599">
        <ele>629.79999999999995</ele>
        <time>2012-10-21T07:31:50Z</time>
      </trkpt>
      <trkpt lat="47.571846004575491" lon="14.312398983165622">
        <ele>629.79999999999995</ele>
        <time>2012-10-21T07:31:58Z</time>
      </trkpt>
      <trkpt lat="47.572136018425226" lon="14.312538960948586">
        <ele>629.79999999999995</ele>
        <time>2012-10-21T07:32:05Z</time>
      </trkpt>
      <trkpt lat="47.572471965104342" lon="14.312717998400331">
        <ele>629.79999999999995</ele>
        <time>2012-10-21T07:32:13Z</time>
      </trkpt>
      <trkpt lat="47.572749992832541" lon="14.312947997823358">
        <ele>629.79999999999995</ele>
        <time>2012-10-21T07:32:20Z</time>
      </trkpt>
      <trkpt lat="47.573008993640542" lon="14.313256032764912">
        <ele>629.79999999999995</ele>
        <time>2012-10-21T07:32:27Z</time>
      </trkpt>
      <trkpt lat="47.573195993900299" lon="14.313467005267739">
        <ele>629.79999999999995</ele>
        <time>2012-10-21T07:32:32Z</time>
      </trkpt>
      <trkpt lat="47.573231030255556" lon="14.313502963632345">
        <ele>629.79999999999995</ele>
        <time>2012-10-21T07:32:33Z</time>
      </trkpt>
      <trkpt lat="47.573460023850203" lon="14.313721982762218">
        <ele>629.79999999999995</ele>
        <time>2012-10-21T07:32:39Z</time>
      </trkpt>
      <trkpt lat="47.57349799387157" lon="14.313774034380913">
        <ele>629.79999999999995</ele>
        <time>2012-10-21T07:32:40Z</time>
      </trkpt>
      <trkpt lat="47.57362699136138" lon="14.313986012712121">
        <ele>629.79999999999995</ele>
        <time>2012-10-21T07:32:44Z</time>
      </trkpt>
      <trkpt lat="47.573680970817804" lon="14.314109981060028">
        <ele>629.79999999999995</ele>
        <time>2012-10-21T07:32:46Z</time>
      </trkpt>
      <trkpt lat="47.573704021051526" lon="14.314177958294749">
        <ele>629.79999999999995</ele>
        <time>2012-10-21T07:32:47Z</time>
      </trkpt>
      <trkpt lat="47.573750037699938" lon="14.314320031553507">
        <ele>629.20000000000005</ele>
        <time>2012-10-21T07:32:49Z</time>
      </trkpt>
      <trkpt lat="47.57377602159977" lon="14.31439395993948">
        <ele>628.79999999999995</ele>
        <time>2012-10-21T07:32:50Z</time>
      </trkpt>
      <trkpt lat="47.57379898801446" lon="14.314464032649994">
        <ele>628.39999999999998</ele>
        <time>2012-10-21T07:32:51Z</time>
      </trkpt>
      <trkpt lat="47.573825977742672" lon="14.314534021541476">
        <ele>628</ele>
        <time>2012-10-21T07:32:52Z</time>
      </trkpt>
      <trkpt lat="47.573849027976394" lon="14.314604010432959">
        <ele>627.60000000000002</ele>
        <time>2012-10-21T07:32:53Z</time>
      </trkpt>
      <trkpt lat="47.573981964960694" lon="14.315026039257646">
        <ele>627.60000000000002</ele>
        <time>2012-10-21T07:32:59Z</time>
      </trkpt>
      <trkpt lat="47.573996968567371" lon="14.315095022320747">
        <ele>627.60000000000002</ele>
        <time>2012-10-21T07:33:00Z</time>
      </trkpt>
      <trkpt lat="47.574032004922628" lon="14.315304988995194">
        <ele>627.60000000000002</ele>
        <time>2012-10-21T07:33:03Z</time>
      </trkpt>
      <trkpt lat="47.574093025177717" lon="14.31596196256578">
        <ele>627.60000000000002</ele>
        <time>2012-10-21T07:33:12Z</time>
      </trkpt>
      <trkpt lat="47.574162008240819" lon="14.316463032737374">
        <ele>627.60000000000002</ele>
        <time>2012-10-21T07:33:19Z</time>
      </trkpt>
      <trkpt lat="47.574172988533974" lon="14.316527992486954">
        <ele>627.60000000000002</ele>
        <time>2012-10-21T07:33:20Z</time>
      </trkpt>
      <trkpt lat="47.574265021830797" lon="14.316983968019485">
        <ele>627.60000000000002</ele>
        <time>2012-10-21T07:33:27Z</time>
      </trkpt>
      <trkpt lat="47.574291005730629" lon="14.317050017416477">
        <ele>627.60000000000002</ele>
        <time>2012-10-21T07:33:28Z</time>
      </trkpt>
      <trkpt lat="47.574383039027452" lon="14.317323016002774">
        <ele>627.60000000000002</ele>
        <time>2012-10-21T07:33:32Z</time>
      </trkpt>
      <trkpt lat="47.574557969346642" lon="14.317773040384054">
        <ele>627.60000000000002</ele>
        <time>2012-10-21T07:33:39Z</time>
      </trkpt>
      <trkpt lat="47.574669029563665" lon="14.318006979301572">
        <ele>627.60000000000002</ele>
        <time>2012-10-21T07:33:43Z</time>
      </trkpt>
      <trkpt lat="47.5747449696064" lon="14.318116027861834">
        <ele>627.20000000000005</ele>
        <time>2012-10-21T07:33:45Z</time>
      </trkpt>
      <trkpt lat="47.574780005961657" lon="14.318169001489878">
        <ele>626.79999999999995</ele>
        <time>2012-10-21T07:33:46Z</time>
      </trkpt>
      <trkpt lat="47.574817975983024" lon="14.318219041451812">
        <ele>626.39999999999998</ele>
        <time>2012-10-21T07:33:47Z</time>
      </trkpt>
      <trkpt lat="47.5748520065099" lon="14.318267991766334">
        <ele>626</ele>
        <time>2012-10-21T07:33:48Z</time>
      </trkpt>
      <trkpt lat="47.574883019551635" lon="14.318315014243126">
        <ele>625.60000000000002</ele>
        <time>2012-10-21T07:33:49Z</time>
      </trkpt>
      <trkpt lat="47.575030960142612" lon="14.318492962047458">
        <ele>625.60000000000002</ele>
        <time>2012-10-21T07:33:53Z</time>
      </trkpt>
      <trkpt lat="47.575359027832747" lon="14.318848019465804">
        <ele>625.60000000000002</ele>
        <time>2012-10-21T07:34:01Z</time>
      </trkpt>
      <trkpt lat="47.575691035017371" lon="14.319192012771964">
        <ele>625.60000000000002</ele>
        <time>2012-10-21T07:34:09Z</time>
      </trkpt>
      <trkpt lat="47.576041985303164" lon="14.319515973329544">
        <ele>625.60000000000002</ele>
        <time>2012-10-21T07:34:17Z</time>
      </trkpt>
      <trkpt lat="47.576156985014677" lon="14.319631978869438">
        <ele>625.60000000000002</ele>
        <time>2012-10-21T07:34:20Z</time>
      </trkpt>
      <trkpt lat="47.576282965019345" lon="14.319744966924191">
        <ele>625.60000000000002</ele>
        <time>2012-10-21T07:34:23Z</time>
      </trkpt>
      <trkpt lat="47.576529979705811" lon="14.319973038509488">
        <ele>625.60000000000002</ele>
        <time>2012-10-21T07:34:29Z</time>
      </trkpt>
      <trkpt lat="47.576831979677081" lon="14.320281995460391">
        <ele>625.60000000000002</ele>
        <time>2012-10-21T07:34:37Z</time>
      </trkpt>
      <trkpt lat="47.577048987150192" lon="14.320521969348192">
        <ele>625.60000000000002</ele>
        <time>2012-10-21T07:34:44Z</time>
      </trkpt>
      <trkpt lat="47.577136997133493" lon="14.320577038452029">
        <ele>625.60000000000002</ele>
        <time>2012-10-21T07:34:48Z</time>
      </trkpt>
      <trkpt lat="47.577147977426648" lon="14.320568991824985">
        <ele>625.60000000000002</ele>
        <time>2012-10-21T07:34:49Z</time>
      </trkpt>
      <trkpt lat="47.577229030430317" lon="14.32049598544836">
        <ele>625.60000000000002</ele>
        <time>2012-10-21T07:34:53Z</time>
      </trkpt>
      <trkpt lat="47.577250991016626" lon="14.320497997105122">
        <ele>625.60000000000002</ele>
        <time>2012-10-21T07:34:54Z</time>
      </trkpt>
      <trkpt lat="47.57732399739325" lon="14.320569997653365">
        <ele>625.60000000000002</ele>
        <time>2012-10-21T07:34:57Z</time>
      </trkpt>
      <trkpt lat="47.57751502096653" lon="14.320770995691419">
        <ele>625.60000000000002</ele>
        <time>2012-10-21T07:35:03Z</time>
      </trkpt>
      <trkpt lat="47.577777961269021" lon="14.321109959855676">
        <ele>625.60000000000002</ele>
        <time>2012-10-21T07:35:11Z</time>
      </trkpt>
      <trkpt lat="47.578030005097389" lon="14.321469040587544">
        <ele>625.60000000000002</ele>
        <time>2012-10-21T07:35:19Z</time>
      </trkpt>
      <trkpt lat="47.578121032565832" lon="14.321596026420593">
        <ele>626</ele>
        <time>2012-10-21T07:35:22Z</time>
      </trkpt>
      <trkpt lat="47.578151961788535" lon="14.321643970906734">
        <ele>626.39999999999998</ele>
        <time>2012-10-21T07:35:23Z</time>
      </trkpt>
      <trkpt lat="47.578181969001889" lon="14.321693005040288">
        <ele>626.79999999999995</ele>
        <time>2012-10-21T07:35:24Z</time>
      </trkpt>
      <trkpt lat="47.578217005357146" lon="14.321741033345461">
        <ele>627.20000000000005</ele>
        <time>2012-10-21T07:35:25Z</time>
      </trkpt>
      <trkpt lat="47.5782470125705" lon="14.321787972003222">
        <ele>627.60000000000002</ele>
        <time>2012-10-21T07:35:26Z</time>
      </trkpt>
      <trkpt lat="47.578517999500036" lon="14.322175970301032">
        <ele>627.60000000000002</ele>
        <time>2012-10-21T07:35:34Z</time>
      </trkpt>
      <trkpt lat="47.578793009743094" lon="14.32253303937614">
        <ele>627.60000000000002</ele>
        <time>2012-10-21T07:35:42Z</time>
      </trkpt>
      <trkpt lat="47.579056033864617" lon="14.322868986055255">
        <ele>627.60000000000002</ele>
        <time>2012-10-21T07:35:50Z</time>
      </trkpt>
      <trkpt lat="47.579311011359096" lon="14.323148019611835">
        <ele>627.60000000000002</ele>
        <time>2012-10-21T07:35:57Z</time>
      </trkpt>
      <trkpt lat="47.5795560143888" lon="14.323399979621172">
        <ele>627.60000000000002</ele>
        <time>2012-10-21T07:36:04Z</time>
      </trkpt>
      <trkpt lat="47.579848961904645" lon="14.323696028441191">
        <ele>627.60000000000002</ele>
        <time>2012-10-21T07:36:12Z</time>
      </trkpt>
      <trkpt lat="47.580184992402792" lon="14.324066005647182">
        <ele>627.60000000000002</ele>
        <time>2012-10-21T07:36:21Z</time>
      </trkpt>
      <trkpt lat="47.580452039837837" lon="14.324368005618453">
        <ele>627.60000000000002</ele>
        <time>2012-10-21T07:36:28Z</time>
      </trkpt>
      <trkpt lat="47.58080299012363" lon="14.324686015024781">
        <ele>627.60000000000002</ele>
        <time>2012-10-21T07:36:37Z</time>
      </trkpt>
      <trkpt lat="47.581042964011431" lon="14.324890030547976">
        <ele>627.60000000000002</ele>
        <time>2012-10-21T07:36:44Z</time>
      </trkpt>
      <trkpt lat="47.581085041165352" lon="14.324897993355989">
        <ele>627.60000000000002</ele>
        <time>2012-10-21T07:36:46Z</time>
      </trkpt>
      <trkpt lat="47.581130973994732" lon="14.324897993355989">
        <ele>627.60000000000002</ele>
        <time>2012-10-21T07:36:48Z</time>
      </trkpt>
      <trkpt lat="47.581248991191387" lon="14.324949039146304">
        <ele>627.60000000000002</ele>
        <time>2012-10-21T07:36:52Z</time>
      </trkpt>
      <trkpt lat="47.581367008388042" lon="14.325099997222424">
        <ele>627.60000000000002</ele>
        <time>2012-10-21T07:36:56Z</time>
      </trkpt>
      <trkpt lat="47.581592984497547" lon="14.325476009398699">
        <ele>627.60000000000002</ele>
        <time>2012-10-21T07:37:03Z</time>
      </trkpt>
      <trkpt lat="47.581778978928924" lon="14.325900971889496">
        <ele>627.60000000000002</ele>
        <time>2012-10-21T07:37:10Z</time>
      </trkpt>
      <trkpt lat="47.581820972263813" lon="14.326033992692828">
        <ele>627.60000000000002</ele>
        <time>2012-10-21T07:37:12Z</time>
      </trkpt>
      <trkpt lat="47.581954998895526" lon="14.326583007350564">
        <ele>627.60000000000002</ele>
        <time>2012-10-21T07:37:20Z</time>
      </trkpt>
      <trkpt lat="47.581974025815725" lon="14.326723990961909">
        <ele>627.60000000000002</ele>
        <time>2012-10-21T07:37:22Z</time>
      </trkpt>
      <trkpt lat="47.581970002502203" lon="14.326915014535189">
        <ele>627.60000000000002</ele>
        <time>2012-10-21T07:37:25Z</time>
      </trkpt>
      <trkpt lat="47.581962961703539" lon="14.326972011476755">
        <ele>627.60000000000002</ele>
        <time>2012-10-21T07:37:26Z</time>
      </trkpt>
      <trkpt lat="47.581962961703539" lon="14.327199999243021">
        <ele>627.60000000000002</ele>
        <time>2012-10-21T07:37:31Z</time>
      </trkpt>
      <trkpt lat="47.581959022209048" lon="14.327507028356194">
        <ele>628</ele>
        <time>2012-10-21T07:37:38Z</time>
      </trkpt>
      <trkpt lat="47.581959022209048" lon="14.327546004205942">
        <ele>628.39999999999998</ele>
        <time>2012-10-21T07:37:39Z</time>
      </trkpt>
      <trkpt lat="47.581959022209048" lon="14.327581962570548">
        <ele>628.79999999999995</ele>
        <time>2012-10-21T07:37:40Z</time>
      </trkpt>
      <trkpt lat="47.581962961703539" lon="14.327620016410947">
        <ele>629.20000000000005</ele>
        <time>2012-10-21T07:37:41Z</time>
      </trkpt>
      <trkpt lat="47.581965979188681" lon="14.327654968947172">
        <ele>629.60000000000002</ele>
        <time>2012-10-21T07:37:42Z</time>
      </trkpt>
      <trkpt lat="47.581974025815725" lon="14.327767034992576">
        <ele>629.60000000000002</ele>
        <time>2012-10-21T07:37:45Z</time>
      </trkpt>
      <trkpt lat="47.581981988623738" lon="14.32788304053247">
        <ele>630</ele>
        <time>2012-10-21T07:37:48Z</time>
      </trkpt>
      <trkpt lat="47.58198500610888" lon="14.327917993068695">
        <ele>630.39999999999998</ele>
        <time>2012-10-21T07:37:49Z</time>
      </trkpt>
      <trkpt lat="47.581989029422402" lon="14.327952023595572">
        <ele>630.79999999999995</ele>
        <time>2012-10-21T07:37:50Z</time>
      </trkpt>
      <trkpt lat="47.581989029422402" lon="14.327987981960177">
        <ele>631.20000000000005</ele>
        <time>2012-10-21T07:37:51Z</time>
      </trkpt>
      <trkpt lat="47.581992968916893" lon="14.328023018315434">
        <ele>631.60000000000002</ele>
        <time>2012-10-21T07:37:52Z</time>
      </trkpt>
      <trkpt lat="47.582001015543938" lon="14.328129971399903">
        <ele>631.60000000000002</ele>
        <time>2012-10-21T07:37:55Z</time>
      </trkpt>
      <trkpt lat="47.58200797252357" lon="14.328296016901731">
        <ele>632</ele>
        <time>2012-10-21T07:38:00Z</time>
      </trkpt>
      <trkpt lat="47.582011995837092" lon="14.328328035771847">
        <ele>632.39999999999998</ele>
        <time>2012-10-21T07:38:01Z</time>
      </trkpt>
      <trkpt lat="47.582016019150615" lon="14.32835896499455">
        <ele>632.79999999999995</ele>
        <time>2012-10-21T07:38:02Z</time>
      </trkpt>
      <trkpt lat="47.582016019150615" lon="14.328390983864665">
        <ele>633.39999999999998</ele>
        <time>2012-10-21T07:38:03Z</time>
      </trkpt>
      <trkpt lat="47.582016019150615" lon="14.328425014391541">
        <ele>633.79999999999995</ele>
        <time>2012-10-21T07:38:04Z</time>
      </trkpt>
      <trkpt lat="47.582019958645105" lon="14.328589970245957">
        <ele>633.79999999999995</ele>
        <time>2012-10-21T07:38:09Z</time>
      </trkpt>
      <trkpt lat="47.582016019150615" lon="14.328654007986188">
        <ele>634.20000000000005</ele>
        <time>2012-10-21T07:38:11Z</time>
      </trkpt>
      <trkpt lat="47.582016019150615" lon="14.328689966350794">
        <ele>634.60000000000002</ele>
        <time>2012-10-21T07:38:12Z</time>
      </trkpt>
      <trkpt lat="47.582016019150615" lon="14.328719973564148">
        <ele>635</ele>
        <time>2012-10-21T07:38:13Z</time>
      </trkpt>
      <trkpt lat="47.582016019150615" lon="14.328749980777502">
        <ele>635.39999999999998</ele>
        <time>2012-10-21T07:38:14Z</time>
      </trkpt>
      <trkpt lat="47.582016019150615" lon="14.328778982162476">
        <ele>635.79999999999995</ele>
        <time>2012-10-21T07:38:15Z</time>
      </trkpt>
      <trkpt lat="47.582019958645105" lon="14.328844025731087">
        <ele>635.79999999999995</ele>
        <time>2012-10-21T07:38:17Z</time>
      </trkpt>
      <trkpt lat="47.582034962251782" lon="14.329048963263631">
        <ele>636.20000000000005</ele>
        <time>2012-10-21T07:38:24Z</time>
      </trkpt>
      <trkpt lat="47.582034962251782" lon="14.329075030982494">
        <ele>636.60000000000002</ele>
        <time>2012-10-21T07:38:25Z</time>
      </trkpt>
      <trkpt lat="47.582038985565305" lon="14.329101014882326">
        <ele>637</ele>
        <time>2012-10-21T07:38:26Z</time>
      </trkpt>
      <trkpt lat="47.582038985565305" lon="14.329128004610538">
        <ele>637.39999999999998</ele>
        <time>2012-10-21T07:38:27Z</time>
      </trkpt>
      <trkpt lat="47.582038985565305" lon="14.329159017652273">
        <ele>637.79999999999995</ele>
        <time>2012-10-21T07:38:28Z</time>
      </trkpt>
      <trkpt lat="47.582053989171982" lon="14.329243004322052">
        <ele>637.79999999999995</ele>
        <time>2012-10-21T07:38:31Z</time>
      </trkpt>
      <trkpt lat="47.582115009427071" lon="14.329424975439906">
        <ele>637.79999999999995</ele>
        <time>2012-10-21T07:38:38Z</time>
      </trkpt>
      <trkpt lat="47.582137975841761" lon="14.329471997916698">
        <ele>638.20000000000005</ele>
        <time>2012-10-21T07:38:40Z</time>
      </trkpt>
      <trkpt lat="47.582146022468805" lon="14.329493958503008">
        <ele>638.79999999999995</ele>
        <time>2012-10-21T07:38:41Z</time>
      </trkpt>
      <trkpt lat="47.58215700276196" lon="14.32951801456511">
        <ele>639.20000000000005</ele>
        <time>2012-10-21T07:38:42Z</time>
      </trkpt>
      <trkpt lat="47.582164965569973" lon="14.329542992636561">
        <ele>639.60000000000002</ele>
        <time>2012-10-21T07:38:43Z</time>
      </trkpt>
      <trkpt lat="47.582176029682159" lon="14.329572999849916">
        <ele>640</ele>
        <time>2012-10-21T07:38:44Z</time>
      </trkpt>
      <trkpt lat="47.582191033288836" lon="14.329618010669947">
        <ele>640</ele>
        <time>2012-10-21T07:38:46Z</time>
      </trkpt>
      <trkpt lat="47.582252975553274" lon="14.329791013151407">
        <ele>640.39999999999998</ele>
        <time>2012-10-21T07:38:53Z</time>
      </trkpt>
      <trkpt lat="47.582260016351938" lon="14.329815991222858">
        <ele>640.79999999999995</ele>
        <time>2012-10-21T07:38:54Z</time>
      </trkpt>
      <trkpt lat="47.582272002473474" lon="14.32984197512269">
        <ele>641.20000000000005</ele>
        <time>2012-10-21T07:38:55Z</time>
      </trkpt>
      <trkpt lat="47.582278959453106" lon="14.329868964850903">
        <ele>641.79999999999995</ele>
        <time>2012-10-21T07:38:56Z</time>
      </trkpt>
      <trkpt lat="47.582282982766628" lon="14.329898972064257">
        <ele>642.20000000000005</ele>
        <time>2012-10-21T07:38:57Z</time>
      </trkpt>
      <trkpt lat="47.582282982766628" lon="14.330014977604151">
        <ele>642.20000000000005</ele>
        <time>2012-10-21T07:39:01Z</time>
      </trkpt>
      <trkpt lat="47.582278959453106" lon="14.330190997570753">
        <ele>642.60000000000002</ele>
        <time>2012-10-21T07:39:07Z</time>
      </trkpt>
      <trkpt lat="47.582275019958615" lon="14.330222010612488">
        <ele>643</ele>
        <time>2012-10-21T07:39:08Z</time>
      </trkpt>
      <trkpt lat="47.582267979159951" lon="14.330255035310984">
        <ele>643.39999999999998</ele>
        <time>2012-10-21T07:39:09Z</time>
      </trkpt>
      <trkpt lat="47.582264039665461" lon="14.330284036695957">
        <ele>643.79999999999995</ele>
        <time>2012-10-21T07:39:10Z</time>
      </trkpt>
      <trkpt lat="47.582260016351938" lon="14.330315971747041">
        <ele>644.20000000000005</ele>
        <time>2012-10-21T07:39:11Z</time>
      </trkpt>
      <trkpt lat="47.582245012745261" lon="14.330418985337019">
        <ele>644.20000000000005</ele>
        <time>2012-10-21T07:39:14Z</time>
      </trkpt>
      <trkpt lat="47.582203019410372" lon="14.330735988914967">
        <ele>644.20000000000005</ele>
        <time>2012-10-21T07:39:21Z</time>
      </trkpt>
      <trkpt lat="47.58213403634727" lon="14.331073025241494">
        <ele>644.20000000000005</ele>
        <time>2012-10-21T07:39:27Z</time>
      </trkpt>
      <trkpt lat="47.582073016092181" lon="14.331339988857508">
        <ele>643.79999999999995</ele>
        <time>2012-10-21T07:39:31Z</time>
      </trkpt>
      <trkpt lat="47.582062035799026" lon="14.331408971920609">
        <ele>643.39999999999998</ele>
        <time>2012-10-21T07:39:32Z</time>
      </trkpt>
      <trkpt lat="47.582049965858459" lon="14.331484995782375">
        <ele>643</ele>
        <time>2012-10-21T07:39:33Z</time>
      </trkpt>
      <trkpt lat="47.582043008878827" lon="14.331561019644141">
        <ele>642.60000000000002</ele>
        <time>2012-10-21T07:39:34Z</time>
      </trkpt>
      <trkpt lat="47.582038985565305" lon="14.331638971343637">
        <ele>642</ele>
        <time>2012-10-21T07:39:35Z</time>
      </trkpt>
      <trkpt lat="47.582047032192349" lon="14.331883974373341">
        <ele>642</ele>
        <time>2012-10-21T07:39:38Z</time>
      </trkpt>
      <trkpt lat="47.582058012485504" lon="14.331954969093204">
        <ele>641.60000000000002</ele>
        <time>2012-10-21T07:39:39Z</time>
      </trkpt>
      <trkpt lat="47.582073016092181" lon="14.332025041803718">
        <ele>641.20000000000005</ele>
        <time>2012-10-21T07:39:40Z</time>
      </trkpt>
      <trkpt lat="47.582088019698858" lon="14.3320950306952">
        <ele>640.79999999999995</ele>
        <time>2012-10-21T07:39:41Z</time>
      </trkpt>
      <trkpt lat="47.582100005820394" lon="14.332166025415063">
        <ele>640.39999999999998</ele>
        <time>2012-10-21T07:39:42Z</time>
      </trkpt>
      <trkpt lat="47.582110986113548" lon="14.332235008478165">
        <ele>639.79999999999995</ele>
        <time>2012-10-21T07:39:43Z</time>
      </trkpt>
      <trkpt lat="47.582126995548606" lon="14.332388984039426">
        <ele>639.79999999999995</ele>
        <time>2012-10-21T07:39:45Z</time>
      </trkpt>
      <trkpt lat="47.582141999155283" lon="14.332663994282484">
        <ele>639.39999999999998</ele>
        <time>2012-10-21T07:39:48Z</time>
      </trkpt>
      <trkpt lat="47.582137975841761" lon="14.332761978730559">
        <ele>639</ele>
        <time>2012-10-21T07:39:49Z</time>
      </trkpt>
      <trkpt lat="47.582137975841761" lon="14.332865998148918">
        <ele>638.60000000000002</ele>
        <time>2012-10-21T07:39:50Z</time>
      </trkpt>
      <trkpt lat="47.582137975841761" lon="14.332972029224038">
        <ele>638.20000000000005</ele>
        <time>2012-10-21T07:39:51Z</time>
      </trkpt>
      <trkpt lat="47.582146022468805" lon="14.333079988136888">
        <ele>637.79999999999995</ele>
        <time>2012-10-21T07:39:52Z</time>
      </trkpt>
      <trkpt lat="47.582149961963296" lon="14.333186019212008">
        <ele>637.20000000000005</ele>
        <time>2012-10-21T07:39:53Z</time>
      </trkpt>
      <trkpt lat="47.582146022468805" lon="14.333294983953238">
        <ele>636.79999999999995</ele>
        <time>2012-10-21T07:39:54Z</time>
      </trkpt>
      <trkpt lat="47.582141999155283" lon="14.333392968401313">
        <ele>636.39999999999998</ele>
        <time>2012-10-21T07:39:55Z</time>
      </trkpt>
      <trkpt lat="47.582141999155283" lon="14.333488019183278">
        <ele>636</ele>
        <time>2012-10-21T07:39:56Z</time>
      </trkpt>
      <trkpt lat="47.582137975841761" lon="14.33357703499496">
        <ele>635.60000000000002</ele>
        <time>2012-10-21T07:39:57Z</time>
      </trkpt>
      <trkpt lat="47.582130013033748" lon="14.3336630333215">
        <ele>635</ele>
        <time>2012-10-21T07:39:58Z</time>
      </trkpt>
      <trkpt lat="47.582122972235084" lon="14.33374903164804">
        <ele>634.60000000000002</ele>
        <time>2012-10-21T07:39:59Z</time>
      </trkpt>
      <trkpt lat="47.582119032740593" lon="14.33383603580296">
        <ele>634</ele>
        <time>2012-10-21T07:40:00Z</time>
      </trkpt>
      <trkpt lat="47.582122972235084" lon="14.333920022472739">
        <ele>633.60000000000002</ele>
        <time>2012-10-21T07:40:01Z</time>
      </trkpt>
      <trkpt lat="47.582176029682159" lon="14.334205007180572">
        <ele>633.60000000000002</ele>
        <time>2012-10-21T07:40:05Z</time>
      </trkpt>
      <trkpt lat="47.582194972783327" lon="14.33426502160728">
        <ele>633.60000000000002</ele>
        <time>2012-10-21T07:40:06Z</time>
      </trkpt>
      <trkpt lat="47.582282982766628" lon="14.334484962746501">
        <ele>633.60000000000002</ele>
        <time>2012-10-21T07:40:10Z</time>
      </trkpt>
      <trkpt lat="47.582454979419708" lon="14.334802972152829">
        <ele>633.60000000000002</ele>
        <time>2012-10-21T07:40:17Z</time>
      </trkpt>
      <trkpt lat="47.582595963031054" lon="14.335096003487706">
        <ele>633.60000000000002</ele>
        <time>2012-10-21T07:40:23Z</time>
      </trkpt>
      <trkpt lat="47.582619013264775" lon="14.33514503762126">
        <ele>633.60000000000002</ele>
        <time>2012-10-21T07:40:24Z</time>
      </trkpt>
      <trkpt lat="47.582775000482798" lon="14.33536296710372">
        <ele>633.60000000000002</ele>
        <time>2012-10-21T07:40:29Z</time>
      </trkpt>
      <trkpt lat="47.582981027662754" lon="14.335635965690017">
        <ele>633.60000000000002</ele>
        <time>2012-10-21T07:40:35Z</time>
      </trkpt>
      <trkpt lat="47.583054034039378" lon="14.335736967623234">
        <ele>633.60000000000002</ele>
        <time>2012-10-21T07:40:37Z</time>
      </trkpt>
      <trkpt lat="47.583336001262069" lon="14.336143992841244">
        <ele>633.60000000000002</ele>
        <time>2012-10-21T07:40:44Z</time>
      </trkpt>
      <trkpt lat="47.583458041772246" lon="14.336365023627877">
        <ele>633</ele>
        <time>2012-10-21T07:40:47Z</time>
      </trkpt>
      <trkpt lat="47.583496011793613" lon="14.33643601834774">
        <ele>632.60000000000002</ele>
        <time>2012-10-21T07:40:48Z</time>
      </trkpt>
      <trkpt lat="47.583518978208303" lon="14.336511958390474">
        <ele>632.20000000000005</ele>
        <time>2012-10-21T07:40:49Z</time>
      </trkpt>
      <trkpt lat="47.583527024835348" lon="14.336579013615847">
        <ele>631.79999999999995</ele>
        <time>2012-10-21T07:40:50Z</time>
      </trkpt>
      <trkpt lat="47.583529958501458" lon="14.336646990850568">
        <ele>631.39999999999998</ele>
        <time>2012-10-21T07:40:51Z</time>
      </trkpt>
      <trkpt lat="47.583542028442025" lon="14.336713962256908">
        <ele>631.39999999999998</ele>
        <time>2012-10-21T07:40:52Z</time>
      </trkpt>
      <trkpt lat="47.583617968484759" lon="14.337013028562069">
        <ele>631.39999999999998</ele>
        <time>2012-10-21T07:40:56Z</time>
      </trkpt>
      <trkpt lat="47.583782002329826" lon="14.337418964132667">
        <ele>630.39999999999998</ele>
        <time>2012-10-21T07:41:01Z</time>
      </trkpt>
      <trkpt lat="47.583831958472729" lon="14.337491970509291">
        <ele>630</ele>
        <time>2012-10-21T07:41:02Z</time>
      </trkpt>
      <trkpt lat="47.583885015919805" lon="14.337561037391424">
        <ele>629.60000000000002</ele>
        <time>2012-10-21T07:41:03Z</time>
      </trkpt>
      <trkpt lat="47.583949975669384" lon="14.337629014626145">
        <ele>629.20000000000005</ele>
        <time>2012-10-21T07:41:04Z</time>
      </trkpt>
      <trkpt lat="47.58400697261095" lon="14.337691040709615">
        <ele>629.20000000000005</ele>
        <time>2012-10-21T07:41:05Z</time>
      </trkpt>
      <trkpt lat="47.584067992866039" lon="14.337752982974052">
        <ele>628.79999999999995</ele>
        <time>2012-10-21T07:41:06Z</time>
      </trkpt>
      <trkpt lat="47.58413303643465" lon="14.33781199157238">
        <ele>628.39999999999998</ele>
        <time>2012-10-21T07:41:07Z</time>
      </trkpt>
      <trkpt lat="47.58419799618423" lon="14.337872005999088">
        <ele>627.79999999999995</ele>
        <time>2012-10-21T07:41:08Z</time>
      </trkpt>
      <trkpt lat="47.584259016439319" lon="14.337932020425797">
        <ele>627.39999999999998</ele>
        <time>2012-10-21T07:41:09Z</time>
      </trkpt>
      <trkpt lat="47.584320036694407" lon="14.337992034852505">
        <ele>627</ele>
        <time>2012-10-21T07:41:10Z</time>
      </trkpt>
      <trkpt lat="47.58460602723062" lon="14.338303003460169">
        <ele>626.60000000000002</ele>
        <time>2012-10-21T07:41:15Z</time>
      </trkpt>
      <trkpt lat="47.58465196006" lon="14.338369974866509">
        <ele>626.20000000000005</ele>
        <time>2012-10-21T07:41:16Z</time>
      </trkpt>
      <trkpt lat="47.584702000021935" lon="14.33843401260674">
        <ele>625.79999999999995</ele>
        <time>2012-10-21T07:41:17Z</time>
      </trkpt>
      <trkpt lat="47.584747010841966" lon="14.338494027033448">
        <ele>625.20000000000005</ele>
        <time>2012-10-21T07:41:18Z</time>
      </trkpt>
      <trkpt lat="47.584793027490377" lon="14.338557980954647">
        <ele>624.79999999999995</ele>
        <time>2012-10-21T07:41:19Z</time>
      </trkpt>
      <trkpt lat="47.584868967533112" lon="14.338687984272838">
        <ele>624.79999999999995</ele>
        <time>2012-10-21T07:41:21Z</time>
      </trkpt>
      <trkpt lat="47.584899980574846" lon="14.33875797316432">
        <ele>624.79999999999995</ele>
        <time>2012-10-21T07:41:22Z</time>
      </trkpt>
      <trkpt lat="47.58497198112309" lon="14.338975986465812">
        <ele>624.79999999999995</ele>
        <time>2012-10-21T07:41:25Z</time>
      </trkpt>
      <trkpt lat="47.584998970851302" lon="14.339129962027073">
        <ele>624.79999999999995</ele>
        <time>2012-10-21T07:41:27Z</time>
      </trkpt>
      <trkpt lat="47.585029983893037" lon="14.339695991948247">
        <ele>624.79999999999995</ele>
        <time>2012-10-21T07:41:34Z</time>
      </trkpt>
      <trkpt lat="47.584995031356812" lon="14.340363023802638">
        <ele>624.79999999999995</ele>
        <time>2012-10-21T07:41:42Z</time>
      </trkpt>
      <trkpt lat="47.585007017478347" lon="14.340748004615307">
        <ele>624.79999999999995</ele>
        <time>2012-10-21T07:41:47Z</time>
      </trkpt>
      <trkpt lat="47.585013974457979" lon="14.34081899933517">
        <ele>624.79999999999995</ele>
        <time>2012-10-21T07:41:48Z</time>
      </trkpt>
      <trkpt lat="47.585125034675002" lon="14.341362984851003">
        <ele>624.79999999999995</ele>
        <time>2012-10-21T07:41:56Z</time>
      </trkpt>
      <trkpt lat="47.585297031328082" lon="14.34185097925365">
        <ele>624.79999999999995</ele>
        <time>2012-10-21T07:42:04Z</time>
      </trkpt>
      <trkpt lat="47.585345981642604" lon="14.342033034190536">
        <ele>624.79999999999995</ele>
        <time>2012-10-21T07:42:07Z</time>
      </trkpt>
      <trkpt lat="47.585360985249281" lon="14.342097993940115">
        <ele>624.79999999999995</ele>
        <time>2012-10-21T07:42:08Z</time>
      </trkpt>
      <trkpt lat="47.585471961647272" lon="14.342585988342762">
        <ele>624.79999999999995</ele>
        <time>2012-10-21T07:42:16Z</time>
      </trkpt>
      <trkpt lat="47.585486965253949" lon="14.34264600276947">
        <ele>625.20000000000005</ele>
        <time>2012-10-21T07:42:17Z</time>
      </trkpt>
      <trkpt lat="47.585502974689007" lon="14.34270802885294">
        <ele>625.60000000000002</ele>
        <time>2012-10-21T07:42:18Z</time>
      </trkpt>
      <trkpt lat="47.585517978295684" lon="14.342771982774138">
        <ele>626.20000000000005</ele>
        <time>2012-10-21T07:42:19Z</time>
      </trkpt>
      <trkpt lat="47.585528958588839" lon="14.342835014685988">
        <ele>626.60000000000002</ele>
        <time>2012-10-21T07:42:20Z</time>
      </trkpt>
      <trkpt lat="47.585544968023896" lon="14.342897040769458">
        <ele>627</ele>
        <time>2012-10-21T07:42:21Z</time>
      </trkpt>
      <trkpt lat="47.585586961358786" lon="14.343094015493989">
        <ele>627</ele>
        <time>2012-10-21T07:42:24Z</time>
      </trkpt>
      <trkpt lat="47.585692992433906" lon="14.343660967424512">
        <ele>627</ele>
        <time>2012-10-21T07:42:33Z</time>
      </trkpt>
      <trkpt lat="47.585773039609194" lon="14.343933966010809">
        <ele>627.39999999999998</ele>
        <time>2012-10-21T07:42:38Z</time>
      </trkpt>
      <trkpt lat="47.585796006023884" lon="14.343985011801124">
        <ele>628.20000000000005</ele>
        <time>2012-10-21T07:42:39Z</time>
      </trkpt>
      <trkpt lat="47.585815032944083" lon="14.344032034277916">
        <ele>628.60000000000002</ele>
        <time>2012-10-21T07:42:40Z</time>
      </trkpt>
      <trkpt lat="47.585837999358773" lon="14.344077967107296">
        <ele>629</ele>
        <time>2012-10-21T07:42:41Z</time>
      </trkpt>
      <trkpt lat="47.585978982970119" lon="14.344354989007115">
        <ele>629</ele>
        <time>2012-10-21T07:42:47Z</time>
      </trkpt>
      <trkpt lat="47.586165983229876" lon="14.344708034768701">
        <ele>629</ele>
        <time>2012-10-21T07:42:55Z</time>
      </trkpt>
      <trkpt lat="47.586253993213177" lon="14.34488195925951">
        <ele>629.39999999999998</ele>
        <time>2012-10-21T07:42:59Z</time>
      </trkpt>
      <trkpt lat="47.586276959627867" lon="14.34492495842278">
        <ele>629.79999999999995</ele>
        <time>2012-10-21T07:43:00Z</time>
      </trkpt>
      <trkpt lat="47.586295986548066" lon="14.344971980899572">
        <ele>630.20000000000005</ele>
        <time>2012-10-21T07:43:01Z</time>
      </trkpt>
      <trkpt lat="47.586319036781788" lon="14.345024032518268">
        <ele>630.60000000000002</ele>
        <time>2012-10-21T07:43:02Z</time>
      </trkpt>
      <trkpt lat="47.586342003196478" lon="14.34507398866117">
        <ele>631</ele>
        <time>2012-10-21T07:43:03Z</time>
      </trkpt>
      <trkpt lat="47.586451973766088" lon="14.345380011945963">
        <ele>631</ele>
        <time>2012-10-21T07:43:09Z</time>
      </trkpt>
      <trkpt lat="47.586513999849558" lon="14.345748983323574">
        <ele>631</ele>
        <time>2012-10-21T07:43:15Z</time>
      </trkpt>
      <trkpt lat="47.586521040648222" lon="14.345815032720566">
        <ele>631</ele>
        <time>2012-10-21T07:43:16Z</time>
      </trkpt>
      <trkpt lat="47.586533026769757" lon="14.346034973859787">
        <ele>631</ele>
        <time>2012-10-21T07:43:19Z</time>
      </trkpt>
      <trkpt lat="47.5865170173347" lon="14.346177969127893">
        <ele>631</ele>
        <time>2012-10-21T07:43:21Z</time>
      </trkpt>
      <trkpt lat="47.586421966552734" lon="14.346697982400656">
        <ele>631</ele>
        <time>2012-10-21T07:43:28Z</time>
      </trkpt>
      <trkpt lat="47.586265979334712" lon="14.347197962924838">
        <ele>630.60000000000002</ele>
        <time>2012-10-21T07:43:35Z</time>
      </trkpt>
      <trkpt lat="47.5862389896065" lon="14.347269963473082">
        <ele>630.20000000000005</ele>
        <time>2012-10-21T07:43:36Z</time>
      </trkpt>
      <trkpt lat="47.58621602319181" lon="14.347342969849706">
        <ele>629.79999999999995</ele>
        <time>2012-10-21T07:43:37Z</time>
      </trkpt>
      <trkpt lat="47.58619699627161" lon="14.347418993711472">
        <ele>629.39999999999998</ele>
        <time>2012-10-21T07:43:38Z</time>
      </trkpt>
      <trkpt lat="47.58617402985692" lon="14.347494011744857">
        <ele>629</ele>
        <time>2012-10-21T07:43:39Z</time>
      </trkpt>
      <trkpt lat="47.586098005995154" lon="14.347795005887747">
        <ele>629</ele>
        <time>2012-10-21T07:43:43Z</time>
      </trkpt>
      <trkpt lat="47.586017958819866" lon="14.348337985575199">
        <ele>629</ele>
        <time>2012-10-21T07:43:50Z</time>
      </trkpt>
      <trkpt lat="47.586014019325376" lon="14.348906027153134">
        <ele>629</ele>
        <time>2012-10-21T07:43:57Z</time>
      </trkpt>
      <trkpt lat="47.586032962426543" lon="14.349125968292356">
        <ele>628.39999999999998</ele>
        <time>2012-10-21T07:44:00Z</time>
      </trkpt>
      <trkpt lat="47.586040003225207" lon="14.349195035174489">
        <ele>628</ele>
        <time>2012-10-21T07:44:01Z</time>
      </trkpt>
      <trkpt lat="47.58604796603322" lon="14.34926301240921">
        <ele>627.60000000000002</ele>
        <time>2012-10-21T07:44:02Z</time>
      </trkpt>
      <trkpt lat="47.586062969639897" lon="14.34932897798717">
        <ele>627.20000000000005</ele>
        <time>2012-10-21T07:44:03Z</time>
      </trkpt>
      <trkpt lat="47.586078979074955" lon="14.34939100407064">
        <ele>626.79999999999995</ele>
        <time>2012-10-21T07:44:04Z</time>
      </trkpt>
      <trkpt lat="47.586159026250243" lon="14.349664002656937">
        <ele>626.79999999999995</ele>
        <time>2012-10-21T07:44:09Z</time>
      </trkpt>
      <trkpt lat="47.586273020133376" lon="14.34984102845192">
        <ele>626.79999999999995</ele>
        <time>2012-10-21T07:44:14Z</time>
      </trkpt>
      <trkpt lat="47.586394976824522" lon="14.350010007619858">
        <ele>627.79999999999995</ele>
        <time>2012-10-21T07:44:19Z</time>
      </trkpt>
      <trkpt lat="47.586414003744721" lon="14.350047977641225">
        <ele>628.20000000000005</ele>
        <time>2012-10-21T07:44:20Z</time>
      </trkpt>
      <trkpt lat="47.586436970159411" lon="14.350084019824862">
        <ele>628.60000000000002</ele>
        <time>2012-10-21T07:44:21Z</time>
      </trkpt>
      <trkpt lat="47.586460020393133" lon="14.350116960704327">
        <ele>629</ele>
        <time>2012-10-21T07:44:22Z</time>
      </trkpt>
      <trkpt lat="47.586623970419168" lon="14.350359030067921">
        <ele>629.39999999999998</ele>
        <time>2012-10-21T07:44:29Z</time>
      </trkpt>
      <trkpt lat="47.58664702065289" lon="14.350391970947385">
        <ele>629.79999999999995</ele>
        <time>2012-10-21T07:44:30Z</time>
      </trkpt>
      <trkpt lat="47.586674010381103" lon="14.350424995645881">
        <ele>630.20000000000005</ele>
        <time>2012-10-21T07:44:31Z</time>
      </trkpt>
      <trkpt lat="47.586696976795793" lon="14.350461959838867">
        <ele>630.60000000000002</ele>
        <time>2012-10-21T07:44:32Z</time>
      </trkpt>
      <trkpt lat="47.586722960695624" lon="14.350498002022505">
        <ele>631</ele>
        <time>2012-10-21T07:44:33Z</time>
      </trkpt>
      <trkpt lat="47.586768977344036" lon="14.350561033934355">
        <ele>631</ele>
        <time>2012-10-21T07:44:35Z</time>
      </trkpt>
      <trkpt lat="47.586933011189103" lon="14.350809976458549">
        <ele>631.39999999999998</ele>
        <time>2012-10-21T07:44:42Z</time>
      </trkpt>
      <trkpt lat="47.586952038109303" lon="14.350844006985426">
        <ele>632.39999999999998</ele>
        <time>2012-10-21T07:44:43Z</time>
      </trkpt>
      <trkpt lat="47.58697098121047" lon="14.350880971178412">
        <ele>632.79999999999995</ele>
        <time>2012-10-21T07:44:44Z</time>
      </trkpt>
      <trkpt lat="47.586994031444192" lon="14.350918019190431">
        <ele>633.20000000000005</ele>
        <time>2012-10-21T07:44:45Z</time>
      </trkpt>
      <trkpt lat="47.587078018113971" lon="14.351079035550356">
        <ele>633.20000000000005</ele>
        <time>2012-10-21T07:44:50Z</time>
      </trkpt>
      <trkpt lat="47.587230987846851" lon="14.351414982229471">
        <ele>633.20000000000005</ele>
        <time>2012-10-21T07:44:58Z</time>
      </trkpt>
      <trkpt lat="47.587401978671551" lon="14.351914040744305">
        <ele>633.20000000000005</ele>
        <time>2012-10-21T07:45:08Z</time>
      </trkpt>
      <trkpt lat="47.587558971717954" lon="14.352359035983682">
        <ele>633.20000000000005</ele>
        <time>2012-10-21T07:45:17Z</time>
      </trkpt>
      <trkpt lat="47.587691992521286" lon="14.352774024009705">
        <ele>633.20000000000005</ele>
        <time>2012-10-21T07:45:26Z</time>
      </trkpt>
      <trkpt lat="47.587729962542653" lon="14.353003017604351">
        <ele>633.60000000000002</ele>
        <time>2012-10-21T07:45:31Z</time>
      </trkpt>
      <trkpt lat="47.587745971977711" lon="14.35304400511086">
        <ele>634</ele>
        <time>2012-10-21T07:45:32Z</time>
      </trkpt>
      <trkpt lat="47.587757036089897" lon="14.353082980960608">
        <ele>634.79999999999995</ele>
        <time>2012-10-21T07:45:33Z</time>
      </trkpt>
      <trkpt lat="47.587769022211432" lon="14.353122040629387">
        <ele>635.20000000000005</ele>
        <time>2012-10-21T07:45:34Z</time>
      </trkpt>
      <trkpt lat="47.587868012487888" lon="14.35340903699398">
        <ele>635.20000000000005</ele>
        <time>2012-10-21T07:45:42Z</time>
      </trkpt>
      <trkpt lat="47.587940013036132" lon="14.353657979518175">
        <ele>635.60000000000002</ele>
        <time>2012-10-21T07:45:50Z</time>
      </trkpt>
      <trkpt lat="47.587951999157667" lon="14.353694021701813">
        <ele>636</ele>
        <time>2012-10-21T07:45:51Z</time>
      </trkpt>
      <trkpt lat="47.587962979450822" lon="14.353727968409657">
        <ele>636.39999999999998</ele>
        <time>2012-10-21T07:45:52Z</time>
      </trkpt>
      <trkpt lat="47.587971026077867" lon="14.353763004764915">
        <ele>636.79999999999995</ele>
        <time>2012-10-21T07:45:53Z</time>
      </trkpt>
      <trkpt lat="47.587977983057499" lon="14.353801980614662">
        <ele>637.20000000000005</ele>
        <time>2012-10-21T07:45:54Z</time>
      </trkpt>
      <trkpt lat="47.588016958907247" lon="14.353951010853052">
        <ele>637.20000000000005</ele>
        <time>2012-10-21T07:45:58Z</time>
      </trkpt>
      <trkpt lat="47.588149979710579" lon="14.354246975854039">
        <ele>637.60000000000002</ele>
        <time>2012-10-21T07:46:07Z</time>
      </trkpt>
      <trkpt lat="47.588169006630778" lon="14.354275977239013">
        <ele>638</ele>
        <time>2012-10-21T07:46:08Z</time>
      </trkpt>
      <trkpt lat="47.588180992752314" lon="14.354304978623986">
        <ele>638.39999999999998</ele>
        <time>2012-10-21T07:46:09Z</time>
      </trkpt>
      <trkpt lat="47.588195996358991" lon="14.35433398000896">
        <ele>639</ele>
        <time>2012-10-21T07:46:10Z</time>
      </trkpt>
      <trkpt lat="47.588210999965668" lon="14.354359963908792">
        <ele>639.39999999999998</ele>
        <time>2012-10-21T07:46:11Z</time>
      </trkpt>
      <trkpt lat="47.588252993300557" lon="14.354445040225983">
        <ele>639.39999999999998</ele>
        <time>2012-10-21T07:46:14Z</time>
      </trkpt>
      <trkpt lat="47.58838701993227" lon="14.354659030213952">
        <ele>639.39999999999998</ele>
        <time>2012-10-21T07:46:22Z</time>
      </trkpt>
      <trkpt lat="47.588402023538947" lon="14.354683002457023">
        <ele>639.79999999999995</ele>
        <time>2012-10-21T07:46:23Z</time>
      </trkpt>
      <trkpt lat="47.588417027145624" lon="14.354706974700093">
        <ele>640.20000000000005</ele>
        <time>2012-10-21T07:46:24Z</time>
      </trkpt>
      <trkpt lat="47.588435970246792" lon="14.354729019105434">
        <ele>640.60000000000002</ele>
        <time>2012-10-21T07:46:25Z</time>
      </trkpt>
      <trkpt lat="47.588450973853469" lon="14.354752991348505">
        <ele>641</ele>
        <time>2012-10-21T07:46:26Z</time>
      </trkpt>
      <trkpt lat="47.588466983288527" lon="14.354776963591576">
        <ele>641.39999999999998</ele>
        <time>2012-10-21T07:46:27Z</time>
      </trkpt>
      <trkpt lat="47.588547030463815" lon="14.35491300188005">
        <ele>641.39999999999998</ele>
        <time>2012-10-21T07:46:32Z</time>
      </trkpt>
      <trkpt lat="47.588661024346948" lon="14.355089021846652">
        <ele>641.39999999999998</ele>
        <time>2012-10-21T07:46:39Z</time>
      </trkpt>
      <trkpt lat="47.58871098048985" lon="14.35519102960825">
        <ele>641.79999999999995</ele>
        <time>2012-10-21T07:46:43Z</time>
      </trkpt>
      <trkpt lat="47.588725984096527" lon="14.355220030993223">
        <ele>642.20000000000005</ele>
        <time>2012-10-21T07:46:44Z</time>
      </trkpt>
      <trkpt lat="47.588740987703204" lon="14.355244003236294">
        <ele>642.60000000000002</ele>
        <time>2012-10-21T07:46:45Z</time>
      </trkpt>
      <trkpt lat="47.588756997138262" lon="14.355270992964506">
        <ele>643</ele>
        <time>2012-10-21T07:46:46Z</time>
      </trkpt>
      <trkpt lat="47.588772000744939" lon="14.355296976864338">
        <ele>643.39999999999998</ele>
        <time>2012-10-21T07:46:47Z</time>
      </trkpt>
      <trkpt lat="47.588908961042762" lon="14.355521025136113">
        <ele>643.39999999999998</ele>
        <time>2012-10-21T07:46:56Z</time>
      </trkpt>
      <trkpt lat="47.588981967419386" lon="14.355650022625923">
        <ele>644</ele>
        <time>2012-10-21T07:47:01Z</time>
      </trkpt>
      <trkpt lat="47.588993031531572" lon="14.355679024010897">
        <ele>644.39999999999998</ele>
        <time>2012-10-21T07:47:02Z</time>
      </trkpt>
      <trkpt lat="47.589005017653108" lon="14.355706013739109">
        <ele>644.79999999999995</ele>
        <time>2012-10-21T07:47:03Z</time>
      </trkpt>
      <trkpt lat="47.589015997946262" lon="14.355734009295702">
        <ele>645.20000000000005</ele>
        <time>2012-10-21T07:47:04Z</time>
      </trkpt>
      <trkpt lat="47.589026978239417" lon="14.355762004852295">
        <ele>645.60000000000002</ele>
        <time>2012-10-21T07:47:05Z</time>
      </trkpt>
      <trkpt lat="47.589104007929564" lon="14.356012037023902">
        <ele>645.60000000000002</ele>
        <time>2012-10-21T07:47:13Z</time>
      </trkpt>
      <trkpt lat="47.58916100487113" lon="14.356227032840252">
        <ele>646</ele>
        <time>2012-10-21T07:47:20Z</time>
      </trkpt>
      <trkpt lat="47.589171985164285" lon="14.356260979548097">
        <ele>646.39999999999998</ele>
        <time>2012-10-21T07:47:21Z</time>
      </trkpt>
      <trkpt lat="47.589180031791329" lon="14.356297021731734">
        <ele>646.79999999999995</ele>
        <time>2012-10-21T07:47:22Z</time>
      </trkpt>
      <trkpt lat="47.589187994599342" lon="14.35633298009634">
        <ele>647.20000000000005</ele>
        <time>2012-10-21T07:47:23Z</time>
      </trkpt>
      <trkpt lat="47.589191012084484" lon="14.356367010623217">
        <ele>647.60000000000002</ele>
        <time>2012-10-21T07:47:24Z</time>
      </trkpt>
      <trkpt lat="47.589229987934232" lon="14.356534983962774">
        <ele>647.60000000000002</ele>
        <time>2012-10-21T07:47:29Z</time>
      </trkpt>
      <trkpt lat="47.589286984875798" lon="14.356873026117682">
        <ele>647.60000000000002</ele>
        <time>2012-10-21T07:47:39Z</time>
      </trkpt>
      <trkpt lat="47.589313974604011" lon="14.357086010277271">
        <ele>648</ele>
        <time>2012-10-21T07:47:45Z</time>
      </trkpt>
      <trkpt lat="47.589316992089152" lon="14.357124986127019">
        <ele>648.39999999999998</ele>
        <time>2012-10-21T07:47:46Z</time>
      </trkpt>
      <trkpt lat="47.589321015402675" lon="14.357161028310657">
        <ele>648.79999999999995</ele>
        <time>2012-10-21T07:47:47Z</time>
      </trkpt>
      <trkpt lat="47.589325038716197" lon="14.357193969190121">
        <ele>649.20000000000005</ele>
        <time>2012-10-21T07:47:48Z</time>
      </trkpt>
      <trkpt lat="47.589325038716197" lon="14.357225988060236">
        <ele>649.60000000000002</ele>
        <time>2012-10-21T07:47:49Z</time>
      </trkpt>
      <trkpt lat="47.589343981817365" lon="14.357473002746701">
        <ele>649.60000000000002</ele>
        <time>2012-10-21T07:47:56Z</time>
      </trkpt>
      <trkpt lat="47.589367032051086" lon="14.357773996889591">
        <ele>650</ele>
        <time>2012-10-21T07:48:05Z</time>
      </trkpt>
      <trkpt lat="47.589370971545577" lon="14.357809033244848">
        <ele>650.39999999999998</ele>
        <time>2012-10-21T07:48:06Z</time>
      </trkpt>
      <trkpt lat="47.589370971545577" lon="14.357844991609454">
        <ele>651</ele>
        <time>2012-10-21T07:48:07Z</time>
      </trkpt>
      <trkpt lat="47.589370971545577" lon="14.357881033793092">
        <ele>651.39999999999998</ele>
        <time>2012-10-21T07:48:08Z</time>
      </trkpt>
      <trkpt lat="47.589370971545577" lon="14.357919003814459">
        <ele>651.79999999999995</ele>
        <time>2012-10-21T07:48:09Z</time>
      </trkpt>
      <trkpt lat="47.589367032051086" lon="14.358100974932313">
        <ele>651.79999999999995</ele>
        <time>2012-10-21T07:48:14Z</time>
      </trkpt>
      <trkpt lat="47.589367032051086" lon="14.358322005718946">
        <ele>651.79999999999995</ele>
        <time>2012-10-21T07:48:21Z</time>
      </trkpt>
      <trkpt lat="47.589358985424042" lon="14.358346983790398">
        <ele>652.20000000000005</ele>
        <time>2012-10-21T07:48:22Z</time>
      </trkpt>
      <trkpt lat="47.589343981817365" lon="14.358377996832132">
        <ele>652.60000000000002</ele>
        <time>2012-10-21T07:48:23Z</time>
      </trkpt>
      <trkpt lat="47.58933300152421" lon="14.358410015702248">
        <ele>653</ele>
        <time>2012-10-21T07:48:24Z</time>
      </trkpt>
      <trkpt lat="47.589325038716197" lon="14.358443040400743">
        <ele>653.39999999999998</ele>
        <time>2012-10-21T07:48:25Z</time>
      </trkpt>
      <trkpt lat="47.589316992089152" lon="14.358477992936969">
        <ele>653.79999999999995</ele>
        <time>2012-10-21T07:48:26Z</time>
      </trkpt>
      <trkpt lat="47.589328978210688" lon="14.358600033447146">
        <ele>653.79999999999995</ele>
        <time>2012-10-21T07:48:30Z</time>
      </trkpt>
      <trkpt lat="47.589336019009352" lon="14.358664993196726">
        <ele>653.79999999999995</ele>
        <time>2012-10-21T07:48:32Z</time>
      </trkpt>
      <trkpt lat="47.589343981817365" lon="14.358965987339616">
        <ele>653.79999999999995</ele>
        <time>2012-10-21T07:48:39Z</time>
      </trkpt>
      <trkpt lat="47.589352028444409" lon="14.359331019222736">
        <ele>653.79999999999995</ele>
        <time>2012-10-21T07:48:45Z</time>
      </trkpt>
      <trkpt lat="47.589400978758931" lon="14.359922027215362">
        <ele>653.79999999999995</ele>
        <time>2012-10-21T07:48:53Z</time>
      </trkpt>
      <trkpt lat="47.589409025385976" lon="14.359997967258096">
        <ele>653.39999999999998</ele>
        <time>2012-10-21T07:48:54Z</time>
      </trkpt>
      <trkpt lat="47.589416988193989" lon="14.360068961977959">
        <ele>653</ele>
        <time>2012-10-21T07:48:55Z</time>
      </trkpt>
      <trkpt lat="47.589427968487144" lon="14.360141968354583">
        <ele>652.60000000000002</ele>
        <time>2012-10-21T07:48:56Z</time>
      </trkpt>
      <trkpt lat="47.58943903259933" lon="14.360208017751575">
        <ele>652.20000000000005</ele>
        <time>2012-10-21T07:48:57Z</time>
      </trkpt>
      <trkpt lat="47.589454958215356" lon="14.360273983329535">
        <ele>651.79999999999995</ele>
        <time>2012-10-21T07:48:58Z</time>
      </trkpt>
      <trkpt lat="47.589488988742232" lon="14.360401974990964">
        <ele>651.79999999999995</ele>
        <time>2012-10-21T07:49:00Z</time>
      </trkpt>
      <trkpt lat="47.589641958475113" lon="14.360805982723832">
        <ele>651.79999999999995</ele>
        <time>2012-10-21T07:49:07Z</time>
      </trkpt>
      <trkpt lat="47.58987003006041" lon="14.361244020983577">
        <ele>651.79999999999995</ele>
        <time>2012-10-21T07:49:15Z</time>
      </trkpt>
      <trkpt lat="47.590102963149548" lon="14.361678035929799">
        <ele>651.79999999999995</ele>
        <time>2012-10-21T07:49:23Z</time>
      </trkpt>
      <trkpt lat="47.590320976451039" lon="14.36198296956718">
        <ele>651.79999999999995</ele>
        <time>2012-10-21T07:49:30Z</time>
      </trkpt>
      <trkpt lat="47.590370010584593" lon="14.361999984830618">
        <ele>651.79999999999995</ele>
        <time>2012-10-21T07:49:32Z</time>
      </trkpt>
      <trkpt lat="47.590397000312805" lon="14.361984981223941">
        <ele>651.79999999999995</ele>
        <time>2012-10-21T07:49:33Z</time>
      </trkpt>
      <trkpt lat="47.590458020567894" lon="14.36198003590107">
        <ele>651.79999999999995</ele>
        <time>2012-10-21T07:49:36Z</time>
      </trkpt>
      <trkpt lat="47.590522980317473" lon="14.362014988437295">
        <ele>651.79999999999995</ele>
        <time>2012-10-21T07:49:39Z</time>
      </trkpt>
      <trkpt lat="47.59053798392415" lon="14.362043989822268">
        <ele>652.20000000000005</ele>
        <time>2012-10-21T07:49:40Z</time>
      </trkpt>
      <trkpt lat="47.590552987530828" lon="14.362087994813919">
        <ele>652.60000000000002</ele>
        <time>2012-10-21T07:49:41Z</time>
      </trkpt>
      <trkpt lat="47.590568996965885" lon="14.362143985927105">
        <ele>653</ele>
        <time>2012-10-21T07:49:42Z</time>
      </trkpt>
      <trkpt lat="47.590584000572562" lon="14.362206012010574">
        <ele>653.60000000000002</ele>
        <time>2012-10-21T07:49:43Z</time>
      </trkpt>
      <trkpt lat="47.590591041371226" lon="14.362258985638618">
        <ele>654</ele>
        <time>2012-10-21T07:49:44Z</time>
      </trkpt>
      <trkpt lat="47.590636974200606" lon="14.362415978685021">
        <ele>654</ele>
        <time>2012-10-21T07:49:47Z</time>
      </trkpt>
      <trkpt lat="47.590675028041005" lon="14.362529972568154">
        <ele>654</ele>
        <time>2012-10-21T07:49:49Z</time>
      </trkpt>
      <trkpt lat="47.590808970853686" lon="14.362987037748098">
        <ele>654</ele>
        <time>2012-10-21T07:49:57Z</time>
      </trkpt>
      <trkpt lat="47.590946014970541" lon="14.36342298053205">
        <ele>654</ele>
        <time>2012-10-21T07:50:05Z</time>
      </trkpt>
      <trkpt lat="47.590983984991908" lon="14.363558012992144">
        <ele>653.60000000000002</ele>
        <time>2012-10-21T07:50:08Z</time>
      </trkpt>
      <trkpt lat="47.590995971113443" lon="14.363605035468936">
        <ele>653.20000000000005</ele>
        <time>2012-10-21T07:50:09Z</time>
      </trkpt>
      <trkpt lat="47.59100703522563" lon="14.363652979955077">
        <ele>652.60000000000002</ele>
        <time>2012-10-21T07:50:10Z</time>
      </trkpt>
      <trkpt lat="47.59101097472012" lon="14.363702014088631">
        <ele>652.20000000000005</ele>
        <time>2012-10-21T07:50:11Z</time>
      </trkpt>
      <trkpt lat="47.591019021347165" lon="14.363749958574772">
        <ele>651.79999999999995</ele>
        <time>2012-10-21T07:50:12Z</time>
      </trkpt>
      <trkpt lat="47.591041987761855" lon="14.364114990457892">
        <ele>651.79999999999995</ele>
        <time>2012-10-21T07:50:18Z</time>
      </trkpt>
      <trkpt lat="47.59105296805501" lon="14.36425999738276">
        <ele>651.79999999999995</ele>
        <time>2012-10-21T07:50:20Z</time>
      </trkpt>
      <trkpt lat="47.591080041602254" lon="14.364417996257544">
        <ele>651.39999999999998</ele>
        <time>2012-10-21T07:50:22Z</time>
      </trkpt>
      <trkpt lat="47.591091021895409" lon="14.364494020119309">
        <ele>651</ele>
        <time>2012-10-21T07:50:23Z</time>
      </trkpt>
      <trkpt lat="47.591106025502086" lon="14.364569960162044">
        <ele>650.60000000000002</ele>
        <time>2012-10-21T07:50:24Z</time>
      </trkpt>
      <trkpt lat="47.591122034937143" lon="14.364652018994093">
        <ele>650</ele>
        <time>2012-10-21T07:50:25Z</time>
      </trkpt>
      <trkpt lat="47.591128991916776" lon="14.364731982350349">
        <ele>649.60000000000002</ele>
        <time>2012-10-21T07:50:26Z</time>
      </trkpt>
      <trkpt lat="47.59113703854382" lon="14.364830972626805">
        <ele>649.20000000000005</ele>
        <time>2012-10-21T07:50:27Z</time>
      </trkpt>
      <trkpt lat="47.591128991916776" lon="14.364931974560022">
        <ele>648.60000000000002</ele>
        <time>2012-10-21T07:50:28Z</time>
      </trkpt>
      <trkpt lat="47.591109964996576" lon="14.365034988150001">
        <ele>648.20000000000005</ele>
        <time>2012-10-21T07:50:29Z</time>
      </trkpt>
      <trkpt lat="47.591080041602254" lon="14.365135990083218">
        <ele>647.79999999999995</ele>
        <time>2012-10-21T07:50:30Z</time>
      </trkpt>
      <trkpt lat="47.591041987761855" lon="14.365230035036802">
        <ele>647.20000000000005</ele>
        <time>2012-10-21T07:50:31Z</time>
      </trkpt>
      <trkpt lat="47.591003011912107" lon="14.365328019484878">
        <ele>646.79999999999995</ele>
        <time>2012-10-21T07:50:32Z</time>
      </trkpt>
      <trkpt lat="47.59096504189074" lon="14.365428015589714">
        <ele>646.20000000000005</ele>
        <time>2012-10-21T07:50:33Z</time>
      </trkpt>
      <trkpt lat="47.590931011363864" lon="14.365533962845802">
        <ele>645.79999999999995</ele>
        <time>2012-10-21T07:50:34Z</time>
      </trkpt>
      <trkpt lat="47.590911984443665" lon="14.365639993920922">
        <ele>645.39999999999998</ele>
        <time>2012-10-21T07:50:35Z</time>
      </trkpt>
      <trkpt lat="47.590904021635652" lon="14.365747030824423">
        <ele>645.39999999999998</ele>
        <time>2012-10-21T07:50:36Z</time>
      </trkpt>
      <trkpt lat="47.590889018028975" lon="14.366059005260468">
        <ele>645</ele>
        <time>2012-10-21T07:50:39Z</time>
      </trkpt>
      <trkpt lat="47.59088097140193" lon="14.366145003587008">
        <ele>644.60000000000002</ele>
        <time>2012-10-21T07:50:40Z</time>
      </trkpt>
      <trkpt lat="47.590874014422297" lon="14.366222033277154">
        <ele>644</ele>
        <time>2012-10-21T07:50:41Z</time>
      </trkpt>
      <trkpt lat="47.590869991108775" lon="14.366291016340256">
        <ele>643.60000000000002</ele>
        <time>2012-10-21T07:50:42Z</time>
      </trkpt>
      <trkpt lat="47.590865967795253" lon="14.366356981918216">
        <ele>643.20000000000005</ele>
        <time>2012-10-21T07:50:43Z</time>
      </trkpt>
      <trkpt lat="47.590823974460363" lon="14.366550017148256">
        <ele>643.20000000000005</ele>
        <time>2012-10-21T07:50:46Z</time>
      </trkpt>
      <trkpt lat="47.59068701416254" lon="14.366815974935889">
        <ele>643.20000000000005</ele>
        <time>2012-10-21T07:50:50Z</time>
      </trkpt>
      <trkpt lat="47.590606966987252" lon="14.366960981860757">
        <ele>642.79999999999995</ele>
        <time>2012-10-21T07:50:52Z</time>
      </trkpt>
      <trkpt lat="47.590564973652363" lon="14.367033988237381">
        <ele>642.39999999999998</ele>
        <time>2012-10-21T07:50:53Z</time>
      </trkpt>
      <trkpt lat="47.590522980317473" lon="14.367112023755908">
        <ele>642</ele>
        <time>2012-10-21T07:50:54Z</time>
      </trkpt>
      <trkpt lat="47.590480986982584" lon="14.367187963798642">
        <ele>641.60000000000002</ele>
        <time>2012-10-21T07:50:55Z</time>
      </trkpt>
      <trkpt lat="47.590438993647695" lon="14.367258958518505">
        <ele>641.20000000000005</ele>
        <time>2012-10-21T07:50:56Z</time>
      </trkpt>
      <trkpt lat="47.590359030291438" lon="14.367382004857063">
        <ele>641.20000000000005</ele>
        <time>2012-10-21T07:50:58Z</time>
      </trkpt>
      <trkpt lat="47.590286023914814" lon="14.367489041760564">
        <ele>640.79999999999995</ele>
        <time>2012-10-21T07:51:00Z</time>
      </trkpt>
      <trkpt lat="47.59025601670146" lon="14.367544027045369">
        <ele>640.39999999999998</ele>
        <time>2012-10-21T07:51:01Z</time>
      </trkpt>
      <trkpt lat="47.590232966467738" lon="14.367597000673413">
        <ele>640</ele>
        <time>2012-10-21T07:51:02Z</time>
      </trkpt>
      <trkpt lat="47.59021402336657" lon="14.367652991786599">
        <ele>639.60000000000002</ele>
        <time>2012-10-21T07:51:03Z</time>
      </trkpt>
      <trkpt lat="47.590183010324836" lon="14.367710994556546">
        <ele>639.20000000000005</ele>
        <time>2012-10-21T07:51:04Z</time>
      </trkpt>
      <trkpt lat="47.59008402004838" lon="14.367961026728153">
        <ele>639.20000000000005</ele>
        <time>2012-10-21T07:51:08Z</time>
      </trkpt>
      <trkpt lat="47.589958040043712" lon="14.36834299005568">
        <ele>638.79999999999995</ele>
        <time>2012-10-21T07:51:13Z</time>
      </trkpt>
      <trkpt lat="47.58993498980999" lon="14.368426976725459">
        <ele>638.39999999999998</ele>
        <time>2012-10-21T07:51:14Z</time>
      </trkpt>
      <trkpt lat="47.5899120233953" lon="14.368510963395238">
        <ele>638</ele>
        <time>2012-10-21T07:51:15Z</time>
      </trkpt>
      <trkpt lat="47.589897019788623" lon="14.368598973378539">
        <ele>637.60000000000002</ele>
        <time>2012-10-21T07:51:16Z</time>
      </trkpt>
      <trkpt lat="47.589877992868423" lon="14.36868597753346">
        <ele>637</ele>
        <time>2012-10-21T07:51:17Z</time>
      </trkpt>
      <trkpt lat="47.589816972613335" lon="14.369066013023257">
        <ele>637</ele>
        <time>2012-10-21T07:51:21Z</time>
      </trkpt>
      <trkpt lat="47.589752012863755" lon="14.369465997442603">
        <ele>636.60000000000002</ele>
        <time>2012-10-21T07:51:25Z</time>
      </trkpt>
      <trkpt lat="47.589737009257078" lon="14.369564987719059">
        <ele>636.20000000000005</ele>
        <time>2012-10-21T07:51:26Z</time>
      </trkpt>
      <trkpt lat="47.589725023135543" lon="14.369661966338754">
        <ele>635.79999999999995</ele>
        <time>2012-10-21T07:51:27Z</time>
      </trkpt>
      <trkpt lat="47.589713959023356" lon="14.369760034605861">
        <ele>635.20000000000005</ele>
        <time>2012-10-21T07:51:28Z</time>
      </trkpt>
      <trkpt lat="47.589702978730202" lon="14.369860030710697">
        <ele>634.79999999999995</ele>
        <time>2012-10-21T07:51:29Z</time>
      </trkpt>
      <trkpt lat="47.589695015922189" lon="14.370134035125375">
        <ele>634.79999999999995</ele>
        <time>2012-10-21T07:51:32Z</time>
      </trkpt>
      <trkpt lat="47.589702978730202" lon="14.370190026238561">
        <ele>634.39999999999998</ele>
        <time>2012-10-21T07:51:33Z</time>
      </trkpt>
      <trkpt lat="47.589710019528866" lon="14.370237970724702">
        <ele>634</ele>
        <time>2012-10-21T07:51:34Z</time>
      </trkpt>
      <trkpt lat="47.589713959023356" lon="14.370291028171778">
        <ele>633.39999999999998</ele>
        <time>2012-10-21T07:51:35Z</time>
      </trkpt>
      <trkpt lat="47.589713959023356" lon="14.370346013456583">
        <ele>633</ele>
        <time>2012-10-21T07:51:36Z</time>
      </trkpt>
      <trkpt lat="47.589713959023356" lon="14.370410973206162">
        <ele>632.60000000000002</ele>
        <time>2012-10-21T07:51:37Z</time>
      </trkpt>
      <trkpt lat="47.589710019528866" lon="14.370481967926025">
        <ele>632.60000000000002</ele>
        <time>2012-10-21T07:51:38Z</time>
      </trkpt>
      <trkpt lat="47.589710019528866" lon="14.370635021477938">
        <ele>632.60000000000002</ele>
        <time>2012-10-21T07:51:40Z</time>
      </trkpt>
      <trkpt lat="47.589710019528866" lon="14.370971973985434">
        <ele>632.60000000000002</ele>
        <time>2012-10-21T07:51:44Z</time>
      </trkpt>
      <trkpt lat="47.589710019528866" lon="14.371233992278576">
        <ele>632.20000000000005</ele>
        <time>2012-10-21T07:51:47Z</time>
      </trkpt>
      <trkpt lat="47.589710019528866" lon="14.371319990605116">
        <ele>631.79999999999995</ele>
        <time>2012-10-21T07:51:48Z</time>
      </trkpt>
      <trkpt lat="47.589710019528866" lon="14.371410012245178">
        <ele>631.39999999999998</ele>
        <time>2012-10-21T07:51:49Z</time>
      </trkpt>
      <trkpt lat="47.589710019528866" lon="14.371495004743338">
        <ele>631</ele>
        <time>2012-10-21T07:51:50Z</time>
      </trkpt>
      <trkpt lat="47.589710019528866" lon="14.371582008898258">
        <ele>630.60000000000002</ele>
        <time>2012-10-21T07:51:51Z</time>
      </trkpt>
      <trkpt lat="47.589705996215343" lon="14.371755011379719">
        <ele>630.60000000000002</ele>
        <time>2012-10-21T07:51:53Z</time>
      </trkpt>
      <trkpt lat="47.589664002880454" lon="14.372162958607078">
        <ele>630.60000000000002</ele>
        <time>2012-10-21T07:51:58Z</time>
      </trkpt>
      <trkpt lat="47.589644975960255" lon="14.372238982468843">
        <ele>630.60000000000002</ele>
        <time>2012-10-21T07:51:59Z</time>
      </trkpt>
      <trkpt lat="47.589622009545565" lon="14.372312994673848">
        <ele>630.20000000000005</ele>
        <time>2012-10-21T07:52:00Z</time>
      </trkpt>
      <trkpt lat="47.589596025645733" lon="14.372382983565331">
        <ele>629.79999999999995</ele>
        <time>2012-10-21T07:52:01Z</time>
      </trkpt>
      <trkpt lat="47.589572975412011" lon="14.372442997992039">
        <ele>629.39999999999998</ele>
        <time>2012-10-21T07:52:02Z</time>
      </trkpt>
      <trkpt lat="47.589539028704166" lon="14.372490020468831">
        <ele>629</ele>
        <time>2012-10-21T07:52:03Z</time>
      </trkpt>
      <trkpt lat="47.589499969035387" lon="14.372535031288862">
        <ele>628.60000000000002</ele>
        <time>2012-10-21T07:52:04Z</time>
      </trkpt>
      <trkpt lat="47.589427968487144" lon="14.372635027393699">
        <ele>628.60000000000002</ele>
        <time>2012-10-21T07:52:06Z</time>
      </trkpt>
      <trkpt lat="47.58933300152421" lon="14.372813981026411">
        <ele>628.60000000000002</ele>
        <time>2012-10-21T07:52:09Z</time>
      </trkpt>
      <trkpt lat="47.589252032339573" lon="14.373009027913213">
        <ele>628.60000000000002</ele>
        <time>2012-10-21T07:52:13Z</time>
      </trkpt>
      <trkpt lat="47.589252032339573" lon="14.373054038733244">
        <ele>628</ele>
        <time>2012-10-21T07:52:14Z</time>
      </trkpt>
      <trkpt lat="47.589264018461108" lon="14.373099971562624">
        <ele>627.60000000000002</ele>
        <time>2012-10-21T07:52:15Z</time>
      </trkpt>
      <trkpt lat="47.589274998754263" lon="14.373155040666461">
        <ele>627.20000000000005</ele>
        <time>2012-10-21T07:52:16Z</time>
      </trkpt>
      <trkpt lat="47.589291008189321" lon="14.373216982930899">
        <ele>626.79999999999995</ele>
        <time>2012-10-21T07:52:17Z</time>
      </trkpt>
      <trkpt lat="47.589301988482475" lon="14.373280014842749">
        <ele>626.39999999999998</ele>
        <time>2012-10-21T07:52:18Z</time>
      </trkpt>
      <trkpt lat="47.589339958503842" lon="14.373505990952253">
        <ele>626.39999999999998</ele>
        <time>2012-10-21T07:52:21Z</time>
      </trkpt>
      <trkpt lat="47.589469961822033" lon="14.373942017555237">
        <ele>626.39999999999998</ele>
        <time>2012-10-21T07:52:27Z</time>
      </trkpt>
      <trkpt lat="47.589565012603998" lon="14.374344013631344">
        <ele>626</ele>
        <time>2012-10-21T07:52:32Z</time>
      </trkpt>
      <trkpt lat="47.589572975412011" lon="14.3744239769876">
        <ele>625.60000000000002</ele>
        <time>2012-10-21T07:52:33Z</time>
      </trkpt>
      <trkpt lat="47.589584039524198" lon="14.37450704164803">
        <ele>625.20000000000005</ele>
        <time>2012-10-21T07:52:34Z</time>
      </trkpt>
      <trkpt lat="47.589596025645733" lon="14.374591028317809">
        <ele>624.79999999999995</ele>
        <time>2012-10-21T07:52:35Z</time>
      </trkpt>
      <trkpt lat="47.589599965140224" lon="14.374673003330827">
        <ele>624.39999999999998</ele>
        <time>2012-10-21T07:52:36Z</time>
      </trkpt>
      <trkpt lat="47.589599965140224" lon="14.375114981085062">
        <ele>624.39999999999998</ele>
        <time>2012-10-21T07:52:41Z</time>
      </trkpt>
      <trkpt lat="47.589545985683799" lon="14.375720992684364">
        <ele>624.39999999999998</ele>
        <time>2012-10-21T07:52:48Z</time>
      </trkpt>
      <trkpt lat="47.589420005679131" lon="14.376250980421901">
        <ele>624.39999999999998</ele>
        <time>2012-10-21T07:52:55Z</time>
      </trkpt>
      <trkpt lat="47.589195035398006" lon="14.376769987866282">
        <ele>624.39999999999998</ele>
        <time>2012-10-21T07:53:03Z</time>
      </trkpt>
      <trkpt lat="47.588902004063129" lon="14.377296958118677">
        <ele>624.39999999999998</ele>
        <time>2012-10-21T07:53:12Z</time>
      </trkpt>
      <trkpt lat="47.588641997426748" lon="14.377797022461891">
        <ele>624.39999999999998</ele>
        <time>2012-10-21T07:53:21Z</time>
      </trkpt>
      <trkpt lat="47.588611990213394" lon="14.377848990261555">
        <ele>624.39999999999998</ele>
        <time>2012-10-21T07:53:22Z</time>
      </trkpt>
      <trkpt lat="47.588496990501881" lon="14.37805300578475">
        <ele>624.39999999999998</ele>
        <time>2012-10-21T07:53:26Z</time>
      </trkpt>
      <trkpt lat="47.588477963581681" lon="14.378110002726316">
        <ele>624.39999999999998</ele>
        <time>2012-10-21T07:53:27Z</time>
      </trkpt>
      <trkpt lat="47.588325999677181" lon="14.378585005179048">
        <ele>624.39999999999998</ele>
        <time>2012-10-21T07:53:35Z</time>
      </trkpt>
      <trkpt lat="47.588191973045468" lon="14.379200991243124">
        <ele>624.39999999999998</ele>
        <time>2012-10-21T07:53:44Z</time>
      </trkpt>
      <trkpt lat="47.588077979162335" lon="14.379805997014046">
        <ele>624.39999999999998</ele>
        <time>2012-10-21T07:53:53Z</time>
      </trkpt>
      <trkpt lat="47.587955016642809" lon="14.380359034985304">
        <ele>624.39999999999998</ele>
        <time>2012-10-21T07:54:01Z</time>
      </trkpt>
      <trkpt lat="47.587814033031464" lon="14.380886005237699">
        <ele>624.39999999999998</ele>
        <time>2012-10-21T07:54:09Z</time>
      </trkpt>
      <trkpt lat="47.587802968919277" lon="14.380951970815659">
        <ele>624.39999999999998</ele>
        <time>2012-10-21T07:54:10Z</time>
      </trkpt>
      <trkpt lat="47.58776499889791" lon="14.381261011585593">
        <ele>624.39999999999998</ele>
        <time>2012-10-21T07:54:15Z</time>
      </trkpt>
      <trkpt lat="47.587669026106596" lon="14.3818339984864">
        <ele>624.39999999999998</ele>
        <time>2012-10-21T07:54:24Z</time>
      </trkpt>
      <trkpt lat="47.58759300224483" lon="14.382137004286051">
        <ele>624.39999999999998</ele>
        <time>2012-10-21T07:54:28Z</time>
      </trkpt>
      <trkpt lat="47.587562995031476" lon="14.382235994562507">
        <ele>624.39999999999998</ele>
        <time>2012-10-21T07:54:29Z</time>
      </trkpt>
      <trkpt lat="47.587527958676219" lon="14.382339008152485">
        <ele>624</ele>
        <time>2012-10-21T07:54:30Z</time>
      </trkpt>
      <trkpt lat="47.587494011968374" lon="14.382445039227605">
        <ele>623.60000000000002</ele>
        <time>2012-10-21T07:54:31Z</time>
      </trkpt>
      <trkpt lat="47.587447995319963" lon="14.382551992312074">
        <ele>623.20000000000005</ele>
        <time>2012-10-21T07:54:32Z</time>
      </trkpt>
      <trkpt lat="47.587406001985073" lon="14.382661040872335">
        <ele>622.60000000000002</ele>
        <time>2012-10-21T07:54:33Z</time>
      </trkpt>
      <trkpt lat="47.587364008650184" lon="14.382777968421578">
        <ele>622</ele>
        <time>2012-10-21T07:54:34Z</time>
      </trkpt>
      <trkpt lat="47.587326038628817" lon="14.382892968133092">
        <ele>621.39999999999998</ele>
        <time>2012-10-21T07:54:35Z</time>
      </trkpt>
      <trkpt lat="47.58729200810194" lon="14.383008973672986">
        <ele>620.79999999999995</ele>
        <time>2012-10-21T07:54:36Z</time>
      </trkpt>
      <trkpt lat="47.587260995060205" lon="14.38312103971839">
        <ele>620.20000000000005</ele>
        <time>2012-10-21T07:54:37Z</time>
      </trkpt>
      <trkpt lat="47.587226964533329" lon="14.383233021944761">
        <ele>620.20000000000005</ele>
        <time>2012-10-21T07:54:38Z</time>
      </trkpt>
      <trkpt lat="47.587153958156705" lon="14.383447011932731">
        <ele>619.79999999999995</ele>
        <time>2012-10-21T07:54:40Z</time>
      </trkpt>
      <trkpt lat="47.587115988135338" lon="14.383548013865948">
        <ele>619.39999999999998</ele>
        <time>2012-10-21T07:54:41Z</time>
      </trkpt>
      <trkpt lat="47.587073994800448" lon="14.383648009970784">
        <ele>619</ele>
        <time>2012-10-21T07:54:42Z</time>
      </trkpt>
      <trkpt lat="47.587028983980417" lon="14.383739959448576">
        <ele>618.60000000000002</ele>
        <time>2012-10-21T07:54:43Z</time>
      </trkpt>
      <trkpt lat="47.586982967332006" lon="14.383827969431877">
        <ele>618.20000000000005</ele>
        <time>2012-10-21T07:54:44Z</time>
      </trkpt>
      <trkpt lat="47.586720027029514" lon="14.384376984089613">
        <ele>617.39999999999998</ele>
        <time>2012-10-21T07:54:50Z</time>
      </trkpt>
      <trkpt lat="47.586684990674257" lon="14.384471029043198">
        <ele>617</ele>
        <time>2012-10-21T07:54:51Z</time>
      </trkpt>
      <trkpt lat="47.586654983460903" lon="14.384567001834512">
        <ele>616.60000000000002</ele>
        <time>2012-10-21T07:54:52Z</time>
      </trkpt>
      <trkpt lat="47.586627993732691" lon="14.384664986282587">
        <ele>616.20000000000005</ele>
        <time>2012-10-21T07:54:53Z</time>
      </trkpt>
      <trkpt lat="47.586544007062912" lon="14.385056002065539">
        <ele>616.20000000000005</ele>
        <time>2012-10-21T07:54:57Z</time>
      </trkpt>
      <trkpt lat="47.586430013179779" lon="14.385683974251151">
        <ele>616.20000000000005</ele>
        <time>2012-10-21T07:55:04Z</time>
      </trkpt>
      <trkpt lat="47.586231026798487" lon="14.386246986687183">
        <ele>616.20000000000005</ele>
        <time>2012-10-21T07:55:11Z</time>
      </trkpt>
      <trkpt lat="47.586062969639897" lon="14.386606989428401">
        <ele>616.20000000000005</ele>
        <time>2012-10-21T07:55:16Z</time>
      </trkpt>
      <trkpt lat="47.585842022672296" lon="14.387111999094486">
        <ele>616.20000000000005</ele>
        <time>2012-10-21T07:55:24Z</time>
      </trkpt>
      <trkpt lat="47.585640018805861" lon="14.387603010982275">
        <ele>616.20000000000005</ele>
        <time>2012-10-21T07:55:33Z</time>
      </trkpt>
      <trkpt lat="47.58559400215745" lon="14.387780958786607">
        <ele>616.20000000000005</ele>
        <time>2012-10-21T07:55:38Z</time>
      </trkpt>
      <trkpt lat="47.585583021864295" lon="14.387858994305134">
        <ele>616.20000000000005</ele>
        <time>2012-10-21T07:55:43Z</time>
      </trkpt>
      <trkpt lat="47.58557103574276" lon="14.387924959883094">
        <ele>616.20000000000005</ele>
        <time>2012-10-21T07:55:49Z</time>
      </trkpt>
      <trkpt lat="47.585567012429237" lon="14.387940969318151">
        <ele>616.20000000000005</ele>
        <time>2012-10-21T07:55:50Z</time>
      </trkpt>
      <trkpt lat="47.585522001609206" lon="14.388017999008298">
        <ele>616.20000000000005</ele>
        <time>2012-10-21T07:55:53Z</time>
      </trkpt>
      <trkpt lat="47.585502974689007" lon="14.388050017878413">
        <ele>616.20000000000005</ele>
        <time>2012-10-21T07:55:54Z</time>
      </trkpt>
      <trkpt lat="47.585426028817892" lon="14.388095028698444">
        <ele>616.20000000000005</ele>
        <time>2012-10-21T07:55:57Z</time>
      </trkpt>
      <trkpt lat="47.585399961099029" lon="14.388068960979581">
        <ele>616.20000000000005</ele>
        <time>2012-10-21T07:55:58Z</time>
      </trkpt>
      <trkpt lat="47.585387974977493" lon="14.387907022610307">
        <ele>616.20000000000005</ele>
        <time>2012-10-21T07:56:01Z</time>
      </trkpt>
      <trkpt lat="47.585438014939427" lon="14.387692026793957">
        <ele>616.20000000000005</ele>
        <time>2012-10-21T07:56:05Z</time>
      </trkpt>
      <trkpt lat="47.585457041859627" lon="14.387599993497133">
        <ele>616.20000000000005</ele>
        <time>2012-10-21T07:56:07Z</time>
      </trkpt>
      <trkpt lat="47.585448995232582" lon="14.387546014040709">
        <ele>616.20000000000005</ele>
        <time>2012-10-21T07:56:08Z</time>
      </trkpt>
      <trkpt lat="47.585426028817892" lon="14.387496979907155">
        <ele>615.79999999999995</ele>
        <time>2012-10-21T07:56:09Z</time>
      </trkpt>
      <trkpt lat="47.585396021604538" lon="14.387459009885788">
        <ele>615.20000000000005</ele>
        <time>2012-10-21T07:56:10Z</time>
      </trkpt>
      <trkpt lat="47.585357967764139" lon="14.387436965480447">
        <ele>614.79999999999995</ele>
        <time>2012-10-21T07:56:11Z</time>
      </trkpt>
      <trkpt lat="47.58531597442925" lon="14.387421039864421">
        <ele>614.39999999999998</ele>
        <time>2012-10-21T07:56:12Z</time>
      </trkpt>
      <trkpt lat="47.585281021893024" lon="14.387401007115841">
        <ele>614</ele>
        <time>2012-10-21T07:56:13Z</time>
      </trkpt>
      <trkpt lat="47.585242968052626" lon="14.387383991852403">
        <ele>614</ele>
        <time>2012-10-21T07:56:14Z</time>
      </trkpt>
      <trkpt lat="47.585017997771502" lon="14.387297993525863">
        <ele>614</ele>
        <time>2012-10-21T07:56:20Z</time>
      </trkpt>
      <trkpt lat="47.584736030548811" lon="14.387210989370942">
        <ele>614</ele>
        <time>2012-10-21T07:56:28Z</time>
      </trkpt>
      <trkpt lat="47.584534026682377" lon="14.387300005182624">
        <ele>614</ele>
        <time>2012-10-21T07:56:32Z</time>
      </trkpt>
      <trkpt lat="47.584483986720443" lon="14.387328000739217">
        <ele>614</ele>
        <time>2012-10-21T07:56:33Z</time>
      </trkpt>
      <trkpt lat="47.584182992577553" lon="14.387521035969257">
        <ele>614</ele>
        <time>2012-10-21T07:56:39Z</time>
      </trkpt>
      <trkpt lat="47.583777979016304" lon="14.387697977945209">
        <ele>614</ele>
        <time>2012-10-21T07:56:47Z</time>
      </trkpt>
      <trkpt lat="47.583472961559892" lon="14.38776302151382">
        <ele>614</ele>
        <time>2012-10-21T07:56:53Z</time>
      </trkpt>
      <trkpt lat="47.583012040704489" lon="14.387719016522169">
        <ele>614</ele>
        <time>2012-10-21T07:57:02Z</time>
      </trkpt>
      <trkpt lat="47.582561010494828" lon="14.387667970731854">
        <ele>614</ele>
        <time>2012-10-21T07:57:11Z</time>
      </trkpt>
      <trkpt lat="47.582161026075482" lon="14.387661013752222">
        <ele>614</ele>
        <time>2012-10-21T07:57:19Z</time>
      </trkpt>
      <trkpt lat="47.581790965050459" lon="14.3876569904387">
        <ele>614</ele>
        <time>2012-10-21T07:57:26Z</time>
      </trkpt>
      <trkpt lat="47.581477984786034" lon="14.387645004317164">
        <ele>614</ele>
        <time>2012-10-21T07:57:32Z</time>
      </trkpt>
      <trkpt lat="47.58110398426652" lon="14.387647015973926">
        <ele>614</ele>
        <time>2012-10-21T07:57:39Z</time>
      </trkpt>
      <trkpt lat="47.580647002905607" lon="14.387642992660403">
        <ele>614</ele>
        <time>2012-10-21T07:57:48Z</time>
      </trkpt>
      <trkpt lat="47.580193039029837" lon="14.387566968798637">
        <ele>614</ele>
        <time>2012-10-21T07:57:57Z</time>
      </trkpt>
      <trkpt lat="47.579776961356401" lon="14.387460015714169">
        <ele>614</ele>
        <time>2012-10-21T07:58:05Z</time>
      </trkpt>
      <trkpt lat="47.579399021342397" lon="14.387450041249394">
        <ele>614</ele>
        <time>2012-10-21T07:58:12Z</time>
      </trkpt>
      <trkpt lat="47.578850006684661" lon="14.387452974915504">
        <ele>614</ele>
        <time>2012-10-21T07:58:22Z</time>
      </trkpt>
      <trkpt lat="47.57843803614378" lon="14.387349039316177">
        <ele>614</ele>
        <time>2012-10-21T07:58:30Z</time>
      </trkpt>
      <trkpt lat="47.578128995373845" lon="14.387176036834717">
        <ele>614</ele>
        <time>2012-10-21T07:58:36Z</time>
      </trkpt>
      <trkpt lat="47.577868988737464" lon="14.386965986341238">
        <ele>614</ele>
        <time>2012-10-21T07:58:42Z</time>
      </trkpt>
      <trkpt lat="47.577732028439641" lon="14.386829026043415">
        <ele>614</ele>
        <time>2012-10-21T07:58:47Z</time>
      </trkpt>
      <trkpt lat="47.577552990987897" lon="14.386645965278149">
        <ele>614</ele>
        <time>2012-10-21T07:58:52Z</time>
      </trkpt>
      <trkpt lat="47.577297007665038" lon="14.386354023590684">
        <ele>614</ele>
        <time>2012-10-21T07:58:59Z</time>
      </trkpt>
      <trkpt lat="47.577087040990591" lon="14.385968958958983">
        <ele>614</ele>
        <time>2012-10-21T07:59:06Z</time>
      </trkpt>
      <trkpt lat="47.576897023245692" lon="14.385581966489553">
        <ele>614</ele>
        <time>2012-10-21T07:59:13Z</time>
      </trkpt>
      <trkpt lat="47.576674986630678" lon="14.385107969865203">
        <ele>614</ele>
        <time>2012-10-21T07:59:21Z</time>
      </trkpt>
      <trkpt lat="47.576511036604643" lon="14.384762970730662">
        <ele>614</ele>
        <time>2012-10-21T07:59:27Z</time>
      </trkpt>
      <trkpt lat="47.576472982764244" lon="14.384720977395773">
        <ele>614</ele>
        <time>2012-10-21T07:59:28Z</time>
      </trkpt>
      <trkpt lat="47.576267039403319" lon="14.384596003219485">
        <ele>614</ele>
        <time>2012-10-21T07:59:33Z</time>
      </trkpt>
      <trkpt lat="47.576080039143562" lon="14.384602960199118">
        <ele>614</ele>
        <time>2012-10-21T07:59:37Z</time>
      </trkpt>
      <trkpt lat="47.576035028323531" lon="14.384612012654543">
        <ele>614</ele>
        <time>2012-10-21T07:59:38Z</time>
      </trkpt>
      <trkpt lat="47.575767980888486" lon="14.384656017646194">
        <ele>614</ele>
        <time>2012-10-21T07:59:44Z</time>
      </trkpt>
      <trkpt lat="47.575721964240074" lon="14.384658029302955">
        <ele>614</ele>
        <time>2012-10-21T07:59:45Z</time>
      </trkpt>
      <trkpt lat="47.575408983975649" lon="14.384666997939348">
        <ele>614</ele>
        <time>2012-10-21T07:59:53Z</time>
      </trkpt>
      <trkpt lat="47.575377970933914" lon="14.384661968797445">
        <ele>614.60000000000002</ele>
        <time>2012-10-21T07:59:54Z</time>
      </trkpt>
      <trkpt lat="47.575344024226069" lon="14.384653000161052">
        <ele>615</ele>
        <time>2012-10-21T07:59:55Z</time>
      </trkpt>
      <trkpt lat="47.575314017012715" lon="14.384645037353039">
        <ele>615.39999999999998</ele>
        <time>2012-10-21T07:59:56Z</time>
      </trkpt>
      <trkpt lat="47.575287027284503" lon="14.384635984897614">
        <ele>615.79999999999995</ele>
        <time>2012-10-21T07:59:57Z</time>
      </trkpt>
      <trkpt lat="47.575260037556291" lon="14.384625004604459">
        <ele>616.20000000000005</ele>
        <time>2012-10-21T07:59:58Z</time>
      </trkpt>
      <trkpt lat="47.575236987322569" lon="14.384614024311304">
        <ele>616.20000000000005</ele>
        <time>2012-10-21T07:59:59Z</time>
      </trkpt>
      <trkpt lat="47.575142020359635" lon="14.384548980742693">
        <ele>616.60000000000002</ele>
        <time>2012-10-21T08:00:04Z</time>
      </trkpt>
      <trkpt lat="47.575118970125914" lon="14.384542023763061">
        <ele>617</ele>
        <time>2012-10-21T08:00:05Z</time>
      </trkpt>
      <trkpt lat="47.57508896291256" lon="14.384542023763061">
        <ele>617.39999999999998</ele>
        <time>2012-10-21T08:00:06Z</time>
      </trkpt>
      <trkpt lat="47.575061973184347" lon="14.384554009884596">
        <ele>617.79999999999995</ele>
        <time>2012-10-21T08:00:07Z</time>
      </trkpt>
      <trkpt lat="47.575030960142612" lon="14.384565996006131">
        <ele>618.20000000000005</ele>
        <time>2012-10-21T08:00:08Z</time>
      </trkpt>
      <trkpt lat="47.574997013434768" lon="14.38458401709795">
        <ele>618.20000000000005</ele>
        <time>2012-10-21T08:00:09Z</time>
      </trkpt>
      <trkpt lat="47.574841026216745" lon="14.384789038449526">
        <ele>618.20000000000005</ele>
        <time>2012-10-21T08:00:15Z</time>
      </trkpt>
      <trkpt lat="47.574654025956988" lon="14.385082991793752">
        <ele>618.20000000000005</ele>
        <time>2012-10-21T08:00:22Z</time>
      </trkpt>
      <trkpt lat="47.574489992111921" lon="14.385390020906925">
        <ele>618.20000000000005</ele>
        <time>2012-10-21T08:00:29Z</time>
      </trkpt>
      <trkpt lat="47.574322018772364" lon="14.385726973414421">
        <ele>618.20000000000005</ele>
        <time>2012-10-21T08:00:35Z</time>
      </trkpt>
      <trkpt lat="47.574009038507938" lon="14.386318987235427">
        <ele>618.20000000000005</ele>
        <time>2012-10-21T08:00:46Z</time>
      </trkpt>
      <trkpt lat="47.573810974135995" lon="14.386744033545256">
        <ele>618.20000000000005</ele>
        <time>2012-10-21T08:00:54Z</time>
      </trkpt>
      <trkpt lat="47.573623973876238" lon="14.387133037671447">
        <ele>618.20000000000005</ele>
        <time>2012-10-21T08:01:01Z</time>
      </trkpt>
      <trkpt lat="47.573490031063557" lon="14.387567974627018">
        <ele>618.20000000000005</ele>
        <time>2012-10-21T08:01:08Z</time>
      </trkpt>
      <trkpt lat="47.573382994160056" lon="14.388121012598276">
        <ele>618.20000000000005</ele>
        <time>2012-10-21T08:01:16Z</time>
      </trkpt>
      <trkpt lat="47.573379976674914" lon="14.38819301314652">
        <ele>618.20000000000005</ele>
        <time>2012-10-21T08:01:17Z</time>
      </trkpt>
      <trkpt lat="47.573360027745366" lon="14.388499036431313">
        <ele>618.20000000000005</ele>
        <time>2012-10-21T08:01:21Z</time>
      </trkpt>
      <trkpt lat="47.573357010260224" lon="14.388713026419282">
        <ele>618.20000000000005</ele>
        <time>2012-10-21T08:01:24Z</time>
      </trkpt>
      <trkpt lat="47.57334896363318" lon="14.388769017532468">
        <ele>617.79999999999995</ele>
        <time>2012-10-21T08:01:25Z</time>
      </trkpt>
      <trkpt lat="47.573337983340025" lon="14.38881604000926">
        <ele>617.39999999999998</ele>
        <time>2012-10-21T08:01:26Z</time>
      </trkpt>
      <trkpt lat="47.573315016925335" lon="14.388851998373866">
        <ele>616.60000000000002</ele>
        <time>2012-10-21T08:01:27Z</time>
      </trkpt>
      <trkpt lat="47.573288027197123" lon="14.388873036950827">
        <ele>616</ele>
        <time>2012-10-21T08:01:28Z</time>
      </trkpt>
      <trkpt lat="47.573249973356724" lon="14.388874964788556">
        <ele>616</ele>
        <time>2012-10-21T08:01:29Z</time>
      </trkpt>
      <trkpt lat="47.5731769669801" lon="14.388854010030627">
        <ele>616</ele>
        <time>2012-10-21T08:01:31Z</time>
      </trkpt>
      <trkpt lat="47.573035983368754" lon="14.388805981725454">
        <ele>616</ele>
        <time>2012-10-21T08:01:35Z</time>
      </trkpt>
      <trkpt lat="47.57287597283721" lon="14.388883011415601">
        <ele>616</ele>
        <time>2012-10-21T08:01:40Z</time>
      </trkpt>
      <trkpt lat="47.572822999209166" lon="14.388937996700406">
        <ele>616</ele>
        <time>2012-10-21T08:01:44Z</time>
      </trkpt>
      <trkpt lat="47.572826016694307" lon="14.38894503749907">
        <ele>616.39999999999998</ele>
        <time>2012-10-21T08:01:46Z</time>
      </trkpt>
      <trkpt lat="47.57283004000783" lon="14.38894797116518">
        <ele>616.79999999999995</ele>
        <time>2012-10-21T08:01:47Z</time>
      </trkpt>
      <trkpt lat="47.572826016694307" lon="14.388948976993561">
        <ele>617.20000000000005</ele>
        <time>2012-10-21T08:01:48Z</time>
      </trkpt>
      <trkpt lat="47.57283004000783" lon="14.388951994478703">
        <ele>617.60000000000002</ele>
        <time>2012-10-21T08:01:49Z</time>
      </trkpt>
      <trkpt lat="47.57283004000783" lon="14.388951994478703">
        <ele>618</ele>
        <time>2012-10-21T08:01:50Z</time>
      </trkpt>
      <trkpt lat="47.57283397950232" lon="14.388948976993561">
        <ele>618</ele>
        <time>2012-10-21T08:01:58Z</time>
      </trkpt>
      <trkpt lat="47.57283397950232" lon="14.388948976993561">
        <ele>618</ele>
        <time>2012-10-21T08:02:16Z</time>
      </trkpt>
      <trkpt lat="47.572822999209166" lon="14.388974960893393">
        <ele>618</ele>
        <time>2012-10-21T08:02:32Z</time>
      </trkpt>
      <trkpt lat="47.572822999209166" lon="14.388974960893393">
        <ele>618</ele>
        <time>2012-10-21T08:02:46Z</time>
      </trkpt>
      <trkpt lat="47.57283397950232" lon="14.388999016955495">
        <ele>618</ele>
        <time>2012-10-21T08:02:54Z</time>
      </trkpt>
      <trkpt lat="47.57283397950232" lon="14.389003040269017">
        <ele>618</ele>
        <time>2012-10-21T08:03:01Z</time>
      </trkpt>
      <trkpt lat="47.572838002815843" lon="14.389133965596557">
        <ele>618</ele>
        <time>2012-10-21T08:03:06Z</time>
      </trkpt>
      <trkpt lat="47.572791986167431" lon="14.389235973358154">
        <ele>618</ele>
        <time>2012-10-21T08:03:10Z</time>
      </trkpt>
      <trkpt lat="47.572772959247231" lon="14.389301016926765">
        <ele>618</ele>
        <time>2012-10-21T08:03:12Z</time>
      </trkpt>
      <trkpt lat="47.572670029476285" lon="14.389574015513062">
        <ele>618</ele>
        <time>2012-10-21T08:03:20Z</time>
      </trkpt>
      <trkpt lat="47.572547988966107" lon="14.389957990497351">
        <ele>618</ele>
        <time>2012-10-21T08:03:30Z</time>
      </trkpt>
      <trkpt lat="47.572495015338063" lon="14.390115989372134">
        <ele>618.60000000000002</ele>
        <time>2012-10-21T08:03:34Z</time>
      </trkpt>
      <trkpt lat="47.572483029216528" lon="14.390153959393501">
        <ele>619</ele>
        <time>2012-10-21T08:03:35Z</time>
      </trkpt>
      <trkpt lat="47.572468025609851" lon="14.390193019062281">
        <ele>619.39999999999998</ele>
        <time>2012-10-21T08:03:36Z</time>
      </trkpt>
      <trkpt lat="47.572453022003174" lon="14.390231994912028">
        <ele>619.79999999999995</ele>
        <time>2012-10-21T08:03:37Z</time>
      </trkpt>
      <trkpt lat="47.572437012568116" lon="14.390270970761776">
        <ele>620.20000000000005</ele>
        <time>2012-10-21T08:03:38Z</time>
      </trkpt>
      <trkpt lat="47.572314972057939" lon="14.390587974339724">
        <ele>620.20000000000005</ele>
        <time>2012-10-21T08:03:46Z</time>
      </trkpt>
      <trkpt lat="47.572242971509695" lon="14.390858961269259">
        <ele>620.60000000000002</ele>
        <time>2012-10-21T08:03:53Z</time>
      </trkpt>
      <trkpt lat="47.572226962074637" lon="14.390891985967755">
        <ele>621</ele>
        <time>2012-10-21T08:03:54Z</time>
      </trkpt>
      <trkpt lat="47.572215981781483" lon="14.390924004837871">
        <ele>621.79999999999995</ele>
        <time>2012-10-21T08:03:55Z</time>
      </trkpt>
      <trkpt lat="47.572205001488328" lon="14.390959963202477">
        <ele>622.20000000000005</ele>
        <time>2012-10-21T08:03:56Z</time>
      </trkpt>
      <trkpt lat="47.572109028697014" lon="14.391191974282265">
        <ele>622.20000000000005</ele>
        <time>2012-10-21T08:04:03Z</time>
      </trkpt>
      <trkpt lat="47.57208296097815" lon="14.391254000365734">
        <ele>622.60000000000002</ele>
        <time>2012-10-21T08:04:05Z</time>
      </trkpt>
      <trkpt lat="47.572070974856615" lon="14.391284007579088">
        <ele>623</ele>
        <time>2012-10-21T08:04:06Z</time>
      </trkpt>
      <trkpt lat="47.57205999456346" lon="14.391314014792442">
        <ele>623.39999999999998</ele>
        <time>2012-10-21T08:04:07Z</time>
      </trkpt>
      <trkpt lat="47.572048008441925" lon="14.391343016177416">
        <ele>623.79999999999995</ele>
        <time>2012-10-21T08:04:08Z</time>
      </trkpt>
      <trkpt lat="47.572040967643261" lon="14.391371011734009">
        <ele>624.20000000000005</ele>
        <time>2012-10-21T08:04:09Z</time>
      </trkpt>
      <trkpt lat="47.572024958208203" lon="14.391430020332336">
        <ele>624.20000000000005</ele>
        <time>2012-10-21T08:04:11Z</time>
      </trkpt>
      <trkpt lat="47.571980031207204" lon="14.391571003943682">
        <ele>624.60000000000002</ele>
        <time>2012-10-21T08:04:16Z</time>
      </trkpt>
      <trkpt lat="47.571964021772146" lon="14.391591958701611">
        <ele>625</ele>
        <time>2012-10-21T08:04:17Z</time>
      </trkpt>
      <trkpt lat="47.571953041478992" lon="14.391614003106952">
        <ele>625.39999999999998</ele>
        <time>2012-10-21T08:04:18Z</time>
      </trkpt>
      <trkpt lat="47.571944994851947" lon="14.391636969521642">
        <ele>625.79999999999995</ele>
        <time>2012-10-21T08:04:19Z</time>
      </trkpt>
      <trkpt lat="47.571934014558792" lon="14.391662031412125">
        <ele>626.20000000000005</ele>
        <time>2012-10-21T08:04:20Z</time>
      </trkpt>
      <trkpt lat="47.571853967383504" lon="14.391903011128306">
        <ele>626.60000000000002</ele>
        <time>2012-10-21T08:04:29Z</time>
      </trkpt>
      <trkpt lat="47.571846004575491" lon="14.391931006684899">
        <ele>627</ele>
        <time>2012-10-21T08:04:30Z</time>
      </trkpt>
      <trkpt lat="47.571838041767478" lon="14.391960008069873">
        <ele>627.39999999999998</ele>
        <time>2012-10-21T08:04:31Z</time>
      </trkpt>
      <trkpt lat="47.571826977655292" lon="14.391989009454846">
        <ele>627.79999999999995</ele>
        <time>2012-10-21T08:04:32Z</time>
      </trkpt>
      <trkpt lat="47.571823038160801" lon="14.392015999183059">
        <ele>628.20000000000005</ele>
        <time>2012-10-21T08:04:33Z</time>
      </trkpt>
      <trkpt lat="47.571753971278667" lon="14.392195036634803">
        <ele>628.20000000000005</ele>
        <time>2012-10-21T08:04:40Z</time>
      </trkpt>
      <trkpt lat="47.5717160012573" lon="14.392330991104245">
        <ele>628.60000000000002</ele>
        <time>2012-10-21T08:04:45Z</time>
      </trkpt>
      <trkpt lat="47.571711977943778" lon="14.392360998317599">
        <ele>629</ele>
        <time>2012-10-21T08:04:46Z</time>
      </trkpt>
      <trkpt lat="47.571705020964146" lon="14.392392011359334">
        <ele>629.60000000000002</ele>
        <time>2012-10-21T08:04:47Z</time>
      </trkpt>
      <trkpt lat="47.571700997650623" lon="14.39242503605783">
        <ele>630</ele>
        <time>2012-10-21T08:04:48Z</time>
      </trkpt>
      <trkpt lat="47.571696974337101" lon="14.392454037442803">
        <ele>630.39999999999998</ele>
        <time>2012-10-21T08:04:49Z</time>
      </trkpt>
      <trkpt lat="47.571690017357469" lon="14.392483960837126">
        <ele>630.39999999999998</ele>
        <time>2012-10-21T08:04:50Z</time>
      </trkpt>
      <trkpt lat="47.571590021252632" lon="14.392723012715578">
        <ele>630.39999999999998</ele>
        <time>2012-10-21T08:04:59Z</time>
      </trkpt>
      <trkpt lat="47.571536963805556" lon="14.392884029075503">
        <ele>630.79999999999995</ele>
        <time>2012-10-21T08:05:05Z</time>
      </trkpt>
      <trkpt lat="47.571525983512402" lon="14.392908001318574">
        <ele>631.20000000000005</ele>
        <time>2012-10-21T08:05:06Z</time>
      </trkpt>
      <trkpt lat="47.571513997390866" lon="14.392931973561645">
        <ele>631.60000000000002</ele>
        <time>2012-10-21T08:05:07Z</time>
      </trkpt>
      <trkpt lat="47.571503017097712" lon="14.392957035452127">
        <ele>632</ele>
        <time>2012-10-21T08:05:08Z</time>
      </trkpt>
      <trkpt lat="47.571491030976176" lon="14.392982013523579">
        <ele>632.39999999999998</ele>
        <time>2012-10-21T08:05:09Z</time>
      </trkpt>
      <trkpt lat="47.57139204069972" lon="14.393173959106207">
        <ele>632.39999999999998</ele>
        <time>2012-10-21T08:05:17Z</time>
      </trkpt>
      <trkpt lat="47.571362033486366" lon="14.393220981582999">
        <ele>632.79999999999995</ele>
        <time>2012-10-21T08:05:19Z</time>
      </trkpt>
      <trkpt lat="47.571353986859322" lon="14.393246965482831">
        <ele>633.20000000000005</ele>
        <time>2012-10-21T08:05:20Z</time>
      </trkpt>
      <trkpt lat="47.571342000737786" lon="14.393269009888172">
        <ele>633.60000000000002</ele>
        <time>2012-10-21T08:05:21Z</time>
      </trkpt>
      <trkpt lat="47.571331020444632" lon="14.393289964646101">
        <ele>634</ele>
        <time>2012-10-21T08:05:22Z</time>
      </trkpt>
      <trkpt lat="47.571320040151477" lon="14.393312009051442">
        <ele>634.39999999999998</ele>
        <time>2012-10-21T08:05:23Z</time>
      </trkpt>
      <trkpt lat="47.571296989917755" lon="14.393364982679486">
        <ele>634.39999999999998</ele>
        <time>2012-10-21T08:05:25Z</time>
      </trkpt>
      <trkpt lat="47.57126203738153" lon="14.393513007089496">
        <ele>634.39999999999998</ele>
        <time>2012-10-21T08:05:31Z</time>
      </trkpt>
      <trkpt lat="47.571159023791552" lon="14.393704030662775">
        <ele>634.39999999999998</ele>
        <time>2012-10-21T08:05:38Z</time>
      </trkpt>
      <trkpt lat="47.571003036573529" lon="14.393958002328873">
        <ele>634.39999999999998</ele>
        <time>2012-10-21T08:05:46Z</time>
      </trkpt>
      <trkpt lat="47.570831039920449" lon="14.394219014793634">
        <ele>634.39999999999998</ele>
        <time>2012-10-21T08:05:54Z</time>
      </trkpt>
      <trkpt lat="47.57079298608005" lon="14.394281962886453">
        <ele>634.79999999999995</ele>
        <time>2012-10-21T08:05:56Z</time>
      </trkpt>
      <trkpt lat="47.570765996351838" lon="14.394306018948555">
        <ele>635.20000000000005</ele>
        <time>2012-10-21T08:05:57Z</time>
      </trkpt>
      <trkpt lat="47.570744035765529" lon="14.394334014505148">
        <ele>636</ele>
        <time>2012-10-21T08:05:58Z</time>
      </trkpt>
      <trkpt lat="47.570724003016949" lon="14.394365027546883">
        <ele>636.39999999999998</ele>
        <time>2012-10-21T08:05:59Z</time>
      </trkpt>
      <trkpt lat="47.570701958611608" lon="14.394400985911489">
        <ele>636.39999999999998</ele>
        <time>2012-10-21T08:06:00Z</time>
      </trkpt>
      <trkpt lat="47.570563992485404" lon="14.39459502696991">
        <ele>636.39999999999998</ele>
        <time>2012-10-21T08:06:06Z</time>
      </trkpt>
      <trkpt lat="47.570393001660705" lon="14.394842041656375">
        <ele>636.39999999999998</ele>
        <time>2012-10-21T08:06:13Z</time>
      </trkpt>
      <trkpt lat="47.570201978087425" lon="14.395152004435658">
        <ele>636.39999999999998</ele>
        <time>2012-10-21T08:06:20Z</time>
      </trkpt>
      <trkpt lat="47.570132995024323" lon="14.395224004983902">
        <ele>636.39999999999998</ele>
        <time>2012-10-21T08:06:22Z</time>
      </trkpt>
      <trkpt lat="47.569992011412978" lon="14.395316960290074">
        <ele>636.39999999999998</ele>
        <time>2012-10-21T08:06:26Z</time>
      </trkpt>
      <trkpt lat="47.569800987839699" lon="14.395390972495079">
        <ele>636.39999999999998</ele>
        <time>2012-10-21T08:06:32Z</time>
      </trkpt>
      <trkpt lat="47.569675007835031" lon="14.39547898247838">
        <ele>636.39999999999998</ele>
        <time>2012-10-21T08:06:37Z</time>
      </trkpt>
      <trkpt lat="47.569552967324853" lon="14.395576966926455">
        <ele>636.39999999999998</ele>
        <time>2012-10-21T08:06:41Z</time>
      </trkpt>
      <trkpt lat="47.569473003968596" lon="14.395656008273363">
        <ele>636.39999999999998</ele>
        <time>2012-10-21T08:06:43Z</time>
      </trkpt>
      <trkpt lat="47.569224983453751" lon="14.39599103294313">
        <ele>636</ele>
        <time>2012-10-21T08:06:49Z</time>
      </trkpt>
      <trkpt lat="47.569179972633719" lon="14.396062027662992">
        <ele>635.60000000000002</ele>
        <time>2012-10-21T08:06:50Z</time>
      </trkpt>
      <trkpt lat="47.569130016490817" lon="14.396140985190868">
        <ele>635.20000000000005</ele>
        <time>2012-10-21T08:06:51Z</time>
      </trkpt>
      <trkpt lat="47.569083999842405" lon="14.396219020709395">
        <ele>634.60000000000002</ele>
        <time>2012-10-21T08:06:52Z</time>
      </trkpt>
      <trkpt lat="47.569037983193994" lon="14.396297978237271">
        <ele>634.20000000000005</ele>
        <time>2012-10-21T08:06:53Z</time>
      </trkpt>
      <trkpt lat="47.568989032879472" lon="14.39637802541256">
        <ele>633.79999999999995</ele>
        <time>2012-10-21T08:06:54Z</time>
      </trkpt>
      <trkpt lat="47.568938992917538" lon="14.396458994597197">
        <ele>633.20000000000005</ele>
        <time>2012-10-21T08:06:55Z</time>
      </trkpt>
      <trkpt lat="47.568896999582648" lon="14.396543987095356">
        <ele>632.79999999999995</ele>
        <time>2012-10-21T08:06:56Z</time>
      </trkpt>
      <trkpt lat="47.568844025954604" lon="14.396629985421896">
        <ele>632.39999999999998</ele>
        <time>2012-10-21T08:06:57Z</time>
      </trkpt>
      <trkpt lat="47.56879398599267" lon="14.396715983748436">
        <ele>631.79999999999995</ele>
        <time>2012-10-21T08:06:58Z</time>
      </trkpt>
      <trkpt lat="47.568736989051104" lon="14.39680902287364">
        <ele>631.20000000000005</ele>
        <time>2012-10-21T08:06:59Z</time>
      </trkpt>
      <trkpt lat="47.568684015423059" lon="14.396900972351432">
        <ele>630.79999999999995</ele>
        <time>2012-10-21T08:07:00Z</time>
      </trkpt>
      <trkpt lat="47.568633975461125" lon="14.396998034790158">
        <ele>630.20000000000005</ele>
        <time>2012-10-21T08:07:01Z</time>
      </trkpt>
      <trkpt lat="47.568581001833081" lon="14.397091995924711">
        <ele>629.60000000000002</ele>
        <time>2012-10-21T08:07:02Z</time>
      </trkpt>
      <trkpt lat="47.568424008786678" lon="14.397370023652911">
        <ele>629.20000000000005</ele>
        <time>2012-10-21T08:07:05Z</time>
      </trkpt>
      <trkpt lat="47.568377992138267" lon="14.397465996444225">
        <ele>628.79999999999995</ele>
        <time>2012-10-21T08:07:06Z</time>
      </trkpt>
      <trkpt lat="47.568332981318235" lon="14.397568004205823">
        <ele>628.39999999999998</ele>
        <time>2012-10-21T08:07:07Z</time>
      </trkpt>
      <trkpt lat="47.568295011296868" lon="14.397668000310659">
        <ele>628</ele>
        <time>2012-10-21T08:07:08Z</time>
      </trkpt>
      <trkpt lat="47.568259974941611" lon="14.397771013900638">
        <ele>627.39999999999998</ele>
        <time>2012-10-21T08:07:09Z</time>
      </trkpt>
      <trkpt lat="47.56819199770689" lon="14.397964971140027">
        <ele>627.39999999999998</ele>
        <time>2012-10-21T08:07:11Z</time>
      </trkpt>
      <trkpt lat="47.568027041852474" lon="14.398467969149351">
        <ele>627.39999999999998</ele>
        <time>2012-10-21T08:07:17Z</time>
      </trkpt>
      <trkpt lat="47.567897960543633" lon="14.398840963840485">
        <ele>627.39999999999998</ele>
        <time>2012-10-21T08:07:23Z</time>
      </trkpt>
      <trkpt lat="47.567801987752318" lon="14.399168025702238">
        <ele>627.39999999999998</ele>
        <time>2012-10-21T08:07:29Z</time>
      </trkpt>
      <trkpt lat="47.567791007459164" lon="14.399220999330282">
        <ele>628</ele>
        <time>2012-10-21T08:07:30Z</time>
      </trkpt>
      <trkpt lat="47.567780027166009" lon="14.399276990443468">
        <ele>628.39999999999998</ele>
        <time>2012-10-21T08:07:31Z</time>
      </trkpt>
      <trkpt lat="47.567768041044474" lon="14.399333987385035">
        <ele>628.79999999999995</ele>
        <time>2012-10-21T08:07:32Z</time>
      </trkpt>
      <trkpt lat="47.567756976932287" lon="14.399391990154982">
        <ele>629.20000000000005</ele>
        <time>2012-10-21T08:07:33Z</time>
      </trkpt>
      <trkpt lat="47.567744990810752" lon="14.399447981268167">
        <ele>629.79999999999995</ele>
        <time>2012-10-21T08:07:34Z</time>
      </trkpt>
      <trkpt lat="47.567714983597398" lon="14.399611009284854">
        <ele>629.79999999999995</ele>
        <time>2012-10-21T08:07:37Z</time>
      </trkpt>
      <trkpt lat="47.567623034119606" lon="14.400108978152275">
        <ele>629.79999999999995</ele>
        <time>2012-10-21T08:07:45Z</time>
      </trkpt>
      <trkpt lat="47.567481966689229" lon="14.400623040273786">
        <ele>629.79999999999995</ele>
        <time>2012-10-21T08:07:52Z</time>
      </trkpt>
      <trkpt lat="47.567279962822795" lon="14.40115001052618">
        <ele>629.79999999999995</ele>
        <time>2012-10-21T08:07:58Z</time>
      </trkpt>
      <trkpt lat="47.56724501028657" lon="14.401242965832353">
        <ele>629.39999999999998</ele>
        <time>2012-10-21T08:07:59Z</time>
      </trkpt>
      <trkpt lat="47.567204022780061" lon="14.401336004957557">
        <ele>629</ele>
        <time>2012-10-21T08:08:00Z</time>
      </trkpt>
      <trkpt lat="47.567164963111281" lon="14.401431977748871">
        <ele>628.39999999999998</ele>
        <time>2012-10-21T08:08:01Z</time>
      </trkpt>
      <trkpt lat="47.567126993089914" lon="14.401527028530836">
        <ele>627.60000000000002</ele>
        <time>2012-10-21T08:08:02Z</time>
      </trkpt>
      <trkpt lat="47.567008975893259" lon="14.40181402489543">
        <ele>627.20000000000005</ele>
        <time>2012-10-21T08:08:05Z</time>
      </trkpt>
      <trkpt lat="47.566975029185414" lon="14.401916032657027">
        <ele>626.79999999999995</ele>
        <time>2012-10-21T08:08:06Z</time>
      </trkpt>
      <trkpt lat="47.566935969516635" lon="14.402017034590244">
        <ele>626.39999999999998</ele>
        <time>2012-10-21T08:08:07Z</time>
      </trkpt>
      <trkpt lat="47.56690202280879" lon="14.402122981846333">
        <ele>625.79999999999995</ele>
        <time>2012-10-21T08:08:08Z</time>
      </trkpt>
      <trkpt lat="47.566872015595436" lon="14.402237981557846">
        <ele>625.39999999999998</ele>
        <time>2012-10-21T08:08:09Z</time>
      </trkpt>
      <trkpt lat="47.566825998947024" lon="14.402458006516099">
        <ele>625.39999999999998</ele>
        <time>2012-10-21T08:08:11Z</time>
      </trkpt>
      <trkpt lat="47.566806972026825" lon="14.402569988742471">
        <ele>625</ele>
        <time>2012-10-21T08:08:12Z</time>
      </trkpt>
      <trkpt lat="47.566788028925657" lon="14.402680965140462">
        <ele>624.60000000000002</ele>
        <time>2012-10-21T08:08:13Z</time>
      </trkpt>
      <trkpt lat="47.5667720194906" lon="14.402791019529104">
        <ele>624.20000000000005</ele>
        <time>2012-10-21T08:08:14Z</time>
      </trkpt>
      <trkpt lat="47.566761039197445" lon="14.402903001755476">
        <ele>623.79999999999995</ele>
        <time>2012-10-21T08:08:15Z</time>
      </trkpt>
      <trkpt lat="47.566749975085258" lon="14.403013978153467">
        <ele>623.39999999999998</ele>
        <time>2012-10-21T08:08:16Z</time>
      </trkpt>
      <trkpt lat="47.566737988963723" lon="14.40312503837049">
        <ele>623.39999999999998</ele>
        <time>2012-10-21T08:08:17Z</time>
      </trkpt>
      <trkpt lat="47.566680992022157" lon="14.403826016932726">
        <ele>623.39999999999998</ele>
        <time>2012-10-21T08:08:24Z</time>
      </trkpt>
      <trkpt lat="47.566673029214144" lon="14.404299007728696">
        <ele>623.39999999999998</ele>
        <time>2012-10-21T08:08:30Z</time>
      </trkpt>
      <trkpt lat="47.566727008670568" lon="14.404675019904971">
        <ele>623.39999999999998</ele>
        <time>2012-10-21T08:08:36Z</time>
      </trkpt>
      <trkpt lat="47.566749975085258" lon="14.40490803681314">
        <ele>623.79999999999995</ele>
        <time>2012-10-21T08:08:40Z</time>
      </trkpt>
      <trkpt lat="47.5667529925704" lon="14.404964027926326">
        <ele>624.20000000000005</ele>
        <time>2012-10-21T08:08:41Z</time>
      </trkpt>
      <trkpt lat="47.566757015883923" lon="14.405022030696273">
        <ele>624.60000000000002</ele>
        <time>2012-10-21T08:08:42Z</time>
      </trkpt>
      <trkpt lat="47.566757015883923" lon="14.40508296713233">
        <ele>625</ele>
        <time>2012-10-21T08:08:43Z</time>
      </trkpt>
      <trkpt lat="47.566757015883923" lon="14.405141975730658">
        <ele>625.39999999999998</ele>
        <time>2012-10-21T08:08:44Z</time>
      </trkpt>
      <trkpt lat="47.566749975085258" lon="14.405412962660193">
        <ele>625.39999999999998</ele>
        <time>2012-10-21T08:08:49Z</time>
      </trkpt>
      <trkpt lat="47.566749975085258" lon="14.405509019270539">
        <ele>625.79999999999995</ele>
        <time>2012-10-21T08:08:51Z</time>
      </trkpt>
      <trkpt lat="47.566749975085258" lon="14.405552018433809">
        <ele>626.20000000000005</ele>
        <time>2012-10-21T08:08:52Z</time>
      </trkpt>
      <trkpt lat="47.566749975085258" lon="14.405598035082221">
        <ele>626.79999999999995</ele>
        <time>2012-10-21T08:08:53Z</time>
      </trkpt>
      <trkpt lat="47.566746035590768" lon="14.40564296208322">
        <ele>627.20000000000005</ele>
        <time>2012-10-21T08:08:54Z</time>
      </trkpt>
      <trkpt lat="47.566742012277246" lon="14.405684033408761">
        <ele>627.60000000000002</ele>
        <time>2012-10-21T08:08:55Z</time>
      </trkpt>
      <trkpt lat="47.566746035590768" lon="14.40572602674365">
        <ele>627.60000000000002</ele>
        <time>2012-10-21T08:08:56Z</time>
      </trkpt>
      <trkpt lat="47.566737988963723" lon="14.405929958447814">
        <ele>628</ele>
        <time>2012-10-21T08:09:01Z</time>
      </trkpt>
      <trkpt lat="47.566737988963723" lon="14.405970023944974">
        <ele>628.39999999999998</ele>
        <time>2012-10-21T08:09:02Z</time>
      </trkpt>
      <trkpt lat="47.566737988963723" lon="14.406010005623102">
        <ele>628.79999999999995</ele>
        <time>2012-10-21T08:09:03Z</time>
      </trkpt>
      <trkpt lat="47.566737988963723" lon="14.406047975644469">
        <ele>629.20000000000005</ele>
        <time>2012-10-21T08:09:04Z</time>
      </trkpt>
      <trkpt lat="47.566737988963723" lon="14.406085023656487">
        <ele>629.60000000000002</ele>
        <time>2012-10-21T08:09:05Z</time>
      </trkpt>
      <trkpt lat="47.56673002615571" lon="14.406314017251134">
        <ele>629.60000000000002</ele>
        <time>2012-10-21T08:09:11Z</time>
      </trkpt>
      <trkpt lat="47.56673002615571" lon="14.406351987272501">
        <ele>630</ele>
        <time>2012-10-21T08:09:12Z</time>
      </trkpt>
      <trkpt lat="47.56673002615571" lon="14.406388029456139">
        <ele>630.39999999999998</ele>
        <time>2012-10-21T08:09:13Z</time>
      </trkpt>
      <trkpt lat="47.56673002615571" lon="14.406424993649125">
        <ele>630.79999999999995</ele>
        <time>2012-10-21T08:09:14Z</time>
      </trkpt>
      <trkpt lat="47.566733965650201" lon="14.406462041661143">
        <ele>631.20000000000005</ele>
        <time>2012-10-21T08:09:15Z</time>
      </trkpt>
      <trkpt lat="47.566733965650201" lon="14.406495988368988">
        <ele>631.60000000000002</ele>
        <time>2012-10-21T08:09:16Z</time>
      </trkpt>
      <trkpt lat="47.566737988963723" lon="14.406626997515559">
        <ele>631.60000000000002</ele>
        <time>2012-10-21T08:09:20Z</time>
      </trkpt>
      <trkpt lat="47.566742012277246" lon="14.406760018318892">
        <ele>632</ele>
        <time>2012-10-21T08:09:24Z</time>
      </trkpt>
      <trkpt lat="47.566742012277246" lon="14.406795976683497">
        <ele>632.39999999999998</ele>
        <time>2012-10-21T08:09:25Z</time>
      </trkpt>
      <trkpt lat="47.566746035590768" lon="14.406830007210374">
        <ele>632.79999999999995</ele>
        <time>2012-10-21T08:09:26Z</time>
      </trkpt>
      <trkpt lat="47.566749975085258" lon="14.40686596557498">
        <ele>633.20000000000005</ele>
        <time>2012-10-21T08:09:27Z</time>
      </trkpt>
      <trkpt lat="47.566749975085258" lon="14.406897984445095">
        <ele>633.60000000000002</ele>
        <time>2012-10-21T08:09:28Z</time>
      </trkpt>
      <trkpt lat="47.566764978691936" lon="14.407206019386649">
        <ele>633.60000000000002</ele>
        <time>2012-10-21T08:09:37Z</time>
      </trkpt>
      <trkpt lat="47.566733965650201" lon="14.40735898911953">
        <ele>634</ele>
        <time>2012-10-21T08:09:42Z</time>
      </trkpt>
      <trkpt lat="47.566718962043524" lon="14.407384973019361">
        <ele>634.39999999999998</ele>
        <time>2012-10-21T08:09:43Z</time>
      </trkpt>
      <trkpt lat="47.566707981750369" lon="14.407412968575954">
        <ele>635</ele>
        <time>2012-10-21T08:09:44Z</time>
      </trkpt>
      <trkpt lat="47.566695995628834" lon="14.407439036294818">
        <ele>635.39999999999998</ele>
        <time>2012-10-21T08:09:45Z</time>
      </trkpt>
      <trkpt lat="47.566680992022157" lon="14.407463008537889">
        <ele>635.79999999999995</ele>
        <time>2012-10-21T08:09:46Z</time>
      </trkpt>
      <trkpt lat="47.566612008959055" lon="14.40759502351284">
        <ele>635.79999999999995</ele>
        <time>2012-10-21T08:09:51Z</time>
      </trkpt>
      <trkpt lat="47.566498015075922" lon="14.407771965488791">
        <ele>635.79999999999995</ele>
        <time>2012-10-21T08:09:58Z</time>
      </trkpt>
      <trkpt lat="47.566359965130687" lon="14.407968018203974">
        <ele>635.79999999999995</ele>
        <time>2012-10-21T08:10:04Z</time>
      </trkpt>
      <trkpt lat="47.566157961264253" lon="14.408317040652037">
        <ele>635.79999999999995</ele>
        <time>2012-10-21T08:10:12Z</time>
      </trkpt>
      <trkpt lat="47.566025024279952" lon="14.408676037564874">
        <ele>635.79999999999995</ele>
        <time>2012-10-21T08:10:18Z</time>
      </trkpt>
      <trkpt lat="47.565928967669606" lon="14.409207031130791">
        <ele>635.79999999999995</ele>
        <time>2012-10-21T08:10:24Z</time>
      </trkpt>
      <trkpt lat="47.565880017355084" lon="14.40978697501123">
        <ele>635.79999999999995</ele>
        <time>2012-10-21T08:10:31Z</time>
      </trkpt>
      <trkpt lat="47.565907007083297" lon="14.410210009664297">
        <ele>635.79999999999995</ele>
        <time>2012-10-21T08:10:37Z</time>
      </trkpt>
      <trkpt lat="47.56597900763154" lon="14.410546962171793">
        <ele>635.79999999999995</ele>
        <time>2012-10-21T08:10:43Z</time>
      </trkpt>
      <trkpt lat="47.566067017614841" lon="14.410879975184798">
        <ele>635.79999999999995</ele>
        <time>2012-10-21T08:10:50Z</time>
      </trkpt>
      <trkpt lat="47.566134994849563" lon="14.411268979310989">
        <ele>635.79999999999995</ele>
        <time>2012-10-21T08:10:59Z</time>
      </trkpt>
      <trkpt lat="47.566161984577775" lon="14.411397976800799">
        <ele>636.20000000000005</ele>
        <time>2012-10-21T08:11:02Z</time>
      </trkpt>
      <trkpt lat="47.56617003120482" lon="14.411437958478928">
        <ele>636.60000000000002</ele>
        <time>2012-10-21T08:11:03Z</time>
      </trkpt>
      <trkpt lat="47.566181011497974" lon="14.411476012319326">
        <ele>637</ele>
        <time>2012-10-21T08:11:04Z</time>
      </trkpt>
      <trkpt lat="47.566188974305987" lon="14.411509959027171">
        <ele>637.39999999999998</ele>
        <time>2012-10-21T08:11:05Z</time>
      </trkpt>
      <trkpt lat="47.566200038418174" lon="14.41154801286757">
        <ele>637.79999999999995</ele>
        <time>2012-10-21T08:11:06Z</time>
      </trkpt>
      <trkpt lat="47.566208001226187" lon="14.411583971232176">
        <ele>637.79999999999995</ele>
        <time>2012-10-21T08:11:07Z</time>
      </trkpt>
      <trkpt lat="47.566269021481276" lon="14.411866022273898">
        <ele>638.20000000000005</ele>
        <time>2012-10-21T08:11:15Z</time>
      </trkpt>
      <trkpt lat="47.56628000177443" lon="14.411901980638504">
        <ele>638.60000000000002</ele>
        <time>2012-10-21T08:11:16Z</time>
      </trkpt>
      <trkpt lat="47.566287964582443" lon="14.411935005337">
        <ele>639.20000000000005</ele>
        <time>2012-10-21T08:11:17Z</time>
      </trkpt>
      <trkpt lat="47.566296011209488" lon="14.411966018378735">
        <ele>639.60000000000002</ele>
        <time>2012-10-21T08:11:18Z</time>
      </trkpt>
      <trkpt lat="47.566306991502643" lon="14.41200197674334">
        <ele>640</ele>
        <time>2012-10-21T08:11:19Z</time>
      </trkpt>
      <trkpt lat="47.56634496152401" lon="14.412132985889912">
        <ele>640</ele>
        <time>2012-10-21T08:11:23Z</time>
      </trkpt>
      <trkpt lat="47.566353008151054" lon="14.412165004760027">
        <ele>640.39999999999998</ele>
        <time>2012-10-21T08:11:24Z</time>
      </trkpt>
      <trkpt lat="47.566363988444209" lon="14.412194006145">
        <ele>640.79999999999995</ele>
        <time>2012-10-21T08:11:25Z</time>
      </trkpt>
      <trkpt lat="47.566372035071254" lon="14.412225019186735">
        <ele>641.20000000000005</ele>
        <time>2012-10-21T08:11:26Z</time>
      </trkpt>
      <trkpt lat="47.566383015364408" lon="14.412255026400089">
        <ele>641.60000000000002</ele>
        <time>2012-10-21T08:11:27Z</time>
      </trkpt>
      <trkpt lat="47.566390978172421" lon="14.412289978936315">
        <ele>642</ele>
        <time>2012-10-21T08:11:28Z</time>
      </trkpt>
      <trkpt lat="47.566417967900634" lon="14.41238796338439">
        <ele>642</ele>
        <time>2012-10-21T08:11:31Z</time>
      </trkpt>
      <trkpt lat="47.566447975113988" lon="14.412611005827785">
        <ele>642.39999999999998</ele>
        <time>2012-10-21T08:11:38Z</time>
      </trkpt>
      <trkpt lat="47.566459961235523" lon="14.412642018869519">
        <ele>642.79999999999995</ele>
        <time>2012-10-21T08:11:39Z</time>
      </trkpt>
      <trkpt lat="47.566462978720665" lon="14.412671020254493">
        <ele>643.20000000000005</ele>
        <time>2012-10-21T08:11:40Z</time>
      </trkpt>
      <trkpt lat="47.56647102534771" lon="14.412700021639466">
        <ele>643.60000000000002</ele>
        <time>2012-10-21T08:11:41Z</time>
      </trkpt>
      <trkpt lat="47.566478988155723" lon="14.412727011367679">
        <ele>644</ele>
        <time>2012-10-21T08:11:42Z</time>
      </trkpt>
      <trkpt lat="47.566508995369077" lon="14.412852991372347">
        <ele>644</ele>
        <time>2012-10-21T08:11:46Z</time>
      </trkpt>
      <trkpt lat="47.566555012017488" lon="14.41303001716733">
        <ele>644.39999999999998</ele>
        <time>2012-10-21T08:11:52Z</time>
      </trkpt>
      <trkpt lat="47.566559035331011" lon="14.413062036037445">
        <ele>644.79999999999995</ele>
        <time>2012-10-21T08:11:53Z</time>
      </trkpt>
      <trkpt lat="47.566565992310643" lon="14.413092965260148">
        <ele>645.20000000000005</ele>
        <time>2012-10-21T08:11:54Z</time>
      </trkpt>
      <trkpt lat="47.566574038937688" lon="14.413124984130263">
        <ele>645.60000000000002</ele>
        <time>2012-10-21T08:11:55Z</time>
      </trkpt>
      <trkpt lat="47.566577978432178" lon="14.413157003000379">
        <ele>646.20000000000005</ele>
        <time>2012-10-21T08:11:56Z</time>
      </trkpt>
      <trkpt lat="47.566612008959055" lon="14.413363030180335">
        <ele>646.20000000000005</ele>
        <time>2012-10-21T08:12:02Z</time>
      </trkpt>
      <trkpt lat="47.566607985645533" lon="14.41365597769618">
        <ele>646.20000000000005</ele>
        <time>2012-10-21T08:12:09Z</time>
      </trkpt>
      <trkpt lat="47.566574038937688" lon="14.414027966558933">
        <ele>646.20000000000005</ele>
        <time>2012-10-21T08:12:18Z</time>
      </trkpt>
      <trkpt lat="47.566531961783767" lon="14.414467010647058">
        <ele>646.20000000000005</ele>
        <time>2012-10-21T08:12:28Z</time>
      </trkpt>
      <trkpt lat="47.566478988155723" lon="14.41487998701632">
        <ele>646.20000000000005</ele>
        <time>2012-10-21T08:12:37Z</time>
      </trkpt>
      <trkpt lat="47.566425008699298" lon="14.415348032489419">
        <ele>646.20000000000005</ele>
        <time>2012-10-21T08:12:45Z</time>
      </trkpt>
      <trkpt lat="47.566405981779099" lon="14.415626982226968">
        <ele>646.20000000000005</ele>
        <time>2012-10-21T08:12:49Z</time>
      </trkpt>
      <trkpt lat="47.566417967900634" lon="14.415805013850331">
        <ele>646.20000000000005</ele>
        <time>2012-10-21T08:12:51Z</time>
      </trkpt>
      <trkpt lat="47.566456021741033" lon="14.416173985227942">
        <ele>645.60000000000002</ele>
        <time>2012-10-21T08:12:55Z</time>
      </trkpt>
      <trkpt lat="47.5664749648422" lon="14.416270041838288">
        <ele>645.20000000000005</ele>
        <time>2012-10-21T08:12:56Z</time>
      </trkpt>
      <trkpt lat="47.566502038389444" lon="14.416368026286364">
        <ele>644.79999999999995</ele>
        <time>2012-10-21T08:12:57Z</time>
      </trkpt>
      <trkpt lat="47.566535985097289" lon="14.416473973542452">
        <ele>643.79999999999995</ele>
        <time>2012-10-21T08:12:58Z</time>
      </trkpt>
      <trkpt lat="47.566570015624166" lon="14.416578998789191">
        <ele>643.20000000000005</ele>
        <time>2012-10-21T08:12:59Z</time>
      </trkpt>
      <trkpt lat="47.566604968160391" lon="14.416686035692692">
        <ele>642.60000000000002</ele>
        <time>2012-10-21T08:13:00Z</time>
      </trkpt>
      <trkpt lat="47.56664696149528" lon="14.416792988777161">
        <ele>642</ele>
        <time>2012-10-21T08:13:01Z</time>
      </trkpt>
      <trkpt lat="47.566689038649201" lon="14.416896002367139">
        <ele>641.39999999999998</ele>
        <time>2012-10-21T08:13:02Z</time>
      </trkpt>
      <trkpt lat="47.566733965650201" lon="14.416997004300356">
        <ele>640.79999999999995</ele>
        <time>2012-10-21T08:13:03Z</time>
      </trkpt>
      <trkpt lat="47.566784005612135" lon="14.417103035375476">
        <ele>640.20000000000005</ele>
        <time>2012-10-21T08:13:04Z</time>
      </trkpt>
      <trkpt lat="47.566830022260547" lon="14.41719900816679">
        <ele>639.60000000000002</ele>
        <time>2012-10-21T08:13:05Z</time>
      </trkpt>
      <trkpt lat="47.566878972575068" lon="14.417289029806852">
        <ele>639</ele>
        <time>2012-10-21T08:13:06Z</time>
      </trkpt>
      <trkpt lat="47.566933035850525" lon="14.417375028133392">
        <ele>638.39999999999998</ele>
        <time>2012-10-21T08:13:07Z</time>
      </trkpt>
      <trkpt lat="47.566993972286582" lon="14.417459014803171">
        <ele>637.79999999999995</ele>
        <time>2012-10-21T08:13:08Z</time>
      </trkpt>
      <trkpt lat="47.567050969228148" lon="14.417545013129711">
        <ele>637.20000000000005</ele>
        <time>2012-10-21T08:13:09Z</time>
      </trkpt>
      <trkpt lat="47.567111989483237" lon="14.417635034769773">
        <ele>636.79999999999995</ele>
        <time>2012-10-21T08:13:10Z</time>
      </trkpt>
      <trkpt lat="47.567173009738326" lon="14.417726984247565">
        <ele>636.20000000000005</ele>
        <time>2012-10-21T08:13:11Z</time>
      </trkpt>
      <trkpt lat="47.56722598336637" lon="14.417826980352402">
        <ele>635.60000000000002</ele>
        <time>2012-10-21T08:13:12Z</time>
      </trkpt>
      <trkpt lat="47.567279962822795" lon="14.417937034741044">
        <ele>635.20000000000005</ele>
        <time>2012-10-21T08:13:13Z</time>
      </trkpt>
      <trkpt lat="47.567328996956348" lon="14.418045999482274">
        <ele>634.60000000000002</ele>
        <time>2012-10-21T08:13:14Z</time>
      </trkpt>
      <trkpt lat="47.567382976412773" lon="14.418158987537026">
        <ele>634</ele>
        <time>2012-10-21T08:13:15Z</time>
      </trkpt>
      <trkpt lat="47.567436033859849" lon="14.418278010562062">
        <ele>633.20000000000005</ele>
        <time>2012-10-21T08:13:16Z</time>
      </trkpt>
      <trkpt lat="47.567481966689229" lon="14.418398039415479">
        <ele>632.60000000000002</ele>
        <time>2012-10-21T08:13:17Z</time>
      </trkpt>
      <trkpt lat="47.567523960024118" lon="14.418527036905289">
        <ele>632</ele>
        <time>2012-10-21T08:13:18Z</time>
      </trkpt>
      <trkpt lat="47.567562013864517" lon="14.418655028566718">
        <ele>631.39999999999998</ele>
        <time>2012-10-21T08:13:19Z</time>
      </trkpt>
      <trkpt lat="47.567599983885884" lon="14.418786037713289">
        <ele>630.79999999999995</ele>
        <time>2012-10-21T08:13:20Z</time>
      </trkpt>
      <trkpt lat="47.567635020241141" lon="14.418926015496254">
        <ele>630.20000000000005</ele>
        <time>2012-10-21T08:13:21Z</time>
      </trkpt>
      <trkpt lat="47.567661004140973" lon="14.419059958308935">
        <ele>629.60000000000002</ele>
        <time>2012-10-21T08:13:22Z</time>
      </trkpt>
      <trkpt lat="47.567680031061172" lon="14.419192979112267">
        <ele>628.39999999999998</ele>
        <time>2012-10-21T08:13:23Z</time>
      </trkpt>
      <trkpt lat="47.567692017182708" lon="14.41932700574398">
        <ele>628</ele>
        <time>2012-10-21T08:13:24Z</time>
      </trkpt>
      <trkpt lat="47.567707020789385" lon="14.419457009062171">
        <ele>627.39999999999998</ele>
        <time>2012-10-21T08:13:25Z</time>
      </trkpt>
      <trkpt lat="47.567753037437797" lon="14.419705029577017">
        <ele>627</ele>
        <time>2012-10-21T08:13:27Z</time>
      </trkpt>
      <trkpt lat="47.567776003852487" lon="14.419824974611402">
        <ele>626.60000000000002</ele>
        <time>2012-10-21T08:13:28Z</time>
      </trkpt>
      <trkpt lat="47.567806011065841" lon="14.419946009293199">
        <ele>626</ele>
        <time>2012-10-21T08:13:29Z</time>
      </trkpt>
      <trkpt lat="47.567833000794053" lon="14.42005799151957">
        <ele>625.60000000000002</ele>
        <time>2012-10-21T08:13:30Z</time>
      </trkpt>
      <trkpt lat="47.567863008007407" lon="14.420166034251451">
        <ele>625.20000000000005</ele>
        <time>2012-10-21T08:13:31Z</time>
      </trkpt>
      <trkpt lat="47.567966021597385" lon="14.420581022277474">
        <ele>625.20000000000005</ele>
        <time>2012-10-21T08:13:35Z</time>
      </trkpt>
      <trkpt lat="47.56802000105381" lon="14.42091797478497">
        <ele>624.79999999999995</ele>
        <time>2012-10-21T08:13:38Z</time>
      </trkpt>
      <trkpt lat="47.568035004660487" lon="14.421036997810006">
        <ele>624.39999999999998</ele>
        <time>2012-10-21T08:13:39Z</time>
      </trkpt>
      <trkpt lat="47.568046990782022" lon="14.421159960329533">
        <ele>624</ele>
        <time>2012-10-21T08:13:40Z</time>
      </trkpt>
      <trkpt lat="47.568057971075177" lon="14.421284012496471">
        <ele>623.60000000000002</ele>
        <time>2012-10-21T08:13:41Z</time>
      </trkpt>
      <trkpt lat="47.568069035187364" lon="14.421406975015998">
        <ele>623.20000000000005</ele>
        <time>2012-10-21T08:13:42Z</time>
      </trkpt>
      <trkpt lat="47.568072974681854" lon="14.421529015526175">
        <ele>622.79999999999995</ele>
        <time>2012-10-21T08:13:43Z</time>
      </trkpt>
      <trkpt lat="47.568072974681854" lon="14.421654995530844">
        <ele>622.39999999999998</ele>
        <time>2012-10-21T08:13:44Z</time>
      </trkpt>
      <trkpt lat="47.568069035187364" lon="14.421771001070738">
        <ele>621.79999999999995</ele>
        <time>2012-10-21T08:13:45Z</time>
      </trkpt>
      <trkpt lat="47.568066017702222" lon="14.421880971640348">
        <ele>621.39999999999998</ele>
        <time>2012-10-21T08:13:46Z</time>
      </trkpt>
      <trkpt lat="47.568057971075177" lon="14.421981973573565">
        <ele>621</ele>
        <time>2012-10-21T08:13:47Z</time>
      </trkpt>
      <trkpt lat="47.568054031580687" lon="14.422262012958527">
        <ele>621</ele>
        <time>2012-10-21T08:13:50Z</time>
      </trkpt>
      <trkpt lat="47.568088984116912" lon="14.422646993771195">
        <ele>621</ele>
        <time>2012-10-21T08:13:55Z</time>
      </trkpt>
      <trkpt lat="47.568118991330266" lon="14.422982018440962">
        <ele>621.60000000000002</ele>
        <time>2012-10-21T08:14:00Z</time>
      </trkpt>
      <trkpt lat="47.568123014643788" lon="14.423043038696051">
        <ele>622</ele>
        <time>2012-10-21T08:14:01Z</time>
      </trkpt>
      <trkpt lat="47.568127037957311" lon="14.423106992617249">
        <ele>622.39999999999998</ele>
        <time>2012-10-21T08:14:02Z</time>
      </trkpt>
      <trkpt lat="47.568133994936943" lon="14.423170024529099">
        <ele>622.79999999999995</ele>
        <time>2012-10-21T08:14:03Z</time>
      </trkpt>
      <trkpt lat="47.568142041563988" lon="14.423230960965157">
        <ele>623.20000000000005</ele>
        <time>2012-10-21T08:14:04Z</time>
      </trkpt>
      <trkpt lat="47.568184034898877" lon="14.423489039763808">
        <ele>623.20000000000005</ele>
        <time>2012-10-21T08:14:08Z</time>
      </trkpt>
      <trkpt lat="47.568274978548288" lon="14.423882989212871">
        <ele>623.20000000000005</ele>
        <time>2012-10-21T08:14:14Z</time>
      </trkpt>
      <trkpt lat="47.568389978259802" lon="14.424286996945739">
        <ele>623.20000000000005</ele>
        <time>2012-10-21T08:14:20Z</time>
      </trkpt>
      <trkpt lat="47.568435994908214" lon="14.42441800609231">
        <ele>623.20000000000005</ele>
        <time>2012-10-21T08:14:22Z</time>
      </trkpt>
      <trkpt lat="47.568488968536258" lon="14.424578016623855">
        <ele>622.79999999999995</ele>
        <time>2012-10-21T08:14:24Z</time>
      </trkpt>
      <trkpt lat="47.56851595826447" lon="14.424654962494969">
        <ele>622.39999999999998</ele>
        <time>2012-10-21T08:14:25Z</time>
      </trkpt>
      <trkpt lat="47.568539008498192" lon="14.424729980528355">
        <ele>621.79999999999995</ele>
        <time>2012-10-21T08:14:26Z</time>
      </trkpt>
      <trkpt lat="47.568564992398024" lon="14.42480499856174">
        <ele>621.39999999999998</ele>
        <time>2012-10-21T08:14:27Z</time>
      </trkpt>
      <trkpt lat="47.568584019318223" lon="14.4248709641397">
        <ele>621</ele>
        <time>2012-10-21T08:14:28Z</time>
      </trkpt>
      <trkpt lat="47.568600028753281" lon="14.424930978566408">
        <ele>620.60000000000002</ele>
        <time>2012-10-21T08:14:29Z</time>
      </trkpt>
      <trkpt lat="47.568618971854448" lon="14.4249780010432">
        <ele>620</ele>
        <time>2012-10-21T08:14:30Z</time>
      </trkpt>
      <trkpt lat="47.568630035966635" lon="14.425013037398458">
        <ele>619.60000000000002</ele>
        <time>2012-10-21T08:14:31Z</time>
      </trkpt>
      <trkpt lat="47.56864202208817" lon="14.425029968842864">
        <ele>619</ele>
        <time>2012-10-21T08:14:32Z</time>
      </trkpt>
      <trkpt lat="47.568653002381325" lon="14.425046984106302">
        <ele>618.60000000000002</ele>
        <time>2012-10-21T08:14:33Z</time>
      </trkpt>
      <trkpt lat="47.56866498850286" lon="14.425068022683263">
        <ele>618.60000000000002</ele>
        <time>2012-10-21T08:14:34Z</time>
      </trkpt>
      <trkpt lat="47.568690972402692" lon="14.425119990482926">
        <ele>618.20000000000005</ele>
        <time>2012-10-21T08:14:36Z</time>
      </trkpt>
      <trkpt lat="47.568717962130904" lon="14.425142034888268">
        <ele>617.39999999999998</ele>
        <time>2012-10-21T08:14:37Z</time>
      </trkpt>
      <trkpt lat="47.568756015971303" lon="14.42514999769628">
        <ele>617</ele>
        <time>2012-10-21T08:14:38Z</time>
      </trkpt>
      <trkpt lat="47.568798009306192" lon="14.42514999769628">
        <ele>616.60000000000002</ele>
        <time>2012-10-21T08:14:39Z</time>
      </trkpt>
      <trkpt lat="47.568974029272795" lon="14.425116972997785">
        <ele>616.60000000000002</ele>
        <time>2012-10-21T08:14:43Z</time>
      </trkpt>
      <trkpt lat="47.569152982905507" lon="14.425104986876249">
        <ele>616.60000000000002</ele>
        <time>2012-10-21T08:14:48Z</time>
      </trkpt>
      <trkpt lat="47.569305030629039" lon="14.425203977152705">
        <ele>616.60000000000002</ele>
        <time>2012-10-21T08:14:53Z</time>
      </trkpt>
      <trkpt lat="47.569405026733875" lon="14.425445962697268">
        <ele>616.60000000000002</ele>
        <time>2012-10-21T08:14:58Z</time>
      </trkpt>
      <trkpt lat="47.569499993696809" lon="14.425843013450503">
        <ele>616.60000000000002</ele>
        <time>2012-10-21T08:15:05Z</time>
      </trkpt>
      <trkpt lat="47.569594960659742" lon="14.426312986761332">
        <ele>616.60000000000002</ele>
        <time>2012-10-21T08:15:13Z</time>
      </trkpt>
      <trkpt lat="47.569607030600309" lon="14.42637300118804">
        <ele>617</ele>
        <time>2012-10-21T08:15:14Z</time>
      </trkpt>
      <trkpt lat="47.569613987579942" lon="14.426432009786367">
        <ele>617.39999999999998</ele>
        <time>2012-10-21T08:15:15Z</time>
      </trkpt>
      <trkpt lat="47.569622034206986" lon="14.426492024213076">
        <ele>617.79999999999995</ele>
        <time>2012-10-21T08:15:16Z</time>
      </trkpt>
      <trkpt lat="47.569629997014999" lon="14.426550026983023">
        <ele>618.20000000000005</ele>
        <time>2012-10-21T08:15:17Z</time>
      </trkpt>
      <trkpt lat="47.569637037813663" lon="14.426610041409731">
        <ele>618.60000000000002</ele>
        <time>2012-10-21T08:15:18Z</time>
      </trkpt>
      <trkpt lat="47.569655980914831" lon="14.426801986992359">
        <ele>618.60000000000002</ele>
        <time>2012-10-21T08:15:21Z</time>
      </trkpt>
      <trkpt lat="47.569706020876765" lon="14.427317976951599">
        <ele>618.60000000000002</ele>
        <time>2012-10-21T08:15:29Z</time>
      </trkpt>
      <trkpt lat="47.569709960371256" lon="14.427386038005352">
        <ele>618.60000000000002</ele>
        <time>2012-10-21T08:15:30Z</time>
      </trkpt>
      <trkpt lat="47.569724963977933" lon="14.427736988291144">
        <ele>618.60000000000002</ele>
        <time>2012-10-21T08:15:35Z</time>
      </trkpt>
      <trkpt lat="47.569763017818332" lon="14.428410977125168">
        <ele>618.60000000000002</ele>
        <time>2012-10-21T08:15:44Z</time>
      </trkpt>
      <trkpt lat="47.569805011153221" lon="14.429083038121462">
        <ele>618.60000000000002</ele>
        <time>2012-10-21T08:15:53Z</time>
      </trkpt>
      <trkpt lat="47.569881035014987" lon="14.42961897701025">
        <ele>618.60000000000002</ele>
        <time>2012-10-21T08:16:00Z</time>
      </trkpt>
      <trkpt lat="47.570019001141191" lon="14.430164974182844">
        <ele>618.60000000000002</ele>
        <time>2012-10-21T08:16:07Z</time>
      </trkpt>
      <trkpt lat="47.570221005007625" lon="14.430697979405522">
        <ele>618.60000000000002</ele>
        <time>2012-10-21T08:16:14Z</time>
      </trkpt>
      <trkpt lat="47.570529961958528" lon="14.431341039016843">
        <ele>618.20000000000005</ele>
        <time>2012-10-21T08:16:23Z</time>
      </trkpt>
      <trkpt lat="47.570568015798926" lon="14.431415973231196">
        <ele>617.79999999999995</ele>
        <time>2012-10-21T08:16:24Z</time>
      </trkpt>
      <trkpt lat="47.570601962506771" lon="14.43148504011333">
        <ele>617.39999999999998</ele>
        <time>2012-10-21T08:16:25Z</time>
      </trkpt>
      <trkpt lat="47.57064102217555" lon="14.431556034833193">
        <ele>617</ele>
        <time>2012-10-21T08:16:26Z</time>
      </trkpt>
      <trkpt lat="47.570671029388905" lon="14.431629041209817">
        <ele>616.60000000000002</ele>
        <time>2012-10-21T08:16:27Z</time>
      </trkpt>
      <trkpt lat="47.57077001966536" lon="14.431848982349038">
        <ele>616.60000000000002</ele>
        <time>2012-10-21T08:16:30Z</time>
      </trkpt>
      <trkpt lat="47.571021979674697" lon="14.432338988408446">
        <ele>616.60000000000002</ele>
        <time>2012-10-21T08:16:37Z</time>
      </trkpt>
      <trkpt lat="47.571247033774853" lon="14.432809967547655">
        <ele>616.60000000000002</ele>
        <time>2012-10-21T08:16:44Z</time>
      </trkpt>
      <trkpt lat="47.571521960198879" lon="14.433359988033772">
        <ele>616.60000000000002</ele>
        <time>2012-10-21T08:16:53Z</time>
      </trkpt>
      <trkpt lat="47.571720024570823" lon="14.433757960796356">
        <ele>616.60000000000002</ele>
        <time>2012-10-21T08:17:00Z</time>
      </trkpt>
      <trkpt lat="47.571922028437257" lon="14.434161968529224">
        <ele>616.60000000000002</ele>
        <time>2012-10-21T08:17:08Z</time>
      </trkpt>
      <trkpt lat="47.571995034813881" lon="14.434312004595995">
        <ele>617</ele>
        <time>2012-10-21T08:17:11Z</time>
      </trkpt>
      <trkpt lat="47.572021018713713" lon="14.434361038729548">
        <ele>617.39999999999998</ele>
        <time>2012-10-21T08:17:12Z</time>
      </trkpt>
      <trkpt lat="47.572043985128403" lon="14.434405965730548">
        <ele>617.79999999999995</ele>
        <time>2012-10-21T08:17:13Z</time>
      </trkpt>
      <trkpt lat="47.572067035362124" lon="14.434457011520863">
        <ele>618.20000000000005</ele>
        <time>2012-10-21T08:17:14Z</time>
      </trkpt>
      <trkpt lat="47.572090001776814" lon="14.434506967663765">
        <ele>618.60000000000002</ele>
        <time>2012-10-21T08:17:15Z</time>
      </trkpt>
      <trkpt lat="47.572269039228559" lon="14.434864036738873">
        <ele>618.60000000000002</ele>
        <time>2012-10-21T08:17:23Z</time>
      </trkpt>
      <trkpt lat="47.572369035333395" lon="14.435082972049713">
        <ele>619</ele>
        <time>2012-10-21T08:17:28Z</time>
      </trkpt>
      <trkpt lat="47.572392001748085" lon="14.435122031718493">
        <ele>619.39999999999998</ele>
        <time>2012-10-21T08:17:29Z</time>
      </trkpt>
      <trkpt lat="47.572411028668284" lon="14.435164025053382">
        <ele>620.20000000000005</ele>
        <time>2012-10-21T08:17:30Z</time>
      </trkpt>
      <trkpt lat="47.572432989254594" lon="14.43520400673151">
        <ele>620.60000000000002</ele>
        <time>2012-10-21T08:17:31Z</time>
      </trkpt>
      <trkpt lat="47.57257497869432" lon="14.435485973954201">
        <ele>620.60000000000002</ele>
        <time>2012-10-21T08:17:38Z</time>
      </trkpt>
      <trkpt lat="47.572715962305665" lon="14.435766013339162">
        <ele>620.60000000000002</ele>
        <time>2012-10-21T08:17:45Z</time>
      </trkpt>
      <trkpt lat="47.572848983108997" lon="14.436048986390233">
        <ele>621</ele>
        <time>2012-10-21T08:17:52Z</time>
      </trkpt>
      <trkpt lat="47.572868010029197" lon="14.436089973896742">
        <ele>621.39999999999998</ele>
        <time>2012-10-21T08:17:53Z</time>
      </trkpt>
      <trkpt lat="47.572887036949396" lon="14.436132973060012">
        <ele>622</ele>
        <time>2012-10-21T08:17:54Z</time>
      </trkpt>
      <trkpt lat="47.572905980050564" lon="14.436173960566521">
        <ele>622.79999999999995</ele>
        <time>2012-10-21T08:17:55Z</time>
      </trkpt>
      <trkpt lat="47.573035983368754" lon="14.436529017984867">
        <ele>622.79999999999995</ele>
        <time>2012-10-21T08:18:03Z</time>
      </trkpt>
      <trkpt lat="47.5731320399791" lon="14.436940988525748">
        <ele>622.79999999999995</ele>
        <time>2012-10-21T08:18:11Z</time>
      </trkpt>
      <trkpt lat="47.573195993900299" lon="14.437510035932064">
        <ele>622.79999999999995</ele>
        <time>2012-10-21T08:18:21Z</time>
      </trkpt>
      <trkpt lat="47.573222983628511" lon="14.438186036422849">
        <ele>622.79999999999995</ele>
        <time>2012-10-21T08:18:31Z</time>
      </trkpt>
      <trkpt lat="47.573249973356724" lon="14.438838986679912">
        <ele>622.79999999999995</ele>
        <time>2012-10-21T08:18:39Z</time>
      </trkpt>
      <trkpt lat="47.573269000276923" lon="14.439643984660506">
        <ele>622.79999999999995</ele>
        <time>2012-10-21T08:18:48Z</time>
      </trkpt>
      <trkpt lat="47.573288027197123" lon="14.439920000731945">
        <ele>622.39999999999998</ele>
        <time>2012-10-21T08:18:51Z</time>
      </trkpt>
      <trkpt lat="47.573288027197123" lon="14.440012034028769">
        <ele>621.79999999999995</ele>
        <time>2012-10-21T08:18:52Z</time>
      </trkpt>
      <trkpt lat="47.573291966691613" lon="14.44010297767818">
        <ele>621.39999999999998</ele>
        <time>2012-10-21T08:18:53Z</time>
      </trkpt>
      <trkpt lat="47.573295990005136" lon="14.440192999318242">
        <ele>621</ele>
        <time>2012-10-21T08:18:54Z</time>
      </trkpt>
      <trkpt lat="47.5733030308038" lon="14.440290983766317">
        <ele>620.60000000000002</ele>
        <time>2012-10-21T08:18:55Z</time>
      </trkpt>
      <trkpt lat="47.57330697029829" lon="14.440384022891521">
        <ele>620.60000000000002</ele>
        <time>2012-10-21T08:18:56Z</time>
      </trkpt>
      <trkpt lat="47.573330020532012" lon="14.441130012273788">
        <ele>620.60000000000002</ele>
        <time>2012-10-21T08:19:04Z</time>
      </trkpt>
      <trkpt lat="47.573330020532012" lon="14.441222967579961">
        <ele>620.20000000000005</ele>
        <time>2012-10-21T08:19:05Z</time>
      </trkpt>
      <trkpt lat="47.573333960026503" lon="14.441315000876784">
        <ele>619.79999999999995</ele>
        <time>2012-10-21T08:19:06Z</time>
      </trkpt>
      <trkpt lat="47.573337983340025" lon="14.441402005031705">
        <ele>619.39999999999998</ele>
        <time>2012-10-21T08:19:07Z</time>
      </trkpt>
      <trkpt lat="47.573341000825167" lon="14.441491020843387">
        <ele>619</ele>
        <time>2012-10-21T08:19:08Z</time>
      </trkpt>
      <trkpt lat="47.573345024138689" lon="14.441580036655068">
        <ele>618.60000000000002</ele>
        <time>2012-10-21T08:19:09Z</time>
      </trkpt>
      <trkpt lat="47.57334896363318" lon="14.441837025806308">
        <ele>618.60000000000002</ele>
        <time>2012-10-21T08:19:12Z</time>
      </trkpt>
      <trkpt lat="47.573367990553379" lon="14.442472960799932">
        <ele>618.60000000000002</ele>
        <time>2012-10-21T08:19:20Z</time>
      </trkpt>
      <trkpt lat="47.573399003595114" lon="14.443055000156164">
        <ele>618.60000000000002</ele>
        <time>2012-10-21T08:19:28Z</time>
      </trkpt>
      <trkpt lat="47.573429010808468" lon="14.443680038675666">
        <ele>618.60000000000002</ele>
        <time>2012-10-21T08:19:37Z</time>
      </trkpt>
      <trkpt lat="47.57345600053668" lon="14.444213965907693">
        <ele>618.60000000000002</ele>
        <time>2012-10-21T08:19:45Z</time>
      </trkpt>
      <trkpt lat="47.573451977223158" lon="14.444683017209172">
        <ele>618.60000000000002</ele>
        <time>2012-10-21T08:19:52Z</time>
      </trkpt>
      <trkpt lat="47.573420964181423" lon="14.445257009938359">
        <ele>618.60000000000002</ele>
        <time>2012-10-21T08:20:00Z</time>
      </trkpt>
      <trkpt lat="47.573376037180424" lon="14.445724971592426">
        <ele>618.60000000000002</ele>
        <time>2012-10-21T08:20:07Z</time>
      </trkpt>
      <trkpt lat="47.573360027745366" lon="14.445954971015453">
        <ele>618.60000000000002</ele>
        <time>2012-10-21T08:20:11Z</time>
      </trkpt>
      <trkpt lat="47.573345024138689" lon="14.4460129737854">
        <ele>618.60000000000002</ele>
        <time>2012-10-21T08:20:12Z</time>
      </trkpt>
      <trkpt lat="47.5732840038836" lon="14.446470960974693">
        <ele>618.60000000000002</ele>
        <time>2012-10-21T08:20:19Z</time>
      </trkpt>
      <trkpt lat="47.573237987235188" lon="14.447060041129589">
        <ele>618.60000000000002</ele>
        <time>2012-10-21T08:20:28Z</time>
      </trkpt>
      <trkpt lat="47.573185013607144" lon="14.447517022490501">
        <ele>619</ele>
        <time>2012-10-21T08:20:35Z</time>
      </trkpt>
      <trkpt lat="47.5731769669801" lon="14.4475809764117">
        <ele>619.39999999999998</ele>
        <time>2012-10-21T08:20:36Z</time>
      </trkpt>
      <trkpt lat="47.573158023878932" lon="14.447770994156599">
        <ele>620.60000000000002</ele>
        <time>2012-10-21T08:20:37Z</time>
      </trkpt>
      <trkpt lat="47.573119970038533" lon="14.448219006881118">
        <ele>620.60000000000002</ele>
        <time>2012-10-21T08:20:47Z</time>
      </trkpt>
      <trkpt lat="47.573066996410489" lon="14.448702977970243">
        <ele>620.60000000000002</ele>
        <time>2012-10-21T08:20:55Z</time>
      </trkpt>
      <trkpt lat="47.573035983368754" lon="14.449014030396938">
        <ele>621</ele>
        <time>2012-10-21T08:21:00Z</time>
      </trkpt>
      <trkpt lat="47.573029026389122" lon="14.449071027338505">
        <ele>621.39999999999998</ele>
        <time>2012-10-21T08:21:01Z</time>
      </trkpt>
      <trkpt lat="47.573020979762077" lon="14.449128024280071">
        <ele>622</ele>
        <time>2012-10-21T08:21:02Z</time>
      </trkpt>
      <trkpt lat="47.573013016954064" lon="14.449185021221638">
        <ele>622.39999999999998</ele>
        <time>2012-10-21T08:21:03Z</time>
      </trkpt>
      <trkpt lat="47.5730059761554" lon="14.449244029819965">
        <ele>622.79999999999995</ele>
        <time>2012-10-21T08:21:04Z</time>
      </trkpt>
      <trkpt lat="47.573008993640542" lon="14.449502024799585">
        <ele>622.79999999999995</ele>
        <time>2012-10-21T08:21:09Z</time>
      </trkpt>
      <trkpt lat="47.573008993640542" lon="14.449691036716104">
        <ele>622.79999999999995</ele>
        <time>2012-10-21T08:21:15Z</time>
      </trkpt>
      <trkpt lat="47.573020979762077" lon="14.449718026444316">
        <ele>622.79999999999995</ele>
        <time>2012-10-21T08:21:20Z</time>
      </trkpt>
      <trkpt lat="47.573029026389122" lon="14.449723977595568">
        <ele>622.79999999999995</ele>
        <time>2012-10-21T08:21:30Z</time>
      </trkpt>
      <trkpt lat="47.573029026389122" lon="14.449723977595568">
        <ele>622.79999999999995</ele>
        <time>2012-10-21T08:21:47Z</time>
      </trkpt>
      <trkpt lat="47.573020979762077" lon="14.449724983423948">
        <ele>622.79999999999995</ele>
        <time>2012-10-21T08:21:57Z</time>
      </trkpt>
      <trkpt lat="47.573017040267587" lon="14.449720038101077">
        <ele>622.79999999999995</ele>
        <time>2012-10-21T08:21:58Z</time>
      </trkpt>
      <trkpt lat="47.57298300974071" lon="14.449749961495399">
        <ele>622.79999999999995</ele>
        <time>2012-10-21T08:22:04Z</time>
      </trkpt>
      <trkpt lat="47.572974963113666" lon="14.449760019779205">
        <ele>622.79999999999995</ele>
        <time>2012-10-21T08:22:10Z</time>
      </trkpt>
      <trkpt lat="47.572974963113666" lon="14.449760019779205">
        <ele>622.79999999999995</ele>
        <time>2012-10-21T08:22:23Z</time>
      </trkpt>
      <trkpt lat="47.572974963113666" lon="14.449760019779205">
        <ele>622.79999999999995</ele>
        <time>2012-10-21T08:22:36Z</time>
      </trkpt>
      <trkpt lat="47.57298300974071" lon="14.449824979528785">
        <ele>622.79999999999995</ele>
        <time>2012-10-21T08:22:44Z</time>
      </trkpt>
      <trkpt lat="47.572968006134033" lon="14.4500089623034">
        <ele>622.79999999999995</ele>
        <time>2012-10-21T08:22:50Z</time>
      </trkpt>
      <trkpt lat="47.572936993092299" lon="14.450226975604892">
        <ele>622.79999999999995</ele>
        <time>2012-10-21T08:22:56Z</time>
      </trkpt>
      <trkpt lat="47.572917966172099" lon="14.450367959216237">
        <ele>623.20000000000005</ele>
        <time>2012-10-21T08:22:59Z</time>
      </trkpt>
      <trkpt lat="47.572910003364086" lon="14.450417999178171">
        <ele>623.60000000000002</ele>
        <time>2012-10-21T08:23:00Z</time>
      </trkpt>
      <trkpt lat="47.572905980050564" lon="14.450466027483344">
        <ele>624</ele>
        <time>2012-10-21T08:23:01Z</time>
      </trkpt>
      <trkpt lat="47.572902962565422" lon="14.450517995283008">
        <ele>624.39999999999998</ele>
        <time>2012-10-21T08:23:02Z</time>
      </trkpt>
      <trkpt lat="47.572894999757409" lon="14.450564011931419">
        <ele>624.79999999999995</ele>
        <time>2012-10-21T08:23:03Z</time>
      </trkpt>
      <trkpt lat="47.572890976443887" lon="14.450614973902702">
        <ele>624.79999999999995</ele>
        <time>2012-10-21T08:23:04Z</time>
      </trkpt>
      <trkpt lat="47.57285300642252" lon="14.45103800855577">
        <ele>624.79999999999995</ele>
        <time>2012-10-21T08:23:12Z</time>
      </trkpt>
      <trkpt lat="47.572838002815843" lon="14.451501024886966">
        <ele>624.79999999999995</ele>
        <time>2012-10-21T08:23:20Z</time>
      </trkpt>
      <trkpt lat="47.572826016694307" lon="14.451739992946386">
        <ele>625.20000000000005</ele>
        <time>2012-10-21T08:23:24Z</time>
      </trkpt>
      <trkpt lat="47.572826016694307" lon="14.451801013201475">
        <ele>625.60000000000002</ele>
        <time>2012-10-21T08:23:25Z</time>
      </trkpt>
      <trkpt lat="47.572822999209166" lon="14.451859015971422">
        <ele>626</ele>
        <time>2012-10-21T08:23:26Z</time>
      </trkpt>
      <trkpt lat="47.572822999209166" lon="14.45191903039813">
        <ele>626.39999999999998</ele>
        <time>2012-10-21T08:23:27Z</time>
      </trkpt>
      <trkpt lat="47.572818975895643" lon="14.451976027339697">
        <ele>626.79999999999995</ele>
        <time>2012-10-21T08:23:28Z</time>
      </trkpt>
      <trkpt lat="47.572802966460586" lon="14.452440971508622">
        <ele>626.79999999999995</ele>
        <time>2012-10-21T08:23:36Z</time>
      </trkpt>
      <trkpt lat="47.57281101308763" lon="14.452927960082889">
        <ele>626.79999999999995</ele>
        <time>2012-10-21T08:23:44Z</time>
      </trkpt>
      <trkpt lat="47.572806989774108" lon="14.453389970585704">
        <ele>626.79999999999995</ele>
        <time>2012-10-21T08:23:52Z</time>
      </trkpt>
      <trkpt lat="47.572802966460586" lon="14.453633967787027">
        <ele>626.79999999999995</ele>
        <time>2012-10-21T08:23:56Z</time>
      </trkpt>
      <trkpt lat="47.572806989774108" lon="14.454039987176657">
        <ele>626.79999999999995</ele>
        <time>2012-10-21T08:24:03Z</time>
      </trkpt>
      <trkpt lat="47.572806989774108" lon="14.454095978289843">
        <ele>627.20000000000005</ele>
        <time>2012-10-21T08:24:04Z</time>
      </trkpt>
      <trkpt lat="47.572806989774108" lon="14.454152975231409">
        <ele>628</ele>
        <time>2012-10-21T08:24:05Z</time>
      </trkpt>
      <trkpt lat="47.572806989774108" lon="14.454210978001356">
        <ele>628.39999999999998</ele>
        <time>2012-10-21T08:24:06Z</time>
      </trkpt>
      <trkpt lat="47.572806989774108" lon="14.454266969114542">
        <ele>628.79999999999995</ele>
        <time>2012-10-21T08:24:07Z</time>
      </trkpt>
      <trkpt lat="47.572802966460586" lon="14.45449898019433">
        <ele>628.79999999999995</ele>
        <time>2012-10-21T08:24:11Z</time>
      </trkpt>
      <trkpt lat="47.572802966460586" lon="14.455024022608995">
        <ele>628.79999999999995</ele>
        <time>2012-10-21T08:24:20Z</time>
      </trkpt>
      <trkpt lat="47.572802966460586" lon="14.455540012568235">
        <ele>628.79999999999995</ele>
        <time>2012-10-21T08:24:29Z</time>
      </trkpt>
      <trkpt lat="47.572806989774108" lon="14.456074023619294">
        <ele>628.79999999999995</ele>
        <time>2012-10-21T08:24:38Z</time>
      </trkpt>
      <trkpt lat="47.572822999209166" lon="14.456552965566516">
        <ele>628.79999999999995</ele>
        <time>2012-10-21T08:24:46Z</time>
      </trkpt>
      <trkpt lat="47.572818975895643" lon="14.457029979676008">
        <ele>628.79999999999995</ele>
        <time>2012-10-21T08:24:54Z</time>
      </trkpt>
      <trkpt lat="47.572826016694307" lon="14.457492996007204">
        <ele>628.79999999999995</ele>
        <time>2012-10-21T08:25:02Z</time>
      </trkpt>
      <trkpt lat="47.57283004000783" lon="14.457614030689001">
        <ele>628.79999999999995</ele>
        <time>2012-10-21T08:25:04Z</time>
      </trkpt>
      <trkpt lat="47.572826016694307" lon="14.457923993468285">
        <ele>628.79999999999995</ele>
        <time>2012-10-21T08:25:09Z</time>
      </trkpt>
      <trkpt lat="47.572826016694307" lon="14.458422968164086">
        <ele>628.79999999999995</ele>
        <time>2012-10-21T08:25:17Z</time>
      </trkpt>
      <trkpt lat="47.572842026129365" lon="14.45894499309361">
        <ele>628.79999999999995</ele>
        <time>2012-10-21T08:25:25Z</time>
      </trkpt>
      <trkpt lat="47.572868010029197" lon="14.459645971655846">
        <ele>628.79999999999995</ele>
        <time>2012-10-21T08:25:36Z</time>
      </trkpt>
      <trkpt lat="47.572887036949396" lon="14.459948977455497">
        <ele>628.79999999999995</ele>
        <time>2012-10-21T08:25:41Z</time>
      </trkpt>
      <trkpt lat="47.572894999757409" lon="14.460132038220763">
        <ele>628.79999999999995</ele>
        <time>2012-10-21T08:25:44Z</time>
      </trkpt>
      <trkpt lat="47.572926012799144" lon="14.460629001259804">
        <ele>628.79999999999995</ele>
        <time>2012-10-21T08:25:53Z</time>
      </trkpt>
      <trkpt lat="47.572929030284286" lon="14.460687004029751">
        <ele>628.79999999999995</ele>
        <time>2012-10-21T08:25:57Z</time>
      </trkpt>
      <trkpt lat="47.572926012799144" lon="14.460690021514893">
        <ele>628.79999999999995</ele>
        <time>2012-10-21T08:26:06Z</time>
      </trkpt>
      <trkpt lat="47.572936993092299" lon="14.460773002356291">
        <ele>628.79999999999995</ele>
        <time>2012-10-21T08:26:12Z</time>
      </trkpt>
      <trkpt lat="47.572951996698976" lon="14.460944999009371">
        <ele>628.79999999999995</ele>
        <time>2012-10-21T08:26:18Z</time>
      </trkpt>
      <trkpt lat="47.572956020012498" lon="14.461155971512198">
        <ele>628.79999999999995</ele>
        <time>2012-10-21T08:26:25Z</time>
      </trkpt>
      <trkpt lat="47.573044029995799" lon="14.46122202090919">
        <ele>628.79999999999995</ele>
        <time>2012-10-21T08:26:29Z</time>
      </trkpt>
      <trkpt lat="47.573143020272255" lon="14.461234007030725">
        <ele>628.79999999999995</ele>
        <time>2012-10-21T08:26:33Z</time>
      </trkpt>
      <trkpt lat="47.573195993900299" lon="14.461239958181977">
        <ele>628.79999999999995</ele>
        <time>2012-10-21T08:26:35Z</time>
      </trkpt>
      <trkpt lat="47.573387017473578" lon="14.461197964847088">
        <ele>628.79999999999995</ele>
        <time>2012-10-21T08:26:42Z</time>
      </trkpt>
      <trkpt lat="47.573589021340013" lon="14.461166029796004">
        <ele>628.39999999999998</ele>
        <time>2012-10-21T08:26:48Z</time>
      </trkpt>
      <trkpt lat="47.573620034381747" lon="14.461162006482482">
        <ele>628</ele>
        <time>2012-10-21T08:26:49Z</time>
      </trkpt>
      <trkpt lat="47.573650041595101" lon="14.461152032017708">
        <ele>627.60000000000002</ele>
        <time>2012-10-21T08:26:50Z</time>
      </trkpt>
      <trkpt lat="47.573684994131327" lon="14.461144991219044">
        <ele>627.20000000000005</ele>
        <time>2012-10-21T08:26:51Z</time>
      </trkpt>
      <trkpt lat="47.573715001344681" lon="14.461130993440747">
        <ele>626.79999999999995</ele>
        <time>2012-10-21T08:26:52Z</time>
      </trkpt>
      <trkpt lat="47.573810974135995" lon="14.461110038682818">
        <ele>626.79999999999995</ele>
        <time>2012-10-21T08:26:55Z</time>
      </trkpt>
      <trkpt lat="47.573994034901261" lon="14.461090005934238">
        <ele>626.79999999999995</ele>
        <time>2012-10-21T08:27:02Z</time>
      </trkpt>
      <trkpt lat="47.574032004922628" lon="14.46107198484242">
        <ele>626.39999999999998</ele>
        <time>2012-10-21T08:27:04Z</time>
      </trkpt>
      <trkpt lat="47.574047008529305" lon="14.461067961528897">
        <ele>626</ele>
        <time>2012-10-21T08:27:05Z</time>
      </trkpt>
      <trkpt lat="47.574062012135983" lon="14.461077013984323">
        <ele>625.60000000000002</ele>
        <time>2012-10-21T08:27:06Z</time>
      </trkpt>
      <trkpt lat="47.574058994650841" lon="14.461081037297845">
        <ele>625.20000000000005</ele>
        <time>2012-10-21T08:27:07Z</time>
      </trkpt>
      <trkpt lat="47.574062012135983" lon="14.461085982620716">
        <ele>624.79999999999995</ele>
        <time>2012-10-21T08:27:08Z</time>
      </trkpt>
      <trkpt lat="47.574089001864195" lon="14.461080031469464">
        <ele>624.79999999999995</ele>
        <time>2012-10-21T08:27:13Z</time>
      </trkpt>
      <trkpt lat="47.574130995199084" lon="14.461068967357278">
        <ele>624.79999999999995</ele>
        <time>2012-10-21T08:27:21Z</time>
      </trkpt>
      <trkpt lat="47.574130995199084" lon="14.461068967357278">
        <ele>624.79999999999995</ele>
        <time>2012-10-21T08:27:27Z</time>
      </trkpt>
      <trkpt lat="47.574280025437474" lon="14.46100601926446">
        <ele>624.79999999999995</ele>
        <time>2012-10-21T08:29:39Z</time>
      </trkpt>
      <trkpt lat="47.574313972145319" lon="14.460999984294176">
        <ele>624.79999999999995</ele>
        <time>2012-10-21T08:29:41Z</time>
      </trkpt>
      <trkpt lat="47.574348002672195" lon="14.460984980687499">
        <ele>624.79999999999995</ele>
        <time>2012-10-21T08:29:43Z</time>
      </trkpt>
      <trkpt lat="47.574451016262174" lon="14.46096302010119">
        <ele>624.79999999999995</ele>
        <time>2012-10-21T08:29:48Z</time>
      </trkpt>
      <trkpt lat="47.574608009308577" lon="14.460913985967636">
        <ele>624.79999999999995</ele>
        <time>2012-10-21T08:29:56Z</time>
      </trkpt>
      <trkpt lat="47.574676992371678" lon="14.460891019552946">
        <ele>624.39999999999998</ele>
        <time>2012-10-21T08:29:59Z</time>
      </trkpt>
      <trkpt lat="47.574706999585032" lon="14.460881967097521">
        <ele>624</ele>
        <time>2012-10-21T08:30:00Z</time>
      </trkpt>
      <trkpt lat="47.574733989313245" lon="14.460876015946269">
        <ele>623.60000000000002</ele>
        <time>2012-10-21T08:30:01Z</time>
      </trkpt>
      <trkpt lat="47.574753016233444" lon="14.460868975147605">
        <ele>623.20000000000005</ele>
        <time>2012-10-21T08:30:02Z</time>
      </trkpt>
      <trkpt lat="47.574775982648134" lon="14.460863023996353">
        <ele>622.79999999999995</ele>
        <time>2012-10-21T08:30:03Z</time>
      </trkpt>
      <trkpt lat="47.574795009568334" lon="14.460860006511211">
        <ele>622.79999999999995</ele>
        <time>2012-10-21T08:30:04Z</time>
      </trkpt>
      <trkpt lat="47.574924007058144" lon="14.460794040933251">
        <ele>622.79999999999995</ele>
        <time>2012-10-21T08:30:11Z</time>
      </trkpt>
      <trkpt lat="47.575016040354967" lon="14.460741989314556">
        <ele>622.79999999999995</ele>
        <time>2012-10-21T08:30:18Z</time>
      </trkpt>
      <trkpt lat="47.57504696957767" lon="14.460755987092853">
        <ele>622.79999999999995</ele>
        <time>2012-10-21T08:30:20Z</time>
      </trkpt>
      <trkpt lat="47.575172027572989" lon="14.460848020389676">
        <ele>622.39999999999998</ele>
        <time>2012-10-21T08:30:24Z</time>
      </trkpt>
      <trkpt lat="47.575199017301202" lon="14.460859000682831">
        <ele>621.79999999999995</ele>
        <time>2012-10-21T08:30:25Z</time>
      </trkpt>
      <trkpt lat="47.575206980109215" lon="14.460866963490844">
        <ele>621.39999999999998</ele>
        <time>2012-10-21T08:30:26Z</time>
      </trkpt>
      <trkpt lat="47.575221983715892" lon="14.460871992632747">
        <ele>621</ele>
        <time>2012-10-21T08:30:27Z</time>
      </trkpt>
      <trkpt lat="47.575221983715892" lon="14.460871992632747">
        <ele>620.60000000000002</ele>
        <time>2012-10-21T08:30:28Z</time>
      </trkpt>
      <trkpt lat="47.575221983715892" lon="14.460871992632747">
        <ele>620.60000000000002</ele>
        <time>2012-10-21T08:30:29Z</time>
      </trkpt>
      <trkpt lat="47.575314017012715" lon="14.460901999846101">
        <ele>620.60000000000002</ele>
        <time>2012-10-21T08:30:35Z</time>
      </trkpt>
      <trkpt lat="47.575408983975649" lon="14.460913985967636">
        <ele>620.60000000000002</ele>
        <time>2012-10-21T08:30:43Z</time>
      </trkpt>
      <trkpt lat="47.575767980888486" lon="14.460975006222725">
        <ele>620.20000000000005</ele>
        <time>2012-10-21T08:32:51Z</time>
      </trkpt>
      <trkpt lat="47.575793964788318" lon="14.460978023707867">
        <ele>619.79999999999995</ele>
        <time>2012-10-21T08:32:52Z</time>
      </trkpt>
      <trkpt lat="47.575829001143575" lon="14.460975006222725">
        <ele>619.39999999999998</ele>
        <time>2012-10-21T08:32:53Z</time>
      </trkpt>
      <trkpt lat="47.575859008356929" lon="14.460976012051105">
        <ele>619</ele>
        <time>2012-10-21T08:32:54Z</time>
      </trkpt>
      <trkpt lat="47.575890021398664" lon="14.460976012051105">
        <ele>618.60000000000002</ele>
        <time>2012-10-21T08:32:55Z</time>
      </trkpt>
      <trkpt lat="47.576103005558252" lon="14.460954973474145">
        <ele>618.60000000000002</ele>
        <time>2012-10-21T08:33:01Z</time>
      </trkpt>
      <trkpt lat="47.576294029131532" lon="14.460883978754282">
        <ele>618.60000000000002</ele>
        <time>2012-10-21T08:33:07Z</time>
      </trkpt>
      <trkpt lat="47.576587982475758" lon="14.460779037326574">
        <ele>618.60000000000002</ele>
        <time>2012-10-21T08:33:15Z</time>
      </trkpt>
      <trkpt lat="47.576626036316156" lon="14.460759004577994">
        <ele>618.20000000000005</ele>
        <time>2012-10-21T08:33:16Z</time>
      </trkpt>
      <trkpt lat="47.576668029651046" lon="14.460744000971317">
        <ele>617.79999999999995</ele>
        <time>2012-10-21T08:33:17Z</time>
      </trkpt>
      <trkpt lat="47.576705999672413" lon="14.460723968222737">
        <ele>617.20000000000005</ele>
        <time>2012-10-21T08:33:18Z</time>
      </trkpt>
      <trkpt lat="47.576747993007302" lon="14.460697984322906">
        <ele>616.79999999999995</ele>
        <time>2012-10-21T08:33:19Z</time>
      </trkpt>
      <trkpt lat="47.576785963028669" lon="14.460669988766313">
        <ele>616.39999999999998</ele>
        <time>2012-10-21T08:33:20Z</time>
      </trkpt>
      <trkpt lat="47.576881013810635" lon="14.46062003262341">
        <ele>616.39999999999998</ele>
        <time>2012-10-21T08:33:22Z</time>
      </trkpt>
      <trkpt lat="47.577015040442348" lon="14.46055599488318">
        <ele>616.39999999999998</ele>
        <time>2012-10-21T08:33:25Z</time>
      </trkpt>
      <trkpt lat="47.577229030430317" lon="14.460511989891529">
        <ele>616.39999999999998</ele>
        <time>2012-10-21T08:33:30Z</time>
      </trkpt>
      <trkpt lat="47.57751502096653" lon="14.460461027920246">
        <ele>616</ele>
        <time>2012-10-21T08:33:37Z</time>
      </trkpt>
      <trkpt lat="47.577563971281052" lon="14.460454992949963">
        <ele>615.60000000000002</ele>
        <time>2012-10-21T08:33:38Z</time>
      </trkpt>
      <trkpt lat="47.577605964615941" lon="14.460443006828427">
        <ele>615.20000000000005</ele>
        <time>2012-10-21T08:33:39Z</time>
      </trkpt>
      <trkpt lat="47.577648041769862" lon="14.460436971858144">
        <ele>614.79999999999995</ele>
        <time>2012-10-21T08:33:40Z</time>
      </trkpt>
      <trkpt lat="47.577690035104752" lon="14.460430014878511">
        <ele>614.39999999999998</ele>
        <time>2012-10-21T08:33:41Z</time>
      </trkpt>
      <trkpt lat="47.577765975147486" lon="14.460424985736609">
        <ele>614.39999999999998</ele>
        <time>2012-10-21T08:33:43Z</time>
      </trkpt>
      <trkpt lat="47.577888015657663" lon="14.460382992401719">
        <ele>614.39999999999998</ele>
        <time>2012-10-21T08:33:49Z</time>
      </trkpt>
      <trkpt lat="47.578163025900722" lon="14.460289031267166">
        <ele>614.39999999999998</ele>
        <time>2012-10-21T08:33:57Z</time>
      </trkpt>
      <trkpt lat="47.578456979244947" lon="14.460201021283865">
        <ele>614.39999999999998</ele>
        <time>2012-10-21T08:34:03Z</time>
      </trkpt>
      <trkpt lat="47.578495033085346" lon="14.460185011848807">
        <ele>614.39999999999998</ele>
        <time>2012-10-21T08:34:04Z</time>
      </trkpt>
      <trkpt lat="47.578528979793191" lon="14.460162967443466">
        <ele>614</ele>
        <time>2012-10-21T08:34:05Z</time>
      </trkpt>
      <trkpt lat="47.578574996441603" lon="14.460138995200396">
        <ele>613.60000000000002</ele>
        <time>2012-10-21T08:34:06Z</time>
      </trkpt>
      <trkpt lat="47.578616989776492" lon="14.460120974108577">
        <ele>613.20000000000005</ele>
        <time>2012-10-21T08:34:07Z</time>
      </trkpt>
      <trkpt lat="47.578658983111382" lon="14.460097001865506">
        <ele>612.79999999999995</ele>
        <time>2012-10-21T08:34:08Z</time>
      </trkpt>
      <trkpt lat="47.578700976446271" lon="14.460080992430449">
        <ele>612.39999999999998</ele>
        <time>2012-10-21T08:34:09Z</time>
      </trkpt>
      <trkpt lat="47.578772976994514" lon="14.460050985217094">
        <ele>612.39999999999998</ele>
        <time>2012-10-21T08:34:11Z</time>
      </trkpt>
      <trkpt lat="47.57891102693975" lon="14.45999801158905">
        <ele>612.39999999999998</ele>
        <time>2012-10-21T08:34:16Z</time>
      </trkpt>
      <trkpt lat="47.57904396392405" lon="14.459915030747652">
        <ele>612.39999999999998</ele>
        <time>2012-10-21T08:34:22Z</time>
      </trkpt>
      <trkpt lat="47.579128034412861" lon="14.459984013810754">
        <ele>612.39999999999998</ele>
        <time>2012-10-21T08:34:25Z</time>
      </trkpt>
      <trkpt lat="47.579143960028887" lon="14.460030030459166">
        <ele>612.39999999999998</ele>
        <time>2012-10-21T08:34:26Z</time>
      </trkpt>
      <trkpt lat="47.579185031354427" lon="14.460201021283865">
        <ele>612.39999999999998</ele>
        <time>2012-10-21T08:34:30Z</time>
      </trkpt>
      <trkpt lat="47.579204980283976" lon="14.46031903848052">
        <ele>612.39999999999998</ele>
        <time>2012-10-21T08:34:33Z</time>
      </trkpt>
      <trkpt lat="47.579246973618865" lon="14.460644004866481">
        <ele>612.39999999999998</ele>
        <time>2012-10-21T08:34:40Z</time>
      </trkpt>
      <trkpt lat="47.579322997480631" lon="14.460962014272809">
        <ele>612.39999999999998</ele>
        <time>2012-10-21T08:34:47Z</time>
      </trkpt>
      <trkpt lat="47.579394998028874" lon="14.461245993152261">
        <ele>612.39999999999998</ele>
        <time>2012-10-21T08:34:52Z</time>
      </trkpt>
      <trkpt lat="47.579430034384131" lon="14.461363004520535">
        <ele>612</ele>
        <time>2012-10-21T08:34:54Z</time>
      </trkpt>
      <trkpt lat="47.579445037990808" lon="14.461421007290483">
        <ele>611.60000000000002</ele>
        <time>2012-10-21T08:34:55Z</time>
      </trkpt>
      <trkpt lat="47.579460041597486" lon="14.461482027545571">
        <ele>611.20000000000005</ele>
        <time>2012-10-21T08:34:56Z</time>
      </trkpt>
      <trkpt lat="47.579474961385131" lon="14.461550004780293">
        <ele>610.79999999999995</ele>
        <time>2012-10-21T08:34:57Z</time>
      </trkpt>
      <trkpt lat="47.579487031325698" lon="14.461622005328536">
        <ele>610.39999999999998</ele>
        <time>2012-10-21T08:34:58Z</time>
      </trkpt>
      <trkpt lat="47.579498011618853" lon="14.461699035018682">
        <ele>610.39999999999998</ele>
        <time>2012-10-21T08:34:59Z</time>
      </trkpt>
      <trkpt lat="47.579551991075277" lon="14.462197003886104">
        <ele>610.39999999999998</ele>
        <time>2012-10-21T08:35:06Z</time>
      </trkpt>
      <trkpt lat="47.579544028267264" lon="14.462342010810971">
        <ele>610.39999999999998</ele>
        <time>2012-10-21T08:35:08Z</time>
      </trkpt>
      <trkpt lat="47.57951402105391" lon="14.462633030489087">
        <ele>610.39999999999998</ele>
        <time>2012-10-21T08:35:12Z</time>
      </trkpt>
      <trkpt lat="47.579505974426866" lon="14.462703019380569">
        <ele>610</ele>
        <time>2012-10-21T08:35:13Z</time>
      </trkpt>
      <trkpt lat="47.579502034932375" lon="14.462777031585574">
        <ele>609.60000000000002</ele>
        <time>2012-10-21T08:35:14Z</time>
      </trkpt>
      <trkpt lat="47.579498011618853" lon="14.462849032133818">
        <ele>609.20000000000005</ele>
        <time>2012-10-21T08:35:15Z</time>
      </trkpt>
      <trkpt lat="47.579498011618853" lon="14.4629190210253">
        <ele>608.79999999999995</ele>
        <time>2012-10-21T08:35:16Z</time>
      </trkpt>
      <trkpt lat="47.579498011618853" lon="14.462980963289738">
        <ele>608.39999999999998</ele>
        <time>2012-10-21T08:35:17Z</time>
      </trkpt>
      <trkpt lat="47.579502034932375" lon="14.463105015456676">
        <ele>608.39999999999998</ele>
        <time>2012-10-21T08:35:19Z</time>
      </trkpt>
      <trkpt lat="47.579505974426866" lon="14.463530983775854">
        <ele>608.39999999999998</ele>
        <time>2012-10-21T08:35:25Z</time>
      </trkpt>
      <trkpt lat="47.579509997740388" lon="14.463804988190532">
        <ele>607.79999999999995</ele>
        <time>2012-10-21T08:35:28Z</time>
      </trkpt>
      <trkpt lat="47.579517038539052" lon="14.463900038972497">
        <ele>607.39999999999998</ele>
        <time>2012-10-21T08:35:29Z</time>
      </trkpt>
      <trkpt lat="47.579520978033543" lon="14.463986959308386">
        <ele>607</ele>
        <time>2012-10-21T08:35:30Z</time>
      </trkpt>
      <trkpt lat="47.579544028267264" lon="14.464070023968816">
        <ele>606.39999999999998</ele>
        <time>2012-10-21T08:35:31Z</time>
      </trkpt>
      <trkpt lat="47.579562971368432" lon="14.464153004810214">
        <ele>606</ele>
        <time>2012-10-21T08:35:32Z</time>
      </trkpt>
      <trkpt lat="47.579680988565087" lon="14.464605962857604">
        <ele>606</ele>
        <time>2012-10-21T08:35:38Z</time>
      </trkpt>
      <trkpt lat="47.579833958297968" lon="14.465104015544057">
        <ele>606</ele>
        <time>2012-10-21T08:35:45Z</time>
      </trkpt>
      <trkpt lat="47.579845022410154" lon="14.465177021920681">
        <ele>606</ele>
        <time>2012-10-21T08:35:46Z</time>
      </trkpt>
      <trkpt lat="47.57985700853169" lon="14.465466029942036">
        <ele>606</ele>
        <time>2012-10-21T08:35:50Z</time>
      </trkpt>
      <trkpt lat="47.579830018803477" lon="14.465597039088607">
        <ele>606</ele>
        <time>2012-10-21T08:35:52Z</time>
      </trkpt>
      <trkpt lat="47.579833958297968" lon="14.465816980227828">
        <ele>606</ele>
        <time>2012-10-21T08:35:55Z</time>
      </trkpt>
      <trkpt lat="47.579842004925013" lon="14.465899039059877">
        <ele>606</ele>
        <time>2012-10-21T08:35:56Z</time>
      </trkpt>
      <trkpt lat="47.57983798161149" lon="14.465984031558037">
        <ele>606</ele>
        <time>2012-10-21T08:35:57Z</time>
      </trkpt>
      <trkpt lat="47.579819038510323" lon="14.466252001002431">
        <ele>606</ele>
        <time>2012-10-21T08:36:00Z</time>
      </trkpt>
      <trkpt lat="47.579806968569756" lon="14.466842003166676">
        <ele>606</ele>
        <time>2012-10-21T08:36:07Z</time>
      </trkpt>
      <trkpt lat="47.579845022410154" lon="14.467419013381004">
        <ele>606</ele>
        <time>2012-10-21T08:36:15Z</time>
      </trkpt>
      <trkpt lat="47.579891039058566" lon="14.467970039695501">
        <ele>606</ele>
        <time>2012-10-21T08:36:23Z</time>
      </trkpt>
      <trkpt lat="47.579948036000133" lon="14.46850597858429">
        <ele>606</ele>
        <time>2012-10-21T08:36:31Z</time>
      </trkpt>
      <trkpt lat="47.5799669791013" lon="14.468946028500795">
        <ele>606</ele>
        <time>2012-10-21T08:36:37Z</time>
      </trkpt>
      <trkpt lat="47.58000897243619" lon="14.469330003485084">
        <ele>605.60000000000002</ele>
        <time>2012-10-21T08:36:42Z</time>
      </trkpt>
      <trkpt lat="47.580020958557725" lon="14.469405021518469">
        <ele>605.20000000000005</ele>
        <time>2012-10-21T08:36:43Z</time>
      </trkpt>
      <trkpt lat="47.580032022669911" lon="14.469479033723474">
        <ele>604.79999999999995</ele>
        <time>2012-10-21T08:36:44Z</time>
      </trkpt>
      <trkpt lat="47.580035962164402" lon="14.469555979594588">
        <ele>604.39999999999998</ele>
        <time>2012-10-21T08:36:45Z</time>
      </trkpt>
      <trkpt lat="47.580035962164402" lon="14.469640972092748">
        <ele>604</ele>
        <time>2012-10-21T08:36:46Z</time>
      </trkpt>
      <trkpt lat="47.580024981871247" lon="14.469809029251337">
        <ele>604</ele>
        <time>2012-10-21T08:36:48Z</time>
      </trkpt>
      <trkpt lat="47.58000897243619" lon="14.469887986779213">
        <ele>604</ele>
        <time>2012-10-21T08:36:49Z</time>
      </trkpt>
      <trkpt lat="47.579960022121668" lon="14.470252012833953">
        <ele>604</ele>
        <time>2012-10-21T08:36:54Z</time>
      </trkpt>
      <trkpt lat="47.579963961616158" lon="14.470323007553816">
        <ele>604</ele>
        <time>2012-10-21T08:36:55Z</time>
      </trkpt>
      <trkpt lat="47.579997992143035" lon="14.470637999475002">
        <ele>604</ele>
        <time>2012-10-21T08:37:00Z</time>
      </trkpt>
      <trkpt lat="47.579997992143035" lon="14.470704970881343">
        <ele>604</ele>
        <time>2012-10-21T08:37:01Z</time>
      </trkpt>
      <trkpt lat="47.579955998808146" lon="14.471050975844264">
        <ele>604</ele>
        <time>2012-10-21T08:37:06Z</time>
      </trkpt>
      <trkpt lat="47.579936971887946" lon="14.471118031069636">
        <ele>604</ele>
        <time>2012-10-21T08:37:07Z</time>
      </trkpt>
      <trkpt lat="47.579887015745044" lon="14.471380971372128">
        <ele>604</ele>
        <time>2012-10-21T08:37:11Z</time>
      </trkpt>
      <trkpt lat="47.579883998259902" lon="14.47145196609199">
        <ele>604</ele>
        <time>2012-10-21T08:37:12Z</time>
      </trkpt>
      <trkpt lat="47.579861031845212" lon="14.471896039322019">
        <ele>604</ele>
        <time>2012-10-21T08:37:18Z</time>
      </trkpt>
      <trkpt lat="47.579914005473256" lon="14.472230980172753">
        <ele>604</ele>
        <time>2012-10-21T08:37:22Z</time>
      </trkpt>
      <trkpt lat="47.579955998808146" lon="14.472384033724666">
        <ele>604</ele>
        <time>2012-10-21T08:37:24Z</time>
      </trkpt>
      <trkpt lat="47.580105029046535" lon="14.472771026194096">
        <ele>604</ele>
        <time>2012-10-21T08:37:30Z</time>
      </trkpt>
      <trkpt lat="47.580279959365726" lon="14.473176961764693">
        <ele>604</ele>
        <time>2012-10-21T08:37:37Z</time>
      </trkpt>
      <trkpt lat="47.580295968800783" lon="14.473247034475207">
        <ele>604</ele>
        <time>2012-10-21T08:37:38Z</time>
      </trkpt>
      <trkpt lat="47.580356989055872" lon="14.473453983664513">
        <ele>604</ele>
        <time>2012-10-21T08:37:41Z</time>
      </trkpt>
      <trkpt lat="47.58048196323216" lon="14.47368498891592">
        <ele>604</ele>
        <time>2012-10-21T08:37:43Z</time>
      </trkpt>
      <trkpt lat="47.58048196323216" lon="14.47368498891592">
        <ele>604</ele>
        <time>2012-10-21T08:37:44Z</time>
      </trkpt>
      <trkpt lat="47.580539966002107" lon="14.47374802082777">
        <ele>604</ele>
        <time>2012-10-21T08:37:45Z</time>
      </trkpt>
      <trkpt lat="47.580723026767373" lon="14.473996041342616">
        <ele>604</ele>
        <time>2012-10-21T08:37:50Z</time>
      </trkpt>
      <trkpt lat="47.580750016495585" lon="14.474056977778673">
        <ele>604</ele>
        <time>2012-10-21T08:37:51Z</time>
      </trkpt>
      <trkpt lat="47.580837020650506" lon="14.474323019385338">
        <ele>604</ele>
        <time>2012-10-21T08:37:55Z</time>
      </trkpt>
      <trkpt lat="47.580864010378718" lon="14.474387979134917">
        <ele>604</ele>
        <time>2012-10-21T08:37:56Z</time>
      </trkpt>
      <trkpt lat="47.580994013696909" lon="14.474721997976303">
        <ele>604</ele>
        <time>2012-10-21T08:38:01Z</time>
      </trkpt>
      <trkpt lat="47.581157963722944" lon="14.475202029570937">
        <ele>604</ele>
        <time>2012-10-21T08:38:08Z</time>
      </trkpt>
      <trkpt lat="47.581263994798064" lon="14.475616011768579">
        <ele>604</ele>
        <time>2012-10-21T08:38:14Z</time>
      </trkpt>
      <trkpt lat="47.581356028094888" lon="14.475864032283425">
        <ele>604</ele>
        <time>2012-10-21T08:38:18Z</time>
      </trkpt>
      <trkpt lat="47.581435991451144" lon="14.476037034764886">
        <ele>604</ele>
        <time>2012-10-21T08:38:22Z</time>
      </trkpt>
      <trkpt lat="47.581596001982689" lon="14.476512037217617">
        <ele>604</ele>
        <time>2012-10-21T08:38:29Z</time>
      </trkpt>
      <trkpt lat="47.581809991970658" lon="14.477131962776184">
        <ele>604</ele>
        <time>2012-10-21T08:38:38Z</time>
      </trkpt>
      <trkpt lat="47.581824995577335" lon="14.477435974404216">
        <ele>604</ele>
        <time>2012-10-21T08:38:42Z</time>
      </trkpt>
      <trkpt lat="47.581824995577335" lon="14.477513004094362">
        <ele>604</ele>
        <time>2012-10-21T08:38:43Z</time>
      </trkpt>
      <trkpt lat="47.581814015284181" lon="14.477948024868965">
        <ele>604</ele>
        <time>2012-10-21T08:38:49Z</time>
      </trkpt>
      <trkpt lat="47.581913005560637" lon="14.478167966008186">
        <ele>604</ele>
        <time>2012-10-21T08:38:53Z</time>
      </trkpt>
      <trkpt lat="47.581962961703539" lon="14.478281959891319">
        <ele>604</ele>
        <time>2012-10-21T08:38:55Z</time>
      </trkpt>
      <trkpt lat="47.582019958645105" lon="14.478386985138059">
        <ele>604</ele>
        <time>2012-10-21T08:38:57Z</time>
      </trkpt>
      <trkpt lat="47.582088019698858" lon="14.478484969586134">
        <ele>604</ele>
        <time>2012-10-21T08:38:59Z</time>
      </trkpt>
      <trkpt lat="47.582321036607027" lon="14.478828040882945">
        <ele>604</ele>
        <time>2012-10-21T08:39:06Z</time>
      </trkpt>
      <trkpt lat="47.582378033548594" lon="14.478941028937697">
        <ele>604</ele>
        <time>2012-10-21T08:39:08Z</time>
      </trkpt>
      <trkpt lat="47.582462020218372" lon="14.479187037795782">
        <ele>604</ele>
        <time>2012-10-21T08:39:12Z</time>
      </trkpt>
      <trkpt lat="47.582641979679465" lon="14.479697998613119">
        <ele>604</ele>
        <time>2012-10-21T08:39:20Z</time>
      </trkpt>
      <trkpt lat="47.582825040444732" lon="14.480164032429457">
        <ele>604</ele>
        <time>2012-10-21T08:39:27Z</time>
      </trkpt>
      <trkpt lat="47.582863010466099" lon="14.480296969413757">
        <ele>604</ele>
        <time>2012-10-21T08:39:29Z</time>
      </trkpt>
      <trkpt lat="47.582954037934542" lon="14.480551024898887">
        <ele>604</ele>
        <time>2012-10-21T08:39:33Z</time>
      </trkpt>
      <trkpt lat="47.583183031529188" lon="14.481015969067812">
        <ele>604</ele>
        <time>2012-10-21T08:39:41Z</time>
      </trkpt>
      <trkpt lat="47.583355028182268" lon="14.481126023456454">
        <ele>604</ele>
        <time>2012-10-21T08:39:45Z</time>
      </trkpt>
      <trkpt lat="47.583454018458724" lon="14.481103979051113">
        <ele>604</ele>
        <time>2012-10-21T08:39:47Z</time>
      </trkpt>
      <trkpt lat="47.583503974601626" lon="14.481083024293184">
        <ele>604</ele>
        <time>2012-10-21T08:39:48Z</time>
      </trkpt>
      <trkpt lat="47.583548985421658" lon="14.481061985716224">
        <ele>604</ele>
        <time>2012-10-21T08:39:49Z</time>
      </trkpt>
      <trkpt lat="47.583672031760216" lon="14.48103197850287">
        <ele>604</ele>
        <time>2012-10-21T08:39:52Z</time>
      </trkpt>
      <trkpt lat="47.583755012601614" lon="14.481047987937927">
        <ele>604</ele>
        <time>2012-10-21T08:39:54Z</time>
      </trkpt>
      <trkpt lat="47.583953998982906" lon="14.481127029284835">
        <ele>604</ele>
        <time>2012-10-21T08:39:59Z</time>
      </trkpt>
      <trkpt lat="47.584000015631318" lon="14.481151001527905">
        <ele>604</ele>
        <time>2012-10-21T08:40:00Z</time>
      </trkpt>
      <trkpt lat="47.584263039752841" lon="14.481327021494508">
        <ele>604</ele>
        <time>2012-10-21T08:40:06Z</time>
      </trkpt>
      <trkpt lat="47.584540983662009" lon="14.481630027294159">
        <ele>604</ele>
        <time>2012-10-21T08:40:12Z</time>
      </trkpt>
      <trkpt lat="47.584866033867002" lon="14.481977038085461">
        <ele>604</ele>
        <time>2012-10-21T08:40:20Z</time>
      </trkpt>
      <trkpt lat="47.584899980574846" lon="14.48202196508646">
        <ele>604</ele>
        <time>2012-10-21T08:40:21Z</time>
      </trkpt>
      <trkpt lat="47.585044987499714" lon="14.482220029458404">
        <ele>604</ele>
        <time>2012-10-21T08:40:25Z</time>
      </trkpt>
      <trkpt lat="47.585278004407883" lon="14.48257802054286">
        <ele>604</ele>
        <time>2012-10-21T08:40:32Z</time>
      </trkpt>
      <trkpt lat="47.585505992174149" lon="14.482856970280409">
        <ele>603.60000000000002</ele>
        <time>2012-10-21T08:40:38Z</time>
      </trkpt>
      <trkpt lat="47.585547985509038" lon="14.482902986928821">
        <ele>603.20000000000005</ele>
        <time>2012-10-21T08:40:39Z</time>
      </trkpt>
      <trkpt lat="47.585589978843927" lon="14.482945986092091">
        <ele>602.79999999999995</ele>
        <time>2012-10-21T08:40:40Z</time>
      </trkpt>
      <trkpt lat="47.585625015199184" lon="14.482992002740502">
        <ele>602.39999999999998</ele>
        <time>2012-10-21T08:40:41Z</time>
      </trkpt>
      <trkpt lat="47.585662985220551" lon="14.483038019388914">
        <ele>601.79999999999995</ele>
        <time>2012-10-21T08:40:42Z</time>
      </trkpt>
      <trkpt lat="47.585830958560109" lon="14.483263995498419">
        <ele>601.79999999999995</ele>
        <time>2012-10-21T08:40:47Z</time>
      </trkpt>
      <trkpt lat="47.586071016266942" lon="14.483603965491056">
        <ele>601.79999999999995</ele>
        <time>2012-10-21T08:40:55Z</time>
      </trkpt>
      <trkpt lat="47.586132036522031" lon="14.48369599878788">
        <ele>601.79999999999995</ele>
        <time>2012-10-21T08:40:57Z</time>
      </trkpt>
      <trkpt lat="47.586258016526699" lon="14.483886016532779">
        <ele>601.79999999999995</ele>
        <time>2012-10-21T08:41:01Z</time>
      </trkpt>
      <trkpt lat="47.586506037041545" lon="14.484311984851956">
        <ele>601.79999999999995</ele>
        <time>2012-10-21T08:41:09Z</time>
      </trkpt>
      <trkpt lat="47.586554987356067" lon="14.484422039240599">
        <ele>601.79999999999995</ele>
        <time>2012-10-21T08:41:11Z</time>
      </trkpt>
      <trkpt lat="47.586638974025846" lon="14.484658995643258">
        <ele>601.79999999999995</ele>
        <time>2012-10-21T08:41:15Z</time>
      </trkpt>
      <trkpt lat="47.586803007870913" lon="14.485141038894653">
        <ele>601.79999999999995</ele>
        <time>2012-10-21T08:41:23Z</time>
      </trkpt>
      <trkpt lat="47.586979027837515" lon="14.485577987506986">
        <ele>601.79999999999995</ele>
        <time>2012-10-21T08:41:30Z</time>
      </trkpt>
      <trkpt lat="47.58714297786355" lon="14.486017031595111">
        <ele>601.79999999999995</ele>
        <time>2012-10-21T08:41:37Z</time>
      </trkpt>
      <trkpt lat="47.587287984788418" lon="14.48640301823616">
        <ele>601.79999999999995</ele>
        <time>2012-10-21T08:41:44Z</time>
      </trkpt>
      <trkpt lat="47.587371971458197" lon="14.486729996278882">
        <ele>601.79999999999995</ele>
        <time>2012-10-21T08:41:50Z</time>
      </trkpt>
      <trkpt lat="47.587467022240162" lon="14.487098967656493">
        <ele>601.79999999999995</ele>
        <time>2012-10-21T08:41:57Z</time>
      </trkpt>
      <trkpt lat="47.587521001696587" lon="14.487154958769679">
        <ele>601.79999999999995</ele>
        <time>2012-10-21T08:41:59Z</time>
      </trkpt>
      <trkpt lat="47.587597025558352" lon="14.487168034538627">
        <ele>601.79999999999995</ele>
        <time>2012-10-21T08:42:01Z</time>
      </trkpt>
      <trkpt lat="47.587696015834808" lon="14.487131992354989">
        <ele>602.20000000000005</ele>
        <time>2012-10-21T08:42:05Z</time>
      </trkpt>
      <trkpt lat="47.587727028876543" lon="14.487124029546976">
        <ele>602.79999999999995</ele>
        <time>2012-10-21T08:42:06Z</time>
      </trkpt>
      <trkpt lat="47.587757036089897" lon="14.487114977091551">
        <ele>603.20000000000005</ele>
        <time>2012-10-21T08:42:07Z</time>
      </trkpt>
      <trkpt lat="47.587790982797742" lon="14.487099973484874">
        <ele>603.60000000000002</ele>
        <time>2012-10-21T08:42:08Z</time>
      </trkpt>
      <trkpt lat="47.587826019152999" lon="14.487084969878197">
        <ele>604</ele>
        <time>2012-10-21T08:42:09Z</time>
      </trkpt>
      <trkpt lat="47.587932972237468" lon="14.487035013735294">
        <ele>604</ele>
        <time>2012-10-21T08:42:12Z</time>
      </trkpt>
      <trkpt lat="47.588200019672513" lon="14.486924037337303">
        <ele>604</ele>
        <time>2012-10-21T08:42:19Z</time>
      </trkpt>
      <trkpt lat="47.588245030492544" lon="14.486927976831794">
        <ele>604</ele>
        <time>2012-10-21T08:42:20Z</time>
      </trkpt>
      <trkpt lat="47.588585000485182" lon="14.486966030672193">
        <ele>604</ele>
        <time>2012-10-21T08:42:27Z</time>
      </trkpt>
      <trkpt lat="47.588875014334917" lon="14.486926971003413">
        <ele>604</ele>
        <time>2012-10-21T08:42:33Z</time>
      </trkpt>
      <trkpt lat="47.589092021808028" lon="14.486872991546988">
        <ele>604</ele>
        <time>2012-10-21T08:42:38Z</time>
      </trkpt>
      <trkpt lat="47.589180031791329" lon="14.486837033182383">
        <ele>604</ele>
        <time>2012-10-21T08:42:40Z</time>
      </trkpt>
      <trkpt lat="47.589301988482475" lon="14.486794034019113">
        <ele>604</ele>
        <time>2012-10-21T08:42:43Z</time>
      </trkpt>
      <trkpt lat="47.589385975152254" lon="14.486752962693572">
        <ele>604</ele>
        <time>2012-10-21T08:42:45Z</time>
      </trkpt>
      <trkpt lat="47.589497035369277" lon="14.486650032922626">
        <ele>604</ele>
        <time>2012-10-21T08:42:48Z</time>
      </trkpt>
      <trkpt lat="47.589557971805334" lon="14.486576020717621">
        <ele>604</ele>
        <time>2012-10-21T08:42:50Z</time>
      </trkpt>
      <trkpt lat="47.589622009545565" lon="14.486503014340997">
        <ele>604</ele>
        <time>2012-10-21T08:42:52Z</time>
      </trkpt>
      <trkpt lat="47.589809009805322" lon="14.486324982717633">
        <ele>604</ele>
        <time>2012-10-21T08:42:57Z</time>
      </trkpt>
      <trkpt lat="47.589996010065079" lon="14.486133037135005">
        <ele>604</ele>
        <time>2012-10-21T08:43:02Z</time>
      </trkpt>
      <trkpt lat="47.590079996734858" lon="14.486070005223155">
        <ele>604</ele>
        <time>2012-10-21T08:43:04Z</time>
      </trkpt>
      <trkpt lat="47.59025601670146" lon="14.485971014946699">
        <ele>604</ele>
        <time>2012-10-21T08:43:08Z</time>
      </trkpt>
      <trkpt lat="47.590346960350871" lon="14.485975038260221">
        <ele>604</ele>
        <time>2012-10-21T08:43:10Z</time>
      </trkpt>
      <trkpt lat="47.590434970334172" lon="14.486006973311305">
        <ele>604</ele>
        <time>2012-10-21T08:43:12Z</time>
      </trkpt>
      <trkpt lat="47.590651977807283" lon="14.486098000779748">
        <ele>604</ele>
        <time>2012-10-21T08:43:17Z</time>
      </trkpt>
      <trkpt lat="47.590835960581899" lon="14.486171007156372">
        <ele>604</ele>
        <time>2012-10-21T08:43:23Z</time>
      </trkpt>
      <trkpt lat="47.590926988050342" lon="14.486250970512629">
        <ele>604</ele>
        <time>2012-10-21T08:43:29Z</time>
      </trkpt>
      <trkpt lat="47.590999994426966" lon="14.486437970772386">
        <ele>604</ele>
        <time>2012-10-21T08:43:33Z</time>
      </trkpt>
      <trkpt lat="47.591049028560519" lon="14.48689604178071">
        <ele>604</ele>
        <time>2012-10-21T08:43:40Z</time>
      </trkpt>
      <trkpt lat="47.591118011623621" lon="14.487148001790047">
        <ele>604</ele>
        <time>2012-10-21T08:43:44Z</time>
      </trkpt>
      <trkpt lat="47.591155981644988" lon="14.487270964309573">
        <ele>604</ele>
        <time>2012-10-21T08:43:46Z</time>
      </trkpt>
      <trkpt lat="47.591300988569856" lon="14.487675977870822">
        <ele>604</ele>
        <time>2012-10-21T08:43:53Z</time>
      </trkpt>
      <trkpt lat="47.591423029080033" lon="14.488129019737244">
        <ele>604</ele>
        <time>2012-10-21T08:44:00Z</time>
      </trkpt>
      <trkpt lat="47.591559989377856" lon="14.488649033010006">
        <ele>604</ele>
        <time>2012-10-21T08:44:05Z</time>
      </trkpt>
      <trkpt lat="47.591559989377856" lon="14.488649033010006">
        <ele>604</ele>
        <time>2012-10-21T08:44:08Z</time>
      </trkpt>
      <trkpt lat="47.591721005737782" lon="14.489141972735524">
        <ele>604</ele>
        <time>2012-10-21T08:44:16Z</time>
      </trkpt>
      <trkpt lat="47.591923009604216" lon="14.489593002945185">
        <ele>604</ele>
        <time>2012-10-21T08:44:24Z</time>
      </trkpt>
      <trkpt lat="47.591999033465981" lon="14.489747984334826">
        <ele>604</ele>
        <time>2012-10-21T08:44:27Z</time>
      </trkpt>
      <trkpt lat="47.592052007094026" lon="14.489844962954521">
        <ele>604</ele>
        <time>2012-10-21T08:44:29Z</time>
      </trkpt>
      <trkpt lat="47.59210598655045" lon="14.489962980151176">
        <ele>604</ele>
        <time>2012-10-21T08:44:31Z</time>
      </trkpt>
      <trkpt lat="47.592209000140429" lon="14.490251988172531">
        <ele>604</ele>
        <time>2012-10-21T08:44:36Z</time>
      </trkpt>
      <trkpt lat="47.592231966555119" lon="14.490364976227283">
        <ele>604</ele>
        <time>2012-10-21T08:44:38Z</time>
      </trkpt>
      <trkpt lat="47.59229701012373" lon="14.490629006177187">
        <ele>603.60000000000002</ele>
        <time>2012-10-21T08:44:43Z</time>
      </trkpt>
      <trkpt lat="47.592312013730407" lon="14.490693965926766">
        <ele>603.20000000000005</ele>
        <time>2012-10-21T08:44:44Z</time>
      </trkpt>
      <trkpt lat="47.592327017337084" lon="14.490759009495378">
        <ele>602.60000000000002</ele>
        <time>2012-10-21T08:44:45Z</time>
      </trkpt>
      <trkpt lat="47.592342020943761" lon="14.490816006436944">
        <ele>602.20000000000005</ele>
        <time>2012-10-21T08:44:46Z</time>
      </trkpt>
      <trkpt lat="47.592358030378819" lon="14.490876020863652">
        <ele>601.79999999999995</ele>
        <time>2012-10-21T08:44:47Z</time>
      </trkpt>
      <trkpt lat="47.592421984300017" lon="14.491074001416564">
        <ele>601.79999999999995</ele>
        <time>2012-10-21T08:44:51Z</time>
      </trkpt>
      <trkpt lat="47.592560034245253" lon="14.491290003061295">
        <ele>601.79999999999995</ele>
        <time>2012-10-21T08:44:57Z</time>
      </trkpt>
      <trkpt lat="47.592677967622876" lon="14.491446996107697">
        <ele>602.20000000000005</ele>
        <time>2012-10-21T08:45:02Z</time>
      </trkpt>
      <trkpt lat="47.592696994543076" lon="14.491480020806193">
        <ele>602.79999999999995</ele>
        <time>2012-10-21T08:45:03Z</time>
      </trkpt>
      <trkpt lat="47.592719960957766" lon="14.491512039676309">
        <ele>603.20000000000005</ele>
        <time>2012-10-21T08:45:04Z</time>
      </trkpt>
      <trkpt lat="47.592738987877965" lon="14.491542968899012">
        <ele>603.60000000000002</ele>
        <time>2012-10-21T08:45:05Z</time>
      </trkpt>
      <trkpt lat="47.592758014798164" lon="14.491569958627224">
        <ele>604</ele>
        <time>2012-10-21T08:45:06Z</time>
      </trkpt>
      <trkpt lat="47.592868991196156" lon="14.491756958886981">
        <ele>604</ele>
        <time>2012-10-21T08:45:12Z</time>
      </trkpt>
      <trkpt lat="47.592903021723032" lon="14.491823008283973">
        <ele>604.39999999999998</ele>
        <time>2012-10-21T08:45:14Z</time>
      </trkpt>
      <trkpt lat="47.5929219648242" lon="14.491858966648579">
        <ele>604.79999999999995</ele>
        <time>2012-10-21T08:45:15Z</time>
      </trkpt>
      <trkpt lat="47.592940991744399" lon="14.491897020488977">
        <ele>605.20000000000005</ele>
        <time>2012-10-21T08:45:16Z</time>
      </trkpt>
      <trkpt lat="47.592952977865934" lon="14.491926021873951">
        <ele>605.60000000000002</ele>
        <time>2012-10-21T08:45:17Z</time>
      </trkpt>
      <trkpt lat="47.592967981472611" lon="14.491959968581796">
        <ele>606</ele>
        <time>2012-10-21T08:45:18Z</time>
      </trkpt>
      <trkpt lat="47.592978961765766" lon="14.49199098162353">
        <ele>606</ele>
        <time>2012-10-21T08:45:19Z</time>
      </trkpt>
      <trkpt lat="47.593075018376112" lon="14.492207989096642">
        <ele>606</ele>
        <time>2012-10-21T08:45:26Z</time>
      </trkpt>
      <trkpt lat="47.593193035572767" lon="14.492406975477934">
        <ele>606.60000000000002</ele>
        <time>2012-10-21T08:45:33Z</time>
      </trkpt>
      <trkpt lat="47.593208039179444" lon="14.492427008226514">
        <ele>607</ele>
        <time>2012-10-21T08:45:34Z</time>
      </trkpt>
      <trkpt lat="47.59322002530098" lon="14.492447040975094">
        <ele>607.39999999999998</ele>
        <time>2012-10-21T08:45:35Z</time>
      </trkpt>
      <trkpt lat="47.593238968402147" lon="14.492464978247881">
        <ele>607.79999999999995</ele>
        <time>2012-10-21T08:45:36Z</time>
      </trkpt>
      <trkpt lat="47.593262018635869" lon="14.492476964369416">
        <ele>608.20000000000005</ele>
        <time>2012-10-21T08:45:37Z</time>
      </trkpt>
      <trkpt lat="47.593334019184113" lon="14.492485010996461">
        <ele>608.20000000000005</ele>
        <time>2012-10-21T08:45:40Z</time>
      </trkpt>
      <trkpt lat="47.593449018895626" lon="14.492571009323001">
        <ele>608.60000000000002</ele>
        <time>2012-10-21T08:45:46Z</time>
      </trkpt>
      <trkpt lat="47.593452036380768" lon="14.492599004879594">
        <ele>609</ele>
        <time>2012-10-21T08:45:47Z</time>
      </trkpt>
      <trkpt lat="47.593455975875258" lon="14.492629012092948">
        <ele>609.39999999999998</ele>
        <time>2012-10-21T08:45:48Z</time>
      </trkpt>
      <trkpt lat="47.593464022502303" lon="14.492659019306302">
        <ele>609.79999999999995</ele>
        <time>2012-10-21T08:45:49Z</time>
      </trkpt>
      <trkpt lat="47.593471985310316" lon="14.492685003206134">
        <ele>610.20000000000005</ele>
        <time>2012-10-21T08:45:50Z</time>
      </trkpt>
      <trkpt lat="47.593494029715657" lon="14.492724984884262">
        <ele>610.20000000000005</ele>
        <time>2012-10-21T08:45:52Z</time>
      </trkpt>
      <trkpt lat="47.593582039698958" lon="14.492725990712643">
        <ele>610.20000000000005</ele>
        <time>2012-10-21T08:45:57Z</time>
      </trkpt>
      <trkpt lat="47.593624033033848" lon="14.492705035954714">
        <ele>610.20000000000005</ele>
        <time>2012-10-21T08:46:00Z</time>
      </trkpt>
      <trkpt lat="47.593636019155383" lon="14.492694977670908">
        <ele>610.60000000000002</ele>
        <time>2012-10-21T08:46:01Z</time>
      </trkpt>
      <trkpt lat="47.59365102276206" lon="14.492687014862895">
        <ele>611.20000000000005</ele>
        <time>2012-10-21T08:46:02Z</time>
      </trkpt>
      <trkpt lat="47.593662003055215" lon="14.49267896823585">
        <ele>612</ele>
        <time>2012-10-21T08:46:03Z</time>
      </trkpt>
      <trkpt lat="47.593669965863228" lon="14.492667987942696">
        <ele>612.39999999999998</ele>
        <time>2012-10-21T08:46:04Z</time>
      </trkpt>
      <trkpt lat="47.593792006373405" lon="14.492644015699625">
        <ele>612.79999999999995</ele>
        <time>2012-10-21T08:46:12Z</time>
      </trkpt>
      <trkpt lat="47.593807009980083" lon="14.4926349632442">
        <ele>613.39999999999998</ele>
        <time>2012-10-21T08:46:13Z</time>
      </trkpt>
      <trkpt lat="47.59382201358676" lon="14.492630017921329">
        <ele>613.79999999999995</ele>
        <time>2012-10-21T08:46:14Z</time>
      </trkpt>
      <trkpt lat="47.593838023021817" lon="14.492630017921329">
        <ele>614.20000000000005</ele>
        <time>2012-10-21T08:46:15Z</time>
      </trkpt>
      <trkpt lat="47.593864006921649" lon="14.492639992386103">
        <ele>614.60000000000002</ele>
        <time>2012-10-21T08:46:16Z</time>
      </trkpt>
      <trkpt lat="47.593902982771397" lon="14.492662036791444">
        <ele>614.60000000000002</ele>
        <time>2012-10-21T08:46:18Z</time>
      </trkpt>
      <trkpt lat="47.593922009691596" lon="14.492690032348037">
        <ele>614.60000000000002</ele>
        <time>2012-10-21T08:46:19Z</time>
      </trkpt>
      <trkpt lat="47.593956040218472" lon="14.492763038724661">
        <ele>614.60000000000002</ele>
        <time>2012-10-21T08:46:22Z</time>
      </trkpt>
      <trkpt lat="47.593983029946685" lon="14.492844007909298">
        <ele>614.60000000000002</ele>
        <time>2012-10-21T08:46:25Z</time>
      </trkpt>
      <trkpt lat="47.594025023281574" lon="14.493082975968719">
        <ele>614.60000000000002</ele>
        <time>2012-10-21T08:46:32Z</time>
      </trkpt>
      <trkpt lat="47.594067016616464" lon="14.493356980383396">
        <ele>614.60000000000002</ele>
        <time>2012-10-21T08:46:39Z</time>
      </trkpt>
      <trkpt lat="47.594082020223141" lon="14.493554038926959">
        <ele>615</ele>
        <time>2012-10-21T08:46:44Z</time>
      </trkpt>
      <trkpt lat="47.594082020223141" lon="14.493595026433468">
        <ele>615.39999999999998</ele>
        <time>2012-10-21T08:46:45Z</time>
      </trkpt>
      <trkpt lat="47.594082020223141" lon="14.493634002283216">
        <ele>615.79999999999995</ele>
        <time>2012-10-21T08:46:46Z</time>
      </trkpt>
      <trkpt lat="47.594085959717631" lon="14.493669960647821">
        <ele>616.20000000000005</ele>
        <time>2012-10-21T08:46:47Z</time>
      </trkpt>
      <trkpt lat="47.594089983031154" lon="14.493710026144981">
        <ele>616.60000000000002</ele>
        <time>2012-10-21T08:46:48Z</time>
      </trkpt>
      <trkpt lat="47.594089983031154" lon="14.493749001994729">
        <ele>616.60000000000002</ele>
        <time>2012-10-21T08:46:49Z</time>
      </trkpt>
      <trkpt lat="47.594109009951353" lon="14.494145968928933">
        <ele>616.60000000000002</ele>
        <time>2012-10-21T08:46:59Z</time>
      </trkpt>
      <trkpt lat="47.59412401355803" lon="14.494452998042107">
        <ele>616.60000000000002</ele>
        <time>2012-10-21T08:47:07Z</time>
      </trkpt>
      <trkpt lat="47.594134993851185" lon="14.494780981913209">
        <ele>616.60000000000002</ele>
        <time>2012-10-21T08:47:16Z</time>
      </trkpt>
      <trkpt lat="47.594139017164707" lon="14.494908973574638">
        <ele>617</ele>
        <time>2012-10-21T08:47:21Z</time>
      </trkpt>
      <trkpt lat="47.59414697997272" lon="14.494943004101515">
        <ele>617.39999999999998</ele>
        <time>2012-10-21T08:47:22Z</time>
      </trkpt>
      <trkpt lat="47.59414697997272" lon="14.494979968294501">
        <ele>617.79999999999995</ele>
        <time>2012-10-21T08:47:23Z</time>
      </trkpt>
      <trkpt lat="47.594151003286242" lon="14.495021039620042">
        <ele>618.20000000000005</ele>
        <time>2012-10-21T08:47:24Z</time>
      </trkpt>
      <trkpt lat="47.594151003286242" lon="14.495056997984648">
        <ele>618.60000000000002</ele>
        <time>2012-10-21T08:47:25Z</time>
      </trkpt>
      <trkpt lat="47.594130970537663" lon="14.495256990194321">
        <ele>618.60000000000002</ele>
        <time>2012-10-21T08:47:30Z</time>
      </trkpt>
      <trkpt lat="47.594128036871552" lon="14.495522025972605">
        <ele>618.60000000000002</ele>
        <time>2012-10-21T08:47:35Z</time>
      </trkpt>
      <trkpt lat="47.594130970537663" lon="14.495591009035707">
        <ele>618.60000000000002</ele>
        <time>2012-10-21T08:47:36Z</time>
      </trkpt>
      <trkpt lat="47.59414304047823" lon="14.495724029839039">
        <ele>618.60000000000002</ele>
        <time>2012-10-21T08:47:38Z</time>
      </trkpt>
      <trkpt lat="47.594170030206442" lon="14.495984958484769">
        <ele>618.60000000000002</ele>
        <time>2012-10-21T08:47:42Z</time>
      </trkpt>
      <trkpt lat="47.594208000227809" lon="14.496469013392925">
        <ele>618.60000000000002</ele>
        <time>2012-10-21T08:47:50Z</time>
      </trkpt>
      <trkpt lat="47.594230966642499" lon="14.496833961457014">
        <ele>618.60000000000002</ele>
        <time>2012-10-21T08:47:57Z</time>
      </trkpt>
      <trkpt lat="47.594264997169375" lon="14.497179966419935">
        <ele>618.60000000000002</ele>
        <time>2012-10-21T08:48:04Z</time>
      </trkpt>
      <trkpt lat="47.594326017424464" lon="14.497357998043299">
        <ele>618.60000000000002</ele>
        <time>2012-10-21T08:48:08Z</time>
      </trkpt>
      <trkpt lat="47.594436993822455" lon="14.49742304161191">
        <ele>618.60000000000002</ele>
        <time>2012-10-21T08:48:13Z</time>
      </trkpt>
      <trkpt lat="47.594482004642487" lon="14.497399991378188">
        <ele>618.60000000000002</ele>
        <time>2012-10-21T08:48:15Z</time>
      </trkpt>
      <trkpt lat="47.594498014077544" lon="14.497332014143467">
        <ele>618.60000000000002</ele>
        <time>2012-10-21T08:48:17Z</time>
      </trkpt>
      <trkpt lat="47.594498014077544" lon="14.497250961139798">
        <ele>618.60000000000002</ele>
        <time>2012-10-21T08:48:19Z</time>
      </trkpt>
      <trkpt lat="47.594513017684221" lon="14.497077036648989">
        <ele>618.60000000000002</ele>
        <time>2012-10-21T08:48:23Z</time>
      </trkpt>
      <trkpt lat="47.594531960785389" lon="14.497054992243648">
        <ele>618.60000000000002</ele>
        <time>2012-10-21T08:48:24Z</time>
      </trkpt>
      <trkpt lat="47.594601027667522" lon="14.49705901555717">
        <ele>618.60000000000002</ele>
        <time>2012-10-21T08:48:26Z</time>
      </trkpt>
      <trkpt lat="47.594658024609089" lon="14.497067984193563">
        <ele>618.60000000000002</ele>
        <time>2012-10-21T08:48:28Z</time>
      </trkpt>
      <trkpt lat="47.594806971028447" lon="14.497111989185214">
        <ele>618.60000000000002</ele>
        <time>2012-10-21T08:48:34Z</time>
      </trkpt>
      <trkpt lat="47.595001012086868" lon="14.497247021645308">
        <ele>618.60000000000002</ele>
        <time>2012-10-21T08:48:42Z</time>
      </trkpt>
      <trkpt lat="47.595084998756647" lon="14.497341988608241">
        <ele>619</ele>
        <time>2012-10-21T08:48:46Z</time>
      </trkpt>
      <trkpt lat="47.595111988484859" lon="14.497363027185202">
        <ele>619.39999999999998</ele>
        <time>2012-10-21T08:48:47Z</time>
      </trkpt>
      <trkpt lat="47.595138978213072" lon="14.497391022741795">
        <ele>619.79999999999995</ele>
        <time>2012-10-21T08:48:48Z</time>
      </trkpt>
      <trkpt lat="47.595164962112904" lon="14.497418012470007">
        <ele>620.20000000000005</ele>
        <time>2012-10-21T08:48:49Z</time>
      </trkpt>
      <trkpt lat="47.595195975154638" lon="14.497441984713078">
        <ele>620.60000000000002</ele>
        <time>2012-10-21T08:48:50Z</time>
      </trkpt>
      <trkpt lat="47.595351962372661" lon="14.497581040486693">
        <ele>620.60000000000002</ele>
        <time>2012-10-21T08:48:56Z</time>
      </trkpt>
      <trkpt lat="47.595592020079494" lon="14.497708026319742">
        <ele>620.60000000000002</ele>
        <time>2012-10-21T08:49:04Z</time>
      </trkpt>
      <trkpt lat="47.595779020339251" lon="14.497734010219574">
        <ele>621</ele>
        <time>2012-10-21T08:49:10Z</time>
      </trkpt>
      <trkpt lat="47.595810033380985" lon="14.497741973027587">
        <ele>621.39999999999998</ele>
        <time>2012-10-21T08:49:11Z</time>
      </trkpt>
      <trkpt lat="47.595837023109198" lon="14.497745996341109">
        <ele>621.79999999999995</ele>
        <time>2012-10-21T08:49:12Z</time>
      </trkpt>
      <trkpt lat="47.595863007009029" lon="14.497755970805883">
        <ele>622.20000000000005</ele>
        <time>2012-10-21T08:49:13Z</time>
      </trkpt>
      <trkpt lat="47.595894020050764" lon="14.497757982462645">
        <ele>622.60000000000002</ele>
        <time>2012-10-21T08:49:14Z</time>
      </trkpt>
      <trkpt lat="47.596035003662109" lon="14.497788995504379">
        <ele>622.60000000000002</ele>
        <time>2012-10-21T08:49:19Z</time>
      </trkpt>
      <trkpt lat="47.596244970336556" lon="14.497858984395862">
        <ele>622.60000000000002</ele>
        <time>2012-10-21T08:49:26Z</time>
      </trkpt>
      <trkpt lat="47.596301967278123" lon="14.497868036851287">
        <ele>623.20000000000005</ele>
        <time>2012-10-21T08:49:28Z</time>
      </trkpt>
      <trkpt lat="47.596329040825367" lon="14.497870970517397">
        <ele>623.60000000000002</ele>
        <time>2012-10-21T08:49:29Z</time>
      </trkpt>
      <trkpt lat="47.596358964219689" lon="14.497870970517397">
        <ele>624</ele>
        <time>2012-10-21T08:49:30Z</time>
      </trkpt>
      <trkpt lat="47.596386037766933" lon="14.497878011316061">
        <ele>624.39999999999998</ele>
        <time>2012-10-21T08:49:31Z</time>
      </trkpt>
      <trkpt lat="47.596413027495146" lon="14.497885974124074">
        <ele>624.79999999999995</ele>
        <time>2012-10-21T08:49:32Z</time>
      </trkpt>
      <trkpt lat="47.596645038574934" lon="14.49794003739953">
        <ele>624.79999999999995</ele>
        <time>2012-10-21T08:49:40Z</time>
      </trkpt>
      <trkpt lat="47.596786022186279" lon="14.497960992157459">
        <ele>625.20000000000005</ele>
        <time>2012-10-21T08:49:45Z</time>
      </trkpt>
      <trkpt lat="47.596813011914492" lon="14.497960992157459">
        <ele>626</ele>
        <time>2012-10-21T08:49:46Z</time>
      </trkpt>
      <trkpt lat="47.596840001642704" lon="14.49796300381422">
        <ele>626.39999999999998</ele>
        <time>2012-10-21T08:49:47Z</time>
      </trkpt>
      <trkpt lat="47.596866991370916" lon="14.497970966622233">
        <ele>626.79999999999995</ele>
        <time>2012-10-21T08:49:48Z</time>
      </trkpt>
      <trkpt lat="47.596980985254049" lon="14.498070040717721">
        <ele>626.79999999999995</ele>
        <time>2012-10-21T08:49:53Z</time>
      </trkpt>
      <trkpt lat="47.59704602882266" lon="14.498281013220549">
        <ele>626.79999999999995</ele>
        <time>2012-10-21T08:49:58Z</time>
      </trkpt>
      <trkpt lat="47.597136972472072" lon="14.498616037890315">
        <ele>626.79999999999995</ele>
        <time>2012-10-21T08:50:06Z</time>
      </trkpt>
      <trkpt lat="47.597263036295772" lon="14.499038988724351">
        <ele>626.79999999999995</ele>
        <time>2012-10-21T08:50:15Z</time>
      </trkpt>
      <trkpt lat="47.597308969125152" lon="14.499353980645537">
        <ele>627.20000000000005</ele>
        <time>2012-10-21T08:50:21Z</time>
      </trkpt>
      <trkpt lat="47.597312992438674" lon="14.499409971758723">
        <ele>627.79999999999995</ele>
        <time>2012-10-21T08:50:22Z</time>
      </trkpt>
      <trkpt lat="47.597308969125152" lon="14.49946696870029">
        <ele>628.20000000000005</ele>
        <time>2012-10-21T08:50:23Z</time>
      </trkpt>
      <trkpt lat="47.597301006317139" lon="14.499523965641856">
        <ele>628.60000000000002</ele>
        <time>2012-10-21T08:50:24Z</time>
      </trkpt>
      <trkpt lat="47.597297988831997" lon="14.499581968411803">
        <ele>629</ele>
        <time>2012-10-21T08:50:25Z</time>
      </trkpt>
      <trkpt lat="47.597251972183585" lon="14.499950017780066">
        <ele>629</ele>
        <time>2012-10-21T08:50:31Z</time>
      </trkpt>
      <trkpt lat="47.59722095914185" lon="14.50047598220408">
        <ele>629</ele>
        <time>2012-10-21T08:50:39Z</time>
      </trkpt>
      <trkpt lat="47.597206039354205" lon="14.501065984368324">
        <ele>629</ele>
        <time>2012-10-21T08:50:48Z</time>
      </trkpt>
      <trkpt lat="47.597202016040683" lon="14.501125998795033">
        <ele>629</ele>
        <time>2012-10-21T08:50:49Z</time>
      </trkpt>
      <trkpt lat="47.597194975242019" lon="14.501513997092843">
        <ele>629</ele>
        <time>2012-10-21T08:50:55Z</time>
      </trkpt>
      <trkpt lat="47.59719799272716" lon="14.502209024503827">
        <ele>629</ele>
        <time>2012-10-21T08:51:06Z</time>
      </trkpt>
      <trkpt lat="47.59719799272716" lon="14.502394013106823">
        <ele>629</ele>
        <time>2012-10-21T08:51:09Z</time>
      </trkpt>
      <trkpt lat="47.59719799272716" lon="14.502572966739535">
        <ele>629</ele>
        <time>2012-10-21T08:51:12Z</time>
      </trkpt>
      <trkpt lat="47.59719799272716" lon="14.503012010827661">
        <ele>629</ele>
        <time>2012-10-21T08:51:19Z</time>
      </trkpt>
      <trkpt lat="47.59726001881063" lon="14.503501011058688">
        <ele>629</ele>
        <time>2012-10-21T08:51:28Z</time>
      </trkpt>
      <trkpt lat="47.597335958853364" lon="14.503775015473366">
        <ele>629</ele>
        <time>2012-10-21T08:51:34Z</time>
      </trkpt>
      <trkpt lat="47.597350962460041" lon="14.504095958545804">
        <ele>629</ele>
        <time>2012-10-21T08:51:39Z</time>
      </trkpt>
      <trkpt lat="47.597359009087086" lon="14.504250017926097">
        <ele>629</ele>
        <time>2012-10-21T08:51:41Z</time>
      </trkpt>
      <trkpt lat="47.597354985773563" lon="14.504446992650628">
        <ele>629</ele>
        <time>2012-10-21T08:51:44Z</time>
      </trkpt>
      <trkpt lat="47.597339982166886" lon="14.504551012068987">
        <ele>629</ele>
        <time>2012-10-21T08:51:46Z</time>
      </trkpt>
      <trkpt lat="47.597286002710462" lon="14.504704987630248">
        <ele>629</ele>
        <time>2012-10-21T08:51:50Z</time>
      </trkpt>
      <trkpt lat="47.59726001881063" lon="14.504757039248943">
        <ele>628.60000000000002</ele>
        <time>2012-10-21T08:51:51Z</time>
      </trkpt>
      <trkpt lat="47.597233029082417" lon="14.504817975685">
        <ele>628.20000000000005</ele>
        <time>2012-10-21T08:51:52Z</time>
      </trkpt>
      <trkpt lat="47.597202016040683" lon="14.50488100759685">
        <ele>627.79999999999995</ele>
        <time>2012-10-21T08:51:53Z</time>
      </trkpt>
      <trkpt lat="47.597160022705793" lon="14.504935992881656">
        <ele>627.39999999999998</ele>
        <time>2012-10-21T08:51:54Z</time>
      </trkpt>
      <trkpt lat="47.597115011885762" lon="14.504992989823222">
        <ele>626.79999999999995</ele>
        <time>2012-10-21T08:51:55Z</time>
      </trkpt>
      <trkpt lat="47.597015015780926" lon="14.505088040605187">
        <ele>626.79999999999995</ele>
        <time>2012-10-21T08:51:57Z</time>
      </trkpt>
      <trkpt lat="47.59691996499896" lon="14.505177978426218">
        <ele>626.39999999999998</ele>
        <time>2012-10-21T08:51:59Z</time>
      </trkpt>
      <trkpt lat="47.59687403216958" lon="14.505218965932727">
        <ele>626</ele>
        <time>2012-10-21T08:52:00Z</time>
      </trkpt>
      <trkpt lat="47.596835978329182" lon="14.505256013944745">
        <ele>625.60000000000002</ele>
        <time>2012-10-21T08:52:01Z</time>
      </trkpt>
      <trkpt lat="47.596798008307815" lon="14.505289038643241">
        <ele>625.20000000000005</ele>
        <time>2012-10-21T08:52:02Z</time>
      </trkpt>
      <trkpt lat="47.596763977780938" lon="14.505319967865944">
        <ele>624.79999999999995</ele>
        <time>2012-10-21T08:52:03Z</time>
      </trkpt>
      <trkpt lat="47.59672500193119" lon="14.505349975079298">
        <ele>624.79999999999995</ele>
        <time>2012-10-21T08:52:04Z</time>
      </trkpt>
      <trkpt lat="47.596497014164925" lon="14.505532030016184">
        <ele>624.79999999999995</ele>
        <time>2012-10-21T08:52:09Z</time>
      </trkpt>
      <trkpt lat="47.596397018060088" lon="14.505630014464259">
        <ele>624.39999999999998</ele>
        <time>2012-10-21T08:52:11Z</time>
      </trkpt>
      <trkpt lat="47.596355024725199" lon="14.505687011405826">
        <ele>624</ele>
        <time>2012-10-21T08:52:12Z</time>
      </trkpt>
      <trkpt lat="47.596313031390309" lon="14.505753982812166">
        <ele>623.60000000000002</ele>
        <time>2012-10-21T08:52:13Z</time>
      </trkpt>
      <trkpt lat="47.596274977549911" lon="14.505829000845551">
        <ele>622.60000000000002</ele>
        <time>2012-10-21T08:52:14Z</time>
      </trkpt>
      <trkpt lat="47.596099963411689" lon="14.506237031891942">
        <ele>622.20000000000005</ele>
        <time>2012-10-21T08:52:19Z</time>
      </trkpt>
      <trkpt lat="47.596072973683476" lon="14.506329987198114">
        <ele>621.79999999999995</ele>
        <time>2012-10-21T08:52:20Z</time>
      </trkpt>
      <trkpt lat="47.596045983955264" lon="14.506425959989429">
        <ele>621.39999999999998</ele>
        <time>2012-10-21T08:52:21Z</time>
      </trkpt>
      <trkpt lat="47.596024023368955" lon="14.506524028256536">
        <ele>620.79999999999995</ele>
        <time>2012-10-21T08:52:22Z</time>
      </trkpt>
      <trkpt lat="47.596003990620375" lon="14.506625030189753">
        <ele>620.39999999999998</ele>
        <time>2012-10-21T08:52:23Z</time>
      </trkpt>
      <trkpt lat="47.595978006720543" lon="14.506829967722297">
        <ele>620.39999999999998</ele>
        <time>2012-10-21T08:52:25Z</time>
      </trkpt>
      <trkpt lat="47.595966020599008" lon="14.506917977705598">
        <ele>620</ele>
        <time>2012-10-21T08:52:26Z</time>
      </trkpt>
      <trkpt lat="47.595969960093498" lon="14.506991989910603">
        <ele>619.60000000000002</ele>
        <time>2012-10-21T08:52:27Z</time>
      </trkpt>
      <trkpt lat="47.595969960093498" lon="14.507060972973704">
        <ele>619.20000000000005</ele>
        <time>2012-10-21T08:52:28Z</time>
      </trkpt>
      <trkpt lat="47.595969960093498" lon="14.507124004885554">
        <ele>618.79999999999995</ele>
        <time>2012-10-21T08:52:29Z</time>
      </trkpt>
      <trkpt lat="47.595969960093498" lon="14.507194999605417">
        <ele>618.39999999999998</ele>
        <time>2012-10-21T08:52:30Z</time>
      </trkpt>
      <trkpt lat="47.595963003113866" lon="14.507267000153661">
        <ele>618.39999999999998</ele>
        <time>2012-10-21T08:52:31Z</time>
      </trkpt>
      <trkpt lat="47.595927966758609" lon="14.507442014291883">
        <ele>618</ele>
        <time>2012-10-21T08:52:33Z</time>
      </trkpt>
      <trkpt lat="47.595900977030396" lon="14.507536981254816">
        <ele>617.39999999999998</ele>
        <time>2012-10-21T08:52:34Z</time>
      </trkpt>
      <trkpt lat="47.595870969817042" lon="14.507627002894878">
        <ele>617</ele>
        <time>2012-10-21T08:52:35Z</time>
      </trkpt>
      <trkpt lat="47.595840040594339" lon="14.50771601870656">
        <ele>616.60000000000002</ele>
        <time>2012-10-21T08:52:36Z</time>
      </trkpt>
      <trkpt lat="47.595801986753941" lon="14.5078020170331">
        <ele>616</ele>
        <time>2012-10-21T08:52:37Z</time>
      </trkpt>
      <trkpt lat="47.595768040046096" lon="14.507883992046118">
        <ele>616</ele>
        <time>2012-10-21T08:52:38Z</time>
      </trkpt>
      <trkpt lat="47.595707019791007" lon="14.508055988699198">
        <ele>615.60000000000002</ele>
        <time>2012-10-21T08:52:40Z</time>
      </trkpt>
      <trkpt lat="47.595680030062795" lon="14.508148021996021">
        <ele>615.20000000000005</ele>
        <time>2012-10-21T08:52:41Z</time>
      </trkpt>
      <trkpt lat="47.595656979829073" lon="14.508240977302194">
        <ele>614.79999999999995</ele>
        <time>2012-10-21T08:52:42Z</time>
      </trkpt>
      <trkpt lat="47.595638036727905" lon="14.508333010599017">
        <ele>614.39999999999998</ele>
        <time>2012-10-21T08:52:43Z</time>
      </trkpt>
      <trkpt lat="47.595619009807706" lon="14.508424960076809">
        <ele>614</ele>
        <time>2012-10-21T08:52:44Z</time>
      </trkpt>
      <trkpt lat="47.595584979280829" lon="14.508873978629708">
        <ele>613.60000000000002</ele>
        <time>2012-10-21T08:52:49Z</time>
      </trkpt>
      <trkpt lat="47.595584979280829" lon="14.508965006098151">
        <ele>613.20000000000005</ele>
        <time>2012-10-21T08:52:50Z</time>
      </trkpt>
      <trkpt lat="47.595592020079494" lon="14.509057961404324">
        <ele>612.79999999999995</ele>
        <time>2012-10-21T08:52:51Z</time>
      </trkpt>
      <trkpt lat="47.595604006201029" lon="14.509154018014669">
        <ele>612.39999999999998</ele>
        <time>2012-10-21T08:52:52Z</time>
      </trkpt>
      <trkpt lat="47.595614986494184" lon="14.509248984977603">
        <ele>612</ele>
        <time>2012-10-21T08:52:53Z</time>
      </trkpt>
      <trkpt lat="47.595641976222396" lon="14.509447971358895">
        <ele>612</ele>
        <time>2012-10-21T08:52:55Z</time>
      </trkpt>
      <trkpt lat="47.595665026456118" lon="14.50965098105371">
        <ele>611.60000000000002</ele>
        <time>2012-10-21T08:52:57Z</time>
      </trkpt>
      <trkpt lat="47.595672989264131" lon="14.509747959673405">
        <ele>611.20000000000005</ele>
        <time>2012-10-21T08:52:58Z</time>
      </trkpt>
      <trkpt lat="47.595680030062795" lon="14.509846027940512">
        <ele>610.79999999999995</ele>
        <time>2012-10-21T08:52:59Z</time>
      </trkpt>
      <trkpt lat="47.59569201618433" lon="14.509938983246684">
        <ele>610.39999999999998</ele>
        <time>2012-10-21T08:53:00Z</time>
      </trkpt>
      <trkpt lat="47.595695033669472" lon="14.510035961866379">
        <ele>610</ele>
        <time>2012-10-21T08:53:01Z</time>
      </trkpt>
      <trkpt lat="47.595707019791007" lon="14.510218016803265">
        <ele>610</ele>
        <time>2012-10-21T08:53:03Z</time>
      </trkpt>
      <trkpt lat="47.595756975933909" lon="14.510845988988876">
        <ele>610</ele>
        <time>2012-10-21T08:53:10Z</time>
      </trkpt>
      <trkpt lat="47.59582101367414" lon="14.511393997818232">
        <ele>610</ele>
        <time>2012-10-21T08:53:17Z</time>
      </trkpt>
      <trkpt lat="47.595885973423719" lon="14.511693986132741">
        <ele>609.60000000000002</ele>
        <time>2012-10-21T08:53:22Z</time>
      </trkpt>
      <trkpt lat="47.595900977030396" lon="14.511747965589166">
        <ele>609.20000000000005</ele>
        <time>2012-10-21T08:53:23Z</time>
      </trkpt>
      <trkpt lat="47.595916986465454" lon="14.511801023036242">
        <ele>608.60000000000002</ele>
        <time>2012-10-21T08:53:24Z</time>
      </trkpt>
      <trkpt lat="47.595924027264118" lon="14.511839998885989">
        <ele>608.20000000000005</ele>
        <time>2012-10-21T08:53:25Z</time>
      </trkpt>
      <trkpt lat="47.595936013385653" lon="14.511879980564117">
        <ele>607.79999999999995</ele>
        <time>2012-10-21T08:53:26Z</time>
      </trkpt>
      <trkpt lat="47.595951016992331" lon="14.511943012475967">
        <ele>607.79999999999995</ele>
        <time>2012-10-21T08:53:28Z</time>
      </trkpt>
      <trkpt lat="47.595951016992331" lon="14.5119499694556">
        <ele>607.79999999999995</ele>
        <time>2012-10-21T08:53:32Z</time>
      </trkpt>
      <trkpt lat="47.595958979800344" lon="14.511954998597503">
        <ele>607.79999999999995</ele>
        <time>2012-10-21T08:53:34Z</time>
      </trkpt>
      <trkpt lat="47.595973983407021" lon="14.511958016082644">
        <ele>607.79999999999995</ele>
        <time>2012-10-21T08:53:37Z</time>
      </trkpt>
      <trkpt lat="47.595984963700175" lon="14.511986011639237">
        <ele>607.79999999999995</ele>
        <time>2012-10-21T08:53:42Z</time>
      </trkpt>
      <trkpt lat="47.595978006720543" lon="14.512048959732056">
        <ele>607.79999999999995</ele>
        <time>2012-10-21T08:53:48Z</time>
      </trkpt>
      <trkpt lat="47.595973983407021" lon="14.512215005233884">
        <ele>607.79999999999995</ele>
        <time>2012-10-21T08:53:52Z</time>
      </trkpt>
      <trkpt lat="47.595973983407021" lon="14.5123799610883">
        <ele>608.39999999999998</ele>
        <time>2012-10-21T08:53:56Z</time>
      </trkpt>
      <trkpt lat="47.595973983407021" lon="14.512414997443557">
        <ele>608.79999999999995</ele>
        <time>2012-10-21T08:53:57Z</time>
      </trkpt>
      <trkpt lat="47.595973983407021" lon="14.512451039627194">
        <ele>609.20000000000005</ele>
        <time>2012-10-21T08:53:58Z</time>
      </trkpt>
      <trkpt lat="47.595973983407021" lon="14.5124869979918">
        <ele>609.60000000000002</ele>
        <time>2012-10-21T08:53:59Z</time>
      </trkpt>
      <trkpt lat="47.595973983407021" lon="14.512525973841548">
        <ele>610</ele>
        <time>2012-10-21T08:54:00Z</time>
      </trkpt>
      <trkpt lat="47.595963003113866" lon="14.512639967724681">
        <ele>610.39999999999998</ele>
        <time>2012-10-21T08:54:03Z</time>
      </trkpt>
      <trkpt lat="47.595955040305853" lon="14.512681039050221">
        <ele>610.79999999999995</ele>
        <time>2012-10-21T08:54:04Z</time>
      </trkpt>
      <trkpt lat="47.595955040305853" lon="14.51272102072835">
        <ele>611.39999999999998</ele>
        <time>2012-10-21T08:54:05Z</time>
      </trkpt>
      <trkpt lat="47.595955040305853" lon="14.512771982699633">
        <ele>611.79999999999995</ele>
        <time>2012-10-21T08:54:06Z</time>
      </trkpt>
      <trkpt lat="47.595951016992331" lon="14.512824034318328">
        <ele>612.20000000000005</ele>
        <time>2012-10-21T08:54:07Z</time>
      </trkpt>
      <trkpt lat="47.595940036699176" lon="14.513007011264563">
        <ele>612.20000000000005</ele>
        <time>2012-10-21T08:54:10Z</time>
      </trkpt>
      <trkpt lat="47.595940036699176" lon="14.513078005984426">
        <ele>612.20000000000005</ele>
        <time>2012-10-21T08:54:11Z</time>
      </trkpt>
      <trkpt lat="47.595916986465454" lon="14.513332983478904">
        <ele>612.20000000000005</ele>
        <time>2012-10-21T08:54:15Z</time>
      </trkpt>
      <trkpt lat="47.595924027264118" lon="14.513650992885232">
        <ele>612.20000000000005</ele>
        <time>2012-10-21T08:54:20Z</time>
      </trkpt>
      <trkpt lat="47.595931990072131" lon="14.51371000148356">
        <ele>612.20000000000005</ele>
        <time>2012-10-21T08:54:21Z</time>
      </trkpt>
      <trkpt lat="47.595982030034065" lon="14.514057012274861">
        <ele>612.20000000000005</ele>
        <time>2012-10-21T08:54:27Z</time>
      </trkpt>
      <trkpt lat="47.595973983407021" lon="14.514448028057814">
        <ele>612.20000000000005</ele>
        <time>2012-10-21T08:54:34Z</time>
      </trkpt>
      <trkpt lat="47.595905000343919" lon="14.514786992222071">
        <ele>612.20000000000005</ele>
        <time>2012-10-21T08:54:40Z</time>
      </trkpt>
      <trkpt lat="47.595879016444087" lon="14.514893023297191">
        <ele>612.20000000000005</ele>
        <time>2012-10-21T08:54:42Z</time>
      </trkpt>
      <trkpt lat="47.595832999795675" lon="14.515055967494845">
        <ele>612.20000000000005</ele>
        <time>2012-10-21T08:54:45Z</time>
      </trkpt>
      <trkpt lat="47.595806010067463" lon="14.515183959156275">
        <ele>612.60000000000002</ele>
        <time>2012-10-21T08:54:49Z</time>
      </trkpt>
      <trkpt lat="47.595810033380985" lon="14.515211032703519">
        <ele>613</ele>
        <time>2012-10-21T08:54:50Z</time>
      </trkpt>
      <trkpt lat="47.595817996188998" lon="14.515254031866789">
        <ele>613.39999999999998</ele>
        <time>2012-10-21T08:54:51Z</time>
      </trkpt>
      <trkpt lat="47.595828976482153" lon="14.515294013544917">
        <ele>613.79999999999995</ele>
        <time>2012-10-21T08:54:52Z</time>
      </trkpt>
      <trkpt lat="47.595837023109198" lon="14.515326032415032">
        <ele>614.20000000000005</ele>
        <time>2012-10-21T08:54:53Z</time>
      </trkpt>
      <trkpt lat="47.595837023109198" lon="14.515463998541236">
        <ele>614.20000000000005</ele>
        <time>2012-10-21T08:54:58Z</time>
      </trkpt>
      <trkpt lat="47.595817996188998" lon="14.515664996579289">
        <ele>614.60000000000002</ele>
        <time>2012-10-21T08:55:04Z</time>
      </trkpt>
      <trkpt lat="47.595810033380985" lon="14.515702966600657">
        <ele>615</ele>
        <time>2012-10-21T08:55:05Z</time>
      </trkpt>
      <trkpt lat="47.595810033380985" lon="14.515739008784294">
        <ele>615.39999999999998</ele>
        <time>2012-10-21T08:55:06Z</time>
      </trkpt>
      <trkpt lat="47.595813972875476" lon="14.51577203348279">
        <ele>615.79999999999995</ele>
        <time>2012-10-21T08:55:07Z</time>
      </trkpt>
      <trkpt lat="47.595810033380985" lon="14.515805980190635">
        <ele>616.20000000000005</ele>
        <time>2012-10-21T08:55:08Z</time>
      </trkpt>
      <trkpt lat="47.595813972875476" lon="14.515926009044051">
        <ele>616.20000000000005</ele>
        <time>2012-10-21T08:55:12Z</time>
      </trkpt>
      <trkpt lat="47.59584398008883" lon="14.516134969890118">
        <ele>616.20000000000005</ele>
        <time>2012-10-21T08:55:19Z</time>
      </trkpt>
      <trkpt lat="47.595852026715875" lon="14.516165982931852">
        <ele>616.60000000000002</ele>
        <time>2012-10-21T08:55:20Z</time>
      </trkpt>
      <trkpt lat="47.595859989523888" lon="14.516198001801968">
        <ele>617</ele>
        <time>2012-10-21T08:55:21Z</time>
      </trkpt>
      <trkpt lat="47.595867030322552" lon="14.516229014843702">
        <ele>617.60000000000002</ele>
        <time>2012-10-21T08:55:22Z</time>
      </trkpt>
      <trkpt lat="47.595870969817042" lon="14.516261033713818">
        <ele>618</ele>
        <time>2012-10-21T08:55:23Z</time>
      </trkpt>
      <trkpt lat="47.595870969817042" lon="14.516292968764901">
        <ele>618.39999999999998</ele>
        <time>2012-10-21T08:55:24Z</time>
      </trkpt>
      <trkpt lat="47.595874993130565" lon="14.516350971534848">
        <ele>618.39999999999998</ele>
        <time>2012-10-21T08:55:26Z</time>
      </trkpt>
      <trkpt lat="47.595889996737242" lon="14.516468988731503">
        <ele>618.79999999999995</ele>
        <time>2012-10-21T08:55:31Z</time>
      </trkpt>
      <trkpt lat="47.595894020050764" lon="14.516495978459716">
        <ele>619.60000000000002</ele>
        <time>2012-10-21T08:55:32Z</time>
      </trkpt>
      <trkpt lat="47.595894020050764" lon="14.516521962359548">
        <ele>620</ele>
        <time>2012-10-21T08:55:33Z</time>
      </trkpt>
      <trkpt lat="47.595900977030396" lon="14.516552975401282">
        <ele>620.39999999999998</ele>
        <time>2012-10-21T08:55:34Z</time>
      </trkpt>
      <trkpt lat="47.595924027264118" lon="14.516702005639672">
        <ele>620.39999999999998</ele>
        <time>2012-10-21T08:55:40Z</time>
      </trkpt>
      <trkpt lat="47.595936013385653" lon="14.516770988702774">
        <ele>620.79999999999995</ele>
        <time>2012-10-21T08:55:43Z</time>
      </trkpt>
      <trkpt lat="47.595940036699176" lon="14.516796972602606">
        <ele>621.20000000000005</ele>
        <time>2012-10-21T08:55:44Z</time>
      </trkpt>
      <trkpt lat="47.595940036699176" lon="14.516819017007947">
        <ele>621.60000000000002</ele>
        <time>2012-10-21T08:55:45Z</time>
      </trkpt>
      <trkpt lat="47.595946993678808" lon="14.516845000907779">
        <ele>622</ele>
        <time>2012-10-21T08:55:46Z</time>
      </trkpt>
      <trkpt lat="47.595951016992331" lon="14.516867967322469">
        <ele>622.39999999999998</ele>
        <time>2012-10-21T08:55:47Z</time>
      </trkpt>
      <trkpt lat="47.595982030034065" lon="14.517071982845664">
        <ele>622.39999999999998</ele>
        <time>2012-10-21T08:55:55Z</time>
      </trkpt>
      <trkpt lat="47.595984963700175" lon="14.517104001715779">
        <ele>622.79999999999995</ele>
        <time>2012-10-21T08:55:56Z</time>
      </trkpt>
      <trkpt lat="47.595984963700175" lon="14.517139038071036">
        <ele>623.60000000000002</ele>
        <time>2012-10-21T08:55:57Z</time>
      </trkpt>
      <trkpt lat="47.595988987013698" lon="14.51717097312212">
        <ele>624</ele>
        <time>2012-10-21T08:55:58Z</time>
      </trkpt>
      <trkpt lat="47.59599301032722" lon="14.517197962850332">
        <ele>624.60000000000002</ele>
        <time>2012-10-21T08:55:59Z</time>
      </trkpt>
      <trkpt lat="47.595984963700175" lon="14.51729997061193">
        <ele>624.60000000000002</ele>
        <time>2012-10-21T08:56:03Z</time>
      </trkpt>
      <trkpt lat="47.595958979800344" lon="14.517476996406913">
        <ele>624.60000000000002</ele>
        <time>2012-10-21T08:56:10Z</time>
      </trkpt>
      <trkpt lat="47.595931990072131" lon="14.517657039687037">
        <ele>625</ele>
        <time>2012-10-21T08:56:16Z</time>
      </trkpt>
      <trkpt lat="47.595924027264118" lon="14.51768696308136">
        <ele>625.39999999999998</ele>
        <time>2012-10-21T08:56:17Z</time>
      </trkpt>
      <trkpt lat="47.595921009778976" lon="14.517716970294714">
        <ele>625.79999999999995</ele>
        <time>2012-10-21T08:56:18Z</time>
      </trkpt>
      <trkpt lat="47.595912963151932" lon="14.517747983336449">
        <ele>626.20000000000005</ele>
        <time>2012-10-21T08:56:19Z</time>
      </trkpt>
      <trkpt lat="47.595905000343919" lon="14.517785031348467">
        <ele>626.60000000000002</ele>
        <time>2012-10-21T08:56:20Z</time>
      </trkpt>
      <trkpt lat="47.595859989523888" lon="14.517918974161148">
        <ele>626.60000000000002</ele>
        <time>2012-10-21T08:56:24Z</time>
      </trkpt>
      <trkpt lat="47.595791006460786" lon="14.518084013834596">
        <ele>627</ele>
        <time>2012-10-21T08:56:30Z</time>
      </trkpt>
      <trkpt lat="47.595782959833741" lon="14.51811502687633">
        <ele>627.39999999999998</ele>
        <time>2012-10-21T08:56:31Z</time>
      </trkpt>
      <trkpt lat="47.595771979540586" lon="14.518145034089684">
        <ele>627.79999999999995</ele>
        <time>2012-10-21T08:56:32Z</time>
      </trkpt>
      <trkpt lat="47.595759993419051" lon="14.518172023817897">
        <ele>628.20000000000005</ele>
        <time>2012-10-21T08:56:33Z</time>
      </trkpt>
      <trkpt lat="47.595744989812374" lon="14.518198007717729">
        <ele>628.60000000000002</ele>
        <time>2012-10-21T08:56:34Z</time>
      </trkpt>
      <trkpt lat="47.595676006749272" lon="14.518325999379158">
        <ele>628.60000000000002</ele>
        <time>2012-10-21T08:56:39Z</time>
      </trkpt>
      <trkpt lat="47.595581039786339" lon="14.518517022952437">
        <ele>628.60000000000002</ele>
        <time>2012-10-21T08:56:46Z</time>
      </trkpt>
      <trkpt lat="47.595412982627749" lon="14.518780969083309">
        <ele>628.60000000000002</ele>
        <time>2012-10-21T08:56:54Z</time>
      </trkpt>
      <trkpt lat="47.595230005681515" lon="14.518962018191814">
        <ele>628.60000000000002</ele>
        <time>2012-10-21T08:57:00Z</time>
      </trkpt>
      <trkpt lat="47.595016015693545" lon="14.519176008179784">
        <ele>628.60000000000002</ele>
        <time>2012-10-21T08:57:07Z</time>
      </trkpt>
      <trkpt lat="47.594841001555324" lon="14.519432997331023">
        <ele>628.60000000000002</ele>
        <time>2012-10-21T08:57:12Z</time>
      </trkpt>
      <trkpt lat="47.594704041257501" lon="14.519688980653882">
        <ele>628.20000000000005</ele>
        <time>2012-10-21T08:57:16Z</time>
      </trkpt>
      <trkpt lat="47.594669004902244" lon="14.519753018394113">
        <ele>627.79999999999995</ele>
        <time>2012-10-21T08:57:17Z</time>
      </trkpt>
      <trkpt lat="47.594634974375367" lon="14.519815966486931">
        <ele>627.39999999999998</ele>
        <time>2012-10-21T08:57:18Z</time>
      </trkpt>
      <trkpt lat="47.594603961333632" lon="14.51987698674202">
        <ele>626.79999999999995</ele>
        <time>2012-10-21T08:57:19Z</time>
      </trkpt>
      <trkpt lat="47.594570014625788" lon="14.519932977855206">
        <ele>626.39999999999998</ele>
        <time>2012-10-21T08:57:20Z</time>
      </trkpt>
      <trkpt lat="47.594508994370699" lon="14.520058035850525">
        <ele>626</ele>
        <time>2012-10-21T08:57:22Z</time>
      </trkpt>
      <trkpt lat="47.594482004642487" lon="14.52013598755002">
        <ele>625.60000000000002</ele>
        <time>2012-10-21T08:57:23Z</time>
      </trkpt>
      <trkpt lat="47.594462977722287" lon="14.520216034725308">
        <ele>625.20000000000005</ele>
        <time>2012-10-21T08:57:24Z</time>
      </trkpt>
      <trkpt lat="47.594444034621119" lon="14.520302033051848">
        <ele>624.79999999999995</ele>
        <time>2012-10-21T08:57:25Z</time>
      </trkpt>
      <trkpt lat="47.59442500770092" lon="14.520394988358021">
        <ele>624.20000000000005</ele>
        <time>2012-10-21T08:57:26Z</time>
      </trkpt>
      <trkpt lat="47.594383014366031" lon="14.52069397084415">
        <ele>623.79999999999995</ele>
        <time>2012-10-21T08:57:29Z</time>
      </trkpt>
      <trkpt lat="47.594372034072876" lon="14.520790027454495">
        <ele>623.39999999999998</ele>
        <time>2012-10-21T08:57:30Z</time>
      </trkpt>
      <trkpt lat="47.594359964132309" lon="14.520881976932287">
        <ele>622.79999999999995</ele>
        <time>2012-10-21T08:57:31Z</time>
      </trkpt>
      <trkpt lat="47.594353007152677" lon="14.520960012450814">
        <ele>622.39999999999998</ele>
        <time>2012-10-21T08:57:32Z</time>
      </trkpt>
      <trkpt lat="47.594341021031141" lon="14.521033018827438">
        <ele>622</ele>
        <time>2012-10-21T08:57:33Z</time>
      </trkpt>
      <trkpt lat="47.594326017424464" lon="14.521096972748637">
        <ele>622</ele>
        <time>2012-10-21T08:57:34Z</time>
      </trkpt>
      <trkpt lat="47.594287963584065" lon="14.52127299271524">
        <ele>621.39999999999998</ele>
        <time>2012-10-21T08:57:37Z</time>
      </trkpt>
      <trkpt lat="47.59427597746253" lon="14.521338036283851">
        <ele>621</ele>
        <time>2012-10-21T08:57:38Z</time>
      </trkpt>
      <trkpt lat="47.594257034361362" lon="14.521409031003714">
        <ele>620.60000000000002</ele>
        <time>2012-10-21T08:57:39Z</time>
      </trkpt>
      <trkpt lat="47.594242030754685" lon="14.52148798853159">
        <ele>620.20000000000005</ele>
        <time>2012-10-21T08:57:40Z</time>
      </trkpt>
      <trkpt lat="47.594223003834486" lon="14.521562000736594">
        <ele>619.79999999999995</ele>
        <time>2012-10-21T08:57:41Z</time>
      </trkpt>
      <trkpt lat="47.594203976914287" lon="14.52163802459836">
        <ele>619.20000000000005</ele>
        <time>2012-10-21T08:57:42Z</time>
      </trkpt>
      <trkpt lat="47.594192996621132" lon="14.521714970469475">
        <ele>618.79999999999995</ele>
        <time>2012-10-21T08:57:43Z</time>
      </trkpt>
      <trkpt lat="47.594176987186074" lon="14.521795017644763">
        <ele>618.39999999999998</ele>
        <time>2012-10-21T08:57:44Z</time>
      </trkpt>
      <trkpt lat="47.594161983579397" lon="14.521880010142922">
        <ele>617.79999999999995</ele>
        <time>2012-10-21T08:57:45Z</time>
      </trkpt>
      <trkpt lat="47.594151003286242" lon="14.521966008469462">
        <ele>617.20000000000005</ele>
        <time>2012-10-21T08:57:46Z</time>
      </trkpt>
      <trkpt lat="47.594139017164707" lon="14.522067010402679">
        <ele>616.60000000000002</ele>
        <time>2012-10-21T08:57:47Z</time>
      </trkpt>
      <trkpt lat="47.594134993851185" lon="14.522171029821038">
        <ele>615.79999999999995</ele>
        <time>2012-10-21T08:57:48Z</time>
      </trkpt>
      <trkpt lat="47.594134993851185" lon="14.52228301204741">
        <ele>615.20000000000005</ele>
        <time>2012-10-21T08:57:49Z</time>
      </trkpt>
      <trkpt lat="47.594134993851185" lon="14.522402035072446">
        <ele>614.39999999999998</ele>
        <time>2012-10-21T08:57:50Z</time>
      </trkpt>
      <trkpt lat="47.594139017164707" lon="14.522526003420353">
        <ele>613.79999999999995</ele>
        <time>2012-10-21T08:57:51Z</time>
      </trkpt>
      <trkpt lat="47.594154020771384" lon="14.52264703810215">
        <ele>613</ele>
        <time>2012-10-21T08:57:52Z</time>
      </trkpt>
      <trkpt lat="47.59416600689292" lon="14.522762037813663">
        <ele>612.39999999999998</ele>
        <time>2012-10-21T08:57:53Z</time>
      </trkpt>
      <trkpt lat="47.594172963872552" lon="14.522877959534526">
        <ele>611.60000000000002</ele>
        <time>2012-10-21T08:57:54Z</time>
      </trkpt>
      <trkpt lat="47.594185033813119" lon="14.522994970902801">
        <ele>611</ele>
        <time>2012-10-21T08:57:55Z</time>
      </trkpt>
      <trkpt lat="47.59418897330761" lon="14.523106031119823">
        <ele>610.20000000000005</ele>
        <time>2012-10-21T08:57:56Z</time>
      </trkpt>
      <trkpt lat="47.594185033813119" lon="14.523212984204292">
        <ele>610.20000000000005</ele>
        <time>2012-10-21T08:57:57Z</time>
      </trkpt>
      <trkpt lat="47.594181010499597" lon="14.523331001400948">
        <ele>609.79999999999995</ele>
        <time>2012-10-21T08:57:58Z</time>
      </trkpt>
      <trkpt lat="47.594161983579397" lon="14.523429991677403">
        <ele>609.39999999999998</ele>
        <time>2012-10-21T08:57:59Z</time>
      </trkpt>
      <trkpt lat="47.59414304047823" lon="14.52352998778224">
        <ele>609</ele>
        <time>2012-10-21T08:58:00Z</time>
      </trkpt>
      <trkpt lat="47.594128036871552" lon="14.523625038564205">
        <ele>608</ele>
        <time>2012-10-21T08:58:01Z</time>
      </trkpt>
      <trkpt lat="47.594043966382742" lon="14.523901976644993">
        <ele>608</ele>
        <time>2012-10-21T08:58:04Z</time>
      </trkpt>
      <trkpt lat="47.59397498331964" lon="14.524073973298073">
        <ele>608</ele>
        <time>2012-10-21T08:58:06Z</time>
      </trkpt>
      <trkpt lat="47.593783959746361" lon="14.524534977972507">
        <ele>608</ele>
        <time>2012-10-21T08:58:12Z</time>
      </trkpt>
      <trkpt lat="47.593688992783427" lon="14.524787021800876">
        <ele>608</ele>
        <time>2012-10-21T08:58:17Z</time>
      </trkpt>
      <trkpt lat="47.59365102276206" lon="14.524999000132084">
        <ele>608</ele>
        <time>2012-10-21T08:58:22Z</time>
      </trkpt>
      <trkpt lat="47.593624033033848" lon="14.525135038420558">
        <ele>608.39999999999998</ele>
        <time>2012-10-21T08:58:26Z</time>
      </trkpt>
      <trkpt lat="47.593624033033848" lon="14.52516496181488">
        <ele>608.79999999999995</ele>
        <time>2012-10-21T08:58:27Z</time>
      </trkpt>
      <trkpt lat="47.593615986406803" lon="14.525194969028234">
        <ele>609.20000000000005</ele>
        <time>2012-10-21T08:58:28Z</time>
      </trkpt>
      <trkpt lat="47.593612968921661" lon="14.525221958756447">
        <ele>609.60000000000002</ele>
        <time>2012-10-21T08:58:29Z</time>
      </trkpt>
      <trkpt lat="47.593600982800126" lon="14.525254983454943">
        <ele>610</ele>
        <time>2012-10-21T08:58:30Z</time>
      </trkpt>
      <trkpt lat="47.593578016385436" lon="14.52541901730001">
        <ele>610.60000000000002</ele>
        <time>2012-10-21T08:58:35Z</time>
      </trkpt>
      <trkpt lat="47.593578016385436" lon="14.525445001199841">
        <ele>611</ele>
        <time>2012-10-21T08:58:36Z</time>
      </trkpt>
      <trkpt lat="47.593570975586772" lon="14.525467967614532">
        <ele>611.39999999999998</ele>
        <time>2012-10-21T08:58:37Z</time>
      </trkpt>
      <trkpt lat="47.593574998900294" lon="14.525497974827886">
        <ele>611.79999999999995</ele>
        <time>2012-10-21T08:58:38Z</time>
      </trkpt>
      <trkpt lat="47.593578016385436" lon="14.525519013404846">
        <ele>612.20000000000005</ele>
        <time>2012-10-21T08:58:39Z</time>
      </trkpt>
      <trkpt lat="47.593563012778759" lon="14.525627978146076">
        <ele>612.20000000000005</ele>
        <time>2012-10-21T08:58:42Z</time>
      </trkpt>
      <trkpt lat="47.593536023050547" lon="14.525733003392816">
        <ele>612.60000000000002</ele>
        <time>2012-10-21T08:58:46Z</time>
      </trkpt>
      <trkpt lat="47.593528982251883" lon="14.525762004777789">
        <ele>613.20000000000005</ele>
        <time>2012-10-21T08:58:47Z</time>
      </trkpt>
      <trkpt lat="47.593516996130347" lon="14.525795029476285">
        <ele>613.60000000000002</ele>
        <time>2012-10-21T08:58:48Z</time>
      </trkpt>
      <trkpt lat="47.593510039150715" lon="14.52582998201251">
        <ele>614</ele>
        <time>2012-10-21T08:58:49Z</time>
      </trkpt>
      <trkpt lat="47.593497969210148" lon="14.525862000882626">
        <ele>614.39999999999998</ele>
        <time>2012-10-21T08:58:50Z</time>
      </trkpt>
      <trkpt lat="47.593440972268581" lon="14.526029974222183">
        <ele>614.79999999999995</ele>
        <time>2012-10-21T08:58:55Z</time>
      </trkpt>
      <trkpt lat="47.593425968661904" lon="14.52606400474906">
        <ele>615.39999999999998</ele>
        <time>2012-10-21T08:58:56Z</time>
      </trkpt>
      <trkpt lat="47.593407025560737" lon="14.526099041104317">
        <ele>615.79999999999995</ele>
        <time>2012-10-21T08:58:57Z</time>
      </trkpt>
      <trkpt lat="47.593395039439201" lon="14.526133993640542">
        <ele>616.20000000000005</ele>
        <time>2012-10-21T08:58:58Z</time>
      </trkpt>
      <trkpt lat="47.593376012519002" lon="14.526160983368754">
        <ele>616.79999999999995</ele>
        <time>2012-10-21T08:58:59Z</time>
      </trkpt>
      <trkpt lat="47.59334902279079" lon="14.526209011673927">
        <ele>616.79999999999995</ele>
        <time>2012-10-21T08:59:01Z</time>
      </trkpt>
      <trkpt lat="47.593280961737037" lon="14.526330968365073">
        <ele>617.20000000000005</ele>
        <time>2012-10-21T08:59:06Z</time>
      </trkpt>
      <trkpt lat="47.593268975615501" lon="14.526351001113653">
        <ele>617.60000000000002</ele>
        <time>2012-10-21T08:59:07Z</time>
      </trkpt>
      <trkpt lat="47.593257995322347" lon="14.526372961699963">
        <ele>618</ele>
        <time>2012-10-21T08:59:08Z</time>
      </trkpt>
      <trkpt lat="47.593250032514334" lon="14.526395006105304">
        <ele>618.39999999999998</ele>
        <time>2012-10-21T08:59:09Z</time>
      </trkpt>
      <trkpt lat="47.593238968402147" lon="14.526417972519994">
        <ele>619</ele>
        <time>2012-10-21T08:59:10Z</time>
      </trkpt>
      <trkpt lat="47.593150958418846" lon="14.526541018858552">
        <ele>619.79999999999995</ele>
        <time>2012-10-21T08:59:16Z</time>
      </trkpt>
      <trkpt lat="47.593139978125691" lon="14.526567002758384">
        <ele>620.20000000000005</ele>
        <time>2012-10-21T08:59:17Z</time>
      </trkpt>
      <trkpt lat="47.593132015317678" lon="14.526588963344693">
        <ele>620.60000000000002</ele>
        <time>2012-10-21T08:59:18Z</time>
      </trkpt>
      <trkpt lat="47.593127992004156" lon="14.526607990264893">
        <ele>621</ele>
        <time>2012-10-21T08:59:19Z</time>
      </trkpt>
      <trkpt lat="47.59307099506259" lon="14.526712009683251">
        <ele>621</ele>
        <time>2012-10-21T08:59:25Z</time>
      </trkpt>
      <trkpt lat="47.593055991455913" lon="14.526746040210128">
        <ele>621.39999999999998</ele>
        <time>2012-10-21T08:59:27Z</time>
      </trkpt>
      <trkpt lat="47.5930480286479" lon="14.526760959997773">
        <ele>621.79999999999995</ele>
        <time>2012-10-21T08:59:28Z</time>
      </trkpt>
      <trkpt lat="47.593044005334377" lon="14.526775041595101">
        <ele>622.20000000000005</ele>
        <time>2012-10-21T08:59:29Z</time>
      </trkpt>
      <trkpt lat="47.593036964535713" lon="14.526789039373398">
        <ele>622.79999999999995</ele>
        <time>2012-10-21T08:59:30Z</time>
      </trkpt>
      <trkpt lat="47.5930290017277" lon="14.526805970817804">
        <ele>623.20000000000005</ele>
        <time>2012-10-21T08:59:31Z</time>
      </trkpt>
      <trkpt lat="47.593021038919687" lon="14.52681896276772">
        <ele>623.20000000000005</ele>
        <time>2012-10-21T08:59:32Z</time>
      </trkpt>
      <trkpt lat="47.592982985079288" lon="14.526931028813124">
        <ele>623.60000000000002</ele>
        <time>2012-10-21T08:59:39Z</time>
      </trkpt>
      <trkpt lat="47.592976028099656" lon="14.52694502659142">
        <ele>624.39999999999998</ele>
        <time>2012-10-21T08:59:40Z</time>
      </trkpt>
      <trkpt lat="47.592967981472611" lon="14.526962041854858">
        <ele>624.79999999999995</ele>
        <time>2012-10-21T08:59:41Z</time>
      </trkpt>
      <trkpt lat="47.592957001179457" lon="14.526984002441168">
        <ele>625.39999999999998</ele>
        <time>2012-10-21T08:59:42Z</time>
      </trkpt>
      <trkpt lat="47.592895980924368" lon="14.527042005211115">
        <ele>625.39999999999998</ele>
        <time>2012-10-21T08:59:47Z</time>
      </trkpt>
      <trkpt lat="47.592861028388143" lon="14.527101013809443">
        <ele>625.79999999999995</ele>
        <time>2012-10-21T08:59:51Z</time>
      </trkpt>
      <trkpt lat="47.592853987589478" lon="14.527107970789075">
        <ele>626.20000000000005</ele>
        <time>2012-10-21T08:59:52Z</time>
      </trkpt>
      <trkpt lat="47.592837978154421" lon="14.527120040729642">
        <ele>626.60000000000002</ele>
        <time>2012-10-21T08:59:53Z</time>
      </trkpt>
      <trkpt lat="47.592826997861266" lon="14.527135966345668">
        <ele>627</ele>
        <time>2012-10-21T08:59:54Z</time>
      </trkpt>
      <trkpt lat="47.592811994254589" lon="14.527151975780725">
        <ele>627.39999999999998</ele>
        <time>2012-10-21T08:59:55Z</time>
      </trkpt>
      <trkpt lat="47.59272800758481" lon="14.527241997420788">
        <ele>627.39999999999998</ele>
        <time>2012-10-21T09:00:01Z</time>
      </trkpt>
      <trkpt lat="47.592674028128386" lon="14.527315003797412">
        <ele>627.39999999999998</ele>
        <time>2012-10-21T09:00:05Z</time>
      </trkpt>
      <trkpt lat="47.592644020915031" lon="14.527337970212102">
        <ele>627.39999999999998</ele>
        <time>2012-10-21T09:00:07Z</time>
      </trkpt>
      <trkpt lat="47.592571014538407" lon="14.527409970760345">
        <ele>628</ele>
        <time>2012-10-21T09:00:13Z</time>
      </trkpt>
      <trkpt lat="47.59255601093173" lon="14.527424974367023">
        <ele>628.39999999999998</ele>
        <time>2012-10-21T09:00:14Z</time>
      </trkpt>
      <trkpt lat="47.592541007325053" lon="14.527444001287222">
        <ele>628.79999999999995</ele>
        <time>2012-10-21T09:00:15Z</time>
      </trkpt>
      <trkpt lat="47.592529021203518" lon="14.527459004893899">
        <ele>629.20000000000005</ele>
        <time>2012-10-21T09:00:16Z</time>
      </trkpt>
      <trkpt lat="47.592521980404854" lon="14.527476020157337">
        <ele>629.60000000000002</ele>
        <time>2012-10-21T09:00:17Z</time>
      </trkpt>
      <trkpt lat="47.592457020655274" lon="14.527537040412426">
        <ele>629.60000000000002</ele>
        <time>2012-10-21T09:00:22Z</time>
      </trkpt>
      <trkpt lat="47.592388037592173" lon="14.527625972405076">
        <ele>630</ele>
        <time>2012-10-21T09:00:27Z</time>
      </trkpt>
      <trkpt lat="47.592376973479986" lon="14.527642987668514">
        <ele>630.39999999999998</ele>
        <time>2012-10-21T09:00:28Z</time>
      </trkpt>
      <trkpt lat="47.592364987358451" lon="14.527664026245475">
        <ele>630.79999999999995</ele>
        <time>2012-10-21T09:00:29Z</time>
      </trkpt>
      <trkpt lat="47.592349983751774" lon="14.527689004316926">
        <ele>631.60000000000002</ele>
        <time>2012-10-21T09:00:30Z</time>
      </trkpt>
      <trkpt lat="47.59227798320353" lon="14.527776008471847">
        <ele>631.60000000000002</ele>
        <time>2012-10-21T09:00:35Z</time>
      </trkpt>
      <trkpt lat="47.592186033725739" lon="14.527893019840121">
        <ele>631.60000000000002</ele>
        <time>2012-10-21T09:00:42Z</time>
      </trkpt>
      <trkpt lat="47.592068016529083" lon="14.528049007058144">
        <ele>631.60000000000002</ele>
        <time>2012-10-21T09:00:48Z</time>
      </trkpt>
      <trkpt lat="47.591887973248959" lon="14.528198037296534">
        <ele>631.60000000000002</ele>
        <time>2012-10-21T09:00:54Z</time>
      </trkpt>
      <trkpt lat="47.591740032657981" lon="14.528270959854126">
        <ele>631.60000000000002</ele>
        <time>2012-10-21T09:01:00Z</time>
      </trkpt>
      <trkpt lat="47.591529982164502" lon="14.528365004807711">
        <ele>631.60000000000002</ele>
        <time>2012-10-21T09:01:06Z</time>
      </trkpt>
      <trkpt lat="47.591362008824944" lon="14.528473969548941">
        <ele>631.60000000000002</ele>
        <time>2012-10-21T09:01:11Z</time>
      </trkpt>
      <trkpt lat="47.591151958331466" lon="14.528612019494176">
        <ele>631.60000000000002</ele>
        <time>2012-10-21T09:01:17Z</time>
      </trkpt>
      <trkpt lat="47.591080041602254" lon="14.528658036142588">
        <ele>631.60000000000002</ele>
        <time>2012-10-21T09:01:20Z</time>
      </trkpt>
      <trkpt lat="47.591045005246997" lon="14.528656024485826">
        <ele>631.60000000000002</ele>
        <time>2012-10-21T09:01:22Z</time>
      </trkpt>
      <trkpt lat="47.591014998033643" lon="14.528654012829065">
        <ele>631.60000000000002</ele>
        <time>2012-10-21T09:01:27Z</time>
      </trkpt>
      <trkpt lat="47.59100703522563" lon="14.528672033920884">
        <ele>631.60000000000002</ele>
        <time>2012-10-21T09:01:33Z</time>
      </trkpt>
      <trkpt lat="47.59100703522563" lon="14.528672033920884">
        <ele>631.60000000000002</ele>
        <time>2012-10-21T09:01:48Z</time>
      </trkpt>
      <trkpt lat="47.59100703522563" lon="14.528672033920884">
        <ele>631.60000000000002</ele>
        <time>2012-10-21T09:02:02Z</time>
      </trkpt>
      <trkpt lat="47.59100703522563" lon="14.528695000335574">
        <ele>631.60000000000002</ele>
        <time>2012-10-21T09:02:14Z</time>
      </trkpt>
      <trkpt lat="47.590999994426966" lon="14.528736993670464">
        <ele>631.60000000000002</ele>
        <time>2012-10-21T09:02:20Z</time>
      </trkpt>
      <trkpt lat="47.590983984991908" lon="14.528759960085154">
        <ele>631.60000000000002</ele>
        <time>2012-10-21T09:02:26Z</time>
      </trkpt>
      <trkpt lat="47.590958001092076" lon="14.528775969520211">
        <ele>631.60000000000002</ele>
        <time>2012-10-21T09:02:27Z</time>
      </trkpt>
      <trkpt lat="47.590889018028975" lon="14.528817040845752">
        <ele>631.60000000000002</ele>
        <time>2012-10-21T09:02:31Z</time>
      </trkpt>
      <trkpt lat="47.590763038024306" lon="14.528920976445079">
        <ele>631.60000000000002</ele>
        <time>2012-10-21T09:02:36Z</time>
      </trkpt>
      <trkpt lat="47.590564973652363" lon="14.529199004173279">
        <ele>631.60000000000002</ele>
        <time>2012-10-21T09:02:42Z</time>
      </trkpt>
      <trkpt lat="47.590527003630996" lon="14.529275028035045">
        <ele>631.20000000000005</ele>
        <time>2012-10-21T09:02:43Z</time>
      </trkpt>
      <trkpt lat="47.590485010296106" lon="14.529362032189965">
        <ele>630.60000000000002</ele>
        <time>2012-10-21T09:02:44Z</time>
      </trkpt>
      <trkpt lat="47.590446034446359" lon="14.529448030516505">
        <ele>630.20000000000005</ele>
        <time>2012-10-21T09:02:45Z</time>
      </trkpt>
      <trkpt lat="47.590404963120818" lon="14.529536962509155">
        <ele>629.79999999999995</ele>
        <time>2012-10-21T09:02:46Z</time>
      </trkpt>
      <trkpt lat="47.590362969785929" lon="14.529634024947882">
        <ele>629.39999999999998</ele>
        <time>2012-10-21T09:02:47Z</time>
      </trkpt>
      <trkpt lat="47.590282000601292" lon="14.529824964702129">
        <ele>628.79999999999995</ele>
        <time>2012-10-21T09:02:49Z</time>
      </trkpt>
      <trkpt lat="47.590244030579925" lon="14.529924960806966">
        <ele>628.39999999999998</ele>
        <time>2012-10-21T09:02:50Z</time>
      </trkpt>
      <trkpt lat="47.590202037245035" lon="14.530034009367228">
        <ele>628</ele>
        <time>2012-10-21T09:02:51Z</time>
      </trkpt>
      <trkpt lat="47.590163983404636" lon="14.530139034613967">
        <ele>627.39999999999998</ele>
        <time>2012-10-21T09:02:52Z</time>
      </trkpt>
      <trkpt lat="47.590133976191282" lon="14.530241964384913">
        <ele>627</ele>
        <time>2012-10-21T09:02:53Z</time>
      </trkpt>
      <trkpt lat="47.590102963149548" lon="14.530349001288414">
        <ele>626.60000000000002</ele>
        <time>2012-10-21T09:02:54Z</time>
      </trkpt>
      <trkpt lat="47.590075973421335" lon="14.530453020706773">
        <ele>626</ele>
        <time>2012-10-21T09:02:55Z</time>
      </trkpt>
      <trkpt lat="47.590054012835026" lon="14.530559973791242">
        <ele>625.60000000000002</ele>
        <time>2012-10-21T09:02:56Z</time>
      </trkpt>
      <trkpt lat="47.590027023106813" lon="14.530670028179884">
        <ele>625.20000000000005</ele>
        <time>2012-10-21T09:02:57Z</time>
      </trkpt>
      <trkpt lat="47.590000033378601" lon="14.530778992921114">
        <ele>624.60000000000002</ele>
        <time>2012-10-21T09:02:58Z</time>
      </trkpt>
      <trkpt lat="47.589970026165247" lon="14.530900027602911">
        <ele>624.60000000000002</ele>
        <time>2012-10-21T09:02:59Z</time>
      </trkpt>
      <trkpt lat="47.589904982596636" lon="14.531239997595549">
        <ele>624.20000000000005</ele>
        <time>2012-10-21T09:03:02Z</time>
      </trkpt>
      <trkpt lat="47.589882016181946" lon="14.531349968165159">
        <ele>623.79999999999995</ele>
        <time>2012-10-21T09:03:03Z</time>
      </trkpt>
      <trkpt lat="47.589858965948224" lon="14.531463040038943">
        <ele>623.39999999999998</ele>
        <time>2012-10-21T09:03:04Z</time>
      </trkpt>
      <trkpt lat="47.589835999533534" lon="14.531568987295032">
        <ele>622.79999999999995</ele>
        <time>2012-10-21T09:03:05Z</time>
      </trkpt>
      <trkpt lat="47.589816972613335" lon="14.531678035855293">
        <ele>622.39999999999998</ele>
        <time>2012-10-21T09:03:06Z</time>
      </trkpt>
      <trkpt lat="47.589794006198645" lon="14.531787000596523">
        <ele>622.39999999999998</ele>
        <time>2012-10-21T09:03:07Z</time>
      </trkpt>
      <trkpt lat="47.589752012863755" lon="14.53199696727097">
        <ele>622</ele>
        <time>2012-10-21T09:03:09Z</time>
      </trkpt>
      <trkpt lat="47.589728962630033" lon="14.532106015831232">
        <ele>621.60000000000002</ele>
        <time>2012-10-21T09:03:10Z</time>
      </trkpt>
      <trkpt lat="47.589705996215343" lon="14.532224033027887">
        <ele>621.20000000000005</ele>
        <time>2012-10-21T09:03:11Z</time>
      </trkpt>
      <trkpt lat="47.589684035629034" lon="14.532350013032556">
        <ele>620.79999999999995</ele>
        <time>2012-10-21T09:03:12Z</time>
      </trkpt>
      <trkpt lat="47.589660985395312" lon="14.532478004693985">
        <ele>620.39999999999998</ele>
        <time>2012-10-21T09:03:13Z</time>
      </trkpt>
      <trkpt lat="47.5896339956671" lon="14.532613037154078">
        <ele>619.79999999999995</ele>
        <time>2012-10-21T09:03:14Z</time>
      </trkpt>
      <trkpt lat="47.589607005938888" lon="14.532740022987127">
        <ele>619.39999999999998</ele>
        <time>2012-10-21T09:03:15Z</time>
      </trkpt>
      <trkpt lat="47.589581022039056" lon="14.532871032133698">
        <ele>619</ele>
        <time>2012-10-21T09:03:16Z</time>
      </trkpt>
      <trkpt lat="47.589554032310843" lon="14.532997012138367">
        <ele>618.39999999999998</ele>
        <time>2012-10-21T09:03:17Z</time>
      </trkpt>
      <trkpt lat="47.589526958763599" lon="14.533119974657893">
        <ele>617.79999999999995</ele>
        <time>2012-10-21T09:03:18Z</time>
      </trkpt>
      <trkpt lat="47.589499969035387" lon="14.533242015168071">
        <ele>617.20000000000005</ele>
        <time>2012-10-21T09:03:19Z</time>
      </trkpt>
      <trkpt lat="47.589478008449078" lon="14.533364977687597">
        <ele>616.60000000000002</ele>
        <time>2012-10-21T09:03:20Z</time>
      </trkpt>
      <trkpt lat="47.589454958215356" lon="14.533494981005788">
        <ele>615.79999999999995</ele>
        <time>2012-10-21T09:03:21Z</time>
      </trkpt>
      <trkpt lat="47.589431991800666" lon="14.533633030951023">
        <ele>615.20000000000005</ele>
        <time>2012-10-21T09:03:22Z</time>
      </trkpt>
      <trkpt lat="47.589409025385976" lon="14.533768985420465">
        <ele>613.79999999999995</ele>
        <time>2012-10-21T09:03:23Z</time>
      </trkpt>
      <trkpt lat="47.589385975152254" lon="14.533897982910275">
        <ele>613.20000000000005</ele>
        <time>2012-10-21T09:03:24Z</time>
      </trkpt>
      <trkpt lat="47.589374994859099" lon="14.534023040905595">
        <ele>612.60000000000002</ele>
        <time>2012-10-21T09:03:25Z</time>
      </trkpt>
      <trkpt lat="47.589370971545577" lon="14.534149020910263">
        <ele>611.79999999999995</ele>
        <time>2012-10-21T09:03:26Z</time>
      </trkpt>
      <trkpt lat="47.589367032051086" lon="14.534284975379705">
        <ele>611.20000000000005</ele>
        <time>2012-10-21T09:03:27Z</time>
      </trkpt>
      <trkpt lat="47.589363008737564" lon="14.534419002011418">
        <ele>610.60000000000002</ele>
        <time>2012-10-21T09:03:28Z</time>
      </trkpt>
      <trkpt lat="47.589358985424042" lon="14.534546993672848">
        <ele>610.20000000000005</ele>
        <time>2012-10-21T09:03:29Z</time>
      </trkpt>
      <trkpt lat="47.589354962110519" lon="14.534678002819419">
        <ele>609.79999999999995</ele>
        <time>2012-10-21T09:03:30Z</time>
      </trkpt>
      <trkpt lat="47.589343981817365" lon="14.534802976995707">
        <ele>609.39999999999998</ele>
        <time>2012-10-21T09:03:31Z</time>
      </trkpt>
      <trkpt lat="47.589325038716197" lon="14.534926023334265">
        <ele>608.79999999999995</ele>
        <time>2012-10-21T09:03:32Z</time>
      </trkpt>
      <trkpt lat="47.589306011795998" lon="14.53504697419703">
        <ele>608.39999999999998</ele>
        <time>2012-10-21T09:03:33Z</time>
      </trkpt>
      <trkpt lat="47.58918397128582" lon="14.535561036318541">
        <ele>608.39999999999998</ele>
        <time>2012-10-21T09:03:38Z</time>
      </trkpt>
      <trkpt lat="47.589062014594674" lon="14.535953979939222">
        <ele>608.39999999999998</ele>
        <time>2012-10-21T09:03:43Z</time>
      </trkpt>
      <trkpt lat="47.588866967707872" lon="14.536343989893794">
        <ele>608</ele>
        <time>2012-10-21T09:03:48Z</time>
      </trkpt>
      <trkpt lat="47.588818017393351" lon="14.536421019583941">
        <ele>607.60000000000002</ele>
        <time>2012-10-21T09:03:49Z</time>
      </trkpt>
      <trkpt lat="47.588767977431417" lon="14.536497965455055">
        <ele>607.20000000000005</ele>
        <time>2012-10-21T09:03:50Z</time>
      </trkpt>
      <trkpt lat="47.588718021288514" lon="14.536567032337189">
        <ele>606.60000000000002</ele>
        <time>2012-10-21T09:03:51Z</time>
      </trkpt>
      <trkpt lat="47.588668987154961" lon="14.536630986258388">
        <ele>606.20000000000005</ele>
        <time>2012-10-21T09:03:52Z</time>
      </trkpt>
      <trkpt lat="47.588619031012058" lon="14.53669804148376">
        <ele>605.60000000000002</ele>
        <time>2012-10-21T09:03:53Z</time>
      </trkpt>
      <trkpt lat="47.588577037677169" lon="14.536761995404959">
        <ele>605.20000000000005</ele>
        <time>2012-10-21T09:03:54Z</time>
      </trkpt>
      <trkpt lat="47.58853898383677" lon="14.536816980689764">
        <ele>604.60000000000002</ele>
        <time>2012-10-21T09:03:55Z</time>
      </trkpt>
      <trkpt lat="47.588492967188358" lon="14.536866014823318">
        <ele>604.20000000000005</ele>
        <time>2012-10-21T09:03:56Z</time>
      </trkpt>
      <trkpt lat="47.588279983028769" lon="14.53706500120461">
        <ele>604.20000000000005</ele>
        <time>2012-10-21T09:04:01Z</time>
      </trkpt>
      <trkpt lat="47.588226003572345" lon="14.537083022296429">
        <ele>603.79999999999995</ele>
        <time>2012-10-21T09:04:02Z</time>
      </trkpt>
      <trkpt lat="47.588176969438791" lon="14.537075981497765">
        <ele>603.39999999999998</ele>
        <time>2012-10-21T09:04:03Z</time>
      </trkpt>
      <trkpt lat="47.588127013295889" lon="14.53706600703299">
        <ele>603</ele>
        <time>2012-10-21T09:04:04Z</time>
      </trkpt>
      <trkpt lat="47.588080996647477" lon="14.537046980112791">
        <ele>602.60000000000002</ele>
        <time>2012-10-21T09:04:05Z</time>
      </trkpt>
      <trkpt lat="47.58804302662611" lon="14.5370430406183">
        <ele>602.20000000000005</ele>
        <time>2012-10-21T09:04:06Z</time>
      </trkpt>
      <trkpt lat="47.588008996099234" lon="14.537039017304778">
        <ele>602.20000000000005</ele>
        <time>2012-10-21T09:04:07Z</time>
      </trkpt>
      <trkpt lat="47.587901959195733" lon="14.536989983171225">
        <ele>602.20000000000005</ele>
        <time>2012-10-21T09:04:10Z</time>
      </trkpt>
      <trkpt lat="47.587582021951675" lon="14.536874983459711">
        <ele>602.20000000000005</ele>
        <time>2012-10-21T09:04:18Z</time>
      </trkpt>
      <trkpt lat="47.587542962282896" lon="14.536869032308459">
        <ele>602.20000000000005</ele>
        <time>2012-10-21T09:04:19Z</time>
      </trkpt>
      <trkpt lat="47.587368031963706" lon="14.536884035915136">
        <ele>602.20000000000005</ele>
        <time>2012-10-21T09:04:24Z</time>
      </trkpt>
      <trkpt lat="47.587211960926652" lon="14.536940027028322">
        <ele>602.20000000000005</ele>
        <time>2012-10-21T09:04:30Z</time>
      </trkpt>
      <trkpt lat="47.587131997570395" lon="14.536985959857702">
        <ele>602.60000000000002</ele>
        <time>2012-10-21T09:04:33Z</time>
      </trkpt>
      <trkpt lat="47.587105007842183" lon="14.537006998434663">
        <ele>603</ele>
        <time>2012-10-21T09:04:34Z</time>
      </trkpt>
      <trkpt lat="47.587078018113971" lon="14.537028959020972">
        <ele>603.39999999999998</ele>
        <time>2012-10-21T09:04:35Z</time>
      </trkpt>
      <trkpt lat="47.587058991193771" lon="14.537055026739836">
        <ele>603.79999999999995</ele>
        <time>2012-10-21T09:04:36Z</time>
      </trkpt>
      <trkpt lat="47.587032001465559" lon="14.537077993154526">
        <ele>604.20000000000005</ele>
        <time>2012-10-21T09:04:37Z</time>
      </trkpt>
      <trkpt lat="47.58701297454536" lon="14.537100037559867">
        <ele>604.20000000000005</ele>
        <time>2012-10-21T09:04:38Z</time>
      </trkpt>
      <trkpt lat="47.586823040619493" lon="14.537211013957858">
        <ele>604.60000000000002</ele>
        <time>2012-10-21T09:04:45Z</time>
      </trkpt>
      <trkpt lat="47.586795967072248" lon="14.537221994251013">
        <ele>605</ele>
        <time>2012-10-21T09:04:46Z</time>
      </trkpt>
      <trkpt lat="47.586768977344036" lon="14.537231968715787">
        <ele>605.39999999999998</ele>
        <time>2012-10-21T09:04:47Z</time>
      </trkpt>
      <trkpt lat="47.586738970130682" lon="14.537243032827973">
        <ele>605.79999999999995</ele>
        <time>2012-10-21T09:04:48Z</time>
      </trkpt>
      <trkpt lat="47.586716003715992" lon="14.53725996427238">
        <ele>606.20000000000005</ele>
        <time>2012-10-21T09:04:49Z</time>
      </trkpt>
      <trkpt lat="47.586638974025846" lon="14.537306986749172">
        <ele>606.20000000000005</ele>
        <time>2012-10-21T09:04:52Z</time>
      </trkpt>
      <trkpt lat="47.5865170173347" lon="14.537358032539487">
        <ele>606.60000000000002</ele>
        <time>2012-10-21T09:04:57Z</time>
      </trkpt>
      <trkpt lat="47.5864979904145" lon="14.537364989519119">
        <ele>607</ele>
        <time>2012-10-21T09:04:58Z</time>
      </trkpt>
      <trkpt lat="47.586478963494301" lon="14.537378987297416">
        <ele>607.60000000000002</ele>
        <time>2012-10-21T09:04:59Z</time>
      </trkpt>
      <trkpt lat="47.586451973766088" lon="14.537391979247332">
        <ele>608</ele>
        <time>2012-10-21T09:05:00Z</time>
      </trkpt>
      <trkpt lat="47.586425989866257" lon="14.537398014217615">
        <ele>608.39999999999998</ele>
        <time>2012-10-21T09:05:01Z</time>
      </trkpt>
      <trkpt lat="47.586304033175111" lon="14.537456016987562">
        <ele>608.39999999999998</ele>
        <time>2012-10-21T09:05:07Z</time>
      </trkpt>
      <trkpt lat="47.586273020133376" lon="14.537474038079381">
        <ele>608.79999999999995</ele>
        <time>2012-10-21T09:05:09Z</time>
      </trkpt>
      <trkpt lat="47.586262039840221" lon="14.537479989230633">
        <ele>609.20000000000005</ele>
        <time>2012-10-21T09:05:10Z</time>
      </trkpt>
      <trkpt lat="47.5862389896065" lon="14.537486024200916">
        <ele>609.60000000000002</ele>
        <time>2012-10-21T09:05:11Z</time>
      </trkpt>
      <trkpt lat="47.58621602319181" lon="14.53749599866569">
        <ele>610</ele>
        <time>2012-10-21T09:05:12Z</time>
      </trkpt>
      <trkpt lat="47.586189033463597" lon="14.537514019757509">
        <ele>610.39999999999998</ele>
        <time>2012-10-21T09:05:13Z</time>
      </trkpt>
      <trkpt lat="47.586165983229876" lon="14.537528017535806">
        <ele>610.39999999999998</ele>
        <time>2012-10-21T09:05:14Z</time>
      </trkpt>
      <trkpt lat="47.58604796603322" lon="14.537583002820611">
        <ele>610.39999999999998</ele>
        <time>2012-10-21T09:05:20Z</time>
      </trkpt>
      <trkpt lat="47.585975965484977" lon="14.537618961185217">
        <ele>611</ele>
        <time>2012-10-21T09:05:24Z</time>
      </trkpt>
      <trkpt lat="47.585957022383809" lon="14.537632036954165">
        <ele>611.39999999999998</ele>
        <time>2012-10-21T09:05:25Z</time>
      </trkpt>
      <trkpt lat="47.58593799546361" lon="14.537647040560842">
        <ele>611.79999999999995</ele>
        <time>2012-10-21T09:05:26Z</time>
      </trkpt>
      <trkpt lat="47.585911005735397" lon="14.537655003368855">
        <ele>612.60000000000002</ele>
        <time>2012-10-21T09:05:27Z</time>
      </trkpt>
      <trkpt lat="47.585776979103684" lon="14.53770998865366">
        <ele>612.60000000000002</ele>
        <time>2012-10-21T09:05:34Z</time>
      </trkpt>
      <trkpt lat="47.585715958848596" lon="14.537749970331788">
        <ele>613</ele>
        <time>2012-10-21T09:05:37Z</time>
      </trkpt>
      <trkpt lat="47.585697015747428" lon="14.537756005302072">
        <ele>613.39999999999998</ele>
        <time>2012-10-21T09:05:38Z</time>
      </trkpt>
      <trkpt lat="47.585682012140751" lon="14.537762040272355">
        <ele>613.79999999999995</ele>
        <time>2012-10-21T09:05:39Z</time>
      </trkpt>
      <trkpt lat="47.585662985220551" lon="14.537767991423607">
        <ele>614.20000000000005</ele>
        <time>2012-10-21T09:05:40Z</time>
      </trkpt>
      <trkpt lat="47.585635995492339" lon="14.537770003080368">
        <ele>614.60000000000002</ele>
        <time>2012-10-21T09:05:41Z</time>
      </trkpt>
      <trkpt lat="47.585609005764127" lon="14.53777302056551">
        <ele>614.60000000000002</ele>
        <time>2012-10-21T09:05:42Z</time>
      </trkpt>
      <trkpt lat="47.585438014939427" lon="14.5377959869802">
        <ele>614.60000000000002</ele>
        <time>2012-10-21T09:05:50Z</time>
      </trkpt>
      <trkpt lat="47.585278004407883" lon="14.537852983921766">
        <ele>614.60000000000002</ele>
        <time>2012-10-21T09:05:57Z</time>
      </trkpt>
      <trkpt lat="47.585097961127758" lon="14.537920039147139">
        <ele>614.60000000000002</ele>
        <time>2012-10-21T09:06:05Z</time>
      </trkpt>
      <trkpt lat="47.584945997223258" lon="14.537979969754815">
        <ele>614.60000000000002</ele>
        <time>2012-10-21T09:06:12Z</time>
      </trkpt>
      <trkpt lat="47.584926970303059" lon="14.537991033867002">
        <ele>615</ele>
        <time>2012-10-21T09:06:13Z</time>
      </trkpt>
      <trkpt lat="47.584908027201891" lon="14.537998996675014">
        <ele>615.39999999999998</ele>
        <time>2012-10-21T09:06:14Z</time>
      </trkpt>
      <trkpt lat="47.584887994453311" lon="14.538006959483027">
        <ele>616</ele>
        <time>2012-10-21T09:06:15Z</time>
      </trkpt>
      <trkpt lat="47.584866033867002" lon="14.538014000281692">
        <ele>616.79999999999995</ele>
        <time>2012-10-21T09:06:16Z</time>
      </trkpt>
      <trkpt lat="47.584754973649979" lon="14.538066973909736">
        <ele>616.79999999999995</ele>
        <time>2012-10-21T09:06:22Z</time>
      </trkpt>
      <trkpt lat="47.584621030837297" lon="14.538128999993205">
        <ele>616.79999999999995</ele>
        <time>2012-10-21T09:06:29Z</time>
      </trkpt>
      <trkpt lat="47.584537966176867" lon="14.538151966407895">
        <ele>617.20000000000005</ele>
        <time>2012-10-21T09:06:34Z</time>
      </trkpt>
      <trkpt lat="47.584514999762177" lon="14.538164036348462">
        <ele>617.60000000000002</ele>
        <time>2012-10-21T09:06:35Z</time>
      </trkpt>
      <trkpt lat="47.584495972841978" lon="14.538175016641617">
        <ele>618</ele>
        <time>2012-10-21T09:06:36Z</time>
      </trkpt>
      <trkpt lat="47.584473006427288" lon="14.53818398527801">
        <ele>618.39999999999998</ele>
        <time>2012-10-21T09:06:37Z</time>
      </trkpt>
      <trkpt lat="47.584450040012598" lon="14.538191026076674">
        <ele>618.79999999999995</ele>
        <time>2012-10-21T09:06:38Z</time>
      </trkpt>
      <trkpt lat="47.58436999283731" lon="14.538212986662984">
        <ele>618.79999999999995</ele>
        <time>2012-10-21T09:06:42Z</time>
      </trkpt>
      <trkpt lat="47.584224985912442" lon="14.538262020796537">
        <ele>618.79999999999995</ele>
        <time>2012-10-21T09:06:49Z</time>
      </trkpt>
      <trkpt lat="47.584094982594252" lon="14.538314994424582">
        <ele>619.20000000000005</ele>
        <time>2012-10-21T09:06:56Z</time>
      </trkpt>
      <trkpt lat="47.584076039493084" lon="14.538324968889356">
        <ele>619.60000000000002</ele>
        <time>2012-10-21T09:06:57Z</time>
      </trkpt>
      <trkpt lat="47.584052989259362" lon="14.53833200968802">
        <ele>620</ele>
        <time>2012-10-21T09:06:58Z</time>
      </trkpt>
      <trkpt lat="47.584033962339163" lon="14.538338966667652">
        <ele>620.39999999999998</ele>
        <time>2012-10-21T09:06:59Z</time>
      </trkpt>
      <trkpt lat="47.584015019237995" lon="14.538347013294697">
        <ele>620.79999999999995</ele>
        <time>2012-10-21T09:07:00Z</time>
      </trkpt>
      <trkpt lat="47.583885015919805" lon="14.538392024114728">
        <ele>620.79999999999995</ele>
        <time>2012-10-21T09:07:07Z</time>
      </trkpt>
      <trkpt lat="47.583782002329826" lon="14.538436029106379">
        <ele>620.79999999999995</ele>
        <time>2012-10-21T09:07:13Z</time>
      </trkpt>
      <trkpt lat="47.583693992346525" lon="14.538472993299365">
        <ele>621.20000000000005</ele>
        <time>2012-10-21T09:07:18Z</time>
      </trkpt>
      <trkpt lat="47.583674965426326" lon="14.53848397359252">
        <ele>621.60000000000002</ele>
        <time>2012-10-21T09:07:19Z</time>
      </trkpt>
      <trkpt lat="47.583656022325158" lon="14.538491014391184">
        <ele>622</ele>
        <time>2012-10-21T09:07:20Z</time>
      </trkpt>
      <trkpt lat="47.583636995404959" lon="14.538497971370816">
        <ele>622.60000000000002</ele>
        <time>2012-10-21T09:07:21Z</time>
      </trkpt>
      <trkpt lat="47.583617968484759" lon="14.538507023826241">
        <ele>623</ele>
        <time>2012-10-21T09:07:22Z</time>
      </trkpt>
      <trkpt lat="47.583461981266737" lon="14.538582963868976">
        <ele>623</ele>
        <time>2012-10-21T09:07:30Z</time>
      </trkpt>
      <trkpt lat="47.583355028182268" lon="14.538628980517387">
        <ele>623.39999999999998</ele>
        <time>2012-10-21T09:07:36Z</time>
      </trkpt>
      <trkpt lat="47.583336001262069" lon="14.538639038801193">
        <ele>623.79999999999995</ele>
        <time>2012-10-21T09:07:37Z</time>
      </trkpt>
      <trkpt lat="47.583316974341869" lon="14.538650019094348">
        <ele>624.20000000000005</ele>
        <time>2012-10-21T09:07:38Z</time>
      </trkpt>
      <trkpt lat="47.583301970735192" lon="14.538660999387503">
        <ele>624.60000000000002</ele>
        <time>2012-10-21T09:07:39Z</time>
      </trkpt>
      <trkpt lat="47.583285961300135" lon="14.538673991337419">
        <ele>625</ele>
        <time>2012-10-21T09:07:40Z</time>
      </trkpt>
      <trkpt lat="47.583237010985613" lon="14.538682959973812">
        <ele>625</ele>
        <time>2012-10-21T09:07:43Z</time>
      </trkpt>
      <trkpt lat="47.583205997943878" lon="14.538670973852277">
        <ele>625</ele>
        <time>2012-10-21T09:07:45Z</time>
      </trkpt>
      <trkpt lat="47.583133997395635" lon="14.538746997714043">
        <ele>625</ele>
        <time>2012-10-21T09:07:49Z</time>
      </trkpt>
      <trkpt lat="47.583114970475435" lon="14.538781028240919">
        <ele>625</ele>
        <time>2012-10-21T09:07:50Z</time>
      </trkpt>
      <trkpt lat="47.583056967705488" lon="14.538839031010866">
        <ele>625</ele>
        <time>2012-10-21T09:07:55Z</time>
      </trkpt>
      <trkpt lat="47.583054034039378" lon="14.538840036839247">
        <ele>625</ele>
        <time>2012-10-21T09:08:03Z</time>
      </trkpt>
      <trkpt lat="47.582993013784289" lon="14.538941960781813">
        <ele>625</ele>
        <time>2012-10-21T09:08:09Z</time>
      </trkpt>
      <trkpt lat="47.582893017679453" lon="14.539119992405176">
        <ele>625</ele>
        <time>2012-10-21T09:08:15Z</time>
      </trkpt>
      <trkpt lat="47.582744993269444" lon="14.539395002648234">
        <ele>625</ele>
        <time>2012-10-21T09:08:21Z</time>
      </trkpt>
      <trkpt lat="47.58248096331954" lon="14.539872016757727">
        <ele>625</ele>
        <time>2012-10-21T09:08:29Z</time>
      </trkpt>
      <trkpt lat="47.582417009398341" lon="14.540002020075917">
        <ele>624.60000000000002</ele>
        <time>2012-10-21T09:08:31Z</time>
      </trkpt>
      <trkpt lat="47.582385996356606" lon="14.540065973997116">
        <ele>624.20000000000005</ele>
        <time>2012-10-21T09:08:32Z</time>
      </trkpt>
      <trkpt lat="47.582348026335239" lon="14.540129005908966">
        <ele>623.79999999999995</ele>
        <time>2012-10-21T09:08:33Z</time>
      </trkpt>
      <trkpt lat="47.582313995808363" lon="14.540194971486926">
        <ele>623.39999999999998</ele>
        <time>2012-10-21T09:08:34Z</time>
      </trkpt>
      <trkpt lat="47.582278959453106" lon="14.54026403836906">
        <ele>623</ele>
        <time>2012-10-21T09:08:35Z</time>
      </trkpt>
      <trkpt lat="47.582206958904862" lon="14.540398987010121">
        <ele>623</ele>
        <time>2012-10-21T09:08:37Z</time>
      </trkpt>
      <trkpt lat="47.581947036087513" lon="14.540882958099246">
        <ele>622.60000000000002</ele>
        <time>2012-10-21T09:08:44Z</time>
      </trkpt>
      <trkpt lat="47.581908982247114" lon="14.54095596447587">
        <ele>622.20000000000005</ele>
        <time>2012-10-21T09:08:45Z</time>
      </trkpt>
      <trkpt lat="47.581871012225747" lon="14.541028970852494">
        <ele>621.79999999999995</ele>
        <time>2012-10-21T09:08:46Z</time>
      </trkpt>
      <trkpt lat="47.581829018890858" lon="14.541098037734628">
        <ele>621.39999999999998</ele>
        <time>2012-10-21T09:08:47Z</time>
      </trkpt>
      <trkpt lat="47.581790965050459" lon="14.541172971948981">
        <ele>621</ele>
        <time>2012-10-21T09:08:48Z</time>
      </trkpt>
      <trkpt lat="47.581627015024424" lon="14.541489975526929">
        <ele>621</ele>
        <time>2012-10-21T09:08:52Z</time>
      </trkpt>
      <trkpt lat="47.58142501115799" lon="14.541906975209713">
        <ele>620.39999999999998</ele>
        <time>2012-10-21T09:08:57Z</time>
      </trkpt>
      <trkpt lat="47.5813830178231" lon="14.541988028213382">
        <ele>620</ele>
        <time>2012-10-21T09:08:58Z</time>
      </trkpt>
      <trkpt lat="47.581344963982701" lon="14.542073020711541">
        <ele>619.60000000000002</ele>
        <time>2012-10-21T09:08:59Z</time>
      </trkpt>
      <trkpt lat="47.581302970647812" lon="14.54215700738132">
        <ele>619.20000000000005</ele>
        <time>2012-10-21T09:09:00Z</time>
      </trkpt>
      <trkpt lat="47.581263994798064" lon="14.542244011536241">
        <ele>618.79999999999995</ele>
        <time>2012-10-21T09:09:01Z</time>
      </trkpt>
      <trkpt lat="47.581108007580042" lon="14.542713984847069">
        <ele>618.79999999999995</ele>
        <time>2012-10-21T09:09:06Z</time>
      </trkpt>
      <trkpt lat="47.581085041165352" lon="14.542819010093808">
        <ele>618.39999999999998</ele>
        <time>2012-10-21T09:09:07Z</time>
      </trkpt>
      <trkpt lat="47.58106199093163" lon="14.542918000370264">
        <ele>618</ele>
        <time>2012-10-21T09:09:08Z</time>
      </trkpt>
      <trkpt lat="47.581042964011431" lon="14.54301699064672">
        <ele>617.60000000000002</ele>
        <time>2012-10-21T09:09:09Z</time>
      </trkpt>
      <trkpt lat="47.581024020910263" lon="14.543112041428685">
        <ele>617.20000000000005</ele>
        <time>2012-10-21T09:09:10Z</time>
      </trkpt>
      <trkpt lat="47.581000970676541" lon="14.543204996734858">
        <ele>616.79999999999995</ele>
        <time>2012-10-21T09:09:11Z</time>
      </trkpt>
      <trkpt lat="47.580963000655174" lon="14.543389985337853">
        <ele>616.79999999999995</ele>
        <time>2012-10-21T09:09:13Z</time>
      </trkpt>
      <trkpt lat="47.580859987065196" lon="14.543977975845337">
        <ele>616.20000000000005</ele>
        <time>2012-10-21T09:09:19Z</time>
      </trkpt>
      <trkpt lat="47.580840960144997" lon="14.544080989435315">
        <ele>615.79999999999995</ele>
        <time>2012-10-21T09:09:20Z</time>
      </trkpt>
      <trkpt lat="47.580826040357351" lon="14.544185008853674">
        <ele>615.39999999999998</ele>
        <time>2012-10-21T09:09:21Z</time>
      </trkpt>
      <trkpt lat="47.580811036750674" lon="14.544289028272033">
        <ele>615</ele>
        <time>2012-10-21T09:09:22Z</time>
      </trkpt>
      <trkpt lat="47.580791004002094" lon="14.544401010498405">
        <ele>614.60000000000002</ele>
        <time>2012-10-21T09:09:23Z</time>
      </trkpt>
      <trkpt lat="47.580687990412116" lon="14.545039040967822">
        <ele>614.60000000000002</ele>
        <time>2012-10-21T09:09:29Z</time>
      </trkpt>
      <trkpt lat="47.580672986805439" lon="14.545153034850955">
        <ele>614.20000000000005</ele>
        <time>2012-10-21T09:09:30Z</time>
      </trkpt>
      <trkpt lat="47.580657983198762" lon="14.54527398571372">
        <ele>613.79999999999995</ele>
        <time>2012-10-21T09:09:31Z</time>
      </trkpt>
      <trkpt lat="47.580635016784072" lon="14.545383034273982">
        <ele>613.20000000000005</ele>
        <time>2012-10-21T09:09:32Z</time>
      </trkpt>
      <trkpt lat="47.580615989863873" lon="14.545495016500354">
        <ele>612.79999999999995</ele>
        <time>2012-10-21T09:09:33Z</time>
      </trkpt>
      <trkpt lat="47.580596962943673" lon="14.545604987069964">
        <ele>612.39999999999998</ele>
        <time>2012-10-21T09:09:34Z</time>
      </trkpt>
      <trkpt lat="47.580551030114293" lon="14.54583297483623">
        <ele>612.39999999999998</ele>
        <time>2012-10-21T09:09:36Z</time>
      </trkpt>
      <trkpt lat="47.580485986545682" lon="14.546185014769435">
        <ele>612</ele>
        <time>2012-10-21T09:09:39Z</time>
      </trkpt>
      <trkpt lat="47.580470982939005" lon="14.546298002824187">
        <ele>611.60000000000002</ele>
        <time>2012-10-21T09:09:40Z</time>
      </trkpt>
      <trkpt lat="47.58046000264585" lon="14.546407973393798">
        <ele>611.20000000000005</ele>
        <time>2012-10-21T09:09:41Z</time>
      </trkpt>
      <trkpt lat="47.580448016524315" lon="14.546515010297298">
        <ele>610.79999999999995</ele>
        <time>2012-10-21T09:09:42Z</time>
      </trkpt>
      <trkpt lat="47.580440975725651" lon="14.546621041372418">
        <ele>610.20000000000005</ele>
        <time>2012-10-21T09:09:43Z</time>
      </trkpt>
      <trkpt lat="47.58046000264585" lon="14.547024965286255">
        <ele>610.20000000000005</ele>
        <time>2012-10-21T09:09:47Z</time>
      </trkpt>
      <trkpt lat="47.58047902956605" lon="14.547125967219472">
        <ele>610.20000000000005</ele>
        <time>2012-10-21T09:09:48Z</time>
      </trkpt>
      <trkpt lat="47.580573996528983" lon="14.547424027696252">
        <ele>609.79999999999995</ele>
        <time>2012-10-21T09:09:51Z</time>
      </trkpt>
      <trkpt lat="47.58061196655035" lon="14.547517988830805">
        <ele>609</ele>
        <time>2012-10-21T09:09:52Z</time>
      </trkpt>
      <trkpt lat="47.580657983198762" lon="14.547600969672203">
        <ele>608.60000000000002</ele>
        <time>2012-10-21T09:09:53Z</time>
      </trkpt>
      <trkpt lat="47.580708023160696" lon="14.54767900519073">
        <ele>608.20000000000005</ele>
        <time>2012-10-21T09:09:54Z</time>
      </trkpt>
      <trkpt lat="47.580756973475218" lon="14.547749999910593">
        <ele>608.20000000000005</ele>
        <time>2012-10-21T09:09:55Z</time>
      </trkpt>
      <trkpt lat="47.580913966521621" lon="14.547927025705576">
        <ele>608.20000000000005</ele>
        <time>2012-10-21T09:09:58Z</time>
      </trkpt>
      <trkpt lat="47.581196017563343" lon="14.548316029831767">
        <ele>608.20000000000005</ele>
        <time>2012-10-21T09:10:04Z</time>
      </trkpt>
      <trkpt lat="47.581263994798064" lon="14.548470005393028">
        <ele>608.20000000000005</ele>
        <time>2012-10-21T09:10:06Z</time>
      </trkpt>
      <trkpt lat="47.581317974254489" lon="14.548653988167644">
        <ele>607.79999999999995</ele>
        <time>2012-10-21T09:10:08Z</time>
      </trkpt>
      <trkpt lat="47.581344963982701" lon="14.548754990100861">
        <ele>607.39999999999998</ele>
        <time>2012-10-21T09:10:09Z</time>
      </trkpt>
      <trkpt lat="47.581363990902901" lon="14.548872001469135">
        <ele>607</ele>
        <time>2012-10-21T09:10:10Z</time>
      </trkpt>
      <trkpt lat="47.581371031701565" lon="14.548991024494171">
        <ele>606.39999999999998</ele>
        <time>2012-10-21T09:10:11Z</time>
      </trkpt>
      <trkpt lat="47.581374971196055" lon="14.549114992842078">
        <ele>606</ele>
        <time>2012-10-21T09:10:12Z</time>
      </trkpt>
      <trkpt lat="47.581378994509578" lon="14.549240972846746">
        <ele>605.60000000000002</ele>
        <time>2012-10-21T09:10:13Z</time>
      </trkpt>
      <trkpt lat="47.5813830178231" lon="14.549368964508176">
        <ele>605.20000000000005</ele>
        <time>2012-10-21T09:10:14Z</time>
      </trkpt>
      <trkpt lat="47.581387041136622" lon="14.549495028331876">
        <ele>604.79999999999995</ele>
        <time>2012-10-21T09:10:15Z</time>
      </trkpt>
      <trkpt lat="47.581389974802732" lon="14.549615979194641">
        <ele>604.20000000000005</ele>
        <time>2012-10-21T09:10:16Z</time>
      </trkpt>
      <trkpt lat="47.581398021429777" lon="14.549738019704819">
        <ele>603.79999999999995</ele>
        <time>2012-10-21T09:10:17Z</time>
      </trkpt>
      <trkpt lat="47.581416964530945" lon="14.549965001642704">
        <ele>603.79999999999995</ele>
        <time>2012-10-21T09:10:19Z</time>
      </trkpt>
      <trkpt lat="47.581477984786034" lon="14.550703028216958">
        <ele>603.79999999999995</ele>
        <time>2012-10-21T09:10:26Z</time>
      </trkpt>
      <trkpt lat="47.581486031413078" lon="14.551263023167849">
        <ele>603.79999999999995</ele>
        <time>2012-10-21T09:10:32Z</time>
      </trkpt>
      <trkpt lat="47.581482008099556" lon="14.551356984302402">
        <ele>603.39999999999998</ele>
        <time>2012-10-21T09:10:33Z</time>
      </trkpt>
      <trkpt lat="47.581473961472511" lon="14.551451029255986">
        <ele>603</ele>
        <time>2012-10-21T09:10:34Z</time>
      </trkpt>
      <trkpt lat="47.581462981179357" lon="14.551549013704062">
        <ele>602.60000000000002</ele>
        <time>2012-10-21T09:10:35Z</time>
      </trkpt>
      <trkpt lat="47.581459041684866" lon="14.55165202729404">
        <ele>602.20000000000005</ele>
        <time>2012-10-21T09:10:36Z</time>
      </trkpt>
      <trkpt lat="47.581459041684866" lon="14.551756968721747">
        <ele>601.79999999999995</ele>
        <time>2012-10-21T09:10:37Z</time>
      </trkpt>
      <trkpt lat="47.581455018371344" lon="14.55186702311039">
        <ele>601.79999999999995</ele>
        <time>2012-10-21T09:10:38Z</time>
      </trkpt>
      <trkpt lat="47.581435991451144" lon="14.552094005048275">
        <ele>601.39999999999998</ele>
        <time>2012-10-21T09:10:40Z</time>
      </trkpt>
      <trkpt lat="47.581409001722932" lon="14.552210010588169">
        <ele>600.79999999999995</ele>
        <time>2012-10-21T09:10:41Z</time>
      </trkpt>
      <trkpt lat="47.581374971196055" lon="14.55232098698616">
        <ele>600</ele>
        <time>2012-10-21T09:10:42Z</time>
      </trkpt>
      <trkpt lat="47.581332977861166" lon="14.552434980869293">
        <ele>599.60000000000002</ele>
        <time>2012-10-21T09:10:43Z</time>
      </trkpt>
      <trkpt lat="47.581290984526277" lon="14.552547968924046">
        <ele>599</ele>
        <time>2012-10-21T09:10:44Z</time>
      </trkpt>
      <trkpt lat="47.581242034211755" lon="14.55266397446394">
        <ele>598.60000000000002</ele>
        <time>2012-10-21T09:10:45Z</time>
      </trkpt>
      <trkpt lat="47.581187970936298" lon="14.552780985832214">
        <ele>598</ele>
        <time>2012-10-21T09:10:46Z</time>
      </trkpt>
      <trkpt lat="47.581130973994732" lon="14.552892968058586">
        <ele>597.60000000000002</ele>
        <time>2012-10-21T09:10:47Z</time>
      </trkpt>
      <trkpt lat="47.581070037558675" lon="14.55300897359848">
        <ele>597</ele>
        <time>2012-10-21T09:10:48Z</time>
      </trkpt>
      <trkpt lat="47.581013040617108" lon="14.5531150046736">
        <ele>596.39999999999998</ele>
        <time>2012-10-21T09:10:49Z</time>
      </trkpt>
      <trkpt lat="47.58095595985651" lon="14.55322002992034">
        <ele>596</ele>
        <time>2012-10-21T09:10:50Z</time>
      </trkpt>
      <trkpt lat="47.580898040905595" lon="14.553321031853557">
        <ele>595.39999999999998</ele>
        <time>2012-10-21T09:10:51Z</time>
      </trkpt>
      <trkpt lat="47.580791004002094" lon="14.553480036556721">
        <ele>595.39999999999998</ele>
        <time>2012-10-21T09:10:53Z</time>
      </trkpt>
      <trkpt lat="47.580687990412116" lon="14.553628982976079">
        <ele>595.39999999999998</ele>
        <time>2012-10-21T09:10:56Z</time>
      </trkpt>
      <trkpt lat="47.58047902956605" lon="14.553923020139337">
        <ele>595.39999999999998</ele>
        <time>2012-10-21T09:11:03Z</time>
      </trkpt>
      <trkpt lat="47.580303009599447" lon="14.554155031219125">
        <ele>595.39999999999998</ele>
        <time>2012-10-21T09:11:08Z</time>
      </trkpt>
      <trkpt lat="47.580261016264558" lon="14.554195012897253">
        <ele>595.39999999999998</ele>
        <time>2012-10-21T09:11:09Z</time>
      </trkpt>
      <trkpt lat="47.580219022929668" lon="14.554229965433478">
        <ele>595</ele>
        <time>2012-10-21T09:11:10Z</time>
      </trkpt>
      <trkpt lat="47.580173006281257" lon="14.554263995960355">
        <ele>594.60000000000002</ele>
        <time>2012-10-21T09:11:11Z</time>
      </trkpt>
      <trkpt lat="47.580127995461226" lon="14.554297020658851">
        <ele>594.20000000000005</ele>
        <time>2012-10-21T09:11:12Z</time>
      </trkpt>
      <trkpt lat="47.580081978812814" lon="14.554326022043824">
        <ele>593.79999999999995</ele>
        <time>2012-10-21T09:11:13Z</time>
      </trkpt>
      <trkpt lat="47.580035962164402" lon="14.554363992065191">
        <ele>593.39999999999998</ele>
        <time>2012-10-21T09:11:14Z</time>
      </trkpt>
      <trkpt lat="47.579960022121668" lon="14.554432975128293">
        <ele>593.39999999999998</ele>
        <time>2012-10-21T09:11:16Z</time>
      </trkpt>
      <trkpt lat="47.57985700853169" lon="14.554550992324948">
        <ele>593.39999999999998</ele>
        <time>2012-10-21T09:11:20Z</time>
      </trkpt>
      <trkpt lat="47.579800011590123" lon="14.554626010358334">
        <ele>593.39999999999998</ele>
        <time>2012-10-21T09:11:25Z</time>
      </trkpt>
      <trkpt lat="47.579776961356401" lon="14.554634978994727">
        <ele>593.39999999999998</ele>
        <time>2012-10-21T09:11:30Z</time>
      </trkpt>
      <trkpt lat="47.579776961356401" lon="14.554642019793391">
        <ele>593.39999999999998</ele>
        <time>2012-10-21T09:11:36Z</time>
      </trkpt>
      <trkpt lat="47.579776961356401" lon="14.554642019793391">
        <ele>593.39999999999998</ele>
        <time>2012-10-21T09:11:37Z</time>
      </trkpt>
      <trkpt lat="47.579436991363764" lon="14.554719971492887">
        <ele>584.39999999999998</ele>
        <time>2012-10-21T09:25:16Z</time>
      </trkpt>
      <trkpt lat="47.579379994422197" lon="14.55474897287786">
        <ele>584.39999999999998</ele>
        <time>2012-10-21T09:25:18Z</time>
      </trkpt>
      <trkpt lat="47.579185031354427" lon="14.554815022274852">
        <ele>584.39999999999998</ele>
        <time>2012-10-21T09:25:24Z</time>
      </trkpt>
      <trkpt lat="47.57893399335444" lon="14.554970003664494">
        <ele>584.39999999999998</ele>
        <time>2012-10-21T09:25:31Z</time>
      </trkpt>
      <trkpt lat="47.578899040818214" lon="14.555020965635777">
        <ele>584.39999999999998</ele>
        <time>2012-10-21T09:25:32Z</time>
      </trkpt>
      <trkpt lat="47.578796027228236" lon="14.555212995037436">
        <ele>584.39999999999998</ele>
        <time>2012-10-21T09:25:36Z</time>
      </trkpt>
      <trkpt lat="47.578609026968479" lon="14.555566040799022">
        <ele>584.39999999999998</ele>
        <time>2012-10-21T09:25:43Z</time>
      </trkpt>
      <trkpt lat="47.578476006165147" lon="14.555937023833394">
        <ele>584.39999999999998</ele>
        <time>2012-10-21T09:25:50Z</time>
      </trkpt>
      <trkpt lat="47.578414985910058" lon="14.556366009637713">
        <ele>584.39999999999998</ele>
        <time>2012-10-21T09:25:56Z</time>
      </trkpt>
      <trkpt lat="47.578423032537103" lon="14.556563990190625">
        <ele>584.79999999999995</ele>
        <time>2012-10-21T09:25:59Z</time>
      </trkpt>
      <trkpt lat="47.578429989516735" lon="14.556629033759236">
        <ele>585.20000000000005</ele>
        <time>2012-10-21T09:26:00Z</time>
      </trkpt>
      <trkpt lat="47.578434012830257" lon="14.556691981852055">
        <ele>585.60000000000002</ele>
        <time>2012-10-21T09:26:01Z</time>
      </trkpt>
      <trkpt lat="47.57843803614378" lon="14.556757025420666">
        <ele>586</ele>
        <time>2012-10-21T09:26:02Z</time>
      </trkpt>
      <trkpt lat="47.578456979244947" lon="14.556822990998626">
        <ele>586.39999999999998</ele>
        <time>2012-10-21T09:26:03Z</time>
      </trkpt>
      <trkpt lat="47.578502995893359" lon="14.557465966790915">
        <ele>586.39999999999998</ele>
        <time>2012-10-21T09:26:12Z</time>
      </trkpt>
      <trkpt lat="47.578491009771824" lon="14.557545008137822">
        <ele>586.39999999999998</ele>
        <time>2012-10-21T09:26:13Z</time>
      </trkpt>
      <trkpt lat="47.578449016436934" lon="14.557925965636969">
        <ele>586.39999999999998</ele>
        <time>2012-10-21T09:26:18Z</time>
      </trkpt>
      <trkpt lat="47.578362012282014" lon="14.558353023603559">
        <ele>586.39999999999998</ele>
        <time>2012-10-21T09:26:25Z</time>
      </trkpt>
      <trkpt lat="47.578338962048292" lon="14.558558966964483">
        <ele>586.79999999999995</ele>
        <time>2012-10-21T09:26:29Z</time>
      </trkpt>
      <trkpt lat="47.578335022553802" lon="14.558609006926417">
        <ele>587.20000000000005</ele>
        <time>2012-10-21T09:26:30Z</time>
      </trkpt>
      <trkpt lat="47.578326975926757" lon="14.558654017746449">
        <ele>587.79999999999995</ele>
        <time>2012-10-21T09:26:31Z</time>
      </trkpt>
      <trkpt lat="47.578323036432266" lon="14.558701040223241">
        <ele>588.20000000000005</ele>
        <time>2012-10-21T09:26:32Z</time>
      </trkpt>
      <trkpt lat="47.578323036432266" lon="14.55874303355813">
        <ele>588.60000000000002</ele>
        <time>2012-10-21T09:26:33Z</time>
      </trkpt>
      <trkpt lat="47.578341979533434" lon="14.558944031596184">
        <ele>588.60000000000002</ele>
        <time>2012-10-21T09:26:38Z</time>
      </trkpt>
      <trkpt lat="47.578353965654969" lon="14.559067999944091">
        <ele>589</ele>
        <time>2012-10-21T09:26:41Z</time>
      </trkpt>
      <trkpt lat="47.578357988968492" lon="14.559106975793839">
        <ele>589.39999999999998</ele>
        <time>2012-10-21T09:26:42Z</time>
      </trkpt>
      <trkpt lat="47.578357988968492" lon="14.559137988835573">
        <ele>589.79999999999995</ele>
        <time>2012-10-21T09:26:43Z</time>
      </trkpt>
      <trkpt lat="47.578357988968492" lon="14.55917302519083">
        <ele>590.20000000000005</ele>
        <time>2012-10-21T09:26:44Z</time>
      </trkpt>
      <trkpt lat="47.578365029767156" lon="14.559220969676971">
        <ele>590.60000000000002</ele>
        <time>2012-10-21T09:26:45Z</time>
      </trkpt>
      <trkpt lat="47.578392019495368" lon="14.559438982978463">
        <ele>590.60000000000002</ele>
        <time>2012-10-21T09:26:50Z</time>
      </trkpt>
      <trkpt lat="47.578407023102045" lon="14.559494974091649">
        <ele>591</ele>
        <time>2012-10-21T09:26:51Z</time>
      </trkpt>
      <trkpt lat="47.57841900922358" lon="14.559537973254919">
        <ele>591.39999999999998</ele>
        <time>2012-10-21T09:26:52Z</time>
      </trkpt>
      <trkpt lat="47.578429989516735" lon="14.559583989903331">
        <ele>591.79999999999995</ele>
        <time>2012-10-21T09:26:53Z</time>
      </trkpt>
      <trkpt lat="47.578444993123412" lon="14.559627994894981">
        <ele>592.20000000000005</ele>
        <time>2012-10-21T09:26:54Z</time>
      </trkpt>
      <trkpt lat="47.578465025871992" lon="14.55966898240149">
        <ele>592.60000000000002</ele>
        <time>2012-10-21T09:26:55Z</time>
      </trkpt>
      <trkpt lat="47.578480029478669" lon="14.559712987393141">
        <ele>592.60000000000002</ele>
        <time>2012-10-21T09:26:56Z</time>
      </trkpt>
      <trkpt lat="47.578574996441603" lon="14.559973999857903">
        <ele>592.60000000000002</ele>
        <time>2012-10-21T09:27:02Z</time>
      </trkpt>
      <trkpt lat="47.578636016696692" lon="14.56013903953135">
        <ele>593</ele>
        <time>2012-10-21T09:27:06Z</time>
      </trkpt>
      <trkpt lat="47.578651020303369" lon="14.56018103286624">
        <ele>593.39999999999998</ele>
        <time>2012-10-21T09:27:07Z</time>
      </trkpt>
      <trkpt lat="47.578663006424904" lon="14.560220008715987">
        <ele>594</ele>
        <time>2012-10-21T09:27:08Z</time>
      </trkpt>
      <trkpt lat="47.578682033345103" lon="14.560266025364399">
        <ele>594.39999999999998</ele>
        <time>2012-10-21T09:27:09Z</time>
      </trkpt>
      <trkpt lat="47.578700976446271" lon="14.560308018699288">
        <ele>594.79999999999995</ele>
        <time>2012-10-21T09:27:10Z</time>
      </trkpt>
      <trkpt lat="47.578823016956449" lon="14.560585040599108">
        <ele>594.79999999999995</ele>
        <time>2012-10-21T09:27:16Z</time>
      </trkpt>
      <trkpt lat="47.578917983919382" lon="14.560898020863533">
        <ele>594.79999999999995</ele>
        <time>2012-10-21T09:27:22Z</time>
      </trkpt>
      <trkpt lat="47.578983027487993" lon="14.561289036646485">
        <ele>594.79999999999995</ele>
        <time>2012-10-21T09:27:29Z</time>
      </trkpt>
      <trkpt lat="47.579025020822883" lon="14.561708969995379">
        <ele>594.79999999999995</ele>
        <time>2012-10-21T09:27:36Z</time>
      </trkpt>
      <trkpt lat="47.57904103025794" lon="14.562128987163305">
        <ele>594.79999999999995</ele>
        <time>2012-10-21T09:27:43Z</time>
      </trkpt>
      <trkpt lat="47.579028960317373" lon="14.56248396076262">
        <ele>594.79999999999995</ele>
        <time>2012-10-21T09:27:49Z</time>
      </trkpt>
      <trkpt lat="47.579005993902683" lon="14.562980001792312">
        <ele>594.79999999999995</ele>
        <time>2012-10-21T09:27:57Z</time>
      </trkpt>
      <trkpt lat="47.578995013609529" lon="14.563357019796968">
        <ele>594.79999999999995</ele>
        <time>2012-10-21T09:28:02Z</time>
      </trkpt>
      <trkpt lat="47.578986966982484" lon="14.563520969823003">
        <ele>594.79999999999995</ele>
        <time>2012-10-21T09:28:04Z</time>
      </trkpt>
      <trkpt lat="47.578959977254272" lon="14.564129998907447">
        <ele>594.79999999999995</ele>
        <time>2012-10-21T09:28:10Z</time>
      </trkpt>
      <trkpt lat="47.578944973647594" lon="14.5643500238657">
        <ele>594.20000000000005</ele>
        <time>2012-10-21T09:28:12Z</time>
      </trkpt>
      <trkpt lat="47.578941034153104" lon="14.564467035233974">
        <ele>593.79999999999995</ele>
        <time>2012-10-21T09:28:13Z</time>
      </trkpt>
      <trkpt lat="47.578941034153104" lon="14.564591003581882">
        <ele>593.39999999999998</ele>
        <time>2012-10-21T09:28:14Z</time>
      </trkpt>
      <trkpt lat="47.578941034153104" lon="14.564712038263679">
        <ele>592.79999999999995</ele>
        <time>2012-10-21T09:28:15Z</time>
      </trkpt>
      <trkpt lat="47.578941034153104" lon="14.564830977469683">
        <ele>592.39999999999998</ele>
        <time>2012-10-21T09:28:16Z</time>
      </trkpt>
      <trkpt lat="47.578941034153104" lon="14.564951006323099">
        <ele>592.39999999999998</ele>
        <time>2012-10-21T09:28:17Z</time>
      </trkpt>
      <trkpt lat="47.578948996961117" lon="14.565192991867661">
        <ele>592</ele>
        <time>2012-10-21T09:28:19Z</time>
      </trkpt>
      <trkpt lat="47.578953020274639" lon="14.565310003235936">
        <ele>591.39999999999998</ele>
        <time>2012-10-21T09:28:20Z</time>
      </trkpt>
      <trkpt lat="47.578959977254272" lon="14.565423997119069">
        <ele>591</ele>
        <time>2012-10-21T09:28:21Z</time>
      </trkpt>
      <trkpt lat="47.578968023881316" lon="14.56553497351706">
        <ele>590.60000000000002</ele>
        <time>2012-10-21T09:28:22Z</time>
      </trkpt>
      <trkpt lat="47.578975986689329" lon="14.5656399987638">
        <ele>590</ele>
        <time>2012-10-21T09:28:23Z</time>
      </trkpt>
      <trkpt lat="47.578995013609529" lon="14.565838985145092">
        <ele>590</ele>
        <time>2012-10-21T09:28:25Z</time>
      </trkpt>
      <trkpt lat="47.579037006944418" lon="14.566325973719358">
        <ele>590</ele>
        <time>2012-10-21T09:28:31Z</time>
      </trkpt>
      <trkpt lat="47.57904103025794" lon="14.566450025886297">
        <ele>590</ele>
        <time>2012-10-21T09:28:33Z</time>
      </trkpt>
      <trkpt lat="47.579047987237573" lon="14.566660998389125">
        <ele>590</ele>
        <time>2012-10-21T09:28:37Z</time>
      </trkpt>
      <trkpt lat="47.57904396392405" lon="14.566983031108975">
        <ele>590</ele>
        <time>2012-10-21T09:28:44Z</time>
      </trkpt>
      <trkpt lat="47.579028960317373" lon="14.567280001938343">
        <ele>590.39999999999998</ele>
        <time>2012-10-21T09:28:51Z</time>
      </trkpt>
      <trkpt lat="47.579025020822883" lon="14.567320989444852">
        <ele>591.39999999999998</ele>
        <time>2012-10-21T09:28:52Z</time>
      </trkpt>
      <trkpt lat="47.57902099750936" lon="14.567362982779741">
        <ele>591.79999999999995</ele>
        <time>2012-10-21T09:28:53Z</time>
      </trkpt>
      <trkpt lat="47.57902099750936" lon="14.567406987771392">
        <ele>592.20000000000005</ele>
        <time>2012-10-21T09:28:54Z</time>
      </trkpt>
      <trkpt lat="47.578999036923051" lon="14.567562974989414">
        <ele>592.20000000000005</ele>
        <time>2012-10-21T09:28:58Z</time>
      </trkpt>
      <trkpt lat="47.578986966982484" lon="14.567643022164702">
        <ele>592.60000000000002</ele>
        <time>2012-10-21T09:29:00Z</time>
      </trkpt>
      <trkpt lat="47.578986966982484" lon="14.567680992186069">
        <ele>593</ele>
        <time>2012-10-21T09:29:01Z</time>
      </trkpt>
      <trkpt lat="47.578983027487993" lon="14.567719968035817">
        <ele>593.39999999999998</ele>
        <time>2012-10-21T09:29:02Z</time>
      </trkpt>
      <trkpt lat="47.578983027487993" lon="14.567760033532977">
        <ele>593.79999999999995</ele>
        <time>2012-10-21T09:29:03Z</time>
      </trkpt>
      <trkpt lat="47.578983027487993" lon="14.567796997725964">
        <ele>594.20000000000005</ele>
        <time>2012-10-21T09:29:04Z</time>
      </trkpt>
      <trkpt lat="47.578971963375807" lon="14.567870004102588">
        <ele>594.20000000000005</ele>
        <time>2012-10-21T09:29:06Z</time>
      </trkpt>
      <trkpt lat="47.578964000567794" lon="14.567978968843818">
        <ele>594.60000000000002</ele>
        <time>2012-10-21T09:29:09Z</time>
      </trkpt>
      <trkpt lat="47.578959977254272" lon="14.568010987713933">
        <ele>595.20000000000005</ele>
        <time>2012-10-21T09:29:10Z</time>
      </trkpt>
      <trkpt lat="47.578964000567794" lon="14.568048035725951">
        <ele>595.60000000000002</ele>
        <time>2012-10-21T09:29:11Z</time>
      </trkpt>
      <trkpt lat="47.578964000567794" lon="14.568083994090557">
        <ele>596</ele>
        <time>2012-10-21T09:29:12Z</time>
      </trkpt>
      <trkpt lat="47.578964000567794" lon="14.568120958283544">
        <ele>596.39999999999998</ele>
        <time>2012-10-21T09:29:13Z</time>
      </trkpt>
      <trkpt lat="47.578975986689329" lon="14.568296978250146">
        <ele>596.79999999999995</ele>
        <time>2012-10-21T09:29:18Z</time>
      </trkpt>
      <trkpt lat="47.578975986689329" lon="14.568330002948642">
        <ele>597.20000000000005</ele>
        <time>2012-10-21T09:29:19Z</time>
      </trkpt>
      <trkpt lat="47.578975986689329" lon="14.568367972970009">
        <ele>597.60000000000002</ele>
        <time>2012-10-21T09:29:20Z</time>
      </trkpt>
      <trkpt lat="47.578975986689329" lon="14.568407032638788">
        <ele>598.20000000000005</ele>
        <time>2012-10-21T09:29:21Z</time>
      </trkpt>
      <trkpt lat="47.578975986689329" lon="14.568450031802058">
        <ele>598.60000000000002</ele>
        <time>2012-10-21T09:29:22Z</time>
      </trkpt>
      <trkpt lat="47.578995013609529" lon="14.568594032898545">
        <ele>599</ele>
        <time>2012-10-21T09:29:27Z</time>
      </trkpt>
      <trkpt lat="47.578990990296006" lon="14.568621022626758">
        <ele>599.39999999999998</ele>
        <time>2012-10-21T09:29:28Z</time>
      </trkpt>
      <trkpt lat="47.578986966982484" lon="14.568649018183351">
        <ele>599.79999999999995</ele>
        <time>2012-10-21T09:29:29Z</time>
      </trkpt>
      <trkpt lat="47.578986966982484" lon="14.568681959062815">
        <ele>600.20000000000005</ele>
        <time>2012-10-21T09:29:30Z</time>
      </trkpt>
      <trkpt lat="47.578990990296006" lon="14.56871397793293">
        <ele>600.60000000000002</ele>
        <time>2012-10-21T09:29:31Z</time>
      </trkpt>
      <trkpt lat="47.578986966982484" lon="14.568783966824412">
        <ele>600.60000000000002</ele>
        <time>2012-10-21T09:29:33Z</time>
      </trkpt>
      <trkpt lat="47.578979004174471" lon="14.568939032033086">
        <ele>601</ele>
        <time>2012-10-21T09:29:38Z</time>
      </trkpt>
      <trkpt lat="47.578979004174471" lon="14.568967027589679">
        <ele>601.39999999999998</ele>
        <time>2012-10-21T09:29:39Z</time>
      </trkpt>
      <trkpt lat="47.578979004174471" lon="14.568998962640762">
        <ele>602</ele>
        <time>2012-10-21T09:29:40Z</time>
      </trkpt>
      <trkpt lat="47.578983027487993" lon="14.569029975682497">
        <ele>602.39999999999998</ele>
        <time>2012-10-21T09:29:41Z</time>
      </trkpt>
      <trkpt lat="47.578979004174471" lon="14.569059982895851">
        <ele>602.79999999999995</ele>
        <time>2012-10-21T09:29:42Z</time>
      </trkpt>
      <trkpt lat="47.578964000567794" lon="14.569210018962622">
        <ele>602.79999999999995</ele>
        <time>2012-10-21T09:29:47Z</time>
      </trkpt>
      <trkpt lat="47.578959977254272" lon="14.569240026175976">
        <ele>603.20000000000005</ele>
        <time>2012-10-21T09:29:48Z</time>
      </trkpt>
      <trkpt lat="47.578964000567794" lon="14.569263998419046">
        <ele>603.60000000000002</ele>
        <time>2012-10-21T09:29:49Z</time>
      </trkpt>
      <trkpt lat="47.578968023881316" lon="14.56929299980402">
        <ele>604</ele>
        <time>2012-10-21T09:29:50Z</time>
      </trkpt>
      <trkpt lat="47.578968023881316" lon="14.569326024502516">
        <ele>604.39999999999998</ele>
        <time>2012-10-21T09:29:51Z</time>
      </trkpt>
      <trkpt lat="47.578964000567794" lon="14.569360977038741">
        <ele>604.79999999999995</ele>
        <time>2012-10-21T09:29:52Z</time>
      </trkpt>
      <trkpt lat="47.578968023881316" lon="14.569419985637069">
        <ele>604.79999999999995</ele>
        <time>2012-10-21T09:29:54Z</time>
      </trkpt>
      <trkpt lat="47.578953020274639" lon="14.569577984511852">
        <ele>605.39999999999998</ele>
        <time>2012-10-21T09:29:59Z</time>
      </trkpt>
      <trkpt lat="47.57895695976913" lon="14.569608997553587">
        <ele>605.79999999999995</ele>
        <time>2012-10-21T09:30:00Z</time>
      </trkpt>
      <trkpt lat="47.578964000567794" lon="14.569631963968277">
        <ele>606.20000000000005</ele>
        <time>2012-10-21T09:30:01Z</time>
      </trkpt>
      <trkpt lat="47.578968023881316" lon="14.569639004766941">
        <ele>606.60000000000002</ele>
        <time>2012-10-21T09:30:02Z</time>
      </trkpt>
      <trkpt lat="47.578971963375807" lon="14.569655014201999">
        <ele>607</ele>
        <time>2012-10-21T09:30:03Z</time>
      </trkpt>
      <trkpt lat="47.578975986689329" lon="14.569684015586972">
        <ele>607</ele>
        <time>2012-10-21T09:30:10Z</time>
      </trkpt>
      <trkpt lat="47.578975986689329" lon="14.569684015586972">
        <ele>607</ele>
        <time>2012-10-21T09:30:24Z</time>
      </trkpt>
      <trkpt lat="47.578975986689329" lon="14.569684015586972">
        <ele>607</ele>
        <time>2012-10-21T09:30:39Z</time>
      </trkpt>
      <trkpt lat="47.579001970589161" lon="14.56974403001368">
        <ele>607</ele>
        <time>2012-10-21T09:30:48Z</time>
      </trkpt>
      <trkpt lat="47.57904396392405" lon="14.569875039160252">
        <ele>607</ele>
        <time>2012-10-21T09:30:55Z</time>
      </trkpt>
      <trkpt lat="47.57904103025794" lon="14.569898005574942">
        <ele>607</ele>
        <time>2012-10-21T09:31:02Z</time>
      </trkpt>
      <trkpt lat="47.57904103025794" lon="14.569898005574942">
        <ele>607</ele>
        <time>2012-10-21T09:31:17Z</time>
      </trkpt>
      <trkpt lat="47.57904103025794" lon="14.569898005574942">
        <ele>607.39999999999998</ele>
        <time>2012-10-21T09:31:18Z</time>
      </trkpt>
      <trkpt lat="47.57904103025794" lon="14.569898005574942">
        <ele>607.79999999999995</ele>
        <time>2012-10-21T09:31:19Z</time>
      </trkpt>
      <trkpt lat="47.57904103025794" lon="14.569898005574942">
        <ele>608.20000000000005</ele>
        <time>2012-10-21T09:31:20Z</time>
      </trkpt>
      <trkpt lat="47.57904103025794" lon="14.569898005574942">
        <ele>609</ele>
        <time>2012-10-21T09:31:21Z</time>
      </trkpt>
      <trkpt lat="47.57904103025794" lon="14.569898005574942">
        <ele>609</ele>
        <time>2012-10-21T09:31:28Z</time>
      </trkpt>
      <trkpt lat="47.57904103025794" lon="14.569900017231703">
        <ele>609</ele>
        <time>2012-10-21T09:31:38Z</time>
      </trkpt>
      <trkpt lat="47.579056033864617" lon="14.569922983646393">
        <ele>609</ele>
        <time>2012-10-21T09:31:43Z</time>
      </trkpt>
      <trkpt lat="47.579074976965785" lon="14.569962965324521">
        <ele>609</ele>
        <time>2012-10-21T09:31:45Z</time>
      </trkpt>
      <trkpt lat="47.579094003885984" lon="14.570104032754898">
        <ele>609</ele>
        <time>2012-10-21T09:31:50Z</time>
      </trkpt>
      <trkpt lat="47.579158963635564" lon="14.570309976115823">
        <ele>609</ele>
        <time>2012-10-21T09:31:56Z</time>
      </trkpt>
      <trkpt lat="47.579249991104007" lon="14.570608958601952">
        <ele>609</ele>
        <time>2012-10-21T09:32:02Z</time>
      </trkpt>
      <trkpt lat="47.579369014129043" lon="14.571044985204935">
        <ele>609</ele>
        <time>2012-10-21T09:32:08Z</time>
      </trkpt>
      <trkpt lat="47.579414024949074" lon="14.571309015154839">
        <ele>608.20000000000005</ele>
        <time>2012-10-21T09:32:11Z</time>
      </trkpt>
      <trkpt lat="47.579430034384131" lon="14.57139995880425">
        <ele>607.79999999999995</ele>
        <time>2012-10-21T09:32:12Z</time>
      </trkpt>
      <trkpt lat="47.579445037990808" lon="14.571495009586215">
        <ele>607.39999999999998</ele>
        <time>2012-10-21T09:32:13Z</time>
      </trkpt>
      <trkpt lat="47.579463981091976" lon="14.571603974327445">
        <ele>607</ele>
        <time>2012-10-21T09:32:14Z</time>
      </trkpt>
      <trkpt lat="47.579509997740388" lon="14.571917960420251">
        <ele>606.60000000000002</ele>
        <time>2012-10-21T09:32:17Z</time>
      </trkpt>
      <trkpt lat="47.579520978033543" lon="14.572023991495371">
        <ele>606</ele>
        <time>2012-10-21T09:32:18Z</time>
      </trkpt>
      <trkpt lat="47.57953598164022" lon="14.572132034227252">
        <ele>605.60000000000002</ele>
        <time>2012-10-21T09:32:19Z</time>
      </trkpt>
      <trkpt lat="47.579551991075277" lon="14.572245022282004">
        <ele>605.20000000000005</ele>
        <time>2012-10-21T09:32:20Z</time>
      </trkpt>
      <trkpt lat="47.579559031873941" lon="14.572350969538093">
        <ele>604.79999999999995</ele>
        <time>2012-10-21T09:32:21Z</time>
      </trkpt>
      <trkpt lat="47.579632038250566" lon="14.573172982782125">
        <ele>604.79999999999995</ele>
        <time>2012-10-21T09:32:29Z</time>
      </trkpt>
      <trkpt lat="47.579659027978778" lon="14.573639016598463">
        <ele>604.79999999999995</ele>
        <time>2012-10-21T09:32:35Z</time>
      </trkpt>
      <trkpt lat="47.579670008271933" lon="14.573702970519662">
        <ele>604.79999999999995</ele>
        <time>2012-10-21T09:32:36Z</time>
      </trkpt>
      <trkpt lat="47.579742008820176" lon="14.5739980135113">
        <ele>604.79999999999995</ele>
        <time>2012-10-21T09:32:41Z</time>
      </trkpt>
      <trkpt lat="47.5798150151968" lon="14.574331026524305">
        <ele>604.39999999999998</ele>
        <time>2012-10-21T09:32:47Z</time>
      </trkpt>
      <trkpt lat="47.579822978004813" lon="14.574379976838827">
        <ele>604</ele>
        <time>2012-10-21T09:32:48Z</time>
      </trkpt>
      <trkpt lat="47.579822978004813" lon="14.574424987658858">
        <ele>603.60000000000002</ele>
        <time>2012-10-21T09:32:49Z</time>
      </trkpt>
      <trkpt lat="47.579819038510323" lon="14.574474021792412">
        <ele>603.20000000000005</ele>
        <time>2012-10-21T09:32:50Z</time>
      </trkpt>
      <trkpt lat="47.5798150151968" lon="14.574511991813779">
        <ele>602.79999999999995</ele>
        <time>2012-10-21T09:32:51Z</time>
      </trkpt>
      <trkpt lat="47.579788025468588" lon="14.574582986533642">
        <ele>602.79999999999995</ele>
        <time>2012-10-21T09:32:53Z</time>
      </trkpt>
      <trkpt lat="47.579753994941711" lon="14.574752971529961">
        <ele>602.79999999999995</ele>
        <time>2012-10-21T09:32:58Z</time>
      </trkpt>
      <trkpt lat="47.579742008820176" lon="14.574778033420444">
        <ele>602.79999999999995</ele>
        <time>2012-10-21T09:33:00Z</time>
      </trkpt>
      <trkpt lat="47.579738991335034" lon="14.574780967086554">
        <ele>602.79999999999995</ele>
        <time>2012-10-21T09:33:02Z</time>
      </trkpt>
      <trkpt lat="47.579734968021512" lon="14.574787002056837">
        <ele>602.39999999999998</ele>
        <time>2012-10-21T09:33:03Z</time>
      </trkpt>
      <trkpt lat="47.579734968021512" lon="14.574793959036469">
        <ele>602</ele>
        <time>2012-10-21T09:33:04Z</time>
      </trkpt>
      <trkpt lat="47.579738991335034" lon="14.574796976521611">
        <ele>601.60000000000002</ele>
        <time>2012-10-21T09:33:05Z</time>
      </trkpt>
      <trkpt lat="47.579738991335034" lon="14.574799994006753">
        <ele>601.20000000000005</ele>
        <time>2012-10-21T09:33:06Z</time>
      </trkpt>
      <trkpt lat="47.579734968021512" lon="14.574803011491895">
        <ele>600.79999999999995</ele>
        <time>2012-10-21T09:33:07Z</time>
      </trkpt>
      <trkpt lat="47.579731028527021" lon="14.574805023148656">
        <ele>600.79999999999995</ele>
        <time>2012-10-21T09:33:10Z</time>
      </trkpt>
      <trkpt lat="47.579719964414835" lon="14.57481499761343">
        <ele>600.79999999999995</ele>
        <time>2012-10-21T09:33:19Z</time>
      </trkpt>
      <trkpt lat="47.579719964414835" lon="14.57481499761343">
        <ele>600.79999999999995</ele>
        <time>2012-10-21T09:33:32Z</time>
      </trkpt>
      <trkpt lat="47.579719964414835" lon="14.57481499761343">
        <ele>600.79999999999995</ele>
        <time>2012-10-21T09:33:45Z</time>
      </trkpt>
      <trkpt lat="47.579719964414835" lon="14.574818015098572">
        <ele>600.79999999999995</ele>
        <time>2012-10-21T09:33:58Z</time>
      </trkpt>
      <trkpt lat="47.579727005213499" lon="14.574855985119939">
        <ele>600.79999999999995</ele>
        <time>2012-10-21T09:34:11Z</time>
      </trkpt>
      <trkpt lat="47.579727005213499" lon="14.575020018965006">
        <ele>600.79999999999995</ele>
        <time>2012-10-21T09:34:15Z</time>
      </trkpt>
      <trkpt lat="47.579727005213499" lon="14.575073998421431">
        <ele>600.79999999999995</ele>
        <time>2012-10-21T09:34:16Z</time>
      </trkpt>
      <trkpt lat="47.579734968021512" lon="14.575210958719254">
        <ele>600.79999999999995</ele>
        <time>2012-10-21T09:34:18Z</time>
      </trkpt>
      <trkpt lat="47.579762041568756" lon="14.575359988957644">
        <ele>600.79999999999995</ele>
        <time>2012-10-21T09:34:20Z</time>
      </trkpt>
      <trkpt lat="47.579768998548388" lon="14.575443975627422">
        <ele>600.39999999999998</ele>
        <time>2012-10-21T09:34:21Z</time>
      </trkpt>
      <trkpt lat="47.579784002155066" lon="14.575532991439104">
        <ele>599.79999999999995</ele>
        <time>2012-10-21T09:34:22Z</time>
      </trkpt>
      <trkpt lat="47.579795988276601" lon="14.575627036392689">
        <ele>599.39999999999998</ele>
        <time>2012-10-21T09:34:23Z</time>
      </trkpt>
      <trkpt lat="47.579806968569756" lon="14.575727032497525">
        <ele>599</ele>
        <time>2012-10-21T09:34:24Z</time>
      </trkpt>
      <trkpt lat="47.579819038510323" lon="14.575834991410375">
        <ele>598.39999999999998</ele>
        <time>2012-10-21T09:34:25Z</time>
      </trkpt>
      <trkpt lat="47.579822978004813" lon="14.575955020263791">
        <ele>597.79999999999995</ele>
        <time>2012-10-21T09:34:26Z</time>
      </trkpt>
      <trkpt lat="47.579822978004813" lon="14.576076976954937">
        <ele>597.20000000000005</ele>
        <time>2012-10-21T09:34:27Z</time>
      </trkpt>
      <trkpt lat="47.579819038510323" lon="14.576205974444747">
        <ele>596.60000000000002</ele>
        <time>2012-10-21T09:34:28Z</time>
      </trkpt>
      <trkpt lat="47.579819038510323" lon="14.576342012733221">
        <ele>596</ele>
        <time>2012-10-21T09:34:29Z</time>
      </trkpt>
      <trkpt lat="47.5798150151968" lon="14.576484002172947">
        <ele>595.20000000000005</ele>
        <time>2012-10-21T09:34:30Z</time>
      </trkpt>
      <trkpt lat="47.579806968569756" lon="14.576631020754576">
        <ele>594.39999999999998</ele>
        <time>2012-10-21T09:34:31Z</time>
      </trkpt>
      <trkpt lat="47.579803029075265" lon="14.576782984659076">
        <ele>593.79999999999995</ele>
        <time>2012-10-21T09:34:32Z</time>
      </trkpt>
      <trkpt lat="47.579800011590123" lon="14.576945006847382">
        <ele>593</ele>
        <time>2012-10-21T09:34:33Z</time>
      </trkpt>
      <trkpt lat="47.579791964963078" lon="14.577104011550546">
        <ele>592.20000000000005</ele>
        <time>2012-10-21T09:34:34Z</time>
      </trkpt>
      <trkpt lat="47.579784002155066" lon="14.577262010425329">
        <ele>591.20000000000005</ele>
        <time>2012-10-21T09:34:35Z</time>
      </trkpt>
      <trkpt lat="47.579780984669924" lon="14.577416991814971">
        <ele>590.39999999999998</ele>
        <time>2012-10-21T09:34:36Z</time>
      </trkpt>
      <trkpt lat="47.579776961356401" lon="14.5775640103966">
        <ele>589.60000000000002</ele>
        <time>2012-10-21T09:34:37Z</time>
      </trkpt>
      <trkpt lat="47.579768998548388" lon="14.577700970694423">
        <ele>588.60000000000002</ele>
        <time>2012-10-21T09:34:38Z</time>
      </trkpt>
      <trkpt lat="47.579768998548388" lon="14.577834997326136">
        <ele>586.79999999999995</ele>
        <time>2012-10-21T09:34:39Z</time>
      </trkpt>
      <trkpt lat="47.579768998548388" lon="14.577969023957849">
        <ele>586</ele>
        <time>2012-10-21T09:34:40Z</time>
      </trkpt>
      <trkpt lat="47.579773021861911" lon="14.578224001452327">
        <ele>585.60000000000002</ele>
        <time>2012-10-21T09:34:42Z</time>
      </trkpt>
      <trkpt lat="47.579780984669924" lon="14.578333972021937">
        <ele>585.20000000000005</ele>
        <time>2012-10-21T09:34:43Z</time>
      </trkpt>
      <trkpt lat="47.579784002155066" lon="14.57844402641058">
        <ele>584.79999999999995</ele>
        <time>2012-10-21T09:34:44Z</time>
      </trkpt>
      <trkpt lat="47.579803029075265" lon="14.578529018908739">
        <ele>584.39999999999998</ele>
        <time>2012-10-21T09:34:45Z</time>
      </trkpt>
      <trkpt lat="47.579825995489955" lon="14.578614011406898">
        <ele>584</ele>
        <time>2012-10-21T09:34:46Z</time>
      </trkpt>
      <trkpt lat="47.5799669791013" lon="14.578911988064647">
        <ele>584</ele>
        <time>2012-10-21T09:34:50Z</time>
      </trkpt>
      <trkpt lat="47.579997992143035" lon="14.578977031633258">
        <ele>584</ele>
        <time>2012-10-21T09:34:51Z</time>
      </trkpt>
      <trkpt lat="47.580105029046535" lon="14.57917501218617">
        <ele>584</ele>
        <time>2012-10-21T09:34:54Z</time>
      </trkpt>
      <trkpt lat="47.58013897575438" lon="14.579325970262289">
        <ele>584</ele>
        <time>2012-10-21T09:34:56Z</time>
      </trkpt>
      <trkpt lat="47.580279959365726" lon="14.579780017957091">
        <ele>584</ele>
        <time>2012-10-21T09:35:02Z</time>
      </trkpt>
      <trkpt lat="47.580413985997438" lon="14.58001496270299">
        <ele>583.60000000000002</ele>
        <time>2012-10-21T09:35:05Z</time>
      </trkpt>
      <trkpt lat="47.58046000264585" lon="14.580095009878278">
        <ele>583.20000000000005</ele>
        <time>2012-10-21T09:35:06Z</time>
      </trkpt>
      <trkpt lat="47.580505013465881" lon="14.580181008204818">
        <ele>582.79999999999995</ele>
        <time>2012-10-21T09:35:07Z</time>
      </trkpt>
      <trkpt lat="47.580547006800771" lon="14.580263989046216">
        <ele>582.39999999999998</ele>
        <time>2012-10-21T09:35:08Z</time>
      </trkpt>
      <trkpt lat="47.580581959336996" lon="14.580344036221504">
        <ele>582</ele>
        <time>2012-10-21T09:35:09Z</time>
      </trkpt>
      <trkpt lat="47.580639040097594" lon="14.580514021217823">
        <ele>581.60000000000002</ele>
        <time>2012-10-21T09:35:11Z</time>
      </trkpt>
      <trkpt lat="47.580662006512284" lon="14.580632960423827">
        <ele>581</ele>
        <time>2012-10-21T09:35:12Z</time>
      </trkpt>
      <trkpt lat="47.580687990412116" lon="14.580758018419147">
        <ele>580.60000000000002</ele>
        <time>2012-10-21T09:35:13Z</time>
      </trkpt>
      <trkpt lat="47.580714980140328" lon="14.580874023959041">
        <ele>580.20000000000005</ele>
        <time>2012-10-21T09:35:14Z</time>
      </trkpt>
      <trkpt lat="47.580745993182063" lon="14.580975025892258">
        <ele>579.79999999999995</ele>
        <time>2012-10-21T09:35:15Z</time>
      </trkpt>
      <trkpt lat="47.580853030085564" lon="14.581269985064864">
        <ele>579.79999999999995</ele>
        <time>2012-10-21T09:35:18Z</time>
      </trkpt>
      <trkpt lat="47.581066014245152" lon="14.581785975024104">
        <ele>579.79999999999995</ele>
        <time>2012-10-21T09:35:24Z</time>
      </trkpt>
      <trkpt lat="47.581244967877865" lon="14.582252008840442">
        <ele>579.79999999999995</ele>
        <time>2012-10-21T09:35:30Z</time>
      </trkpt>
      <trkpt lat="47.581482008099556" lon="14.582714019343257">
        <ele>579.79999999999995</ele>
        <time>2012-10-21T09:35:37Z</time>
      </trkpt>
      <trkpt lat="47.581726005300879" lon="14.582994980737567">
        <ele>579.79999999999995</ele>
        <time>2012-10-21T09:35:43Z</time>
      </trkpt>
      <trkpt lat="47.581904958933592" lon="14.58321500569582">
        <ele>579.79999999999995</ele>
        <time>2012-10-21T09:35:47Z</time>
      </trkpt>
      <trkpt lat="47.581939995288849" lon="14.583291029557586">
        <ele>579.79999999999995</ele>
        <time>2012-10-21T09:35:48Z</time>
      </trkpt>
      <trkpt lat="47.582043008878827" lon="14.583676010370255">
        <ele>579.79999999999995</ele>
        <time>2012-10-21T09:35:52Z</time>
      </trkpt>
      <trkpt lat="47.582058012485504" lon="14.583781035616994">
        <ele>579.79999999999995</ele>
        <time>2012-10-21T09:35:53Z</time>
      </trkpt>
      <trkpt lat="47.582161026075482" lon="14.584521995857358">
        <ele>579.79999999999995</ele>
        <time>2012-10-21T09:36:00Z</time>
      </trkpt>
      <trkpt lat="47.582172006368637" lon="14.584618974477053">
        <ele>579.39999999999998</ele>
        <time>2012-10-21T09:36:01Z</time>
      </trkpt>
      <trkpt lat="47.582183992490172" lon="14.584716036915779">
        <ele>579</ele>
        <time>2012-10-21T09:36:02Z</time>
      </trkpt>
      <trkpt lat="47.582198996096849" lon="14.584811003878713">
        <ele>578.60000000000002</ele>
        <time>2012-10-21T09:36:03Z</time>
      </trkpt>
      <trkpt lat="47.582206958904862" lon="14.584907982498407">
        <ele>578.20000000000005</ele>
        <time>2012-10-21T09:36:04Z</time>
      </trkpt>
      <trkpt lat="47.582221962511539" lon="14.585004961118102">
        <ele>577.79999999999995</ele>
        <time>2012-10-21T09:36:05Z</time>
      </trkpt>
      <trkpt lat="47.582264039665461" lon="14.585296986624599">
        <ele>577.79999999999995</ele>
        <time>2012-10-21T09:36:08Z</time>
      </trkpt>
      <trkpt lat="47.582282982766628" lon="14.585487004369497">
        <ele>577.79999999999995</ele>
        <time>2012-10-21T09:36:10Z</time>
      </trkpt>
      <trkpt lat="47.582313995808363" lon="14.585866034030914">
        <ele>577.79999999999995</ele>
        <time>2012-10-21T09:36:14Z</time>
      </trkpt>
      <trkpt lat="47.582264039665461" lon="14.586528036743402">
        <ele>577.79999999999995</ele>
        <time>2012-10-21T09:36:21Z</time>
      </trkpt>
      <trkpt lat="47.582152979448438" lon="14.587366981431842">
        <ele>577.79999999999995</ele>
        <time>2012-10-21T09:36:30Z</time>
      </trkpt>
      <trkpt lat="47.582073016092181" lon="14.587995959445834">
        <ele>577.79999999999995</ele>
        <time>2012-10-21T09:36:37Z</time>
      </trkpt>
      <trkpt lat="47.581893978640437" lon="14.588614040985703">
        <ele>577.79999999999995</ele>
        <time>2012-10-21T09:36:44Z</time>
      </trkpt>
      <trkpt lat="47.581588961184025" lon="14.589353995397687">
        <ele>577.79999999999995</ele>
        <time>2012-10-21T09:36:53Z</time>
      </trkpt>
      <trkpt lat="47.581305988132954" lon="14.589982973411679">
        <ele>577.79999999999995</ele>
        <time>2012-10-21T09:37:01Z</time>
      </trkpt>
      <trkpt lat="47.58110398426652" lon="14.590494018048048">
        <ele>577.79999999999995</ele>
        <time>2012-10-21T09:37:08Z</time>
      </trkpt>
      <trkpt lat="47.580886976793408" lon="14.59099299274385">
        <ele>577.79999999999995</ele>
        <time>2012-10-21T09:37:16Z</time>
      </trkpt>
      <trkpt lat="47.580668963491917" lon="14.591476963832974">
        <ele>577.79999999999995</ele>
        <time>2012-10-21T09:37:25Z</time>
      </trkpt>
      <trkpt lat="47.580650020390749" lon="14.591533038765192">
        <ele>577.79999999999995</ele>
        <time>2012-10-21T09:37:26Z</time>
      </trkpt>
      <trkpt lat="47.580569973215461" lon="14.591707969084382">
        <ele>577.79999999999995</ele>
        <time>2012-10-21T09:37:30Z</time>
      </trkpt>
      <trkpt lat="47.58043703623116" lon="14.592018015682697">
        <ele>577.79999999999995</ele>
        <time>2012-10-21T09:37:37Z</time>
      </trkpt>
      <trkpt lat="47.580367969349027" lon="14.592165034264326">
        <ele>578.20000000000005</ele>
        <time>2012-10-21T09:37:41Z</time>
      </trkpt>
      <trkpt lat="47.580349026247859" lon="14.592208033427596">
        <ele>578.60000000000002</ele>
        <time>2012-10-21T09:37:42Z</time>
      </trkpt>
      <trkpt lat="47.580325976014137" lon="14.592255977913737">
        <ele>579</ele>
        <time>2012-10-21T09:37:43Z</time>
      </trkpt>
      <trkpt lat="47.58030703291297" lon="14.592319009825587">
        <ele>579.39999999999998</ele>
        <time>2012-10-21T09:37:44Z</time>
      </trkpt>
      <trkpt lat="47.58028800599277" lon="14.592378018423915">
        <ele>579.79999999999995</ele>
        <time>2012-10-21T09:37:45Z</time>
      </trkpt>
      <trkpt lat="47.580226985737681" lon="14.59266803227365">
        <ele>579.79999999999995</ele>
        <time>2012-10-21T09:37:50Z</time>
      </trkpt>
      <trkpt lat="47.580173006281257" lon="14.59299199283123">
        <ele>579.79999999999995</ele>
        <time>2012-10-21T09:37:56Z</time>
      </trkpt>
      <trkpt lat="47.580150961875916" lon="14.593409998342395">
        <ele>579.79999999999995</ele>
        <time>2012-10-21T09:38:03Z</time>
      </trkpt>
      <trkpt lat="47.58013897575438" lon="14.593545030802488">
        <ele>579.79999999999995</ele>
        <time>2012-10-21T09:38:05Z</time>
      </trkpt>
      <trkpt lat="47.580105029046535" lon="14.59376497194171">
        <ele>579.79999999999995</ele>
        <time>2012-10-21T09:38:08Z</time>
      </trkpt>
      <trkpt lat="47.580054989084601" lon="14.594252966344357">
        <ele>579.79999999999995</ele>
        <time>2012-10-21T09:38:14Z</time>
      </trkpt>
      <trkpt lat="47.580048032104969" lon="14.594337036833167">
        <ele>579.79999999999995</ele>
        <time>2012-10-21T09:38:15Z</time>
      </trkpt>
      <trkpt lat="47.580032022669911" lon="14.594604000449181">
        <ele>579.79999999999995</ele>
        <time>2012-10-21T09:38:18Z</time>
      </trkpt>
      <trkpt lat="47.58000897243619" lon="14.594783037900925">
        <ele>579.79999999999995</ele>
        <time>2012-10-21T09:38:20Z</time>
      </trkpt>
      <trkpt lat="47.579903025180101" lon="14.595295004546642">
        <ele>579.39999999999998</ele>
        <time>2012-10-21T09:38:26Z</time>
      </trkpt>
      <trkpt lat="47.579887015745044" lon="14.595377985388041">
        <ele>579</ele>
        <time>2012-10-21T09:38:27Z</time>
      </trkpt>
      <trkpt lat="47.579867988824844" lon="14.595461972057819">
        <ele>578.60000000000002</ele>
        <time>2012-10-21T09:38:28Z</time>
      </trkpt>
      <trkpt lat="47.579848961904645" lon="14.595545036718249">
        <ele>578.20000000000005</ele>
        <time>2012-10-21T09:38:29Z</time>
      </trkpt>
      <trkpt lat="47.579749971628189" lon="14.595780987292528">
        <ele>577.79999999999995</ele>
        <time>2012-10-21T09:38:32Z</time>
      </trkpt>
      <trkpt lat="47.579647041857243" lon="14.595994977280498">
        <ele>577.79999999999995</ele>
        <time>2012-10-21T09:38:35Z</time>
      </trkpt>
      <trkpt lat="47.579421987757087" lon="14.596580034121871">
        <ele>577.79999999999995</ele>
        <time>2012-10-21T09:38:43Z</time>
      </trkpt>
      <trkpt lat="47.579303970560431" lon="14.59707498550415">
        <ele>577.39999999999998</ele>
        <time>2012-10-21T09:38:50Z</time>
      </trkpt>
      <trkpt lat="47.579291984438896" lon="14.597143968567252">
        <ele>577</ele>
        <time>2012-10-21T09:38:51Z</time>
      </trkpt>
      <trkpt lat="47.579285027459264" lon="14.597214041277766">
        <ele>576.39999999999998</ele>
        <time>2012-10-21T09:38:52Z</time>
      </trkpt>
      <trkpt lat="47.579273041337729" lon="14.597262991592288">
        <ele>576</ele>
        <time>2012-10-21T09:38:53Z</time>
      </trkpt>
      <trkpt lat="47.579261977225542" lon="14.597320994362235">
        <ele>575.60000000000002</ele>
        <time>2012-10-21T09:38:54Z</time>
      </trkpt>
      <trkpt lat="47.579258037731051" lon="14.597383020445704">
        <ele>575.60000000000002</ele>
        <time>2012-10-21T09:38:55Z</time>
      </trkpt>
      <trkpt lat="47.579249991104007" lon="14.597685020416975">
        <ele>575.60000000000002</ele>
        <time>2012-10-21T09:39:00Z</time>
      </trkpt>
      <trkpt lat="47.57921596057713" lon="14.598042005673051">
        <ele>575.60000000000002</ele>
        <time>2012-10-21T09:39:07Z</time>
      </trkpt>
      <trkpt lat="47.579120993614197" lon="14.598296983167529">
        <ele>575.60000000000002</ele>
        <time>2012-10-21T09:39:13Z</time>
      </trkpt>
      <trkpt lat="47.579089980572462" lon="14.598597977310419">
        <ele>575.60000000000002</ele>
        <time>2012-10-21T09:39:20Z</time>
      </trkpt>
      <trkpt lat="47.579094003885984" lon="14.598638964816928">
        <ele>576</ele>
        <time>2012-10-21T09:39:21Z</time>
      </trkpt>
      <trkpt lat="47.579098027199507" lon="14.598681963980198">
        <ele>576.60000000000002</ele>
        <time>2012-10-21T09:39:22Z</time>
      </trkpt>
      <trkpt lat="47.579098027199507" lon="14.598725968971848">
        <ele>577</ele>
        <time>2012-10-21T09:39:23Z</time>
      </trkpt>
      <trkpt lat="47.579098027199507" lon="14.598763016983867">
        <ele>577.39999999999998</ele>
        <time>2012-10-21T09:39:24Z</time>
      </trkpt>
      <trkpt lat="47.579098027199507" lon="14.598799981176853">
        <ele>577.79999999999995</ele>
        <time>2012-10-21T09:39:25Z</time>
      </trkpt>
      <trkpt lat="47.579098027199507" lon="14.598907018080354">
        <ele>577.79999999999995</ele>
        <time>2012-10-21T09:39:28Z</time>
      </trkpt>
      <trkpt lat="47.579104984179139" lon="14.599081026390195">
        <ele>578.20000000000005</ele>
        <time>2012-10-21T09:39:33Z</time>
      </trkpt>
      <trkpt lat="47.579113030806184" lon="14.599109021946788">
        <ele>578.60000000000002</ele>
        <time>2012-10-21T09:39:34Z</time>
      </trkpt>
      <trkpt lat="47.579120993614197" lon="14.599137017503381">
        <ele>579</ele>
        <time>2012-10-21T09:39:35Z</time>
      </trkpt>
      <trkpt lat="47.579120993614197" lon="14.599169036373496">
        <ele>579.39999999999998</ele>
        <time>2012-10-21T09:39:36Z</time>
      </trkpt>
      <trkpt lat="47.579124011099339" lon="14.599199965596199">
        <ele>579.79999999999995</ele>
        <time>2012-10-21T09:39:37Z</time>
      </trkpt>
      <trkpt lat="47.579135997220874" lon="14.599345978349447">
        <ele>579.79999999999995</ele>
        <time>2012-10-21T09:39:42Z</time>
      </trkpt>
      <trkpt lat="47.579143960028887" lon="14.599433988332748">
        <ele>580.20000000000005</ele>
        <time>2012-10-21T09:39:45Z</time>
      </trkpt>
      <trkpt lat="47.579146977514029" lon="14.5994589664042">
        <ele>580.60000000000002</ele>
        <time>2012-10-21T09:39:46Z</time>
      </trkpt>
      <trkpt lat="47.579146977514029" lon="14.599487967789173">
        <ele>581</ele>
        <time>2012-10-21T09:39:47Z</time>
      </trkpt>
      <trkpt lat="47.579151000827551" lon="14.599516969174147">
        <ele>581.60000000000002</ele>
        <time>2012-10-21T09:39:48Z</time>
      </trkpt>
      <trkpt lat="47.579162986949086" lon="14.599538007751107">
        <ele>582</ele>
        <time>2012-10-21T09:39:49Z</time>
      </trkpt>
      <trkpt lat="47.57919299416244" lon="14.59969500079751">
        <ele>582</ele>
        <time>2012-10-21T09:39:54Z</time>
      </trkpt>
      <trkpt lat="47.579204980283976" lon="14.599806983023882">
        <ele>582.79999999999995</ele>
        <time>2012-10-21T09:39:58Z</time>
      </trkpt>
      <trkpt lat="47.579204980283976" lon="14.599836990237236">
        <ele>583.20000000000005</ele>
        <time>2012-10-21T09:39:59Z</time>
      </trkpt>
      <trkpt lat="47.579207997769117" lon="14.599860962480307">
        <ele>583.60000000000002</ele>
        <time>2012-10-21T09:40:00Z</time>
      </trkpt>
      <trkpt lat="47.57921202108264" lon="14.599889041855931">
        <ele>584</ele>
        <time>2012-10-21T09:40:01Z</time>
      </trkpt>
      <trkpt lat="47.57921596057713" lon="14.599918965250254">
        <ele>584</ele>
        <time>2012-10-21T09:40:02Z</time>
      </trkpt>
      <trkpt lat="47.579249991104007" lon="14.60010102018714">
        <ele>584</ele>
        <time>2012-10-21T09:40:09Z</time>
      </trkpt>
      <trkpt lat="47.579249991104007" lon="14.60012398660183">
        <ele>584.39999999999998</ele>
        <time>2012-10-21T09:40:10Z</time>
      </trkpt>
      <trkpt lat="47.579249991104007" lon="14.600156005471945">
        <ele>584.79999999999995</ele>
        <time>2012-10-21T09:40:11Z</time>
      </trkpt>
      <trkpt lat="47.579249991104007" lon="14.600181989371777">
        <ele>585.20000000000005</ele>
        <time>2012-10-21T09:40:12Z</time>
      </trkpt>
      <trkpt lat="47.579258037731051" lon="14.600206967443228">
        <ele>585.60000000000002</ele>
        <time>2012-10-21T09:40:13Z</time>
      </trkpt>
      <trkpt lat="47.579261977225542" lon="14.600234040990472">
        <ele>586</ele>
        <time>2012-10-21T09:40:14Z</time>
      </trkpt>
      <trkpt lat="47.579273041337729" lon="14.600314004346728">
        <ele>586</ele>
        <time>2012-10-21T09:40:17Z</time>
      </trkpt>
      <trkpt lat="47.579296007752419" lon="14.600475020706654">
        <ele>586.39999999999998</ele>
        <time>2012-10-21T09:40:24Z</time>
      </trkpt>
      <trkpt lat="47.579303970560431" lon="14.600499998778105">
        <ele>586.79999999999995</ele>
        <time>2012-10-21T09:40:25Z</time>
      </trkpt>
      <trkpt lat="47.579307993873954" lon="14.600522965192795">
        <ele>587.20000000000005</ele>
        <time>2012-10-21T09:40:26Z</time>
      </trkpt>
      <trkpt lat="47.579307993873954" lon="14.600537968799472">
        <ele>587.60000000000002</ele>
        <time>2012-10-21T09:40:27Z</time>
      </trkpt>
      <trkpt lat="47.579311011359096" lon="14.600558001548052">
        <ele>588</ele>
        <time>2012-10-21T09:40:28Z</time>
      </trkpt>
      <trkpt lat="47.579315034672618" lon="14.600635031238198">
        <ele>588</ele>
        <time>2012-10-21T09:40:32Z</time>
      </trkpt>
      <trkpt lat="47.579322997480631" lon="14.600796969607472">
        <ele>588</ele>
        <time>2012-10-21T09:40:39Z</time>
      </trkpt>
      <trkpt lat="47.579330038279295" lon="14.600838962942362">
        <ele>588.39999999999998</ele>
        <time>2012-10-21T09:40:41Z</time>
      </trkpt>
      <trkpt lat="47.579333977773786" lon="14.600858995690942">
        <ele>588.79999999999995</ele>
        <time>2012-10-21T09:40:42Z</time>
      </trkpt>
      <trkpt lat="47.57934202440083" lon="14.600878022611141">
        <ele>589.20000000000005</ele>
        <time>2012-10-21T09:40:43Z</time>
      </trkpt>
      <trkpt lat="47.57934202440083" lon="14.600896965712309">
        <ele>589.60000000000002</ele>
        <time>2012-10-21T09:40:44Z</time>
      </trkpt>
      <trkpt lat="47.579345963895321" lon="14.60091901011765">
        <ele>590</ele>
        <time>2012-10-21T09:40:45Z</time>
      </trkpt>
      <trkpt lat="47.57934202440083" lon="14.60096200928092">
        <ele>590</ele>
        <time>2012-10-21T09:40:47Z</time>
      </trkpt>
      <trkpt lat="47.579353004693985" lon="14.601074997335672">
        <ele>590</ele>
        <time>2012-10-21T09:40:53Z</time>
      </trkpt>
      <trkpt lat="47.579369014129043" lon="14.601142974570394">
        <ele>590.60000000000002</ele>
        <time>2012-10-21T09:40:56Z</time>
      </trkpt>
      <trkpt lat="47.579372031614184" lon="14.601170970126987">
        <ele>591</ele>
        <time>2012-10-21T09:40:57Z</time>
      </trkpt>
      <trkpt lat="47.579375971108675" lon="14.601193014532328">
        <ele>591.39999999999998</ele>
        <time>2012-10-21T09:40:58Z</time>
      </trkpt>
      <trkpt lat="47.579372031614184" lon="14.601218998432159">
        <ele>591.79999999999995</ele>
        <time>2012-10-21T09:40:59Z</time>
      </trkpt>
      <trkpt lat="47.579375971108675" lon="14.601237019523978">
        <ele>592.20000000000005</ele>
        <time>2012-10-21T09:41:00Z</time>
      </trkpt>
      <trkpt lat="47.579411007463932" lon="14.601405998691916">
        <ele>592.20000000000005</ele>
        <time>2012-10-21T09:41:08Z</time>
      </trkpt>
      <trkpt lat="47.579432968050241" lon="14.601530972868204">
        <ele>592.60000000000002</ele>
        <time>2012-10-21T09:41:13Z</time>
      </trkpt>
      <trkpt lat="47.579436991363764" lon="14.601557962596416">
        <ele>593</ele>
        <time>2012-10-21T09:41:14Z</time>
      </trkpt>
      <trkpt lat="47.579441014677286" lon="14.601583024486899">
        <ele>593.39999999999998</ele>
        <time>2012-10-21T09:41:15Z</time>
      </trkpt>
      <trkpt lat="47.579448977485299" lon="14.601600961759686">
        <ele>593.79999999999995</ele>
        <time>2012-10-21T09:41:16Z</time>
      </trkpt>
      <trkpt lat="47.579456018283963" lon="14.601623006165028">
        <ele>594.20000000000005</ele>
        <time>2012-10-21T09:41:17Z</time>
      </trkpt>
      <trkpt lat="47.579463981091976" lon="14.601758038625121">
        <ele>594.20000000000005</ele>
        <time>2012-10-21T09:41:23Z</time>
      </trkpt>
      <trkpt lat="47.579483008012176" lon="14.601894998922944">
        <ele>594.60000000000002</ele>
        <time>2012-10-21T09:41:29Z</time>
      </trkpt>
      <trkpt lat="47.57949398830533" lon="14.601918971166015">
        <ele>595.20000000000005</ele>
        <time>2012-10-21T09:41:30Z</time>
      </trkpt>
      <trkpt lat="47.579505974426866" lon="14.601945038884878">
        <ele>595.60000000000002</ele>
        <time>2012-10-21T09:41:31Z</time>
      </trkpt>
      <trkpt lat="47.579517038539052" lon="14.601966999471188">
        <ele>596</ele>
        <time>2012-10-21T09:41:32Z</time>
      </trkpt>
      <trkpt lat="47.579525001347065" lon="14.601985020563006">
        <ele>596.39999999999998</ele>
        <time>2012-10-21T09:41:33Z</time>
      </trkpt>
      <trkpt lat="47.579577974975109" lon="14.602132961153984">
        <ele>596.39999999999998</ele>
        <time>2012-10-21T09:41:39Z</time>
      </trkpt>
      <trkpt lat="47.579659027978778" lon="14.602301018312573">
        <ele>596.39999999999998</ele>
        <time>2012-10-21T09:41:46Z</time>
      </trkpt>
      <trkpt lat="47.579680988565087" lon="14.602390034124255">
        <ele>596.79999999999995</ele>
        <time>2012-10-21T09:41:49Z</time>
      </trkpt>
      <trkpt lat="47.579689035192132" lon="14.602422975003719">
        <ele>597.20000000000005</ele>
        <time>2012-10-21T09:41:50Z</time>
      </trkpt>
      <trkpt lat="47.579696998000145" lon="14.602455999702215">
        <ele>597.60000000000002</ele>
        <time>2012-10-21T09:41:51Z</time>
      </trkpt>
      <trkpt lat="47.5797079782933" lon="14.602481983602047">
        <ele>598</ele>
        <time>2012-10-21T09:41:52Z</time>
      </trkpt>
      <trkpt lat="47.579712001606822" lon="14.602508973330259">
        <ele>598.39999999999998</ele>
        <time>2012-10-21T09:41:53Z</time>
      </trkpt>
      <trkpt lat="47.579776961356401" lon="14.602737966924906">
        <ele>598.39999999999998</ele>
        <time>2012-10-21T09:42:00Z</time>
      </trkpt>
      <trkpt lat="47.579800011590123" lon="14.602996967732906">
        <ele>598.39999999999998</ele>
        <time>2012-10-21T09:42:06Z</time>
      </trkpt>
      <trkpt lat="47.57983798161149" lon="14.603373985737562">
        <ele>598.39999999999998</ele>
        <time>2012-10-21T09:42:13Z</time>
      </trkpt>
      <trkpt lat="47.579861031845212" lon="14.603548999875784">
        <ele>598.39999999999998</ele>
        <time>2012-10-21T09:42:16Z</time>
      </trkpt>
      <trkpt lat="47.579899001866579" lon="14.603646984323859">
        <ele>598.39999999999998</ele>
        <time>2012-10-21T09:42:18Z</time>
      </trkpt>
      <trkpt lat="47.579971002414823" lon="14.60369098931551">
        <ele>598.39999999999998</ele>
        <time>2012-10-21T09:42:20Z</time>
      </trkpt>
      <trkpt lat="47.580044008791447" lon="14.603720996528864">
        <ele>598.39999999999998</ele>
        <time>2012-10-21T09:42:22Z</time>
      </trkpt>
      <trkpt lat="47.580147022381425" lon="14.603689983487129">
        <ele>598.39999999999998</ele>
        <time>2012-10-21T09:42:26Z</time>
      </trkpt>
      <trkpt lat="47.580241989344358" lon="14.603613959625363">
        <ele>598.39999999999998</ele>
        <time>2012-10-21T09:42:32Z</time>
      </trkpt>
      <trkpt lat="47.580253975465894" lon="14.603591999039054">
        <ele>598.39999999999998</ele>
        <time>2012-10-21T09:42:36Z</time>
      </trkpt>
      <trkpt lat="47.580253975465894" lon="14.60358596406877">
        <ele>597.79999999999995</ele>
        <time>2012-10-21T09:42:38Z</time>
      </trkpt>
      <trkpt lat="47.580253975465894" lon="14.60358596406877">
        <ele>597.39999999999998</ele>
        <time>2012-10-21T09:42:39Z</time>
      </trkpt>
      <trkpt lat="47.580253975465894" lon="14.60358596406877">
        <ele>596.79999999999995</ele>
        <time>2012-10-21T09:42:40Z</time>
      </trkpt>
      <trkpt lat="47.580253975465894" lon="14.60358596406877">
        <ele>596.39999999999998</ele>
        <time>2012-10-21T09:42:41Z</time>
      </trkpt>
      <trkpt lat="47.580253975465894" lon="14.60358596406877">
        <ele>595.79999999999995</ele>
        <time>2012-10-21T09:42:42Z</time>
      </trkpt>
      <trkpt lat="47.580253975465894" lon="14.60358596406877">
        <ele>595.79999999999995</ele>
        <time>2012-10-21T09:42:43Z</time>
      </trkpt>
      <trkpt lat="47.580250035971403" lon="14.60358303040266">
        <ele>595.79999999999995</ele>
        <time>2012-10-21T09:42:56Z</time>
      </trkpt>
      <trkpt lat="47.580226985737681" lon="14.603580012917519">
        <ele>595.79999999999995</ele>
        <time>2012-10-21T09:43:04Z</time>
      </trkpt>
      <trkpt lat="47.580204019322991" lon="14.603584036231041">
        <ele>595.79999999999995</ele>
        <time>2012-10-21T09:43:12Z</time>
      </trkpt>
      <trkpt lat="47.580204019322991" lon="14.603573977947235">
        <ele>595.79999999999995</ele>
        <time>2012-10-21T09:43:25Z</time>
      </trkpt>
      <trkpt lat="47.580204019322991" lon="14.603559980168939">
        <ele>595.79999999999995</ele>
        <time>2012-10-21T09:43:37Z</time>
      </trkpt>
      <trkpt lat="47.580204019322991" lon="14.60356299765408">
        <ele>595.79999999999995</ele>
        <time>2012-10-21T09:43:46Z</time>
      </trkpt>
      <trkpt lat="47.580235032364726" lon="14.603580012917519">
        <ele>595.79999999999995</ele>
        <time>2012-10-21T09:43:59Z</time>
      </trkpt>
      <trkpt lat="47.580235032364726" lon="14.603580012917519">
        <ele>595.79999999999995</ele>
        <time>2012-10-21T09:44:12Z</time>
      </trkpt>
      <trkpt lat="47.580250035971403" lon="14.603579007089138">
        <ele>595.79999999999995</ele>
        <time>2012-10-21T09:44:19Z</time>
      </trkpt>
      <trkpt lat="47.580409962683916" lon="14.603597028180957">
        <ele>595.79999999999995</ele>
        <time>2012-10-21T09:44:25Z</time>
      </trkpt>
      <trkpt lat="47.580554969608784" lon="14.603783022612333">
        <ele>595.79999999999995</ele>
        <time>2012-10-21T09:44:30Z</time>
      </trkpt>
      <trkpt lat="47.580750016495585" lon="14.604135984554887">
        <ele>595.39999999999998</ele>
        <time>2012-10-21T09:44:36Z</time>
      </trkpt>
      <trkpt lat="47.580787986516953" lon="14.604198010638356">
        <ele>595</ele>
        <time>2012-10-21T09:44:37Z</time>
      </trkpt>
      <trkpt lat="47.580822017043829" lon="14.604260958731174">
        <ele>594.60000000000002</ele>
        <time>2012-10-21T09:44:38Z</time>
      </trkpt>
      <trkpt lat="47.580855963751674" lon="14.604332959279418">
        <ele>594.20000000000005</ele>
        <time>2012-10-21T09:44:39Z</time>
      </trkpt>
      <trkpt lat="47.580891000106931" lon="14.604404959827662">
        <ele>593.60000000000002</ele>
        <time>2012-10-21T09:44:40Z</time>
      </trkpt>
      <trkpt lat="47.580985967069864" lon="14.604611992835999">
        <ele>593.60000000000002</ele>
        <time>2012-10-21T09:44:43Z</time>
      </trkpt>
      <trkpt lat="47.581070037558675" lon="14.60480896756053">
        <ele>593.60000000000002</ele>
        <time>2012-10-21T09:44:46Z</time>
      </trkpt>
      <trkpt lat="47.581127034500241" lon="14.604998985305429">
        <ele>593.60000000000002</ele>
        <time>2012-10-21T09:44:49Z</time>
      </trkpt>
      <trkpt lat="47.581145977601409" lon="14.60506503470242">
        <ele>593.60000000000002</ele>
        <time>2012-10-21T09:44:50Z</time>
      </trkpt>
      <trkpt lat="47.581172967329621" lon="14.605267960578203">
        <ele>593.60000000000002</ele>
        <time>2012-10-21T09:44:53Z</time>
      </trkpt>
      <trkpt lat="47.581176990643144" lon="14.605336021631956">
        <ele>593.60000000000002</ele>
        <time>2012-10-21T09:44:54Z</time>
      </trkpt>
      <trkpt lat="47.581202974542975" lon="14.605617988854647">
        <ele>593.20000000000005</ele>
        <time>2012-10-21T09:44:58Z</time>
      </trkpt>
      <trkpt lat="47.58121102117002" lon="14.605685966089368">
        <ele>592.79999999999995</ele>
        <time>2012-10-21T09:44:59Z</time>
      </trkpt>
      <trkpt lat="47.581223007291555" lon="14.60575201548636">
        <ele>592.39999999999998</ele>
        <time>2012-10-21T09:45:00Z</time>
      </trkpt>
      <trkpt lat="47.58123398758471" lon="14.605819992721081">
        <ele>592</ele>
        <time>2012-10-21T09:45:01Z</time>
      </trkpt>
      <trkpt lat="47.581244967877865" lon="14.605890987440944">
        <ele>591.60000000000002</ele>
        <time>2012-10-21T09:45:02Z</time>
      </trkpt>
      <trkpt lat="47.581329038366675" lon="14.6062489785254">
        <ele>591.60000000000002</ele>
        <time>2012-10-21T09:45:07Z</time>
      </trkpt>
      <trkpt lat="47.581356028094888" lon="14.606358027085662">
        <ele>591.20000000000005</ele>
        <time>2012-10-21T09:45:09Z</time>
      </trkpt>
      <trkpt lat="47.581363990902901" lon="14.60639700293541">
        <ele>590.79999999999995</ele>
        <time>2012-10-21T09:45:10Z</time>
      </trkpt>
      <trkpt lat="47.581367008388042" lon="14.606430027633905">
        <ele>590.39999999999998</ele>
        <time>2012-10-21T09:45:11Z</time>
      </trkpt>
      <trkpt lat="47.581367008388042" lon="14.606450982391834">
        <ele>590</ele>
        <time>2012-10-21T09:45:12Z</time>
      </trkpt>
      <trkpt lat="47.581371031701565" lon="14.606474032625556">
        <ele>589.39999999999998</ele>
        <time>2012-10-21T09:45:13Z</time>
      </trkpt>
      <trkpt lat="47.581371031701565" lon="14.606530023738742">
        <ele>589.39999999999998</ele>
        <time>2012-10-21T09:45:16Z</time>
      </trkpt>
      <trkpt lat="47.581374971196055" lon="14.606647035107017">
        <ele>589.39999999999998</ele>
        <time>2012-10-21T09:45:24Z</time>
      </trkpt>
      <trkpt lat="47.581486031413078" lon="14.606839986518025">
        <ele>589.39999999999998</ele>
        <time>2012-10-21T09:45:29Z</time>
      </trkpt>
      <trkpt lat="47.581600025296211" lon="14.607077026739717">
        <ele>589.39999999999998</ele>
        <time>2012-10-21T09:45:35Z</time>
      </trkpt>
      <trkpt lat="47.581733968108892" lon="14.607483968138695">
        <ele>589</ele>
        <time>2012-10-21T09:45:42Z</time>
      </trkpt>
      <trkpt lat="47.581752995029092" lon="14.607545994222164">
        <ele>588.60000000000002</ele>
        <time>2012-10-21T09:45:43Z</time>
      </trkpt>
      <trkpt lat="47.581775961443782" lon="14.607609026134014">
        <ele>588.20000000000005</ele>
        <time>2012-10-21T09:45:44Z</time>
      </trkpt>
      <trkpt lat="47.581794988363981" lon="14.607674991711974">
        <ele>587.39999999999998</ele>
        <time>2012-10-21T09:45:45Z</time>
      </trkpt>
      <trkpt lat="47.581829018890858" lon="14.607799965888262">
        <ele>587.39999999999998</ele>
        <time>2012-10-21T09:45:47Z</time>
      </trkpt>
      <trkpt lat="47.581875035539269" lon="14.608001969754696">
        <ele>587.39999999999998</ele>
        <time>2012-10-21T09:45:50Z</time>
      </trkpt>
      <trkpt lat="47.582095982506871" lon="14.608583003282547">
        <ele>587.39999999999998</ele>
        <time>2012-10-21T09:45:59Z</time>
      </trkpt>
      <trkpt lat="47.582233026623726" lon="14.608903024345636">
        <ele>587.39999999999998</ele>
        <time>2012-10-21T09:46:04Z</time>
      </trkpt>
      <trkpt lat="47.582297986373305" lon="14.609010983258486">
        <ele>587.39999999999998</ele>
        <time>2012-10-21T09:46:06Z</time>
      </trkpt>
      <trkpt lat="47.582553969696164" lon="14.609429994598031">
        <ele>587.39999999999998</ele>
        <time>2012-10-21T09:46:14Z</time>
      </trkpt>
      <trkpt lat="47.582577019929886" lon="14.609481962397695">
        <ele>587.39999999999998</ele>
        <time>2012-10-21T09:46:15Z</time>
      </trkpt>
      <trkpt lat="47.582656983286142" lon="14.609722020104527">
        <ele>587.39999999999998</ele>
        <time>2012-10-21T09:46:20Z</time>
      </trkpt>
      <trkpt lat="47.582782963290811" lon="14.610056960955262">
        <ele>587.39999999999998</ele>
        <time>2012-10-21T09:46:27Z</time>
      </trkpt>
      <trkpt lat="47.582858987152576" lon="14.610234992578626">
        <ele>587.79999999999995</ele>
        <time>2012-10-21T09:46:31Z</time>
      </trkpt>
      <trkpt lat="47.582882037386298" lon="14.610280003398657">
        <ele>588.20000000000005</ele>
        <time>2012-10-21T09:46:32Z</time>
      </trkpt>
      <trkpt lat="47.582905003800988" lon="14.610323002561927">
        <ele>588.60000000000002</ele>
        <time>2012-10-21T09:46:33Z</time>
      </trkpt>
      <trkpt lat="47.582927970215678" lon="14.610364995896816">
        <ele>589.20000000000005</ele>
        <time>2012-10-21T09:46:34Z</time>
      </trkpt>
      <trkpt lat="47.582954037934542" lon="14.610404977574944">
        <ele>589.60000000000002</ele>
        <time>2012-10-21T09:46:35Z</time>
      </trkpt>
      <trkpt lat="47.583096027374268" lon="14.610646041110158">
        <ele>590</ele>
        <time>2012-10-21T09:46:41Z</time>
      </trkpt>
      <trkpt lat="47.583122011274099" lon="14.610683005303144">
        <ele>590.39999999999998</ele>
        <time>2012-10-21T09:46:42Z</time>
      </trkpt>
      <trkpt lat="47.583149001002312" lon="14.610720975324512">
        <ele>590.79999999999995</ele>
        <time>2012-10-21T09:46:43Z</time>
      </trkpt>
      <trkpt lat="47.583179008215666" lon="14.61075802333653">
        <ele>591.20000000000005</ele>
        <time>2012-10-21T09:46:44Z</time>
      </trkpt>
      <trkpt lat="47.583201974630356" lon="14.610796999186277">
        <ele>591.60000000000002</ele>
        <time>2012-10-21T09:46:45Z</time>
      </trkpt>
      <trkpt lat="47.583355028182268" lon="14.611029010266066">
        <ele>591.60000000000002</ele>
        <time>2012-10-21T09:46:51Z</time>
      </trkpt>
      <trkpt lat="47.583529958501458" lon="14.611325981095433">
        <ele>591.60000000000002</ele>
        <time>2012-10-21T09:46:58Z</time>
      </trkpt>
      <trkpt lat="47.583740008994937" lon="14.611739963293076">
        <ele>591.60000000000002</ele>
        <time>2012-10-21T09:47:07Z</time>
      </trkpt>
      <trkpt lat="47.58387797512114" lon="14.612186970189214">
        <ele>591.60000000000002</ele>
        <time>2012-10-21T09:47:15Z</time>
      </trkpt>
      <trkpt lat="47.584030022844672" lon="14.612662978470325">
        <ele>591.60000000000002</ele>
        <time>2012-10-21T09:47:23Z</time>
      </trkpt>
      <trkpt lat="47.584193972870708" lon="14.613177040591836">
        <ele>591</ele>
        <time>2012-10-21T09:47:30Z</time>
      </trkpt>
      <trkpt lat="47.584217023104429" lon="14.613260021433234">
        <ele>590.60000000000002</ele>
        <time>2012-10-21T09:47:31Z</time>
      </trkpt>
      <trkpt lat="47.584244012832642" lon="14.613347025588155">
        <ele>590.20000000000005</ele>
        <time>2012-10-21T09:47:32Z</time>
      </trkpt>
      <trkpt lat="47.584266979247332" lon="14.613436041399837">
        <ele>589.79999999999995</ele>
        <time>2012-10-21T09:47:33Z</time>
      </trkpt>
      <trkpt lat="47.584292963147163" lon="14.613526985049248">
        <ele>589.39999999999998</ele>
        <time>2012-10-21T09:47:34Z</time>
      </trkpt>
      <trkpt lat="47.58434702642262" lon="14.613728988915682">
        <ele>588.79999999999995</ele>
        <time>2012-10-21T09:47:36Z</time>
      </trkpt>
      <trkpt lat="47.584373010322452" lon="14.613829990848899">
        <ele>588.39999999999998</ele>
        <time>2012-10-21T09:47:37Z</time>
      </trkpt>
      <trkpt lat="47.584400000050664" lon="14.613933004438877">
        <ele>587.79999999999995</ele>
        <time>2012-10-21T09:47:38Z</time>
      </trkpt>
      <trkpt lat="47.584431013092399" lon="14.614038029685616">
        <ele>587.39999999999998</ele>
        <time>2012-10-21T09:47:39Z</time>
      </trkpt>
      <trkpt lat="47.58445699699223" lon="14.614145988598466">
        <ele>586.79999999999995</ele>
        <time>2012-10-21T09:47:40Z</time>
      </trkpt>
      <trkpt lat="47.584492033347487" lon="14.614257970824838">
        <ele>586.20000000000005</ele>
        <time>2012-10-21T09:47:41Z</time>
      </trkpt>
      <trkpt lat="47.584522040560842" lon="14.614373976364732">
        <ele>585.79999999999995</ele>
        <time>2012-10-21T09:47:42Z</time>
      </trkpt>
      <trkpt lat="47.584560010582209" lon="14.614498028531671">
        <ele>585.20000000000005</ele>
        <time>2012-10-21T09:47:43Z</time>
      </trkpt>
      <trkpt lat="47.584594963118434" lon="14.614620991051197">
        <ele>584.60000000000002</ele>
        <time>2012-10-21T09:47:44Z</time>
      </trkpt>
      <trkpt lat="47.584637040272355" lon="14.614746971055865">
        <ele>583.79999999999995</ele>
        <time>2012-10-21T09:47:45Z</time>
      </trkpt>
      <trkpt lat="47.584675010293722" lon="14.614875968545675">
        <ele>583.20000000000005</ele>
        <time>2012-10-21T09:47:46Z</time>
      </trkpt>
      <trkpt lat="47.584712980315089" lon="14.615007983520627">
        <ele>582.60000000000002</ele>
        <time>2012-10-21T09:47:47Z</time>
      </trkpt>
      <trkpt lat="47.584751034155488" lon="14.615143015980721">
        <ele>581.79999999999995</ele>
        <time>2012-10-21T09:47:48Z</time>
      </trkpt>
      <trkpt lat="47.584793027490377" lon="14.615279976278543">
        <ele>580.39999999999998</ele>
        <time>2012-10-21T09:47:49Z</time>
      </trkpt>
      <trkpt lat="47.584835020825267" lon="14.615429006516933">
        <ele>579.60000000000002</ele>
        <time>2012-10-21T09:47:50Z</time>
      </trkpt>
      <trkpt lat="47.584877014160156" lon="14.615575019270182">
        <ele>579</ele>
        <time>2012-10-21T09:47:51Z</time>
      </trkpt>
      <trkpt lat="47.584914984181523" lon="14.615718014538288">
        <ele>578.20000000000005</ele>
        <time>2012-10-21T09:47:52Z</time>
      </trkpt>
      <trkpt lat="47.584956977516413" lon="14.615861009806395">
        <ele>577.39999999999998</ele>
        <time>2012-10-21T09:47:53Z</time>
      </trkpt>
      <trkpt lat="47.584998970851302" lon="14.616000987589359">
        <ele>576.79999999999995</ele>
        <time>2012-10-21T09:47:54Z</time>
      </trkpt>
      <trkpt lat="47.585040964186192" lon="14.616141971200705">
        <ele>576</ele>
        <time>2012-10-21T09:47:55Z</time>
      </trkpt>
      <trkpt lat="47.585083041340113" lon="14.616283038631082">
        <ele>575.39999999999998</ele>
        <time>2012-10-21T09:47:56Z</time>
      </trkpt>
      <trkpt lat="47.585125034675002" lon="14.616421004757285">
        <ele>574.79999999999995</ele>
        <time>2012-10-21T09:47:57Z</time>
      </trkpt>
      <trkpt lat="47.585163004696369" lon="14.616556037217379">
        <ele>574.20000000000005</ele>
        <time>2012-10-21T09:47:58Z</time>
      </trkpt>
      <trkpt lat="47.585200974717736" lon="14.616697020828724">
        <ele>573.39999999999998</ele>
        <time>2012-10-21T09:47:59Z</time>
      </trkpt>
      <trkpt lat="47.585242968052626" lon="14.616827024146914">
        <ele>572.79999999999995</ele>
        <time>2012-10-21T09:48:00Z</time>
      </trkpt>
      <trkpt lat="47.585278004407883" lon="14.616959039121866">
        <ele>572.39999999999998</ele>
        <time>2012-10-21T09:48:01Z</time>
      </trkpt>
      <trkpt lat="47.58531597442925" lon="14.617093987762928">
        <ele>572</ele>
        <time>2012-10-21T09:48:02Z</time>
      </trkpt>
      <trkpt lat="47.585354028269649" lon="14.617229020223022">
        <ele>571.60000000000002</ele>
        <time>2012-10-21T09:48:03Z</time>
      </trkpt>
      <trkpt lat="47.585391998291016" lon="14.617359023541212">
        <ele>571</ele>
        <time>2012-10-21T09:48:04Z</time>
      </trkpt>
      <trkpt lat="47.585426028817892" lon="14.617490032687783">
        <ele>570.60000000000002</ele>
        <time>2012-10-21T09:48:05Z</time>
      </trkpt>
      <trkpt lat="47.585505992174149" lon="14.617756996303797">
        <ele>570.20000000000005</ele>
        <time>2012-10-21T09:48:07Z</time>
      </trkpt>
      <trkpt lat="47.585544968023896" lon="14.617884987965226">
        <ele>569.60000000000002</ele>
        <time>2012-10-21T09:48:08Z</time>
      </trkpt>
      <trkpt lat="47.585578998550773" lon="14.618010967969894">
        <ele>569.20000000000005</ele>
        <time>2012-10-21T09:48:09Z</time>
      </trkpt>
      <trkpt lat="47.585613029077649" lon="14.618138959631324">
        <ele>568.79999999999995</ele>
        <time>2012-10-21T09:48:10Z</time>
      </trkpt>
      <trkpt lat="47.585647981613874" lon="14.618266029283404">
        <ele>568.20000000000005</ele>
        <time>2012-10-21T09:48:11Z</time>
      </trkpt>
      <trkpt lat="47.585682012140751" lon="14.618391003459692">
        <ele>567.79999999999995</ele>
        <time>2012-10-21T09:48:12Z</time>
      </trkpt>
      <trkpt lat="47.585712019354105" lon="14.618521006777883">
        <ele>567.39999999999998</ele>
        <time>2012-10-21T09:48:13Z</time>
      </trkpt>
      <trkpt lat="47.58574303239584" lon="14.61864598095417">
        <ele>566.60000000000002</ele>
        <time>2012-10-21T09:48:14Z</time>
      </trkpt>
      <trkpt lat="47.585773039609194" lon="14.618771960958838">
        <ele>566.20000000000005</ele>
        <time>2012-10-21T09:48:15Z</time>
      </trkpt>
      <trkpt lat="47.585860965773463" lon="14.619130035862327">
        <ele>565.79999999999995</ele>
        <time>2012-10-21T09:48:18Z</time>
      </trkpt>
      <trkpt lat="47.585888039320707" lon="14.619242018088698">
        <ele>565.39999999999998</ele>
        <time>2012-10-21T09:48:19Z</time>
      </trkpt>
      <trkpt lat="47.58591502904892" lon="14.61935400031507">
        <ele>565</ele>
        <time>2012-10-21T09:48:20Z</time>
      </trkpt>
      <trkpt lat="47.58593799546361" lon="14.61945902556181">
        <ele>564.60000000000002</ele>
        <time>2012-10-21T09:48:21Z</time>
      </trkpt>
      <trkpt lat="47.585968002676964" lon="14.619565978646278">
        <ele>564.20000000000005</ele>
        <time>2012-10-21T09:48:22Z</time>
      </trkpt>
      <trkpt lat="47.586036985740066" lon="14.619850963354111">
        <ele>564.20000000000005</ele>
        <time>2012-10-21T09:48:25Z</time>
      </trkpt>
      <trkpt lat="47.58608995936811" lon="14.620011979714036">
        <ele>564.20000000000005</ele>
        <time>2012-10-21T09:48:27Z</time>
      </trkpt>
      <trkpt lat="47.586150979623199" lon="14.620153969153762">
        <ele>564.20000000000005</ele>
        <time>2012-10-21T09:48:29Z</time>
      </trkpt>
      <trkpt lat="47.586185010150075" lon="14.620215995237231">
        <ele>564.20000000000005</ele>
        <time>2012-10-21T09:48:30Z</time>
      </trkpt>
      <trkpt lat="47.586418027058244" lon="14.620539033785462">
        <ele>564.20000000000005</ele>
        <time>2012-10-21T09:48:36Z</time>
      </trkpt>
      <trkpt lat="47.586460020393133" lon="14.620581027120352">
        <ele>564.20000000000005</ele>
        <time>2012-10-21T09:48:37Z</time>
      </trkpt>
      <trkpt lat="47.586623970419168" lon="14.620708012953401">
        <ele>564.20000000000005</ele>
        <time>2012-10-21T09:48:41Z</time>
      </trkpt>
      <trkpt lat="47.586895041167736" lon="14.620859976857901">
        <ele>564.20000000000005</ele>
        <time>2012-10-21T09:48:48Z</time>
      </trkpt>
      <trkpt lat="47.587063014507294" lon="14.620929965749383">
        <ele>564.20000000000005</ele>
        <time>2012-10-21T09:48:54Z</time>
      </trkpt>
      <trkpt lat="47.587250014767051" lon="14.621025016531348">
        <ele>564.20000000000005</ele>
        <time>2012-10-21T09:49:00Z</time>
      </trkpt>
      <trkpt lat="47.587479008361697" lon="14.621154014021158">
        <ele>564.20000000000005</ele>
        <time>2012-10-21T09:49:07Z</time>
      </trkpt>
      <trkpt lat="47.587619991973042" lon="14.621282005682588">
        <ele>564.60000000000002</ele>
        <time>2012-10-21T09:49:11Z</time>
      </trkpt>
      <trkpt lat="47.587654022499919" lon="14.62133196182549">
        <ele>565</ele>
        <time>2012-10-21T09:49:12Z</time>
      </trkpt>
      <trkpt lat="47.587687969207764" lon="14.621389964595437">
        <ele>565.39999999999998</ele>
        <time>2012-10-21T09:49:13Z</time>
      </trkpt>
      <trkpt lat="47.587718982249498" lon="14.621456013992429">
        <ele>565.79999999999995</ele>
        <time>2012-10-21T09:49:14Z</time>
      </trkpt>
      <trkpt lat="47.587753012776375" lon="14.621515022590756">
        <ele>566.20000000000005</ele>
        <time>2012-10-21T09:49:15Z</time>
      </trkpt>
      <trkpt lat="47.587974965572357" lon="14.621907966211438">
        <ele>566.20000000000005</ele>
        <time>2012-10-21T09:49:23Z</time>
      </trkpt>
      <trkpt lat="47.588146040216088" lon="14.622238967567682">
        <ele>566.20000000000005</ele>
        <time>2012-10-21T09:49:30Z</time>
      </trkpt>
      <trkpt lat="47.588341003283858" lon="14.622625038027763">
        <ele>566.20000000000005</ele>
        <time>2012-10-21T09:49:37Z</time>
      </trkpt>
      <trkpt lat="47.588543007150292" lon="14.623009013012052">
        <ele>566.20000000000005</ele>
        <time>2012-10-21T09:49:42Z</time>
      </trkpt>
      <trkpt lat="47.588676027953625" lon="14.623267007991672">
        <ele>565.79999999999995</ele>
        <time>2012-10-21T09:49:45Z</time>
      </trkpt>
      <trkpt lat="47.588721960783005" lon="14.623353006318212">
        <ele>565.20000000000005</ele>
        <time>2012-10-21T09:49:46Z</time>
      </trkpt>
      <trkpt lat="47.588772000744939" lon="14.623446967452765">
        <ele>564.79999999999995</ele>
        <time>2012-10-21T09:49:47Z</time>
      </trkpt>
      <trkpt lat="47.588818017393351" lon="14.623540006577969">
        <ele>564.39999999999998</ele>
        <time>2012-10-21T09:49:48Z</time>
      </trkpt>
      <trkpt lat="47.588855987414718" lon="14.623633967712522">
        <ele>563.79999999999995</ele>
        <time>2012-10-21T09:49:49Z</time>
      </trkpt>
      <trkpt lat="47.58896604180336" lon="14.624019032344222">
        <ele>563.39999999999998</ele>
        <time>2012-10-21T09:49:53Z</time>
      </trkpt>
      <trkpt lat="47.588984984904528" lon="14.624111987650394">
        <ele>563</ele>
        <time>2012-10-21T09:49:54Z</time>
      </trkpt>
      <trkpt lat="47.588993031531572" lon="14.624208966270089">
        <ele>562.60000000000002</ele>
        <time>2012-10-21T09:49:55Z</time>
      </trkpt>
      <trkpt lat="47.589000994339585" lon="14.62429597042501">
        <ele>562.20000000000005</ele>
        <time>2012-10-21T09:49:56Z</time>
      </trkpt>
      <trkpt lat="47.589005017653108" lon="14.624380962923169">
        <ele>561.79999999999995</ele>
        <time>2012-10-21T09:49:57Z</time>
      </trkpt>
      <trkpt lat="47.589005017653108" lon="14.624546002596617">
        <ele>561.79999999999995</ele>
        <time>2012-10-21T09:49:59Z</time>
      </trkpt>
      <trkpt lat="47.589015997946262" lon="14.625053023919463">
        <ele>561.79999999999995</ele>
        <time>2012-10-21T09:50:06Z</time>
      </trkpt>
      <trkpt lat="47.589026978239417" lon="14.625612013041973">
        <ele>561.79999999999995</ele>
        <time>2012-10-21T09:50:14Z</time>
      </trkpt>
      <trkpt lat="47.589031001552939" lon="14.626158010214567">
        <ele>561.79999999999995</ele>
        <time>2012-10-21T09:50:22Z</time>
      </trkpt>
      <trkpt lat="47.589031001552939" lon="14.626474007964134">
        <ele>561.79999999999995</ele>
        <time>2012-10-21T09:50:28Z</time>
      </trkpt>
      <trkpt lat="47.589062014594674" lon="14.626755975186825">
        <ele>561.79999999999995</ele>
        <time>2012-10-21T09:50:34Z</time>
      </trkpt>
      <trkpt lat="47.589149018749595" lon="14.627026962116361">
        <ele>561.79999999999995</ele>
        <time>2012-10-21T09:50:40Z</time>
      </trkpt>
      <trkpt lat="47.589282961562276" lon="14.627256039530039">
        <ele>561.79999999999995</ele>
        <time>2012-10-21T09:50:47Z</time>
      </trkpt>
      <trkpt lat="47.589446995407343" lon="14.627417977899313">
        <ele>561.79999999999995</ele>
        <time>2012-10-21T09:50:53Z</time>
      </trkpt>
      <trkpt lat="47.589641958475113" lon="14.627619981765747">
        <ele>561.79999999999995</ele>
        <time>2012-10-21T09:50:59Z</time>
      </trkpt>
      <trkpt lat="47.589897019788623" lon="14.627951988950372">
        <ele>561.79999999999995</ele>
        <time>2012-10-21T09:51:06Z</time>
      </trkpt>
      <trkpt lat="47.590102963149548" lon="14.628237979486585">
        <ele>561.79999999999995</ele>
        <time>2012-10-21T09:51:12Z</time>
      </trkpt>
      <trkpt lat="47.590293986722827" lon="14.628387009724975">
        <ele>561.79999999999995</ele>
        <time>2012-10-21T09:51:18Z</time>
      </trkpt>
      <trkpt lat="47.590461960062385" lon="14.628448029980063">
        <ele>561.79999999999995</ele>
        <time>2012-10-21T09:51:24Z</time>
      </trkpt>
      <trkpt lat="47.590603027492762" lon="14.62850796058774">
        <ele>561.79999999999995</ele>
        <time>2012-10-21T09:51:30Z</time>
      </trkpt>
      <trkpt lat="47.590618031099439" lon="14.628522964194417">
        <ele>561.79999999999995</ele>
        <time>2012-10-21T09:51:35Z</time>
      </trkpt>
      <trkpt lat="47.590618031099439" lon="14.628522964194417">
        <ele>561.79999999999995</ele>
        <time>2012-10-21T09:51:48Z</time>
      </trkpt>
      <trkpt lat="47.590618031099439" lon="14.628522964194417">
        <ele>561.79999999999995</ele>
        <time>2012-10-21T09:52:02Z</time>
      </trkpt>
      <trkpt lat="47.590640997514129" lon="14.628530004993081">
        <ele>561.79999999999995</ele>
        <time>2012-10-21T09:52:06Z</time>
      </trkpt>
      <trkpt lat="47.590663963928819" lon="14.628525981679559">
        <ele>561.79999999999995</ele>
        <time>2012-10-21T09:52:08Z</time>
      </trkpt>
      <trkpt lat="47.590693971142173" lon="14.628538973629475">
        <ele>561.79999999999995</ele>
        <time>2012-10-21T09:52:13Z</time>
      </trkpt>
      <trkpt lat="47.590693971142173" lon="14.628538973629475">
        <ele>561.79999999999995</ele>
        <time>2012-10-21T09:52:30Z</time>
      </trkpt>
      <trkpt lat="47.590693971142173" lon="14.628538973629475">
        <ele>561.79999999999995</ele>
        <time>2012-10-21T09:52:48Z</time>
      </trkpt>
      <trkpt lat="47.590691037476063" lon="14.628534028306603">
        <ele>561.79999999999995</ele>
        <time>2012-10-21T09:53:03Z</time>
      </trkpt>
      <trkpt lat="47.59072900749743" lon="14.628533022478223">
        <ele>561.79999999999995</ele>
        <time>2012-10-21T09:53:10Z</time>
      </trkpt>
      <trkpt lat="47.590854987502098" lon="14.628561018034816">
        <ele>561.79999999999995</ele>
        <time>2012-10-21T09:53:15Z</time>
      </trkpt>
      <trkpt lat="47.591041987761855" lon="14.628619020804763">
        <ele>561.79999999999995</ele>
        <time>2012-10-21T09:53:21Z</time>
      </trkpt>
      <trkpt lat="47.591166961938143" lon="14.628684986382723">
        <ele>561.79999999999995</ele>
        <time>2012-10-21T09:53:26Z</time>
      </trkpt>
      <trkpt lat="47.591267041862011" lon="14.628898976370692">
        <ele>561.79999999999995</ele>
        <time>2012-10-21T09:53:31Z</time>
      </trkpt>
      <trkpt lat="47.59131196886301" lon="14.629265014082193">
        <ele>561.79999999999995</ele>
        <time>2012-10-21T09:53:37Z</time>
      </trkpt>
      <trkpt lat="47.591335019096732" lon="14.62981604039669">
        <ele>561.79999999999995</ele>
        <time>2012-10-21T09:53:45Z</time>
      </trkpt>
      <trkpt lat="47.591327978298068" lon="14.630020977929235">
        <ele>561.79999999999995</ele>
        <time>2012-10-21T09:53:49Z</time>
      </trkpt>
      <trkpt lat="47.591338958591223" lon="14.630394978448749">
        <ele>561.79999999999995</ele>
        <time>2012-10-21T09:53:55Z</time>
      </trkpt>
      <trkpt lat="47.5913539621979" lon="14.630978023633361">
        <ele>561.79999999999995</ele>
        <time>2012-10-21T09:54:04Z</time>
      </trkpt>
      <trkpt lat="47.591366032138467" lon="14.631378008052707">
        <ele>561.79999999999995</ele>
        <time>2012-10-21T09:54:10Z</time>
      </trkpt>
      <trkpt lat="47.591388998553157" lon="14.631628040224314">
        <ele>561.79999999999995</ele>
        <time>2012-10-21T09:54:14Z</time>
      </trkpt>
      <trkpt lat="47.591396039351821" lon="14.631862984970212">
        <ele>561.79999999999995</ele>
        <time>2012-10-21T09:54:18Z</time>
      </trkpt>
      <trkpt lat="47.591411964967847" lon="14.632355002686381">
        <ele>561.79999999999995</ele>
        <time>2012-10-21T09:54:26Z</time>
      </trkpt>
      <trkpt lat="47.591445995494723" lon="14.632912985980511">
        <ele>561.79999999999995</ele>
        <time>2012-10-21T09:54:35Z</time>
      </trkpt>
      <trkpt lat="47.591534005478024" lon="14.633320011198521">
        <ele>561.79999999999995</ele>
        <time>2012-10-21T09:54:43Z</time>
      </trkpt>
      <trkpt lat="47.591586979106069" lon="14.633789984509349">
        <ele>561.79999999999995</ele>
        <time>2012-10-21T09:54:51Z</time>
      </trkpt>
      <trkpt lat="47.591625032946467" lon="14.634155016392469">
        <ele>561.79999999999995</ele>
        <time>2012-10-21T09:54:57Z</time>
      </trkpt>
      <trkpt lat="47.59163299575448" lon="14.634635969996452">
        <ele>561.79999999999995</ele>
        <time>2012-10-21T09:55:05Z</time>
      </trkpt>
      <trkpt lat="47.591583039611578" lon="14.635191019624472">
        <ele>561.79999999999995</ele>
        <time>2012-10-21T09:55:14Z</time>
      </trkpt>
      <trkpt lat="47.591492012143135" lon="14.63566199876368">
        <ele>561.79999999999995</ele>
        <time>2012-10-21T09:55:21Z</time>
      </trkpt>
      <trkpt lat="47.591362008824944" lon="14.636132977902889">
        <ele>561.79999999999995</ele>
        <time>2012-10-21T09:55:28Z</time>
      </trkpt>
      <trkpt lat="47.591124968603253" lon="14.636923978105187">
        <ele>561.79999999999995</ele>
        <time>2012-10-21T09:55:40Z</time>
      </trkpt>
      <trkpt lat="47.590968981385231" lon="14.637450026348233">
        <ele>561.79999999999995</ele>
        <time>2012-10-21T09:55:49Z</time>
      </trkpt>
      <trkpt lat="47.590827997773886" lon="14.637933997437358">
        <ele>562.20000000000005</ele>
        <time>2012-10-21T09:55:58Z</time>
      </trkpt>
      <trkpt lat="47.590812994167209" lon="14.63798001408577">
        <ele>562.60000000000002</ele>
        <time>2012-10-21T09:55:59Z</time>
      </trkpt>
      <trkpt lat="47.590796984732151" lon="14.638027958571911">
        <ele>563</ele>
        <time>2012-10-21T09:56:00Z</time>
      </trkpt>
      <trkpt lat="47.590781981125474" lon="14.638071963563561">
        <ele>563.60000000000002</ele>
        <time>2012-10-21T09:56:01Z</time>
      </trkpt>
      <trkpt lat="47.590771000832319" lon="14.638115968555212">
        <ele>564</ele>
        <time>2012-10-21T09:56:02Z</time>
      </trkpt>
      <trkpt lat="47.590678967535496" lon="14.638387961313128">
        <ele>564.39999999999998</ele>
        <time>2012-10-21T09:56:08Z</time>
      </trkpt>
      <trkpt lat="47.590667987242341" lon="14.638431966304779">
        <ele>564.79999999999995</ele>
        <time>2012-10-21T09:56:09Z</time>
      </trkpt>
      <trkpt lat="47.590651977807283" lon="14.638473959639668">
        <ele>565.39999999999998</ele>
        <time>2012-10-21T09:56:10Z</time>
      </trkpt>
      <trkpt lat="47.590640997514129" lon="14.638516958802938">
        <ele>565.79999999999995</ele>
        <time>2012-10-21T09:56:11Z</time>
      </trkpt>
      <trkpt lat="47.590630017220974" lon="14.638563981279731">
        <ele>566.20000000000005</ele>
        <time>2012-10-21T09:56:12Z</time>
      </trkpt>
      <trkpt lat="47.590533960610628" lon="14.638878973200917">
        <ele>566.20000000000005</ele>
        <time>2012-10-21T09:56:19Z</time>
      </trkpt>
      <trkpt lat="47.590522980317473" lon="14.638924989849329">
        <ele>566.60000000000002</ele>
        <time>2012-10-21T09:56:20Z</time>
      </trkpt>
      <trkpt lat="47.590510994195938" lon="14.63897000066936">
        <ele>567</ele>
        <time>2012-10-21T09:56:21Z</time>
      </trkpt>
      <trkpt lat="47.590500013902783" lon="14.639016017317772">
        <ele>567.39999999999998</ele>
        <time>2012-10-21T09:56:22Z</time>
      </trkpt>
      <trkpt lat="47.590488027781248" lon="14.639063961803913">
        <ele>567.79999999999995</ele>
        <time>2012-10-21T09:56:23Z</time>
      </trkpt>
      <trkpt lat="47.590480986982584" lon="14.639111990109086">
        <ele>568.20000000000005</ele>
        <time>2012-10-21T09:56:24Z</time>
      </trkpt>
      <trkpt lat="47.590453997254372" lon="14.63925096206367">
        <ele>568.20000000000005</ele>
        <time>2012-10-21T09:56:27Z</time>
      </trkpt>
      <trkpt lat="47.59040798060596" lon="14.639598978683352">
        <ele>568.20000000000005</ele>
        <time>2012-10-21T09:56:34Z</time>
      </trkpt>
      <trkpt lat="47.590355006977916" lon="14.640122009441257">
        <ele>568.20000000000005</ele>
        <time>2012-10-21T09:56:44Z</time>
      </trkpt>
      <trkpt lat="47.59034302085638" lon="14.640584019944072">
        <ele>568.20000000000005</ele>
        <time>2012-10-21T09:56:52Z</time>
      </trkpt>
      <trkpt lat="47.590389037504792" lon="14.64103102684021">
        <ele>568.20000000000005</ele>
        <time>2012-10-21T09:56:59Z</time>
      </trkpt>
      <trkpt lat="47.590488027781248" lon="14.641507035121322">
        <ele>568.20000000000005</ele>
        <time>2012-10-21T09:57:05Z</time>
      </trkpt>
      <trkpt lat="47.590636974200606" lon="14.642049008980393">
        <ele>568.20000000000005</ele>
        <time>2012-10-21T09:57:11Z</time>
      </trkpt>
      <trkpt lat="47.590667987242341" lon="14.642140958458185">
        <ele>567.79999999999995</ele>
        <time>2012-10-21T09:57:12Z</time>
      </trkpt>
      <trkpt lat="47.590693971142173" lon="14.64223600924015">
        <ele>567.39999999999998</ele>
        <time>2012-10-21T09:57:13Z</time>
      </trkpt>
      <trkpt lat="47.590724984183908" lon="14.642330976203084">
        <ele>567</ele>
        <time>2012-10-21T09:57:14Z</time>
      </trkpt>
      <trkpt lat="47.59075197391212" lon="14.642426026985049">
        <ele>566.60000000000002</ele>
        <time>2012-10-21T09:57:15Z</time>
      </trkpt>
      <trkpt lat="47.590781981125474" lon="14.642524011433125">
        <ele>566.20000000000005</ele>
        <time>2012-10-21T09:57:16Z</time>
      </trkpt>
      <trkpt lat="47.590869991108775" lon="14.642821988090873">
        <ele>565.79999999999995</ele>
        <time>2012-10-21T09:57:19Z</time>
      </trkpt>
      <trkpt lat="47.590896980836987" lon="14.642921984195709">
        <ele>565.39999999999998</ele>
        <time>2012-10-21T09:57:20Z</time>
      </trkpt>
      <trkpt lat="47.590926988050342" lon="14.643023991957307">
        <ele>565</ele>
        <time>2012-10-21T09:57:21Z</time>
      </trkpt>
      <trkpt lat="47.590958001092076" lon="14.643130023032427">
        <ele>564.60000000000002</ele>
        <time>2012-10-21T09:57:22Z</time>
      </trkpt>
      <trkpt lat="47.59098800830543" lon="14.643236976116896">
        <ele>564.20000000000005</ele>
        <time>2012-10-21T09:57:23Z</time>
      </trkpt>
      <trkpt lat="47.591091021895409" lon="14.643560014665127">
        <ele>563.79999999999995</ele>
        <time>2012-10-21T09:57:26Z</time>
      </trkpt>
      <trkpt lat="47.591124968603253" lon="14.643666967749596">
        <ele>563.39999999999998</ele>
        <time>2012-10-21T09:57:27Z</time>
      </trkpt>
      <trkpt lat="47.591164028272033" lon="14.643774004653096">
        <ele>563</ele>
        <time>2012-10-21T09:57:28Z</time>
      </trkpt>
      <trkpt lat="47.591206021606922" lon="14.643879029899836">
        <ele>562.39999999999998</ele>
        <time>2012-10-21T09:57:29Z</time>
      </trkpt>
      <trkpt lat="47.591251032426953" lon="14.643984977155924">
        <ele>562</ele>
        <time>2012-10-21T09:57:30Z</time>
      </trkpt>
      <trkpt lat="47.591347005218267" lon="14.644202990457416">
        <ele>561.60000000000002</ele>
        <time>2012-10-21T09:57:32Z</time>
      </trkpt>
      <trkpt lat="47.591396039351821" lon="14.64432000182569">
        <ele>561.20000000000005</ele>
        <time>2012-10-21T09:57:33Z</time>
      </trkpt>
      <trkpt lat="47.591445995494723" lon="14.644433995708823">
        <ele>560.60000000000002</ele>
        <time>2012-10-21T09:57:34Z</time>
      </trkpt>
      <trkpt lat="47.591487988829613" lon="14.644551007077098">
        <ele>560.20000000000005</ele>
        <time>2012-10-21T09:57:35Z</time>
      </trkpt>
      <trkpt lat="47.591529982164502" lon="14.644672041758895">
        <ele>559.60000000000002</ele>
        <time>2012-10-21T09:57:36Z</time>
      </trkpt>
      <trkpt lat="47.591571975499392" lon="14.644795004278421">
        <ele>559.20000000000005</ele>
        <time>2012-10-21T09:57:37Z</time>
      </trkpt>
      <trkpt lat="47.591606006026268" lon="14.644919978454709">
        <ele>558.60000000000002</ele>
        <time>2012-10-21T09:57:38Z</time>
      </trkpt>
      <trkpt lat="47.591637019068003" lon="14.645048975944519">
        <ele>558.20000000000005</ele>
        <time>2012-10-21T09:57:39Z</time>
      </trkpt>
      <trkpt lat="47.591670965775847" lon="14.645175961777568">
        <ele>557.60000000000002</ele>
        <time>2012-10-21T09:57:40Z</time>
      </trkpt>
      <trkpt lat="47.591742966324091" lon="14.645558008924127">
        <ele>557.20000000000005</ele>
        <time>2012-10-21T09:57:43Z</time>
      </trkpt>
      <trkpt lat="47.591746989637613" lon="14.645676026120782">
        <ele>556.79999999999995</ele>
        <time>2012-10-21T09:57:44Z</time>
      </trkpt>
      <trkpt lat="47.591746989637613" lon="14.645794965326786">
        <ele>556.39999999999998</ele>
        <time>2012-10-21T09:57:45Z</time>
      </trkpt>
      <trkpt lat="47.591742966324091" lon="14.645911976695061">
        <ele>556</ele>
        <time>2012-10-21T09:57:46Z</time>
      </trkpt>
      <trkpt lat="47.591742966324091" lon="14.646025970578194">
        <ele>555.39999999999998</ele>
        <time>2012-10-21T09:57:47Z</time>
      </trkpt>
      <trkpt lat="47.591740032657981" lon="14.646138958632946">
        <ele>555.39999999999998</ele>
        <time>2012-10-21T09:57:48Z</time>
      </trkpt>
      <trkpt lat="47.591682029888034" lon="14.646656960248947">
        <ele>555.39999999999998</ele>
        <time>2012-10-21T09:57:53Z</time>
      </trkpt>
      <trkpt lat="47.591559989377856" lon="14.647217039018869">
        <ele>555.39999999999998</ele>
        <time>2012-10-21T09:57:59Z</time>
      </trkpt>
      <trkpt lat="47.591419005766511" lon="14.647821960970759">
        <ele>555.39999999999998</ele>
        <time>2012-10-21T09:58:06Z</time>
      </trkpt>
      <trkpt lat="47.59135102853179" lon="14.648429984226823">
        <ele>555.39999999999998</ele>
        <time>2012-10-21T09:58:13Z</time>
      </trkpt>
      <trkpt lat="47.591357985511422" lon="14.649034989997745">
        <ele>555.39999999999998</ele>
        <time>2012-10-21T09:58:20Z</time>
      </trkpt>
      <trkpt lat="47.591369971632957" lon="14.649121994152665">
        <ele>555.39999999999998</ele>
        <time>2012-10-21T09:58:21Z</time>
      </trkpt>
      <trkpt lat="47.591456975787878" lon="14.649494988843799">
        <ele>555.39999999999998</ele>
        <time>2012-10-21T09:58:25Z</time>
      </trkpt>
      <trkpt lat="47.591564012691379" lon="14.649910982698202">
        <ele>555</ele>
        <time>2012-10-21T09:58:29Z</time>
      </trkpt>
      <trkpt lat="47.591591002419591" lon="14.650021037086844">
        <ele>554.60000000000002</ele>
        <time>2012-10-21T09:58:30Z</time>
      </trkpt>
      <trkpt lat="47.591617992147803" lon="14.650131007656455">
        <ele>553.79999999999995</ele>
        <time>2012-10-21T09:58:31Z</time>
      </trkpt>
      <trkpt lat="47.591637019068003" lon="14.650243995711207">
        <ele>553.20000000000005</ele>
        <time>2012-10-21T09:58:32Z</time>
      </trkpt>
      <trkpt lat="47.591712959110737" lon="14.650806002318859">
        <ele>553.20000000000005</ele>
        <time>2012-10-21T09:58:37Z</time>
      </trkpt>
      <trkpt lat="47.591724023222923" lon="14.6514100022614">
        <ele>553.20000000000005</ele>
        <time>2012-10-21T09:58:43Z</time>
      </trkpt>
      <trkpt lat="47.591643976047635" lon="14.652007967233658">
        <ele>553.20000000000005</ele>
        <time>2012-10-21T09:58:50Z</time>
      </trkpt>
      <trkpt lat="47.591468961909413" lon="14.652601992711425">
        <ele>553.20000000000005</ele>
        <time>2012-10-21T09:58:58Z</time>
      </trkpt>
      <trkpt lat="47.591267041862011" lon="14.653051011264324">
        <ele>553.20000000000005</ele>
        <time>2012-10-21T09:59:05Z</time>
      </trkpt>
      <trkpt lat="47.591056991368532" lon="14.653560966253281">
        <ele>553.20000000000005</ele>
        <time>2012-10-21T09:59:13Z</time>
      </trkpt>
      <trkpt lat="47.590893041342497" lon="14.654092965647578">
        <ele>553.20000000000005</ele>
        <time>2012-10-21T09:59:20Z</time>
      </trkpt>
      <trkpt lat="47.590793967247009" lon="14.654721021652222">
        <ele>553.20000000000005</ele>
        <time>2012-10-21T09:59:26Z</time>
      </trkpt>
      <trkpt lat="47.590759014710784" lon="14.655077001079917">
        <ele>552.79999999999995</ele>
        <time>2012-10-21T09:59:29Z</time>
      </trkpt>
      <trkpt lat="47.590748034417629" lon="14.655199041590095">
        <ele>552.39999999999998</ele>
        <time>2012-10-21T09:59:30Z</time>
      </trkpt>
      <trkpt lat="47.590733030810952" lon="14.655313035473228">
        <ele>551.79999999999995</ele>
        <time>2012-10-21T09:59:31Z</time>
      </trkpt>
      <trkpt lat="47.590717021375895" lon="14.65542602352798">
        <ele>551.39999999999998</ele>
        <time>2012-10-21T09:59:32Z</time>
      </trkpt>
      <trkpt lat="47.590697994455695" lon="14.65553599409759">
        <ele>551</ele>
        <time>2012-10-21T09:59:33Z</time>
      </trkpt>
      <trkpt lat="47.590682990849018" lon="14.655643031001091">
        <ele>551</ele>
        <time>2012-10-21T09:59:34Z</time>
      </trkpt>
      <trkpt lat="47.59053798392415" lon="14.656432019546628">
        <ele>551</ele>
        <time>2012-10-21T09:59:42Z</time>
      </trkpt>
      <trkpt lat="47.590377973392606" lon="14.657132998108864">
        <ele>551</ele>
        <time>2012-10-21T09:59:50Z</time>
      </trkpt>
      <trkpt lat="47.590217962861061" lon="14.657892985269427">
        <ele>551</ele>
        <time>2012-10-21T09:59:59Z</time>
      </trkpt>
      <trkpt lat="47.590099023655057" lon="14.658379973843694">
        <ele>551</ele>
        <time>2012-10-21T10:00:05Z</time>
      </trkpt>
      <trkpt lat="47.589889978989959" lon="14.659184971824288">
        <ele>551</ele>
        <time>2012-10-21T10:00:15Z</time>
      </trkpt>
      <trkpt lat="47.589699039235711" lon="14.659887040033937">
        <ele>551</ele>
        <time>2012-10-21T10:00:24Z</time>
      </trkpt>
      <trkpt lat="47.589526958763599" lon="14.660487016662955">
        <ele>551</ele>
        <time>2012-10-21T10:00:32Z</time>
      </trkpt>
      <trkpt lat="47.589301988482475" lon="14.661224959418178">
        <ele>551</ele>
        <time>2012-10-21T10:00:42Z</time>
      </trkpt>
      <trkpt lat="47.589050028473139" lon="14.661997016519308">
        <ele>551</ele>
        <time>2012-10-21T10:00:53Z</time>
      </trkpt>
      <trkpt lat="47.588802007958293" lon="14.662634041160345">
        <ele>551</ele>
        <time>2012-10-21T10:01:02Z</time>
      </trkpt>
      <trkpt lat="47.588637974113226" lon="14.663035031408072">
        <ele>551</ele>
        <time>2012-10-21T10:01:08Z</time>
      </trkpt>
      <trkpt lat="47.588439993560314" lon="14.66354800388217">
        <ele>551</ele>
        <time>2012-10-21T10:01:16Z</time>
      </trkpt>
      <trkpt lat="47.588402023538947" lon="14.663750007748604">
        <ele>551</ele>
        <time>2012-10-21T10:01:19Z</time>
      </trkpt>
      <trkpt lat="47.58836698718369" lon="14.663937008008361">
        <ele>551</ele>
        <time>2012-10-21T10:01:22Z</time>
      </trkpt>
      <trkpt lat="47.588275959715247" lon="14.664425002411008">
        <ele>551</ele>
        <time>2012-10-21T10:01:30Z</time>
      </trkpt>
      <trkpt lat="47.588191973045468" lon="14.665058003738523">
        <ele>551</ele>
        <time>2012-10-21T10:01:39Z</time>
      </trkpt>
      <trkpt lat="47.588138999417424" lon="14.665382970124483">
        <ele>551</ele>
        <time>2012-10-21T10:01:44Z</time>
      </trkpt>
      <trkpt lat="47.588127013295889" lon="14.665516996756196">
        <ele>551</ele>
        <time>2012-10-21T10:01:46Z</time>
      </trkpt>
      <trkpt lat="47.588127013295889" lon="14.665649011731148">
        <ele>551</ele>
        <time>2012-10-21T10:01:48Z</time>
      </trkpt>
      <trkpt lat="47.588119972497225" lon="14.666052013635635">
        <ele>551</ele>
        <time>2012-10-21T10:01:54Z</time>
      </trkpt>
      <trkpt lat="47.588103963062167" lon="14.666560040786862">
        <ele>551</ele>
        <time>2012-10-21T10:02:02Z</time>
      </trkpt>
      <trkpt lat="47.588100023567677" lon="14.666691971942782">
        <ele>551.39999999999998</ele>
        <time>2012-10-21T10:02:04Z</time>
      </trkpt>
      <trkpt lat="47.588097006082535" lon="14.666759027168155">
        <ele>551.79999999999995</ele>
        <time>2012-10-21T10:02:05Z</time>
      </trkpt>
      <trkpt lat="47.588097006082535" lon="14.666824992746115">
        <ele>552.20000000000005</ele>
        <time>2012-10-21T10:02:06Z</time>
      </trkpt>
      <trkpt lat="47.588097006082535" lon="14.666895987465978">
        <ele>552.60000000000002</ele>
        <time>2012-10-21T10:02:07Z</time>
      </trkpt>
      <trkpt lat="47.588092982769012" lon="14.666957007721066">
        <ele>553</ele>
        <time>2012-10-21T10:02:08Z</time>
      </trkpt>
      <trkpt lat="47.58808895945549" lon="14.667087011039257">
        <ele>553</ele>
        <time>2012-10-21T10:02:10Z</time>
      </trkpt>
      <trkpt lat="47.5880659930408" lon="14.667535023763776">
        <ele>553</ele>
        <time>2012-10-21T10:02:17Z</time>
      </trkpt>
      <trkpt lat="47.588004972785711" lon="14.667903995141387">
        <ele>553</ele>
        <time>2012-10-21T10:02:23Z</time>
      </trkpt>
      <trkpt lat="47.587868012487888" lon="14.668378997594118">
        <ele>553</ele>
        <time>2012-10-21T10:02:31Z</time>
      </trkpt>
      <trkpt lat="47.587708001956344" lon="14.668832961469889">
        <ele>553</ele>
        <time>2012-10-21T10:02:39Z</time>
      </trkpt>
      <trkpt lat="47.587566012516618" lon="14.669208973646164">
        <ele>553</ele>
        <time>2012-10-21T10:02:46Z</time>
      </trkpt>
      <trkpt lat="47.587455958127975" lon="14.66960996389389">
        <ele>553</ele>
        <time>2012-10-21T10:02:53Z</time>
      </trkpt>
      <trkpt lat="47.58744397200644" lon="14.66967299580574">
        <ele>553</ele>
        <time>2012-10-21T10:02:54Z</time>
      </trkpt>
      <trkpt lat="47.587395021691918" lon="14.670042973011732">
        <ele>553</ele>
        <time>2012-10-21T10:03:00Z</time>
      </trkpt>
      <trkpt lat="47.587425028905272" lon="14.67057497240603">
        <ele>553</ele>
        <time>2012-10-21T10:03:08Z</time>
      </trkpt>
      <trkpt lat="47.587504992261529" lon="14.671077970415354">
        <ele>553</ele>
        <time>2012-10-21T10:03:15Z</time>
      </trkpt>
      <trkpt lat="47.58763499557972" lon="14.671559007838368">
        <ele>553</ele>
        <time>2012-10-21T10:03:21Z</time>
      </trkpt>
      <trkpt lat="47.587795006111264" lon="14.672187985852361">
        <ele>553</ele>
        <time>2012-10-21T10:03:28Z</time>
      </trkpt>
      <trkpt lat="47.587863989174366" lon="14.672479005530477">
        <ele>552.60000000000002</ele>
        <time>2012-10-21T10:03:31Z</time>
      </trkpt>
      <trkpt lat="47.587887039408088" lon="14.672583024948835">
        <ele>552.20000000000005</ele>
        <time>2012-10-21T10:03:32Z</time>
      </trkpt>
      <trkpt lat="47.587910005822778" lon="14.672682015225291">
        <ele>551.79999999999995</ele>
        <time>2012-10-21T10:03:33Z</time>
      </trkpt>
      <trkpt lat="47.587932972237468" lon="14.672783017158508">
        <ele>551.39999999999998</ele>
        <time>2012-10-21T10:03:34Z</time>
      </trkpt>
      <trkpt lat="47.587955016642809" lon="14.672885024920106">
        <ele>551</ele>
        <time>2012-10-21T10:03:35Z</time>
      </trkpt>
      <trkpt lat="47.588074039667845" lon="14.673429010435939">
        <ele>550.60000000000002</ele>
        <time>2012-10-21T10:03:40Z</time>
      </trkpt>
      <trkpt lat="47.588100023567677" lon="14.67353998683393">
        <ele>550.20000000000005</ele>
        <time>2012-10-21T10:03:41Z</time>
      </trkpt>
      <trkpt lat="47.588122989982367" lon="14.673649035394192">
        <ele>549.79999999999995</ele>
        <time>2012-10-21T10:03:42Z</time>
      </trkpt>
      <trkpt lat="47.588149979710579" lon="14.673759005963802">
        <ele>549.39999999999998</ele>
        <time>2012-10-21T10:03:43Z</time>
      </trkpt>
      <trkpt lat="47.588173029944301" lon="14.673866964876652">
        <ele>549</ele>
        <time>2012-10-21T10:03:44Z</time>
      </trkpt>
      <trkpt lat="47.588263973593712" lon="14.674312965944409">
        <ele>548.60000000000002</ele>
        <time>2012-10-21T10:03:48Z</time>
      </trkpt>
      <trkpt lat="47.588287023827434" lon="14.674422014504671">
        <ele>548.20000000000005</ele>
        <time>2012-10-21T10:03:49Z</time>
      </trkpt>
      <trkpt lat="47.588309990242124" lon="14.674531985074282">
        <ele>547.79999999999995</ele>
        <time>2012-10-21T10:03:50Z</time>
      </trkpt>
      <trkpt lat="47.588333040475845" lon="14.674641033634543">
        <ele>547.39999999999998</ele>
        <time>2012-10-21T10:03:51Z</time>
      </trkpt>
      <trkpt lat="47.588356006890535" lon="14.674746980890632">
        <ele>547</ele>
        <time>2012-10-21T10:03:52Z</time>
      </trkpt>
      <trkpt lat="47.588486010208726" lon="14.675371013581753">
        <ele>547</ele>
        <time>2012-10-21T10:03:58Z</time>
      </trkpt>
      <trkpt lat="47.588569996878505" lon="14.675858002156019">
        <ele>546.60000000000002</ele>
        <time>2012-10-21T10:04:03Z</time>
      </trkpt>
      <trkpt lat="47.588592963293195" lon="14.675960009917617">
        <ele>546.20000000000005</ele>
        <time>2012-10-21T10:04:04Z</time>
      </trkpt>
      <trkpt lat="47.588611990213394" lon="14.676055982708931">
        <ele>545.79999999999995</ele>
        <time>2012-10-21T10:04:05Z</time>
      </trkpt>
      <trkpt lat="47.588631017133594" lon="14.676152039319277">
        <ele>545.39999999999998</ele>
        <time>2012-10-21T10:04:06Z</time>
      </trkpt>
      <trkpt lat="47.588646020740271" lon="14.676248012110591">
        <ele>545</ele>
        <time>2012-10-21T10:04:07Z</time>
      </trkpt>
      <trkpt lat="47.588749034330249" lon="14.676908003166318">
        <ele>545</ele>
        <time>2012-10-21T10:04:14Z</time>
      </trkpt>
      <trkpt lat="47.588772000744939" lon="14.677559025585651">
        <ele>545</ele>
        <time>2012-10-21T10:04:21Z</time>
      </trkpt>
      <trkpt lat="47.588772000744939" lon="14.67837399803102">
        <ele>545</ele>
        <time>2012-10-21T10:04:30Z</time>
      </trkpt>
      <trkpt lat="47.588836960494518" lon="14.678868027403951">
        <ele>544.60000000000002</ele>
        <time>2012-10-21T10:04:35Z</time>
      </trkpt>
      <trkpt lat="47.588851964101195" lon="14.67897498048842">
        <ele>544.20000000000005</ele>
        <time>2012-10-21T10:04:36Z</time>
      </trkpt>
      <trkpt lat="47.588866967707872" lon="14.67908101156354">
        <ele>543.79999999999995</ele>
        <time>2012-10-21T10:04:37Z</time>
      </trkpt>
      <trkpt lat="47.588885994628072" lon="14.67918997630477">
        <ele>543.39999999999998</ele>
        <time>2012-10-21T10:04:38Z</time>
      </trkpt>
      <trkpt lat="47.588905021548271" lon="14.679300030693412">
        <ele>543</ele>
        <time>2012-10-21T10:04:39Z</time>
      </trkpt>
      <trkpt lat="47.588981967419386" lon="14.679650980979204">
        <ele>542.39999999999998</ele>
        <time>2012-10-21T10:04:42Z</time>
      </trkpt>
      <trkpt lat="47.58901197463274" lon="14.679768998175859">
        <ele>542</ele>
        <time>2012-10-21T10:04:43Z</time>
      </trkpt>
      <trkpt lat="47.589038964360952" lon="14.679882992058992">
        <ele>541.39999999999998</ele>
        <time>2012-10-21T10:04:44Z</time>
      </trkpt>
      <trkpt lat="47.589066037908196" lon="14.679995980113745">
        <ele>541</ele>
        <time>2012-10-21T10:04:45Z</time>
      </trkpt>
      <trkpt lat="47.589092021808028" lon="14.680112991482019">
        <ele>540.39999999999998</ele>
        <time>2012-10-21T10:04:46Z</time>
      </trkpt>
      <trkpt lat="47.589187994599342" lon="14.680464025586843">
        <ele>540</ele>
        <time>2012-10-21T10:04:49Z</time>
      </trkpt>
      <trkpt lat="47.589222025126219" lon="14.680578019469976">
        <ele>539.60000000000002</ele>
        <time>2012-10-21T10:04:50Z</time>
      </trkpt>
      <trkpt lat="47.589252032339573" lon="14.680695030838251">
        <ele>539.20000000000005</ele>
        <time>2012-10-21T10:04:51Z</time>
      </trkpt>
      <trkpt lat="47.589282961562276" lon="14.680805001407862">
        <ele>538.79999999999995</ele>
        <time>2012-10-21T10:04:52Z</time>
      </trkpt>
      <trkpt lat="47.589313974604011" lon="14.680915977805853">
        <ele>538.39999999999998</ele>
        <time>2012-10-21T10:04:53Z</time>
      </trkpt>
      <trkpt lat="47.589431991800666" lon="14.681486031040549">
        <ele>538.39999999999998</ele>
        <time>2012-10-21T10:04:58Z</time>
      </trkpt>
      <trkpt lat="47.589488988742232" lon="14.682087013497949">
        <ele>538.39999999999998</ele>
        <time>2012-10-21T10:05:04Z</time>
      </trkpt>
      <trkpt lat="47.589442972093821" lon="14.682749016210437">
        <ele>538.39999999999998</ele>
        <time>2012-10-21T10:05:11Z</time>
      </trkpt>
      <trkpt lat="47.589321015402675" lon="14.683579998090863">
        <ele>538.39999999999998</ele>
        <time>2012-10-21T10:05:20Z</time>
      </trkpt>
      <trkpt lat="47.58931003510952" lon="14.683682005852461">
        <ele>538</ele>
        <time>2012-10-21T10:05:21Z</time>
      </trkpt>
      <trkpt lat="47.589297965168953" lon="14.683782001957297">
        <ele>537.60000000000002</ele>
        <time>2012-10-21T10:05:22Z</time>
      </trkpt>
      <trkpt lat="47.589291008189321" lon="14.683883003890514">
        <ele>537.20000000000005</ele>
        <time>2012-10-21T10:05:23Z</time>
      </trkpt>
      <trkpt lat="47.589286984875798" lon="14.683984005823731">
        <ele>536.60000000000002</ele>
        <time>2012-10-21T10:05:24Z</time>
      </trkpt>
      <trkpt lat="47.589286984875798" lon="14.684091964736581">
        <ele>536.20000000000005</ele>
        <time>2012-10-21T10:05:25Z</time>
      </trkpt>
      <trkpt lat="47.589294025674462" lon="14.684314001351595">
        <ele>536.20000000000005</ele>
        <time>2012-10-21T10:05:27Z</time>
      </trkpt>
      <trkpt lat="47.589316992089152" lon="14.684549029916525">
        <ele>535.79999999999995</ele>
        <time>2012-10-21T10:05:29Z</time>
      </trkpt>
      <trkpt lat="47.58933300152421" lon="14.6846660412848">
        <ele>535.39999999999998</ele>
        <time>2012-10-21T10:05:30Z</time>
      </trkpt>
      <trkpt lat="47.589348005130887" lon="14.684781040996313">
        <ele>535</ele>
        <time>2012-10-21T10:05:31Z</time>
      </trkpt>
      <trkpt lat="47.589370971545577" lon="14.684896040707827">
        <ele>534.20000000000005</ele>
        <time>2012-10-21T10:05:32Z</time>
      </trkpt>
      <trkpt lat="47.589394021779299" lon="14.685008022934198">
        <ele>534.20000000000005</ele>
        <time>2012-10-21T10:05:33Z</time>
      </trkpt>
      <trkpt lat="47.589512038975954" lon="14.685413036495447">
        <ele>533.79999999999995</ele>
        <time>2012-10-21T10:05:37Z</time>
      </trkpt>
      <trkpt lat="47.589550008997321" lon="14.685500962659717">
        <ele>533.39999999999998</ele>
        <time>2012-10-21T10:05:38Z</time>
      </trkpt>
      <trkpt lat="47.589587979018688" lon="14.685584027320147">
        <ele>533</ele>
        <time>2012-10-21T10:05:39Z</time>
      </trkpt>
      <trkpt lat="47.5896339956671" lon="14.685659967362881">
        <ele>532.60000000000002</ele>
        <time>2012-10-21T10:05:40Z</time>
      </trkpt>
      <trkpt lat="47.589680012315512" lon="14.685732973739505">
        <ele>532.20000000000005</ele>
        <time>2012-10-21T10:05:41Z</time>
      </trkpt>
      <trkpt lat="47.589771039783955" lon="14.685861971229315">
        <ele>532.20000000000005</ele>
        <time>2012-10-21T10:05:43Z</time>
      </trkpt>
      <trkpt lat="47.590033980086446" lon="14.686299003660679">
        <ele>532.20000000000005</ele>
        <time>2012-10-21T10:05:50Z</time>
      </trkpt>
      <trkpt lat="47.590159960091114" lon="14.686540989205241">
        <ele>532.60000000000002</ele>
        <time>2012-10-21T10:05:54Z</time>
      </trkpt>
      <trkpt lat="47.590190973132849" lon="14.686593962833285">
        <ele>533</ele>
        <time>2012-10-21T10:05:55Z</time>
      </trkpt>
      <trkpt lat="47.590220980346203" lon="14.686642996966839">
        <ele>533.39999999999998</ele>
        <time>2012-10-21T10:05:56Z</time>
      </trkpt>
      <trkpt lat="47.590251993387938" lon="14.686693036928773">
        <ele>534.20000000000005</ele>
        <time>2012-10-21T10:05:57Z</time>
      </trkpt>
      <trkpt lat="47.590527003630996" lon="14.687130991369486">
        <ele>534.20000000000005</ele>
        <time>2012-10-21T10:06:05Z</time>
      </trkpt>
      <trkpt lat="47.59055701084435" lon="14.687194023281336">
        <ele>534.20000000000005</ele>
        <time>2012-10-21T10:06:06Z</time>
      </trkpt>
      <trkpt lat="47.590656001120806" lon="14.687465010210872">
        <ele>534.20000000000005</ele>
        <time>2012-10-21T10:06:10Z</time>
      </trkpt>
      <trkpt lat="47.590827997773886" lon="14.688066998496652">
        <ele>534.20000000000005</ele>
        <time>2012-10-21T10:06:19Z</time>
      </trkpt>
      <trkpt lat="47.590922964736819" lon="14.688356006518006">
        <ele>534.20000000000005</ele>
        <time>2012-10-21T10:06:25Z</time>
      </trkpt>
      <trkpt lat="47.590919025242329" lon="14.688545018434525">
        <ele>534.60000000000002</ele>
        <time>2012-10-21T10:06:30Z</time>
      </trkpt>
      <trkpt lat="47.590916007757187" lon="14.68857997097075">
        <ele>535</ele>
        <time>2012-10-21T10:06:31Z</time>
      </trkpt>
      <trkpt lat="47.590911984443665" lon="14.688616013154387">
        <ele>535.39999999999998</ele>
        <time>2012-10-21T10:06:32Z</time>
      </trkpt>
      <trkpt lat="47.590911984443665" lon="14.688650965690613">
        <ele>535.79999999999995</ele>
        <time>2012-10-21T10:06:33Z</time>
      </trkpt>
      <trkpt lat="47.590911984443665" lon="14.688680972903967">
        <ele>536.20000000000005</ele>
        <time>2012-10-21T10:06:34Z</time>
      </trkpt>
      <trkpt lat="47.590916007757187" lon="14.688768982887268">
        <ele>536.20000000000005</ele>
        <time>2012-10-21T10:06:37Z</time>
      </trkpt>
      <trkpt lat="47.590931011363864" lon="14.688877025619149">
        <ele>536.79999999999995</ele>
        <time>2012-10-21T10:06:40Z</time>
      </trkpt>
      <trkpt lat="47.590941991657019" lon="14.688910972326994">
        <ele>537.20000000000005</ele>
        <time>2012-10-21T10:06:41Z</time>
      </trkpt>
      <trkpt lat="47.590950038284063" lon="14.688941985368729">
        <ele>537.60000000000002</ele>
        <time>2012-10-21T10:06:42Z</time>
      </trkpt>
      <trkpt lat="47.590958001092076" lon="14.688969980925322">
        <ele>538</ele>
        <time>2012-10-21T10:06:43Z</time>
      </trkpt>
      <trkpt lat="47.590968981385231" lon="14.688998982310295">
        <ele>538.39999999999998</ele>
        <time>2012-10-21T10:06:44Z</time>
      </trkpt>
      <trkpt lat="47.591022038832307" lon="14.689166033640504">
        <ele>538.79999999999995</ele>
        <time>2012-10-21T10:06:50Z</time>
      </trkpt>
      <trkpt lat="47.591034024953842" lon="14.689190005883574">
        <ele>539.20000000000005</ele>
        <time>2012-10-21T10:06:51Z</time>
      </trkpt>
      <trkpt lat="47.591049028560519" lon="14.68922202475369">
        <ele>539.60000000000002</ele>
        <time>2012-10-21T10:06:52Z</time>
      </trkpt>
      <trkpt lat="47.591067971661687" lon="14.689254965633154">
        <ele>540</ele>
        <time>2012-10-21T10:06:53Z</time>
      </trkpt>
      <trkpt lat="47.591083981096745" lon="14.689286984503269">
        <ele>540.39999999999998</ele>
        <time>2012-10-21T10:06:54Z</time>
      </trkpt>
      <trkpt lat="47.59113703854382" lon="14.689461998641491">
        <ele>540.39999999999998</ele>
        <time>2012-10-21T10:07:00Z</time>
      </trkpt>
      <trkpt lat="47.591151958331466" lon="14.689507009461522">
        <ele>540.79999999999995</ele>
        <time>2012-10-21T10:07:02Z</time>
      </trkpt>
      <trkpt lat="47.59116000495851" lon="14.689531987532973">
        <ele>541.20000000000005</ele>
        <time>2012-10-21T10:07:03Z</time>
      </trkpt>
      <trkpt lat="47.591170985251665" lon="14.689557971432805">
        <ele>541.79999999999995</ele>
        <time>2012-10-21T10:07:04Z</time>
      </trkpt>
      <trkpt lat="47.59117903187871" lon="14.689583033323288">
        <ele>542.20000000000005</ele>
        <time>2012-10-21T10:07:05Z</time>
      </trkpt>
      <trkpt lat="47.591217001900077" lon="14.689596025273204">
        <ele>542.60000000000002</ele>
        <time>2012-10-21T10:07:06Z</time>
      </trkpt>
      <trkpt lat="47.591263018548489" lon="14.689640030264854">
        <ele>542.60000000000002</ele>
        <time>2012-10-21T10:07:08Z</time>
      </trkpt>
      <trkpt lat="47.591423029080033" lon="14.68984697945416">
        <ele>542.60000000000002</ele>
        <time>2012-10-21T10:07:16Z</time>
      </trkpt>
      <trkpt lat="47.59163299575448" lon="14.690070021897554">
        <ele>542.60000000000002</ele>
        <time>2012-10-21T10:07:24Z</time>
      </trkpt>
      <trkpt lat="47.591762999072671" lon="14.690256016328931">
        <ele>542.60000000000002</ele>
        <time>2012-10-21T10:07:32Z</time>
      </trkpt>
      <trkpt lat="47.591845979914069" lon="14.690562961623073">
        <ele>542.60000000000002</ele>
        <time>2012-10-21T10:07:38Z</time>
      </trkpt>
      <trkpt lat="47.591899959370494" lon="14.690586011856794">
        <ele>542.60000000000002</ele>
        <time>2012-10-21T10:07:44Z</time>
      </trkpt>
      <trkpt lat="47.592435982078314" lon="14.692201958969235">
        <ele>548.80999999999995</ele>
        <time>1970-01-01T00:00:00Z</time>
      </trkpt>
      <trkpt lat="47.592518962919712" lon="14.693715982139111">
        <ele>545.04999999999995</ele>
        <time>1970-01-01T00:00:00Z</time>
      </trkpt>
      <trkpt lat="47.592077990993857" lon="14.695549020543694">
        <ele>540.75</ele>
        <time>1970-01-01T00:00:00Z</time>
      </trkpt>
      <trkpt lat="47.592730019241571" lon="14.696513023227453">
        <ele>529.73000000000002</ele>
        <time>1970-01-01T00:00:00Z</time>
      </trkpt>
      <trkpt lat="47.592201037332416" lon="14.699464961886406">
        <ele>528.49000000000001</ele>
        <time>1970-01-01T00:00:00Z</time>
      </trkpt>
      <trkpt lat="47.592049995437264" lon="14.700576988980174">
        <ele>531.95000000000005</ele>
        <time>1970-01-01T00:00:00Z</time>
      </trkpt>
      <trkpt lat="47.59193298406899" lon="14.704842958599329">
        <ele>527.75999999999999</ele>
        <time>1970-01-01T00:00:00Z</time>
      </trkpt>
      <trkpt lat="47.592225009575486" lon="14.70600301399827">
        <ele>527.03999999999996</ele>
        <time>1970-01-01T00:00:00Z</time>
      </trkpt>
      <trkpt lat="47.59442400187254" lon="14.710380965843797">
        <ele>525.04999999999995</ele>
        <time>1970-01-01T00:00:00Z</time>
      </trkpt>
      <trkpt lat="47.595276022329926" lon="14.713059989735484">
        <ele>550.19000000000005</ele>
        <time>1970-01-01T00:00:00Z</time>
      </trkpt>
      <trkpt lat="47.595442989841104" lon="14.716088036075234">
        <ele>526.67999999999995</ele>
        <time>1970-01-01T00:00:00Z</time>
      </trkpt>
      <trkpt lat="47.595645999535918" lon="14.718176973983645">
        <ele>506.19999999999999</ele>
        <time>2012-10-21T10:15:43Z</time>
      </trkpt>
      <trkpt lat="47.595695033669472" lon="14.718243023380637">
        <ele>506.60000000000002</ele>
        <time>2012-10-21T10:15:46Z</time>
      </trkpt>
      <trkpt lat="47.595710959285498" lon="14.718263978138566">
        <ele>507</ele>
        <time>2012-10-21T10:15:47Z</time>
      </trkpt>
      <trkpt lat="47.595722023397684" lon="14.718290967866778">
        <ele>507.80000000000001</ele>
        <time>2012-10-21T10:15:48Z</time>
      </trkpt>
      <trkpt lat="47.595737027004361" lon="14.718318041414022">
        <ele>508.39999999999998</ele>
        <time>2012-10-21T10:15:49Z</time>
      </trkpt>
      <trkpt lat="47.595753036439419" lon="14.718344025313854">
        <ele>508.39999999999998</ele>
        <time>2012-10-21T10:15:50Z</time>
      </trkpt>
      <trkpt lat="47.595817996188998" lon="14.718543011695147">
        <ele>508.39999999999998</ele>
        <time>2012-10-21T10:15:58Z</time>
      </trkpt>
      <trkpt lat="47.595897959545255" lon="14.718672009184957">
        <ele>508.80000000000001</ele>
        <time>2012-10-21T10:16:04Z</time>
      </trkpt>
      <trkpt lat="47.595909023657441" lon="14.718691036105156">
        <ele>509.19999999999999</ele>
        <time>2012-10-21T10:16:05Z</time>
      </trkpt>
      <trkpt lat="47.595921009778976" lon="14.718715008348227">
        <ele>509.60000000000002</ele>
        <time>2012-10-21T10:16:06Z</time>
      </trkpt>
      <trkpt lat="47.595931990072131" lon="14.718736968934536">
        <ele>510</ele>
        <time>2012-10-21T10:16:07Z</time>
      </trkpt>
      <trkpt lat="47.595942970365286" lon="14.718760019168258">
        <ele>510.39999999999998</ele>
        <time>2012-10-21T10:16:08Z</time>
      </trkpt>
      <trkpt lat="47.596027040854096" lon="14.718890022486448">
        <ele>510.39999999999998</ele>
        <time>2012-10-21T10:16:14Z</time>
      </trkpt>
      <trkpt lat="47.596129970625043" lon="14.71908800303936">
        <ele>510.39999999999998</ele>
        <time>2012-10-21T10:16:22Z</time>
      </trkpt>
      <trkpt lat="47.596217980608344" lon="14.719203002750874">
        <ele>510.80000000000001</ele>
        <time>2012-10-21T10:16:28Z</time>
      </trkpt>
      <trkpt lat="47.596232984215021" lon="14.719226974993944">
        <ele>511.19999999999999</ele>
        <time>2012-10-21T10:16:29Z</time>
      </trkpt>
      <trkpt lat="47.596248993650079" lon="14.719253964722157">
        <ele>511.60000000000002</ele>
        <time>2012-10-21T10:16:30Z</time>
      </trkpt>
      <trkpt lat="47.596263997256756" lon="14.71928003244102">
        <ele>512</ele>
        <time>2012-10-21T10:16:31Z</time>
      </trkpt>
      <trkpt lat="47.596279000863433" lon="14.71930299885571">
        <ele>512.39999999999998</ele>
        <time>2012-10-21T10:16:32Z</time>
      </trkpt>
      <trkpt lat="47.59640104137361" lon="14.719465021044016">
        <ele>512.39999999999998</ele>
        <time>2012-10-21T10:16:39Z</time>
      </trkpt>
      <trkpt lat="47.596569014713168" lon="14.719706000760198">
        <ele>512.39999999999998</ele>
        <time>2012-10-21T10:16:47Z</time>
      </trkpt>
      <trkpt lat="47.596786022186279" lon="14.720026021823287">
        <ele>512.39999999999998</ele>
        <time>2012-10-21T10:16:57Z</time>
      </trkpt>
      <trkpt lat="47.59696195833385" lon="14.720316035673022">
        <ele>512.39999999999998</ele>
        <time>2012-10-21T10:17:05Z</time>
      </trkpt>
      <trkpt lat="47.597152981907129" lon="14.720562966540456">
        <ele>512.39999999999998</ele>
        <time>2012-10-21T10:17:11Z</time>
      </trkpt>
      <trkpt lat="47.597359009087086" lon="14.72091400064528">
        <ele>512.39999999999998</ele>
        <time>2012-10-21T10:17:19Z</time>
      </trkpt>
      <trkpt lat="47.597393039613962" lon="14.720930010080338">
        <ele>511.80000000000001</ele>
        <time>2012-10-21T10:17:22Z</time>
      </trkpt>
      <trkpt lat="47.597401002421975" lon="14.720932021737099">
        <ele>511.19999999999999</ele>
        <time>2012-10-21T10:17:23Z</time>
      </trkpt>
      <trkpt lat="47.597404019907117" lon="14.720930010080338">
        <ele>510.60000000000002</ele>
        <time>2012-10-21T10:17:24Z</time>
      </trkpt>
      <trkpt lat="47.59741198271513" lon="14.720931015908718">
        <ele>511.19999999999999</ele>
        <time>2012-10-21T10:17:25Z</time>
      </trkpt>
      <trkpt lat="47.597423968836665" lon="14.720931015908718">
        <ele>511.60000000000002</ele>
        <time>2012-10-21T10:17:26Z</time>
      </trkpt>
      <trkpt lat="47.597431009635329" lon="14.72093403339386">
        <ele>511.39999999999998</ele>
        <time>2012-10-21T10:17:27Z</time>
      </trkpt>
      <trkpt lat="47.597435032948852" lon="14.720935961231589">
        <ele>510.80000000000001</ele>
        <time>2012-10-21T10:17:28Z</time>
      </trkpt>
      <trkpt lat="47.597438972443342" lon="14.72093696705997">
        <ele>511.19999999999999</ele>
        <time>2012-10-21T10:17:29Z</time>
      </trkpt>
      <trkpt lat="47.597438972443342" lon="14.72093797288835">
        <ele>511.60000000000002</ele>
        <time>2012-10-21T10:17:30Z</time>
      </trkpt>
      <trkpt lat="47.597442995756865" lon="14.720938978716731">
        <ele>511.80000000000001</ele>
        <time>2012-10-21T10:17:31Z</time>
      </trkpt>
      <trkpt lat="47.597442995756865" lon="14.720943002030253">
        <ele>512.20000000000005</ele>
        <time>2012-10-21T10:17:32Z</time>
      </trkpt>
      <trkpt lat="47.597446013242006" lon="14.720949959009886">
        <ele>512.60000000000002</ele>
        <time>2012-10-21T10:17:33Z</time>
      </trkpt>
      <trkpt lat="47.597431009635329" lon="14.72106596454978">
        <ele>512.60000000000002</ele>
        <time>2012-10-21T10:17:43Z</time>
      </trkpt>
      <trkpt lat="47.597312992438674" lon="14.721145005896688">
        <ele>512.60000000000002</ele>
        <time>2012-10-21T10:17:55Z</time>
      </trkpt>
      <trkpt lat="47.597248032689095" lon="14.721179036423564">
        <ele>512.60000000000002</ele>
        <time>2012-10-21T10:18:05Z</time>
      </trkpt>
      <trkpt lat="47.597350962460041" lon="14.721170989796519">
        <ele>512.60000000000002</ele>
        <time>2012-10-21T10:18:16Z</time>
      </trkpt>
      <trkpt lat="47.597453976050019" lon="14.721139976754785">
        <ele>512.60000000000002</ele>
        <time>2012-10-21T10:18:23Z</time>
      </trkpt>
      <trkpt lat="47.597462022677064" lon="14.721157997846603">
        <ele>512.60000000000002</ele>
        <time>2012-10-21T10:18:24Z</time>
      </trkpt>
      <trkpt lat="47.597468979656696" lon="14.721239972859621">
        <ele>512</ele>
        <time>2012-10-21T10:18:27Z</time>
      </trkpt>
      <trkpt lat="47.597468979656696" lon="14.721275009214878">
        <ele>511.60000000000002</ele>
        <time>2012-10-21T10:18:28Z</time>
      </trkpt>
      <trkpt lat="47.597477026283741" lon="14.721309961751103">
        <ele>511</ele>
        <time>2012-10-21T10:18:29Z</time>
      </trkpt>
      <trkpt lat="47.597484989091754" lon="14.72134399227798">
        <ele>510.39999999999998</ele>
        <time>2012-10-21T10:18:30Z</time>
      </trkpt>
      <trkpt lat="47.597492029890418" lon="14.721381040289998">
        <ele>510</ele>
        <time>2012-10-21T10:18:31Z</time>
      </trkpt>
      <trkpt lat="47.597534023225307" lon="14.721616990864277">
        <ele>510</ele>
        <time>2012-10-21T10:18:37Z</time>
      </trkpt>
      <trkpt lat="47.597556989639997" lon="14.721883032470942">
        <ele>510</ele>
        <time>2012-10-21T10:18:42Z</time>
      </trkpt>
      <trkpt lat="47.597576016560197" lon="14.722011024132371">
        <ele>510</ele>
        <time>2012-10-21T10:18:44Z</time>
      </trkpt>
      <trkpt lat="47.597609963268042" lon="14.722259966656566">
        <ele>510</ele>
        <time>2012-10-21T10:18:47Z</time>
      </trkpt>
      <trkpt lat="47.597629996016622" lon="14.722444033250213">
        <ele>509.39999999999998</ele>
        <time>2012-10-21T10:18:49Z</time>
      </trkpt>
      <trkpt lat="47.597637036815286" lon="14.722544029355049">
        <ele>509</ele>
        <time>2012-10-21T10:18:50Z</time>
      </trkpt>
      <trkpt lat="47.597644999623299" lon="14.722648970782757">
        <ele>508.60000000000002</ele>
        <time>2012-10-21T10:18:51Z</time>
      </trkpt>
      <trkpt lat="47.597649022936821" lon="14.722744021564722">
        <ele>508.19999999999999</ele>
        <time>2012-10-21T10:18:52Z</time>
      </trkpt>
      <trkpt lat="47.597652040421963" lon="14.722839994356036">
        <ele>507.80000000000001</ele>
        <time>2012-10-21T10:18:53Z</time>
      </trkpt>
      <trkpt lat="47.597655979916453" lon="14.72293596714735">
        <ele>507.80000000000001</ele>
        <time>2012-10-21T10:18:54Z</time>
      </trkpt>
      <trkpt lat="47.597675006836653" lon="14.723223969340324">
        <ele>507.39999999999998</ele>
        <time>2012-10-21T10:18:57Z</time>
      </trkpt>
      <trkpt lat="47.597679030150175" lon="14.723322037607431">
        <ele>507</ele>
        <time>2012-10-21T10:18:58Z</time>
      </trkpt>
      <trkpt lat="47.597682969644666" lon="14.723414992913604">
        <ele>506.60000000000002</ele>
        <time>2012-10-21T10:18:59Z</time>
      </trkpt>
      <trkpt lat="47.597686992958188" lon="14.723500991240144">
        <ele>506</ele>
        <time>2012-10-21T10:19:00Z</time>
      </trkpt>
      <trkpt lat="47.597686992958188" lon="14.723585983738303">
        <ele>505.60000000000002</ele>
        <time>2012-10-21T10:19:01Z</time>
      </trkpt>
      <trkpt lat="47.597694033756852" lon="14.723673993721604">
        <ele>505.60000000000002</ele>
        <time>2012-10-21T10:19:02Z</time>
      </trkpt>
      <trkpt lat="47.5977330096066" lon="14.723990997299552">
        <ele>505.19999999999999</ele>
        <time>2012-10-21T10:19:06Z</time>
      </trkpt>
      <trkpt lat="47.597743989899755" lon="14.724066015332937">
        <ele>504.39999999999998</ele>
        <time>2012-10-21T10:19:07Z</time>
      </trkpt>
      <trkpt lat="47.597752036526799" lon="14.72413600422442">
        <ele>504</ele>
        <time>2012-10-21T10:19:08Z</time>
      </trkpt>
      <trkpt lat="47.597767040133476" lon="14.72420196980238">
        <ele>503.60000000000002</ele>
        <time>2012-10-21T10:19:09Z</time>
      </trkpt>
      <trkpt lat="47.597854966297746" lon="14.724418977275491">
        <ele>503.60000000000002</ele>
        <time>2012-10-21T10:19:12Z</time>
      </trkpt>
      <trkpt lat="47.597926966845989" lon="14.724516961723566">
        <ele>503.60000000000002</ele>
        <time>2012-10-21T10:19:13Z</time>
      </trkpt>
      <trkpt lat="47.598026040941477" lon="14.72463003359735">
        <ele>503.19999999999999</ele>
        <time>2012-10-21T10:19:14Z</time>
      </trkpt>
      <trkpt lat="47.598106004297733" lon="14.724725000560284">
        <ele>502.80000000000001</ele>
        <time>2012-10-21T10:19:15Z</time>
      </trkpt>
      <trkpt lat="47.59818303398788" lon="14.724818961694837">
        <ele>502.39999999999998</ele>
        <time>2012-10-21T10:19:16Z</time>
      </trkpt>
      <trkpt lat="47.598236007615924" lon="14.724899008870125">
        <ele>501.80000000000001</ele>
        <time>2012-10-21T10:19:17Z</time>
      </trkpt>
      <trkpt lat="47.59829300455749" lon="14.724982995539904">
        <ele>501.39999999999998</ele>
        <time>2012-10-21T10:19:18Z</time>
      </trkpt>
      <trkpt lat="47.598351007327437" lon="14.725067988038063">
        <ele>501.39999999999998</ele>
        <time>2012-10-21T10:19:19Z</time>
      </trkpt>
      <trkpt lat="47.598537001758814" lon="14.725329000502825">
        <ele>501</ele>
        <time>2012-10-21T10:19:22Z</time>
      </trkpt>
      <trkpt lat="47.598595004528761" lon="14.725409969687462">
        <ele>500.60000000000002</ele>
        <time>2012-10-21T10:19:23Z</time>
      </trkpt>
      <trkpt lat="47.59865602478385" lon="14.725491022691131">
        <ele>500.19999999999999</ele>
        <time>2012-10-21T10:19:24Z</time>
      </trkpt>
      <trkpt lat="47.598716961219907" lon="14.725565034896135">
        <ele>499.80000000000001</ele>
        <time>2012-10-21T10:19:25Z</time>
      </trkpt>
      <trkpt lat="47.59876599535346" lon="14.725629994645715">
        <ele>499.39999999999998</ele>
        <time>2012-10-21T10:19:26Z</time>
      </trkpt>
      <trkpt lat="47.599159022793174" lon="14.726118994876742">
        <ele>499.39999999999998</ele>
        <time>2012-10-21T10:19:33Z</time>
      </trkpt>
      <trkpt lat="47.59938801638782" lon="14.72637296654284">
        <ele>499.39999999999998</ele>
        <time>2012-10-21T10:19:38Z</time>
      </trkpt>
      <trkpt lat="47.599509973078966" lon="14.726485032588243">
        <ele>499.39999999999998</ele>
        <time>2012-10-21T10:19:43Z</time>
      </trkpt>
      <trkpt lat="47.599524976685643" lon="14.726482015103102">
        <ele>499.39999999999998</ele>
        <time>2012-10-21T10:19:48Z</time>
      </trkpt>
      <trkpt lat="47.599540986120701" lon="14.726505987346172">
        <ele>499.39999999999998</ele>
        <time>2012-10-21T10:19:51Z</time>
      </trkpt>
      <trkpt lat="47.599564036354423" lon="14.726502969861031">
        <ele>499.39999999999998</ele>
        <time>2012-10-21T10:19:53Z</time>
      </trkpt>
      <trkpt lat="47.599564036354423" lon="14.726502969861031">
        <ele>499.39999999999998</ele>
        <time>2012-10-21T10:20:00Z</time>
      </trkpt>
      <trkpt lat="47.599564036354423" lon="14.726502969861031">
        <ele>499.39999999999998</ele>
        <time>2012-10-21T10:20:12Z</time>
      </trkpt>
      <trkpt lat="47.599564036354423" lon="14.726502969861031">
        <ele>499.39999999999998</ele>
        <time>2012-10-21T10:20:27Z</time>
      </trkpt>
      <trkpt lat="47.599590020254254" lon="14.726472962647676">
        <ele>499.39999999999998</ele>
        <time>2012-10-21T10:20:41Z</time>
      </trkpt>
      <trkpt lat="47.599590020254254" lon="14.726472962647676">
        <ele>499.39999999999998</ele>
        <time>2012-10-21T10:20:43Z</time>
      </trkpt>
      <trkpt lat="47.599590020254254" lon="14.726472962647676">
        <ele>499.39999999999998</ele>
        <time>2012-10-21T10:20:53Z</time>
      </trkpt>
      <trkpt lat="47.599612986668944" lon="14.726526020094752">
        <ele>499.39999999999998</ele>
        <time>2012-10-21T10:21:01Z</time>
      </trkpt>
      <trkpt lat="47.599659003317356" lon="14.726632973179221">
        <ele>499.39999999999998</ele>
        <time>2012-10-21T10:21:05Z</time>
      </trkpt>
      <trkpt lat="47.599685993045568" lon="14.726658035069704">
        <ele>499.39999999999998</ele>
        <time>2012-10-21T10:21:06Z</time>
      </trkpt>
      <trkpt lat="47.599850026890635" lon="14.726836988702416">
        <ele>499.39999999999998</ele>
        <time>2012-10-21T10:21:12Z</time>
      </trkpt>
      <trkpt lat="47.60009796358645" lon="14.727079980075359">
        <ele>499.39999999999998</ele>
        <time>2012-10-21T10:21:21Z</time>
      </trkpt>
      <trkpt lat="47.600188991054893" lon="14.727217024192214">
        <ele>499.80000000000001</ele>
        <time>2012-10-21T10:21:27Z</time>
      </trkpt>
      <trkpt lat="47.600212041288614" lon="14.727240996435285">
        <ele>500.19999999999999</ele>
        <time>2012-10-21T10:21:28Z</time>
      </trkpt>
      <trkpt lat="47.600235007703304" lon="14.727266980335116">
        <ele>500.60000000000002</ele>
        <time>2012-10-21T10:21:29Z</time>
      </trkpt>
      <trkpt lat="47.600257974117994" lon="14.727290030568838">
        <ele>501.19999999999999</ele>
        <time>2012-10-21T10:21:30Z</time>
      </trkpt>
      <trkpt lat="47.600281024351716" lon="14.727315008640289">
        <ele>501.60000000000002</ele>
        <time>2012-10-21T10:21:31Z</time>
      </trkpt>
      <trkpt lat="47.60035696439445" lon="14.727386003360152">
        <ele>501.60000000000002</ele>
        <time>2012-10-21T10:21:34Z</time>
      </trkpt>
      <trkpt lat="47.60050599463284" lon="14.727527992799878">
        <ele>501.60000000000002</ele>
        <time>2012-10-21T10:21:40Z</time>
      </trkpt>
      <trkpt lat="47.600532984361053" lon="14.727547019720078">
        <ele>502</ele>
        <time>2012-10-21T10:21:41Z</time>
      </trkpt>
      <trkpt lat="47.600552011281252" lon="14.727567974478006">
        <ele>502.39999999999998</ele>
        <time>2012-10-21T10:21:42Z</time>
      </trkpt>
      <trkpt lat="47.600582018494606" lon="14.727589013054967">
        <ele>502.80000000000001</ele>
        <time>2012-10-21T10:21:43Z</time>
      </trkpt>
      <trkpt lat="47.600615965202451" lon="14.727611979469657">
        <ele>503.19999999999999</ele>
        <time>2012-10-21T10:21:44Z</time>
      </trkpt>
      <trkpt lat="47.600639015436172" lon="14.727636035531759">
        <ele>503.60000000000002</ele>
        <time>2012-10-21T10:21:45Z</time>
      </trkpt>
      <trkpt lat="47.600666005164385" lon="14.72766101360321">
        <ele>503.60000000000002</ele>
        <time>2012-10-21T10:21:46Z</time>
      </trkpt>
      <trkpt lat="47.600796008482575" lon="14.727758998051286">
        <ele>503.60000000000002</ele>
        <time>2012-10-21T10:21:51Z</time>
      </trkpt>
      <trkpt lat="47.600947972387075" lon="14.727879026904702">
        <ele>503.60000000000002</ele>
        <time>2012-10-21T10:21:57Z</time>
      </trkpt>
      <trkpt lat="47.600971022620797" lon="14.727896964177489">
        <ele>503.60000000000002</ele>
        <time>2012-10-21T10:22:01Z</time>
      </trkpt>
      <trkpt lat="47.600971022620797" lon="14.727896964177489">
        <ele>504</ele>
        <time>2012-10-21T10:22:02Z</time>
      </trkpt>
      <trkpt lat="47.600971022620797" lon="14.727896964177489">
        <ele>506</ele>
        <time>2012-10-21T10:22:48Z</time>
      </trkpt>
      <trkpt lat="47.600971022620797" lon="14.727896964177489">
        <ele>504.80000000000001</ele>
        <time>2012-10-21T10:22:49Z</time>
      </trkpt>
      <trkpt lat="47.600971022620797" lon="14.727896964177489">
        <ele>504.60000000000002</ele>
        <time>2012-10-21T10:22:50Z</time>
      </trkpt>
      <trkpt lat="47.600974962115288" lon="14.727896964177489">
        <ele>504.19999999999999</ele>
        <time>2012-10-21T10:22:51Z</time>
      </trkpt>
      <trkpt lat="47.600989965721965" lon="14.72789797000587">
        <ele>505.39999999999998</ele>
        <time>2012-10-21T10:22:52Z</time>
      </trkpt>
      <trkpt lat="47.601008992642164" lon="14.727906016632915">
        <ele>505.80000000000001</ele>
        <time>2012-10-21T10:22:53Z</time>
      </trkpt>
      <trkpt lat="47.601028019562364" lon="14.72791800275445">
        <ele>506</ele>
        <time>2012-10-21T10:22:54Z</time>
      </trkpt>
      <trkpt lat="47.601047968491912" lon="14.727927977219224">
        <ele>506.19999999999999</ele>
        <time>2012-10-21T10:22:55Z</time>
      </trkpt>
      <trkpt lat="47.601077975705266" lon="14.727942980825901">
        <ele>506.39999999999998</ele>
        <time>2012-10-21T10:22:56Z</time>
      </trkpt>
      <trkpt lat="47.601108988747001" lon="14.727959996089339">
        <ele>506.80000000000001</ele>
        <time>2012-10-21T10:22:57Z</time>
      </trkpt>
      <trkpt lat="47.601138995960355" lon="14.727979023009539">
        <ele>506.80000000000001</ele>
        <time>2012-10-21T10:22:58Z</time>
      </trkpt>
      <trkpt lat="47.601348962634802" lon="14.728111959993839">
        <ele>506.80000000000001</ele>
        <time>2012-10-21T10:23:04Z</time>
      </trkpt>
      <trkpt lat="47.601642999798059" lon="14.72811003215611">
        <ele>506.80000000000001</ele>
        <time>2012-10-21T10:23:12Z</time>
      </trkpt>
      <trkpt lat="47.601830000057817" lon="14.728101985529065">
        <ele>506.80000000000001</ele>
        <time>2012-10-21T10:23:17Z</time>
      </trkpt>
      <trkpt lat="47.60209696367383" lon="14.728082036599517">
        <ele>506.80000000000001</ele>
        <time>2012-10-21T10:23:23Z</time>
      </trkpt>
      <trkpt lat="47.602344984188676" lon="14.728055968880653">
        <ele>506.80000000000001</ele>
        <time>2012-10-21T10:23:28Z</time>
      </trkpt>
      <trkpt lat="47.602775981649756" lon="14.728038031607866">
        <ele>506.80000000000001</ele>
        <time>2012-10-21T10:23:35Z</time>
      </trkpt>
      <trkpt lat="47.602847982198" lon="14.728037025779486">
        <ele>506.19999999999999</ele>
        <time>2012-10-21T10:23:36Z</time>
      </trkpt>
      <trkpt lat="47.602924006059766" lon="14.728031996637583">
        <ele>505.80000000000001</ele>
        <time>2012-10-21T10:23:37Z</time>
      </trkpt>
      <trkpt lat="47.603003969416022" lon="14.72802503965795">
        <ele>505.39999999999998</ele>
        <time>2012-10-21T10:23:38Z</time>
      </trkpt>
      <trkpt lat="47.603088039904833" lon="14.728014981374145">
        <ele>505</ele>
        <time>2012-10-21T10:23:39Z</time>
      </trkpt>
      <trkpt lat="47.603175966069102" lon="14.728006012737751">
        <ele>504.60000000000002</ele>
        <time>2012-10-21T10:23:40Z</time>
      </trkpt>
      <trkpt lat="47.603263976052403" lon="14.727998971939087">
        <ele>504</ele>
        <time>2012-10-21T10:23:41Z</time>
      </trkpt>
      <trkpt lat="47.603355003520846" lon="14.727990003302693">
        <ele>503.60000000000002</ele>
        <time>2012-10-21T10:23:42Z</time>
      </trkpt>
      <trkpt lat="47.60344703681767" lon="14.7279810346663">
        <ele>503</ele>
        <time>2012-10-21T10:23:43Z</time>
      </trkpt>
      <trkpt lat="47.603546027094126" lon="14.727972988039255">
        <ele>502.60000000000002</ele>
        <time>2012-10-21T10:23:44Z</time>
      </trkpt>
      <trkpt lat="47.603645017370582" lon="14.727965025231242">
        <ele>502</ele>
        <time>2012-10-21T10:23:45Z</time>
      </trkpt>
      <trkpt lat="47.60374803096056" lon="14.727956978604198">
        <ele>501.39999999999998</ele>
        <time>2012-10-21T10:23:46Z</time>
      </trkpt>
      <trkpt lat="47.603850960731506" lon="14.727951027452946">
        <ele>500.80000000000001</ele>
        <time>2012-10-21T10:23:47Z</time>
      </trkpt>
      <trkpt lat="47.603957997635007" lon="14.727952033281326">
        <ele>500.19999999999999</ele>
        <time>2012-10-21T10:23:48Z</time>
      </trkpt>
      <trkpt lat="47.604065034538507" lon="14.72796100191772">
        <ele>499.60000000000002</ele>
        <time>2012-10-21T10:23:49Z</time>
      </trkpt>
      <trkpt lat="47.604164024814963" lon="14.727973993867636">
        <ele>498.80000000000001</ele>
        <time>2012-10-21T10:23:50Z</time>
      </trkpt>
      <trkpt lat="47.604263015091419" lon="14.727996038272977">
        <ele>497.39999999999998</ele>
        <time>2012-10-21T10:23:51Z</time>
      </trkpt>
      <trkpt lat="47.604354964569211" lon="14.72802503965795">
        <ele>496.60000000000002</ele>
        <time>2012-10-21T10:23:52Z</time>
      </trkpt>
      <trkpt lat="47.604442974552512" lon="14.728065021336079">
        <ele>496</ele>
        <time>2012-10-21T10:23:53Z</time>
      </trkpt>
      <trkpt lat="47.604529978707433" lon="14.7281139716506">
        <ele>495.19999999999999</ele>
        <time>2012-10-21T10:23:54Z</time>
      </trkpt>
      <trkpt lat="47.604613965377212" lon="14.728168034926057">
        <ele>494.39999999999998</ele>
        <time>2012-10-21T10:23:55Z</time>
      </trkpt>
      <trkpt lat="47.6046940125525" lon="14.728227965533733">
        <ele>493.80000000000001</ele>
        <time>2012-10-21T10:23:56Z</time>
      </trkpt>
      <trkpt lat="47.604777999222279" lon="14.72832796163857">
        <ele>493.19999999999999</ele>
        <time>2012-10-21T10:23:57Z</time>
      </trkpt>
      <trkpt lat="47.604857962578535" lon="14.728431981056929">
        <ele>492.60000000000002</ele>
        <time>2012-10-21T10:23:58Z</time>
      </trkpt>
      <trkpt lat="47.604939015582204" lon="14.728539017960429">
        <ele>492</ele>
        <time>2012-10-21T10:23:59Z</time>
      </trkpt>
      <trkpt lat="47.60501897893846" lon="14.728656029328704">
        <ele>491.39999999999998</ele>
        <time>2012-10-21T10:24:00Z</time>
      </trkpt>
      <trkpt lat="47.605090979486704" lon="14.728773962706327">
        <ele>490.80000000000001</ele>
        <time>2012-10-21T10:24:01Z</time>
      </trkpt>
      <trkpt lat="47.605156023055315" lon="14.728896003216505">
        <ele>490</ele>
        <time>2012-10-21T10:24:02Z</time>
      </trkpt>
      <trkpt lat="47.605220982804894" lon="14.729020977392793">
        <ele>489.39999999999998</ele>
        <time>2012-10-21T10:24:03Z</time>
      </trkpt>
      <trkpt lat="47.605282003059983" lon="14.729146035388112">
        <ele>488.80000000000001</ele>
        <time>2012-10-21T10:24:04Z</time>
      </trkpt>
      <trkpt lat="47.60533900000155" lon="14.729274027049541">
        <ele>488.19999999999999</ele>
        <time>2012-10-21T10:24:05Z</time>
      </trkpt>
      <trkpt lat="47.605433966964483" lon="14.729533027857542">
        <ele>487.80000000000001</ele>
        <time>2012-10-21T10:24:07Z</time>
      </trkpt>
      <trkpt lat="47.605479983612895" lon="14.729669988155365">
        <ele>487.39999999999998</ele>
        <time>2012-10-21T10:24:08Z</time>
      </trkpt>
      <trkpt lat="47.605515019968152" lon="14.729806026443839">
        <ele>487</ele>
        <time>2012-10-21T10:24:09Z</time>
      </trkpt>
      <trkpt lat="47.605545027181506" lon="14.729943992570043">
        <ele>486.60000000000002</ele>
        <time>2012-10-21T10:24:10Z</time>
      </trkpt>
      <trkpt lat="47.605576040223241" lon="14.730084976181388">
        <ele>486</ele>
        <time>2012-10-21T10:24:11Z</time>
      </trkpt>
      <trkpt lat="47.605602024123073" lon="14.730225959792733">
        <ele>486</ele>
        <time>2012-10-21T10:24:12Z</time>
      </trkpt>
      <trkpt lat="47.607161980122328" lon="14.734060009941459">
        <ele>482</ele>
        <time>2012-10-21T10:24:52Z</time>
      </trkpt>
      <trkpt lat="47.60720799677074" lon="14.734150031581521">
        <ele>482</ele>
        <time>2012-10-21T10:24:53Z</time>
      </trkpt>
      <trkpt lat="47.60733800008893" lon="14.734520008787513">
        <ele>482</ele>
        <time>2012-10-21T10:24:58Z</time>
      </trkpt>
      <trkpt lat="47.607394997030497" lon="14.735038010403514">
        <ele>482</ele>
        <time>2012-10-21T10:25:03Z</time>
      </trkpt>
      <trkpt lat="47.60740295983851" lon="14.735242025926709">
        <ele>482</ele>
        <time>2012-10-21T10:25:05Z</time>
      </trkpt>
      <trkpt lat="47.607414023950696" lon="14.735447969287634">
        <ele>482</ele>
        <time>2012-10-21T10:25:07Z</time>
      </trkpt>
      <trkpt lat="47.607410000637174" lon="14.735661037266254">
        <ele>481.60000000000002</ele>
        <time>2012-10-21T10:25:09Z</time>
      </trkpt>
      <trkpt lat="47.60740295983851" lon="14.735774025321007">
        <ele>481.19999999999999</ele>
        <time>2012-10-21T10:25:10Z</time>
      </trkpt>
      <trkpt lat="47.607399020344019" lon="14.735883995890617">
        <ele>480.80000000000001</ele>
        <time>2012-10-21T10:25:11Z</time>
      </trkpt>
      <trkpt lat="47.607388040050864" lon="14.735992960631847">
        <ele>480.39999999999998</ele>
        <time>2012-10-21T10:25:12Z</time>
      </trkpt>
      <trkpt lat="47.607388040050864" lon="14.736102009192109">
        <ele>480</ele>
        <time>2012-10-21T10:25:13Z</time>
      </trkpt>
      <trkpt lat="47.607390973716974" lon="14.736627973616123">
        <ele>480</ele>
        <time>2012-10-21T10:25:18Z</time>
      </trkpt>
      <trkpt lat="47.607451993972063" lon="14.737169025465846">
        <ele>480</ele>
        <time>2012-10-21T10:25:24Z</time>
      </trkpt>
      <trkpt lat="47.607555007562041" lon="14.737933035939932">
        <ele>480</ele>
        <time>2012-10-21T10:25:33Z</time>
      </trkpt>
      <trkpt lat="47.607601024210453" lon="14.738178038969636">
        <ele>479.60000000000002</ele>
        <time>2012-10-21T10:25:36Z</time>
      </trkpt>
      <trkpt lat="47.607623990625143" lon="14.738255990669131">
        <ele>479.19999999999999</ele>
        <time>2012-10-21T10:25:37Z</time>
      </trkpt>
      <trkpt lat="47.607650980353355" lon="14.738333020359278">
        <ele>478.80000000000001</ele>
        <time>2012-10-21T10:25:38Z</time>
      </trkpt>
      <trkpt lat="47.607676964253187" lon="14.738406026735902">
        <ele>478.39999999999998</ele>
        <time>2012-10-21T10:25:39Z</time>
      </trkpt>
      <trkpt lat="47.607704037800431" lon="14.738480960950255">
        <ele>478</ele>
        <time>2012-10-21T10:25:40Z</time>
      </trkpt>
      <trkpt lat="47.607834041118622" lon="14.738943977281451">
        <ele>478</ele>
        <time>2012-10-21T10:25:46Z</time>
      </trkpt>
      <trkpt lat="47.607891038060188" lon="14.739377992227674">
        <ele>478</ele>
        <time>2012-10-21T10:25:52Z</time>
      </trkpt>
      <trkpt lat="47.607914004474878" lon="14.739593993872404">
        <ele>478</ele>
        <time>2012-10-21T10:25:55Z</time>
      </trkpt>
      <trkpt lat="47.607936970889568" lon="14.739733971655369">
        <ele>478</ele>
        <time>2012-10-21T10:25:57Z</time>
      </trkpt>
      <trkpt lat="47.607944011688232" lon="14.739803038537502">
        <ele>478</ele>
        <time>2012-10-21T10:25:58Z</time>
      </trkpt>
      <trkpt lat="47.607986005023122" lon="14.740348029881716">
        <ele>478</ele>
        <time>2012-10-21T10:26:05Z</time>
      </trkpt>
      <trkpt lat="47.607986005023122" lon="14.740952029824257">
        <ele>478</ele>
        <time>2012-10-21T10:26:12Z</time>
      </trkpt>
      <trkpt lat="47.607918027788401" lon="14.741528034210205">
        <ele>477.60000000000002</ele>
        <time>2012-10-21T10:26:18Z</time>
      </trkpt>
      <trkpt lat="47.607906041666865" lon="14.741629958152771">
        <ele>476.80000000000001</ele>
        <time>2012-10-21T10:26:19Z</time>
      </trkpt>
      <trkpt lat="47.607887014746666" lon="14.74173498339951">
        <ele>476.39999999999998</ele>
        <time>2012-10-21T10:26:20Z</time>
      </trkpt>
      <trkpt lat="47.607867987826467" lon="14.741845959797502">
        <ele>476</ele>
        <time>2012-10-21T10:26:21Z</time>
      </trkpt>
      <trkpt lat="47.607800010591745" lon="14.742182996124029">
        <ele>475.39999999999998</ele>
        <time>2012-10-21T10:26:24Z</time>
      </trkpt>
      <trkpt lat="47.607776960358024" lon="14.74229397252202">
        <ele>475</ele>
        <time>2012-10-21T10:26:25Z</time>
      </trkpt>
      <trkpt lat="47.607758017256856" lon="14.742405032739043">
        <ele>474.60000000000002</ele>
        <time>2012-10-21T10:26:26Z</time>
      </trkpt>
      <trkpt lat="47.607734967023134" lon="14.742520032450557">
        <ele>474.19999999999999</ele>
        <time>2012-10-21T10:26:27Z</time>
      </trkpt>
      <trkpt lat="47.607719041407108" lon="14.74263796582818">
        <ele>473.80000000000001</ele>
        <time>2012-10-21T10:26:28Z</time>
      </trkpt>
      <trkpt lat="47.607712000608444" lon="14.742760006338358">
        <ele>473.19999999999999</ele>
        <time>2012-10-21T10:26:29Z</time>
      </trkpt>
      <trkpt lat="47.607707977294922" lon="14.74287198856473">
        <ele>472.80000000000001</ele>
        <time>2012-10-21T10:26:30Z</time>
      </trkpt>
      <trkpt lat="47.607707977294922" lon="14.742975002154708">
        <ele>472.19999999999999</ele>
        <time>2012-10-21T10:26:31Z</time>
      </trkpt>
      <trkpt lat="47.607704037800431" lon="14.743069969117641">
        <ele>471.80000000000001</ele>
        <time>2012-10-21T10:26:32Z</time>
      </trkpt>
      <trkpt lat="47.607704037800431" lon="14.743160996586084">
        <ele>471.19999999999999</ele>
        <time>2012-10-21T10:26:33Z</time>
      </trkpt>
      <trkpt lat="47.607700014486909" lon="14.743326036259532">
        <ele>471.19999999999999</ele>
        <time>2012-10-21T10:26:35Z</time>
      </trkpt>
      <trkpt lat="47.607670007273555" lon="14.743541032075882">
        <ele>471.19999999999999</ele>
        <time>2012-10-21T10:26:39Z</time>
      </trkpt>
      <trkpt lat="47.607634970918298" lon="14.743685033172369">
        <ele>471.19999999999999</ele>
        <time>2012-10-21T10:26:44Z</time>
      </trkpt>
      <trkpt lat="47.607670007273555" lon="14.743768014013767">
        <ele>471.19999999999999</ele>
        <time>2012-10-21T10:26:47Z</time>
      </trkpt>
      <trkpt lat="47.607696997001767" lon="14.743787962943316">
        <ele>471.19999999999999</ele>
        <time>2012-10-21T10:26:48Z</time>
      </trkpt>
      <trkpt lat="47.607837980613112" lon="14.743825010955334">
        <ele>471.19999999999999</ele>
        <time>2012-10-21T10:26:53Z</time>
      </trkpt>
      <trkpt lat="47.607921967282891" lon="14.74381897598505">
        <ele>471.19999999999999</ele>
        <time>2012-10-21T10:26:58Z</time>
      </trkpt>
      <trkpt lat="47.607929008081555" lon="14.743825010955334">
        <ele>471.19999999999999</ele>
        <time>2012-10-21T10:26:59Z</time>
      </trkpt>
      <trkpt lat="47.607933031395078" lon="14.743826016783714">
        <ele>471.19999999999999</ele>
        <time>2012-10-21T10:27:05Z</time>
      </trkpt>
      <trkpt lat="47.607944011688232" lon="14.743840014562011">
        <ele>471.19999999999999</ele>
        <time>2012-10-21T10:27:10Z</time>
      </trkpt>
      <trkpt lat="47.607944011688232" lon="14.743872033432126">
        <ele>471.19999999999999</ele>
        <time>2012-10-21T10:27:19Z</time>
      </trkpt>
      <trkpt lat="47.607975024729967" lon="14.744021985679865">
        <ele>471.19999999999999</ele>
        <time>2012-10-21T10:27:24Z</time>
      </trkpt>
      <trkpt lat="47.608158001676202" lon="14.744391040876508">
        <ele>471.19999999999999</ele>
        <time>2012-10-21T10:27:32Z</time>
      </trkpt>
      <trkpt lat="47.608329998329282" lon="14.744767975062132">
        <ele>471.19999999999999</ele>
        <time>2012-10-21T10:27:39Z</time>
      </trkpt>
      <trkpt lat="47.608391018584371" lon="14.744874006137252">
        <ele>470.80000000000001</ele>
        <time>2012-10-21T10:27:41Z</time>
      </trkpt>
      <trkpt lat="47.608421025797725" lon="14.744923040270805">
        <ele>470.39999999999998</ele>
        <time>2012-10-21T10:27:42Z</time>
      </trkpt>
      <trkpt lat="47.608458995819092" lon="14.744966961443424">
        <ele>470</ele>
        <time>2012-10-21T10:27:43Z</time>
      </trkpt>
      <trkpt lat="47.608494032174349" lon="14.745011972263455">
        <ele>469.60000000000002</ele>
        <time>2012-10-21T10:27:44Z</time>
      </trkpt>
      <trkpt lat="47.608536025509238" lon="14.745053965598345">
        <ele>469.19999999999999</ele>
        <time>2012-10-21T10:27:45Z</time>
      </trkpt>
      <trkpt lat="47.608931986615062" lon="14.745391001924872">
        <ele>469.19999999999999</ele>
        <time>2012-10-21T10:27:54Z</time>
      </trkpt>
      <trkpt lat="47.608982026576996" lon="14.745378009974957">
        <ele>469.19999999999999</ele>
        <time>2012-10-21T10:27:55Z</time>
      </trkpt>
      <trkpt lat="47.609317973256111" lon="14.745263010263443">
        <ele>469.19999999999999</ele>
        <time>2012-10-21T10:28:02Z</time>
      </trkpt>
      <trkpt lat="47.609631037339568" lon="14.745296034961939">
        <ele>469.19999999999999</ele>
        <time>2012-10-21T10:28:09Z</time>
      </trkpt>
      <trkpt lat="47.609890038147569" lon="14.74534397944808">
        <ele>469.19999999999999</ele>
        <time>2012-10-21T10:28:15Z</time>
      </trkpt>
      <trkpt lat="47.610043007880449" lon="14.745410028845072">
        <ele>469.19999999999999</ele>
        <time>2012-10-21T10:28:21Z</time>
      </trkpt>
      <trkpt lat="47.61028298176825" lon="14.745444981381297">
        <ele>469.19999999999999</ele>
        <time>2012-10-21T10:28:28Z</time>
      </trkpt>
      <trkpt lat="47.610435029491782" lon="14.745440036058426">
        <ele>469.19999999999999</ele>
        <time>2012-10-21T10:28:34Z</time>
      </trkpt>
      <trkpt lat="47.61062596924603" lon="14.745357977226377">
        <ele>469.19999999999999</ele>
        <time>2012-10-21T10:28:42Z</time>
      </trkpt>
      <trkpt lat="47.610825039446354" lon="14.745227973908186">
        <ele>469.19999999999999</ele>
        <time>2012-10-21T10:28:48Z</time>
      </trkpt>
      <trkpt lat="47.611012039706111" lon="14.745044996961951">
        <ele>469.19999999999999</ele>
        <time>2012-10-21T10:28:53Z</time>
      </trkpt>
      <trkpt lat="47.611351003870368" lon="14.744715001434088">
        <ele>469.19999999999999</ele>
        <time>2012-10-21T10:29:01Z</time>
      </trkpt>
      <trkpt lat="47.611572034657001" lon="14.744565971195698">
        <ele>469.19999999999999</ele>
        <time>2012-10-21T10:29:07Z</time>
      </trkpt>
      <trkpt lat="47.611782001331449" lon="14.744537975639105">
        <ele>469.19999999999999</ele>
        <time>2012-10-21T10:29:13Z</time>
      </trkpt>
      <trkpt lat="47.611819971352816" lon="14.744541998952627">
        <ele>469.60000000000002</ele>
        <time>2012-10-21T10:29:14Z</time>
      </trkpt>
      <trkpt lat="47.61185098439455" lon="14.744545016437769">
        <ele>470</ele>
        <time>2012-10-21T10:29:15Z</time>
      </trkpt>
      <trkpt lat="47.611885014921427" lon="14.744548033922911">
        <ele>470.39999999999998</ele>
        <time>2012-10-21T10:29:16Z</time>
      </trkpt>
      <trkpt lat="47.611916027963161" lon="14.744550967589021">
        <ele>471</ele>
        <time>2012-10-21T10:29:17Z</time>
      </trkpt>
      <trkpt lat="47.611946035176516" lon="14.744554990902543">
        <ele>471.39999999999998</ele>
        <time>2012-10-21T10:29:18Z</time>
      </trkpt>
      <trkpt lat="47.612030021846294" lon="14.744574017822742">
        <ele>471.39999999999998</ele>
        <time>2012-10-21T10:29:21Z</time>
      </trkpt>
      <trkpt lat="47.612109985202551" lon="14.744597990065813">
        <ele>471.80000000000001</ele>
        <time>2012-10-21T10:29:24Z</time>
      </trkpt>
      <trkpt lat="47.612136974930763" lon="14.744603019207716">
        <ele>472.19999999999999</ele>
        <time>2012-10-21T10:29:25Z</time>
      </trkpt>
      <trkpt lat="47.612160025164485" lon="14.744609976187348">
        <ele>472.60000000000002</ele>
        <time>2012-10-21T10:29:26Z</time>
      </trkpt>
      <trkpt lat="47.612178968265653" lon="14.744616011157632">
        <ele>473.19999999999999</ele>
        <time>2012-10-21T10:29:27Z</time>
      </trkpt>
      <trkpt lat="47.612202018499374" lon="14.744621962308884">
        <ele>473.60000000000002</ele>
        <time>2012-10-21T10:29:28Z</time>
      </trkpt>
      <trkpt lat="47.612224984914064" lon="14.744629003107548">
        <ele>473.60000000000002</ele>
        <time>2012-10-21T10:29:29Z</time>
      </trkpt>
      <trkpt lat="47.61234300211072" lon="14.74467602558434">
        <ele>474</ele>
        <time>2012-10-21T10:29:35Z</time>
      </trkpt>
      <trkpt lat="47.612362029030919" lon="14.744681976735592">
        <ele>474.39999999999998</ele>
        <time>2012-10-21T10:29:36Z</time>
      </trkpt>
      <trkpt lat="47.612377032637596" lon="14.744693962857127">
        <ele>475.19999999999999</ele>
        <time>2012-10-21T10:29:37Z</time>
      </trkpt>
      <trkpt lat="47.612395975738764" lon="14.744705026969314">
        <ele>475.60000000000002</ele>
        <time>2012-10-21T10:29:38Z</time>
      </trkpt>
      <trkpt lat="47.612518016248941" lon="14.744824972003698">
        <ele>475.60000000000002</ele>
        <time>2012-10-21T10:29:45Z</time>
      </trkpt>
      <trkpt lat="47.612549029290676" lon="14.744859002530575">
        <ele>476</ele>
        <time>2012-10-21T10:29:47Z</time>
      </trkpt>
      <trkpt lat="47.612564032897353" lon="14.744878029450774">
        <ele>476.39999999999998</ele>
        <time>2012-10-21T10:29:48Z</time>
      </trkpt>
      <trkpt lat="47.61257903650403" lon="14.744893033057451">
        <ele>476.80000000000001</ele>
        <time>2012-10-21T10:29:49Z</time>
      </trkpt>
      <trkpt lat="47.612594962120056" lon="14.744905019178987">
        <ele>477.19999999999999</ele>
        <time>2012-10-21T10:29:50Z</time>
      </trkpt>
      <trkpt lat="47.612606026232243" lon="14.744918011128902">
        <ele>477.60000000000002</ele>
        <time>2012-10-21T10:29:51Z</time>
      </trkpt>
      <trkpt lat="47.612628992646933" lon="14.744943995028734">
        <ele>477.60000000000002</ele>
        <time>2012-10-21T10:29:53Z</time>
      </trkpt>
      <trkpt lat="47.612694036215544" lon="14.745049020275474">
        <ele>477.60000000000002</ele>
        <time>2012-10-21T10:30:01Z</time>
      </trkpt>
      <trkpt lat="47.612697975710034" lon="14.745065029710531">
        <ele>478.60000000000002</ele>
        <time>2012-10-21T10:30:02Z</time>
      </trkpt>
      <trkpt lat="47.612705016508698" lon="14.745082966983318">
        <ele>479</ele>
        <time>2012-10-21T10:30:03Z</time>
      </trkpt>
      <trkpt lat="47.612712979316711" lon="14.745096964761615">
        <ele>479.39999999999998</ele>
        <time>2012-10-21T10:30:04Z</time>
      </trkpt>
      <trkpt lat="47.612723959609866" lon="14.745115991681814">
        <ele>479.80000000000001</ele>
        <time>2012-10-21T10:30:05Z</time>
      </trkpt>
      <trkpt lat="47.612769976258278" lon="14.745225962251425">
        <ele>479.80000000000001</ele>
        <time>2012-10-21T10:30:10Z</time>
      </trkpt>
      <trkpt lat="47.612835019826889" lon="14.745323024690151">
        <ele>480.19999999999999</ele>
        <time>2012-10-21T10:30:15Z</time>
      </trkpt>
      <trkpt lat="47.612850023433566" lon="14.745342973619699">
        <ele>480.60000000000002</ele>
        <time>2012-10-21T10:30:16Z</time>
      </trkpt>
      <trkpt lat="47.612862009555101" lon="14.74536401219666">
        <ele>481</ele>
        <time>2012-10-21T10:30:17Z</time>
      </trkpt>
      <trkpt lat="47.612877013161778" lon="14.745384966954589">
        <ele>481.39999999999998</ele>
        <time>2012-10-21T10:30:18Z</time>
      </trkpt>
      <trkpt lat="47.612892016768456" lon="14.745409023016691">
        <ele>481.80000000000001</ele>
        <time>2012-10-21T10:30:19Z</time>
      </trkpt>
      <trkpt lat="47.612956976518035" lon="14.745494015514851">
        <ele>481.80000000000001</ele>
        <time>2012-10-21T10:30:24Z</time>
      </trkpt>
      <trkpt lat="47.61298798955977" lon="14.745541960000992">
        <ele>482.19999999999999</ele>
        <time>2012-10-21T10:30:27Z</time>
      </trkpt>
      <trkpt lat="47.612995030358434" lon="14.745560986921191">
        <ele>482.60000000000002</ele>
        <time>2012-10-21T10:30:28Z</time>
      </trkpt>
      <trkpt lat="47.613002993166447" lon="14.74557900801301">
        <ele>483</ele>
        <time>2012-10-21T10:30:29Z</time>
      </trkpt>
      <trkpt lat="47.613010033965111" lon="14.745597029104829">
        <ele>483.39999999999998</ele>
        <time>2012-10-21T10:30:30Z</time>
      </trkpt>
      <trkpt lat="47.613017996773124" lon="14.745612032711506">
        <ele>484</ele>
        <time>2012-10-21T10:30:31Z</time>
      </trkpt>
      <trkpt lat="47.613025959581137" lon="14.745627958327532">
        <ele>484</ele>
        <time>2012-10-21T10:30:32Z</time>
      </trkpt>
      <trkpt lat="47.613091003149748" lon="14.745743041858077">
        <ele>484</ele>
        <time>2012-10-21T10:30:40Z</time>
      </trkpt>
      <trkpt lat="47.613101983442903" lon="14.745756033807993">
        <ele>484.39999999999998</ele>
        <time>2012-10-21T10:30:41Z</time>
      </trkpt>
      <trkpt lat="47.613110030069947" lon="14.74577103741467">
        <ele>484.80000000000001</ele>
        <time>2012-10-21T10:30:42Z</time>
      </trkpt>
      <trkpt lat="47.613121010363102" lon="14.745785035192966">
        <ele>485.19999999999999</ele>
        <time>2012-10-21T10:30:43Z</time>
      </trkpt>
      <trkpt lat="47.613131990656257" lon="14.745796015486121">
        <ele>485.60000000000002</ele>
        <time>2012-10-21T10:30:44Z</time>
      </trkpt>
      <trkpt lat="47.613140037283301" lon="14.745810013264418">
        <ele>486</ele>
        <time>2012-10-21T10:30:45Z</time>
      </trkpt>
      <trkpt lat="47.613170966506004" lon="14.745852006599307">
        <ele>486</ele>
        <time>2012-10-21T10:30:48Z</time>
      </trkpt>
      <trkpt lat="47.613239027559757" lon="14.745926018804312">
        <ele>486.39999999999998</ele>
        <time>2012-10-21T10:30:54Z</time>
      </trkpt>
      <trkpt lat="47.613255036994815" lon="14.745935993269086">
        <ele>486.80000000000001</ele>
        <time>2012-10-21T10:30:55Z</time>
      </trkpt>
      <trkpt lat="47.613261993974447" lon="14.745948985219002">
        <ele>487.19999999999999</ele>
        <time>2012-10-21T10:30:56Z</time>
      </trkpt>
      <trkpt lat="47.613273980095983" lon="14.745964994654059">
        <ele>487.60000000000002</ele>
        <time>2012-10-21T10:30:57Z</time>
      </trkpt>
      <trkpt lat="47.61328898370266" lon="14.745973963290453">
        <ele>488</ele>
        <time>2012-10-21T10:30:58Z</time>
      </trkpt>
      <trkpt lat="47.613376993685961" lon="14.746040012687445">
        <ele>488</ele>
        <time>2012-10-21T10:31:05Z</time>
      </trkpt>
      <trkpt lat="47.613414963707328" lon="14.746069014072418">
        <ele>488.39999999999998</ele>
        <time>2012-10-21T10:31:08Z</time>
      </trkpt>
      <trkpt lat="47.613426027819514" lon="14.746081000193954">
        <ele>488.80000000000001</ele>
        <time>2012-10-21T10:31:09Z</time>
      </trkpt>
      <trkpt lat="47.613433990627527" lon="14.746093992143869">
        <ele>489.19999999999999</ele>
        <time>2012-10-21T10:31:10Z</time>
      </trkpt>
      <trkpt lat="47.613444970920682" lon="14.746103966608644">
        <ele>489.60000000000002</ele>
        <time>2012-10-21T10:31:11Z</time>
      </trkpt>
      <trkpt lat="47.613457040861249" lon="14.746116036549211">
        <ele>490</ele>
        <time>2012-10-21T10:31:12Z</time>
      </trkpt>
      <trkpt lat="47.613510014489293" lon="14.74618099629879">
        <ele>490</ele>
        <time>2012-10-21T10:31:17Z</time>
      </trkpt>
      <trkpt lat="47.61356701143086" lon="14.746241010725498">
        <ele>490.39999999999998</ele>
        <time>2012-10-21T10:31:22Z</time>
      </trkpt>
      <trkpt lat="47.613578997552395" lon="14.746255008503795">
        <ele>490.80000000000001</ele>
        <time>2012-10-21T10:31:23Z</time>
      </trkpt>
      <trkpt lat="47.613586038351059" lon="14.746269006282091">
        <ele>491.19999999999999</ele>
        <time>2012-10-21T10:31:24Z</time>
      </trkpt>
      <trkpt lat="47.613601963967085" lon="14.746284009888768">
        <ele>491.80000000000001</ele>
        <time>2012-10-21T10:31:25Z</time>
      </trkpt>
      <trkpt lat="47.613609004765749" lon="14.746294990181923">
        <ele>492.19999999999999</ele>
        <time>2012-10-21T10:31:26Z</time>
      </trkpt>
      <trkpt lat="47.613730961456895" lon="14.746406972408295">
        <ele>492.19999999999999</ele>
        <time>2012-10-21T10:31:36Z</time>
      </trkpt>
      <trkpt lat="47.613743031397462" lon="14.746419964358211">
        <ele>492.60000000000002</ele>
        <time>2012-10-21T10:31:37Z</time>
      </trkpt>
      <trkpt lat="47.613754011690617" lon="14.746434967964888">
        <ele>493</ele>
        <time>2012-10-21T10:31:38Z</time>
      </trkpt>
      <trkpt lat="47.613765997812152" lon="14.746448965743184">
        <ele>493.39999999999998</ele>
        <time>2012-10-21T10:31:39Z</time>
      </trkpt>
      <trkpt lat="47.613776978105307" lon="14.746467992663383">
        <ele>494.19999999999999</ele>
        <time>2012-10-21T10:31:40Z</time>
      </trkpt>
      <trkpt lat="47.613815031945705" lon="14.746508980169892">
        <ele>494.19999999999999</ele>
        <time>2012-10-21T10:31:43Z</time>
      </trkpt>
      <trkpt lat="47.61388803832233" lon="14.746577041223645">
        <ele>494.60000000000002</ele>
        <time>2012-10-21T10:31:49Z</time>
      </trkpt>
      <trkpt lat="47.613899018615484" lon="14.746591961011291">
        <ele>495.19999999999999</ele>
        <time>2012-10-21T10:31:50Z</time>
      </trkpt>
      <trkpt lat="47.61391100473702" lon="14.746606964617968">
        <ele>495.60000000000002</ele>
        <time>2012-10-21T10:31:51Z</time>
      </trkpt>
      <trkpt lat="47.613917961716652" lon="14.746621968224645">
        <ele>496</ele>
        <time>2012-10-21T10:31:52Z</time>
      </trkpt>
      <trkpt lat="47.613930031657219" lon="14.746634038165212">
        <ele>496.39999999999998</ele>
        <time>2012-10-21T10:31:53Z</time>
      </trkpt>
      <trkpt lat="47.61401703581214" lon="14.746709978207946">
        <ele>496.39999999999998</ele>
        <time>2012-10-21T10:32:00Z</time>
      </trkpt>
      <trkpt lat="47.614059029147029" lon="14.746744008734822">
        <ele>496.80000000000001</ele>
        <time>2012-10-21T10:32:03Z</time>
      </trkpt>
      <trkpt lat="47.614071015268564" lon="14.746755994856358">
        <ele>497.19999999999999</ele>
        <time>2012-10-21T10:32:04Z</time>
      </trkpt>
      <trkpt lat="47.614086018875241" lon="14.746764963492751">
        <ele>498</ele>
        <time>2012-10-21T10:32:05Z</time>
      </trkpt>
      <trkpt lat="47.614101022481918" lon="14.746773010119796">
        <ele>498.39999999999998</ele>
        <time>2012-10-21T10:32:06Z</time>
      </trkpt>
      <trkpt lat="47.614143015816808" lon="14.746780972927809">
        <ele>498.39999999999998</ele>
        <time>2012-10-21T10:32:09Z</time>
      </trkpt>
      <trkpt lat="47.614238988608122" lon="14.746844004839659">
        <ele>498.39999999999998</ele>
        <time>2012-10-21T10:32:16Z</time>
      </trkpt>
      <trkpt lat="47.614253992214799" lon="14.746855990961194">
        <ele>498.80000000000001</ele>
        <time>2012-10-21T10:32:17Z</time>
      </trkpt>
      <trkpt lat="47.614268995821476" lon="14.746863031759858">
        <ele>499.19999999999999</ele>
        <time>2012-10-21T10:32:18Z</time>
      </trkpt>
      <trkpt lat="47.614285005256534" lon="14.746873006224632">
        <ele>499.60000000000002</ele>
        <time>2012-10-21T10:32:19Z</time>
      </trkpt>
      <trkpt lat="47.614304032176733" lon="14.746882980689406">
        <ele>500</ele>
        <time>2012-10-21T10:32:20Z</time>
      </trkpt>
      <trkpt lat="47.61431903578341" lon="14.746891027316451">
        <ele>500.39999999999998</ele>
        <time>2012-10-21T10:32:21Z</time>
      </trkpt>
      <trkpt lat="47.614376032724977" lon="14.746930003166199">
        <ele>500.39999999999998</ele>
        <time>2012-10-21T10:32:25Z</time>
      </trkpt>
      <trkpt lat="47.61447099968791" lon="14.746989011764526">
        <ele>500.80000000000001</ele>
        <time>2012-10-21T10:32:32Z</time>
      </trkpt>
      <trkpt lat="47.614487009122968" lon="14.74699798040092">
        <ele>501.19999999999999</ele>
        <time>2012-10-21T10:32:33Z</time>
      </trkpt>
      <trkpt lat="47.614497989416122" lon="14.747006027027965">
        <ele>501.60000000000002</ele>
        <time>2012-10-21T10:32:34Z</time>
      </trkpt>
      <trkpt lat="47.614512993022799" lon="14.747017007321119">
        <ele>502</ele>
        <time>2012-10-21T10:32:35Z</time>
      </trkpt>
      <trkpt lat="47.614529002457857" lon="14.747027987614274">
        <ele>502.39999999999998</ele>
        <time>2012-10-21T10:32:36Z</time>
      </trkpt>
      <trkpt lat="47.614616006612778" lon="14.747067969292402">
        <ele>502.39999999999998</ele>
        <time>2012-10-21T10:32:42Z</time>
      </trkpt>
      <trkpt lat="47.614731006324291" lon="14.747143993154168">
        <ele>502.39999999999998</ele>
        <time>2012-10-21T10:32:51Z</time>
      </trkpt>
      <trkpt lat="47.614753972738981" lon="14.747156985104084">
        <ele>502.80000000000001</ele>
        <time>2012-10-21T10:32:53Z</time>
      </trkpt>
      <trkpt lat="47.614768976345658" lon="14.747164025902748">
        <ele>503.19999999999999</ele>
        <time>2012-10-21T10:32:54Z</time>
      </trkpt>
      <trkpt lat="47.614780040457845" lon="14.747169977054">
        <ele>504</ele>
        <time>2012-10-21T10:32:55Z</time>
      </trkpt>
      <trkpt lat="47.614788003265858" lon="14.747175006195903">
        <ele>504.39999999999998</ele>
        <time>2012-10-21T10:32:56Z</time>
      </trkpt>
      <trkpt lat="47.614810969680548" lon="14.74719101563096">
        <ele>504.39999999999998</ele>
        <time>2012-10-21T10:32:58Z</time>
      </trkpt>
      <trkpt lat="47.614825973287225" lon="14.74721398204565">
        <ele>504.39999999999998</ele>
        <time>2012-10-21T10:32:59Z</time>
      </trkpt>
      <trkpt lat="47.614924963563681" lon="14.747275002300739">
        <ele>504.39999999999998</ele>
        <time>2012-10-21T10:33:04Z</time>
      </trkpt>
      <trkpt lat="47.615067036822438" lon="14.747353959828615">
        <ele>504.39999999999998</ele>
        <time>2012-10-21T10:33:12Z</time>
      </trkpt>
      <trkpt lat="47.615082040429115" lon="14.747369969263673">
        <ele>504.80000000000001</ele>
        <time>2012-10-21T10:33:13Z</time>
      </trkpt>
      <trkpt lat="47.615100983530283" lon="14.747387990355492">
        <ele>505.19999999999999</ele>
        <time>2012-10-21T10:33:14Z</time>
      </trkpt>
      <trkpt lat="47.615120010450482" lon="14.74740500561893">
        <ele>505.60000000000002</ele>
        <time>2012-10-21T10:33:15Z</time>
      </trkpt>
      <trkpt lat="47.615139037370682" lon="14.747424032539129">
        <ele>506</ele>
        <time>2012-10-21T10:33:16Z</time>
      </trkpt>
      <trkpt lat="47.615157980471849" lon="14.747442975640297">
        <ele>506.39999999999998</ele>
        <time>2012-10-21T10:33:17Z</time>
      </trkpt>
      <trkpt lat="47.615214977413416" lon="14.747489998117089">
        <ele>506.39999999999998</ele>
        <time>2012-10-21T10:33:20Z</time>
      </trkpt>
      <trkpt lat="47.615375993773341" lon="14.74768303334713">
        <ele>506.39999999999998</ele>
        <time>2012-10-21T10:33:30Z</time>
      </trkpt>
      <trkpt lat="47.615516977384686" lon="14.747838014736772">
        <ele>506.80000000000001</ele>
        <time>2012-10-21T10:33:38Z</time>
      </trkpt>
      <trkpt lat="47.615531980991364" lon="14.74785796366632">
        <ele>507.19999999999999</ele>
        <time>2012-10-21T10:33:39Z</time>
      </trkpt>
      <trkpt lat="47.615555031225085" lon="14.747881013900042">
        <ele>507.60000000000002</ele>
        <time>2012-10-21T10:33:40Z</time>
      </trkpt>
      <trkpt lat="47.615577997639775" lon="14.74790096282959">
        <ele>508</ele>
        <time>2012-10-21T10:33:41Z</time>
      </trkpt>
      <trkpt lat="47.615603981539607" lon="14.747924013063312">
        <ele>508.60000000000002</ele>
        <time>2012-10-21T10:33:42Z</time>
      </trkpt>
      <trkpt lat="47.615696014836431" lon="14.748015962541103">
        <ele>508.60000000000002</ele>
        <time>2012-10-21T10:33:46Z</time>
      </trkpt>
      <trkpt lat="47.6159100048244" lon="14.748257026076317">
        <ele>508.60000000000002</ele>
        <time>2012-10-21T10:33:54Z</time>
      </trkpt>
      <trkpt lat="47.616122988983989" lon="14.748487025499344">
        <ele>508.60000000000002</ele>
        <time>2012-10-21T10:34:01Z</time>
      </trkpt>
      <trkpt lat="47.616420965641737" lon="14.74878198467195">
        <ele>508.60000000000002</ele>
        <time>2012-10-21T10:34:09Z</time>
      </trkpt>
      <trkpt lat="47.616844000294805" lon="14.749209964647889">
        <ele>508.60000000000002</ele>
        <time>2012-10-21T10:34:19Z</time>
      </trkpt>
      <trkpt lat="47.61715698055923" lon="14.749526968225837">
        <ele>508.60000000000002</ele>
        <time>2012-10-21T10:34:26Z</time>
      </trkpt>
      <trkpt lat="47.617340041324496" lon="14.749702988192439">
        <ele>508.60000000000002</ele>
        <time>2012-10-21T10:34:30Z</time>
      </trkpt>
      <trkpt lat="47.617614967748523" lon="14.749967018142343">
        <ele>508.60000000000002</ele>
        <time>2012-10-21T10:34:36Z</time>
      </trkpt>
      <trkpt lat="47.618011012673378" lon="14.750336995348334">
        <ele>508.60000000000002</ele>
        <time>2012-10-21T10:34:45Z</time>
      </trkpt>
      <trkpt lat="47.618404040113091" lon="14.750687023624778">
        <ele>508.60000000000002</ele>
        <time>2012-10-21T10:34:54Z</time>
      </trkpt>
      <trkpt lat="47.618790026754141" lon="14.75103797391057">
        <ele>508.60000000000002</ele>
        <time>2012-10-21T10:35:03Z</time>
      </trkpt>
      <trkpt lat="47.619194034487009" lon="14.751436030492187">
        <ele>508.60000000000002</ele>
        <time>2012-10-21T10:35:13Z</time>
      </trkpt>
      <trkpt lat="47.619544984772801" lon="14.751777006313205">
        <ele>508.60000000000002</ele>
        <time>2012-10-21T10:35:22Z</time>
      </trkpt>
      <trkpt lat="47.619876991957426" lon="14.752070037648082">
        <ele>508.60000000000002</ele>
        <time>2012-10-21T10:35:30Z</time>
      </trkpt>
      <trkpt lat="47.620089976117015" lon="14.752243040129542">
        <ele>509</ele>
        <time>2012-10-21T10:35:35Z</time>
      </trkpt>
      <trkpt lat="47.620135992765427" lon="14.752280004322529">
        <ele>509.39999999999998</ele>
        <time>2012-10-21T10:35:36Z</time>
      </trkpt>
      <trkpt lat="47.620182009413838" lon="14.752311017364264">
        <ele>509.80000000000001</ele>
        <time>2012-10-21T10:35:37Z</time>
      </trkpt>
      <trkpt lat="47.620224002748728" lon="14.752342030405998">
        <ele>510.19999999999999</ele>
        <time>2012-10-21T10:35:38Z</time>
      </trkpt>
      <trkpt lat="47.62027001939714" lon="14.752372037619352">
        <ele>510.60000000000002</ele>
        <time>2012-10-21T10:35:39Z</time>
      </trkpt>
      <trkpt lat="47.620586017146707" lon="14.752550991252065">
        <ele>510.60000000000002</ele>
        <time>2012-10-21T10:35:47Z</time>
      </trkpt>
      <trkpt lat="47.621051967144012" lon="14.752816027030349">
        <ele>510.60000000000002</ele>
        <time>2012-10-21T10:35:57Z</time>
      </trkpt>
      <trkpt lat="47.621440971270204" lon="14.753111992031336">
        <ele>510.60000000000002</ele>
        <time>2012-10-21T10:36:06Z</time>
      </trkpt>
      <trkpt lat="47.621864005923271" lon="14.753502001985908">
        <ele>510.60000000000002</ele>
        <time>2012-10-21T10:36:16Z</time>
      </trkpt>
      <trkpt lat="47.622306989505887" lon="14.753973986953497">
        <ele>510.60000000000002</ele>
        <time>2012-10-21T10:36:27Z</time>
      </trkpt>
      <trkpt lat="47.622616030275822" lon="14.754339018836617">
        <ele>510.60000000000002</ele>
        <time>2012-10-21T10:36:35Z</time>
      </trkpt>
      <trkpt lat="47.622948037460446" lon="14.754783008247614">
        <ele>510.60000000000002</ele>
        <time>2012-10-21T10:36:44Z</time>
      </trkpt>
      <trkpt lat="47.623023977503181" lon="14.754878981038928">
        <ele>511</ele>
        <time>2012-10-21T10:36:46Z</time>
      </trkpt>
      <trkpt lat="47.623062031343579" lon="14.754929021000862">
        <ele>511.39999999999998</ele>
        <time>2012-10-21T10:36:47Z</time>
      </trkpt>
      <trkpt lat="47.623104024678469" lon="14.754975037649274">
        <ele>511.80000000000001</ele>
        <time>2012-10-21T10:36:48Z</time>
      </trkpt>
      <trkpt lat="47.623141994699836" lon="14.755019964650273">
        <ele>512.20000000000005</ele>
        <time>2012-10-21T10:36:49Z</time>
      </trkpt>
      <trkpt lat="47.623183988034725" lon="14.755063969641924">
        <ele>512.60000000000002</ele>
        <time>2012-10-21T10:36:50Z</time>
      </trkpt>
      <trkpt lat="47.623351961374283" lon="14.75522699765861">
        <ele>512.60000000000002</ele>
        <time>2012-10-21T10:36:54Z</time>
      </trkpt>
      <trkpt lat="47.623702995479107" lon="14.755512988194823">
        <ele>512.60000000000002</ele>
        <time>2012-10-21T10:37:02Z</time>
      </trkpt>
      <trkpt lat="47.624099962413311" lon="14.755714992061257">
        <ele>512.60000000000002</ele>
        <time>2012-10-21T10:37:10Z</time>
      </trkpt>
      <trkpt lat="47.624488966539502" lon="14.755774000659585">
        <ele>512.60000000000002</ele>
        <time>2012-10-21T10:37:16Z</time>
      </trkpt>
      <trkpt lat="47.624648977071047" lon="14.755768971517682">
        <ele>512.20000000000005</ele>
        <time>2012-10-21T10:37:18Z</time>
      </trkpt>
      <trkpt lat="47.624729024246335" lon="14.755767965689301">
        <ele>511.60000000000002</ele>
        <time>2012-10-21T10:37:19Z</time>
      </trkpt>
      <trkpt lat="47.624813010916114" lon="14.755766959860921">
        <ele>511.19999999999999</ele>
        <time>2012-10-21T10:37:20Z</time>
      </trkpt>
      <trkpt lat="47.624896997585893" lon="14.755767965689301">
        <ele>510.80000000000001</ele>
        <time>2012-10-21T10:37:21Z</time>
      </trkpt>
      <trkpt lat="47.624980984255672" lon="14.755772994831204">
        <ele>510.19999999999999</ele>
        <time>2012-10-21T10:37:22Z</time>
      </trkpt>
      <trkpt lat="47.62506497092545" lon="14.755777018144727">
        <ele>509.80000000000001</ele>
        <time>2012-10-21T10:37:23Z</time>
      </trkpt>
      <trkpt lat="47.625152980908751" lon="14.755779029801488">
        <ele>509.19999999999999</ele>
        <time>2012-10-21T10:37:24Z</time>
      </trkpt>
      <trkpt lat="47.625244008377194" lon="14.755777018144727">
        <ele>508.60000000000002</ele>
        <time>2012-10-21T10:37:25Z</time>
      </trkpt>
      <trkpt lat="47.625339981168509" lon="14.755774000659585">
        <ele>508</ele>
        <time>2012-10-21T10:37:26Z</time>
      </trkpt>
      <trkpt lat="47.625431008636951" lon="14.75576302036643">
        <ele>506.60000000000002</ele>
        <time>2012-10-21T10:37:27Z</time>
      </trkpt>
      <trkpt lat="47.625525975599885" lon="14.755750028416514">
        <ele>506</ele>
        <time>2012-10-21T10:37:28Z</time>
      </trkpt>
      <trkpt lat="47.625625971704721" lon="14.755737036466599">
        <ele>505.19999999999999</ele>
        <time>2012-10-21T10:37:29Z</time>
      </trkpt>
      <trkpt lat="47.625732002779841" lon="14.755728989839554">
        <ele>504.39999999999998</ele>
        <time>2012-10-21T10:37:30Z</time>
      </trkpt>
      <trkpt lat="47.625827975571156" lon="14.75571901537478">
        <ele>503.39999999999998</ele>
        <time>2012-10-21T10:37:31Z</time>
      </trkpt>
      <trkpt lat="47.625930989161134" lon="14.755715997889638">
        <ele>502.39999999999998</ele>
        <time>2012-10-21T10:37:32Z</time>
      </trkpt>
      <trkpt lat="47.62602997943759" lon="14.755722032859921">
        <ele>501.60000000000002</ele>
        <time>2012-10-21T10:37:33Z</time>
      </trkpt>
      <trkpt lat="47.626128969714046" lon="14.755737958475947">
        <ele>500.39999999999998</ele>
        <time>2012-10-21T10:37:34Z</time>
      </trkpt>
      <trkpt lat="47.626225026324391" lon="14.755769977346063">
        <ele>499.39999999999998</ele>
        <time>2012-10-21T10:37:35Z</time>
      </trkpt>
      <trkpt lat="47.626315969973803" lon="14.755816999822855">
        <ele>498.39999999999998</ele>
        <time>2012-10-21T10:37:36Z</time>
      </trkpt>
      <trkpt lat="47.626414960250258" lon="14.755910960957408">
        <ele>497.19999999999999</ele>
        <time>2012-10-21T10:37:37Z</time>
      </trkpt>
      <trkpt lat="47.626506993547082" lon="14.756005005910993">
        <ele>496.19999999999999</ele>
        <time>2012-10-21T10:37:38Z</time>
      </trkpt>
      <trkpt lat="47.626590980216861" lon="14.75610701367259">
        <ele>495</ele>
        <time>2012-10-21T10:37:39Z</time>
      </trkpt>
      <trkpt lat="47.62667496688664" lon="14.756229976192117">
        <ele>494</ele>
        <time>2012-10-21T10:37:40Z</time>
      </trkpt>
      <trkpt lat="47.626750990748405" lon="14.756362996995449">
        <ele>492.80000000000001</ele>
        <time>2012-10-21T10:37:41Z</time>
      </trkpt>
      <trkpt lat="47.626831037923694" lon="14.756504986435175">
        <ele>491.80000000000001</ele>
        <time>2012-10-21T10:37:42Z</time>
      </trkpt>
      <trkpt lat="47.626915024593472" lon="14.756643958389759">
        <ele>490.80000000000001</ele>
        <time>2012-10-21T10:37:43Z</time>
      </trkpt>
      <trkpt lat="47.627006974071264" lon="14.756776979193091">
        <ele>489.60000000000002</ele>
        <time>2012-10-21T10:37:44Z</time>
      </trkpt>
      <trkpt lat="47.627093978226185" lon="14.756904970854521">
        <ele>488.60000000000002</ele>
        <time>2012-10-21T10:37:45Z</time>
      </trkpt>
      <trkpt lat="47.627181988209486" lon="14.757035980001092">
        <ele>487.39999999999998</ele>
        <time>2012-10-21T10:37:46Z</time>
      </trkpt>
      <trkpt lat="47.627262035384774" lon="14.757162965834141">
        <ele>486.19999999999999</ele>
        <time>2012-10-21T10:37:47Z</time>
      </trkpt>
      <trkpt lat="47.627335041761398" lon="14.757297998294234">
        <ele>485</ele>
        <time>2012-10-21T10:37:48Z</time>
      </trkpt>
      <trkpt lat="47.62740695849061" lon="14.757436970248818">
        <ele>483.80000000000001</ele>
        <time>2012-10-21T10:37:49Z</time>
      </trkpt>
      <trkpt lat="47.627479964867234" lon="14.757584994658828">
        <ele>482.60000000000002</ele>
        <time>2012-10-21T10:37:50Z</time>
      </trkpt>
      <trkpt lat="47.627548025920987" lon="14.757722960785031">
        <ele>481.39999999999998</ele>
        <time>2012-10-21T10:37:51Z</time>
      </trkpt>
      <trkpt lat="47.627617008984089" lon="14.757843995466828">
        <ele>479.19999999999999</ele>
        <time>2012-10-21T10:37:52Z</time>
      </trkpt>
      <trkpt lat="47.627693032845855" lon="14.757956983521581">
        <ele>478</ele>
        <time>2012-10-21T10:37:53Z</time>
      </trkpt>
      <trkpt lat="47.627777019515634" lon="14.758059997111559">
        <ele>476.80000000000001</ele>
        <time>2012-10-21T10:37:54Z</time>
      </trkpt>
      <trkpt lat="47.627865029498935" lon="14.758162004873157">
        <ele>476</ele>
        <time>2012-10-21T10:37:55Z</time>
      </trkpt>
      <trkpt lat="47.627964019775391" lon="14.758254960179329">
        <ele>475</ele>
        <time>2012-10-21T10:37:56Z</time>
      </trkpt>
      <trkpt lat="47.628074996173382" lon="14.75834297016263">
        <ele>474</ele>
        <time>2012-10-21T10:37:57Z</time>
      </trkpt>
      <trkpt lat="47.628173986449838" lon="14.758410025388002">
        <ele>473.19999999999999</ele>
        <time>2012-10-21T10:37:58Z</time>
      </trkpt>
      <trkpt lat="47.628281023353338" lon="14.75847196765244">
        <ele>472.39999999999998</ele>
        <time>2012-10-21T10:37:59Z</time>
      </trkpt>
      <trkpt lat="47.628386970609426" lon="14.758528964594007">
        <ele>471.60000000000002</ele>
        <time>2012-10-21T10:38:00Z</time>
      </trkpt>
      <trkpt lat="47.628498030826449" lon="14.758580010384321">
        <ele>470.80000000000001</ele>
        <time>2012-10-21T10:38:01Z</time>
      </trkpt>
      <trkpt lat="47.628604983910918" lon="14.758626027032733">
        <ele>470</ele>
        <time>2012-10-21T10:38:02Z</time>
      </trkpt>
      <trkpt lat="47.628712020814419" lon="14.758671959862113">
        <ele>469.19999999999999</ele>
        <time>2012-10-21T10:38:03Z</time>
      </trkpt>
      <trkpt lat="47.628821991384029" lon="14.758716970682144">
        <ele>468.39999999999998</ele>
        <time>2012-10-21T10:38:04Z</time>
      </trkpt>
      <trkpt lat="47.628932967782021" lon="14.758756030350924">
        <ele>467.80000000000001</ele>
        <time>2012-10-21T10:38:05Z</time>
      </trkpt>
      <trkpt lat="47.629044027999043" lon="14.758795006200671">
        <ele>467.19999999999999</ele>
        <time>2012-10-21T10:38:06Z</time>
      </trkpt>
      <trkpt lat="47.629147041589022" lon="14.758840017020702">
        <ele>466.60000000000002</ele>
        <time>2012-10-21T10:38:07Z</time>
      </trkpt>
      <trkpt lat="47.629246031865478" lon="14.758886033669114">
        <ele>466</ele>
        <time>2012-10-21T10:38:08Z</time>
      </trkpt>
      <trkpt lat="47.629345022141933" lon="14.758927021175623">
        <ele>465.39999999999998</ele>
        <time>2012-10-21T10:38:09Z</time>
      </trkpt>
      <trkpt lat="47.629543002694845" lon="14.758994998410344">
        <ele>465</ele>
        <time>2012-10-21T10:38:11Z</time>
      </trkpt>
      <trkpt lat="47.629635035991669" lon="14.759022993966937">
        <ele>464.60000000000002</ele>
        <time>2012-10-21T10:38:12Z</time>
      </trkpt>
      <trkpt lat="47.629737965762615" lon="14.759040009230375">
        <ele>464.19999999999999</ele>
        <time>2012-10-21T10:38:13Z</time>
      </trkpt>
      <trkpt lat="47.629828993231058" lon="14.759062975645065">
        <ele>463.80000000000001</ele>
        <time>2012-10-21T10:38:14Z</time>
      </trkpt>
      <trkpt lat="47.629917003214359" lon="14.759088037535548">
        <ele>463.39999999999998</ele>
        <time>2012-10-21T10:38:15Z</time>
      </trkpt>
      <trkpt lat="47.630240963771939" lon="14.759142016991973">
        <ele>463.39999999999998</ele>
        <time>2012-10-21T10:38:19Z</time>
      </trkpt>
      <trkpt lat="47.630783021450043" lon="14.759105974808335">
        <ele>463.39999999999998</ele>
        <time>2012-10-21T10:38:26Z</time>
      </trkpt>
      <trkpt lat="47.631172025576234" lon="14.759039003401995">
        <ele>463.39999999999998</ele>
        <time>2012-10-21T10:38:32Z</time>
      </trkpt>
      <trkpt lat="47.631763033568859" lon="14.759025005623698">
        <ele>463.39999999999998</ele>
        <time>2012-10-21T10:38:41Z</time>
      </trkpt>
      <trkpt lat="47.632052963599563" lon="14.759046966210008">
        <ele>462.80000000000001</ele>
        <time>2012-10-21T10:38:45Z</time>
      </trkpt>
      <trkpt lat="47.632125969976187" lon="14.759058030322194">
        <ele>462.39999999999998</ele>
        <time>2012-10-21T10:38:46Z</time>
      </trkpt>
      <trkpt lat="47.632201993837953" lon="14.759079990908504">
        <ele>462</ele>
        <time>2012-10-21T10:38:47Z</time>
      </trkpt>
      <trkpt lat="47.632278017699718" lon="14.759104968979955">
        <ele>461.39999999999998</ele>
        <time>2012-10-21T10:38:48Z</time>
      </trkpt>
      <trkpt lat="47.632354963570833" lon="14.759134976193309">
        <ele>461</ele>
        <time>2012-10-21T10:38:49Z</time>
      </trkpt>
      <trkpt lat="47.632430987432599" lon="14.759165989235044">
        <ele>460.60000000000002</ele>
        <time>2012-10-21T10:38:50Z</time>
      </trkpt>
      <trkpt lat="47.632511034607887" lon="14.759203037247062">
        <ele>460</ele>
        <time>2012-10-21T10:38:51Z</time>
      </trkpt>
      <trkpt lat="47.632598960772157" lon="14.759246036410332">
        <ele>459.60000000000002</ele>
        <time>2012-10-21T10:38:52Z</time>
      </trkpt>
      <trkpt lat="47.632683031260967" lon="14.759283000603318">
        <ele>459</ele>
        <time>2012-10-21T10:38:53Z</time>
      </trkpt>
      <trkpt lat="47.632762994617224" lon="14.759315019473433">
        <ele>458.39999999999998</ele>
        <time>2012-10-21T10:38:54Z</time>
      </trkpt>
      <trkpt lat="47.632843041792512" lon="14.759338991716504">
        <ele>457.80000000000001</ele>
        <time>2012-10-21T10:38:55Z</time>
      </trkpt>
      <trkpt lat="47.632923005148768" lon="14.759358018636703">
        <ele>457.19999999999999</ele>
        <time>2012-10-21T10:38:56Z</time>
      </trkpt>
      <trkpt lat="47.632999029010534" lon="14.759370004758239">
        <ele>456.39999999999998</ele>
        <time>2012-10-21T10:38:57Z</time>
      </trkpt>
      <trkpt lat="47.633079998195171" lon="14.759376961737871">
        <ele>455.60000000000002</ele>
        <time>2012-10-21T10:38:58Z</time>
      </trkpt>
      <trkpt lat="47.63316297903657" lon="14.759381990879774">
        <ele>455</ele>
        <time>2012-10-21T10:38:59Z</time>
      </trkpt>
      <trkpt lat="47.633250989019871" lon="14.759385008364916">
        <ele>454.19999999999999</ele>
        <time>2012-10-21T10:39:00Z</time>
      </trkpt>
      <trkpt lat="47.633331036195159" lon="14.759384002536535">
        <ele>453.39999999999998</ele>
        <time>2012-10-21T10:39:01Z</time>
      </trkpt>
      <trkpt lat="47.633536979556084" lon="14.759363969787955">
        <ele>453</ele>
        <time>2012-10-21T10:39:02Z</time>
      </trkpt>
      <trkpt lat="47.633686009794474" lon="14.759356006979942">
        <ele>452.60000000000002</ele>
        <time>2012-10-21T10:39:03Z</time>
      </trkpt>
      <trkpt lat="47.633801009505987" lon="14.759357012808323">
        <ele>452.19999999999999</ele>
        <time>2012-10-21T10:39:04Z</time>
      </trkpt>
      <trkpt lat="47.633895976468921" lon="14.759359024465084">
        <ele>451.80000000000001</ele>
        <time>2012-10-21T10:39:05Z</time>
      </trkpt>
      <trkpt lat="47.633987003937364" lon="14.759361958131194">
        <ele>451.39999999999998</ele>
        <time>2012-10-21T10:39:06Z</time>
      </trkpt>
      <trkpt lat="47.634232006967068" lon="14.759388025850058">
        <ele>451.39999999999998</ele>
        <time>2012-10-21T10:39:09Z</time>
      </trkpt>
      <trkpt lat="47.634646994993091" lon="14.759524986147881">
        <ele>451.39999999999998</ele>
        <time>2012-10-21T10:39:15Z</time>
      </trkpt>
      <trkpt lat="47.635113028809428" lon="14.75971600972116">
        <ele>451.39999999999998</ele>
        <time>2012-10-21T10:39:22Z</time>
      </trkpt>
      <trkpt lat="47.635474959388375" lon="14.759796978905797">
        <ele>451.39999999999998</ele>
        <time>2012-10-21T10:39:27Z</time>
      </trkpt>
      <trkpt lat="47.635544026270509" lon="14.759791027754545">
        <ele>451.39999999999998</ele>
        <time>2012-10-21T10:39:28Z</time>
      </trkpt>
      <trkpt lat="47.635746030136943" lon="14.759718021377921">
        <ele>451.39999999999998</ele>
        <time>2012-10-21T10:39:31Z</time>
      </trkpt>
      <trkpt lat="47.635857006534934" lon="14.759651971980929">
        <ele>451.39999999999998</ele>
        <time>2012-10-21T10:39:33Z</time>
      </trkpt>
      <trkpt lat="47.635993966832757" lon="14.75954401306808">
        <ele>451.39999999999998</ele>
        <time>2012-10-21T10:39:36Z</time>
      </trkpt>
      <trkpt lat="47.636089017614722" lon="14.759460026398301">
        <ele>451.80000000000001</ele>
        <time>2012-10-21T10:39:39Z</time>
      </trkpt>
      <trkpt lat="47.636111984029412" lon="14.759434964507818">
        <ele>452.19999999999999</ele>
        <time>2012-10-21T10:39:40Z</time>
      </trkpt>
      <trkpt lat="47.636131010949612" lon="14.759416021406651">
        <ele>452.60000000000002</ele>
        <time>2012-10-21T10:39:41Z</time>
      </trkpt>
      <trkpt lat="47.636150037869811" lon="14.759390959516168">
        <ele>453</ele>
        <time>2012-10-21T10:39:42Z</time>
      </trkpt>
      <trkpt lat="47.636165963485837" lon="14.759363969787955">
        <ele>453.60000000000002</ele>
        <time>2012-10-21T10:39:43Z</time>
      </trkpt>
      <trkpt lat="47.636219020932913" lon="14.759291969239712">
        <ele>454</ele>
        <time>2012-10-21T10:39:47Z</time>
      </trkpt>
      <trkpt lat="47.636226983740926" lon="14.759272020310163">
        <ele>454.39999999999998</ele>
        <time>2012-10-21T10:39:48Z</time>
      </trkpt>
      <trkpt lat="47.636237964034081" lon="14.759250981733203">
        <ele>454.80000000000001</ele>
        <time>2012-10-21T10:39:49Z</time>
      </trkpt>
      <trkpt lat="47.636250033974648" lon="14.759232960641384">
        <ele>455.19999999999999</ele>
        <time>2012-10-21T10:39:50Z</time>
      </trkpt>
      <trkpt lat="47.636261014267802" lon="14.759217035025358">
        <ele>455.60000000000002</ele>
        <time>2012-10-21T10:39:51Z</time>
      </trkpt>
      <trkpt lat="47.636318011209369" lon="14.759160960093141">
        <ele>455.60000000000002</ele>
        <time>2012-10-21T10:39:55Z</time>
      </trkpt>
      <trkpt lat="47.636337038129568" lon="14.759146962314844">
        <ele>456</ele>
        <time>2012-10-21T10:39:56Z</time>
      </trkpt>
      <trkpt lat="47.636352963745594" lon="14.759134976193309">
        <ele>456.39999999999998</ele>
        <time>2012-10-21T10:39:57Z</time>
      </trkpt>
      <trkpt lat="47.636367967352271" lon="14.759120978415012">
        <ele>456.80000000000001</ele>
        <time>2012-10-21T10:39:58Z</time>
      </trkpt>
      <trkpt lat="47.636375008150935" lon="14.759108992293477">
        <ele>457.19999999999999</ele>
        <time>2012-10-21T10:39:59Z</time>
      </trkpt>
      <trkpt lat="47.63638699427247" lon="14.759092982858419">
        <ele>457.80000000000001</ele>
        <time>2012-10-21T10:40:00Z</time>
      </trkpt>
      <trkpt lat="47.63640996068716" lon="14.759059958159924">
        <ele>457.80000000000001</ele>
        <time>2012-10-21T10:40:02Z</time>
      </trkpt>
      <trkpt lat="47.636481961235404" lon="14.759008996188641">
        <ele>458.19999999999999</ele>
        <time>2012-10-21T10:40:07Z</time>
      </trkpt>
      <trkpt lat="47.636490007862449" lon="14.758997010067105">
        <ele>458.60000000000002</ele>
        <time>2012-10-21T10:40:08Z</time>
      </trkpt>
      <trkpt lat="47.636496964842081" lon="14.758983012288809">
        <ele>459</ele>
        <time>2012-10-21T10:40:09Z</time>
      </trkpt>
      <trkpt lat="47.636509034782648" lon="14.758965997025371">
        <ele>459.39999999999998</ele>
        <time>2012-10-21T10:40:10Z</time>
      </trkpt>
      <trkpt lat="47.636524038389325" lon="14.758953005075455">
        <ele>459.80000000000001</ele>
        <time>2012-10-21T10:40:11Z</time>
      </trkpt>
      <trkpt lat="47.636573994532228" lon="14.758883016183972">
        <ele>459.80000000000001</ele>
        <time>2012-10-21T10:40:16Z</time>
      </trkpt>
      <trkpt lat="47.636608025059104" lon="14.758853008970618">
        <ele>460.19999999999999</ele>
        <time>2012-10-21T10:40:19Z</time>
      </trkpt>
      <trkpt lat="47.636620011180639" lon="14.758842028677464">
        <ele>461.19999999999999</ele>
        <time>2012-10-21T10:40:20Z</time>
      </trkpt>
      <trkpt lat="47.636626968160272" lon="14.758829958736897">
        <ele>461.60000000000002</ele>
        <time>2012-10-21T10:40:21Z</time>
      </trkpt>
      <trkpt lat="47.636639038100839" lon="14.758817972615361">
        <ele>462</ele>
        <time>2012-10-21T10:40:22Z</time>
      </trkpt>
      <trkpt lat="47.636650018393993" lon="14.758807998150587">
        <ele>462</ele>
        <time>2012-10-21T10:40:23Z</time>
      </trkpt>
      <trkpt lat="47.636723024770617" lon="14.758748989552259">
        <ele>462</ele>
        <time>2012-10-21T10:40:29Z</time>
      </trkpt>
      <trkpt lat="47.636734005063772" lon="14.758741026744246">
        <ele>462.39999999999998</ele>
        <time>2012-10-21T10:40:30Z</time>
      </trkpt>
      <trkpt lat="47.636749008670449" lon="14.758732980117202">
        <ele>462.80000000000001</ele>
        <time>2012-10-21T10:40:31Z</time>
      </trkpt>
      <trkpt lat="47.636760994791985" lon="14.758723005652428">
        <ele>463.19999999999999</ele>
        <time>2012-10-21T10:40:32Z</time>
      </trkpt>
      <trkpt lat="47.636771975085139" lon="14.758714959025383">
        <ele>463.60000000000002</ele>
        <time>2012-10-21T10:40:33Z</time>
      </trkpt>
      <trkpt lat="47.636783961206675" lon="14.758709007874131">
        <ele>464</ele>
        <time>2012-10-21T10:40:34Z</time>
      </trkpt>
      <trkpt lat="47.636791002005339" lon="14.758700039237738">
        <ele>464</ele>
        <time>2012-10-21T10:40:35Z</time>
      </trkpt>
      <trkpt lat="47.636855961754918" lon="14.758642036467791">
        <ele>464</ele>
        <time>2012-10-21T10:40:42Z</time>
      </trkpt>
      <trkpt lat="47.63687901198864" lon="14.758630972355604">
        <ele>464.39999999999998</ele>
        <time>2012-10-21T10:40:44Z</time>
      </trkpt>
      <trkpt lat="47.636889992281795" lon="14.758625021204352">
        <ele>465.39999999999998</ele>
        <time>2012-10-21T10:40:45Z</time>
      </trkpt>
      <trkpt lat="47.636912958696485" lon="14.758619992062449">
        <ele>465.80000000000001</ele>
        <time>2012-10-21T10:40:46Z</time>
      </trkpt>
      <trkpt lat="47.636928968131542" lon="14.758614962920547">
        <ele>466.19999999999999</ele>
        <time>2012-10-21T10:40:47Z</time>
      </trkpt>
      <trkpt lat="47.636958975344896" lon="14.758599959313869">
        <ele>466.19999999999999</ele>
        <time>2012-10-21T10:40:49Z</time>
      </trkpt>
      <trkpt lat="47.637039022520185" lon="14.758558971807361">
        <ele>466.60000000000002</ele>
        <time>2012-10-21T10:40:55Z</time>
      </trkpt>
      <trkpt lat="47.637054026126862" lon="14.758552014827728">
        <ele>467</ele>
        <time>2012-10-21T10:40:56Z</time>
      </trkpt>
      <trkpt lat="47.637066012248397" lon="14.758542040362954">
        <ele>467.39999999999998</ele>
        <time>2012-10-21T10:40:57Z</time>
      </trkpt>
      <trkpt lat="47.637081015855074" lon="14.758532987907529">
        <ele>467.80000000000001</ele>
        <time>2012-10-21T10:40:58Z</time>
      </trkpt>
      <trkpt lat="47.637096019461751" lon="14.758523013442755">
        <ele>468.19999999999999</ele>
        <time>2012-10-21T10:40:59Z</time>
      </trkpt>
      <trkpt lat="47.637145975604653" lon="14.758498035371304">
        <ele>468.19999999999999</ele>
        <time>2012-10-21T10:41:03Z</time>
      </trkpt>
      <trkpt lat="47.637226022779942" lon="14.758459981530905">
        <ele>468.80000000000001</ele>
        <time>2012-10-21T10:41:08Z</time>
      </trkpt>
      <trkpt lat="47.637241026386619" lon="14.758455036208034">
        <ele>469.60000000000002</ele>
        <time>2012-10-21T10:41:09Z</time>
      </trkpt>
      <trkpt lat="47.637257035821676" lon="14.758451012894511">
        <ele>470</ele>
        <time>2012-10-21T10:41:10Z</time>
      </trkpt>
      <trkpt lat="47.637275978922844" lon="14.758447995409369">
        <ele>470.39999999999998</ele>
        <time>2012-10-21T10:41:11Z</time>
      </trkpt>
      <trkpt lat="47.637290982529521" lon="14.758442966267467">
        <ele>470.39999999999998</ele>
        <time>2012-10-21T10:41:12Z</time>
      </trkpt>
      <trkpt lat="47.637401958927512" lon="14.758413964882493">
        <ele>470.80000000000001</ele>
        <time>2012-10-21T10:41:20Z</time>
      </trkpt>
      <trkpt lat="47.637413023039699" lon="14.758410025388002">
        <ele>471.19999999999999</ele>
        <time>2012-10-21T10:41:21Z</time>
      </trkpt>
      <trkpt lat="47.637424003332853" lon="14.758408013731241">
        <ele>471.60000000000002</ele>
        <time>2012-10-21T10:41:22Z</time>
      </trkpt>
      <trkpt lat="47.637435989454389" lon="14.75840600207448">
        <ele>472</ele>
        <time>2012-10-21T10:41:23Z</time>
      </trkpt>
      <trkpt lat="47.637450993061066" lon="14.758399967104197">
        <ele>472.39999999999998</ele>
        <time>2012-10-21T10:41:24Z</time>
      </trkpt>
      <trkpt lat="47.637512013316154" lon="14.758372977375984">
        <ele>472.39999999999998</ele>
        <time>2012-10-21T10:41:29Z</time>
      </trkpt>
      <trkpt lat="47.637615026906133" lon="14.758379012346268">
        <ele>472.80000000000001</ele>
        <time>2012-10-21T10:41:33Z</time>
      </trkpt>
      <trkpt lat="47.637637993320823" lon="14.758382029831409">
        <ele>473.60000000000002</ele>
        <time>2012-10-21T10:41:34Z</time>
      </trkpt>
      <trkpt lat="47.637660959735513" lon="14.758381024003029">
        <ele>474.19999999999999</ele>
        <time>2012-10-21T10:41:35Z</time>
      </trkpt>
      <trkpt lat="47.637684009969234" lon="14.758378006517887">
        <ele>474.60000000000002</ele>
        <time>2012-10-21T10:41:36Z</time>
      </trkpt>
      <trkpt lat="47.637703036889434" lon="14.758372977375984">
        <ele>474.60000000000002</ele>
        <time>2012-10-21T10:41:37Z</time>
      </trkpt>
      <trkpt lat="47.63780202716589" lon="14.758322015404701">
        <ele>475</ele>
        <time>2012-10-21T10:41:44Z</time>
      </trkpt>
      <trkpt lat="47.637814013287425" lon="14.758317992091179">
        <ele>475.39999999999998</ele>
        <time>2012-10-21T10:41:45Z</time>
      </trkpt>
      <trkpt lat="47.63782499358058" lon="14.758316986262798">
        <ele>475.80000000000001</ele>
        <time>2012-10-21T10:41:46Z</time>
      </trkpt>
      <trkpt lat="47.637835973873734" lon="14.758312040939927">
        <ele>476.39999999999998</ele>
        <time>2012-10-21T10:41:47Z</time>
      </trkpt>
      <trkpt lat="47.63784795999527" lon="14.758303994312882">
        <ele>476.80000000000001</ele>
        <time>2012-10-21T10:41:48Z</time>
      </trkpt>
      <trkpt lat="47.637871010228992" lon="14.758282033726573">
        <ele>476.80000000000001</ele>
        <time>2012-10-21T10:41:50Z</time>
      </trkpt>
      <trkpt lat="47.637896994128823" lon="14.758266024291515">
        <ele>476.80000000000001</ele>
        <time>2012-10-21T10:41:52Z</time>
      </trkpt>
      <trkpt lat="47.637970000505447" lon="14.758222019299865">
        <ele>477.19999999999999</ele>
        <time>2012-10-21T10:41:58Z</time>
      </trkpt>
      <trkpt lat="47.637985004112124" lon="14.758224030956626">
        <ele>478</ele>
        <time>2012-10-21T10:41:59Z</time>
      </trkpt>
      <trkpt lat="47.637992966920137" lon="14.758217995986342">
        <ele>478.39999999999998</ele>
        <time>2012-10-21T10:42:00Z</time>
      </trkpt>
      <trkpt lat="47.638007970526814" lon="14.75821103900671">
        <ele>478.80000000000001</ele>
        <time>2012-10-21T10:42:01Z</time>
      </trkpt>
      <trkpt lat="47.638130011036992" lon="14.758140966296196">
        <ele>478.80000000000001</ele>
        <time>2012-10-21T10:42:10Z</time>
      </trkpt>
      <trkpt lat="47.638145014643669" lon="14.758130991831422">
        <ele>479.39999999999998</ele>
        <time>2012-10-21T10:42:11Z</time>
      </trkpt>
      <trkpt lat="47.638152977451682" lon="14.758122023195028">
        <ele>479.80000000000001</ele>
        <time>2012-10-21T10:42:12Z</time>
      </trkpt>
      <trkpt lat="47.638164963573217" lon="14.758114982396364">
        <ele>480.19999999999999</ele>
        <time>2012-10-21T10:42:13Z</time>
      </trkpt>
      <trkpt lat="47.638176027685404" lon="14.758110037073493">
        <ele>480.60000000000002</ele>
        <time>2012-10-21T10:42:14Z</time>
      </trkpt>
      <trkpt lat="47.638187007978559" lon="14.758107019588351">
        <ele>481</ele>
        <time>2012-10-21T10:42:15Z</time>
      </trkpt>
      <trkpt lat="47.638225983828306" lon="14.758086986839771">
        <ele>481</ele>
        <time>2012-10-21T10:42:18Z</time>
      </trkpt>
      <trkpt lat="47.638306031003594" lon="14.758056979626417">
        <ele>481.39999999999998</ele>
        <time>2012-10-21T10:42:23Z</time>
      </trkpt>
      <trkpt lat="47.638321034610271" lon="14.758053962141275">
        <ele>481.80000000000001</ele>
        <time>2012-10-21T10:42:24Z</time>
      </trkpt>
      <trkpt lat="47.638332014903426" lon="14.758051028475165">
        <ele>482.19999999999999</ele>
        <time>2012-10-21T10:42:25Z</time>
      </trkpt>
      <trkpt lat="47.638344001024961" lon="14.758047005161643">
        <ele>482.60000000000002</ele>
        <time>2012-10-21T10:42:26Z</time>
      </trkpt>
      <trkpt lat="47.638359004631639" lon="14.758038958534598">
        <ele>483.19999999999999</ele>
        <time>2012-10-21T10:42:27Z</time>
      </trkpt>
      <trkpt lat="47.63842798769474" lon="14.757990008220077">
        <ele>483.19999999999999</ele>
        <time>2012-10-21T10:42:33Z</time>
      </trkpt>
      <trkpt lat="47.638466041535139" lon="14.757972992956638">
        <ele>483.60000000000002</ele>
        <time>2012-10-21T10:42:36Z</time>
      </trkpt>
      <trkpt lat="47.638480961322784" lon="14.757969975471497">
        <ele>484</ele>
        <time>2012-10-21T10:42:37Z</time>
      </trkpt>
      <trkpt lat="47.638495964929461" lon="14.757967041805387">
        <ele>484.39999999999998</ele>
        <time>2012-10-21T10:42:38Z</time>
      </trkpt>
      <trkpt lat="47.638511974364519" lon="14.757957989349961">
        <ele>484.80000000000001</ele>
        <time>2012-10-21T10:42:39Z</time>
      </trkpt>
      <trkpt lat="47.638526977971196" lon="14.757952960208058">
        <ele>485.19999999999999</ele>
        <time>2012-10-21T10:42:40Z</time>
      </trkpt>
      <trkpt lat="47.63855698518455" lon="14.757942985743284">
        <ele>485.19999999999999</ele>
        <time>2012-10-21T10:42:42Z</time>
      </trkpt>
      <trkpt lat="47.638640971854329" lon="14.757915996015072">
        <ele>486</ele>
        <time>2012-10-21T10:42:48Z</time>
      </trkpt>
      <trkpt lat="47.638656981289387" lon="14.757909039035439">
        <ele>486.39999999999998</ele>
        <time>2012-10-21T10:42:49Z</time>
      </trkpt>
      <trkpt lat="47.638676008209586" lon="14.757903004065156">
        <ele>486.80000000000001</ele>
        <time>2012-10-21T10:42:50Z</time>
      </trkpt>
      <trkpt lat="47.638686988502741" lon="14.757898980751634">
        <ele>487.19999999999999</ele>
        <time>2012-10-21T10:42:51Z</time>
      </trkpt>
      <trkpt lat="47.638797964900732" lon="14.757837960496545">
        <ele>487.60000000000002</ele>
        <time>2012-10-21T10:42:59Z</time>
      </trkpt>
      <trkpt lat="47.638809029012918" lon="14.757839972153306">
        <ele>488</ele>
        <time>2012-10-21T10:43:00Z</time>
      </trkpt>
      <trkpt lat="47.638821015134454" lon="14.757839972153306">
        <ele>488.39999999999998</ele>
        <time>2012-10-21T10:43:01Z</time>
      </trkpt>
      <trkpt lat="47.638831995427608" lon="14.757833015173674">
        <ele>488.80000000000001</ele>
        <time>2012-10-21T10:43:02Z</time>
      </trkpt>
      <trkpt lat="47.638846999034286" lon="14.757827986031771">
        <ele>489.19999999999999</ele>
        <time>2012-10-21T10:43:03Z</time>
      </trkpt>
      <trkpt lat="47.638893015682697" lon="14.757817005738616">
        <ele>489.19999999999999</ele>
        <time>2012-10-21T10:43:07Z</time>
      </trkpt>
      <trkpt lat="47.638946995139122" lon="14.757796972990036">
        <ele>489.60000000000002</ele>
        <time>2012-10-21T10:43:11Z</time>
      </trkpt>
      <trkpt lat="47.638957975432277" lon="14.757796972990036">
        <ele>490.60000000000002</ele>
        <time>2012-10-21T10:43:12Z</time>
      </trkpt>
      <trkpt lat="47.638969039544463" lon="14.757793033495545">
        <ele>491</ele>
        <time>2012-10-21T10:43:13Z</time>
      </trkpt>
      <trkpt lat="47.638977002352476" lon="14.757790016010404">
        <ele>491.39999999999998</ele>
        <time>2012-10-21T10:43:14Z</time>
      </trkpt>
      <trkpt lat="47.639053026214242" lon="14.757776018232107">
        <ele>491.39999999999998</ele>
        <time>2012-10-21T10:43:20Z</time>
      </trkpt>
      <trkpt lat="47.639113962650299" lon="14.757763026282191">
        <ele>491.80000000000001</ele>
        <time>2012-10-21T10:43:25Z</time>
      </trkpt>
      <trkpt lat="47.639122009277344" lon="14.757759002968669">
        <ele>492.19999999999999</ele>
        <time>2012-10-21T10:43:26Z</time>
      </trkpt>
      <trkpt lat="47.639132989570498" lon="14.757756991311908">
        <ele>492.60000000000002</ele>
        <time>2012-10-21T10:43:27Z</time>
      </trkpt>
      <trkpt lat="47.639148999005556" lon="14.757757997140288">
        <ele>493</ele>
        <time>2012-10-21T10:43:28Z</time>
      </trkpt>
      <trkpt lat="47.639168025925756" lon="14.757757997140288">
        <ele>493.39999999999998</ele>
        <time>2012-10-21T10:43:29Z</time>
      </trkpt>
      <trkpt lat="47.639297023415565" lon="14.757747016847134">
        <ele>493.39999999999998</ele>
        <time>2012-10-21T10:43:37Z</time>
      </trkpt>
      <trkpt lat="47.639309009537101" lon="14.757746011018753">
        <ele>493.80000000000001</ele>
        <time>2012-10-21T10:43:38Z</time>
      </trkpt>
      <trkpt lat="47.639324013143778" lon="14.75774098187685">
        <ele>494.19999999999999</ele>
        <time>2012-10-21T10:43:39Z</time>
      </trkpt>
      <trkpt lat="47.639331975951791" lon="14.75773997604847">
        <ele>494.60000000000002</ele>
        <time>2012-10-21T10:43:40Z</time>
      </trkpt>
      <trkpt lat="47.639346979558468" lon="14.757738970220089">
        <ele>495</ele>
        <time>2012-10-21T10:43:41Z</time>
      </trkpt>
      <trkpt lat="47.639355026185513" lon="14.757738970220089">
        <ele>495.39999999999998</ele>
        <time>2012-10-21T10:43:42Z</time>
      </trkpt>
      <trkpt lat="47.639361983165145" lon="14.757730001583695">
        <ele>495.39999999999998</ele>
        <time>2012-10-21T10:43:43Z</time>
      </trkpt>
      <trkpt lat="47.639461979269981" lon="14.757723966613412">
        <ele>495.39999999999998</ele>
        <time>2012-10-21T10:43:50Z</time>
      </trkpt>
      <trkpt lat="47.63954202644527" lon="14.757722960785031">
        <ele>495.80000000000001</ele>
        <time>2012-10-21T10:43:55Z</time>
      </trkpt>
      <trkpt lat="47.639560969546437" lon="14.757719021290541">
        <ele>496.19999999999999</ele>
        <time>2012-10-21T10:43:56Z</time>
      </trkpt>
      <trkpt lat="47.639572033658624" lon="14.757714997977018">
        <ele>496.60000000000002</ele>
        <time>2012-10-21T10:43:57Z</time>
      </trkpt>
      <trkpt lat="47.639584019780159" lon="14.757712986320257">
        <ele>497</ele>
        <time>2012-10-21T10:43:58Z</time>
      </trkpt>
      <trkpt lat="47.639595000073314" lon="14.757711980491877">
        <ele>497.39999999999998</ele>
        <time>2012-10-21T10:43:59Z</time>
      </trkpt>
      <trkpt lat="47.63969399034977" lon="14.757708963006735">
        <ele>497.39999999999998</ele>
        <time>2012-10-21T10:44:05Z</time>
      </trkpt>
      <trkpt lat="47.639816030859947" lon="14.757711980491877">
        <ele>497.39999999999998</ele>
        <time>2012-10-21T10:44:13Z</time>
      </trkpt>
      <trkpt lat="47.639850983396173" lon="14.757716003805399">
        <ele>497.80000000000001</ele>
        <time>2012-10-21T10:44:15Z</time>
      </trkpt>
      <trkpt lat="47.63986598700285" lon="14.757721032947302">
        <ele>498.19999999999999</ele>
        <time>2012-10-21T10:44:16Z</time>
      </trkpt>
      <trkpt lat="47.639880990609527" lon="14.757722038775682">
        <ele>498.60000000000002</ele>
        <time>2012-10-21T10:44:17Z</time>
      </trkpt>
      <trkpt lat="47.639895994216204" lon="14.757722960785031">
        <ele>499</ele>
        <time>2012-10-21T10:44:18Z</time>
      </trkpt>
      <trkpt lat="47.639912003651261" lon="14.757725978270173">
        <ele>499.39999999999998</ele>
        <time>2012-10-21T10:44:19Z</time>
      </trkpt>
      <trkpt lat="47.639931030571461" lon="14.757726984098554">
        <ele>499.39999999999998</ele>
        <time>2012-10-21T10:44:20Z</time>
      </trkpt>
      <trkpt lat="47.640052987262607" lon="14.75776000879705">
        <ele>499.39999999999998</ele>
        <time>2012-10-21T10:44:27Z</time>
      </trkpt>
      <trkpt lat="47.640205034986138" lon="14.757776018232107">
        <ele>499.39999999999998</ele>
        <time>2012-10-21T10:44:34Z</time>
      </trkpt>
      <trkpt lat="47.640353981405497" lon="14.757788004353642">
        <ele>499.80000000000001</ele>
        <time>2012-10-21T10:44:42Z</time>
      </trkpt>
      <trkpt lat="47.640377031639218" lon="14.757786998525262">
        <ele>500.19999999999999</ele>
        <time>2012-10-21T10:44:43Z</time>
      </trkpt>
      <trkpt lat="47.640404021367431" lon="14.757789010182023">
        <ele>500.60000000000002</ele>
        <time>2012-10-21T10:44:44Z</time>
      </trkpt>
      <trkpt lat="47.640430005267262" lon="14.757792027667165">
        <ele>501</ele>
        <time>2012-10-21T10:44:45Z</time>
      </trkpt>
      <trkpt lat="47.640456994995475" lon="14.757793033495545">
        <ele>501.39999999999998</ele>
        <time>2012-10-21T10:44:46Z</time>
      </trkpt>
      <trkpt lat="47.640582975000143" lon="14.757823962718248">
        <ele>501.39999999999998</ele>
        <time>2012-10-21T10:44:51Z</time>
      </trkpt>
      <trkpt lat="47.64081196859479" lon="14.757853969931602">
        <ele>501.39999999999998</ele>
        <time>2012-10-21T10:44:59Z</time>
      </trkpt>
      <trkpt lat="47.641112962737679" lon="14.75786997936666">
        <ele>501.39999999999998</ele>
        <time>2012-10-21T10:45:08Z</time>
      </trkpt>
      <trkpt lat="47.641457039862871" lon="14.757835026830435">
        <ele>501.39999999999998</ele>
        <time>2012-10-21T10:45:16Z</time>
      </trkpt>
      <trkpt lat="47.641830034554005" lon="14.757701000198722">
        <ele>501.39999999999998</ele>
        <time>2012-10-21T10:45:24Z</time>
      </trkpt>
      <trkpt lat="47.642277041450143" lon="14.757469994947314">
        <ele>501.39999999999998</ele>
        <time>2012-10-21T10:45:33Z</time>
      </trkpt>
      <trkpt lat="47.642714995890856" lon="14.757295986637473">
        <ele>501.39999999999998</ele>
        <time>2012-10-21T10:45:41Z</time>
      </trkpt>
      <trkpt lat="47.643166026100516" lon="14.757121978327632">
        <ele>501.39999999999998</ele>
        <time>2012-10-21T10:45:49Z</time>
      </trkpt>
      <trkpt lat="47.643425026908517" lon="14.756945036351681">
        <ele>501</ele>
        <time>2012-10-21T10:45:54Z</time>
      </trkpt>
      <trkpt lat="47.643478000536561" lon="14.756913017481565">
        <ele>500.60000000000002</ele>
        <time>2012-10-21T10:45:55Z</time>
      </trkpt>
      <trkpt lat="47.643528040498495" lon="14.756876975297928">
        <ele>500.19999999999999</ele>
        <time>2012-10-21T10:45:56Z</time>
      </trkpt>
      <trkpt lat="47.643581014126539" lon="14.756843028590083">
        <ele>499.80000000000001</ele>
        <time>2012-10-21T10:45:57Z</time>
      </trkpt>
      <trkpt lat="47.643634993582964" lon="14.756803968921304">
        <ele>499.39999999999998</ele>
        <time>2012-10-21T10:45:58Z</time>
      </trkpt>
      <trkpt lat="47.643878990784287" lon="14.756612023338675">
        <ele>499.39999999999998</ele>
        <time>2012-10-21T10:46:03Z</time>
      </trkpt>
      <trkpt lat="47.644329015165567" lon="14.756280016154051">
        <ele>499.39999999999998</ele>
        <time>2012-10-21T10:46:12Z</time>
      </trkpt>
      <trkpt lat="47.644713995978236" lon="14.755954965949059">
        <ele>499.39999999999998</ele>
        <time>2012-10-21T10:46:20Z</time>
      </trkpt>
      <trkpt lat="47.645020019263029" lon="14.75565698929131">
        <ele>499.39999999999998</ele>
        <time>2012-10-21T10:46:27Z</time>
      </trkpt>
      <trkpt lat="47.645297963172197" lon="14.755345014855266">
        <ele>499.39999999999998</ele>
        <time>2012-10-21T10:46:34Z</time>
      </trkpt>
      <trkpt lat="47.645607003942132" lon="14.754930026829243">
        <ele>499.39999999999998</ele>
        <time>2012-10-21T10:46:42Z</time>
      </trkpt>
      <trkpt lat="47.646027021110058" lon="14.754395009949803">
        <ele>499.39999999999998</ele>
        <time>2012-10-21T10:46:52Z</time>
      </trkpt>
      <trkpt lat="47.646072031930089" lon="14.754344969987869">
        <ele>499.39999999999998</ele>
        <time>2012-10-21T10:46:53Z</time>
      </trkpt>
      <trkpt lat="47.646473022177815" lon="14.753941968083382">
        <ele>499.39999999999998</ele>
        <time>2012-10-21T10:47:02Z</time>
      </trkpt>
      <trkpt lat="47.646763036027551" lon="14.753680033609271">
        <ele>499.39999999999998</ele>
        <time>2012-10-21T10:47:08Z</time>
      </trkpt>
      <trkpt lat="47.647133013233542" lon="14.753264039754868">
        <ele>499</ele>
        <time>2012-10-21T10:47:16Z</time>
      </trkpt>
      <trkpt lat="47.647179029881954" lon="14.753209976479411">
        <ele>498.60000000000002</ele>
        <time>2012-10-21T10:47:17Z</time>
      </trkpt>
      <trkpt lat="47.647224040701985" lon="14.753158008679748">
        <ele>497.80000000000001</ele>
        <time>2012-10-21T10:47:18Z</time>
      </trkpt>
      <trkpt lat="47.647273996844888" lon="14.753107968717813">
        <ele>497.39999999999998</ele>
        <time>2012-10-21T10:47:19Z</time>
      </trkpt>
      <trkpt lat="47.647616984322667" lon="14.752689963206649">
        <ele>497.39999999999998</ele>
        <time>2012-10-21T10:47:27Z</time>
      </trkpt>
      <trkpt lat="47.647887971252203" lon="14.752319986000657">
        <ele>497.39999999999998</ele>
        <time>2012-10-21T10:47:34Z</time>
      </trkpt>
      <trkpt lat="47.64820103533566" lon="14.751840960234404">
        <ele>497.39999999999998</ele>
        <time>2012-10-21T10:47:42Z</time>
      </trkpt>
      <trkpt lat="47.648433968424797" lon="14.751380039379001">
        <ele>497.39999999999998</ele>
        <time>2012-10-21T10:47:49Z</time>
      </trkpt>
      <trkpt lat="47.648457018658519" lon="14.751312984153628">
        <ele>497.39999999999998</ele>
        <time>2012-10-21T10:47:50Z</time>
      </trkpt>
      <trkpt lat="47.648532958701253" lon="14.751109974458814">
        <ele>497.39999999999998</ele>
        <time>2012-10-21T10:47:53Z</time>
      </trkpt>
      <trkpt lat="47.648593978956342" lon="14.750975025817752">
        <ele>497.39999999999998</ele>
        <time>2012-10-21T10:47:55Z</time>
      </trkpt>
      <trkpt lat="47.648807968944311" lon="14.750408995896578">
        <ele>497.39999999999998</ele>
        <time>2012-10-21T10:48:03Z</time>
      </trkpt>
      <trkpt lat="47.649036040529609" lon="14.749645991250873">
        <ele>497.39999999999998</ele>
        <time>2012-10-21T10:48:13Z</time>
      </trkpt>
      <trkpt lat="47.649054983630776" lon="14.749569967389107">
        <ele>497.39999999999998</ele>
        <time>2012-10-21T10:48:14Z</time>
      </trkpt>
      <trkpt lat="47.649220023304224" lon="14.74895398132503">
        <ele>497</ele>
        <time>2012-10-21T10:48:22Z</time>
      </trkpt>
      <trkpt lat="47.649241983890533" lon="14.748880974948406">
        <ele>496.60000000000002</ele>
        <time>2012-10-21T10:48:23Z</time>
      </trkpt>
      <trkpt lat="47.649261010810733" lon="14.748806962743402">
        <ele>496.19999999999999</ele>
        <time>2012-10-21T10:48:24Z</time>
      </trkpt>
      <trkpt lat="47.649280959740281" lon="14.748734040185809">
        <ele>495.80000000000001</ele>
        <time>2012-10-21T10:48:25Z</time>
      </trkpt>
      <trkpt lat="47.649303004145622" lon="14.748662039637566">
        <ele>495.39999999999998</ele>
        <time>2012-10-21T10:48:26Z</time>
      </trkpt>
      <trkpt lat="47.649395037442446" lon="14.748385017737746">
        <ele>495.39999999999998</ele>
        <time>2012-10-21T10:48:30Z</time>
      </trkpt>
      <trkpt lat="47.649422027170658" lon="14.748322991654277">
        <ele>495.39999999999998</ele>
        <time>2012-10-21T10:48:31Z</time>
      </trkpt>
      <trkpt lat="47.649567034095526" lon="14.748052004724741">
        <ele>495.39999999999998</ele>
        <time>2012-10-21T10:48:36Z</time>
      </trkpt>
      <trkpt lat="47.649807007983327" lon="14.74768403917551">
        <ele>495.39999999999998</ele>
        <time>2012-10-21T10:48:44Z</time>
      </trkpt>
      <trkpt lat="47.650066008791327" lon="14.74742503836751">
        <ele>495.39999999999998</ele>
        <time>2012-10-21T10:48:52Z</time>
      </trkpt>
      <trkpt lat="47.65022300183773" lon="14.747310960665345">
        <ele>495.80000000000001</ele>
        <time>2012-10-21T10:48:57Z</time>
      </trkpt>
      <trkpt lat="47.650253009051085" lon="14.747291011735797">
        <ele>496.19999999999999</ele>
        <time>2012-10-21T10:48:58Z</time>
      </trkpt>
      <trkpt lat="47.65028796158731" lon="14.747271984815598">
        <ele>496.80000000000001</ele>
        <time>2012-10-21T10:48:59Z</time>
      </trkpt>
      <trkpt lat="47.650317968800664" lon="14.747252035886049">
        <ele>497.19999999999999</ele>
        <time>2012-10-21T10:49:00Z</time>
      </trkpt>
      <trkpt lat="47.650344958528876" lon="14.747232003137469">
        <ele>497.60000000000002</ele>
        <time>2012-10-21T10:49:01Z</time>
      </trkpt>
      <trkpt lat="47.650531958788633" lon="14.747156985104084">
        <ele>497.60000000000002</ele>
        <time>2012-10-21T10:49:07Z</time>
      </trkpt>
      <trkpt lat="47.650787020102143" lon="14.747094037011266">
        <ele>498</ele>
        <time>2012-10-21T10:49:15Z</time>
      </trkpt>
      <trkpt lat="47.650821972638369" lon="14.747089007869363">
        <ele>498.39999999999998</ele>
        <time>2012-10-21T10:49:16Z</time>
      </trkpt>
      <trkpt lat="47.650851979851723" lon="14.747089007869363">
        <ele>498.80000000000001</ele>
        <time>2012-10-21T10:49:17Z</time>
      </trkpt>
      <trkpt lat="47.65088701620698" lon="14.747086996212602">
        <ele>499.19999999999999</ele>
        <time>2012-10-21T10:49:18Z</time>
      </trkpt>
      <trkpt lat="47.650920962914824" lon="14.747082972899079">
        <ele>499.60000000000002</ele>
        <time>2012-10-21T10:49:19Z</time>
      </trkpt>
      <trkpt lat="47.651089020073414" lon="14.747070986777544">
        <ele>499.60000000000002</ele>
        <time>2012-10-21T10:49:24Z</time>
      </trkpt>
      <trkpt lat="47.651306027546525" lon="14.747057994827628">
        <ele>499.60000000000002</ele>
        <time>2012-10-21T10:49:31Z</time>
      </trkpt>
      <trkpt lat="47.65133997425437" lon="14.747051037847996">
        <ele>500</ele>
        <time>2012-10-21T10:49:32Z</time>
      </trkpt>
      <trkpt lat="47.651370987296104" lon="14.747045002877712">
        <ele>500.39999999999998</ele>
        <time>2012-10-21T10:49:33Z</time>
      </trkpt>
      <trkpt lat="47.651405017822981" lon="14.747039973735809">
        <ele>500.80000000000001</ele>
        <time>2012-10-21T10:49:34Z</time>
      </trkpt>
      <trkpt lat="47.651436030864716" lon="14.747036034241319">
        <ele>501.19999999999999</ele>
        <time>2012-10-21T10:49:35Z</time>
      </trkpt>
      <trkpt lat="47.65146997757256" lon="14.747032010927796">
        <ele>501.60000000000002</ele>
        <time>2012-10-21T10:49:36Z</time>
      </trkpt>
      <trkpt lat="47.651568967849016" lon="14.747012984007597">
        <ele>501.60000000000002</ele>
        <time>2012-10-21T10:49:39Z</time>
      </trkpt>
      <trkpt lat="47.65181003138423" lon="14.746942995116115">
        <ele>501.60000000000002</ele>
        <time>2012-10-21T10:49:47Z</time>
      </trkpt>
      <trkpt lat="47.652035001665354" lon="14.746834030374885">
        <ele>501.60000000000002</ele>
        <time>2012-10-21T10:49:54Z</time>
      </trkpt>
      <trkpt lat="47.652267012745142" lon="14.746654992923141">
        <ele>501.60000000000002</ele>
        <time>2012-10-21T10:50:01Z</time>
      </trkpt>
      <trkpt lat="47.652461975812912" lon="14.746460029855371">
        <ele>501.60000000000002</ele>
        <time>2012-10-21T10:50:07Z</time>
      </trkpt>
      <trkpt lat="47.652720976620913" lon="14.746189964935184">
        <ele>501.60000000000002</ele>
        <time>2012-10-21T10:50:15Z</time>
      </trkpt>
      <trkpt lat="47.652828013524413" lon="14.746088040992618">
        <ele>502</ele>
        <time>2012-10-21T10:50:18Z</time>
      </trkpt>
      <trkpt lat="47.652862966060638" lon="14.74605199880898">
        <ele>502.39999999999998</ele>
        <time>2012-10-21T10:50:19Z</time>
      </trkpt>
      <trkpt lat="47.652901019901037" lon="14.746018974110484">
        <ele>502.80000000000001</ele>
        <time>2012-10-21T10:50:20Z</time>
      </trkpt>
      <trkpt lat="47.652938989922404" lon="14.745981004089117">
        <ele>503.19999999999999</ele>
        <time>2012-10-21T10:50:21Z</time>
      </trkpt>
      <trkpt lat="47.652973020449281" lon="14.745944961905479">
        <ele>503.60000000000002</ele>
        <time>2012-10-21T10:50:22Z</time>
      </trkpt>
      <trkpt lat="47.653118027374148" lon="14.745787968859076">
        <ele>503.60000000000002</ele>
        <time>2012-10-21T10:50:26Z</time>
      </trkpt>
      <trkpt lat="47.653244007378817" lon="14.745673974975944">
        <ele>503.60000000000002</ele>
        <time>2012-10-21T10:50:31Z</time>
      </trkpt>
      <trkpt lat="47.653263034299016" lon="14.745648996904492">
        <ele>503.60000000000002</ele>
        <time>2012-10-21T10:50:33Z</time>
      </trkpt>
      <trkpt lat="47.653266973793507" lon="14.745611026883125">
        <ele>503.60000000000002</ele>
        <time>2012-10-21T10:50:35Z</time>
      </trkpt>
      <trkpt lat="47.65333897434175" lon="14.745527040213346">
        <ele>503.60000000000002</ele>
        <time>2012-10-21T10:50:38Z</time>
      </trkpt>
      <trkpt lat="47.653365964069963" lon="14.745499966666102">
        <ele>503.60000000000002</ele>
        <time>2012-10-21T10:50:39Z</time>
      </trkpt>
      <trkpt lat="47.653618007898331" lon="14.74521498195827">
        <ele>503.60000000000002</ele>
        <time>2012-10-21T10:50:47Z</time>
      </trkpt>
      <trkpt lat="47.653670981526375" lon="14.745133006945252">
        <ele>503.60000000000002</ele>
        <time>2012-10-21T10:50:49Z</time>
      </trkpt>
      <trkpt lat="47.653839038684964" lon="14.744884986430407">
        <ele>503.60000000000002</ele>
        <time>2012-10-21T10:50:55Z</time>
      </trkpt>
      <trkpt lat="47.6539839617908" lon="14.74452598951757">
        <ele>503.60000000000002</ele>
        <time>2012-10-21T10:51:02Z</time>
      </trkpt>
      <trkpt lat="47.654007012024522" lon="14.744279980659485">
        <ele>503.60000000000002</ele>
        <time>2012-10-21T10:51:07Z</time>
      </trkpt>
      <trkpt lat="47.653888994827867" lon="14.744178978726268">
        <ele>503.60000000000002</ele>
        <time>2012-10-21T10:51:10Z</time>
      </trkpt>
      <trkpt lat="47.653778018429875" lon="14.743986027315259">
        <ele>503.60000000000002</ele>
        <time>2012-10-21T10:51:15Z</time>
      </trkpt>
      <trkpt lat="47.653820011764765" lon="14.743758961558342">
        <ele>503.60000000000002</ele>
        <time>2012-10-21T10:51:19Z</time>
      </trkpt>
      <trkpt lat="47.653839038684964" lon="14.743702970445156">
        <ele>503.60000000000002</ele>
        <time>2012-10-21T10:51:20Z</time>
      </trkpt>
      <trkpt lat="47.653956972062588" lon="14.743370963260531">
        <ele>503.60000000000002</ele>
        <time>2012-10-21T10:51:26Z</time>
      </trkpt>
      <trkpt lat="47.654056968167424" lon="14.743082039058208">
        <ele>503.60000000000002</ele>
        <time>2012-10-21T10:51:31Z</time>
      </trkpt>
      <trkpt lat="47.654090998694301" lon="14.742966033518314">
        <ele>503.60000000000002</ele>
        <time>2012-10-21T10:51:33Z</time>
      </trkpt>
      <trkpt lat="47.654231982305646" lon="14.74254903383553">
        <ele>503.60000000000002</ele>
        <time>2012-10-21T10:51:40Z</time>
      </trkpt>
      <trkpt lat="47.654400039464235" lon="14.742089034989476">
        <ele>503.60000000000002</ele>
        <time>2012-10-21T10:51:48Z</time>
      </trkpt>
      <trkpt lat="47.654572036117315" lon="14.741572039201856">
        <ele>503.60000000000002</ele>
        <time>2012-10-21T10:51:57Z</time>
      </trkpt>
      <trkpt lat="47.654689969494939" lon="14.74121899344027">
        <ele>503.60000000000002</ele>
        <time>2012-10-21T10:52:04Z</time>
      </trkpt>
      <trkpt lat="47.654708996415138" lon="14.741200972348452">
        <ele>503.60000000000002</ele>
        <time>2012-10-21T10:52:05Z</time>
      </trkpt>
      <trkpt lat="47.65477797947824" lon="14.741193009540439">
        <ele>503.60000000000002</ele>
        <time>2012-10-21T10:52:08Z</time>
      </trkpt>
      <trkpt lat="47.654952993616462" lon="14.741250006482005">
        <ele>503.60000000000002</ele>
        <time>2012-10-21T10:52:13Z</time>
      </trkpt>
      <trkpt lat="47.655045026913285" lon="14.741241037845612">
        <ele>503.60000000000002</ele>
        <time>2012-10-21T10:52:16Z</time>
      </trkpt>
      <trkpt lat="47.655060030519962" lon="14.741208013147116">
        <ele>503.60000000000002</ele>
        <time>2012-10-21T10:52:17Z</time>
      </trkpt>
      <trkpt lat="47.655150974169374" lon="14.740910958498716">
        <ele>503.60000000000002</ele>
        <time>2012-10-21T10:52:23Z</time>
      </trkpt>
      <trkpt lat="47.655234960839152" lon="14.740484990179539">
        <ele>503.60000000000002</ele>
        <time>2012-10-21T10:52:31Z</time>
      </trkpt>
      <trkpt lat="47.655307967215776" lon="14.740230012685061">
        <ele>503.60000000000002</ele>
        <time>2012-10-21T10:52:37Z</time>
      </trkpt>
      <trkpt lat="47.655398994684219" lon="14.739933041855693">
        <ele>503.60000000000002</ele>
        <time>2012-10-21T10:52:46Z</time>
      </trkpt>
      <trkpt lat="47.655403017997742" lon="14.739923989400268">
        <ele>503.19999999999999</ele>
        <time>2012-10-21T10:52:50Z</time>
      </trkpt>
      <trkpt lat="47.655403017997742" lon="14.739923989400268">
        <ele>502.80000000000001</ele>
        <time>2012-10-21T10:52:51Z</time>
      </trkpt>
      <trkpt lat="47.655403017997742" lon="14.739923989400268">
        <ele>502.39999999999998</ele>
        <time>2012-10-21T10:52:52Z</time>
      </trkpt>
      <trkpt lat="47.655403017997742" lon="14.739923989400268">
        <ele>502</ele>
        <time>2012-10-21T10:52:53Z</time>
      </trkpt>
      <trkpt lat="47.655403017997742" lon="14.739923989400268">
        <ele>501.60000000000002</ele>
        <time>2012-10-21T10:52:54Z</time>
      </trkpt>
      <trkpt lat="47.655403017997742" lon="14.739923989400268">
        <ele>502.19999999999999</ele>
        <time>2012-10-21T10:53:01Z</time>
      </trkpt>
      <trkpt lat="47.655403017997742" lon="14.739923989400268">
        <ele>502.19999999999999</ele>
        <time>2012-10-21T10:53:02Z</time>
      </trkpt>
      <trkpt lat="47.655403017997742" lon="14.739923989400268">
        <ele>502</ele>
        <time>2012-10-21T10:53:03Z</time>
      </trkpt>
      <trkpt lat="47.655403017997742" lon="14.739923989400268">
        <ele>502.39999999999998</ele>
        <time>2012-10-21T10:53:04Z</time>
      </trkpt>
      <trkpt lat="47.655403017997742" lon="14.739923989400268">
        <ele>502.39999999999998</ele>
        <time>2012-10-21T10:53:05Z</time>
      </trkpt>
      <trkpt lat="47.655403017997742" lon="14.739923989400268">
        <ele>502.19999999999999</ele>
        <time>2012-10-21T10:53:06Z</time>
      </trkpt>
      <trkpt lat="47.655403017997742" lon="14.739923989400268">
        <ele>502.19999999999999</ele>
        <time>2012-10-21T10:53:07Z</time>
      </trkpt>
      <trkpt lat="47.655403017997742" lon="14.739923989400268">
        <ele>502.80000000000001</ele>
        <time>2012-10-21T10:53:08Z</time>
      </trkpt>
      <trkpt lat="47.655403017997742" lon="14.739923989400268">
        <ele>503.39999999999998</ele>
        <time>2012-10-21T10:53:09Z</time>
      </trkpt>
      <trkpt lat="47.655403017997742" lon="14.739923989400268">
        <ele>503.19999999999999</ele>
        <time>2012-10-21T10:53:10Z</time>
      </trkpt>
      <trkpt lat="47.655403017997742" lon="14.739923989400268">
        <ele>503.19999999999999</ele>
        <time>2012-10-21T10:53:11Z</time>
      </trkpt>
      <trkpt lat="47.655403017997742" lon="14.73992801271379">
        <ele>503</ele>
        <time>2012-10-21T10:53:12Z</time>
      </trkpt>
      <trkpt lat="47.655403017997742" lon="14.739932036027312">
        <ele>503</ele>
        <time>2012-10-21T10:53:13Z</time>
      </trkpt>
      <trkpt lat="47.655407041311264" lon="14.739938993006945">
        <ele>502.80000000000001</ele>
        <time>2012-10-21T10:53:14Z</time>
      </trkpt>
      <trkpt lat="47.655410980805755" lon="14.739969000220299">
        <ele>502.80000000000001</ele>
        <time>2012-10-21T10:53:25Z</time>
      </trkpt>
      <trkpt lat="47.655418021604419" lon="14.739958019927144">
        <ele>503.39999999999998</ele>
        <time>2012-10-21T10:53:33Z</time>
      </trkpt>
      <trkpt lat="47.655415004119277" lon="14.739939998835325">
        <ele>504</ele>
        <time>2012-10-21T10:53:34Z</time>
      </trkpt>
      <trkpt lat="47.655410980805755" lon="14.739918038249016">
        <ele>504.60000000000002</ele>
        <time>2012-10-21T10:53:35Z</time>
      </trkpt>
      <trkpt lat="47.655410980805755" lon="14.739894988015294">
        <ele>504</ele>
        <time>2012-10-21T10:53:36Z</time>
      </trkpt>
      <trkpt lat="47.656208015978336" lon="14.736696034669876">
        <ele>511.69</ele>
        <time>1970-01-01T00:00:00Z</time>
      </trkpt>
      <trkpt lat="47.656663991510868" lon="14.734581029042602">
        <ele>512.92999999999995</ele>
        <time>1970-01-01T00:00:00Z</time>
      </trkpt>
      <trkpt lat="47.656842023134232" lon="14.733564974740148">
        <ele>512</ele>
        <time>1970-01-01T00:00:00Z</time>
      </trkpt>
      <trkpt lat="47.658162005245686" lon="14.73135600797832">
        <ele>518.04999999999995</ele>
        <time>1970-01-01T00:00:00Z</time>
      </trkpt>
      <trkpt lat="47.658703979104757" lon="14.730050023645163">
        <ele>518.34000000000003</ele>
        <time>1970-01-01T00:00:00Z</time>
      </trkpt>
      <trkpt lat="47.659741993993521" lon="14.729646015912294">
        <ele>517.83000000000004</ele>
        <time>1970-01-01T00:00:00Z</time>
      </trkpt>
      <trkpt lat="47.659904016181827" lon="14.728958029299974">
        <ele>515.25</ele>
        <time>1970-01-01T00:00:00Z</time>
      </trkpt>
      <trkpt lat="47.660313975065947" lon="14.72839099355042">
        <ele>516.96000000000004</ele>
        <time>1970-01-01T00:00:00Z</time>
      </trkpt>
      <trkpt lat="47.661446034908295" lon="14.728656029328704">
        <ele>517.30999999999995</ele>
        <time>1970-01-01T00:00:00Z</time>
      </trkpt>
      <trkpt lat="47.661963030695915" lon="14.729749029502273">
        <ele>498.20999999999998</ele>
        <time>1970-01-01T00:00:00Z</time>
      </trkpt>
      <trkpt lat="47.662915969267488" lon="14.730417989194393">
        <ele>493.42000000000002</ele>
        <time>1970-01-01T00:00:00Z</time>
      </trkpt>
      <trkpt lat="47.663158038631082" lon="14.73129297606647">
        <ele>478</ele>
        <time>1970-01-01T00:00:00Z</time>
      </trkpt>
      <trkpt lat="47.664754036813974" lon="14.731185017153621">
        <ele>470.94</ele>
        <time>1970-01-01T00:00:00Z</time>
      </trkpt>
      <trkpt lat="47.665372034534812" lon="14.729651967063546">
        <ele>498.31999999999999</ele>
        <time>1970-01-01T00:00:00Z</time>
      </trkpt>
      <trkpt lat="47.665962958708405" lon="14.728633984923363">
        <ele>497.75</ele>
        <time>1970-01-01T00:00:00Z</time>
      </trkpt>
      <trkpt lat="47.665081014856696" lon="14.724016981199384">
        <ele>507.51999999999998</ele>
        <time>1970-01-01T00:00:00Z</time>
      </trkpt>
      <trkpt lat="47.665327023714781" lon="14.720372026786208">
        <ele>497.58999999999997</ele>
        <time>1970-01-01T00:00:00Z</time>
      </trkpt>
      <trkpt lat="47.665954995900393" lon="14.716721037402749">
        <ele>484.81</ele>
        <time>1970-01-01T00:00:00Z</time>
      </trkpt>
      <trkpt lat="47.665672022849321" lon="14.713487969711423">
        <ele>462.74000000000001</ele>
        <time>1970-01-01T00:00:00Z</time>
      </trkpt>
      <trkpt lat="47.665421990677714" lon="14.711483018472791">
        <ele>461.38</ele>
        <time>1970-01-01T00:00:00Z</time>
      </trkpt>
      <trkpt lat="47.664937013760209" lon="14.711006004363298">
        <ele>462.79000000000002</ele>
        <time>1970-01-01T00:00:00Z</time>
      </trkpt>
      <trkpt lat="47.663339003920555" lon="14.71116098575294">
        <ele>464.32999999999998</ele>
        <time>1970-01-01T00:00:00Z</time>
      </trkpt>
      <trkpt lat="47.660938007757068" lon="14.710158007219434">
        <ele>486.69</ele>
        <time>1970-01-01T00:00:00Z</time>
      </trkpt>
      <trkpt lat="47.660242980346084" lon="14.709422998130322">
        <ele>488.19</ele>
        <time>1970-01-01T00:00:00Z</time>
      </trkpt>
      <trkpt lat="47.65866600908339" lon="14.709156034514308">
        <ele>491.92000000000002</ele>
        <time>1970-01-01T00:00:00Z</time>
      </trkpt>
      <trkpt lat="47.65772002749145" lon="14.71027703024447">
        <ele>502.45999999999998</ele>
        <time>1970-01-01T00:00:00Z</time>
      </trkpt>
      <trkpt lat="47.655994025990367" lon="14.709805967286229">
        <ele>512.11000000000001</ele>
        <time>1970-01-01T00:00:00Z</time>
      </trkpt>
      <trkpt lat="47.655249964445829" lon="14.708783039823174">
        <ele>504.48000000000002</ele>
        <time>1970-01-01T00:00:00Z</time>
      </trkpt>
      <trkpt lat="47.654482014477253" lon="14.708227990195155">
        <ele>519.92999999999995</ele>
        <time>1970-01-01T00:00:00Z</time>
      </trkpt>
      <trkpt lat="47.654227036982775" lon="14.706975985318422">
        <ele>524.07000000000005</ele>
        <time>1970-01-01T00:00:00Z</time>
      </trkpt>
      <trkpt lat="47.653016019612551" lon="14.70510195940733">
        <ele>528.88999999999999</ele>
        <time>1970-01-01T00:00:00Z</time>
      </trkpt>
      <trkpt lat="47.652829019352794" lon="14.705033982172608">
        <ele>531.88999999999999</ele>
        <time>1970-01-01T00:00:00Z</time>
      </trkpt>
      <trkpt lat="47.652266006916761" lon="14.704831978306174">
        <ele>534.77999999999997</ele>
        <time>1970-01-01T00:00:00Z</time>
      </trkpt>
      <trkpt lat="47.651793016120791" lon="14.704121025279164">
        <ele>539.75999999999999</ele>
        <time>1970-01-01T00:00:00Z</time>
      </trkpt>
      <trkpt lat="47.651836015284061" lon="14.701348040252924">
        <ele>541.79999999999995</ele>
        <time>1970-01-01T00:00:00Z</time>
      </trkpt>
      <trkpt lat="47.65136101283133" lon="14.700025962665677">
        <ele>545.94000000000005</ele>
        <time>1970-01-01T00:00:00Z</time>
      </trkpt>
      <trkpt lat="47.650934038683772" lon="14.698379002511501">
        <ele>540.00999999999999</ele>
        <time>1970-01-01T00:00:00Z</time>
      </trkpt>
      <trkpt lat="47.650905037298799" lon="14.697057008743286">
        <ele>557.75</ele>
        <time>1970-01-01T00:00:00Z</time>
      </trkpt>
      <trkpt lat="47.650920040905476" lon="14.696117984130979">
        <ele>556.39999999999998</ele>
        <time>1970-01-01T00:00:00Z</time>
      </trkpt>
      <trkpt lat="47.650991035625339" lon="14.695324972271919">
        <ele>561.83000000000004</ele>
        <time>1970-01-01T00:00:00Z</time>
      </trkpt>
      <trkpt lat="47.651437958702445" lon="14.694009013473988">
        <ele>566</ele>
        <time>1970-01-01T00:00:00Z</time>
      </trkpt>
      <trkpt lat="47.65168103389442" lon="14.692952977493405">
        <ele>564.22000000000003</ele>
        <time>1970-01-01T00:00:00Z</time>
      </trkpt>
      <trkpt lat="47.651904998347163" lon="14.691658979281783">
        <ele>561.41999999999996</ele>
        <time>1970-01-01T00:00:00Z</time>
      </trkpt>
      <trkpt lat="47.652019998058677" lon="14.68997698277235">
        <ele>562.17999999999995</ele>
        <time>1970-01-01T00:00:00Z</time>
      </trkpt>
      <trkpt lat="47.6524349860847" lon="14.688045037910342">
        <ele>561.88999999999999</ele>
        <time>1970-01-01T00:00:00Z</time>
      </trkpt>
      <trkpt lat="47.652954999357462" lon="14.684618012979627">
        <ele>576.47000000000003</ele>
        <time>1970-01-01T00:00:00Z</time>
      </trkpt>
      <trkpt lat="47.652938989922404" lon="14.682686990126967">
        <ele>566</ele>
        <time>2012-10-21T11:29:26Z</time>
      </trkpt>
      <trkpt lat="47.652946030721068" lon="14.682652037590742">
        <ele>566.39999999999998</ele>
        <time>2012-10-21T11:29:27Z</time>
      </trkpt>
      <trkpt lat="47.652949970215559" lon="14.682621024549007">
        <ele>566.79999999999995</ele>
        <time>2012-10-21T11:29:28Z</time>
      </trkpt>
      <trkpt lat="47.652953993529081" lon="14.68258598819375">
        <ele>567.20000000000005</ele>
        <time>2012-10-21T11:29:29Z</time>
      </trkpt>
      <trkpt lat="47.652973020449281" lon="14.682409968227148">
        <ele>567.20000000000005</ele>
        <time>2012-10-21T11:29:34Z</time>
      </trkpt>
      <trkpt lat="47.653010990470648" lon="14.682150967419147">
        <ele>567.20000000000005</ele>
        <time>2012-10-21T11:29:42Z</time>
      </trkpt>
      <trkpt lat="47.65301501378417" lon="14.682087013497949">
        <ele>567.60000000000002</ele>
        <time>2012-10-21T11:29:44Z</time>
      </trkpt>
      <trkpt lat="47.653022976592183" lon="14.682054994627833">
        <ele>568</ele>
        <time>2012-10-21T11:29:45Z</time>
      </trkpt>
      <trkpt lat="47.653026999905705" lon="14.682024987414479">
        <ele>568.39999999999998</ele>
        <time>2012-10-21T11:29:46Z</time>
      </trkpt>
      <trkpt lat="47.65303404070437" lon="14.681991962715983">
        <ele>568.79999999999995</ele>
        <time>2012-10-21T11:29:47Z</time>
      </trkpt>
      <trkpt lat="47.65303798019886" lon="14.681959021836519">
        <ele>569.20000000000005</ele>
        <time>2012-10-21T11:29:48Z</time>
      </trkpt>
      <trkpt lat="47.653076034039259" lon="14.681732039898634">
        <ele>569.20000000000005</ele>
        <time>2012-10-21T11:29:55Z</time>
      </trkpt>
      <trkpt lat="47.653103023767471" lon="14.681458035483956">
        <ele>569.20000000000005</ele>
        <time>2012-10-21T11:30:03Z</time>
      </trkpt>
      <trkpt lat="47.653121966868639" lon="14.681321997195482">
        <ele>569.60000000000002</ele>
        <time>2012-10-21T11:30:07Z</time>
      </trkpt>
      <trkpt lat="47.653125990182161" lon="14.681287966668606">
        <ele>570</ele>
        <time>2012-10-21T11:30:08Z</time>
      </trkpt>
      <trkpt lat="47.653130013495684" lon="14.681255025789142">
        <ele>570.39999999999998</ele>
        <time>2012-10-21T11:30:09Z</time>
      </trkpt>
      <trkpt lat="47.653136970475316" lon="14.681220995262265">
        <ele>570.79999999999995</ele>
        <time>2012-10-21T11:30:10Z</time>
      </trkpt>
      <trkpt lat="47.653140993788838" lon="14.68118897639215">
        <ele>571.20000000000005</ele>
        <time>2012-10-21T11:30:11Z</time>
      </trkpt>
      <trkpt lat="47.653151974081993" lon="14.681128039956093">
        <ele>571.20000000000005</ele>
        <time>2012-10-21T11:30:13Z</time>
      </trkpt>
      <trkpt lat="47.653182987123728" lon="14.680898040533066">
        <ele>571.20000000000005</ele>
        <time>2012-10-21T11:30:20Z</time>
      </trkpt>
      <trkpt lat="47.653217017650604" lon="14.680667035281658">
        <ele>571.60000000000002</ele>
        <time>2012-10-21T11:30:27Z</time>
      </trkpt>
      <trkpt lat="47.653221040964127" lon="14.680635016411543">
        <ele>572.20000000000005</ele>
        <time>2012-10-21T11:30:28Z</time>
      </trkpt>
      <trkpt lat="47.653224980458617" lon="14.680599980056286">
        <ele>572.60000000000002</ele>
        <time>2012-10-21T11:30:29Z</time>
      </trkpt>
      <trkpt lat="47.65322900377214" lon="14.680566033348441">
        <ele>573.39999999999998</ele>
        <time>2012-10-21T11:30:30Z</time>
      </trkpt>
      <trkpt lat="47.653270997107029" lon="14.680343996733427">
        <ele>573.39999999999998</ele>
        <time>2012-10-21T11:30:37Z</time>
      </trkpt>
      <trkpt lat="47.653305027633905" lon="14.68007099814713">
        <ele>573.79999999999995</ele>
        <time>2012-10-21T11:30:45Z</time>
      </trkpt>
      <trkpt lat="47.653308967128396" lon="14.680036967620254">
        <ele>574.20000000000005</ele>
        <time>2012-10-21T11:30:46Z</time>
      </trkpt>
      <trkpt lat="47.653312990441918" lon="14.68000796623528">
        <ele>574.60000000000002</ele>
        <time>2012-10-21T11:30:47Z</time>
      </trkpt>
      <trkpt lat="47.65331600792706" lon="14.679975025355816">
        <ele>575</ele>
        <time>2012-10-21T11:30:48Z</time>
      </trkpt>
      <trkpt lat="47.653320031240582" lon="14.67994200065732">
        <ele>575.39999999999998</ele>
        <time>2012-10-21T11:30:49Z</time>
      </trkpt>
      <trkpt lat="47.653323970735073" lon="14.679806968197227">
        <ele>575.39999999999998</ele>
        <time>2012-10-21T11:30:53Z</time>
      </trkpt>
      <trkpt lat="47.65333604067564" lon="14.679648969322443">
        <ele>575.79999999999995</ele>
        <time>2012-10-21T11:30:58Z</time>
      </trkpt>
      <trkpt lat="47.65333897434175" lon="14.679619967937469">
        <ele>576.20000000000005</ele>
        <time>2012-10-21T11:30:59Z</time>
      </trkpt>
      <trkpt lat="47.65333897434175" lon="14.679597001522779">
        <ele>576.60000000000002</ele>
        <time>2012-10-21T11:31:00Z</time>
      </trkpt>
      <trkpt lat="47.65333604067564" lon="14.679563976824284">
        <ele>577</ele>
        <time>2012-10-21T11:31:01Z</time>
      </trkpt>
      <trkpt lat="47.65333604067564" lon="14.6795320417732">
        <ele>577.39999999999998</ele>
        <time>2012-10-21T11:31:02Z</time>
      </trkpt>
      <trkpt lat="47.653342997655272" lon="14.679348981007934">
        <ele>577.39999999999998</ele>
        <time>2012-10-21T11:31:08Z</time>
      </trkpt>
      <trkpt lat="47.65333897434175" lon="14.679140020161867">
        <ele>577.79999999999995</ele>
        <time>2012-10-21T11:31:15Z</time>
      </trkpt>
      <trkpt lat="47.65333604067564" lon="14.679114036262035">
        <ele>578.20000000000005</ele>
        <time>2012-10-21T11:31:16Z</time>
      </trkpt>
      <trkpt lat="47.65333604067564" lon="14.679086962714791">
        <ele>578.60000000000002</ele>
        <time>2012-10-21T11:31:17Z</time>
      </trkpt>
      <trkpt lat="47.653332017362118" lon="14.679056033492088">
        <ele>579</ele>
        <time>2012-10-21T11:31:18Z</time>
      </trkpt>
      <trkpt lat="47.653327994048595" lon="14.679028959944844">
        <ele>579.39999999999998</ele>
        <time>2012-10-21T11:31:19Z</time>
      </trkpt>
      <trkpt lat="47.653296981006861" lon="14.678870039060712">
        <ele>579.39999999999998</ele>
        <time>2012-10-21T11:31:24Z</time>
      </trkpt>
      <trkpt lat="47.653259010985494" lon="14.678677003830671">
        <ele>579.79999999999995</ele>
        <time>2012-10-21T11:31:31Z</time>
      </trkpt>
      <trkpt lat="47.653248030692339" lon="14.678649008274078">
        <ele>580.20000000000005</ele>
        <time>2012-10-21T11:31:32Z</time>
      </trkpt>
      <trkpt lat="47.653244007378817" lon="14.678622018545866">
        <ele>580.60000000000002</ele>
        <time>2012-10-21T11:31:33Z</time>
      </trkpt>
      <trkpt lat="47.653239984065294" lon="14.678595028817654">
        <ele>581</ele>
        <time>2012-10-21T11:31:34Z</time>
      </trkpt>
      <trkpt lat="47.653233027085662" lon="14.678569966927171">
        <ele>581.39999999999998</ele>
        <time>2012-10-21T11:31:35Z</time>
      </trkpt>
      <trkpt lat="47.653191033750772" lon="14.67839696444571">
        <ele>581.39999999999998</ele>
        <time>2012-10-21T11:31:42Z</time>
      </trkpt>
      <trkpt lat="47.653133030980825" lon="14.678182974457741">
        <ele>581.39999999999998</ele>
        <time>2012-10-21T11:31:49Z</time>
      </trkpt>
      <trkpt lat="47.653121966868639" lon="14.678156990557909">
        <ele>582</ele>
        <time>2012-10-21T11:31:50Z</time>
      </trkpt>
      <trkpt lat="47.653114004060626" lon="14.678131006658077">
        <ele>582.39999999999998</ele>
        <time>2012-10-21T11:31:51Z</time>
      </trkpt>
      <trkpt lat="47.653103023767471" lon="14.678108040243387">
        <ele>582.79999999999995</ele>
        <time>2012-10-21T11:31:52Z</time>
      </trkpt>
      <trkpt lat="47.653094977140427" lon="14.678079960867763">
        <ele>583.20000000000005</ele>
        <time>2012-10-21T11:31:53Z</time>
      </trkpt>
      <trkpt lat="47.653088020160794" lon="14.678048025816679">
        <ele>583.60000000000002</ele>
        <time>2012-10-21T11:31:54Z</time>
      </trkpt>
      <trkpt lat="47.653068993240595" lon="14.67796303331852">
        <ele>583.60000000000002</ele>
        <time>2012-10-21T11:31:57Z</time>
      </trkpt>
      <trkpt lat="47.653026999905705" lon="14.677761029452085">
        <ele>583.60000000000002</ele>
        <time>2012-10-21T11:32:04Z</time>
      </trkpt>
      <trkpt lat="47.653000010177493" lon="14.67764301225543">
        <ele>584</ele>
        <time>2012-10-21T11:32:08Z</time>
      </trkpt>
      <trkpt lat="47.652995986863971" lon="14.677607975900173">
        <ele>584.39999999999998</ele>
        <time>2012-10-21T11:32:09Z</time>
      </trkpt>
      <trkpt lat="47.652991963550448" lon="14.677571011707187">
        <ele>584.79999999999995</ele>
        <time>2012-10-21T11:32:10Z</time>
      </trkpt>
      <trkpt lat="47.652988024055958" lon="14.677542010322213">
        <ele>585.20000000000005</ele>
        <time>2012-10-21T11:32:11Z</time>
      </trkpt>
      <trkpt lat="47.652980983257294" lon="14.677504962310195">
        <ele>585.60000000000002</ele>
        <time>2012-10-21T11:32:12Z</time>
      </trkpt>
      <trkpt lat="47.652946030721068" lon="14.677386023104191">
        <ele>585.60000000000002</ele>
        <time>2012-10-21T11:32:16Z</time>
      </trkpt>
      <trkpt lat="47.652927003800869" lon="14.677189970389009">
        <ele>585.60000000000002</ele>
        <time>2012-10-21T11:32:22Z</time>
      </trkpt>
      <trkpt lat="47.65288501046598" lon="14.676970029249787">
        <ele>586</ele>
        <time>2012-10-21T11:32:29Z</time>
      </trkpt>
      <trkpt lat="47.65288501046598" lon="14.676938010379672">
        <ele>586.60000000000002</ele>
        <time>2012-10-21T11:32:30Z</time>
      </trkpt>
      <trkpt lat="47.652881992980838" lon="14.676910014823079">
        <ele>587</ele>
        <time>2012-10-21T11:32:31Z</time>
      </trkpt>
      <trkpt lat="47.652881992980838" lon="14.676879001781344">
        <ele>587.79999999999995</ele>
        <time>2012-10-21T11:32:32Z</time>
      </trkpt>
      <trkpt lat="47.652859026566148" lon="14.676727959886193">
        <ele>587.79999999999995</ele>
        <time>2012-10-21T11:32:37Z</time>
      </trkpt>
      <trkpt lat="47.652839999645948" lon="14.676499972119927">
        <ele>587.79999999999995</ele>
        <time>2012-10-21T11:32:44Z</time>
      </trkpt>
      <trkpt lat="47.652813009917736" lon="14.676187997683883">
        <ele>587.79999999999995</ele>
        <time>2012-10-21T11:32:53Z</time>
      </trkpt>
      <trkpt lat="47.652808986604214" lon="14.676040979102254">
        <ele>588.60000000000002</ele>
        <time>2012-10-21T11:32:57Z</time>
      </trkpt>
      <trkpt lat="47.652804963290691" lon="14.676003009080887">
        <ele>589</ele>
        <time>2012-10-21T11:32:58Z</time>
      </trkpt>
      <trkpt lat="47.652804963290691" lon="14.67596897855401">
        <ele>589.39999999999998</ele>
        <time>2012-10-21T11:32:59Z</time>
      </trkpt>
      <trkpt lat="47.652808986604214" lon="14.675931008532643">
        <ele>589.79999999999995</ele>
        <time>2012-10-21T11:33:00Z</time>
      </trkpt>
      <trkpt lat="47.652808986604214" lon="14.675895972177386">
        <ele>589.79999999999995</ele>
        <time>2012-10-21T11:33:01Z</time>
      </trkpt>
      <trkpt lat="47.652813009917736" lon="14.67564401216805">
        <ele>589.79999999999995</ele>
        <time>2012-10-21T11:33:08Z</time>
      </trkpt>
      <trkpt lat="47.652820972725749" lon="14.675382999703288">
        <ele>589.79999999999995</ele>
        <time>2012-10-21T11:33:15Z</time>
      </trkpt>
      <trkpt lat="47.652835976332426" lon="14.675088040530682">
        <ele>589.79999999999995</ele>
        <time>2012-10-21T11:33:23Z</time>
      </trkpt>
      <trkpt lat="47.652847040444613" lon="14.6748729608953">
        <ele>589.79999999999995</ele>
        <time>2012-10-21T11:33:29Z</time>
      </trkpt>
      <trkpt lat="47.652859026566148" lon="14.674642961472273">
        <ele>590.20000000000005</ele>
        <time>2012-10-21T11:33:35Z</time>
      </trkpt>
      <trkpt lat="47.65286598354578" lon="14.674603985622525">
        <ele>590.60000000000002</ele>
        <time>2012-10-21T11:33:36Z</time>
      </trkpt>
      <trkpt lat="47.652870006859303" lon="14.67457003891468">
        <ele>591</ele>
        <time>2012-10-21T11:33:37Z</time>
      </trkpt>
      <trkpt lat="47.652870006859303" lon="14.67452703975141">
        <ele>591.39999999999998</ele>
        <time>2012-10-21T11:33:38Z</time>
      </trkpt>
      <trkpt lat="47.65286598354578" lon="14.67448596842587">
        <ele>591.79999999999995</ele>
        <time>2012-10-21T11:33:39Z</time>
      </trkpt>
      <trkpt lat="47.652881992980838" lon="14.674372980371118">
        <ele>591.79999999999995</ele>
        <time>2012-10-21T11:33:42Z</time>
      </trkpt>
      <trkpt lat="47.652901019901037" lon="14.674084978178144">
        <ele>591.79999999999995</ele>
        <time>2012-10-21T11:33:49Z</time>
      </trkpt>
      <trkpt lat="47.652931027114391" lon="14.673753976821899">
        <ele>591.79999999999995</ele>
        <time>2012-10-21T11:33:57Z</time>
      </trkpt>
      <trkpt lat="47.652968997135758" lon="14.673508973792195">
        <ele>591.79999999999995</ele>
        <time>2012-10-21T11:34:03Z</time>
      </trkpt>
      <trkpt lat="47.653019037097692" lon="14.673203034326434">
        <ele>592.60000000000002</ele>
        <time>2012-10-21T11:34:11Z</time>
      </trkpt>
      <trkpt lat="47.653022976592183" lon="14.673163974657655">
        <ele>593</ele>
        <time>2012-10-21T11:34:12Z</time>
      </trkpt>
      <trkpt lat="47.65303404070437" lon="14.673127010464668">
        <ele>593.39999999999998</ele>
        <time>2012-10-21T11:34:13Z</time>
      </trkpt>
      <trkpt lat="47.653042003512383" lon="14.673089040443301">
        <ele>593.79999999999995</ele>
        <time>2012-10-21T11:34:14Z</time>
      </trkpt>
      <trkpt lat="47.653068993240595" lon="14.67293799854815">
        <ele>593.79999999999995</ele>
        <time>2012-10-21T11:34:18Z</time>
      </trkpt>
      <trkpt lat="47.653121966868639" lon="14.672734988853335">
        <ele>593.79999999999995</ele>
        <time>2012-10-21T11:34:24Z</time>
      </trkpt>
      <trkpt lat="47.653191033750772" lon="14.672402981668711">
        <ele>593.79999999999995</ele>
        <time>2012-10-21T11:34:33Z</time>
      </trkpt>
      <trkpt lat="47.653197990730405" lon="14.672331986948848">
        <ele>594.20000000000005</ele>
        <time>2012-10-21T11:34:35Z</time>
      </trkpt>
      <trkpt lat="47.653202014043927" lon="14.6722930110991">
        <ele>595</ele>
        <time>2012-10-21T11:34:36Z</time>
      </trkpt>
      <trkpt lat="47.65320997685194" lon="14.672255041077733">
        <ele>595.39999999999998</ele>
        <time>2012-10-21T11:34:37Z</time>
      </trkpt>
      <trkpt lat="47.653217017650604" lon="14.672214975580573">
        <ele>596</ele>
        <time>2012-10-21T11:34:38Z</time>
      </trkpt>
      <trkpt lat="47.653244007378817" lon="14.672028981149197">
        <ele>596</ele>
        <time>2012-10-21T11:34:43Z</time>
      </trkpt>
      <trkpt lat="47.653266973793507" lon="14.671811973676085">
        <ele>596</ele>
        <time>2012-10-21T11:34:49Z</time>
      </trkpt>
      <trkpt lat="47.653290024027228" lon="14.671609969809651">
        <ele>596.39999999999998</ele>
        <time>2012-10-21T11:34:55Z</time>
      </trkpt>
      <trkpt lat="47.653286000713706" lon="14.671571999788284">
        <ele>596.79999999999995</ele>
        <time>2012-10-21T11:34:56Z</time>
      </trkpt>
      <trkpt lat="47.653293963521719" lon="14.671535035595298">
        <ele>597.20000000000005</ele>
        <time>2012-10-21T11:34:57Z</time>
      </trkpt>
      <trkpt lat="47.653301004320383" lon="14.671494970098138">
        <ele>597.60000000000002</ele>
        <time>2012-10-21T11:34:58Z</time>
      </trkpt>
      <trkpt lat="47.653301004320383" lon="14.671458005905151">
        <ele>598</ele>
        <time>2012-10-21T11:34:59Z</time>
      </trkpt>
      <trkpt lat="47.653308967128396" lon="14.67134996317327">
        <ele>598</ele>
        <time>2012-10-21T11:35:02Z</time>
      </trkpt>
      <trkpt lat="47.653362024575472" lon="14.671109989285469">
        <ele>598</ele>
        <time>2012-10-21T11:35:09Z</time>
      </trkpt>
      <trkpt lat="47.653404017910361" lon="14.670913014560938">
        <ele>598.39999999999998</ele>
        <time>2012-10-21T11:35:15Z</time>
      </trkpt>
      <trkpt lat="47.653408041223884" lon="14.670879989862442">
        <ele>598.79999999999995</ele>
        <time>2012-10-21T11:35:16Z</time>
      </trkpt>
      <trkpt lat="47.653411980718374" lon="14.670846965163946">
        <ele>599.20000000000005</ele>
        <time>2012-10-21T11:35:17Z</time>
      </trkpt>
      <trkpt lat="47.653411980718374" lon="14.670815030112863">
        <ele>599.60000000000002</ele>
        <time>2012-10-21T11:35:18Z</time>
      </trkpt>
      <trkpt lat="47.653416004031897" lon="14.670776976272464">
        <ele>600</ele>
        <time>2012-10-21T11:35:19Z</time>
      </trkpt>
      <trkpt lat="47.653446011245251" lon="14.670578995719552">
        <ele>600</ele>
        <time>2012-10-21T11:35:25Z</time>
      </trkpt>
      <trkpt lat="47.65351097099483" lon="14.670362994074821">
        <ele>600</ele>
        <time>2012-10-21T11:35:32Z</time>
      </trkpt>
      <trkpt lat="47.653522035107017" lon="14.670341033488512">
        <ele>600.39999999999998</ele>
        <time>2012-10-21T11:35:33Z</time>
      </trkpt>
      <trkpt lat="47.653534021228552" lon="14.67031798325479">
        <ele>600.79999999999995</ele>
        <time>2012-10-21T11:35:34Z</time>
      </trkpt>
      <trkpt lat="47.653537960723042" lon="14.670286970213056">
        <ele>601.39999999999998</ele>
        <time>2012-10-21T11:35:35Z</time>
      </trkpt>
      <trkpt lat="47.653549024835229" lon="14.670259980484843">
        <ele>601.79999999999995</ele>
        <time>2012-10-21T11:35:36Z</time>
      </trkpt>
      <trkpt lat="47.653561010956764" lon="14.670229973271489">
        <ele>602.20000000000005</ele>
        <time>2012-10-21T11:35:37Z</time>
      </trkpt>
      <trkpt lat="47.653664024546742" lon="14.670011959969997">
        <ele>602.20000000000005</ele>
        <time>2012-10-21T11:35:44Z</time>
      </trkpt>
      <trkpt lat="47.653769971802831" lon="14.669829988852143">
        <ele>602.60000000000002</ele>
        <time>2012-10-21T11:35:51Z</time>
      </trkpt>
      <trkpt lat="47.653785981237888" lon="14.669806016609073">
        <ele>603</ele>
        <time>2012-10-21T11:35:52Z</time>
      </trkpt>
      <trkpt lat="47.653805008158088" lon="14.669783972203732">
        <ele>603.39999999999998</ele>
        <time>2012-10-21T11:35:53Z</time>
      </trkpt>
      <trkpt lat="47.653820011764765" lon="14.66975899413228">
        <ele>603.79999999999995</ele>
        <time>2012-10-21T11:35:54Z</time>
      </trkpt>
      <trkpt lat="47.653839038684964" lon="14.669741978868842">
        <ele>604.20000000000005</ele>
        <time>2012-10-21T11:35:55Z</time>
      </trkpt>
      <trkpt lat="47.653884971514344" lon="14.669683976098895">
        <ele>604.20000000000005</ele>
        <time>2012-10-21T11:35:58Z</time>
      </trkpt>
      <trkpt lat="47.654002988710999" lon="14.669528994709253">
        <ele>604.20000000000005</ele>
        <time>2012-10-21T11:36:05Z</time>
      </trkpt>
      <trkpt lat="47.654037019237876" lon="14.669489013031125">
        <ele>604.60000000000002</ele>
        <time>2012-10-21T11:36:07Z</time>
      </trkpt>
      <trkpt lat="47.654056968167424" lon="14.669468980282545">
        <ele>605</ele>
        <time>2012-10-21T11:36:08Z</time>
      </trkpt>
      <trkpt lat="47.654071971774101" lon="14.669450037181377">
        <ele>605.39999999999998</ele>
        <time>2012-10-21T11:36:09Z</time>
      </trkpt>
      <trkpt lat="47.654090998694301" lon="14.669425981119275">
        <ele>605.79999999999995</ele>
        <time>2012-10-21T11:36:10Z</time>
      </trkpt>
      <trkpt lat="47.654101978987455" lon="14.669399997219443">
        <ele>606.20000000000005</ele>
        <time>2012-10-21T11:36:11Z</time>
      </trkpt>
      <trkpt lat="47.654143972322345" lon="14.669320033863187">
        <ele>606.20000000000005</ele>
        <time>2012-10-21T11:36:14Z</time>
      </trkpt>
      <trkpt lat="47.654251009225845" lon="14.66911400668323">
        <ele>606.20000000000005</ele>
        <time>2012-10-21T11:36:22Z</time>
      </trkpt>
      <trkpt lat="47.654297025874257" lon="14.668995989486575">
        <ele>606.60000000000002</ele>
        <time>2012-10-21T11:36:26Z</time>
      </trkpt>
      <trkpt lat="47.65430498868227" lon="14.668971011415124">
        <ele>607</ele>
        <time>2012-10-21T11:36:27Z</time>
      </trkpt>
      <trkpt lat="47.654312029480934" lon="14.668944021686912">
        <ele>607.60000000000002</ele>
        <time>2012-10-21T11:36:28Z</time>
      </trkpt>
      <trkpt lat="47.654324015602469" lon="14.668918959796429">
        <ele>608</ele>
        <time>2012-10-21T11:36:29Z</time>
      </trkpt>
      <trkpt lat="47.654327033087611" lon="14.668888030573726">
        <ele>608.39999999999998</ele>
        <time>2012-10-21T11:36:30Z</time>
      </trkpt>
      <trkpt lat="47.654396016150713" lon="14.668659036979079">
        <ele>608.39999999999998</ele>
        <time>2012-10-21T11:36:37Z</time>
      </trkpt>
      <trkpt lat="47.654448989778757" lon="14.668421996757388">
        <ele>608.79999999999995</ele>
        <time>2012-10-21T11:36:45Z</time>
      </trkpt>
      <trkpt lat="47.654457036405802" lon="14.668386960402131">
        <ele>609.20000000000005</ele>
        <time>2012-10-21T11:36:46Z</time>
      </trkpt>
      <trkpt lat="47.654464999213815" lon="14.668360976502299">
        <ele>609.60000000000002</ele>
        <time>2012-10-21T11:36:47Z</time>
      </trkpt>
      <trkpt lat="47.654472040012479" lon="14.668331975117326">
        <ele>610</ele>
        <time>2012-10-21T11:36:48Z</time>
      </trkpt>
      <trkpt lat="47.654475979506969" lon="14.668302973732352">
        <ele>610.39999999999998</ele>
        <time>2012-10-21T11:36:49Z</time>
      </trkpt>
      <trkpt lat="47.654506992548704" lon="14.668199960142374">
        <ele>610.39999999999998</ele>
        <time>2012-10-21T11:36:53Z</time>
      </trkpt>
      <trkpt lat="47.654559966176748" lon="14.668014971539378">
        <ele>610.39999999999998</ele>
        <time>2012-10-21T11:37:00Z</time>
      </trkpt>
      <trkpt lat="47.65458301641047" lon="14.667971972376108">
        <ele>610.79999999999995</ele>
        <time>2012-10-21T11:37:02Z</time>
      </trkpt>
      <trkpt lat="47.654598020017147" lon="14.667938025668263">
        <ele>611.20000000000005</ele>
        <time>2012-10-21T11:37:03Z</time>
      </trkpt>
      <trkpt lat="47.654610006138682" lon="14.667906006798148">
        <ele>611.60000000000002</ele>
        <time>2012-10-21T11:37:04Z</time>
      </trkpt>
      <trkpt lat="47.654613023623824" lon="14.667873987928033">
        <ele>612.39999999999998</ele>
        <time>2012-10-21T11:37:05Z</time>
      </trkpt>
      <trkpt lat="47.654616963118315" lon="14.667840041220188">
        <ele>612.39999999999998</ele>
        <time>2012-10-21T11:37:06Z</time>
      </trkpt>
      <trkpt lat="47.654674965888262" lon="14.667685981839895">
        <ele>612.39999999999998</ele>
        <time>2012-10-21T11:37:13Z</time>
      </trkpt>
      <trkpt lat="47.654719976708293" lon="14.667582968249917">
        <ele>612.79999999999995</ele>
        <time>2012-10-21T11:37:19Z</time>
      </trkpt>
      <trkpt lat="47.654728023335338" lon="14.667562013491988">
        <ele>613.20000000000005</ele>
        <time>2012-10-21T11:37:20Z</time>
      </trkpt>
      <trkpt lat="47.654743026942015" lon="14.667543992400169">
        <ele>613.79999999999995</ele>
        <time>2012-10-21T11:37:21Z</time>
      </trkpt>
      <trkpt lat="47.654746966436505" lon="14.667518008500338">
        <ele>614.20000000000005</ele>
        <time>2012-10-21T11:37:22Z</time>
      </trkpt>
      <trkpt lat="47.65475501306355" lon="14.667495964094996">
        <ele>614.60000000000002</ele>
        <time>2012-10-21T11:37:23Z</time>
      </trkpt>
      <trkpt lat="47.654774039983749" lon="14.667406026273966">
        <ele>614.60000000000002</ele>
        <time>2012-10-21T11:37:27Z</time>
      </trkpt>
      <trkpt lat="47.654834976419806" lon="14.667224977165461">
        <ele>615</ele>
        <time>2012-10-21T11:37:36Z</time>
      </trkpt>
      <trkpt lat="47.654846040531993" lon="14.667207039892673">
        <ele>615.39999999999998</ele>
        <time>2012-10-21T11:37:37Z</time>
      </trkpt>
      <trkpt lat="47.654858026653528" lon="14.667188012972474">
        <ele>615.79999999999995</ele>
        <time>2012-10-21T11:37:38Z</time>
      </trkpt>
      <trkpt lat="47.654860960319638" lon="14.667168986052275">
        <ele>616.20000000000005</ele>
        <time>2012-10-21T11:37:39Z</time>
      </trkpt>
      <trkpt lat="47.654869006946683" lon="14.667146019637585">
        <ele>616.60000000000002</ele>
        <time>2012-10-21T11:37:40Z</time>
      </trkpt>
      <trkpt lat="47.654895996674895" lon="14.667071001604199">
        <ele>616.60000000000002</ele>
        <time>2012-10-21T11:37:44Z</time>
      </trkpt>
      <trkpt lat="47.654926003888249" lon="14.666949966922402">
        <ele>616.60000000000002</ele>
        <time>2012-10-21T11:37:50Z</time>
      </trkpt>
      <trkpt lat="47.654948970302939" lon="14.666887018829584">
        <ele>617</ele>
        <time>2012-10-21T11:37:53Z</time>
      </trkpt>
      <trkpt lat="47.654952993616462" lon="14.666866986081004">
        <ele>617.79999999999995</ele>
        <time>2012-10-21T11:37:54Z</time>
      </trkpt>
      <trkpt lat="47.654961040243506" lon="14.666851982474327">
        <ele>618.20000000000005</ele>
        <time>2012-10-21T11:37:55Z</time>
      </trkpt>
      <trkpt lat="47.654967997223139" lon="14.666834967210889">
        <ele>618.60000000000002</ele>
        <time>2012-10-21T11:37:56Z</time>
      </trkpt>
      <trkpt lat="47.655003033578396" lon="14.666767995804548">
        <ele>618.60000000000002</ele>
        <time>2012-10-21T11:38:00Z</time>
      </trkpt>
      <trkpt lat="47.655005967244506" lon="14.666740000247955">
        <ele>618.60000000000002</ele>
        <time>2012-10-21T11:38:01Z</time>
      </trkpt>
      <trkpt lat="47.655060030519962" lon="14.666561968624592">
        <ele>618.60000000000002</ele>
        <time>2012-10-21T11:38:09Z</time>
      </trkpt>
      <trkpt lat="47.655066987499595" lon="14.666545959189534">
        <ele>619</ele>
        <time>2012-10-21T11:38:10Z</time>
      </trkpt>
      <trkpt lat="47.655075034126639" lon="14.666525004431605">
        <ele>619.39999999999998</ele>
        <time>2012-10-21T11:38:11Z</time>
      </trkpt>
      <trkpt lat="47.65507897362113" lon="14.666507989168167">
        <ele>620</ele>
        <time>2012-10-21T11:38:12Z</time>
      </trkpt>
      <trkpt lat="47.655087020248175" lon="14.666484016925097">
        <ele>620.39999999999998</ele>
        <time>2012-10-21T11:38:13Z</time>
      </trkpt>
      <trkpt lat="47.655093977227807" lon="14.666463984176517">
        <ele>620.79999999999995</ele>
        <time>2012-10-21T11:38:14Z</time>
      </trkpt>
      <trkpt lat="47.655124990269542" lon="14.666381003335118">
        <ele>620.79999999999995</ele>
        <time>2012-10-21T11:38:18Z</time>
      </trkpt>
      <trkpt lat="47.655170001089573" lon="14.666229961439967">
        <ele>621.20000000000005</ele>
        <time>2012-10-21T11:38:25Z</time>
      </trkpt>
      <trkpt lat="47.655181987211108" lon="14.666206995025277">
        <ele>621.60000000000002</ele>
        <time>2012-10-21T11:38:26Z</time>
      </trkpt>
      <trkpt lat="47.655190033838153" lon="14.666185034438968">
        <ele>622</ele>
        <time>2012-10-21T11:38:27Z</time>
      </trkpt>
      <trkpt lat="47.655196990817785" lon="14.666167013347149">
        <ele>622.39999999999998</ele>
        <time>2012-10-21T11:38:28Z</time>
      </trkpt>
      <trkpt lat="47.655208976939321" lon="14.66614899225533">
        <ele>622.79999999999995</ele>
        <time>2012-10-21T11:38:29Z</time>
      </trkpt>
      <trkpt lat="47.655223980545998" lon="14.66608596034348">
        <ele>622.79999999999995</ele>
        <time>2012-10-21T11:38:32Z</time>
      </trkpt>
      <trkpt lat="47.655277037993073" lon="14.665914969518781">
        <ele>622.79999999999995</ele>
        <time>2012-10-21T11:38:40Z</time>
      </trkpt>
      <trkpt lat="47.655295981094241" lon="14.665872976183891">
        <ele>623.20000000000005</ele>
        <time>2012-10-21T11:38:42Z</time>
      </trkpt>
      <trkpt lat="47.655300004407763" lon="14.665854033082724">
        <ele>624</ele>
        <time>2012-10-21T11:38:43Z</time>
      </trkpt>
      <trkpt lat="47.655304027721286" lon="14.665832994505763">
        <ele>624.39999999999998</ele>
        <time>2012-10-21T11:38:44Z</time>
      </trkpt>
      <trkpt lat="47.655307967215776" lon="14.665810028091073">
        <ele>624.79999999999995</ele>
        <time>2012-10-21T11:38:45Z</time>
      </trkpt>
      <trkpt lat="47.655315008014441" lon="14.665758982300758">
        <ele>624.79999999999995</ele>
        <time>2012-10-21T11:38:47Z</time>
      </trkpt>
      <trkpt lat="47.655364964157343" lon="14.665624033659697">
        <ele>624.79999999999995</ele>
        <time>2012-10-21T11:38:54Z</time>
      </trkpt>
      <trkpt lat="47.655383991077542" lon="14.665573993697762">
        <ele>625.20000000000005</ele>
        <time>2012-10-21T11:38:57Z</time>
      </trkpt>
      <trkpt lat="47.655388014391065" lon="14.665553038939834">
        <ele>625.60000000000002</ele>
        <time>2012-10-21T11:38:58Z</time>
      </trkpt>
      <trkpt lat="47.655392037704587" lon="14.665533006191254">
        <ele>626</ele>
        <time>2012-10-21T11:38:59Z</time>
      </trkpt>
      <trkpt lat="47.655398994684219" lon="14.665513979271054">
        <ele>626.39999999999998</ele>
        <time>2012-10-21T11:39:00Z</time>
      </trkpt>
      <trkpt lat="47.655407041311264" lon="14.665495958179235">
        <ele>626.79999999999995</ele>
        <time>2012-10-21T11:39:01Z</time>
      </trkpt>
      <trkpt lat="47.655415004119277" lon="14.665472991764545">
        <ele>626.79999999999995</ele>
        <time>2012-10-21T11:39:02Z</time>
      </trkpt>
      <trkpt lat="47.655449034646153" lon="14.665326979011297">
        <ele>626.79999999999995</ele>
        <time>2012-10-21T11:39:09Z</time>
      </trkpt>
      <trkpt lat="47.655467977747321" lon="14.665200999006629">
        <ele>627.20000000000005</ele>
        <time>2012-10-21T11:39:15Z</time>
      </trkpt>
      <trkpt lat="47.655472001060843" lon="14.665183983743191">
        <ele>627.60000000000002</ele>
        <time>2012-10-21T11:39:16Z</time>
      </trkpt>
      <trkpt lat="47.655476024374366" lon="14.665165040642023">
        <ele>628.20000000000005</ele>
        <time>2012-10-21T11:39:17Z</time>
      </trkpt>
      <trkpt lat="47.655482981353998" lon="14.665145007893443">
        <ele>628.60000000000002</ele>
        <time>2012-10-21T11:39:18Z</time>
      </trkpt>
      <trkpt lat="47.655487004667521" lon="14.665126986801624">
        <ele>629</ele>
        <time>2012-10-21T11:39:19Z</time>
      </trkpt>
      <trkpt lat="47.65550603158772" lon="14.66498700901866">
        <ele>629</ele>
        <time>2012-10-21T11:39:26Z</time>
      </trkpt>
      <trkpt lat="47.65552899800241" lon="14.664829010143876">
        <ele>629.39999999999998</ele>
        <time>2012-10-21T11:39:33Z</time>
      </trkpt>
      <trkpt lat="47.655536960810423" lon="14.664808977395296">
        <ele>629.79999999999995</ele>
        <time>2012-10-21T11:39:34Z</time>
      </trkpt>
      <trkpt lat="47.655536960810423" lon="14.664787016808987">
        <ele>630.20000000000005</ele>
        <time>2012-10-21T11:39:35Z</time>
      </trkpt>
      <trkpt lat="47.655536960810423" lon="14.664762038737535">
        <ele>630.60000000000002</ele>
        <time>2012-10-21T11:39:36Z</time>
      </trkpt>
      <trkpt lat="47.655539978295565" lon="14.664742005988955">
        <ele>631</ele>
        <time>2012-10-21T11:39:37Z</time>
      </trkpt>
      <trkpt lat="47.655555987730622" lon="14.664659025147557">
        <ele>631</ele>
        <time>2012-10-21T11:39:41Z</time>
      </trkpt>
      <trkpt lat="47.655585994943976" lon="14.664485016837716">
        <ele>631</ele>
        <time>2012-10-21T11:39:49Z</time>
      </trkpt>
      <trkpt lat="47.655602004379034" lon="14.664422990754247">
        <ele>631.39999999999998</ele>
        <time>2012-10-21T11:39:52Z</time>
      </trkpt>
      <trkpt lat="47.655605021864176" lon="14.664401030167937">
        <ele>631.79999999999995</ele>
        <time>2012-10-21T11:39:53Z</time>
      </trkpt>
      <trkpt lat="47.655605021864176" lon="14.664377979934216">
        <ele>632.20000000000005</ele>
        <time>2012-10-21T11:39:54Z</time>
      </trkpt>
      <trkpt lat="47.655608961358666" lon="14.664351996034384">
        <ele>632.60000000000002</ele>
        <time>2012-10-21T11:39:55Z</time>
      </trkpt>
      <trkpt lat="47.655612984672189" lon="14.664331963285804">
        <ele>633</ele>
        <time>2012-10-21T11:39:56Z</time>
      </trkpt>
      <trkpt lat="47.655621031299233" lon="14.664291981607676">
        <ele>633</ele>
        <time>2012-10-21T11:39:58Z</time>
      </trkpt>
      <trkpt lat="47.6556780282408" lon="14.66408503241837">
        <ele>633</ele>
        <time>2012-10-21T11:40:08Z</time>
      </trkpt>
      <trkpt lat="47.655689008533955" lon="14.66404496692121">
        <ele>633.39999999999998</ele>
        <time>2012-10-21T11:40:10Z</time>
      </trkpt>
      <trkpt lat="47.655693031847477" lon="14.664014037698507">
        <ele>633.79999999999995</ele>
        <time>2012-10-21T11:40:11Z</time>
      </trkpt>
      <trkpt lat="47.65570099465549" lon="14.663987969979644">
        <ele>634.20000000000005</ele>
        <time>2012-10-21T11:40:12Z</time>
      </trkpt>
      <trkpt lat="47.655708035454154" lon="14.663966009393334">
        <ele>634.60000000000002</ele>
        <time>2012-10-21T11:40:13Z</time>
      </trkpt>
      <trkpt lat="47.655708035454154" lon="14.663939019665122">
        <ele>635</ele>
        <time>2012-10-21T11:40:14Z</time>
      </trkpt>
      <trkpt lat="47.655715998262167" lon="14.663914041593671">
        <ele>635</ele>
        <time>2012-10-21T11:40:15Z</time>
      </trkpt>
      <trkpt lat="47.655762014910579" lon="14.663739027455449">
        <ele>635</ele>
        <time>2012-10-21T11:40:23Z</time>
      </trkpt>
      <trkpt lat="47.655781041830778" lon="14.663645988330245">
        <ele>635.39999999999998</ele>
        <time>2012-10-21T11:40:27Z</time>
      </trkpt>
      <trkpt lat="47.655784981325269" lon="14.663621010258794">
        <ele>635.79999999999995</ele>
        <time>2012-10-21T11:40:28Z</time>
      </trkpt>
      <trkpt lat="47.655784981325269" lon="14.66359200887382">
        <ele>636.20000000000005</ele>
        <time>2012-10-21T11:40:29Z</time>
      </trkpt>
      <trkpt lat="47.65578799881041" lon="14.663568958640099">
        <ele>636.60000000000002</ele>
        <time>2012-10-21T11:40:30Z</time>
      </trkpt>
      <trkpt lat="47.655795961618423" lon="14.66354800388217">
        <ele>637</ele>
        <time>2012-10-21T11:40:31Z</time>
      </trkpt>
      <trkpt lat="47.655799984931946" lon="14.663526965305209">
        <ele>637</ele>
        <time>2012-10-21T11:40:32Z</time>
      </trkpt>
      <trkpt lat="47.655810965225101" lon="14.663458988070488">
        <ele>637</ele>
        <time>2012-10-21T11:40:35Z</time>
      </trkpt>
      <trkpt lat="47.655849019065499" lon="14.663303000852466">
        <ele>637</ele>
        <time>2012-10-21T11:40:42Z</time>
      </trkpt>
      <trkpt lat="47.655871985480189" lon="14.663198981434107">
        <ele>638</ele>
        <time>2012-10-21T11:40:47Z</time>
      </trkpt>
      <trkpt lat="47.655876008793712" lon="14.663176015019417">
        <ele>638.39999999999998</ele>
        <time>2012-10-21T11:40:48Z</time>
      </trkpt>
      <trkpt lat="47.655876008793712" lon="14.663150031119585">
        <ele>638.79999999999995</ele>
        <time>2012-10-21T11:40:49Z</time>
      </trkpt>
      <trkpt lat="47.655880032107234" lon="14.663123963400722">
        <ele>639.20000000000005</ele>
        <time>2012-10-21T11:40:50Z</time>
      </trkpt>
      <trkpt lat="47.655883971601725" lon="14.663103008642793">
        <ele>639.20000000000005</ele>
        <time>2012-10-21T11:40:51Z</time>
      </trkpt>
      <trkpt lat="47.655898975208402" lon="14.662889018654823">
        <ele>639.20000000000005</ele>
        <time>2012-10-21T11:41:00Z</time>
      </trkpt>
      <trkpt lat="47.655918002128601" lon="14.662723978981376">
        <ele>639.60000000000002</ele>
        <time>2012-10-21T11:41:07Z</time>
      </trkpt>
      <trkpt lat="47.655922025442123" lon="14.662700006738305">
        <ele>640</ele>
        <time>2012-10-21T11:41:08Z</time>
      </trkpt>
      <trkpt lat="47.655922025442123" lon="14.662674022838473">
        <ele>640.39999999999998</ele>
        <time>2012-10-21T11:41:09Z</time>
      </trkpt>
      <trkpt lat="47.655925964936614" lon="14.662649966776371">
        <ele>640.79999999999995</ele>
        <time>2012-10-21T11:41:10Z</time>
      </trkpt>
      <trkpt lat="47.655929988250136" lon="14.662627000361681">
        <ele>641.20000000000005</ele>
        <time>2012-10-21T11:41:11Z</time>
      </trkpt>
      <trkpt lat="47.655949015170336" lon="14.662463972344995">
        <ele>641.20000000000005</ele>
        <time>2012-10-21T11:41:18Z</time>
      </trkpt>
      <trkpt lat="47.65597902238369" lon="14.662311002612114">
        <ele>641.60000000000002</ele>
        <time>2012-10-21T11:41:25Z</time>
      </trkpt>
      <trkpt lat="47.65597902238369" lon="14.662284012883902">
        <ele>642</ele>
        <time>2012-10-21T11:41:26Z</time>
      </trkpt>
      <trkpt lat="47.65597902238369" lon="14.66225802898407">
        <ele>642.39999999999998</ele>
        <time>2012-10-21T11:41:27Z</time>
      </trkpt>
      <trkpt lat="47.655982961878181" lon="14.662235984578729">
        <ele>642.79999999999995</ele>
        <time>2012-10-21T11:41:28Z</time>
      </trkpt>
      <trkpt lat="47.655982961878181" lon="14.662207989022136">
        <ele>643.20000000000005</ele>
        <time>2012-10-21T11:41:29Z</time>
      </trkpt>
      <trkpt lat="47.655986985191703" lon="14.662185022607446">
        <ele>643.20000000000005</ele>
        <time>2012-10-21T11:41:30Z</time>
      </trkpt>
      <trkpt lat="47.656012969091535" lon="14.662032974883914">
        <ele>643.20000000000005</ele>
        <time>2012-10-21T11:41:37Z</time>
      </trkpt>
      <trkpt lat="47.656052028760314" lon="14.661881010979414">
        <ele>643.60000000000002</ele>
        <time>2012-10-21T11:41:44Z</time>
      </trkpt>
      <trkpt lat="47.656058985739946" lon="14.661857960745692">
        <ele>644</ele>
        <time>2012-10-21T11:41:45Z</time>
      </trkpt>
      <trkpt lat="47.656063009053469" lon="14.661834994331002">
        <ele>644.39999999999998</ele>
        <time>2012-10-21T11:41:46Z</time>
      </trkpt>
      <trkpt lat="47.656067032366991" lon="14.661814039573073">
        <ele>644.79999999999995</ele>
        <time>2012-10-21T11:41:47Z</time>
      </trkpt>
      <trkpt lat="47.656074995175004" lon="14.661790989339352">
        <ele>645.20000000000005</ele>
        <time>2012-10-21T11:41:48Z</time>
      </trkpt>
      <trkpt lat="47.656097039580345" lon="14.661731980741024">
        <ele>645.20000000000005</ele>
        <time>2012-10-21T11:41:51Z</time>
      </trkpt>
      <trkpt lat="47.656142972409725" lon="14.661595020443201">
        <ele>645.20000000000005</ele>
        <time>2012-10-21T11:41:57Z</time>
      </trkpt>
      <trkpt lat="47.656146995723248" lon="14.661573981866241">
        <ele>645.20000000000005</ele>
        <time>2012-10-21T11:41:58Z</time>
      </trkpt>
      <trkpt lat="47.656197035685182" lon="14.661455964669585">
        <ele>645.60000000000002</ele>
        <time>2012-10-21T11:42:04Z</time>
      </trkpt>
      <trkpt lat="47.656203992664814" lon="14.661437021568418">
        <ele>646</ele>
        <time>2012-10-21T11:42:05Z</time>
      </trkpt>
      <trkpt lat="47.656215978786349" lon="14.661419000476599">
        <ele>646.60000000000002</ele>
        <time>2012-10-21T11:42:06Z</time>
      </trkpt>
      <trkpt lat="47.656226959079504" lon="14.661401985213161">
        <ele>647</ele>
        <time>2012-10-21T11:42:07Z</time>
      </trkpt>
      <trkpt lat="47.656235005706549" lon="14.661382958292961">
        <ele>647.39999999999998</ele>
        <time>2012-10-21T11:42:08Z</time>
      </trkpt>
      <trkpt lat="47.656299965456128" lon="14.661287991330028">
        <ele>647.39999999999998</ele>
        <time>2012-10-21T11:42:14Z</time>
      </trkpt>
      <trkpt lat="47.656384035944939" lon="14.661178020760417">
        <ele>647.39999999999998</ele>
        <time>2012-10-21T11:42:21Z</time>
      </trkpt>
      <trkpt lat="47.656428962945938" lon="14.661113983020186">
        <ele>647.79999999999995</ele>
        <time>2012-10-21T11:42:25Z</time>
      </trkpt>
      <trkpt lat="47.656437009572983" lon="14.661097973585129">
        <ele>648.60000000000002</ele>
        <time>2012-10-21T11:42:26Z</time>
      </trkpt>
      <trkpt lat="47.656447989866138" lon="14.661085987463593">
        <ele>649.20000000000005</ele>
        <time>2012-10-21T11:42:27Z</time>
      </trkpt>
      <trkpt lat="47.656463999301195" lon="14.661071989685297">
        <ele>649.60000000000002</ele>
        <time>2012-10-21T11:42:28Z</time>
      </trkpt>
      <trkpt lat="47.656479002907872" lon="14.661053968593478">
        <ele>649.60000000000002</ele>
        <time>2012-10-21T11:42:29Z</time>
      </trkpt>
      <trkpt lat="47.656520996242762" lon="14.661003006622195">
        <ele>649.60000000000002</ele>
        <time>2012-10-21T11:42:32Z</time>
      </trkpt>
      <trkpt lat="47.656558966264129" lon="14.660951038822532">
        <ele>649.60000000000002</ele>
        <time>2012-10-21T11:42:35Z</time>
      </trkpt>
      <trkpt lat="47.656692992895842" lon="14.660803014412522">
        <ele>649.60000000000002</ele>
        <time>2012-10-21T11:42:44Z</time>
      </trkpt>
      <trkpt lat="47.656815033406019" lon="14.660655995830894">
        <ele>650</ele>
        <time>2012-10-21T11:42:51Z</time>
      </trkpt>
      <trkpt lat="47.656836993992329" lon="14.660635963082314">
        <ele>650.39999999999998</ele>
        <time>2012-10-21T11:42:52Z</time>
      </trkpt>
      <trkpt lat="47.656857026740909" lon="14.660617019981146">
        <ele>650.79999999999995</ele>
        <time>2012-10-21T11:42:53Z</time>
      </trkpt>
      <trkpt lat="47.656878987327218" lon="14.660591958090663">
        <ele>651.20000000000005</ele>
        <time>2012-10-21T11:42:54Z</time>
      </trkpt>
      <trkpt lat="47.656898014247417" lon="14.660567985847592">
        <ele>651.60000000000002</ele>
        <time>2012-10-21T11:42:55Z</time>
      </trkpt>
      <trkpt lat="47.656998010352254" lon="14.66045499779284">
        <ele>651.60000000000002</ele>
        <time>2012-10-21T11:43:00Z</time>
      </trkpt>
      <trkpt lat="47.657127007842064" lon="14.660330023616552">
        <ele>651.60000000000002</ele>
        <time>2012-10-21T11:43:07Z</time>
      </trkpt>
      <trkpt lat="47.657257011160254" lon="14.660243019461632">
        <ele>651.60000000000002</ele>
        <time>2012-10-21T11:43:14Z</time>
      </trkpt>
      <trkpt lat="47.657264973968267" lon="14.660238996148109">
        <ele>651.60000000000002</ele>
        <time>2012-10-21T11:43:19Z</time>
      </trkpt>
      <trkpt lat="47.657264973968267" lon="14.660238996148109">
        <ele>651.60000000000002</ele>
        <time>2012-10-21T11:43:28Z</time>
      </trkpt>
      <trkpt lat="47.657264973968267" lon="14.660238996148109">
        <ele>651.60000000000002</ele>
        <time>2012-10-21T11:43:43Z</time>
      </trkpt>
      <trkpt lat="47.657264973968267" lon="14.660238996148109">
        <ele>651.60000000000002</ele>
        <time>2012-10-21T11:43:54Z</time>
      </trkpt>
      <trkpt lat="47.657264973968267" lon="14.66024000197649">
        <ele>651.60000000000002</ele>
        <time>2012-10-21T11:44:04Z</time>
      </trkpt>
      <trkpt lat="47.657264973968267" lon="14.66024000197649">
        <ele>651.60000000000002</ele>
        <time>2012-10-21T11:44:16Z</time>
      </trkpt>
      <trkpt lat="47.657264973968267" lon="14.66024000197649">
        <ele>651.60000000000002</ele>
        <time>2012-10-21T11:44:27Z</time>
      </trkpt>
      <trkpt lat="47.65726899728179" lon="14.660243019461632">
        <ele>651.60000000000002</ele>
        <time>2012-10-21T11:44:39Z</time>
      </trkpt>
      <trkpt lat="47.657272014766932" lon="14.660233967006207">
        <ele>651.60000000000002</ele>
        <time>2012-10-21T11:44:41Z</time>
      </trkpt>
      <trkpt lat="47.657314008101821" lon="14.660188034176826">
        <ele>651.60000000000002</ele>
        <time>2012-10-21T11:44:44Z</time>
      </trkpt>
      <trkpt lat="47.657372010871768" lon="14.660143023356795">
        <ele>651.60000000000002</ele>
        <time>2012-10-21T11:44:47Z</time>
      </trkpt>
      <trkpt lat="47.657448034733534" lon="14.660097006708384">
        <ele>651.60000000000002</ele>
        <time>2012-10-21T11:44:50Z</time>
      </trkpt>
      <trkpt lat="47.657680967822671" lon="14.659997010603547">
        <ele>651.60000000000002</ele>
        <time>2012-10-21T11:44:58Z</time>
      </trkpt>
      <trkpt lat="47.657927982509136" lon="14.659916963428259">
        <ele>651.60000000000002</ele>
        <time>2012-10-21T11:45:04Z</time>
      </trkpt>
      <trkpt lat="47.658207016065717" lon="14.659819984808564">
        <ele>651.60000000000002</ele>
        <time>2012-10-21T11:45:09Z</time>
      </trkpt>
      <trkpt lat="47.658268036320806" lon="14.659785032272339">
        <ele>651.20000000000005</ele>
        <time>2012-10-21T11:45:10Z</time>
      </trkpt>
      <trkpt lat="47.658332996070385" lon="14.659743038937449">
        <ele>650.60000000000002</ele>
        <time>2012-10-21T11:45:11Z</time>
      </trkpt>
      <trkpt lat="47.658398039638996" lon="14.659691993147135">
        <ele>650.20000000000005</ele>
        <time>2012-10-21T11:45:12Z</time>
      </trkpt>
      <trkpt lat="47.658466016873717" lon="14.659630972892046">
        <ele>649.79999999999995</ele>
        <time>2012-10-21T11:45:13Z</time>
      </trkpt>
      <trkpt lat="47.658534999936819" lon="14.659568024799228">
        <ele>649.20000000000005</ele>
        <time>2012-10-21T11:45:14Z</time>
      </trkpt>
      <trkpt lat="47.658607000485063" lon="14.659499041736126">
        <ele>648.79999999999995</ele>
        <time>2012-10-21T11:45:15Z</time>
      </trkpt>
      <trkpt lat="47.658675983548164" lon="14.659426035359502">
        <ele>648.39999999999998</ele>
        <time>2012-10-21T11:45:16Z</time>
      </trkpt>
      <trkpt lat="47.658748989924788" lon="14.659349005669355">
        <ele>648</ele>
        <time>2012-10-21T11:45:17Z</time>
      </trkpt>
      <trkpt lat="47.65881696715951" lon="14.659268036484718">
        <ele>647.39999999999998</ele>
        <time>2012-10-21T11:45:18Z</time>
      </trkpt>
      <trkpt lat="47.658889973536134" lon="14.659182960167527">
        <ele>646.39999999999998</ele>
        <time>2012-10-21T11:45:19Z</time>
      </trkpt>
      <trkpt lat="47.658961974084377" lon="14.659094028174877">
        <ele>645.79999999999995</ele>
        <time>2012-10-21T11:45:20Z</time>
      </trkpt>
      <trkpt lat="47.659045960754156" lon="14.659005012363195">
        <ele>645</ele>
        <time>2012-10-21T11:45:21Z</time>
      </trkpt>
      <trkpt lat="47.659133970737457" lon="14.658931000158191">
        <ele>644.39999999999998</ele>
        <time>2012-10-21T11:45:22Z</time>
      </trkpt>
      <trkpt lat="47.659221980720758" lon="14.658861011266708">
        <ele>643.60000000000002</ele>
        <time>2012-10-21T11:45:23Z</time>
      </trkpt>
      <trkpt lat="47.659317031502724" lon="14.658793034031987">
        <ele>642.79999999999995</ele>
        <time>2012-10-21T11:45:24Z</time>
      </trkpt>
      <trkpt lat="47.659408980980515" lon="14.658728996291757">
        <ele>642.20000000000005</ele>
        <time>2012-10-21T11:45:25Z</time>
      </trkpt>
      <trkpt lat="47.659504031762481" lon="14.658660013228655">
        <ele>641.39999999999998</ele>
        <time>2012-10-21T11:45:26Z</time>
      </trkpt>
      <trkpt lat="47.659594975411892" lon="14.658583989366889">
        <ele>640.60000000000002</ele>
        <time>2012-10-21T11:45:27Z</time>
      </trkpt>
      <trkpt lat="47.659678962081671" lon="14.658506037667394">
        <ele>640</ele>
        <time>2012-10-21T11:45:28Z</time>
      </trkpt>
      <trkpt lat="47.659763032570481" lon="14.658422973006964">
        <ele>639.20000000000005</ele>
        <time>2012-10-21T11:45:29Z</time>
      </trkpt>
      <trkpt lat="47.659850958734751" lon="14.658335968852043">
        <ele>638.39999999999998</ele>
        <time>2012-10-21T11:45:30Z</time>
      </trkpt>
      <trkpt lat="47.659935029223561" lon="14.658237984403968">
        <ele>637.60000000000002</ele>
        <time>2012-10-21T11:45:31Z</time>
      </trkpt>
      <trkpt lat="47.660010969266295" lon="14.658127008005977">
        <ele>636.79999999999995</ele>
        <time>2012-10-21T11:45:32Z</time>
      </trkpt>
      <trkpt lat="47.660076012834907" lon="14.658003961667418">
        <ele>636</ele>
        <time>2012-10-21T11:45:33Z</time>
      </trkpt>
      <trkpt lat="47.660137033089995" lon="14.657871024683118">
        <ele>635.39999999999998</ele>
        <time>2012-10-21T11:45:34Z</time>
      </trkpt>
      <trkpt lat="47.66019101254642" lon="14.657733980566263">
        <ele>634.60000000000002</ele>
        <time>2012-10-21T11:45:35Z</time>
      </trkpt>
      <trkpt lat="47.660236023366451" lon="14.657598026096821">
        <ele>633.79999999999995</ele>
        <time>2012-10-21T11:45:36Z</time>
      </trkpt>
      <trkpt lat="47.660285979509354" lon="14.657457964494824">
        <ele>633</ele>
        <time>2012-10-21T11:45:37Z</time>
      </trkpt>
      <trkpt lat="47.660327972844243" lon="14.657326033338904">
        <ele>632</ele>
        <time>2012-10-21T11:45:38Z</time>
      </trkpt>
      <trkpt lat="47.660378012806177" lon="14.657197035849094">
        <ele>631.20000000000005</ele>
        <time>2012-10-21T11:45:39Z</time>
      </trkpt>
      <trkpt lat="47.660439033061266" lon="14.657073989510536">
        <ele>630.39999999999998</ele>
        <time>2012-10-21T11:45:40Z</time>
      </trkpt>
      <trkpt lat="47.660502986982465" lon="14.656956978142262">
        <ele>629.39999999999998</ele>
        <time>2012-10-21T11:45:41Z</time>
      </trkpt>
      <trkpt lat="47.660583034157753" lon="14.656829992309213">
        <ele>628.60000000000002</ele>
        <time>2012-10-21T11:45:42Z</time>
      </trkpt>
      <trkpt lat="47.660656040534377" lon="14.656711975112557">
        <ele>627.79999999999995</ele>
        <time>2012-10-21T11:45:43Z</time>
      </trkpt>
      <trkpt lat="47.660725023597479" lon="14.65658700093627">
        <ele>626</ele>
        <time>2012-10-21T11:45:44Z</time>
      </trkpt>
      <trkpt lat="47.6607930008322" lon="14.656464038416743">
        <ele>625</ele>
        <time>2012-10-21T11:45:45Z</time>
      </trkpt>
      <trkpt lat="47.660861983895302" lon="14.656339986249804">
        <ele>624.20000000000005</ele>
        <time>2012-10-21T11:45:46Z</time>
      </trkpt>
      <trkpt lat="47.660927027463913" lon="14.656218029558659">
        <ele>623.20000000000005</ele>
        <time>2012-10-21T11:45:47Z</time>
      </trkpt>
      <trkpt lat="47.660984024405479" lon="14.656088026240468">
        <ele>622.20000000000005</ele>
        <time>2012-10-21T11:45:48Z</time>
      </trkpt>
      <trkpt lat="47.661036998033524" lon="14.655952993780375">
        <ele>621.20000000000005</ele>
        <time>2012-10-21T11:45:49Z</time>
      </trkpt>
      <trkpt lat="47.661090977489948" lon="14.655816033482552">
        <ele>620</ele>
        <time>2012-10-21T11:45:50Z</time>
      </trkpt>
      <trkpt lat="47.661140011623502" lon="14.655678989365697">
        <ele>619</ele>
        <time>2012-10-21T11:45:51Z</time>
      </trkpt>
      <trkpt lat="47.661189967766404" lon="14.655538005754352">
        <ele>618</ele>
        <time>2012-10-21T11:45:52Z</time>
      </trkpt>
      <trkpt lat="47.661235984414816" lon="14.6554059907794">
        <ele>616.79999999999995</ele>
        <time>2012-10-21T11:45:53Z</time>
      </trkpt>
      <trkpt lat="47.661289041861892" lon="14.65527699328959">
        <ele>615.60000000000002</ele>
        <time>2012-10-21T11:45:54Z</time>
      </trkpt>
      <trkpt lat="47.661346038803458" lon="14.655155036598444">
        <ele>614.60000000000002</ele>
        <time>2012-10-21T11:45:55Z</time>
      </trkpt>
      <trkpt lat="47.661410998553038" lon="14.655037019401789">
        <ele>613.39999999999998</ele>
        <time>2012-10-21T11:45:56Z</time>
      </trkpt>
      <trkpt lat="47.661484004929662" lon="14.654924031347036">
        <ele>612.20000000000005</ele>
        <time>2012-10-21T11:45:57Z</time>
      </trkpt>
      <trkpt lat="47.661563968285918" lon="14.654810037463903">
        <ele>610.79999999999995</ele>
        <time>2012-10-21T11:45:58Z</time>
      </trkpt>
      <trkpt lat="47.661644015461206" lon="14.654694031924009">
        <ele>609.60000000000002</ele>
        <time>2012-10-21T11:45:59Z</time>
      </trkpt>
      <trkpt lat="47.661728002130985" lon="14.654564028605819">
        <ele>608.39999999999998</ele>
        <time>2012-10-21T11:46:00Z</time>
      </trkpt>
      <trkpt lat="47.661807965487242" lon="14.654435031116009">
        <ele>607</ele>
        <time>2012-10-21T11:46:01Z</time>
      </trkpt>
      <trkpt lat="47.661883989349008" lon="14.654295975342393">
        <ele>605.79999999999995</ele>
        <time>2012-10-21T11:46:02Z</time>
      </trkpt>
      <trkpt lat="47.661956995725632" lon="14.654152980074286">
        <ele>604.39999999999998</ele>
        <time>2012-10-21T11:46:03Z</time>
      </trkpt>
      <trkpt lat="47.662024972960353" lon="14.654014008119702">
        <ele>603.20000000000005</ele>
        <time>2012-10-21T11:46:04Z</time>
      </trkpt>
      <trkpt lat="47.662097979336977" lon="14.653866989538074">
        <ele>601.79999999999995</ele>
        <time>2012-10-21T11:46:05Z</time>
      </trkpt>
      <trkpt lat="47.662163022905588" lon="14.653718965128064">
        <ele>600.39999999999998</ele>
        <time>2012-10-21T11:46:06Z</time>
      </trkpt>
      <trkpt lat="47.662227982655168" lon="14.653573036193848">
        <ele>599</ele>
        <time>2012-10-21T11:46:07Z</time>
      </trkpt>
      <trkpt lat="47.662295959889889" lon="14.653420988470316">
        <ele>596.20000000000005</ele>
        <time>2012-10-21T11:46:08Z</time>
      </trkpt>
      <trkpt lat="47.6623610034585" lon="14.653281010687351">
        <ele>594.79999999999995</ele>
        <time>2012-10-21T11:46:09Z</time>
      </trkpt>
      <trkpt lat="47.662425963208079" lon="14.653145978227258">
        <ele>593.20000000000005</ele>
        <time>2012-10-21T11:46:10Z</time>
      </trkpt>
      <trkpt lat="47.66249100677669" lon="14.653010023757815">
        <ele>592</ele>
        <time>2012-10-21T11:46:11Z</time>
      </trkpt>
      <trkpt lat="47.66255596652627" lon="14.652874991297722">
        <ele>590.60000000000002</ele>
        <time>2012-10-21T11:46:12Z</time>
      </trkpt>
      <trkpt lat="47.662616986781359" lon="14.652740964666009">
        <ele>589.20000000000005</ele>
        <time>2012-10-21T11:46:13Z</time>
      </trkpt>
      <trkpt lat="47.66268203034997" lon="14.652606016024947">
        <ele>587.79999999999995</ele>
        <time>2012-10-21T11:46:14Z</time>
      </trkpt>
      <trkpt lat="47.662750007584691" lon="14.652476012706757">
        <ele>586.60000000000002</ele>
        <time>2012-10-21T11:46:15Z</time>
      </trkpt>
      <trkpt lat="47.662827037274837" lon="14.652347015216947">
        <ele>585.39999999999998</ele>
        <time>2012-10-21T11:46:16Z</time>
      </trkpt>
      <trkpt lat="47.662907000631094" lon="14.652219023555517">
        <ele>584.20000000000005</ele>
        <time>2012-10-21T11:46:17Z</time>
      </trkpt>
      <trkpt lat="47.662990987300873" lon="14.652092037722468">
        <ele>583</ele>
        <time>2012-10-21T11:46:18Z</time>
      </trkpt>
      <trkpt lat="47.663077991455793" lon="14.651966979727149">
        <ele>581.79999999999995</ele>
        <time>2012-10-21T11:46:19Z</time>
      </trkpt>
      <trkpt lat="47.663173964247108" lon="14.651837982237339">
        <ele>580.60000000000002</ele>
        <time>2012-10-21T11:46:20Z</time>
      </trkpt>
      <trkpt lat="47.663273038342595" lon="14.651720970869064">
        <ele>579.39999999999998</ele>
        <time>2012-10-21T11:46:21Z</time>
      </trkpt>
      <trkpt lat="47.663368005305529" lon="14.651606976985931">
        <ele>578.39999999999998</ele>
        <time>2012-10-21T11:46:22Z</time>
      </trkpt>
      <trkpt lat="47.663466995581985" lon="14.651493988931179">
        <ele>577.39999999999998</ele>
        <time>2012-10-21T11:46:23Z</time>
      </trkpt>
      <trkpt lat="47.663566991686821" lon="14.65138703584671">
        <ele>576.39999999999998</ele>
        <time>2012-10-21T11:46:24Z</time>
      </trkpt>
      <trkpt lat="47.663670005276799" lon="14.651286033913493">
        <ele>575.60000000000002</ele>
        <time>2012-10-21T11:46:25Z</time>
      </trkpt>
      <trkpt lat="47.663768995553255" lon="14.651187965646386">
        <ele>574.60000000000002</ele>
        <time>2012-10-21T11:46:26Z</time>
      </trkpt>
      <trkpt lat="47.663863962516189" lon="14.651090987026691">
        <ele>573.79999999999995</ele>
        <time>2012-10-21T11:46:27Z</time>
      </trkpt>
      <trkpt lat="47.663960019126534" lon="14.650997025892138">
        <ele>573</ele>
        <time>2012-10-21T11:46:28Z</time>
      </trkpt>
      <trkpt lat="47.664050962775946" lon="14.650904992595315">
        <ele>572.20000000000005</ele>
        <time>2012-10-21T11:46:29Z</time>
      </trkpt>
      <trkpt lat="47.664142996072769" lon="14.650811031460762">
        <ele>571.60000000000002</ele>
        <time>2012-10-21T11:46:30Z</time>
      </trkpt>
      <trkpt lat="47.66423000022769" lon="14.650717992335558">
        <ele>571</ele>
        <time>2012-10-21T11:46:31Z</time>
      </trkpt>
      <trkpt lat="47.664322033524513" lon="14.650617996230721">
        <ele>570.39999999999998</ele>
        <time>2012-10-21T11:46:32Z</time>
      </trkpt>
      <trkpt lat="47.66440199688077" lon="14.650516994297504">
        <ele>569.20000000000005</ele>
        <time>2012-10-21T11:46:33Z</time>
      </trkpt>
      <trkpt lat="47.664478020742536" lon="14.650412974879146">
        <ele>568.79999999999995</ele>
        <time>2012-10-21T11:46:34Z</time>
      </trkpt>
      <trkpt lat="47.66455496661365" lon="14.650306021794677">
        <ele>568.39999999999998</ele>
        <time>2012-10-21T11:46:35Z</time>
      </trkpt>
      <trkpt lat="47.664623027667403" lon="14.650199990719557">
        <ele>568</ele>
        <time>2012-10-21T11:46:36Z</time>
      </trkpt>
      <trkpt lat="47.664699973538518" lon="14.650105023756623">
        <ele>567.60000000000002</ele>
        <time>2012-10-21T11:46:37Z</time>
      </trkpt>
      <trkpt lat="47.664780020713806" lon="14.650021037086844">
        <ele>567</ele>
        <time>2012-10-21T11:46:38Z</time>
      </trkpt>
      <trkpt lat="47.664867024868727" lon="14.649936966598034">
        <ele>566.60000000000002</ele>
        <time>2012-10-21T11:46:39Z</time>
      </trkpt>
      <trkpt lat="47.664951011538506" lon="14.64986496604979">
        <ele>566.20000000000005</ele>
        <time>2012-10-21T11:46:40Z</time>
      </trkpt>
      <trkpt lat="47.665034998208284" lon="14.64979900047183">
        <ele>565.79999999999995</ele>
        <time>2012-10-21T11:46:41Z</time>
      </trkpt>
      <trkpt lat="47.665118984878063" lon="14.649738986045122">
        <ele>565.20000000000005</ele>
        <time>2012-10-21T11:46:42Z</time>
      </trkpt>
      <trkpt lat="47.665206994861364" lon="14.649693975225091">
        <ele>564.79999999999995</ele>
        <time>2012-10-21T11:46:43Z</time>
      </trkpt>
      <trkpt lat="47.665295004844666" lon="14.649650976061821">
        <ele>564.39999999999998</ele>
        <time>2012-10-21T11:46:44Z</time>
      </trkpt>
      <trkpt lat="47.665382008999586" lon="14.64960403740406">
        <ele>564</ele>
        <time>2012-10-21T11:46:45Z</time>
      </trkpt>
      <trkpt lat="47.665470018982887" lon="14.649548968300223">
        <ele>563.60000000000002</ele>
        <time>2012-10-21T11:46:46Z</time>
      </trkpt>
      <trkpt lat="47.665561968460679" lon="14.649484008550644">
        <ele>563.20000000000005</ele>
        <time>2012-10-21T11:46:47Z</time>
      </trkpt>
      <trkpt lat="47.66564603894949" lon="14.649414019659162">
        <ele>562.60000000000002</ele>
        <time>2012-10-21T11:46:48Z</time>
      </trkpt>
      <trkpt lat="47.665726002305746" lon="14.649339001625776">
        <ele>562.20000000000005</ele>
        <time>2012-10-21T11:46:49Z</time>
      </trkpt>
      <trkpt lat="47.665805965662003" lon="14.649260966107249">
        <ele>561.60000000000002</ele>
        <time>2012-10-21T11:46:50Z</time>
      </trkpt>
      <trkpt lat="47.665890036150813" lon="14.649186031892896">
        <ele>561</ele>
        <time>2012-10-21T11:46:51Z</time>
      </trkpt>
      <trkpt lat="47.66596999950707" lon="14.649113025516272">
        <ele>560.60000000000002</ele>
        <time>2012-10-21T11:46:52Z</time>
      </trkpt>
      <trkpt lat="47.666053986176848" lon="14.649045970290899">
        <ele>560</ele>
        <time>2012-10-21T11:46:53Z</time>
      </trkpt>
      <trkpt lat="47.666137972846627" lon="14.648985033854842">
        <ele>559.39999999999998</ele>
        <time>2012-10-21T11:46:54Z</time>
      </trkpt>
      <trkpt lat="47.666218020021915" lon="14.648931976407766">
        <ele>558.79999999999995</ele>
        <time>2012-10-21T11:46:55Z</time>
      </trkpt>
      <trkpt lat="47.666308963671327" lon="14.648883026093245">
        <ele>558.39999999999998</ele>
        <time>2012-10-21T11:46:56Z</time>
      </trkpt>
      <trkpt lat="47.666393034160137" lon="14.648848995566368">
        <ele>557.79999999999995</ele>
        <time>2012-10-21T11:46:57Z</time>
      </trkpt>
      <trkpt lat="47.666480960324407" lon="14.648826029151678">
        <ele>557</ele>
        <time>2012-10-21T11:46:58Z</time>
      </trkpt>
      <trkpt lat="47.666565030813217" lon="14.648805996403098">
        <ele>556.60000000000002</ele>
        <time>2012-10-21T11:46:59Z</time>
      </trkpt>
      <trkpt lat="47.666821014136076" lon="14.648748999461532">
        <ele>556.20000000000005</ele>
        <time>2012-10-21T11:47:02Z</time>
      </trkpt>
      <trkpt lat="47.666903994977474" lon="14.648727038875222">
        <ele>555.60000000000002</ele>
        <time>2012-10-21T11:47:03Z</time>
      </trkpt>
      <trkpt lat="47.666981024667621" lon="14.6487039886415">
        <ele>555.20000000000005</ele>
        <time>2012-10-21T11:47:04Z</time>
      </trkpt>
      <trkpt lat="47.667060988023877" lon="14.648676998913288">
        <ele>554.79999999999995</ele>
        <time>2012-10-21T11:47:05Z</time>
      </trkpt>
      <trkpt lat="47.667137011885643" lon="14.648649003356695">
        <ele>554.20000000000005</ele>
        <time>2012-10-21T11:47:06Z</time>
      </trkpt>
      <trkpt lat="47.667297022417188" lon="14.64859502390027">
        <ele>553.79999999999995</ele>
        <time>2012-10-21T11:47:08Z</time>
      </trkpt>
      <trkpt lat="47.667373968288302" lon="14.648561999201775">
        <ele>553.39999999999998</ele>
        <time>2012-10-21T11:47:09Z</time>
      </trkpt>
      <trkpt lat="47.667454015463591" lon="14.648529980331659">
        <ele>553</ele>
        <time>2012-10-21T11:47:10Z</time>
      </trkpt>
      <trkpt lat="47.667538002133369" lon="14.648494021967053">
        <ele>552.39999999999998</ele>
        <time>2012-10-21T11:47:11Z</time>
      </trkpt>
      <trkpt lat="47.667617965489626" lon="14.648458985611796">
        <ele>552</ele>
        <time>2012-10-21T11:47:12Z</time>
      </trkpt>
      <trkpt lat="47.667693989351392" lon="14.648424033075571">
        <ele>552</ele>
        <time>2012-10-21T11:47:13Z</time>
      </trkpt>
      <trkpt lat="47.667853999882936" lon="14.64835898950696">
        <ele>551.60000000000002</ele>
        <time>2012-10-21T11:47:15Z</time>
      </trkpt>
      <trkpt lat="47.667933963239193" lon="14.648331999778748">
        <ele>551</ele>
        <time>2012-10-21T11:47:16Z</time>
      </trkpt>
      <trkpt lat="47.668018033728004" lon="14.648310039192438">
        <ele>550.60000000000002</ele>
        <time>2012-10-21T11:47:17Z</time>
      </trkpt>
      <trkpt lat="47.66809799708426" lon="14.648292018100619">
        <ele>550.20000000000005</ele>
        <time>2012-10-21T11:47:18Z</time>
      </trkpt>
      <trkpt lat="47.668186007067561" lon="14.648275002837181">
        <ele>549.60000000000002</ele>
        <time>2012-10-21T11:47:19Z</time>
      </trkpt>
      <trkpt lat="47.66826999373734" lon="14.648255975916982">
        <ele>549.60000000000002</ele>
        <time>2012-10-21T11:47:20Z</time>
      </trkpt>
      <trkpt lat="47.668434027582407" lon="14.648203002288938">
        <ele>549.20000000000005</ele>
        <time>2012-10-21T11:47:22Z</time>
      </trkpt>
      <trkpt lat="47.668513990938663" lon="14.648163020610809">
        <ele>548.20000000000005</ele>
        <time>2012-10-21T11:47:23Z</time>
      </trkpt>
      <trkpt lat="47.66859102062881" lon="14.648114992305636">
        <ele>547.79999999999995</ele>
        <time>2012-10-21T11:47:24Z</time>
      </trkpt>
      <trkpt lat="47.668666960671544" lon="14.648066964000463">
        <ele>547.39999999999998</ele>
        <time>2012-10-21T11:47:25Z</time>
      </trkpt>
      <trkpt lat="47.668815990909934" lon="14.647945007309318">
        <ele>547.39999999999998</ele>
        <time>2012-10-21T11:47:27Z</time>
      </trkpt>
      <trkpt lat="47.668883968144655" lon="14.647876024246216">
        <ele>547</ele>
        <time>2012-10-21T11:47:28Z</time>
      </trkpt>
      <trkpt lat="47.668953035026789" lon="14.647802012041211">
        <ele>546.39999999999998</ele>
        <time>2012-10-21T11:47:29Z</time>
      </trkpt>
      <trkpt lat="47.669013971462846" lon="14.647721964865923">
        <ele>546</ele>
        <time>2012-10-21T11:47:30Z</time>
      </trkpt>
      <trkpt lat="47.669074991717935" lon="14.647637978196144">
        <ele>545.60000000000002</ele>
        <time>2012-10-21T11:47:31Z</time>
      </trkpt>
      <trkpt lat="47.669131988659501" lon="14.647547034546733">
        <ele>545.20000000000005</ele>
        <time>2012-10-21T11:47:32Z</time>
      </trkpt>
      <trkpt lat="47.669250005856156" lon="14.647358022630215">
        <ele>544.79999999999995</ele>
        <time>2012-10-21T11:47:34Z</time>
      </trkpt>
      <trkpt lat="47.669308008626103" lon="14.647266995161772">
        <ele>544.39999999999998</ele>
        <time>2012-10-21T11:47:35Z</time>
      </trkpt>
      <trkpt lat="47.669369028881192" lon="14.647183008491993">
        <ele>543.79999999999995</ele>
        <time>2012-10-21T11:47:36Z</time>
      </trkpt>
      <trkpt lat="47.669437006115913" lon="14.647101033478975">
        <ele>543.39999999999998</ele>
        <time>2012-10-21T11:47:37Z</time>
      </trkpt>
      <trkpt lat="47.669505989179015" lon="14.647030960768461">
        <ele>543</ele>
        <time>2012-10-21T11:47:38Z</time>
      </trkpt>
      <trkpt lat="47.669719979166985" lon="14.646842032670975">
        <ele>542.39999999999998</ele>
        <time>2012-10-21T11:47:41Z</time>
      </trkpt>
      <trkpt lat="47.66979600302875" lon="14.646777994930744">
        <ele>542</ele>
        <time>2012-10-21T11:47:42Z</time>
      </trkpt>
      <trkpt lat="47.669864986091852" lon="14.646711023524404">
        <ele>541.60000000000002</ele>
        <time>2012-10-21T11:47:43Z</time>
      </trkpt>
      <trkpt lat="47.669932963326573" lon="14.646642962470651">
        <ele>541</ele>
        <time>2012-10-21T11:47:44Z</time>
      </trkpt>
      <trkpt lat="47.669998006895185" lon="14.646569034084678">
        <ele>540.60000000000002</ele>
        <time>2012-10-21T11:47:45Z</time>
      </trkpt>
      <trkpt lat="47.670174026861787" lon="14.64631799608469">
        <ele>540.20000000000005</ele>
        <time>2012-10-21T11:47:48Z</time>
      </trkpt>
      <trkpt lat="47.670222977176309" lon="14.646222023293376">
        <ele>539.79999999999995</ele>
        <time>2012-10-21T11:47:49Z</time>
      </trkpt>
      <trkpt lat="47.67026899382472" lon="14.64612303301692">
        <ele>539.39999999999998</ele>
        <time>2012-10-21T11:47:50Z</time>
      </trkpt>
      <trkpt lat="47.670315010473132" lon="14.646019013598561">
        <ele>538.79999999999995</ele>
        <time>2012-10-21T11:47:51Z</time>
      </trkpt>
      <trkpt lat="47.670357003808022" lon="14.645919017493725">
        <ele>538.39999999999998</ele>
        <time>2012-10-21T11:47:52Z</time>
      </trkpt>
      <trkpt lat="47.670394973829389" lon="14.645817009732127">
        <ele>538.39999999999998</ele>
        <time>2012-10-21T11:47:53Z</time>
      </trkpt>
      <trkpt lat="47.670502010732889" lon="14.645497994497418">
        <ele>538</ele>
        <time>2012-10-21T11:47:56Z</time>
      </trkpt>
      <trkpt lat="47.670536041259766" lon="14.645389029756188">
        <ele>537.60000000000002</ele>
        <time>2012-10-21T11:47:57Z</time>
      </trkpt>
      <trkpt lat="47.670574011281133" lon="14.645279981195927">
        <ele>537.20000000000005</ele>
        <time>2012-10-21T11:47:58Z</time>
      </trkpt>
      <trkpt lat="47.670616004616022" lon="14.645177973434329">
        <ele>536.60000000000002</ele>
        <time>2012-10-21T11:47:59Z</time>
      </trkpt>
      <trkpt lat="47.670662021264434" lon="14.645082000643015">
        <ele>536.20000000000005</ele>
        <time>2012-10-21T11:48:00Z</time>
      </trkpt>
      <trkpt lat="47.670818008482456" lon="14.644821994006634">
        <ele>535.79999999999995</ele>
        <time>2012-10-21T11:48:03Z</time>
      </trkpt>
      <trkpt lat="47.670879028737545" lon="14.644747981801629">
        <ele>535.39999999999998</ele>
        <time>2012-10-21T11:48:04Z</time>
      </trkpt>
      <trkpt lat="47.670943988487124" lon="14.644680004566908">
        <ele>535</ele>
        <time>2012-10-21T11:48:05Z</time>
      </trkpt>
      <trkpt lat="47.671016994863749" lon="14.644614960998297">
        <ele>534.60000000000002</ele>
        <time>2012-10-21T11:48:06Z</time>
      </trkpt>
      <trkpt lat="47.671088995411992" lon="14.644558969885111">
        <ele>534.20000000000005</ele>
        <time>2012-10-21T11:48:07Z</time>
      </trkpt>
      <trkpt lat="47.67123400233686" lon="14.644459979608655">
        <ele>534.20000000000005</ele>
        <time>2012-10-21T11:48:09Z</time>
      </trkpt>
      <trkpt lat="47.671307008713484" lon="14.644414968788624">
        <ele>533.60000000000002</ele>
        <time>2012-10-21T11:48:10Z</time>
      </trkpt>
      <trkpt lat="47.67138303257525" lon="14.644375992938876">
        <ele>533.20000000000005</ele>
        <time>2012-10-21T11:48:11Z</time>
      </trkpt>
      <trkpt lat="47.671458972617984" lon="14.644341040402651">
        <ele>532.39999999999998</ele>
        <time>2012-10-21T11:48:12Z</time>
      </trkpt>
      <trkpt lat="47.67153499647975" lon="14.644306004047394">
        <ele>532</ele>
        <time>2012-10-21T11:48:13Z</time>
      </trkpt>
      <trkpt lat="47.67168402671814" lon="14.644230986014009">
        <ele>532</ele>
        <time>2012-10-21T11:48:15Z</time>
      </trkpt>
      <trkpt lat="47.672241004183888" lon="14.643940972164273">
        <ele>531.60000000000002</ele>
        <time>2012-10-21T11:48:23Z</time>
      </trkpt>
      <trkpt lat="47.672314010560513" lon="14.643906019628048">
        <ele>531</ele>
        <time>2012-10-21T11:48:24Z</time>
      </trkpt>
      <trkpt lat="47.672386011108756" lon="14.643872994929552">
        <ele>530.60000000000002</ele>
        <time>2012-10-21T11:48:25Z</time>
      </trkpt>
      <trkpt lat="47.67245901748538" lon="14.643838964402676">
        <ele>530.20000000000005</ele>
        <time>2012-10-21T11:48:26Z</time>
      </trkpt>
      <trkpt lat="47.672531018033624" lon="14.643799988552928">
        <ele>529.79999999999995</ele>
        <time>2012-10-21T11:48:27Z</time>
      </trkpt>
      <trkpt lat="47.672755988314748" lon="14.643679037690163">
        <ele>529.39999999999998</ele>
        <time>2012-10-21T11:48:30Z</time>
      </trkpt>
      <trkpt lat="47.672828994691372" lon="14.643637966364622">
        <ele>529</ele>
        <time>2012-10-21T11:48:31Z</time>
      </trkpt>
      <trkpt lat="47.672905018553138" lon="14.643601002171636">
        <ele>528.60000000000002</ele>
        <time>2012-10-21T11:48:32Z</time>
      </trkpt>
      <trkpt lat="47.672980958595872" lon="14.64356797747314">
        <ele>528.20000000000005</ele>
        <time>2012-10-21T11:48:33Z</time>
      </trkpt>
      <trkpt lat="47.673053964972496" lon="14.643537970259786">
        <ele>527.79999999999995</ele>
        <time>2012-10-21T11:48:34Z</time>
      </trkpt>
      <trkpt lat="47.673351019620895" lon="14.643451971933246">
        <ele>527.79999999999995</ele>
        <time>2012-10-21T11:48:38Z</time>
      </trkpt>
      <trkpt lat="47.673492003232241" lon="14.643415007740259">
        <ele>527.39999999999998</ele>
        <time>2012-10-21T11:48:40Z</time>
      </trkpt>
      <trkpt lat="47.673560986295342" lon="14.64339698664844">
        <ele>527</ele>
        <time>2012-10-21T11:48:41Z</time>
      </trkpt>
      <trkpt lat="47.673629969358444" lon="14.643376031890512">
        <ele>526.60000000000002</ele>
        <time>2012-10-21T11:48:42Z</time>
      </trkpt>
      <trkpt lat="47.673698030412197" lon="14.64335298165679">
        <ele>526.20000000000005</ele>
        <time>2012-10-21T11:48:43Z</time>
      </trkpt>
      <trkpt lat="47.673771036788821" lon="14.643322974443436">
        <ele>525.79999999999995</ele>
        <time>2012-10-21T11:48:44Z</time>
      </trkpt>
      <trkpt lat="47.674117963761091" lon="14.643143014982343">
        <ele>525.20000000000005</ele>
        <time>2012-10-21T11:48:49Z</time>
      </trkpt>
      <trkpt lat="47.674190970137715" lon="14.643104039132595">
        <ele>524.79999999999995</ele>
        <time>2012-10-21T11:48:50Z</time>
      </trkpt>
      <trkpt lat="47.674262970685959" lon="14.643064979463816">
        <ele>524.39999999999998</ele>
        <time>2012-10-21T11:48:51Z</time>
      </trkpt>
      <trkpt lat="47.674343017861247" lon="14.643031032755971">
        <ele>524</ele>
        <time>2012-10-21T11:48:52Z</time>
      </trkpt>
      <trkpt lat="47.674416024237871" lon="14.643001025542617">
        <ele>523.60000000000002</ele>
        <time>2012-10-21T11:48:53Z</time>
      </trkpt>
      <trkpt lat="47.674636971205473" lon="14.642904968932271">
        <ele>523</ele>
        <time>2012-10-21T11:48:56Z</time>
      </trkpt>
      <trkpt lat="47.674708971753716" lon="14.642863981425762">
        <ele>522.60000000000002</ele>
        <time>2012-10-21T11:48:57Z</time>
      </trkpt>
      <trkpt lat="47.67477803863585" lon="14.642818970605731">
        <ele>522.20000000000005</ele>
        <time>2012-10-21T11:48:58Z</time>
      </trkpt>
      <trkpt lat="47.674847021698952" lon="14.642768008634448">
        <ele>521.79999999999995</ele>
        <time>2012-10-21T11:48:59Z</time>
      </trkpt>
      <trkpt lat="47.674910975620151" lon="14.642716962844133">
        <ele>521.39999999999998</ele>
        <time>2012-10-21T11:49:00Z</time>
      </trkpt>
      <trkpt lat="47.674968978390098" lon="14.642660971730947">
        <ele>521.39999999999998</ele>
        <time>2012-10-21T11:49:01Z</time>
      </trkpt>
      <trkpt lat="47.675082972273231" lon="14.642532980069518">
        <ele>521.39999999999998</ele>
        <time>2012-10-21T11:49:03Z</time>
      </trkpt>
      <trkpt lat="47.675326969474554" lon="14.642152022570372">
        <ele>521</ele>
        <time>2012-10-21T11:49:08Z</time>
      </trkpt>
      <trkpt lat="47.675365023314953" lon="14.642066024243832">
        <ele>520.39999999999998</ele>
        <time>2012-10-21T11:49:09Z</time>
      </trkpt>
      <trkpt lat="47.675403999164701" lon="14.64197700843215">
        <ele>520</ele>
        <time>2012-10-21T11:49:10Z</time>
      </trkpt>
      <trkpt lat="47.675438029691577" lon="14.641885980963707">
        <ele>519.60000000000002</ele>
        <time>2012-10-21T11:49:11Z</time>
      </trkpt>
      <trkpt lat="47.675475999712944" lon="14.641794031485915">
        <ele>519.20000000000005</ele>
        <time>2012-10-21T11:49:12Z</time>
      </trkpt>
      <trkpt lat="47.675579013302922" lon="14.641506029292941">
        <ele>519.20000000000005</ele>
        <time>2012-10-21T11:49:15Z</time>
      </trkpt>
      <trkpt lat="47.675735000520945" lon="14.641142003238201">
        <ele>518.79999999999995</ele>
        <time>2012-10-21T11:49:19Z</time>
      </trkpt>
      <trkpt lat="47.675776993855834" lon="14.641060028225183">
        <ele>518.39999999999998</ele>
        <time>2012-10-21T11:49:20Z</time>
      </trkpt>
      <trkpt lat="47.675827033817768" lon="14.640979981049895">
        <ele>517.79999999999995</ele>
        <time>2012-10-21T11:49:21Z</time>
      </trkpt>
      <trkpt lat="47.67587698996067" lon="14.64090496301651">
        <ele>517.39999999999998</ele>
        <time>2012-10-21T11:49:22Z</time>
      </trkpt>
      <trkpt lat="47.675933986902237" lon="14.640832040458918">
        <ele>517</ele>
        <time>2012-10-21T11:49:23Z</time>
      </trkpt>
      <trkpt lat="47.676150994375348" lon="14.640569016337395">
        <ele>517</ele>
        <time>2012-10-21T11:49:27Z</time>
      </trkpt>
      <trkpt lat="47.676373030990362" lon="14.640294006094337">
        <ele>516.60000000000002</ele>
        <time>2012-10-21T11:49:31Z</time>
      </trkpt>
      <trkpt lat="47.676430027931929" lon="14.640224017202854">
        <ele>516.20000000000005</ele>
        <time>2012-10-21T11:49:32Z</time>
      </trkpt>
      <trkpt lat="47.676483001559973" lon="14.640152016654611">
        <ele>515.79999999999995</ele>
        <time>2012-10-21T11:49:33Z</time>
      </trkpt>
      <trkpt lat="47.676536981016397" lon="14.640079010277987">
        <ele>515.39999999999998</ele>
        <time>2012-10-21T11:49:34Z</time>
      </trkpt>
      <trkpt lat="47.676590038463473" lon="14.640009021386504">
        <ele>515</ele>
        <time>2012-10-21T11:49:35Z</time>
      </trkpt>
      <trkpt lat="47.676891032606363" lon="14.639529995620251">
        <ele>514.60000000000002</ele>
        <time>2012-10-21T11:49:41Z</time>
      </trkpt>
      <trkpt lat="47.67692900262773" lon="14.639437962323427">
        <ele>514.20000000000005</ele>
        <time>2012-10-21T11:49:42Z</time>
      </trkpt>
      <trkpt lat="47.676964038982987" lon="14.639337966218591">
        <ele>513.79999999999995</ele>
        <time>2012-10-21T11:49:43Z</time>
      </trkpt>
      <trkpt lat="47.676997985690832" lon="14.639237970113754">
        <ele>513.39999999999998</ele>
        <time>2012-10-21T11:49:44Z</time>
      </trkpt>
      <trkpt lat="47.677028998732567" lon="14.639136968180537">
        <ele>513</ele>
        <time>2012-10-21T11:49:45Z</time>
      </trkpt>
      <trkpt lat="47.677054982632399" lon="14.63903202675283">
        <ele>513</ele>
        <time>2012-10-21T11:49:46Z</time>
      </trkpt>
      <trkpt lat="47.677127989009023" lon="14.638603962957859">
        <ele>512.60000000000002</ele>
        <time>2012-10-21T11:49:50Z</time>
      </trkpt>
      <trkpt lat="47.677135029807687" lon="14.638494998216629">
        <ele>512.20000000000005</ele>
        <time>2012-10-21T11:49:51Z</time>
      </trkpt>
      <trkpt lat="47.677147015929222" lon="14.638386033475399">
        <ele>511.19999999999999</ele>
        <time>2012-10-21T11:49:52Z</time>
      </trkpt>
      <trkpt lat="47.677154978737235" lon="14.638273967429996">
        <ele>510.80000000000001</ele>
        <time>2012-10-21T11:49:53Z</time>
      </trkpt>
      <trkpt lat="47.677215998992324" lon="14.637836012989283">
        <ele>510.39999999999998</ele>
        <time>2012-10-21T11:49:57Z</time>
      </trkpt>
      <trkpt lat="47.677241982892156" lon="14.637734005227685">
        <ele>510</ele>
        <time>2012-10-21T11:49:58Z</time>
      </trkpt>
      <trkpt lat="47.67727299593389" lon="14.637638032436371">
        <ele>509.60000000000002</ele>
        <time>2012-10-21T11:49:59Z</time>
      </trkpt>
      <trkpt lat="47.677303003147244" lon="14.637545999139547">
        <ele>509.19999999999999</ele>
        <time>2012-10-21T11:50:00Z</time>
      </trkpt>
      <trkpt lat="47.677340973168612" lon="14.637455977499485">
        <ele>508.80000000000001</ele>
        <time>2012-10-21T11:50:01Z</time>
      </trkpt>
      <trkpt lat="47.67742495983839" lon="14.637279035523534">
        <ele>508.80000000000001</ele>
        <time>2012-10-21T11:50:03Z</time>
      </trkpt>
      <trkpt lat="47.677611960098147" lon="14.636962031945586">
        <ele>508.39999999999998</ele>
        <time>2012-10-21T11:50:07Z</time>
      </trkpt>
      <trkpt lat="47.677666023373604" lon="14.636889025568962">
        <ele>508</ele>
        <time>2012-10-21T11:50:08Z</time>
      </trkpt>
      <trkpt lat="47.677718997001648" lon="14.636809984222054">
        <ele>507.60000000000002</ele>
        <time>2012-10-21T11:50:09Z</time>
      </trkpt>
      <trkpt lat="47.677769036963582" lon="14.63673697784543">
        <ele>507</ele>
        <time>2012-10-21T11:50:10Z</time>
      </trkpt>
      <trkpt lat="47.677817987278104" lon="14.636664977297187">
        <ele>506.60000000000002</ele>
        <time>2012-10-21T11:50:11Z</time>
      </trkpt>
      <trkpt lat="47.678051004186273" lon="14.636278990656137">
        <ele>506.60000000000002</ele>
        <time>2012-10-21T11:50:16Z</time>
      </trkpt>
      <trkpt lat="47.678187964484096" lon="14.63604798540473">
        <ele>506.19999999999999</ele>
        <time>2012-10-21T11:50:19Z</time>
      </trkpt>
      <trkpt lat="47.678233981132507" lon="14.635965004563332">
        <ele>505.80000000000001</ele>
        <time>2012-10-21T11:50:20Z</time>
      </trkpt>
      <trkpt lat="47.678272034972906" lon="14.635880012065172">
        <ele>505.39999999999998</ele>
        <time>2012-10-21T11:50:21Z</time>
      </trkpt>
      <trkpt lat="47.678310004994273" lon="14.635786972939968">
        <ele>505</ele>
        <time>2012-10-21T11:50:22Z</time>
      </trkpt>
      <trkpt lat="47.678341018036008" lon="14.635694017633796">
        <ele>504.60000000000002</ele>
        <time>2012-10-21T11:50:23Z</time>
      </trkpt>
      <trkpt lat="47.678459035232663" lon="14.635214991867542">
        <ele>504.60000000000002</ele>
        <time>2012-10-21T11:50:28Z</time>
      </trkpt>
      <trkpt lat="47.67851997166872" lon="14.634926989674568">
        <ele>504.19999999999999</ele>
        <time>2012-10-21T11:50:31Z</time>
      </trkpt>
      <trkpt lat="47.678543021902442" lon="14.634831016883254">
        <ele>503.60000000000002</ele>
        <time>2012-10-21T11:50:32Z</time>
      </trkpt>
      <trkpt lat="47.678565988317132" lon="14.634732026606798">
        <ele>503.19999999999999</ele>
        <time>2012-10-21T11:50:33Z</time>
      </trkpt>
      <trkpt lat="47.678589038550854" lon="14.634640999138355">
        <ele>502.80000000000001</ele>
        <time>2012-10-21T11:50:34Z</time>
      </trkpt>
      <trkpt lat="47.678612004965544" lon="14.634548965841532">
        <ele>502.39999999999998</ele>
        <time>2012-10-21T11:50:35Z</time>
      </trkpt>
      <trkpt lat="47.678634971380234" lon="14.634459028020501">
        <ele>502.39999999999998</ele>
        <time>2012-10-21T11:50:36Z</time>
      </trkpt>
      <trkpt lat="47.678851978853345" lon="14.633863996714354">
        <ele>502.39999999999998</ele>
        <time>2012-10-21T11:50:43Z</time>
      </trkpt>
      <trkpt lat="47.678890032693744" lon="14.633789984509349">
        <ele>502</ele>
        <time>2012-10-21T11:50:44Z</time>
      </trkpt>
      <trkpt lat="47.678935965523124" lon="14.633718989789486">
        <ele>501.60000000000002</ele>
        <time>2012-10-21T11:50:45Z</time>
      </trkpt>
      <trkpt lat="47.678977958858013" lon="14.633649000898004">
        <ele>501.19999999999999</ele>
        <time>2012-10-21T11:50:46Z</time>
      </trkpt>
      <trkpt lat="47.679023975506425" lon="14.633582029491663">
        <ele>500.80000000000001</ele>
        <time>2012-10-21T11:50:47Z</time>
      </trkpt>
      <trkpt lat="47.679073009639978" lon="14.633512040600181">
        <ele>500.39999999999998</ele>
        <time>2012-10-21T11:50:48Z</time>
      </trkpt>
      <trkpt lat="47.67911902628839" lon="14.633445991203189">
        <ele>500.39999999999998</ele>
        <time>2012-10-21T11:50:49Z</time>
      </trkpt>
      <trkpt lat="47.67944298684597" lon="14.6331259701401">
        <ele>500.39999999999998</ele>
        <time>2012-10-21T11:50:55Z</time>
      </trkpt>
      <trkpt lat="47.679728977382183" lon="14.632903011515737">
        <ele>500</ele>
        <time>2012-10-21T11:51:00Z</time>
      </trkpt>
      <trkpt lat="47.67978304065764" lon="14.632856994867325">
        <ele>499.60000000000002</ele>
        <time>2012-10-21T11:51:01Z</time>
      </trkpt>
      <trkpt lat="47.679840037599206" lon="14.632810978218913">
        <ele>499.19999999999999</ele>
        <time>2012-10-21T11:51:02Z</time>
      </trkpt>
      <trkpt lat="47.679897034540772" lon="14.63276001624763">
        <ele>498.80000000000001</ele>
        <time>2012-10-21T11:51:03Z</time>
      </trkpt>
      <trkpt lat="47.679955037310719" lon="14.632711987942457">
        <ele>498.19999999999999</ele>
        <time>2012-10-21T11:51:04Z</time>
      </trkpt>
      <trkpt lat="47.68030196428299" lon="14.632417028769851">
        <ele>498.19999999999999</ele>
        <time>2012-10-21T11:51:10Z</time>
      </trkpt>
      <trkpt lat="47.680660039186478" lon="14.6321140229702">
        <ele>497.80000000000001</ele>
        <time>2012-10-21T11:51:16Z</time>
      </trkpt>
      <trkpt lat="47.680720975622535" lon="14.632063983008265">
        <ele>497.39999999999998</ele>
        <time>2012-10-21T11:51:17Z</time>
      </trkpt>
      <trkpt lat="47.680778978392482" lon="14.632010003551841">
        <ele>497</ele>
        <time>2012-10-21T11:51:18Z</time>
      </trkpt>
      <trkpt lat="47.680839998647571" lon="14.631953006610274">
        <ele>496.60000000000002</ele>
        <time>2012-10-21T11:51:19Z</time>
      </trkpt>
      <trkpt lat="47.680896995589137" lon="14.63190003298223">
        <ele>496.19999999999999</ele>
        <time>2012-10-21T11:51:20Z</time>
      </trkpt>
      <trkpt lat="47.681281976401806" lon="14.631481021642685">
        <ele>496.19999999999999</ele>
        <time>2012-10-21T11:51:27Z</time>
      </trkpt>
      <trkpt lat="47.681582970544696" lon="14.630947010591626">
        <ele>495.80000000000001</ele>
        <time>2012-10-21T11:51:34Z</time>
      </trkpt>
      <trkpt lat="47.681622030213475" lon="14.630857994779944">
        <ele>495.39999999999998</ele>
        <time>2012-10-21T11:51:35Z</time>
      </trkpt>
      <trkpt lat="47.681652037426829" lon="14.630775013938546">
        <ele>495</ele>
        <time>2012-10-21T11:51:36Z</time>
      </trkpt>
      <trkpt lat="47.681685984134674" lon="14.630692033097148">
        <ele>494.60000000000002</ele>
        <time>2012-10-21T11:51:37Z</time>
      </trkpt>
      <trkpt lat="47.681716997176409" lon="14.630609974265099">
        <ele>494.19999999999999</ele>
        <time>2012-10-21T11:51:38Z</time>
      </trkpt>
      <trkpt lat="47.681847000494599" lon="14.630308980122209">
        <ele>494.19999999999999</ele>
        <time>2012-10-21T11:51:42Z</time>
      </trkpt>
      <trkpt lat="47.682053027674556" lon="14.629849987104535">
        <ele>494.19999999999999</ele>
        <time>2012-10-21T11:51:49Z</time>
      </trkpt>
      <trkpt lat="47.682137014344335" lon="14.629672961309552">
        <ele>494.19999999999999</ele>
        <time>2012-10-21T11:51:52Z</time>
      </trkpt>
      <trkpt lat="47.682242961600423" lon="14.629477998241782">
        <ele>494.19999999999999</ele>
        <time>2012-10-21T11:51:56Z</time>
      </trkpt>
      <trkpt lat="47.682460974901915" lon="14.629125036299229">
        <ele>494.19999999999999</ele>
        <time>2012-10-21T11:52:05Z</time>
      </trkpt>
      <trkpt lat="47.682598019018769" lon="14.62891599163413">
        <ele>494.60000000000002</ele>
        <time>2012-10-21T11:52:12Z</time>
      </trkpt>
      <trkpt lat="47.682613022625446" lon="14.628886990249157">
        <ele>495</ele>
        <time>2012-10-21T11:52:13Z</time>
      </trkpt>
      <trkpt lat="47.682631965726614" lon="14.628857988864183">
        <ele>495.39999999999998</ele>
        <time>2012-10-21T11:52:14Z</time>
      </trkpt>
      <trkpt lat="47.682647975161672" lon="14.62882898747921">
        <ele>495.80000000000001</ele>
        <time>2012-10-21T11:52:15Z</time>
      </trkpt>
      <trkpt lat="47.682662978768349" lon="14.628799986094236">
        <ele>496.19999999999999</ele>
        <time>2012-10-21T11:52:16Z</time>
      </trkpt>
      <trkpt lat="47.682723999023438" lon="14.628694960847497">
        <ele>496.19999999999999</ele>
        <time>2012-10-21T11:52:20Z</time>
      </trkpt>
      <trkpt lat="47.682816032320261" lon="14.628536961972713">
        <ele>496.60000000000002</ele>
        <time>2012-10-21T11:52:26Z</time>
      </trkpt>
      <trkpt lat="47.682831035926938" lon="14.628509972244501">
        <ele>497</ele>
        <time>2012-10-21T11:52:27Z</time>
      </trkpt>
      <trkpt lat="47.682842016220093" lon="14.628481976687908">
        <ele>497.39999999999998</ele>
        <time>2012-10-21T11:52:28Z</time>
      </trkpt>
      <trkpt lat="47.68285802565515" lon="14.628452975302935">
        <ele>497.80000000000001</ele>
        <time>2012-10-21T11:52:29Z</time>
      </trkpt>
      <trkpt lat="47.682869005948305" lon="14.628424979746342">
        <ele>498.19999999999999</ele>
        <time>2012-10-21T11:52:30Z</time>
      </trkpt>
      <trkpt lat="47.682979982346296" lon="14.628208978101611">
        <ele>498.19999999999999</ele>
        <time>2012-10-21T11:52:38Z</time>
      </trkpt>
      <trkpt lat="47.683036979287863" lon="14.628076041117311">
        <ele>498.60000000000002</ele>
        <time>2012-10-21T11:52:43Z</time>
      </trkpt>
      <trkpt lat="47.683047959581017" lon="14.628049973398447">
        <ele>499.60000000000002</ele>
        <time>2012-10-21T11:52:44Z</time>
      </trkpt>
      <trkpt lat="47.683060029521585" lon="14.628023989498615">
        <ele>500</ele>
        <time>2012-10-21T11:52:45Z</time>
      </trkpt>
      <trkpt lat="47.683071009814739" lon="14.627999011427164">
        <ele>500.39999999999998</ele>
        <time>2012-10-21T11:52:46Z</time>
      </trkpt>
      <trkpt lat="47.683124989271164" lon="14.627841012552381">
        <ele>500.39999999999998</ele>
        <time>2012-10-21T11:52:52Z</time>
      </trkpt>
      <trkpt lat="47.68320101313293" lon="14.627628028392792">
        <ele>500.39999999999998</ele>
        <time>2012-10-21T11:53:00Z</time>
      </trkpt>
      <trkpt lat="47.683207970112562" lon="14.627600032836199">
        <ele>500.80000000000001</ele>
        <time>2012-10-21T11:53:01Z</time>
      </trkpt>
      <trkpt lat="47.683216016739607" lon="14.627574970945716">
        <ele>501.19999999999999</ele>
        <time>2012-10-21T11:53:02Z</time>
      </trkpt>
      <trkpt lat="47.68322397954762" lon="14.627545969560742">
        <ele>501.60000000000002</ele>
        <time>2012-10-21T11:53:03Z</time>
      </trkpt>
      <trkpt lat="47.683231020346284" lon="14.627515962347388">
        <ele>502</ele>
        <time>2012-10-21T11:53:04Z</time>
      </trkpt>
      <trkpt lat="47.683238983154297" lon="14.627487966790795">
        <ele>502.39999999999998</ele>
        <time>2012-10-21T11:53:05Z</time>
      </trkpt>
      <trkpt lat="47.683258010074496" lon="14.627404985949397">
        <ele>502.39999999999998</ele>
        <time>2012-10-21T11:53:08Z</time>
      </trkpt>
      <trkpt lat="47.683319030329585" lon="14.627184960991144">
        <ele>502.39999999999998</ele>
        <time>2012-10-21T11:53:16Z</time>
      </trkpt>
      <trkpt lat="47.683349959552288" lon="14.627075996249914">
        <ele>502.80000000000001</ele>
        <time>2012-10-21T11:53:20Z</time>
      </trkpt>
      <trkpt lat="47.683357000350952" lon="14.627050012350082">
        <ele>503.19999999999999</ele>
        <time>2012-10-21T11:53:21Z</time>
      </trkpt>
      <trkpt lat="47.683364963158965" lon="14.62702302262187">
        <ele>503.60000000000002</ele>
        <time>2012-10-21T11:53:22Z</time>
      </trkpt>
      <trkpt lat="47.683368986472487" lon="14.626995027065277">
        <ele>504</ele>
        <time>2012-10-21T11:53:23Z</time>
      </trkpt>
      <trkpt lat="47.683376027271152" lon="14.626967031508684">
        <ele>504.39999999999998</ele>
        <time>2012-10-21T11:53:24Z</time>
      </trkpt>
      <trkpt lat="47.683383990079165" lon="14.626939035952091">
        <ele>504.39999999999998</ele>
        <time>2012-10-21T11:53:25Z</time>
      </trkpt>
      <trkpt lat="47.683452973142266" lon="14.626720016822219">
        <ele>504.39999999999998</ele>
        <time>2012-10-21T11:53:33Z</time>
      </trkpt>
      <trkpt lat="47.683517010882497" lon="14.626493034884334">
        <ele>504.39999999999998</ele>
        <time>2012-10-21T11:53:41Z</time>
      </trkpt>
      <trkpt lat="47.683536959812045" lon="14.626435032114387">
        <ele>505</ele>
        <time>2012-10-21T11:53:43Z</time>
      </trkpt>
      <trkpt lat="47.683548023924232" lon="14.626404019072652">
        <ele>505.39999999999998</ele>
        <time>2012-10-21T11:53:44Z</time>
      </trkpt>
      <trkpt lat="47.683555986732244" lon="14.626374011859298">
        <ele>505.80000000000001</ele>
        <time>2012-10-21T11:53:45Z</time>
      </trkpt>
      <trkpt lat="47.683563027530909" lon="14.626346016302705">
        <ele>506.19999999999999</ele>
        <time>2012-10-21T11:53:46Z</time>
      </trkpt>
      <trkpt lat="47.683570990338922" lon="14.626318020746112">
        <ele>506.60000000000002</ele>
        <time>2012-10-21T11:53:47Z</time>
      </trkpt>
      <trkpt lat="47.683594040572643" lon="14.62622799910605">
        <ele>506.60000000000002</ele>
        <time>2012-10-21T11:53:50Z</time>
      </trkpt>
      <trkpt lat="47.683693030849099" lon="14.625937985256314">
        <ele>506.60000000000002</ele>
        <time>2012-10-21T11:54:00Z</time>
      </trkpt>
      <trkpt lat="47.683792021125555" lon="14.625664986670017">
        <ele>506.60000000000002</ele>
        <time>2012-10-21T11:54:09Z</time>
      </trkpt>
      <trkpt lat="47.683883970603347" lon="14.62545501999557">
        <ele>507</ele>
        <time>2012-10-21T11:54:16Z</time>
      </trkpt>
      <trkpt lat="47.683895034715533" lon="14.625421995297074">
        <ele>507.39999999999998</ele>
        <time>2012-10-21T11:54:17Z</time>
      </trkpt>
      <trkpt lat="47.68391003832221" lon="14.625389976426959">
        <ele>507.80000000000001</ele>
        <time>2012-10-21T11:54:18Z</time>
      </trkpt>
      <trkpt lat="47.683922024443746" lon="14.625357035547495">
        <ele>508.19999999999999</ele>
        <time>2012-10-21T11:54:19Z</time>
      </trkpt>
      <trkpt lat="47.6839330047369" lon="14.625320993363857">
        <ele>508.60000000000002</ele>
        <time>2012-10-21T11:54:20Z</time>
      </trkpt>
      <trkpt lat="47.68399796448648" lon="14.625164000317454">
        <ele>508.60000000000002</ele>
        <time>2012-10-21T11:54:25Z</time>
      </trkpt>
      <trkpt lat="47.684109024703503" lon="14.624865017831326">
        <ele>508.60000000000002</ele>
        <time>2012-10-21T11:54:33Z</time>
      </trkpt>
      <trkpt lat="47.684212038293481" lon="14.624595958739519">
        <ele>508.60000000000002</ele>
        <time>2012-10-21T11:54:40Z</time>
      </trkpt>
      <trkpt lat="47.684314968064427" lon="14.624292030930519">
        <ele>508.60000000000002</ele>
        <time>2012-10-21T11:54:47Z</time>
      </trkpt>
      <trkpt lat="47.684417981654406" lon="14.623963963240385">
        <ele>508.60000000000002</ele>
        <time>2012-10-21T11:54:54Z</time>
      </trkpt>
      <trkpt lat="47.684516971930861" lon="14.623581999912858">
        <ele>508.60000000000002</ele>
        <time>2012-10-21T11:55:01Z</time>
      </trkpt>
      <trkpt lat="47.684592995792627" lon="14.62317799217999">
        <ele>508.60000000000002</ele>
        <time>2012-10-21T11:55:09Z</time>
      </trkpt>
      <trkpt lat="47.68460095860064" lon="14.623160976916552">
        <ele>508.60000000000002</ele>
        <time>2012-10-21T11:55:13Z</time>
      </trkpt>
      <trkpt lat="47.68461998552084" lon="14.623095011338592">
        <ele>508.60000000000002</ele>
        <time>2012-10-21T11:55:17Z</time>
      </trkpt>
      <trkpt lat="47.684630965813994" lon="14.623057963326573">
        <ele>508.60000000000002</ele>
        <time>2012-10-21T11:55:18Z</time>
      </trkpt>
      <trkpt lat="47.684681005775928" lon="14.622778007760644">
        <ele>508.60000000000002</ele>
        <time>2012-10-21T11:55:25Z</time>
      </trkpt>
      <trkpt lat="47.684691986069083" lon="14.622745988890529">
        <ele>508.60000000000002</ele>
        <time>2012-10-21T11:55:26Z</time>
      </trkpt>
      <trkpt lat="47.68472702242434" lon="14.622721010819077">
        <ele>508.60000000000002</ele>
        <time>2012-10-21T11:55:28Z</time>
      </trkpt>
      <trkpt lat="47.68476901575923" lon="14.622806003317237">
        <ele>508.60000000000002</ele>
        <time>2012-10-21T11:55:31Z</time>
      </trkpt>
      <trkpt lat="47.684772033244371" lon="14.622898958623409">
        <ele>508.60000000000002</ele>
        <time>2012-10-21T11:55:34Z</time>
      </trkpt>
      <trkpt lat="47.684772033244371" lon="14.623030973598361">
        <ele>508.60000000000002</ele>
        <time>2012-10-21T11:55:38Z</time>
      </trkpt>
      <trkpt lat="47.684753006324172" lon="14.62315896525979">
        <ele>508.60000000000002</ele>
        <time>2012-10-21T11:55:42Z</time>
      </trkpt>
      <trkpt lat="47.684730961918831" lon="14.623205987736583">
        <ele>508.60000000000002</ele>
        <time>2012-10-21T11:55:44Z</time>
      </trkpt>
      <trkpt lat="47.684703972190619" lon="14.623301960527897">
        <ele>508.60000000000002</ele>
        <time>2012-10-21T11:55:47Z</time>
      </trkpt>
      <trkpt lat="47.684696009382606" lon="14.623394999653101">
        <ele>508.60000000000002</ele>
        <time>2012-10-21T11:55:50Z</time>
      </trkpt>
      <trkpt lat="47.684685029089451" lon="14.623434981331229">
        <ele>508.60000000000002</ele>
        <time>2012-10-21T11:55:54Z</time>
      </trkpt>
      <trkpt lat="47.684685029089451" lon="14.623443027958274">
        <ele>508.60000000000002</ele>
        <time>2012-10-21T11:56:03Z</time>
      </trkpt>
      <trkpt lat="47.684685029089451" lon="14.623443027958274">
        <ele>508.60000000000002</ele>
        <time>2012-10-21T11:56:15Z</time>
      </trkpt>
      <trkpt lat="47.684685029089451" lon="14.623443027958274">
        <ele>508.60000000000002</ele>
        <time>2012-10-21T11:56:28Z</time>
      </trkpt>
      <trkpt lat="47.684685029089451" lon="14.623443027958274">
        <ele>508.60000000000002</ele>
        <time>2012-10-21T11:56:41Z</time>
      </trkpt>
      <trkpt lat="47.684681005775928" lon="14.623453002423048">
        <ele>508.60000000000002</ele>
        <time>2012-10-21T11:56:50Z</time>
      </trkpt>
      <trkpt lat="47.684676982462406" lon="14.623411009088159">
        <ele>508.60000000000002</ele>
        <time>2012-10-21T11:56:56Z</time>
      </trkpt>
      <trkpt lat="47.684715036302805" lon="14.623268013820052">
        <ele>508.60000000000002</ele>
        <time>2012-10-21T11:57:01Z</time>
      </trkpt>
      <trkpt lat="47.684742026031017" lon="14.623142033815384">
        <ele>508.60000000000002</ele>
        <time>2012-10-21T11:57:04Z</time>
      </trkpt>
      <trkpt lat="47.68476901575923" lon="14.622990991920233">
        <ele>508.60000000000002</ele>
        <time>2012-10-21T11:57:07Z</time>
      </trkpt>
      <trkpt lat="47.684757029637694" lon="14.62276803329587">
        <ele>508.60000000000002</ele>
        <time>2012-10-21T11:57:12Z</time>
      </trkpt>
      <trkpt lat="47.684733979403973" lon="14.622540967538953">
        <ele>508.60000000000002</ele>
        <time>2012-10-21T11:57:17Z</time>
      </trkpt>
      <trkpt lat="47.684802962467074" lon="14.622164033353329">
        <ele>508.60000000000002</ele>
        <time>2012-10-21T11:57:24Z</time>
      </trkpt>
      <trkpt lat="47.684830036014318" lon="14.622053978964686">
        <ele>508.19999999999999</ele>
        <time>2012-10-21T11:57:26Z</time>
      </trkpt>
      <trkpt lat="47.684845039620996" lon="14.62199698202312">
        <ele>507.80000000000001</ele>
        <time>2012-10-21T11:57:27Z</time>
      </trkpt>
      <trkpt lat="47.68485601991415" lon="14.621935039758682">
        <ele>507.39999999999998</ele>
        <time>2012-10-21T11:57:28Z</time>
      </trkpt>
      <trkpt lat="47.684872029349208" lon="14.621871002018452">
        <ele>507</ele>
        <time>2012-10-21T11:57:29Z</time>
      </trkpt>
      <trkpt lat="47.684887032955885" lon="14.621805958449841">
        <ele>506.60000000000002</ele>
        <time>2012-10-21T11:57:30Z</time>
      </trkpt>
      <trkpt lat="47.684917040169239" lon="14.62167302146554">
        <ele>506.60000000000002</ele>
        <time>2012-10-21T11:57:32Z</time>
      </trkpt>
      <trkpt lat="47.684944029897451" lon="14.621531032025814">
        <ele>506.60000000000002</ele>
        <time>2012-10-21T11:57:34Z</time>
      </trkpt>
      <trkpt lat="47.685019969940186" lon="14.621239006519318">
        <ele>506.60000000000002</ele>
        <time>2012-10-21T11:57:38Z</time>
      </trkpt>
      <trkpt lat="47.685065986588597" lon="14.621098022907972">
        <ele>506.19999999999999</ele>
        <time>2012-10-21T11:57:40Z</time>
      </trkpt>
      <trkpt lat="47.685080990195274" lon="14.621031973510981">
        <ele>505.39999999999998</ele>
        <time>2012-10-21T11:57:41Z</time>
      </trkpt>
      <trkpt lat="47.685101022943854" lon="14.620968019589782">
        <ele>504.80000000000001</ele>
        <time>2012-10-21T11:57:42Z</time>
      </trkpt>
      <trkpt lat="47.685116026550531" lon="14.620905993506312">
        <ele>504.39999999999998</ele>
        <time>2012-10-21T11:57:43Z</time>
      </trkpt>
      <trkpt lat="47.685143016278744" lon="14.620818989351392">
        <ele>504.39999999999998</ele>
        <time>2012-10-21T11:57:45Z</time>
      </trkpt>
      <trkpt lat="47.685169000178576" lon="14.620787976309657">
        <ele>504.39999999999998</ele>
        <time>2012-10-21T11:57:49Z</time>
      </trkpt>
      <trkpt lat="47.685169000178576" lon="14.620787976309657">
        <ele>504.39999999999998</ele>
        <time>2012-10-21T11:58:00Z</time>
      </trkpt>
      <trkpt lat="47.685169000178576" lon="14.620787976309657">
        <ele>504.39999999999998</ele>
        <time>2012-10-21T11:58:16Z</time>
      </trkpt>
      <trkpt lat="47.685173023492098" lon="14.620786970481277">
        <ele>504.39999999999998</ele>
        <time>2012-10-21T11:58:32Z</time>
      </trkpt>
      <trkpt lat="47.685173023492098" lon="14.620786970481277">
        <ele>504.39999999999998</ele>
        <time>2012-10-21T11:58:45Z</time>
      </trkpt>
      <trkpt lat="47.685173023492098" lon="14.620786970481277">
        <ele>504.39999999999998</ele>
        <time>2012-10-21T11:59:00Z</time>
      </trkpt>
      <trkpt lat="47.685176962986588" lon="14.620761992409825">
        <ele>504.39999999999998</ele>
        <time>2012-10-21T11:59:04Z</time>
      </trkpt>
      <trkpt lat="47.685195989906788" lon="14.620718993246555">
        <ele>504.39999999999998</ele>
        <time>2012-10-21T11:59:06Z</time>
      </trkpt>
      <trkpt lat="47.68521904014051" lon="14.620661996304989">
        <ele>504.39999999999998</ele>
        <time>2012-10-21T11:59:08Z</time>
      </trkpt>
      <trkpt lat="47.685237983241677" lon="14.620589995756745">
        <ele>504.39999999999998</ele>
        <time>2012-10-21T11:59:10Z</time>
      </trkpt>
      <trkpt lat="47.685252986848354" lon="14.620550014078617">
        <ele>504.39999999999998</ele>
        <time>2012-10-21T11:59:11Z</time>
      </trkpt>
      <trkpt lat="47.685309983789921" lon="14.620368964970112">
        <ele>504</ele>
        <time>2012-10-21T11:59:15Z</time>
      </trkpt>
      <trkpt lat="47.685325993224978" lon="14.620316997170448">
        <ele>503.60000000000002</ele>
        <time>2012-10-21T11:59:16Z</time>
      </trkpt>
      <trkpt lat="47.685340996831656" lon="14.620270980522037">
        <ele>503.19999999999999</ele>
        <time>2012-10-21T11:59:17Z</time>
      </trkpt>
      <trkpt lat="47.685356000438333" lon="14.620224041864276">
        <ele>502.80000000000001</ele>
        <time>2012-10-21T11:59:18Z</time>
      </trkpt>
      <trkpt lat="47.68537100404501" lon="14.620176013559103">
        <ele>502.39999999999998</ele>
        <time>2012-10-21T11:59:19Z</time>
      </trkpt>
      <trkpt lat="47.685451973229647" lon="14.619922041893005">
        <ele>502.39999999999998</ele>
        <time>2012-10-21T11:59:25Z</time>
      </trkpt>
      <trkpt lat="47.6855200342834" lon="14.619703022763133">
        <ele>502.39999999999998</ele>
        <time>2012-10-21T11:59:33Z</time>
      </trkpt>
      <trkpt lat="47.685577031224966" lon="14.619633033871651">
        <ele>502</ele>
        <time>2012-10-21T11:59:38Z</time>
      </trkpt>
      <trkpt lat="47.685584994032979" lon="14.619614006951451">
        <ele>501.60000000000002</ele>
        <time>2012-10-21T11:59:39Z</time>
      </trkpt>
      <trkpt lat="47.685595974326134" lon="14.619595985859632">
        <ele>501.19999999999999</ele>
        <time>2012-10-21T11:59:40Z</time>
      </trkpt>
      <trkpt lat="47.685599997639656" lon="14.619582993909717">
        <ele>500.80000000000001</ele>
        <time>2012-10-21T11:59:41Z</time>
      </trkpt>
      <trkpt lat="47.685599997639656" lon="14.619579976424575">
        <ele>500.39999999999998</ele>
        <time>2012-10-21T11:59:42Z</time>
      </trkpt>
      <trkpt lat="47.685599997639656" lon="14.619579976424575">
        <ele>500.39999999999998</ele>
        <time>2012-10-21T11:59:44Z</time>
      </trkpt>
      <trkpt lat="47.685599997639656" lon="14.619579976424575">
        <ele>500.39999999999998</ele>
        <time>2012-10-21T11:59:52Z</time>
      </trkpt>
      <trkpt lat="47.685599997639656" lon="14.619574025273323">
        <ele>500.39999999999998</ele>
        <time>2012-10-21T12:00:00Z</time>
      </trkpt>
      <trkpt lat="47.685604020953178" lon="14.61956799030304">
        <ele>500.39999999999998</ele>
        <time>2012-10-21T12:00:06Z</time>
      </trkpt>
      <trkpt lat="47.685604020953178" lon="14.61956799030304">
        <ele>500.39999999999998</ele>
        <time>2012-10-21T12:00:07Z</time>
      </trkpt>
      <trkpt lat="47.685607960447669" lon="14.619596991688013">
        <ele>500</ele>
        <time>2012-10-21T12:14:34Z</time>
      </trkpt>
      <trkpt lat="47.685607960447669" lon="14.619596991688013">
        <ele>499.39999999999998</ele>
        <time>2012-10-21T12:14:35Z</time>
      </trkpt>
      <trkpt lat="47.685607960447669" lon="14.619596991688013">
        <ele>499</ele>
        <time>2012-10-21T12:14:36Z</time>
      </trkpt>
      <trkpt lat="47.685607960447669" lon="14.619596991688013">
        <ele>498.60000000000002</ele>
        <time>2012-10-21T12:14:37Z</time>
      </trkpt>
      <trkpt lat="47.685619024559855" lon="14.619617024436593">
        <ele>498.19999999999999</ele>
        <time>2012-10-21T12:14:38Z</time>
      </trkpt>
      <trkpt lat="47.685616007074714" lon="14.619663963094354">
        <ele>498.19999999999999</ele>
        <time>2012-10-21T12:14:40Z</time>
      </trkpt>
      <trkpt lat="47.685580970719457" lon="14.619625993072987">
        <ele>498.19999999999999</ele>
        <time>2012-10-21T12:14:43Z</time>
      </trkpt>
      <trkpt lat="47.685595974326134" lon="14.619432035833597">
        <ele>498.19999999999999</ele>
        <time>2012-10-21T12:14:47Z</time>
      </trkpt>
      <trkpt lat="47.685646014288068" lon="14.619162976741791">
        <ele>498.19999999999999</ele>
        <time>2012-10-21T12:14:52Z</time>
      </trkpt>
      <trkpt lat="47.68569203093648" lon="14.618761986494064">
        <ele>498.19999999999999</ele>
        <time>2012-10-21T12:14:58Z</time>
      </trkpt>
      <trkpt lat="47.685734024271369" lon="14.618325959891081">
        <ele>498.19999999999999</ele>
        <time>2012-10-21T12:15:05Z</time>
      </trkpt>
      <trkpt lat="47.68580200150609" lon="14.617986995726824">
        <ele>498.19999999999999</ele>
        <time>2012-10-21T12:15:12Z</time>
      </trkpt>
      <trkpt lat="47.685917001217604" lon="14.617928992956877">
        <ele>498.19999999999999</ele>
        <time>2012-10-21T12:15:15Z</time>
      </trkpt>
      <trkpt lat="47.686099978163838" lon="14.61797802709043">
        <ele>498.19999999999999</ele>
        <time>2012-10-21T12:15:19Z</time>
      </trkpt>
      <trkpt lat="47.686400972306728" lon="14.61802002042532">
        <ele>498.19999999999999</ele>
        <time>2012-10-21T12:15:25Z</time>
      </trkpt>
      <trkpt lat="47.686451012268662" lon="14.618025971576571">
        <ele>498.19999999999999</ele>
        <time>2012-10-21T12:15:26Z</time>
      </trkpt>
      <trkpt lat="47.686699032783508" lon="14.618051033467054">
        <ele>498.19999999999999</ele>
        <time>2012-10-21T12:15:31Z</time>
      </trkpt>
      <trkpt lat="47.686798023059964" lon="14.61806301958859">
        <ele>498.19999999999999</ele>
        <time>2012-10-21T12:15:33Z</time>
      </trkpt>
      <trkpt lat="47.687106980010867" lon="14.618080034852028">
        <ele>498.19999999999999</ele>
        <time>2012-10-21T12:15:39Z</time>
      </trkpt>
      <trkpt lat="47.687152996659279" lon="14.618083974346519">
        <ele>498.19999999999999</ele>
        <time>2012-10-21T12:15:40Z</time>
      </trkpt>
      <trkpt lat="47.68756496720016" lon="14.618093026801944">
        <ele>498.19999999999999</ele>
        <time>2012-10-21T12:15:48Z</time>
      </trkpt>
      <trkpt lat="47.687724977731705" lon="14.618012979626656">
        <ele>498.19999999999999</ele>
        <time>2012-10-21T12:15:51Z</time>
      </trkpt>
      <trkpt lat="47.68782002851367" lon="14.617933016270399">
        <ele>498.19999999999999</ele>
        <time>2012-10-21T12:15:53Z</time>
      </trkpt>
      <trkpt lat="47.687935028225183" lon="14.617673009634018">
        <ele>498.19999999999999</ele>
        <time>2012-10-21T12:15:57Z</time>
      </trkpt>
      <trkpt lat="47.687953971326351" lon="14.617596985772252">
        <ele>498.19999999999999</ele>
        <time>2012-10-21T12:15:58Z</time>
      </trkpt>
      <trkpt lat="47.687965035438538" lon="14.617519034072757">
        <ele>498.19999999999999</ele>
        <time>2012-10-21T12:15:59Z</time>
      </trkpt>
      <trkpt lat="47.68799202516675" lon="14.617281993851066">
        <ele>498.19999999999999</ele>
        <time>2012-10-21T12:16:02Z</time>
      </trkpt>
      <trkpt lat="47.688007028773427" lon="14.617123994976282">
        <ele>497.80000000000001</ele>
        <time>2012-10-21T12:16:04Z</time>
      </trkpt>
      <trkpt lat="47.68801499158144" lon="14.617043025791645">
        <ele>497.39999999999998</ele>
        <time>2012-10-21T12:16:05Z</time>
      </trkpt>
      <trkpt lat="47.688025971874595" lon="14.616961972787976">
        <ele>497</ele>
        <time>2012-10-21T12:16:06Z</time>
      </trkpt>
      <trkpt lat="47.688034018501639" lon="14.616878991946578">
        <ele>496.60000000000002</ele>
        <time>2012-10-21T12:16:07Z</time>
      </trkpt>
      <trkpt lat="47.688046004623175" lon="14.616798022761941">
        <ele>496.19999999999999</ele>
        <time>2012-10-21T12:16:08Z</time>
      </trkpt>
      <trkpt lat="47.688052961602807" lon="14.616714036092162">
        <ele>496.19999999999999</ele>
        <time>2012-10-21T12:16:09Z</time>
      </trkpt>
      <trkpt lat="47.688103001564741" lon="14.616235010325909">
        <ele>496.19999999999999</ele>
        <time>2012-10-21T12:16:15Z</time>
      </trkpt>
      <trkpt lat="47.688152035698295" lon="14.616008028388023">
        <ele>496.19999999999999</ele>
        <time>2012-10-21T12:16:18Z</time>
      </trkpt>
      <trkpt lat="47.688320009037852" lon="14.615707034245133">
        <ele>496.19999999999999</ele>
        <time>2012-10-21T12:16:23Z</time>
      </trkpt>
      <trkpt lat="47.688522012904286" lon="14.615597985684872">
        <ele>496.19999999999999</ele>
        <time>2012-10-21T12:16:27Z</time>
      </trkpt>
      <trkpt lat="47.688728040084243" lon="14.615645008161664">
        <ele>496.19999999999999</ele>
        <time>2012-10-21T12:16:31Z</time>
      </trkpt>
      <trkpt lat="47.689156020060182" lon="14.615782974287868">
        <ele>496.19999999999999</ele>
        <time>2012-10-21T12:16:39Z</time>
      </trkpt>
      <trkpt lat="47.68956002779305" lon="14.615841982886195">
        <ele>496.19999999999999</ele>
        <time>2012-10-21T12:16:46Z</time>
      </trkpt>
      <trkpt lat="47.689910978078842" lon="14.615944996476173">
        <ele>496.19999999999999</ele>
        <time>2012-10-21T12:16:52Z</time>
      </trkpt>
      <trkpt lat="47.689967975020409" lon="14.615971986204386">
        <ele>496.19999999999999</ele>
        <time>2012-10-21T12:16:53Z</time>
      </trkpt>
      <trkpt lat="47.690082974731922" lon="14.616041975095868">
        <ele>495.80000000000001</ele>
        <time>2012-10-21T12:16:55Z</time>
      </trkpt>
      <trkpt lat="47.690136032178998" lon="14.61608799174428">
        <ele>495.39999999999998</ele>
        <time>2012-10-21T12:16:56Z</time>
      </trkpt>
      <trkpt lat="47.6901859883219" lon="14.616137025877833">
        <ele>494.80000000000001</ele>
        <time>2012-10-21T12:16:57Z</time>
      </trkpt>
      <trkpt lat="47.690238961949944" lon="14.616185976192355">
        <ele>494.39999999999998</ele>
        <time>2012-10-21T12:16:58Z</time>
      </trkpt>
      <trkpt lat="47.69029201939702" lon="14.616230987012386">
        <ele>494</ele>
        <time>2012-10-21T12:16:59Z</time>
      </trkpt>
      <trkpt lat="47.690525036305189" lon="14.616349004209042">
        <ele>494</ele>
        <time>2012-10-21T12:17:03Z</time>
      </trkpt>
      <trkpt lat="47.69093700684607" lon="14.616513960063457">
        <ele>494</ele>
        <time>2012-10-21T12:17:10Z</time>
      </trkpt>
      <trkpt lat="47.690994003787637" lon="14.616557965055108">
        <ele>493.60000000000002</ele>
        <time>2012-10-21T12:17:11Z</time>
      </trkpt>
      <trkpt lat="47.691040020436049" lon="14.616622002795339">
        <ele>493.19999999999999</ele>
        <time>2012-10-21T12:17:12Z</time>
      </trkpt>
      <trkpt lat="47.691092994064093" lon="14.616676988080144">
        <ele>492.80000000000001</ele>
        <time>2012-10-21T12:17:13Z</time>
      </trkpt>
      <trkpt lat="47.691146973520517" lon="14.616715963929892">
        <ele>492.39999999999998</ele>
        <time>2012-10-21T12:17:14Z</time>
      </trkpt>
      <trkpt lat="47.691203970462084" lon="14.616751000285149">
        <ele>492</ele>
        <time>2012-10-21T12:17:15Z</time>
      </trkpt>
      <trkpt lat="47.69125702790916" lon="14.616787964478135">
        <ele>492</ele>
        <time>2012-10-21T12:17:16Z</time>
      </trkpt>
      <trkpt lat="47.691475041210651" lon="14.616929031908512">
        <ele>492</ele>
        <time>2012-10-21T12:17:20Z</time>
      </trkpt>
      <trkpt lat="47.691628010943532" lon="14.617036990821362">
        <ele>492</ele>
        <time>2012-10-21T12:17:23Z</time>
      </trkpt>
      <trkpt lat="47.69173395819962" lon="14.617091976106167">
        <ele>492</ele>
        <time>2012-10-21T12:17:25Z</time>
      </trkpt>
      <trkpt lat="47.6921839825809" lon="14.61729196831584">
        <ele>492</ele>
        <time>2012-10-21T12:17:34Z</time>
      </trkpt>
      <trkpt lat="47.692348016425967" lon="14.617336979135871">
        <ele>492</ele>
        <time>2012-10-21T12:17:37Z</time>
      </trkpt>
      <trkpt lat="47.692512972280383" lon="14.61737603880465">
        <ele>491.60000000000002</ele>
        <time>2012-10-21T12:17:40Z</time>
      </trkpt>
      <trkpt lat="47.692562006413937" lon="14.617394981905818">
        <ele>491.19999999999999</ele>
        <time>2012-10-21T12:17:41Z</time>
      </trkpt>
      <trkpt lat="47.692615985870361" lon="14.617414008826017">
        <ele>490.80000000000001</ele>
        <time>2012-10-21T12:17:42Z</time>
      </trkpt>
      <trkpt lat="47.692672982811928" lon="14.617433035746217">
        <ele>490.39999999999998</ele>
        <time>2012-10-21T12:17:43Z</time>
      </trkpt>
      <trkpt lat="47.692722016945481" lon="14.61746103130281">
        <ele>490</ele>
        <time>2012-10-21T12:17:44Z</time>
      </trkpt>
      <trkpt lat="47.692813966423273" lon="14.617563039064407">
        <ele>490</ele>
        <time>2012-10-21T12:17:46Z</time>
      </trkpt>
      <trkpt lat="47.692855959758162" lon="14.61780502460897">
        <ele>490</ele>
        <time>2012-10-21T12:17:49Z</time>
      </trkpt>
      <trkpt lat="47.692863000556827" lon="14.617886999621987">
        <ele>490</ele>
        <time>2012-10-21T12:17:50Z</time>
      </trkpt>
      <trkpt lat="47.692894013598561" lon="14.618453029543161">
        <ele>490</ele>
        <time>2012-10-21T12:17:57Z</time>
      </trkpt>
      <trkpt lat="47.692936006933451" lon="14.618861982598901">
        <ele>490</ele>
        <time>2012-10-21T12:18:02Z</time>
      </trkpt>
      <trkpt lat="47.69295503385365" lon="14.618940018117428">
        <ele>490</ele>
        <time>2012-10-21T12:18:03Z</time>
      </trkpt>
      <trkpt lat="47.692982023581862" lon="14.619016963988543">
        <ele>490</ele>
        <time>2012-10-21T12:18:04Z</time>
      </trkpt>
      <trkpt lat="47.693091994151473" lon="14.619198013097048">
        <ele>490</ele>
        <time>2012-10-21T12:18:07Z</time>
      </trkpt>
      <trkpt lat="47.693295003846288" lon="14.619347965344787">
        <ele>490</ele>
        <time>2012-10-21T12:18:11Z</time>
      </trkpt>
      <trkpt lat="47.693347977474332" lon="14.619371015578508">
        <ele>490</ele>
        <time>2012-10-21T12:18:12Z</time>
      </trkpt>
      <trkpt lat="47.693771012127399" lon="14.619579976424575">
        <ele>490</ele>
        <time>2012-10-21T12:18:20Z</time>
      </trkpt>
      <trkpt lat="47.693886011838913" lon="14.61963496170938">
        <ele>489.60000000000002</ele>
        <time>2012-10-21T12:18:22Z</time>
      </trkpt>
      <trkpt lat="47.693947032094002" lon="14.619663963094354">
        <ele>489.19999999999999</ele>
        <time>2012-10-21T12:18:23Z</time>
      </trkpt>
      <trkpt lat="47.694000005722046" lon="14.619693970307708">
        <ele>488.80000000000001</ele>
        <time>2012-10-21T12:18:24Z</time>
      </trkpt>
      <trkpt lat="47.694061025977135" lon="14.619720038026571">
        <ele>488.39999999999998</ele>
        <time>2012-10-21T12:18:25Z</time>
      </trkpt>
      <trkpt lat="47.694118022918701" lon="14.619749961420894">
        <ele>488</ele>
        <time>2012-10-21T12:18:26Z</time>
      </trkpt>
      <trkpt lat="47.694179965183139" lon="14.619781980291009">
        <ele>488</ele>
        <time>2012-10-21T12:18:27Z</time>
      </trkpt>
      <trkpt lat="47.694640969857574" lon="14.620027989149094">
        <ele>488</ele>
        <time>2012-10-21T12:18:35Z</time>
      </trkpt>
      <trkpt lat="47.6950419601053" lon="14.620226975530386">
        <ele>488</ele>
        <time>2012-10-21T12:18:42Z</time>
      </trkpt>
      <trkpt lat="47.695438005030155" lon="14.620419004932046">
        <ele>487.39999999999998</ele>
        <time>2012-10-21T12:18:49Z</time>
      </trkpt>
      <trkpt lat="47.695496007800102" lon="14.620447000488639">
        <ele>487</ele>
        <time>2012-10-21T12:18:50Z</time>
      </trkpt>
      <trkpt lat="47.695548981428146" lon="14.620476001873612">
        <ele>486.60000000000002</ele>
        <time>2012-10-21T12:18:51Z</time>
      </trkpt>
      <trkpt lat="47.695605978369713" lon="14.620502991601825">
        <ele>486.19999999999999</ele>
        <time>2012-10-21T12:18:52Z</time>
      </trkpt>
      <trkpt lat="47.695660041645169" lon="14.620532998815179">
        <ele>485.80000000000001</ele>
        <time>2012-10-21T12:18:53Z</time>
      </trkpt>
      <trkpt lat="47.696003029122949" lon="14.620723016560078">
        <ele>485.80000000000001</ele>
        <time>2012-10-21T12:18:59Z</time>
      </trkpt>
      <trkpt lat="47.696399996057153" lon="14.620968019589782">
        <ele>485.80000000000001</ele>
        <time>2012-10-21T12:19:06Z</time>
      </trkpt>
      <trkpt lat="47.696617003530264" lon="14.621138004586101">
        <ele>485.80000000000001</ele>
        <time>2012-10-21T12:19:10Z</time>
      </trkpt>
      <trkpt lat="47.696773996576667" lon="14.621294997632504">
        <ele>485.80000000000001</ele>
        <time>2012-10-21T12:19:13Z</time>
      </trkpt>
      <trkpt lat="47.697013970464468" lon="14.621582999825478">
        <ele>485.39999999999998</ele>
        <time>2012-10-21T12:19:18Z</time>
      </trkpt>
      <trkpt lat="47.697063004598022" lon="14.621635973453522">
        <ele>485</ele>
        <time>2012-10-21T12:19:19Z</time>
      </trkpt>
      <trkpt lat="47.697112960740924" lon="14.621691964566708">
        <ele>484.60000000000002</ele>
        <time>2012-10-21T12:19:20Z</time>
      </trkpt>
      <trkpt lat="47.697163000702858" lon="14.621744016185403">
        <ele>484.19999999999999</ele>
        <time>2012-10-21T12:19:21Z</time>
      </trkpt>
      <trkpt lat="47.697212034836411" lon="14.621792966499925">
        <ele>483.80000000000001</ele>
        <time>2012-10-21T12:19:22Z</time>
      </trkpt>
      <trkpt lat="47.697417978197336" lon="14.621954988688231">
        <ele>483.80000000000001</ele>
        <time>2012-10-21T12:19:26Z</time>
      </trkpt>
      <trkpt lat="47.697472041472793" lon="14.621983990073204">
        <ele>483.80000000000001</ele>
        <time>2012-10-21T12:19:27Z</time>
      </trkpt>
      <trkpt lat="47.697577988728881" lon="14.622025983408093">
        <ele>483.80000000000001</ele>
        <time>2012-10-21T12:19:29Z</time>
      </trkpt>
      <trkpt lat="47.69763900898397" lon="14.622040987014771">
        <ele>483.80000000000001</ele>
        <time>2012-10-21T12:19:30Z</time>
      </trkpt>
      <trkpt lat="47.698013009503484" lon="14.622050961479545">
        <ele>483.80000000000001</ele>
        <time>2012-10-21T12:19:36Z</time>
      </trkpt>
      <trkpt lat="47.698211995884776" lon="14.622047021985054">
        <ele>483.39999999999998</ele>
        <time>2012-10-21T12:19:39Z</time>
      </trkpt>
      <trkpt lat="47.698279973119497" lon="14.622052973136306">
        <ele>483</ele>
        <time>2012-10-21T12:19:40Z</time>
      </trkpt>
      <trkpt lat="47.698349040001631" lon="14.622058002278209">
        <ele>482.60000000000002</ele>
        <time>2012-10-21T12:19:41Z</time>
      </trkpt>
      <trkpt lat="47.698421040549874" lon="14.622064959257841">
        <ele>482.19999999999999</ele>
        <time>2012-10-21T12:19:42Z</time>
      </trkpt>
      <trkpt lat="47.698490023612976" lon="14.622074011713266">
        <ele>481.80000000000001</ele>
        <time>2012-10-21T12:19:43Z</time>
      </trkpt>
      <trkpt lat="47.69856596365571" lon="14.622090021148324">
        <ele>481.80000000000001</ele>
        <time>2012-10-21T12:19:44Z</time>
      </trkpt>
      <trkpt lat="47.698642993345857" lon="14.622113993391395">
        <ele>481.39999999999998</ele>
        <time>2012-10-21T12:19:45Z</time>
      </trkpt>
      <trkpt lat="47.698719017207623" lon="14.622151041403413">
        <ele>480.80000000000001</ele>
        <time>2012-10-21T12:19:46Z</time>
      </trkpt>
      <trkpt lat="47.698798980563879" lon="14.622196974232793">
        <ele>480.39999999999998</ele>
        <time>2012-10-21T12:19:47Z</time>
      </trkpt>
      <trkpt lat="47.69888699054718" lon="14.622252965345979">
        <ele>480</ele>
        <time>2012-10-21T12:19:48Z</time>
      </trkpt>
      <trkpt lat="47.698970977216959" lon="14.622315997257829">
        <ele>479.19999999999999</ele>
        <time>2012-10-21T12:19:49Z</time>
      </trkpt>
      <trkpt lat="47.699051024392247" lon="14.622390009462833">
        <ele>478.60000000000002</ele>
        <time>2012-10-21T12:19:50Z</time>
      </trkpt>
      <trkpt lat="47.699126964434981" lon="14.622477013617754">
        <ele>478</ele>
        <time>2012-10-21T12:19:51Z</time>
      </trkpt>
      <trkpt lat="47.699199970811605" lon="14.62257600389421">
        <ele>477.19999999999999</ele>
        <time>2012-10-21T12:19:52Z</time>
      </trkpt>
      <trkpt lat="47.699271971359849" lon="14.62268597446382">
        <ele>476.39999999999998</ele>
        <time>2012-10-21T12:19:53Z</time>
      </trkpt>
      <trkpt lat="47.699332991614938" lon="14.622801980003715">
        <ele>475.80000000000001</ele>
        <time>2012-10-21T12:19:54Z</time>
      </trkpt>
      <trkpt lat="47.69940197467804" lon="14.62292100302875">
        <ele>474.80000000000001</ele>
        <time>2012-10-21T12:19:55Z</time>
      </trkpt>
      <trkpt lat="47.699467018246651" lon="14.6230289619416">
        <ele>474</ele>
        <time>2012-10-21T12:19:56Z</time>
      </trkpt>
      <trkpt lat="47.69953197799623" lon="14.62313499301672">
        <ele>473</ele>
        <time>2012-10-21T12:19:57Z</time>
      </trkpt>
      <trkpt lat="47.699592998251319" lon="14.623239012435079">
        <ele>472</ele>
        <time>2012-10-21T12:19:58Z</time>
      </trkpt>
      <trkpt lat="47.699687965214252" lon="14.623381001874804">
        <ele>470.19999999999999</ele>
        <time>2012-10-21T12:19:59Z</time>
      </trkpt>
      <trkpt lat="47.699757032096386" lon="14.623463982716203">
        <ele>469.19999999999999</ele>
        <time>2012-10-21T12:20:00Z</time>
      </trkpt>
      <trkpt lat="47.69983297213912" lon="14.623546041548252">
        <ele>468.19999999999999</ele>
        <time>2012-10-21T12:20:01Z</time>
      </trkpt>
      <trkpt lat="47.699913019314408" lon="14.623622987419367">
        <ele>467.39999999999998</ele>
        <time>2012-10-21T12:20:02Z</time>
      </trkpt>
      <trkpt lat="47.7000049687922" lon="14.623698005452752">
        <ele>466.39999999999998</ele>
        <time>2012-10-21T12:20:03Z</time>
      </trkpt>
      <trkpt lat="47.700091972947121" lon="14.623761037364602">
        <ele>465.39999999999998</ele>
        <time>2012-10-21T12:20:04Z</time>
      </trkpt>
      <trkpt lat="47.700179982930422" lon="14.623809987679124">
        <ele>464.39999999999998</ele>
        <time>2012-10-21T12:20:05Z</time>
      </trkpt>
      <trkpt lat="47.700263969600201" lon="14.623819962143898">
        <ele>463.39999999999998</ele>
        <time>2012-10-21T12:20:06Z</time>
      </trkpt>
      <trkpt lat="47.700344016775489" lon="14.623847035691142">
        <ele>462.39999999999998</ele>
        <time>2012-10-21T12:20:07Z</time>
      </trkpt>
      <trkpt lat="47.700408976525068" lon="14.623894980177283">
        <ele>461.60000000000002</ele>
        <time>2012-10-21T12:20:08Z</time>
      </trkpt>
      <trkpt lat="47.700469996780157" lon="14.623960023745894">
        <ele>460.60000000000002</ele>
        <time>2012-10-21T12:20:09Z</time>
      </trkpt>
      <trkpt lat="47.700526993721724" lon="14.624049039557576">
        <ele>459.60000000000002</ele>
        <time>2012-10-21T12:20:10Z</time>
      </trkpt>
      <trkpt lat="47.700577033683658" lon="14.624163033440709">
        <ele>458.60000000000002</ele>
        <time>2012-10-21T12:20:11Z</time>
      </trkpt>
      <trkpt lat="47.700619027018547" lon="14.624289013445377">
        <ele>457.80000000000001</ele>
        <time>2012-10-21T12:20:12Z</time>
      </trkpt>
      <trkpt lat="47.700672000646591" lon="14.624406024813652">
        <ele>457</ele>
        <time>2012-10-21T12:20:13Z</time>
      </trkpt>
      <trkpt lat="47.700722040608525" lon="14.62453099898994">
        <ele>456.19999999999999</ele>
        <time>2012-10-21T12:20:14Z</time>
      </trkpt>
      <trkpt lat="47.700770990923047" lon="14.62465999647975">
        <ele>455.39999999999998</ele>
        <time>2012-10-21T12:20:15Z</time>
      </trkpt>
      <trkpt lat="47.700821030884981" lon="14.62478999979794">
        <ele>454.39999999999998</ele>
        <time>2012-10-21T12:20:16Z</time>
      </trkpt>
      <trkpt lat="47.700870987027884" lon="14.624913968145847">
        <ele>453.39999999999998</ele>
        <time>2012-10-21T12:20:17Z</time>
      </trkpt>
      <trkpt lat="47.700923960655928" lon="14.625030979514122">
        <ele>452.60000000000002</ele>
        <time>2012-10-21T12:20:18Z</time>
      </trkpt>
      <trkpt lat="47.700984980911016" lon="14.625139022246003">
        <ele>450.80000000000001</ele>
        <time>2012-10-21T12:20:19Z</time>
      </trkpt>
      <trkpt lat="47.701046001166105" lon="14.625232983380556">
        <ele>449.80000000000001</ele>
        <time>2012-10-21T12:20:20Z</time>
      </trkpt>
      <trkpt lat="47.701110960915685" lon="14.625314958393574">
        <ele>448.80000000000001</ele>
        <time>2012-10-21T12:20:21Z</time>
      </trkpt>
      <trkpt lat="47.701180027797818" lon="14.625386036932468">
        <ele>447.80000000000001</ele>
        <time>2012-10-21T12:20:22Z</time>
      </trkpt>
      <trkpt lat="47.701255967840552" lon="14.625447979196906">
        <ele>446.80000000000001</ele>
        <time>2012-10-21T12:20:23Z</time>
      </trkpt>
      <trkpt lat="47.701331991702318" lon="14.625503970310092">
        <ele>446</ele>
        <time>2012-10-21T12:20:24Z</time>
      </trkpt>
      <trkpt lat="47.701404998078942" lon="14.625565996393561">
        <ele>445</ele>
        <time>2012-10-21T12:20:25Z</time>
      </trkpt>
      <trkpt lat="47.701476998627186" lon="14.625634979456663">
        <ele>444</ele>
        <time>2012-10-21T12:20:26Z</time>
      </trkpt>
      <trkpt lat="47.70155000500381" lon="14.625727012753487">
        <ele>443.19999999999999</ele>
        <time>2012-10-21T12:20:27Z</time>
      </trkpt>
      <trkpt lat="47.701622005552053" lon="14.625844024121761">
        <ele>442.19999999999999</ele>
        <time>2012-10-21T12:20:28Z</time>
      </trkpt>
      <trkpt lat="47.701694006100297" lon="14.625951983034611">
        <ele>441.39999999999998</ele>
        <time>2012-10-21T12:20:29Z</time>
      </trkpt>
      <trkpt lat="47.701771035790443" lon="14.626065976917744">
        <ele>440.39999999999998</ele>
        <time>2012-10-21T12:20:30Z</time>
      </trkpt>
      <trkpt lat="47.701846975833178" lon="14.626178964972496">
        <ele>439.60000000000002</ele>
        <time>2012-10-21T12:20:31Z</time>
      </trkpt>
      <trkpt lat="47.701922999694943" lon="14.626282984390855">
        <ele>438.60000000000002</ele>
        <time>2012-10-21T12:20:32Z</time>
      </trkpt>
      <trkpt lat="47.7020029630512" lon="14.626381974667311">
        <ele>437.60000000000002</ele>
        <time>2012-10-21T12:20:33Z</time>
      </trkpt>
      <trkpt lat="47.702079992741346" lon="14.626479037106037">
        <ele>436.60000000000002</ele>
        <time>2012-10-21T12:20:34Z</time>
      </trkpt>
      <trkpt lat="47.702156016603112" lon="14.626591019332409">
        <ele>435.80000000000001</ele>
        <time>2012-10-21T12:20:35Z</time>
      </trkpt>
      <trkpt lat="47.702235979959369" lon="14.626711970195174">
        <ele>434.80000000000001</ele>
        <time>2012-10-21T12:20:36Z</time>
      </trkpt>
      <trkpt lat="47.70230496302247" lon="14.626839039847255">
        <ele>433.80000000000001</ele>
        <time>2012-10-21T12:20:37Z</time>
      </trkpt>
      <trkpt lat="47.702370006591082" lon="14.626972982659936">
        <ele>432.80000000000001</ele>
        <time>2012-10-21T12:20:38Z</time>
      </trkpt>
      <trkpt lat="47.70243102684617" lon="14.627112960442901">
        <ele>431.80000000000001</ele>
        <time>2012-10-21T12:20:39Z</time>
      </trkpt>
      <trkpt lat="47.702491963282228" lon="14.627262996509671">
        <ele>430.80000000000001</ele>
        <time>2012-10-21T12:20:40Z</time>
      </trkpt>
      <trkpt lat="47.702552983537316" lon="14.6274100150913">
        <ele>429.80000000000001</ele>
        <time>2012-10-21T12:20:41Z</time>
      </trkpt>
      <trkpt lat="47.702618027105927" lon="14.627554016187787">
        <ele>428.60000000000002</ele>
        <time>2012-10-21T12:20:42Z</time>
      </trkpt>
      <trkpt lat="47.702681981027126" lon="14.627696005627513">
        <ele>427.60000000000002</ele>
        <time>2012-10-21T12:20:43Z</time>
      </trkpt>
      <trkpt lat="47.702739983797073" lon="14.627830032259226">
        <ele>425.19999999999999</ele>
        <time>2012-10-21T12:20:44Z</time>
      </trkpt>
      <trkpt lat="47.702807961031795" lon="14.627954000607133">
        <ele>424.19999999999999</ele>
        <time>2012-10-21T12:20:45Z</time>
      </trkpt>
      <trkpt lat="47.702880967408419" lon="14.628074029460549">
        <ele>423</ele>
        <time>2012-10-21T12:20:46Z</time>
      </trkpt>
      <trkpt lat="47.702956991270185" lon="14.628190035000443">
        <ele>422.19999999999999</ele>
        <time>2012-10-21T12:20:47Z</time>
      </trkpt>
      <trkpt lat="47.70303301513195" lon="14.628293970599771">
        <ele>421.19999999999999</ele>
        <time>2012-10-21T12:20:48Z</time>
      </trkpt>
      <trkpt lat="47.703113984316587" lon="14.628387009724975">
        <ele>420.39999999999998</ele>
        <time>2012-10-21T12:20:49Z</time>
      </trkpt>
      <trkpt lat="47.703194031491876" lon="14.628479965031147">
        <ele>419.39999999999998</ele>
        <time>2012-10-21T12:20:50Z</time>
      </trkpt>
      <trkpt lat="47.70326997153461" lon="14.628562023863196">
        <ele>418.60000000000002</ele>
        <time>2012-10-21T12:20:51Z</time>
      </trkpt>
      <trkpt lat="47.703345995396376" lon="14.628641987219453">
        <ele>418.60000000000002</ele>
        <time>2012-10-21T12:20:52Z</time>
      </trkpt>
      <trkpt lat="47.7035709656775" lon="14.628862012177706">
        <ele>418.19999999999999</ele>
        <time>2012-10-21T12:20:55Z</time>
      </trkpt>
      <trkpt lat="47.703647995367646" lon="14.628923032432795">
        <ele>417.60000000000002</ele>
        <time>2012-10-21T12:20:56Z</time>
      </trkpt>
      <trkpt lat="47.703724019229412" lon="14.628976006060839">
        <ele>417.19999999999999</ele>
        <time>2012-10-21T12:20:57Z</time>
      </trkpt>
      <trkpt lat="47.703812029212713" lon="14.629024034366012">
        <ele>416.80000000000001</ele>
        <time>2012-10-21T12:20:58Z</time>
      </trkpt>
      <trkpt lat="47.70389199256897" lon="14.629063010215759">
        <ele>416.39999999999998</ele>
        <time>2012-10-21T12:20:59Z</time>
      </trkpt>
      <trkpt lat="47.704207990318537" lon="14.629174992442131">
        <ele>416.39999999999998</ele>
        <time>2012-10-21T12:21:03Z</time>
      </trkpt>
      <trkpt lat="47.704360960051417" lon="14.629228971898556">
        <ele>416</ele>
        <time>2012-10-21T12:21:05Z</time>
      </trkpt>
      <trkpt lat="47.704441007226706" lon="14.629256967455149">
        <ele>415.60000000000002</ele>
        <time>2012-10-21T12:21:06Z</time>
      </trkpt>
      <trkpt lat="47.704520970582962" lon="14.629286974668503">
        <ele>415.19999999999999</ele>
        <time>2012-10-21T12:21:07Z</time>
      </trkpt>
      <trkpt lat="47.704593976959586" lon="14.629312958568335">
        <ele>414.80000000000001</ele>
        <time>2012-10-21T12:21:08Z</time>
      </trkpt>
      <trkpt lat="47.704670000821352" lon="14.629337014630437">
        <ele>414.39999999999998</ele>
        <time>2012-10-21T12:21:09Z</time>
      </trkpt>
      <trkpt lat="47.70481500774622" lon="14.629400968551636">
        <ele>414.39999999999998</ele>
        <time>2012-10-21T12:21:11Z</time>
      </trkpt>
      <trkpt lat="47.705307025462389" lon="14.629653012380004">
        <ele>414</ele>
        <time>2012-10-21T12:21:18Z</time>
      </trkpt>
      <trkpt lat="47.705376008525491" lon="14.629675978794694">
        <ele>413.60000000000002</ele>
        <time>2012-10-21T12:21:19Z</time>
      </trkpt>
      <trkpt lat="47.70544096827507" lon="14.629698023200035">
        <ele>413</ele>
        <time>2012-10-21T12:21:20Z</time>
      </trkpt>
      <trkpt lat="47.705509029328823" lon="14.629717972129583">
        <ele>412.60000000000002</ele>
        <time>2012-10-21T12:21:21Z</time>
      </trkpt>
      <trkpt lat="47.705578012391925" lon="14.629733981564641">
        <ele>412.19999999999999</ele>
        <time>2012-10-21T12:21:22Z</time>
      </trkpt>
      <trkpt lat="47.705844976007938" lon="14.62981604039669">
        <ele>412.19999999999999</ele>
        <time>2012-10-21T12:21:26Z</time>
      </trkpt>
      <trkpt lat="47.706347974017262" lon="14.629978984594345">
        <ele>412.19999999999999</ele>
        <time>2012-10-21T12:21:34Z</time>
      </trkpt>
      <trkpt lat="47.706532040610909" lon="14.630055008456111">
        <ele>411.80000000000001</ele>
        <time>2012-10-21T12:21:37Z</time>
      </trkpt>
      <trkpt lat="47.706592977046967" lon="14.630084009841084">
        <ele>411.39999999999998</ele>
        <time>2012-10-21T12:21:38Z</time>
      </trkpt>
      <trkpt lat="47.706653997302055" lon="14.630112005397677">
        <ele>411</ele>
        <time>2012-10-21T12:21:39Z</time>
      </trkpt>
      <trkpt lat="47.706710994243622" lon="14.630145030096173">
        <ele>410.60000000000002</ele>
        <time>2012-10-21T12:21:40Z</time>
      </trkpt>
      <trkpt lat="47.706772014498711" lon="14.630175037309527">
        <ele>410.19999999999999</ele>
        <time>2012-10-21T12:21:41Z</time>
      </trkpt>
      <trkpt lat="47.706833034753799" lon="14.630209989845753">
        <ele>410.19999999999999</ele>
        <time>2012-10-21T12:21:42Z</time>
      </trkpt>
      <trkpt lat="47.707271995022893" lon="14.630446024239063">
        <ele>410.19999999999999</ele>
        <time>2012-10-21T12:21:49Z</time>
      </trkpt>
      <trkpt lat="47.707526972517371" lon="14.630527999252081">
        <ele>410.19999999999999</ele>
        <time>2012-10-21T12:21:53Z</time>
      </trkpt>
      <trkpt lat="47.707592016085982" lon="14.630529005080462">
        <ele>409.60000000000002</ele>
        <time>2012-10-21T12:21:54Z</time>
      </trkpt>
      <trkpt lat="47.707653036341071" lon="14.6305269934237">
        <ele>409.19999999999999</ele>
        <time>2012-10-21T12:21:55Z</time>
      </trkpt>
      <trkpt lat="47.707717996090651" lon="14.630520958453417">
        <ele>408.80000000000001</ele>
        <time>2012-10-21T12:21:56Z</time>
      </trkpt>
      <trkpt lat="47.707779016345739" lon="14.630516013130546">
        <ele>408.39999999999998</ele>
        <time>2012-10-21T12:21:57Z</time>
      </trkpt>
      <trkpt lat="47.707843976095319" lon="14.630514001473784">
        <ele>408</ele>
        <time>2012-10-21T12:21:58Z</time>
      </trkpt>
      <trkpt lat="47.708023013547063" lon="14.630532022565603">
        <ele>408</ele>
        <time>2012-10-21T12:22:01Z</time>
      </trkpt>
      <trkpt lat="47.708080010488629" lon="14.630562029778957">
        <ele>408</ele>
        <time>2012-10-21T12:22:02Z</time>
      </trkpt>
      <trkpt lat="47.708271034061909" lon="14.630744000896811">
        <ele>408</ele>
        <time>2012-10-21T12:22:06Z</time>
      </trkpt>
      <trkpt lat="47.708392990753055" lon="14.630914991721511">
        <ele>408</ele>
        <time>2012-10-21T12:22:09Z</time>
      </trkpt>
      <trkpt lat="47.708465997129679" lon="14.631027979776263">
        <ele>408</ele>
        <time>2012-10-21T12:22:11Z</time>
      </trkpt>
      <trkpt lat="47.708687027916312" lon="14.631416983902454">
        <ele>408</ele>
        <time>2012-10-21T12:22:17Z</time>
      </trkpt>
      <trkpt lat="47.708709994331002" lon="14.631495019420981">
        <ele>408</ele>
        <time>2012-10-21T12:22:18Z</time>
      </trkpt>
      <trkpt lat="47.708732960745692" lon="14.631573976948857">
        <ele>408</ele>
        <time>2012-10-21T12:22:19Z</time>
      </trkpt>
      <trkpt lat="47.708838991820812" lon="14.631958035752177">
        <ele>408</ele>
        <time>2012-10-21T12:22:24Z</time>
      </trkpt>
      <trkpt lat="47.709010988473892" lon="14.632389033213258">
        <ele>408</ele>
        <time>2012-10-21T12:22:30Z</time>
      </trkpt>
      <trkpt lat="47.70909103564918" lon="14.632514007389545">
        <ele>408</ele>
        <time>2012-10-21T12:22:32Z</time>
      </trkpt>
      <trkpt lat="47.709232019260526" lon="14.632663037627935">
        <ele>408</ele>
        <time>2012-10-21T12:22:35Z</time>
      </trkpt>
      <trkpt lat="47.709342995658517" lon="14.632750963792205">
        <ele>407.60000000000002</ele>
        <time>2012-10-21T12:22:37Z</time>
      </trkpt>
      <trkpt lat="47.709404015913606" lon="14.632788011804223">
        <ele>407.19999999999999</ele>
        <time>2012-10-21T12:22:38Z</time>
      </trkpt>
      <trkpt lat="47.70945698954165" lon="14.63282497599721">
        <ele>406.80000000000001</ele>
        <time>2012-10-21T12:22:39Z</time>
      </trkpt>
      <trkpt lat="47.709518009796739" lon="14.632863029837608">
        <ele>406.39999999999998</ele>
        <time>2012-10-21T12:22:40Z</time>
      </trkpt>
      <trkpt lat="47.709576012566686" lon="14.632899994030595">
        <ele>406</ele>
        <time>2012-10-21T12:22:41Z</time>
      </trkpt>
      <trkpt lat="47.709949007257819" lon="14.633162012323737">
        <ele>405.39999999999998</ele>
        <time>2012-10-21T12:22:47Z</time>
      </trkpt>
      <trkpt lat="47.710011033341289" lon="14.633223032578826">
        <ele>404.60000000000002</ele>
        <time>2012-10-21T12:22:48Z</time>
      </trkpt>
      <trkpt lat="47.710068030282855" lon="14.633285980671644">
        <ele>404.19999999999999</ele>
        <time>2012-10-21T12:22:49Z</time>
      </trkpt>
      <trkpt lat="47.710128966718912" lon="14.633350018411875">
        <ele>403.80000000000001</ele>
        <time>2012-10-21T12:22:50Z</time>
      </trkpt>
      <trkpt lat="47.710182024165988" lon="14.633425958454609">
        <ele>403.80000000000001</ele>
        <time>2012-10-21T12:22:51Z</time>
      </trkpt>
      <trkpt lat="47.71027397364378" lon="14.633584963157773">
        <ele>403.80000000000001</ele>
        <time>2012-10-21T12:22:53Z</time>
      </trkpt>
      <trkpt lat="47.71040297113359" lon="14.633841030299664">
        <ele>403.19999999999999</ele>
        <time>2012-10-21T12:22:56Z</time>
      </trkpt>
      <trkpt lat="47.710442030802369" lon="14.633929040282965">
        <ele>402.80000000000001</ele>
        <time>2012-10-21T12:22:57Z</time>
      </trkpt>
      <trkpt lat="47.710475977510214" lon="14.634015960618854">
        <ele>402.39999999999998</ele>
        <time>2012-10-21T12:22:58Z</time>
      </trkpt>
      <trkpt lat="47.71051000803709" lon="14.634106988087296">
        <ele>402</ele>
        <time>2012-10-21T12:22:59Z</time>
      </trkpt>
      <trkpt lat="47.710541021078825" lon="14.634192986413836">
        <ele>401.60000000000002</ele>
        <time>2012-10-21T12:23:00Z</time>
      </trkpt>
      <trkpt lat="47.710761968046427" lon="14.63465197943151">
        <ele>401.60000000000002</ele>
        <time>2012-10-21T12:23:06Z</time>
      </trkpt>
      <trkpt lat="47.711039995774627" lon="14.634960014373064">
        <ele>401.60000000000002</ele>
        <time>2012-10-21T12:23:12Z</time>
      </trkpt>
      <trkpt lat="47.711310982704163" lon="14.635129999369383">
        <ele>401.60000000000002</ele>
        <time>2012-10-21T12:23:18Z</time>
      </trkpt>
      <trkpt lat="47.711533019319177" lon="14.635269977152348">
        <ele>401.60000000000002</ele>
        <time>2012-10-21T12:23:24Z</time>
      </trkpt>
      <trkpt lat="47.711723037064075" lon="14.635451026260853">
        <ele>401.60000000000002</ele>
        <time>2012-10-21T12:23:31Z</time>
      </trkpt>
      <trkpt lat="47.711768969893456" lon="14.635501988232136">
        <ele>402</ele>
        <time>2012-10-21T12:23:33Z</time>
      </trkpt>
      <trkpt lat="47.711792020127177" lon="14.635525960475206">
        <ele>402.39999999999998</ele>
        <time>2012-10-21T12:23:34Z</time>
      </trkpt>
      <trkpt lat="47.711814986541867" lon="14.63555303402245">
        <ele>403</ele>
        <time>2012-10-21T12:23:35Z</time>
      </trkpt>
      <trkpt lat="47.711834013462067" lon="14.635579017922282">
        <ele>403.39999999999998</ele>
        <time>2012-10-21T12:23:36Z</time>
      </trkpt>
      <trkpt lat="47.711856979876757" lon="14.635601984336972">
        <ele>403.80000000000001</ele>
        <time>2012-10-21T12:23:37Z</time>
      </trkpt>
      <trkpt lat="47.711922023445368" lon="14.635669039562345">
        <ele>403.80000000000001</ele>
        <time>2012-10-21T12:23:40Z</time>
      </trkpt>
      <trkpt lat="47.712036017328501" lon="14.635770041495562">
        <ele>404.19999999999999</ele>
        <time>2012-10-21T12:23:45Z</time>
      </trkpt>
      <trkpt lat="47.712058983743191" lon="14.635785967111588">
        <ele>404.60000000000002</ele>
        <time>2012-10-21T12:23:46Z</time>
      </trkpt>
      <trkpt lat="47.712082033976912" lon="14.635807005688548">
        <ele>405</ele>
        <time>2012-10-21T12:23:47Z</time>
      </trkpt>
      <trkpt lat="47.71210097707808" lon="14.635825026780367">
        <ele>405.39999999999998</ele>
        <time>2012-10-21T12:23:48Z</time>
      </trkpt>
      <trkpt lat="47.712127966806293" lon="14.635842964053154">
        <ele>405.80000000000001</ele>
        <time>2012-10-21T12:23:49Z</time>
      </trkpt>
      <trkpt lat="47.71226903423667" lon="14.635936003178358">
        <ele>405.80000000000001</ele>
        <time>2012-10-21T12:23:55Z</time>
      </trkpt>
      <trkpt lat="47.712432984262705" lon="14.636040022596717">
        <ele>406.60000000000002</ele>
        <time>2012-10-21T12:24:02Z</time>
      </trkpt>
      <trkpt lat="47.712456034496427" lon="14.636049997061491">
        <ele>407</ele>
        <time>2012-10-21T12:24:03Z</time>
      </trkpt>
      <trkpt lat="47.712479000911117" lon="14.636065000668168">
        <ele>407.39999999999998</ele>
        <time>2012-10-21T12:24:04Z</time>
      </trkpt>
      <trkpt lat="47.712501967325807" lon="14.636086039245129">
        <ele>408</ele>
        <time>2012-10-21T12:24:05Z</time>
      </trkpt>
      <trkpt lat="47.71259299479425" lon="14.636156028136611">
        <ele>408</ele>
        <time>2012-10-21T12:24:09Z</time>
      </trkpt>
      <trkpt lat="47.712738001719117" lon="14.636304974555969">
        <ele>408</ele>
        <time>2012-10-21T12:24:16Z</time>
      </trkpt>
      <trkpt lat="47.712779995054007" lon="14.636353002861142">
        <ele>408.39999999999998</ele>
        <time>2012-10-21T12:24:18Z</time>
      </trkpt>
      <trkpt lat="47.712799021974206" lon="14.636373035609722">
        <ele>408.80000000000001</ele>
        <time>2012-10-21T12:24:19Z</time>
      </trkpt>
      <trkpt lat="47.712817965075374" lon="14.636394996196032">
        <ele>409.19999999999999</ele>
        <time>2012-10-21T12:24:20Z</time>
      </trkpt>
      <trkpt lat="47.712845038622618" lon="14.636417040601373">
        <ele>409.60000000000002</ele>
        <time>2012-10-21T12:24:21Z</time>
      </trkpt>
      <trkpt lat="47.712859958410263" lon="14.636440007016063">
        <ele>410</ele>
        <time>2012-10-21T12:24:22Z</time>
      </trkpt>
      <trkpt lat="47.712914021685719" lon="14.636517958715558">
        <ele>410</ele>
        <time>2012-10-21T12:24:25Z</time>
      </trkpt>
      <trkpt lat="47.713028015568852" lon="14.636678975075483">
        <ele>410.39999999999998</ele>
        <time>2012-10-21T12:24:32Z</time>
      </trkpt>
      <trkpt lat="47.713043019175529" lon="14.636705964803696">
        <ele>410.80000000000001</ele>
        <time>2012-10-21T12:24:33Z</time>
      </trkpt>
      <trkpt lat="47.713055005297065" lon="14.636733960360289">
        <ele>411.19999999999999</ele>
        <time>2012-10-21T12:24:34Z</time>
      </trkpt>
      <trkpt lat="47.713070008903742" lon="14.636760028079152">
        <ele>411.80000000000001</ele>
        <time>2012-10-21T12:24:35Z</time>
      </trkpt>
      <trkpt lat="47.713089035823941" lon="14.636781988665462">
        <ele>412.19999999999999</ele>
        <time>2012-10-21T12:24:36Z</time>
      </trkpt>
      <trkpt lat="47.713138991966844" lon="14.636891037225723">
        <ele>412.19999999999999</ele>
        <time>2012-10-21T12:24:40Z</time>
      </trkpt>
      <trkpt lat="47.713242005556822" lon="14.637102009728551">
        <ele>412.19999999999999</ele>
        <time>2012-10-21T12:24:48Z</time>
      </trkpt>
      <trkpt lat="47.713261032477021" lon="14.637124976143241">
        <ele>412.60000000000002</ele>
        <time>2012-10-21T12:24:49Z</time>
      </trkpt>
      <trkpt lat="47.713272012770176" lon="14.637151965871453">
        <ele>413</ele>
        <time>2012-10-21T12:24:50Z</time>
      </trkpt>
      <trkpt lat="47.713287016376853" lon="14.637178033590317">
        <ele>413.39999999999998</ele>
        <time>2012-10-21T12:24:51Z</time>
      </trkpt>
      <trkpt lat="47.713299002498388" lon="14.637204017490149">
        <ele>414.19999999999999</ele>
        <time>2012-10-21T12:24:52Z</time>
      </trkpt>
      <trkpt lat="47.713360022753477" lon="14.637304013594985">
        <ele>414.19999999999999</ele>
        <time>2012-10-21T12:24:56Z</time>
      </trkpt>
      <trkpt lat="47.713511986657977" lon="14.637526972219348">
        <ele>414.19999999999999</ele>
        <time>2012-10-21T12:25:06Z</time>
      </trkpt>
      <trkpt lat="47.713547023013234" lon="14.637567959725857">
        <ele>414.60000000000002</ele>
        <time>2012-10-21T12:25:08Z</time>
      </trkpt>
      <trkpt lat="47.713565966114402" lon="14.637587992474437">
        <ele>415</ele>
        <time>2012-10-21T12:25:09Z</time>
      </trkpt>
      <trkpt lat="47.713584993034601" lon="14.637604001909494">
        <ele>415.39999999999998</ele>
        <time>2012-10-21T12:25:10Z</time>
      </trkpt>
      <trkpt lat="47.713599996641278" lon="14.637621017172933">
        <ele>415.80000000000001</ele>
        <time>2012-10-21T12:25:11Z</time>
      </trkpt>
      <trkpt lat="47.713619023561478" lon="14.637635014951229">
        <ele>416.19999999999999</ele>
        <time>2012-10-21T12:25:12Z</time>
      </trkpt>
      <trkpt lat="47.713661016896367" lon="14.63767901994288">
        <ele>416.19999999999999</ele>
        <time>2012-10-21T12:25:15Z</time>
      </trkpt>
      <trkpt lat="47.713828990235925" lon="14.637834001332521">
        <ele>416.19999999999999</ele>
        <time>2012-10-21T12:25:24Z</time>
      </trkpt>
      <trkpt lat="47.713852040469646" lon="14.637841964140534">
        <ele>416.60000000000002</ele>
        <time>2012-10-21T12:25:25Z</time>
      </trkpt>
      <trkpt lat="47.713875006884336" lon="14.637849004939198">
        <ele>417</ele>
        <time>2012-10-21T12:25:26Z</time>
      </trkpt>
      <trkpt lat="47.713901996612549" lon="14.637855039909482">
        <ele>417.39999999999998</ele>
        <time>2012-10-21T12:25:27Z</time>
      </trkpt>
      <trkpt lat="47.713927980512381" lon="14.637867026031017">
        <ele>418</ele>
        <time>2012-10-21T12:25:28Z</time>
      </trkpt>
      <trkpt lat="47.71394700743258" lon="14.637869959697127">
        <ele>418.39999999999998</ele>
        <time>2012-10-21T12:25:29Z</time>
      </trkpt>
      <trkpt lat="47.714011967182159" lon="14.637885969132185">
        <ele>418.39999999999998</ele>
        <time>2012-10-21T12:25:32Z</time>
      </trkpt>
      <trkpt lat="47.714160997420549" lon="14.637941960245371">
        <ele>418.80000000000001</ele>
        <time>2012-10-21T12:25:40Z</time>
      </trkpt>
      <trkpt lat="47.714180024340749" lon="14.637944977730513">
        <ele>419.19999999999999</ele>
        <time>2012-10-21T12:25:41Z</time>
      </trkpt>
      <trkpt lat="47.714198967441916" lon="14.637952018529177">
        <ele>420</ele>
        <time>2012-10-21T12:25:42Z</time>
      </trkpt>
      <trkpt lat="47.714211037382483" lon="14.637950006872416">
        <ele>420.39999999999998</ele>
        <time>2012-10-21T12:25:43Z</time>
      </trkpt>
      <trkpt lat="47.714310027658939" lon="14.637955036014318">
        <ele>420.39999999999998</ele>
        <time>2012-10-21T12:25:48Z</time>
      </trkpt>
      <trkpt lat="47.714427961036563" lon="14.63795998133719">
        <ele>420.80000000000001</ele>
        <time>2012-10-21T12:25:54Z</time>
      </trkpt>
      <trkpt lat="47.714446987956762" lon="14.63796098716557">
        <ele>421.19999999999999</ele>
        <time>2012-10-21T12:25:55Z</time>
      </trkpt>
      <trkpt lat="47.714466014876962" lon="14.637955036014318">
        <ele>421.60000000000002</ele>
        <time>2012-10-21T12:25:56Z</time>
      </trkpt>
      <trkpt lat="47.714488981291652" lon="14.637955036014318">
        <ele>422</ele>
        <time>2012-10-21T12:25:57Z</time>
      </trkpt>
      <trkpt lat="47.714512031525373" lon="14.637954030185938">
        <ele>422.39999999999998</ele>
        <time>2012-10-21T12:25:58Z</time>
      </trkpt>
      <trkpt lat="47.714596018195152" lon="14.637958975508809">
        <ele>422.39999999999998</ele>
        <time>2012-10-21T12:26:02Z</time>
      </trkpt>
      <trkpt lat="47.714675981551409" lon="14.637926034629345">
        <ele>423.39999999999998</ele>
        <time>2012-10-21T12:26:07Z</time>
      </trkpt>
      <trkpt lat="47.714695008471608" lon="14.637921005487442">
        <ele>423.80000000000001</ele>
        <time>2012-10-21T12:26:08Z</time>
      </trkpt>
      <trkpt lat="47.714714035391808" lon="14.63791698217392">
        <ele>424.19999999999999</ele>
        <time>2012-10-21T12:26:09Z</time>
      </trkpt>
      <trkpt lat="47.714725015684962" lon="14.637910025194287">
        <ele>424.60000000000002</ele>
        <time>2012-10-21T12:26:10Z</time>
      </trkpt>
      <trkpt lat="47.71482802927494" lon="14.637861996889114">
        <ele>424.60000000000002</ele>
        <time>2012-10-21T12:26:17Z</time>
      </trkpt>
      <trkpt lat="47.714877985417843" lon="14.637835007160902">
        <ele>425</ele>
        <time>2012-10-21T12:26:20Z</time>
      </trkpt>
      <trkpt lat="47.714897012338042" lon="14.637827966362238">
        <ele>425.39999999999998</ele>
        <time>2012-10-21T12:26:21Z</time>
      </trkpt>
      <trkpt lat="47.714912015944719" lon="14.637822015210986">
        <ele>425.80000000000001</ele>
        <time>2012-10-21T12:26:22Z</time>
      </trkpt>
      <trkpt lat="47.714928025379777" lon="14.637816986069083">
        <ele>426.19999999999999</ele>
        <time>2012-10-21T12:26:23Z</time>
      </trkpt>
      <trkpt lat="47.714943028986454" lon="14.637811034917831">
        <ele>426.80000000000001</ele>
        <time>2012-10-21T12:26:24Z</time>
      </trkpt>
      <trkpt lat="47.714973036199808" lon="14.637797037139535">
        <ele>426.80000000000001</ele>
        <time>2012-10-21T12:26:26Z</time>
      </trkpt>
      <trkpt lat="47.715084012597799" lon="14.637730987742543">
        <ele>427.19999999999999</ele>
        <time>2012-10-21T12:26:33Z</time>
      </trkpt>
      <trkpt lat="47.715099016204476" lon="14.637734005227685">
        <ele>427.60000000000002</ele>
        <time>2012-10-21T12:26:34Z</time>
      </trkpt>
      <trkpt lat="47.715115025639534" lon="14.637730987742543">
        <ele>428</ele>
        <time>2012-10-21T12:26:35Z</time>
      </trkpt>
      <trkpt lat="47.715130029246211" lon="14.637719001621008">
        <ele>428.39999999999998</ele>
        <time>2012-10-21T12:26:36Z</time>
      </trkpt>
      <trkpt lat="47.715145032852888" lon="14.637711960822344">
        <ele>428.80000000000001</ele>
        <time>2012-10-21T12:26:37Z</time>
      </trkpt>
      <trkpt lat="47.715205969288945" lon="14.637683965265751">
        <ele>428.80000000000001</ele>
        <time>2012-10-21T12:26:41Z</time>
      </trkpt>
      <trkpt lat="47.715278975665569" lon="14.63765999302268">
        <ele>429.19999999999999</ele>
        <time>2012-10-21T12:26:45Z</time>
      </trkpt>
      <trkpt lat="47.715298002585769" lon="14.637657981365919">
        <ele>429.60000000000002</ele>
        <time>2012-10-21T12:26:46Z</time>
      </trkpt>
      <trkpt lat="47.715313006192446" lon="14.637654963880777">
        <ele>430</ele>
        <time>2012-10-21T12:26:47Z</time>
      </trkpt>
      <trkpt lat="47.715328009799123" lon="14.637653036043048">
        <ele>430.39999999999998</ele>
        <time>2012-10-21T12:26:48Z</time>
      </trkpt>
      <trkpt lat="47.715347036719322" lon="14.637651024386287">
        <ele>430.80000000000001</ele>
        <time>2012-10-21T12:26:49Z</time>
      </trkpt>
      <trkpt lat="47.715465975925326" lon="14.637640966102481">
        <ele>430.80000000000001</ele>
        <time>2012-10-21T12:26:56Z</time>
      </trkpt>
      <trkpt lat="47.715485002845526" lon="14.637647001072764">
        <ele>431.19999999999999</ele>
        <time>2012-10-21T12:26:57Z</time>
      </trkpt>
      <trkpt lat="47.715500006452203" lon="14.637650018557906">
        <ele>431.80000000000001</ele>
        <time>2012-10-21T12:26:58Z</time>
      </trkpt>
      <trkpt lat="47.71551501005888" lon="14.637653036043048">
        <ele>432.19999999999999</ele>
        <time>2012-10-21T12:26:59Z</time>
      </trkpt>
      <trkpt lat="47.715534036979079" lon="14.637651024386287">
        <ele>432.60000000000002</ele>
        <time>2012-10-21T12:27:00Z</time>
      </trkpt>
      <trkpt lat="47.715549040585756" lon="14.637652030214667">
        <ele>433</ele>
        <time>2012-10-21T12:27:01Z</time>
      </trkpt>
      <trkpt lat="47.715598996728659" lon="14.637663010507822">
        <ele>433</ele>
        <time>2012-10-21T12:27:04Z</time>
      </trkpt>
      <trkpt lat="47.715675020590425" lon="14.637687988579273">
        <ele>433.39999999999998</ele>
        <time>2012-10-21T12:27:09Z</time>
      </trkpt>
      <trkpt lat="47.715693963691592" lon="14.637694023549557">
        <ele>433.80000000000001</ele>
        <time>2012-10-21T12:27:10Z</time>
      </trkpt>
      <trkpt lat="47.715706033632159" lon="14.637699974700809">
        <ele>434.19999999999999</ele>
        <time>2012-10-21T12:27:11Z</time>
      </trkpt>
      <trkpt lat="47.715717013925314" lon="14.637708021327853">
        <ele>434.80000000000001</ele>
        <time>2012-10-21T12:27:12Z</time>
      </trkpt>
      <trkpt lat="47.715729000046849" lon="14.637717995792627">
        <ele>435.19999999999999</ele>
        <time>2012-10-21T12:27:13Z</time>
      </trkpt>
      <trkpt lat="47.715820027515292" lon="14.637812962755561">
        <ele>436</ele>
        <time>2012-10-21T12:27:21Z</time>
      </trkpt>
      <trkpt lat="47.715832013636827" lon="14.637829978018999">
        <ele>436.39999999999998</ele>
        <time>2012-10-21T12:27:22Z</time>
      </trkpt>
      <trkpt lat="47.715847017243505" lon="14.637846993282437">
        <ele>436.80000000000001</ele>
        <time>2012-10-21T12:27:23Z</time>
      </trkpt>
      <trkpt lat="47.715857997536659" lon="14.637865014374256">
        <ele>437.19999999999999</ele>
        <time>2012-10-21T12:27:24Z</time>
      </trkpt>
      <trkpt lat="47.715899990871549" lon="14.637931985780597">
        <ele>437.19999999999999</ele>
        <time>2012-10-21T12:27:28Z</time>
      </trkpt>
      <trkpt lat="47.715961011126637" lon="14.638004992157221">
        <ele>437.60000000000002</ele>
        <time>2012-10-21T12:27:33Z</time>
      </trkpt>
      <trkpt lat="47.715972997248173" lon="14.638021001592278">
        <ele>438</ele>
        <time>2012-10-21T12:27:34Z</time>
      </trkpt>
      <trkpt lat="47.715983977541327" lon="14.638039022684097">
        <ele>438.39999999999998</ele>
        <time>2012-10-21T12:27:35Z</time>
      </trkpt>
      <trkpt lat="47.716003004461527" lon="14.638054026290774">
        <ele>439</ele>
        <time>2012-10-21T12:27:36Z</time>
      </trkpt>
      <trkpt lat="47.716014990583062" lon="14.63806701824069">
        <ele>439.39999999999998</ele>
        <time>2012-10-21T12:27:37Z</time>
      </trkpt>
      <trkpt lat="47.716061007231474" lon="14.638125021010637">
        <ele>439.39999999999998</ele>
        <time>2012-10-21T12:27:41Z</time>
      </trkpt>
      <trkpt lat="47.716076010838151" lon="14.638267010450363">
        <ele>439.39999999999998</ele>
        <time>2012-10-21T12:27:48Z</time>
      </trkpt>
      <trkpt lat="47.716076010838151" lon="14.638320989906788">
        <ele>439.80000000000001</ele>
        <time>2012-10-21T12:27:51Z</time>
      </trkpt>
      <trkpt lat="47.716064024716616" lon="14.638339010998607">
        <ele>440.19999999999999</ele>
        <time>2012-10-21T12:27:52Z</time>
      </trkpt>
      <trkpt lat="47.716049021109939" lon="14.638360971584916">
        <ele>440.60000000000002</ele>
        <time>2012-10-21T12:27:53Z</time>
      </trkpt>
      <trkpt lat="47.716041980311275" lon="14.638385027647018">
        <ele>441</ele>
        <time>2012-10-21T12:27:54Z</time>
      </trkpt>
      <trkpt lat="47.716034017503262" lon="14.638412017375231">
        <ele>441.39999999999998</ele>
        <time>2012-10-21T12:27:55Z</time>
      </trkpt>
      <trkpt lat="47.71598800085485" lon="14.638546966016293">
        <ele>441.39999999999998</ele>
        <time>2012-10-21T12:28:01Z</time>
      </trkpt>
      <trkpt lat="47.715980960056186" lon="14.638716029003263">
        <ele>441.39999999999998</ele>
        <time>2012-10-21T12:28:08Z</time>
      </trkpt>
      <trkpt lat="47.715972997248173" lon="14.638770008459687">
        <ele>442.19999999999999</ele>
        <time>2012-10-21T12:28:10Z</time>
      </trkpt>
      <trkpt lat="47.71596503444016" lon="14.638794986531138">
        <ele>442.80000000000001</ele>
        <time>2012-10-21T12:28:11Z</time>
      </trkpt>
      <trkpt lat="47.715961011126637" lon="14.63882097043097">
        <ele>443.19999999999999</ele>
        <time>2012-10-21T12:28:12Z</time>
      </trkpt>
      <trkpt lat="47.715957993641496" lon="14.638846032321453">
        <ele>443.60000000000002</ele>
        <time>2012-10-21T12:28:13Z</time>
      </trkpt>
      <trkpt lat="47.715950030833483" lon="14.638898000121117">
        <ele>443.60000000000002</ele>
        <time>2012-10-21T12:28:15Z</time>
      </trkpt>
      <trkpt lat="47.715926980599761" lon="14.639092963188887">
        <ele>443.60000000000002</ele>
        <time>2012-10-21T12:28:22Z</time>
      </trkpt>
      <trkpt lat="47.715911976993084" lon="14.639307959005237">
        <ele>444</ele>
        <time>2012-10-21T12:28:29Z</time>
      </trkpt>
      <trkpt lat="47.715908037498593" lon="14.639338972046971">
        <ele>444.39999999999998</ele>
        <time>2012-10-21T12:28:30Z</time>
      </trkpt>
      <trkpt lat="47.715908037498593" lon="14.639369985088706">
        <ele>444.80000000000001</ele>
        <time>2012-10-21T12:28:31Z</time>
      </trkpt>
      <trkpt lat="47.715908037498593" lon="14.639400998130441">
        <ele>445.19999999999999</ele>
        <time>2012-10-21T12:28:32Z</time>
      </trkpt>
      <trkpt lat="47.715911976993084" lon="14.639437962323427">
        <ele>445.60000000000002</ele>
        <time>2012-10-21T12:28:33Z</time>
      </trkpt>
      <trkpt lat="47.71592304110527" lon="14.639604007825255">
        <ele>445.60000000000002</ele>
        <time>2012-10-21T12:28:38Z</time>
      </trkpt>
      <trkpt lat="47.715957993641496" lon="14.639907013624907">
        <ele>445.60000000000002</ele>
        <time>2012-10-21T12:28:47Z</time>
      </trkpt>
      <trkpt lat="47.715977020561695" lon="14.640109017491341">
        <ele>445.60000000000002</ele>
        <time>2012-10-21T12:28:54Z</time>
      </trkpt>
      <trkpt lat="47.716014990583062" lon="14.640362989157438">
        <ele>445.60000000000002</ele>
        <time>2012-10-21T12:29:00Z</time>
      </trkpt>
      <trkpt lat="47.716080034151673" lon="14.640757022425532">
        <ele>445.60000000000002</ele>
        <time>2012-10-21T12:29:08Z</time>
      </trkpt>
      <trkpt lat="47.716148011386395" lon="14.641043012961745">
        <ele>446</ele>
        <time>2012-10-21T12:29:14Z</time>
      </trkpt>
      <trkpt lat="47.71615999750793" lon="14.641086012125015">
        <ele>446.39999999999998</ele>
        <time>2012-10-21T12:29:15Z</time>
      </trkpt>
      <trkpt lat="47.716167038306594" lon="14.641128005459905">
        <ele>446.80000000000001</ele>
        <time>2012-10-21T12:29:16Z</time>
      </trkpt>
      <trkpt lat="47.71618296392262" lon="14.641167987138033">
        <ele>447.19999999999999</ele>
        <time>2012-10-21T12:29:17Z</time>
      </trkpt>
      <trkpt lat="47.716197967529297" lon="14.641211992129683">
        <ele>447.60000000000002</ele>
        <time>2012-10-21T12:29:18Z</time>
      </trkpt>
      <trkpt lat="47.716305004432797" lon="14.641460012644529">
        <ele>447.60000000000002</ele>
        <time>2012-10-21T12:29:24Z</time>
      </trkpt>
      <trkpt lat="47.716357978060842" lon="14.641582975164056">
        <ele>448</ele>
        <time>2012-10-21T12:29:27Z</time>
      </trkpt>
      <trkpt lat="47.716372981667519" lon="14.641623040661216">
        <ele>448.39999999999998</ele>
        <time>2012-10-21T12:29:28Z</time>
      </trkpt>
      <trkpt lat="47.71639603190124" lon="14.641658999025822">
        <ele>448.80000000000001</ele>
        <time>2012-10-21T12:29:29Z</time>
      </trkpt>
      <trkpt lat="47.716414975002408" lon="14.641695963218808">
        <ele>449.19999999999999</ele>
        <time>2012-10-21T12:29:30Z</time>
      </trkpt>
      <trkpt lat="47.71643802523613" lon="14.641733011230826">
        <ele>449.60000000000002</ele>
        <time>2012-10-21T12:29:31Z</time>
      </trkpt>
      <trkpt lat="47.716480018571019" lon="14.641804005950689">
        <ele>449.60000000000002</ele>
        <time>2012-10-21T12:29:33Z</time>
      </trkpt>
      <trkpt lat="47.716682022437453" lon="14.642097959294915">
        <ele>450</ele>
        <time>2012-10-21T12:29:42Z</time>
      </trkpt>
      <trkpt lat="47.716704988852143" lon="14.64212997816503">
        <ele>450.39999999999998</ele>
        <time>2012-10-21T12:29:43Z</time>
      </trkpt>
      <trkpt lat="47.716728039085865" lon="14.642160991206765">
        <ele>450.80000000000001</ele>
        <time>2012-10-21T12:29:44Z</time>
      </trkpt>
      <trkpt lat="47.716751005500555" lon="14.642194015905261">
        <ele>451.19999999999999</ele>
        <time>2012-10-21T12:29:45Z</time>
      </trkpt>
      <trkpt lat="47.716773971915245" lon="14.642227040603757">
        <ele>451.60000000000002</ele>
        <time>2012-10-21T12:29:46Z</time>
      </trkpt>
      <trkpt lat="47.716896012425423" lon="14.642385961487889">
        <ele>451.60000000000002</ele>
        <time>2012-10-21T12:29:51Z</time>
      </trkpt>
      <trkpt lat="47.717144032940269" lon="14.642683016136289">
        <ele>451.60000000000002</ele>
        <time>2012-10-21T12:30:00Z</time>
      </trkpt>
      <trkpt lat="47.717346036806703" lon="14.642916033044457">
        <ele>451.60000000000002</ele>
        <time>2012-10-21T12:30:07Z</time>
      </trkpt>
      <trkpt lat="47.717620963230729" lon="14.643236976116896">
        <ele>451.60000000000002</ele>
        <time>2012-10-21T12:30:16Z</time>
      </trkpt>
      <trkpt lat="47.717773010954261" lon="14.643440991640091">
        <ele>451.60000000000002</ele>
        <time>2012-10-21T12:30:21Z</time>
      </trkpt>
      <trkpt lat="47.717898990958929" lon="14.643628997728229">
        <ele>451.60000000000002</ele>
        <time>2012-10-21T12:30:25Z</time>
      </trkpt>
      <trkpt lat="47.718169977888465" lon="14.644098971039057">
        <ele>451.60000000000002</ele>
        <time>2012-10-21T12:30:34Z</time>
      </trkpt>
      <trkpt lat="47.718425961211324" lon="14.644392002373934">
        <ele>451.60000000000002</ele>
        <time>2012-10-21T12:30:41Z</time>
      </trkpt>
      <trkpt lat="47.718765009194613" lon="14.644691990688443">
        <ele>451.60000000000002</ele>
        <time>2012-10-21T12:30:50Z</time>
      </trkpt>
      <trkpt lat="47.719013029709458" lon="14.644914027303457">
        <ele>451.60000000000002</ele>
        <time>2012-10-21T12:30:57Z</time>
      </trkpt>
      <trkpt lat="47.719402033835649" lon="14.645279981195927">
        <ele>451.60000000000002</ele>
        <time>2012-10-21T12:31:08Z</time>
      </trkpt>
      <trkpt lat="47.719897991046309" lon="14.645712990313768">
        <ele>451.60000000000002</ele>
        <time>2012-10-21T12:31:20Z</time>
      </trkpt>
      <trkpt lat="47.720337035134435" lon="14.646051032468677">
        <ele>451.60000000000002</ele>
        <time>2012-10-21T12:31:29Z</time>
      </trkpt>
      <trkpt lat="47.720707012340426" lon="14.646378010511398">
        <ele>451.60000000000002</ele>
        <time>2012-10-21T12:31:37Z</time>
      </trkpt>
      <trkpt lat="47.720775995403528" lon="14.646488986909389">
        <ele>451.60000000000002</ele>
        <time>2012-10-21T12:31:39Z</time>
      </trkpt>
      <trkpt lat="47.720867022871971" lon="14.646666012704372">
        <ele>451.60000000000002</ele>
        <time>2012-10-21T12:31:42Z</time>
      </trkpt>
      <trkpt lat="47.721103979274631" lon="14.647159036248922">
        <ele>451.60000000000002</ele>
        <time>2012-10-21T12:31:50Z</time>
      </trkpt>
      <trkpt lat="47.721329033374786" lon="14.647625992074609">
        <ele>451.60000000000002</ele>
        <time>2012-10-21T12:31:58Z</time>
      </trkpt>
      <trkpt lat="47.721564983949065" lon="14.648069981485605">
        <ele>451.60000000000002</ele>
        <time>2012-10-21T12:32:06Z</time>
      </trkpt>
      <trkpt lat="47.72174502722919" lon="14.648374998942018">
        <ele>451.60000000000002</ele>
        <time>2012-10-21T12:32:11Z</time>
      </trkpt>
      <trkpt lat="47.721839994192123" lon="14.648473989218473">
        <ele>451.60000000000002</ele>
        <time>2012-10-21T12:32:13Z</time>
      </trkpt>
      <trkpt lat="47.722255988046527" lon="14.648871961981058">
        <ele>451.60000000000002</ele>
        <time>2012-10-21T12:32:21Z</time>
      </trkpt>
      <trkpt lat="47.72234701551497" lon="14.648996014147997">
        <ele>451.60000000000002</ele>
        <time>2012-10-21T12:32:23Z</time>
      </trkpt>
      <trkpt lat="47.722468972206116" lon="14.649192988872528">
        <ele>451.60000000000002</ele>
        <time>2012-10-21T12:32:26Z</time>
      </trkpt>
      <trkpt lat="47.722686985507607" lon="14.64956296607852">
        <ele>451.60000000000002</ele>
        <time>2012-10-21T12:32:32Z</time>
      </trkpt>
      <trkpt lat="47.722716992720962" lon="14.649590039625764">
        <ele>451.60000000000002</ele>
        <time>2012-10-21T12:32:33Z</time>
      </trkpt>
      <trkpt lat="47.722812965512276" lon="14.649604959413409">
        <ele>451.60000000000002</ele>
        <time>2012-10-21T12:32:35Z</time>
      </trkpt>
      <trkpt lat="47.722915979102254" lon="14.649575036019087">
        <ele>451.60000000000002</ele>
        <time>2012-10-21T12:32:37Z</time>
      </trkpt>
      <trkpt lat="47.723068026825786" lon="14.649516027420759">
        <ele>451.60000000000002</ele>
        <time>2012-10-21T12:32:40Z</time>
      </trkpt>
      <trkpt lat="47.723495000973344" lon="14.649335984140635">
        <ele>451.60000000000002</ele>
        <time>2012-10-21T12:32:48Z</time>
      </trkpt>
      <trkpt lat="47.723674960434437" lon="14.649292984977365">
        <ele>451.60000000000002</ele>
        <time>2012-10-21T12:32:51Z</time>
      </trkpt>
      <trkpt lat="47.72372399456799" lon="14.64930203743279">
        <ele>451.60000000000002</ele>
        <time>2012-10-21T12:32:52Z</time>
      </trkpt>
      <trkpt lat="47.724006967619061" lon="14.64934797026217">
        <ele>451.60000000000002</ele>
        <time>2012-10-21T12:32:57Z</time>
      </trkpt>
      <trkpt lat="47.724063964560628" lon="14.649382000789046">
        <ele>451.60000000000002</ele>
        <time>2012-10-21T12:32:58Z</time>
      </trkpt>
      <trkpt lat="47.724220035597682" lon="14.649536982178688">
        <ele>451.19999999999999</ele>
        <time>2012-10-21T12:33:01Z</time>
      </trkpt>
      <trkpt lat="47.724269991740584" lon="14.649602025747299">
        <ele>450.80000000000001</ele>
        <time>2012-10-21T12:33:02Z</time>
      </trkpt>
      <trkpt lat="47.724319025874138" lon="14.649675032123923">
        <ele>450.39999999999998</ele>
        <time>2012-10-21T12:33:03Z</time>
      </trkpt>
      <trkpt lat="47.724373005330563" lon="14.649747032672167">
        <ele>450</ele>
        <time>2012-10-21T12:33:04Z</time>
      </trkpt>
      <trkpt lat="47.724422039464116" lon="14.64982196688652">
        <ele>449.60000000000002</ele>
        <time>2012-10-21T12:33:05Z</time>
      </trkpt>
      <trkpt lat="47.724479958415031" lon="14.64990402571857">
        <ele>449.19999999999999</ele>
        <time>2012-10-21T12:33:06Z</time>
      </trkpt>
      <trkpt lat="47.724528992548585" lon="14.64997099712491">
        <ele>448.60000000000002</ele>
        <time>2012-10-21T12:33:07Z</time>
      </trkpt>
      <trkpt lat="47.724575009196997" lon="14.650041991844773">
        <ele>448.19999999999999</ele>
        <time>2012-10-21T12:33:08Z</time>
      </trkpt>
      <trkpt lat="47.724612979218364" lon="14.650110974907875">
        <ele>447.80000000000001</ele>
        <time>2012-10-21T12:33:09Z</time>
      </trkpt>
      <trkpt lat="47.724639968946576" lon="14.650183981284499">
        <ele>447.39999999999998</ele>
        <time>2012-10-21T12:33:10Z</time>
      </trkpt>
      <trkpt lat="47.724663019180298" lon="14.65024801902473">
        <ele>447</ele>
        <time>2012-10-21T12:33:11Z</time>
      </trkpt>
      <trkpt lat="47.724678022786975" lon="14.650303004309535">
        <ele>446.60000000000002</ele>
        <time>2012-10-21T12:33:12Z</time>
      </trkpt>
      <trkpt lat="47.724685985594988" lon="14.650349020957947">
        <ele>446.19999999999999</ele>
        <time>2012-10-21T12:33:13Z</time>
      </trkpt>
      <trkpt lat="47.724693026393652" lon="14.650390008464456">
        <ele>445.80000000000001</ele>
        <time>2012-10-21T12:33:14Z</time>
      </trkpt>
      <trkpt lat="47.72470903582871" lon="14.650430995970964">
        <ele>445.39999999999998</ele>
        <time>2012-10-21T12:33:15Z</time>
      </trkpt>
      <trkpt lat="47.724738959223032" lon="14.650461003184319">
        <ele>445.39999999999998</ele>
        <time>2012-10-21T12:33:16Z</time>
      </trkpt>
      <trkpt lat="47.724929982796311" lon="14.650457985699177">
        <ele>445.39999999999998</ele>
        <time>2012-10-21T12:33:20Z</time>
      </trkpt>
      <trkpt lat="47.7252690307796" lon="14.650360001251101">
        <ele>445.39999999999998</ele>
        <time>2012-10-21T12:33:26Z</time>
      </trkpt>
      <trkpt lat="47.725444966927171" lon="14.650318007916212">
        <ele>444.80000000000001</ele>
        <time>2012-10-21T12:33:29Z</time>
      </trkpt>
      <trkpt lat="47.72550598718226" lon="14.650309039279819">
        <ele>444.39999999999998</ele>
        <time>2012-10-21T12:33:30Z</time>
      </trkpt>
      <trkpt lat="47.725567007437348" lon="14.650300992652774">
        <ele>443.60000000000002</ele>
        <time>2012-10-21T12:33:31Z</time>
      </trkpt>
      <trkpt lat="47.725631967186928" lon="14.650293029844761">
        <ele>443</ele>
        <time>2012-10-21T12:33:32Z</time>
      </trkpt>
      <trkpt lat="47.725697010755539" lon="14.650284983217716">
        <ele>443</ele>
        <time>2012-10-21T12:33:33Z</time>
      </trkpt>
      <trkpt lat="47.726138988509774" lon="14.650243995711207">
        <ele>443</ele>
        <time>2012-10-21T12:33:40Z</time>
      </trkpt>
      <trkpt lat="47.726345015689731" lon="14.65022899210453">
        <ele>442.60000000000002</ele>
        <time>2012-10-21T12:33:43Z</time>
      </trkpt>
      <trkpt lat="47.72640997543931" lon="14.650218011811376">
        <ele>442.19999999999999</ele>
        <time>2012-10-21T12:33:44Z</time>
      </trkpt>
      <trkpt lat="47.726478958502412" lon="14.650202002376318">
        <ele>441.80000000000001</ele>
        <time>2012-10-21T12:33:45Z</time>
      </trkpt>
      <trkpt lat="47.726547019556165" lon="14.650181969627738">
        <ele>441.39999999999998</ele>
        <time>2012-10-21T12:33:46Z</time>
      </trkpt>
      <trkpt lat="47.726620025932789" lon="14.650164032354951">
        <ele>441</ele>
        <time>2012-10-21T12:33:47Z</time>
      </trkpt>
      <trkpt lat="47.727047000080347" lon="14.649982983246446">
        <ele>440.60000000000002</ele>
        <time>2012-10-21T12:33:53Z</time>
      </trkpt>
      <trkpt lat="47.727115983143449" lon="14.649938978254795">
        <ele>440.19999999999999</ele>
        <time>2012-10-21T12:33:54Z</time>
      </trkpt>
      <trkpt lat="47.72718396037817" lon="14.64988499879837">
        <ele>439.39999999999998</ele>
        <time>2012-10-21T12:33:55Z</time>
      </trkpt>
      <trkpt lat="47.727256966754794" lon="14.649829007685184">
        <ele>439</ele>
        <time>2012-10-21T12:33:56Z</time>
      </trkpt>
      <trkpt lat="47.727328967303038" lon="14.649768993258476">
        <ele>438.60000000000002</ele>
        <time>2012-10-21T12:33:57Z</time>
      </trkpt>
      <trkpt lat="47.727398034185171" lon="14.649706967175007">
        <ele>438.19999999999999</ele>
        <time>2012-10-21T12:33:58Z</time>
      </trkpt>
      <trkpt lat="47.727470034733415" lon="14.649644019082189">
        <ele>437.80000000000001</ele>
        <time>2012-10-21T12:33:59Z</time>
      </trkpt>
      <trkpt lat="47.727543041110039" lon="14.649571012705564">
        <ele>437.39999999999998</ele>
        <time>2012-10-21T12:34:00Z</time>
      </trkpt>
      <trkpt lat="47.727618981152773" lon="14.649494988843799">
        <ele>437</ele>
        <time>2012-10-21T12:34:01Z</time>
      </trkpt>
      <trkpt lat="47.727691987529397" lon="14.649417037144303">
        <ele>436.39999999999998</ele>
        <time>2012-10-21T12:34:02Z</time>
      </trkpt>
      <trkpt lat="47.727772034704685" lon="14.649335984140635">
        <ele>436</ele>
        <time>2012-10-21T12:34:03Z</time>
      </trkpt>
      <trkpt lat="47.727856021374464" lon="14.649250991642475">
        <ele>435.39999999999998</ele>
        <time>2012-10-21T12:34:04Z</time>
      </trkpt>
      <trkpt lat="47.727935984730721" lon="14.649170022457838">
        <ele>435</ele>
        <time>2012-10-21T12:34:05Z</time>
      </trkpt>
      <trkpt lat="47.728016031906009" lon="14.649086035788059">
        <ele>434.39999999999998</ele>
        <time>2012-10-21T12:34:06Z</time>
      </trkpt>
      <trkpt lat="47.728095995262265" lon="14.649002971127629">
        <ele>433.80000000000001</ele>
        <time>2012-10-21T12:34:07Z</time>
      </trkpt>
      <trkpt lat="47.728175958618522" lon="14.648925019428134">
        <ele>433.39999999999998</ele>
        <time>2012-10-21T12:34:08Z</time>
      </trkpt>
      <trkpt lat="47.72825600579381" lon="14.648850001394749">
        <ele>432.80000000000001</ele>
        <time>2012-10-21T12:34:09Z</time>
      </trkpt>
      <trkpt lat="47.728333035483956" lon="14.648776995018125">
        <ele>432.19999999999999</ele>
        <time>2012-10-21T12:34:10Z</time>
      </trkpt>
      <trkpt lat="47.728412998840213" lon="14.648698037490249">
        <ele>431.80000000000001</ele>
        <time>2012-10-21T12:34:11Z</time>
      </trkpt>
      <trkpt lat="47.728489022701979" lon="14.648626958951354">
        <ele>431.39999999999998</ele>
        <time>2012-10-21T12:34:12Z</time>
      </trkpt>
      <trkpt lat="47.728568986058235" lon="14.648559987545013">
        <ele>431</ele>
        <time>2012-10-21T12:34:13Z</time>
      </trkpt>
      <trkpt lat="47.728641992434859" lon="14.648496033623815">
        <ele>430.60000000000002</ele>
        <time>2012-10-21T12:34:14Z</time>
      </trkpt>
      <trkpt lat="47.728718016296625" lon="14.648441970348358">
        <ele>430.19999999999999</ele>
        <time>2012-10-21T12:34:15Z</time>
      </trkpt>
      <trkpt lat="47.728790016844869" lon="14.648396037518978">
        <ele>430.19999999999999</ele>
        <time>2012-10-21T12:34:16Z</time>
      </trkpt>
      <trkpt lat="47.729053040966392" lon="14.648271985352039">
        <ele>430.19999999999999</ele>
        <time>2012-10-21T12:34:20Z</time>
      </trkpt>
      <trkpt lat="47.729114983230829" lon="14.648262010887265">
        <ele>430.19999999999999</ele>
        <time>2012-10-21T12:34:21Z</time>
      </trkpt>
      <trkpt lat="47.729237023741007" lon="14.648243989795446">
        <ele>430.19999999999999</ele>
        <time>2012-10-21T12:34:23Z</time>
      </trkpt>
      <trkpt lat="47.729408014565706" lon="14.648249018937349">
        <ele>430.19999999999999</ele>
        <time>2012-10-21T12:34:26Z</time>
      </trkpt>
      <trkpt lat="47.72952301427722" lon="14.648264022544026">
        <ele>430.19999999999999</ele>
        <time>2012-10-21T12:34:28Z</time>
      </trkpt>
      <trkpt lat="47.729690987616777" lon="14.648301992565393">
        <ele>430.19999999999999</ele>
        <time>2012-10-21T12:34:31Z</time>
      </trkpt>
      <trkpt lat="47.73008300922811" lon="14.648448005318642">
        <ele>430.19999999999999</ele>
        <time>2012-10-21T12:34:38Z</time>
      </trkpt>
      <trkpt lat="47.730266992002726" lon="14.648513970896602">
        <ele>429.80000000000001</ele>
        <time>2012-10-21T12:34:41Z</time>
      </trkpt>
      <trkpt lat="47.730331029742956" lon="14.648536015301943">
        <ele>429.19999999999999</ele>
        <time>2012-10-21T12:34:42Z</time>
      </trkpt>
      <trkpt lat="47.730395989492536" lon="14.648560993373394">
        <ele>428.80000000000001</ele>
        <time>2012-10-21T12:34:43Z</time>
      </trkpt>
      <trkpt lat="47.730461033061147" lon="14.648584965616465">
        <ele>428.39999999999998</ele>
        <time>2012-10-21T12:34:44Z</time>
      </trkpt>
      <trkpt lat="47.730525992810726" lon="14.648610027506948">
        <ele>428</ele>
        <time>2012-10-21T12:34:45Z</time>
      </trkpt>
      <trkpt lat="47.730789016932249" lon="14.648706000298262">
        <ele>427.60000000000002</ele>
        <time>2012-10-21T12:34:49Z</time>
      </trkpt>
      <trkpt lat="47.730857999995351" lon="14.648727038875222">
        <ele>427.19999999999999</ele>
        <time>2012-10-21T12:34:50Z</time>
      </trkpt>
      <trkpt lat="47.730930000543594" lon="14.648740030825138">
        <ele>426.60000000000002</ele>
        <time>2012-10-21T12:34:51Z</time>
      </trkpt>
      <trkpt lat="47.731003006920218" lon="14.64874698780477">
        <ele>426.19999999999999</ele>
        <time>2012-10-21T12:34:52Z</time>
      </trkpt>
      <trkpt lat="47.731079030781984" lon="14.648756040260196">
        <ele>425.80000000000001</ele>
        <time>2012-10-21T12:34:53Z</time>
      </trkpt>
      <trkpt lat="47.731152037158608" lon="14.648761991411448">
        <ele>425.39999999999998</ele>
        <time>2012-10-21T12:34:54Z</time>
      </trkpt>
      <trkpt lat="47.731227977201343" lon="14.64876702055335">
        <ele>424.80000000000001</ele>
        <time>2012-10-21T12:34:55Z</time>
      </trkpt>
      <trkpt lat="47.731308024376631" lon="14.648775989189744">
        <ele>424.39999999999998</ele>
        <time>2012-10-21T12:34:56Z</time>
      </trkpt>
      <trkpt lat="47.731383964419365" lon="14.648786969482899">
        <ele>424</ele>
        <time>2012-10-21T12:34:57Z</time>
      </trkpt>
      <trkpt lat="47.731468034908175" lon="14.648802978917956">
        <ele>423.39999999999998</ele>
        <time>2012-10-21T12:34:58Z</time>
      </trkpt>
      <trkpt lat="47.73154397495091" lon="14.648826029151678">
        <ele>422.80000000000001</ele>
        <time>2012-10-21T12:34:59Z</time>
      </trkpt>
      <trkpt lat="47.731621004641056" lon="14.648854024708271">
        <ele>422.39999999999998</ele>
        <time>2012-10-21T12:35:00Z</time>
      </trkpt>
      <trkpt lat="47.731700967997313" lon="14.648893000558019">
        <ele>421.80000000000001</ele>
        <time>2012-10-21T12:35:01Z</time>
      </trkpt>
      <trkpt lat="47.731776991859078" lon="14.648937005549669">
        <ele>421.39999999999998</ele>
        <time>2012-10-21T12:35:02Z</time>
      </trkpt>
      <trkpt lat="47.731857039034367" lon="14.648984028026462">
        <ele>420.80000000000001</ele>
        <time>2012-10-21T12:35:03Z</time>
      </trkpt>
      <trkpt lat="47.731933984905481" lon="14.649030966684222">
        <ele>420.19999999999999</ele>
        <time>2012-10-21T12:35:04Z</time>
      </trkpt>
      <trkpt lat="47.73201797157526" lon="14.649075977504253">
        <ele>419.80000000000001</ele>
        <time>2012-10-21T12:35:05Z</time>
      </trkpt>
      <trkpt lat="47.73210103623569" lon="14.649118976667523">
        <ele>419.19999999999999</ele>
        <time>2012-10-21T12:35:06Z</time>
      </trkpt>
      <trkpt lat="47.732327012345195" lon="14.64923900552094">
        <ele>418.60000000000002</ele>
        <time>2012-10-21T12:35:09Z</time>
      </trkpt>
      <trkpt lat="47.732403036206961" lon="14.649275969713926">
        <ele>418.19999999999999</ele>
        <time>2012-10-21T12:35:10Z</time>
      </trkpt>
      <trkpt lat="47.732478976249695" lon="14.64930597692728">
        <ele>417.60000000000002</ele>
        <time>2012-10-21T12:35:11Z</time>
      </trkpt>
      <trkpt lat="47.732566986232996" lon="14.649323998019099">
        <ele>417</ele>
        <time>2012-10-21T12:35:12Z</time>
      </trkpt>
      <trkpt lat="47.732647033408284" lon="14.649341013282537">
        <ele>416.39999999999998</ele>
        <time>2012-10-21T12:35:13Z</time>
      </trkpt>
      <trkpt lat="47.732726996764541" lon="14.649360962212086">
        <ele>415.60000000000002</ele>
        <time>2012-10-21T12:35:14Z</time>
      </trkpt>
      <trkpt lat="47.732803020626307" lon="14.649384012445807">
        <ele>415</ele>
        <time>2012-10-21T12:35:15Z</time>
      </trkpt>
      <trkpt lat="47.732882983982563" lon="14.649413013830781">
        <ele>414.39999999999998</ele>
        <time>2012-10-21T12:35:16Z</time>
      </trkpt>
      <trkpt lat="47.732964036986232" lon="14.649447966367006">
        <ele>414</ele>
        <time>2012-10-21T12:35:17Z</time>
      </trkpt>
      <trkpt lat="47.73304701782763" lon="14.649484008550644">
        <ele>413.60000000000002</ele>
        <time>2012-10-21T12:35:18Z</time>
      </trkpt>
      <trkpt lat="47.733123963698745" lon="14.649523990228772">
        <ele>413.19999999999999</ele>
        <time>2012-10-21T12:35:19Z</time>
      </trkpt>
      <trkpt lat="47.733208034187555" lon="14.649571012705564">
        <ele>412.80000000000001</ele>
        <time>2012-10-21T12:35:20Z</time>
      </trkpt>
      <trkpt lat="47.733283974230289" lon="14.649623986333609">
        <ele>412.39999999999998</ele>
        <time>2012-10-21T12:35:21Z</time>
      </trkpt>
      <trkpt lat="47.733359998092055" lon="14.649681989103556">
        <ele>411.80000000000001</ele>
        <time>2012-10-21T12:35:22Z</time>
      </trkpt>
      <trkpt lat="47.733437027782202" lon="14.649745021015406">
        <ele>411.39999999999998</ele>
        <time>2012-10-21T12:35:23Z</time>
      </trkpt>
      <trkpt lat="47.733512967824936" lon="14.649808974936604">
        <ele>410.80000000000001</ele>
        <time>2012-10-21T12:35:24Z</time>
      </trkpt>
      <trkpt lat="47.733593015000224" lon="14.649876030161977">
        <ele>410.39999999999998</ele>
        <time>2012-10-21T12:35:25Z</time>
      </trkpt>
      <trkpt lat="47.733672978356481" lon="14.649939984083176">
        <ele>409.80000000000001</ele>
        <time>2012-10-21T12:35:26Z</time>
      </trkpt>
      <trkpt lat="47.733760988339782" lon="14.650002010166645">
        <ele>409.39999999999998</ele>
        <time>2012-10-21T12:35:27Z</time>
      </trkpt>
      <trkpt lat="47.733852015808225" lon="14.650061018764973">
        <ele>408.80000000000001</ele>
        <time>2012-10-21T12:35:28Z</time>
      </trkpt>
      <trkpt lat="47.733936002478004" lon="14.650117009878159">
        <ele>408.39999999999998</ele>
        <time>2012-10-21T12:35:29Z</time>
      </trkpt>
      <trkpt lat="47.734024012461305" lon="14.650175012648106">
        <ele>408</ele>
        <time>2012-10-21T12:35:30Z</time>
      </trkpt>
      <trkpt lat="47.734112022444606" lon="14.650232009589672">
        <ele>407.39999999999998</ele>
        <time>2012-10-21T12:35:31Z</time>
      </trkpt>
      <trkpt lat="47.734196009114385" lon="14.650294035673141">
        <ele>407</ele>
        <time>2012-10-21T12:35:32Z</time>
      </trkpt>
      <trkpt lat="47.734283013269305" lon="14.650360001251101">
        <ele>406</ele>
        <time>2012-10-21T12:35:33Z</time>
      </trkpt>
      <trkpt lat="47.734378986060619" lon="14.650434013456106">
        <ele>405.39999999999998</ele>
        <time>2012-10-21T12:35:34Z</time>
      </trkpt>
      <trkpt lat="47.734446963295341" lon="14.650490004569292">
        <ele>405</ele>
        <time>2012-10-21T12:35:35Z</time>
      </trkpt>
      <trkpt lat="47.734531033784151" lon="14.650562005117536">
        <ele>404.39999999999998</ele>
        <time>2012-10-21T12:35:36Z</time>
      </trkpt>
      <trkpt lat="47.734612002968788" lon="14.650630988180637">
        <ele>404</ele>
        <time>2012-10-21T12:35:37Z</time>
      </trkpt>
      <trkpt lat="47.734691966325045" lon="14.6507019829005">
        <ele>403.39999999999998</ele>
        <time>2012-10-21T12:35:38Z</time>
      </trkpt>
      <trkpt lat="47.734992960467935" lon="14.650976993143559">
        <ele>402.80000000000001</ele>
        <time>2012-10-21T12:35:42Z</time>
      </trkpt>
      <trkpt lat="47.735073007643223" lon="14.651052011176944">
        <ele>402.39999999999998</ele>
        <time>2012-10-21T12:35:43Z</time>
      </trkpt>
      <trkpt lat="47.735146014019847" lon="14.651119988411665">
        <ele>401.80000000000001</ele>
        <time>2012-10-21T12:35:44Z</time>
      </trkpt>
      <trkpt lat="47.735225977376103" lon="14.651191988959908">
        <ele>401.19999999999999</ele>
        <time>2012-10-21T12:35:45Z</time>
      </trkpt>
      <trkpt lat="47.735297977924347" lon="14.651262983679771">
        <ele>400.80000000000001</ele>
        <time>2012-10-21T12:35:46Z</time>
      </trkpt>
      <trkpt lat="47.735644988715649" lon="14.651583004742861">
        <ele>400.39999999999998</ele>
        <time>2012-10-21T12:35:51Z</time>
      </trkpt>
      <trkpt lat="47.73571397177875" lon="14.65164402499795">
        <ele>400</ele>
        <time>2012-10-21T12:35:52Z</time>
      </trkpt>
      <trkpt lat="47.735783038660884" lon="14.651703033596277">
        <ele>399.60000000000002</ele>
        <time>2012-10-21T12:35:53Z</time>
      </trkpt>
      <trkpt lat="47.735851015895605" lon="14.651757013052702">
        <ele>399.19999999999999</ele>
        <time>2012-10-21T12:35:54Z</time>
      </trkpt>
      <trkpt lat="47.735919998958707" lon="14.651809986680746">
        <ele>398.60000000000002</ele>
        <time>2012-10-21T12:35:55Z</time>
      </trkpt>
      <trkpt lat="47.736133988946676" lon="14.651957005262375">
        <ele>398.60000000000002</ele>
        <time>2012-10-21T12:35:58Z</time>
      </trkpt>
      <trkpt lat="47.736274972558022" lon="14.652050966396928">
        <ele>398.19999999999999</ele>
        <time>2012-10-21T12:36:00Z</time>
      </trkpt>
      <trkpt lat="47.736343033611774" lon="14.652102012187243">
        <ele>397.80000000000001</ele>
        <time>2012-10-21T12:36:01Z</time>
      </trkpt>
      <trkpt lat="47.736412016674876" lon="14.652156997472048">
        <ele>397.39999999999998</ele>
        <time>2012-10-21T12:36:02Z</time>
      </trkpt>
      <trkpt lat="47.736480999737978" lon="14.652212988585234">
        <ele>397</ele>
        <time>2012-10-21T12:36:03Z</time>
      </trkpt>
      <trkpt lat="47.736553000286222" lon="14.652271997183561">
        <ele>396.60000000000002</ele>
        <time>2012-10-21T12:36:04Z</time>
      </trkpt>
      <trkpt lat="47.736626006662846" lon="14.652329999953508">
        <ele>396.60000000000002</ele>
        <time>2012-10-21T12:36:05Z</time>
      </trkpt>
      <trkpt lat="47.736705970019102" lon="14.652389008551836">
        <ele>396</ele>
        <time>2012-10-21T12:36:06Z</time>
      </trkpt>
      <trkpt lat="47.736790040507913" lon="14.65244198217988">
        <ele>395.60000000000002</ele>
        <time>2012-10-21T12:36:07Z</time>
      </trkpt>
      <trkpt lat="47.736876960843801" lon="14.652493027970195">
        <ele>395.19999999999999</ele>
        <time>2012-10-21T12:36:08Z</time>
      </trkpt>
      <trkpt lat="47.73695801384747" lon="14.652533009648323">
        <ele>394.80000000000001</ele>
        <time>2012-10-21T12:36:09Z</time>
      </trkpt>
      <trkpt lat="47.737045018002391" lon="14.652578020468354">
        <ele>394.19999999999999</ele>
        <time>2012-10-21T12:36:10Z</time>
      </trkpt>
      <trkpt lat="47.737133027985692" lon="14.652628982439637">
        <ele>393.80000000000001</ele>
        <time>2012-10-21T12:36:11Z</time>
      </trkpt>
      <trkpt lat="47.737221037968993" lon="14.652679022401571">
        <ele>393.19999999999999</ele>
        <time>2012-10-21T12:36:12Z</time>
      </trkpt>
      <trkpt lat="47.737311981618404" lon="14.652728978544474">
        <ele>392.80000000000001</ele>
        <time>2012-10-21T12:36:13Z</time>
      </trkpt>
      <trkpt lat="47.73740803822875" lon="14.652759991586208">
        <ele>392.19999999999999</ele>
        <time>2012-10-21T12:36:14Z</time>
      </trkpt>
      <trkpt lat="47.737510967999697" lon="14.652771977707744">
        <ele>391.60000000000002</ele>
        <time>2012-10-21T12:36:15Z</time>
      </trkpt>
      <trkpt lat="47.737609958276153" lon="14.652779018506408">
        <ele>391</ele>
        <time>2012-10-21T12:36:16Z</time>
      </trkpt>
      <trkpt lat="47.73770903237164" lon="14.652781030163169">
        <ele>390.39999999999998</ele>
        <time>2012-10-21T12:36:17Z</time>
      </trkpt>
      <trkpt lat="47.737800981849432" lon="14.65278496965766">
        <ele>389.80000000000001</ele>
        <time>2012-10-21T12:36:18Z</time>
      </trkpt>
      <trkpt lat="47.737896032631397" lon="14.652786981314421">
        <ele>389.39999999999998</ele>
        <time>2012-10-21T12:36:19Z</time>
      </trkpt>
      <trkpt lat="47.737987982109189" lon="14.652787987142801">
        <ele>389</ele>
        <time>2012-10-21T12:36:20Z</time>
      </trkpt>
      <trkpt lat="47.73807498626411" lon="14.652793016284704">
        <ele>388.60000000000002</ele>
        <time>2012-10-21T12:36:21Z</time>
      </trkpt>
      <trkpt lat="47.738162996247411" lon="14.652797039598227">
        <ele>388.19999999999999</ele>
        <time>2012-10-21T12:36:22Z</time>
      </trkpt>
      <trkpt lat="47.73824698291719" lon="14.652801984921098">
        <ele>387.80000000000001</ele>
        <time>2012-10-21T12:36:23Z</time>
      </trkpt>
      <trkpt lat="47.738608997315168" lon="14.652745993807912">
        <ele>387.80000000000001</ele>
        <time>2012-10-21T12:36:28Z</time>
      </trkpt>
      <trkpt lat="47.738852994516492" lon="14.652665024623275">
        <ele>387.80000000000001</ele>
        <time>2012-10-21T12:36:33Z</time>
      </trkpt>
      <trkpt lat="47.738926000893116" lon="14.652637029066682">
        <ele>388.19999999999999</ele>
        <time>2012-10-21T12:36:35Z</time>
      </trkpt>
      <trkpt lat="47.738960031419992" lon="14.652619007974863">
        <ele>388.80000000000001</ele>
        <time>2012-10-21T12:36:36Z</time>
      </trkpt>
      <trkpt lat="47.738994983956218" lon="14.652602998539805">
        <ele>389.19999999999999</ele>
        <time>2012-10-21T12:36:37Z</time>
      </trkpt>
      <trkpt lat="47.739024991169572" lon="14.65259000658989">
        <ele>389.60000000000002</ele>
        <time>2012-10-21T12:36:38Z</time>
      </trkpt>
      <trkpt lat="47.739056004211307" lon="14.652578020468354">
        <ele>390.19999999999999</ele>
        <time>2012-10-21T12:36:39Z</time>
      </trkpt>
      <trkpt lat="47.739132028073072" lon="14.652538960799575">
        <ele>390.60000000000002</ele>
        <time>2012-10-21T12:36:42Z</time>
      </trkpt>
      <trkpt lat="47.739159017801285" lon="14.65252798050642">
        <ele>391</ele>
        <time>2012-10-21T12:36:43Z</time>
      </trkpt>
      <trkpt lat="47.739185001701117" lon="14.652517000213265">
        <ele>391.39999999999998</ele>
        <time>2012-10-21T12:36:44Z</time>
      </trkpt>
      <trkpt lat="47.739207968115807" lon="14.652509037405252">
        <ele>391.80000000000001</ele>
        <time>2012-10-21T12:36:45Z</time>
      </trkpt>
      <trkpt lat="47.739235041663051" lon="14.65250501409173">
        <ele>392.19999999999999</ele>
        <time>2012-10-21T12:36:46Z</time>
      </trkpt>
      <trkpt lat="47.739258008077741" lon="14.652497973293066">
        <ele>392.19999999999999</ele>
        <time>2012-10-21T12:36:47Z</time>
      </trkpt>
      <trkpt lat="47.739330008625984" lon="14.652460003271699">
        <ele>392.60000000000002</ele>
        <time>2012-10-21T12:36:50Z</time>
      </trkpt>
      <trkpt lat="47.739352975040674" lon="14.652447011321783">
        <ele>393</ele>
        <time>2012-10-21T12:36:51Z</time>
      </trkpt>
      <trkpt lat="47.739376025274396" lon="14.652434019371867">
        <ele>393.39999999999998</ele>
        <time>2012-10-21T12:36:52Z</time>
      </trkpt>
      <trkpt lat="47.739403015002608" lon="14.652422033250332">
        <ele>393.80000000000001</ele>
        <time>2012-10-21T12:36:53Z</time>
      </trkpt>
      <trkpt lat="47.739425981417298" lon="14.652409963309765">
        <ele>394.19999999999999</ele>
        <time>2012-10-21T12:36:54Z</time>
      </trkpt>
      <trkpt lat="47.73944903165102" lon="14.65239797718823">
        <ele>394.19999999999999</ele>
        <time>2012-10-21T12:36:55Z</time>
      </trkpt>
      <trkpt lat="47.739559002220631" lon="14.652327988296747">
        <ele>394.60000000000002</ele>
        <time>2012-10-21T12:37:01Z</time>
      </trkpt>
      <trkpt lat="47.73957802914083" lon="14.652316002175212">
        <ele>395</ele>
        <time>2012-10-21T12:37:02Z</time>
      </trkpt>
      <trkpt lat="47.739594038575888" lon="14.652305021882057">
        <ele>395.39999999999998</ele>
        <time>2012-10-21T12:37:03Z</time>
      </trkpt>
      <trkpt lat="47.739612981677055" lon="14.652293035760522">
        <ele>395.80000000000001</ele>
        <time>2012-10-21T12:37:04Z</time>
      </trkpt>
      <trkpt lat="47.739632008597255" lon="14.652279037982225">
        <ele>396.19999999999999</ele>
        <time>2012-10-21T12:37:05Z</time>
      </trkpt>
      <trkpt lat="47.739680958911777" lon="14.652239978313446">
        <ele>396.19999999999999</ele>
        <time>2012-10-21T12:37:08Z</time>
      </trkpt>
      <trkpt lat="47.7397729922086" lon="14.652185998857021">
        <ele>396.60000000000002</ele>
        <time>2012-10-21T12:37:13Z</time>
      </trkpt>
      <trkpt lat="47.739792019128799" lon="14.652176024392247">
        <ele>397.19999999999999</ele>
        <time>2012-10-21T12:37:14Z</time>
      </trkpt>
      <trkpt lat="47.739810962229967" lon="14.652165966108441">
        <ele>397.60000000000002</ele>
        <time>2012-10-21T12:37:15Z</time>
      </trkpt>
      <trkpt lat="47.739829989150167" lon="14.652154985815287">
        <ele>398</ele>
        <time>2012-10-21T12:37:16Z</time>
      </trkpt>
      <trkpt lat="47.739849016070366" lon="14.65214098803699">
        <ele>398.39999999999998</ele>
        <time>2012-10-21T12:37:17Z</time>
      </trkpt>
      <trkpt lat="47.73992202244699" lon="14.652080973610282">
        <ele>398.39999999999998</ele>
        <time>2012-10-21T12:37:21Z</time>
      </trkpt>
      <trkpt lat="47.740021012723446" lon="14.652012996375561">
        <ele>398.80000000000001</ele>
        <time>2012-10-21T12:37:27Z</time>
      </trkpt>
      <trkpt lat="47.740031993016601" lon="14.651998998597264">
        <ele>399.19999999999999</ele>
        <time>2012-10-21T12:37:28Z</time>
      </trkpt>
      <trkpt lat="47.740046996623278" lon="14.651985000818968">
        <ele>399.60000000000002</ele>
        <time>2012-10-21T12:37:29Z</time>
      </trkpt>
      <trkpt lat="47.740063006058335" lon="14.651973014697433">
        <ele>400</ele>
        <time>2012-10-21T12:37:30Z</time>
      </trkpt>
      <trkpt lat="47.74007398635149" lon="14.651960022747517">
        <ele>400.39999999999998</ele>
        <time>2012-10-21T12:37:31Z</time>
      </trkpt>
      <trkpt lat="47.740115979686379" lon="14.651929009705782">
        <ele>400.39999999999998</ele>
        <time>2012-10-21T12:37:34Z</time>
      </trkpt>
      <trkpt lat="47.740203989669681" lon="14.65186002664268">
        <ele>400.80000000000001</ele>
        <time>2012-10-21T12:37:40Z</time>
      </trkpt>
      <trkpt lat="47.740214969962835" lon="14.651846028864384">
        <ele>401.39999999999998</ele>
        <time>2012-10-21T12:37:41Z</time>
      </trkpt>
      <trkpt lat="47.740227039903402" lon="14.651834964752197">
        <ele>401.80000000000001</ele>
        <time>2012-10-21T12:37:42Z</time>
      </trkpt>
      <trkpt lat="47.740241959691048" lon="14.651827001944184">
        <ele>402.19999999999999</ele>
        <time>2012-10-21T12:37:43Z</time>
      </trkpt>
      <trkpt lat="47.740256963297725" lon="14.65181602165103">
        <ele>402.60000000000002</ele>
        <time>2012-10-21T12:37:44Z</time>
      </trkpt>
      <trkpt lat="47.740269033238292" lon="14.651803029701114">
        <ele>402.60000000000002</ele>
        <time>2012-10-21T12:37:45Z</time>
      </trkpt>
      <trkpt lat="47.740322006866336" lon="14.651763970032334">
        <ele>402.60000000000002</ele>
        <time>2012-10-21T12:37:49Z</time>
      </trkpt>
      <trkpt lat="47.740386966615915" lon="14.65170999057591">
        <ele>403</ele>
        <time>2012-10-21T12:37:54Z</time>
      </trkpt>
      <trkpt lat="47.740398030728102" lon="14.651698004454374">
        <ele>403.39999999999998</ele>
        <time>2012-10-21T12:37:55Z</time>
      </trkpt>
      <trkpt lat="47.740410016849637" lon="14.651685012504458">
        <ele>403.80000000000001</ele>
        <time>2012-10-21T12:37:56Z</time>
      </trkpt>
      <trkpt lat="47.740425020456314" lon="14.651673026382923">
        <ele>404.19999999999999</ele>
        <time>2012-10-21T12:37:57Z</time>
      </trkpt>
      <trkpt lat="47.740437006577849" lon="14.651662968099117">
        <ele>404.60000000000002</ele>
        <time>2012-10-21T12:37:58Z</time>
      </trkpt>
      <trkpt lat="47.740509007126093" lon="14.651578981429338">
        <ele>404.60000000000002</ele>
        <time>2012-10-21T12:38:04Z</time>
      </trkpt>
      <trkpt lat="47.740555023774505" lon="14.651522990316153">
        <ele>405</ele>
        <time>2012-10-21T12:38:08Z</time>
      </trkpt>
      <trkpt lat="47.740566004067659" lon="14.651507986709476">
        <ele>405.60000000000002</ele>
        <time>2012-10-21T12:38:09Z</time>
      </trkpt>
      <trkpt lat="47.740577990189195" lon="14.65149600058794">
        <ele>406</ele>
        <time>2012-10-21T12:38:10Z</time>
      </trkpt>
      <trkpt lat="47.740588970482349" lon="14.651483008638024">
        <ele>406.39999999999998</ele>
        <time>2012-10-21T12:38:11Z</time>
      </trkpt>
      <trkpt lat="47.740597017109394" lon="14.651466999202967">
        <ele>406.80000000000001</ele>
        <time>2012-10-21T12:38:12Z</time>
      </trkpt>
      <trkpt lat="47.740649990737438" lon="14.651396004483104">
        <ele>406.80000000000001</ele>
        <time>2012-10-21T12:38:17Z</time>
      </trkpt>
      <trkpt lat="47.740681003779173" lon="14.65134596452117">
        <ele>407.19999999999999</ele>
        <time>2012-10-21T12:38:20Z</time>
      </trkpt>
      <trkpt lat="47.740691984072328" lon="14.651330960914493">
        <ele>407.60000000000002</ele>
        <time>2012-10-21T12:38:21Z</time>
      </trkpt>
      <trkpt lat="47.740703970193863" lon="14.651315035298467">
        <ele>408.19999999999999</ele>
        <time>2012-10-21T12:38:22Z</time>
      </trkpt>
      <trkpt lat="47.740711010992527" lon="14.651299025863409">
        <ele>408.60000000000002</ele>
        <time>2012-10-21T12:38:23Z</time>
      </trkpt>
      <trkpt lat="47.740722997114062" lon="14.651284022256732">
        <ele>409</ele>
        <time>2012-10-21T12:38:24Z</time>
      </trkpt>
      <trkpt lat="47.740748981013894" lon="14.651235993951559">
        <ele>409</ele>
        <time>2012-10-21T12:38:27Z</time>
      </trkpt>
      <trkpt lat="47.740764990448952" lon="14.651201041415334">
        <ele>409</ele>
        <time>2012-10-21T12:38:29Z</time>
      </trkpt>
      <trkpt lat="47.740784017369151" lon="14.651166005060077">
        <ele>409.39999999999998</ele>
        <time>2012-10-21T12:38:31Z</time>
      </trkpt>
      <trkpt lat="47.740794997662306" lon="14.651153013110161">
        <ele>409.80000000000001</ele>
        <time>2012-10-21T12:38:32Z</time>
      </trkpt>
      <trkpt lat="47.740806983783841" lon="14.651139015331864">
        <ele>410.19999999999999</ele>
        <time>2012-10-21T12:38:33Z</time>
      </trkpt>
      <trkpt lat="47.740814024582505" lon="14.651123005896807">
        <ele>410.60000000000002</ele>
        <time>2012-10-21T12:38:34Z</time>
      </trkpt>
      <trkpt lat="47.740826010704041" lon="14.651106996461749">
        <ele>411</ele>
        <time>2012-10-21T12:38:35Z</time>
      </trkpt>
      <trkpt lat="47.740841014310718" lon="14.651075983420014">
        <ele>411</ele>
        <time>2012-10-21T12:38:37Z</time>
      </trkpt>
      <trkpt lat="47.740913014858961" lon="14.650972969830036">
        <ele>411.39999999999998</ele>
        <time>2012-10-21T12:38:44Z</time>
      </trkpt>
      <trkpt lat="47.740925000980496" lon="14.65095897205174">
        <ele>411.80000000000001</ele>
        <time>2012-10-21T12:38:45Z</time>
      </trkpt>
      <trkpt lat="47.740935981273651" lon="14.650943968445063">
        <ele>412.19999999999999</ele>
        <time>2012-10-21T12:38:46Z</time>
      </trkpt>
      <trkpt lat="47.740944027900696" lon="14.650927959010005">
        <ele>412.60000000000002</ele>
        <time>2012-10-21T12:38:47Z</time>
      </trkpt>
      <trkpt lat="47.740951990708709" lon="14.650911027565598">
        <ele>413</ele>
        <time>2012-10-21T12:38:48Z</time>
      </trkpt>
      <trkpt lat="47.740981997922063" lon="14.650866016745567">
        <ele>413</ele>
        <time>2012-10-21T12:38:51Z</time>
      </trkpt>
      <trkpt lat="47.741038994863629" lon="14.650790998712182">
        <ele>413.60000000000002</ele>
        <time>2012-10-21T12:38:56Z</time>
      </trkpt>
      <trkpt lat="47.741047041490674" lon="14.650775995105505">
        <ele>414</ele>
        <time>2012-10-21T12:38:57Z</time>
      </trkpt>
      <trkpt lat="47.741058021783829" lon="14.650758979842067">
        <ele>414.39999999999998</ele>
        <time>2012-10-21T12:38:58Z</time>
      </trkpt>
      <trkpt lat="47.741070007905364" lon="14.650745987892151">
        <ele>414.80000000000001</ele>
        <time>2012-10-21T12:38:59Z</time>
      </trkpt>
      <trkpt lat="47.741080988198519" lon="14.650732995942235">
        <ele>415.19999999999999</ele>
        <time>2012-10-21T12:39:00Z</time>
      </trkpt>
      <trkpt lat="47.741137985140085" lon="14.650662001222372">
        <ele>415.19999999999999</ele>
        <time>2012-10-21T12:39:05Z</time>
      </trkpt>
      <trkpt lat="47.741173021495342" lon="14.650625037029386">
        <ele>415.60000000000002</ele>
        <time>2012-10-21T12:39:08Z</time>
      </trkpt>
      <trkpt lat="47.741184001788497" lon="14.650608021765947">
        <ele>416</ele>
        <time>2012-10-21T12:39:09Z</time>
      </trkpt>
      <trkpt lat="47.741199005395174" lon="14.650595029816031">
        <ele>416.39999999999998</ele>
        <time>2012-10-21T12:39:10Z</time>
      </trkpt>
      <trkpt lat="47.741210991516709" lon="14.650578014552593">
        <ele>416.80000000000001</ele>
        <time>2012-10-21T12:39:11Z</time>
      </trkpt>
      <trkpt lat="47.741221971809864" lon="14.650562005117536">
        <ele>417.19999999999999</ele>
        <time>2012-10-21T12:39:12Z</time>
      </trkpt>
      <trkpt lat="47.741248961538076" lon="14.650537027046084">
        <ele>417.19999999999999</ele>
        <time>2012-10-21T12:39:14Z</time>
      </trkpt>
      <trkpt lat="47.741314005106688" lon="14.650481035932899">
        <ele>417.60000000000002</ele>
        <time>2012-10-21T12:39:19Z</time>
      </trkpt>
      <trkpt lat="47.741324985399842" lon="14.65046301484108">
        <ele>418</ele>
        <time>2012-10-21T12:39:20Z</time>
      </trkpt>
      <trkpt lat="47.741333032026887" lon="14.650447005406022">
        <ele>418.39999999999998</ele>
        <time>2012-10-21T12:39:21Z</time>
      </trkpt>
      <trkpt lat="47.741344012320042" lon="14.650434013456106">
        <ele>419</ele>
        <time>2012-10-21T12:39:22Z</time>
      </trkpt>
      <trkpt lat="47.741360021755099" lon="14.650422027334571">
        <ele>419.39999999999998</ele>
        <time>2012-10-21T12:39:23Z</time>
      </trkpt>
      <trkpt lat="47.741412995383143" lon="14.650370981544256">
        <ele>419.39999999999998</ele>
        <time>2012-10-21T12:39:27Z</time>
      </trkpt>
      <trkpt lat="47.741432022303343" lon="14.650344997644424">
        <ele>419.39999999999998</ele>
        <time>2012-10-21T12:39:29Z</time>
      </trkpt>
      <trkpt lat="47.741454988718033" lon="14.650323959067464">
        <ele>419.80000000000001</ele>
        <time>2012-10-21T12:39:31Z</time>
      </trkpt>
      <trkpt lat="47.741466974839568" lon="14.650310967117548">
        <ele>420.19999999999999</ele>
        <time>2012-10-21T12:39:32Z</time>
      </trkpt>
      <trkpt lat="47.741474015638232" lon="14.650294035673141">
        <ele>420.60000000000002</ele>
        <time>2012-10-21T12:39:33Z</time>
      </trkpt>
      <trkpt lat="47.741486001759768" lon="14.650278026238084">
        <ele>421</ele>
        <time>2012-10-21T12:39:34Z</time>
      </trkpt>
      <trkpt lat="47.741496982052922" lon="14.650264028459787">
        <ele>421.39999999999998</ele>
        <time>2012-10-21T12:39:35Z</time>
      </trkpt>
      <trkpt lat="47.741505028679967" lon="14.65024902485311">
        <ele>421.39999999999998</ele>
        <time>2012-10-21T12:39:36Z</time>
      </trkpt>
      <trkpt lat="47.741553978994489" lon="14.650182975456119">
        <ele>421.39999999999998</ele>
        <time>2012-10-21T12:39:41Z</time>
      </trkpt>
      <trkpt lat="47.741562025621533" lon="14.650165038183331">
        <ele>421.39999999999998</ele>
        <time>2012-10-21T12:39:42Z</time>
      </trkpt>
      <trkpt lat="47.741573005914688" lon="14.650150034576654">
        <ele>421.39999999999998</ele>
        <time>2012-10-21T12:39:43Z</time>
      </trkpt>
      <trkpt lat="47.741584992036223" lon="14.650138970464468">
        <ele>421.80000000000001</ele>
        <time>2012-10-21T12:39:44Z</time>
      </trkpt>
      <trkpt lat="47.741592032834888" lon="14.650123966857791">
        <ele>422.19999999999999</ele>
        <time>2012-10-21T12:39:45Z</time>
      </trkpt>
      <trkpt lat="47.7415999956429" lon="14.650106029585004">
        <ele>422.60000000000002</ele>
        <time>2012-10-21T12:39:46Z</time>
      </trkpt>
      <trkpt lat="47.741607958450913" lon="14.650089014321566">
        <ele>423</ele>
        <time>2012-10-21T12:39:47Z</time>
      </trkpt>
      <trkpt lat="47.7416190225631" lon="14.650070993229747">
        <ele>423.39999999999998</ele>
        <time>2012-10-21T12:39:48Z</time>
      </trkpt>
      <trkpt lat="47.741652969270945" lon="14.650022964924574">
        <ele>423.39999999999998</ele>
        <time>2012-10-21T12:39:51Z</time>
      </trkpt>
      <trkpt lat="47.741710972040892" lon="14.649880975484848">
        <ele>423.39999999999998</ele>
        <time>2012-10-21T12:39:58Z</time>
      </trkpt>
      <trkpt lat="47.741737039759755" lon="14.649816015735269">
        <ele>423.80000000000001</ele>
        <time>2012-10-21T12:40:01Z</time>
      </trkpt>
      <trkpt lat="47.741745002567768" lon="14.649792965501547">
        <ele>424.19999999999999</ele>
        <time>2012-10-21T12:40:02Z</time>
      </trkpt>
      <trkpt lat="47.741752965375781" lon="14.649773016571999">
        <ele>424.60000000000002</ele>
        <time>2012-10-21T12:40:03Z</time>
      </trkpt>
      <trkpt lat="47.741760006174445" lon="14.64975499548018">
        <ele>425</ele>
        <time>2012-10-21T12:40:04Z</time>
      </trkpt>
      <trkpt lat="47.74177199229598" lon="14.649734040722251">
        <ele>425.39999999999998</ele>
        <time>2012-10-21T12:40:05Z</time>
      </trkpt>
      <trkpt lat="47.74181398563087" lon="14.649629015475512">
        <ele>425.39999999999998</ele>
        <time>2012-10-21T12:40:10Z</time>
      </trkpt>
      <trkpt lat="47.741828989237547" lon="14.649590961635113">
        <ele>425.39999999999998</ele>
        <time>2012-10-21T12:40:12Z</time>
      </trkpt>
      <trkpt lat="47.741897972300649" lon="14.649404967203736">
        <ele>425.39999999999998</ele>
        <time>2012-10-21T12:40:21Z</time>
      </trkpt>
      <trkpt lat="47.741916999220848" lon="14.649362973868847">
        <ele>425.80000000000001</ele>
        <time>2012-10-21T12:40:23Z</time>
      </trkpt>
      <trkpt lat="47.741927979514003" lon="14.649340007454157">
        <ele>426.19999999999999</ele>
        <time>2012-10-21T12:40:24Z</time>
      </trkpt>
      <trkpt lat="47.741936026141047" lon="14.649315029382706">
        <ele>426.60000000000002</ele>
        <time>2012-10-21T12:40:25Z</time>
      </trkpt>
      <trkpt lat="47.74194298312068" lon="14.649288961663842">
        <ele>427.19999999999999</ele>
        <time>2012-10-21T12:40:26Z</time>
      </trkpt>
      <trkpt lat="47.741951029747725" lon="14.64926297776401">
        <ele>427.60000000000002</ele>
        <time>2012-10-21T12:40:27Z</time>
      </trkpt>
      <trkpt lat="47.741969972848892" lon="14.649215033277869">
        <ele>427.60000000000002</ele>
        <time>2012-10-21T12:40:29Z</time>
      </trkpt>
      <trkpt lat="47.742039039731026" lon="14.648998025804758">
        <ele>427.60000000000002</ele>
        <time>2012-10-21T12:40:36Z</time>
      </trkpt>
      <trkpt lat="47.742156973108649" lon="14.648656966164708">
        <ele>427.60000000000002</ele>
        <time>2012-10-21T12:40:46Z</time>
      </trkpt>
      <trkpt lat="47.74224498309195" lon="14.648366030305624">
        <ele>427.60000000000002</ele>
        <time>2012-10-21T12:40:54Z</time>
      </trkpt>
      <trkpt lat="47.742331987246871" lon="14.648115998134017">
        <ele>427.60000000000002</ele>
        <time>2012-10-21T12:41:01Z</time>
      </trkpt>
      <trkpt lat="47.742385966703296" lon="14.647967973724008">
        <ele>428</ele>
        <time>2012-10-21T12:41:05Z</time>
      </trkpt>
      <trkpt lat="47.742400970309973" lon="14.647934027016163">
        <ele>428.39999999999998</ele>
        <time>2012-10-21T12:41:06Z</time>
      </trkpt>
      <trkpt lat="47.742419997230172" lon="14.647902008146048">
        <ele>428.80000000000001</ele>
        <time>2012-10-21T12:41:07Z</time>
      </trkpt>
      <trkpt lat="47.742431983351707" lon="14.647869989275932">
        <ele>429.19999999999999</ele>
        <time>2012-10-21T12:41:08Z</time>
      </trkpt>
      <trkpt lat="47.742446986958385" lon="14.647837970405817">
        <ele>429.60000000000002</ele>
        <time>2012-10-21T12:41:09Z</time>
      </trkpt>
      <trkpt lat="47.742530973628163" lon="14.647618029266596">
        <ele>429.60000000000002</ele>
        <time>2012-10-21T12:41:15Z</time>
      </trkpt>
      <trkpt lat="47.742638010531664" lon="14.647375037893653">
        <ele>429.60000000000002</ele>
        <time>2012-10-21T12:41:22Z</time>
      </trkpt>
      <trkpt lat="47.742771031334996" lon="14.647121988236904">
        <ele>429.60000000000002</ele>
        <time>2012-10-21T12:41:30Z</time>
      </trkpt>
      <trkpt lat="47.742907991632819" lon="14.646855024620891">
        <ele>429.60000000000002</ele>
        <time>2012-10-21T12:41:38Z</time>
      </trkpt>
      <trkpt lat="47.742965994402766" lon="14.646742036566138">
        <ele>430</ele>
        <time>2012-10-21T12:41:41Z</time>
      </trkpt>
      <trkpt lat="47.742985021322966" lon="14.64670498855412">
        <ele>430.39999999999998</ele>
        <time>2012-10-21T12:41:42Z</time>
      </trkpt>
      <trkpt lat="47.743000024929643" lon="14.646667018532753">
        <ele>430.80000000000001</ele>
        <time>2012-10-21T12:41:43Z</time>
      </trkpt>
      <trkpt lat="47.74301896803081" lon="14.646630976349115">
        <ele>431.19999999999999</ele>
        <time>2012-10-21T12:41:44Z</time>
      </trkpt>
      <trkpt lat="47.74303799495101" lon="14.646599963307381">
        <ele>431.60000000000002</ele>
        <time>2012-10-21T12:41:45Z</time>
      </trkpt>
      <trkpt lat="47.7430609613657" lon="14.646564004942775">
        <ele>431.60000000000002</ele>
        <time>2012-10-21T12:41:46Z</time>
      </trkpt>
      <trkpt lat="47.743244022130966" lon="14.64625395834446">
        <ele>431.60000000000002</ele>
        <time>2012-10-21T12:41:55Z</time>
      </trkpt>
      <trkpt lat="47.743419958278537" lon="14.645977020263672">
        <ele>431.60000000000002</ele>
        <time>2012-10-21T12:42:03Z</time>
      </trkpt>
      <trkpt lat="47.743579968810081" lon="14.645742997527122">
        <ele>431.60000000000002</ele>
        <time>2012-10-21T12:42:10Z</time>
      </trkpt>
      <trkpt lat="47.743655992671847" lon="14.645639983937144">
        <ele>432</ele>
        <time>2012-10-21T12:42:13Z</time>
      </trkpt>
      <trkpt lat="47.74368298240006" lon="14.6456060372293">
        <ele>432.39999999999998</ele>
        <time>2012-10-21T12:42:14Z</time>
      </trkpt>
      <trkpt lat="47.743709972128272" lon="14.645575024187565">
        <ele>432.80000000000001</ele>
        <time>2012-10-21T12:42:15Z</time>
      </trkpt>
      <trkpt lat="47.743732016533613" lon="14.64554401114583">
        <ele>433.19999999999999</ele>
        <time>2012-10-21T12:42:16Z</time>
      </trkpt>
      <trkpt lat="47.743759006261826" lon="14.645514003932476">
        <ele>433.60000000000002</ele>
        <time>2012-10-21T12:42:17Z</time>
      </trkpt>
      <trkpt lat="47.74385497905314" lon="14.645392969250679">
        <ele>433.60000000000002</ele>
        <time>2012-10-21T12:42:21Z</time>
      </trkpt>
      <trkpt lat="47.744082966819406" lon="14.645108990371227">
        <ele>433.60000000000002</ele>
        <time>2012-10-21T12:42:30Z</time>
      </trkpt>
      <trkpt lat="47.744293017312884" lon="14.644867004826665">
        <ele>433.60000000000002</ele>
        <time>2012-10-21T12:42:38Z</time>
      </trkpt>
      <trkpt lat="47.744511030614376" lon="14.644659971818328">
        <ele>433.60000000000002</ele>
        <time>2012-10-21T12:42:46Z</time>
      </trkpt>
      <trkpt lat="47.744685960933566" lon="14.644501972943544">
        <ele>434</ele>
        <time>2012-10-21T12:42:52Z</time>
      </trkpt>
      <trkpt lat="47.744716973975301" lon="14.644476994872093">
        <ele>434.39999999999998</ele>
        <time>2012-10-21T12:42:53Z</time>
      </trkpt>
      <trkpt lat="47.744746981188655" lon="14.644456040114164">
        <ele>434.80000000000001</ele>
        <time>2012-10-21T12:42:54Z</time>
      </trkpt>
      <trkpt lat="47.74477799423039" lon="14.644429972395301">
        <ele>435.19999999999999</ele>
        <time>2012-10-21T12:42:55Z</time>
      </trkpt>
      <trkpt lat="47.744808001443744" lon="14.644402982667089">
        <ele>435.60000000000002</ele>
        <time>2012-10-21T12:42:56Z</time>
      </trkpt>
      <trkpt lat="47.744834991171956" lon="14.644374987110496">
        <ele>435.60000000000002</ele>
        <time>2012-10-21T12:42:57Z</time>
      </trkpt>
      <trkpt lat="47.745151994749904" lon="14.644131995737553">
        <ele>435.60000000000002</ele>
        <time>2012-10-21T12:43:07Z</time>
      </trkpt>
      <trkpt lat="47.745418958365917" lon="14.64395203627646">
        <ele>435.60000000000002</ele>
        <time>2012-10-21T12:43:15Z</time>
      </trkpt>
      <trkpt lat="47.74572397582233" lon="14.643763024359941">
        <ele>435.60000000000002</ele>
        <time>2012-10-21T12:43:24Z</time>
      </trkpt>
      <trkpt lat="47.746043996885419" lon="14.643599996343255">
        <ele>435.60000000000002</ele>
        <time>2012-10-21T12:43:33Z</time>
      </trkpt>
      <trkpt lat="47.746349014341831" lon="14.643488014116883">
        <ele>436</ele>
        <time>2012-10-21T12:43:41Z</time>
      </trkpt>
      <trkpt lat="47.746386984363198" lon="14.643476027995348">
        <ele>436.60000000000002</ele>
        <time>2012-10-21T12:43:42Z</time>
      </trkpt>
      <trkpt lat="47.746425960212946" lon="14.64345901273191">
        <ele>437</ele>
        <time>2012-10-21T12:43:43Z</time>
      </trkpt>
      <trkpt lat="47.746459990739822" lon="14.643445014953613">
        <ele>437.39999999999998</ele>
        <time>2012-10-21T12:43:44Z</time>
      </trkpt>
      <trkpt lat="47.746497960761189" lon="14.643434034660459">
        <ele>437.80000000000001</ele>
        <time>2012-10-21T12:43:45Z</time>
      </trkpt>
      <trkpt lat="47.746573984622955" lon="14.643409978598356">
        <ele>437.80000000000001</ele>
        <time>2012-10-21T12:43:47Z</time>
      </trkpt>
      <trkpt lat="47.746844971552491" lon="14.643326997756958">
        <ele>437.80000000000001</ele>
        <time>2012-10-21T12:43:54Z</time>
      </trkpt>
      <trkpt lat="47.747165998443961" lon="14.643259020522237">
        <ele>437.80000000000001</ele>
        <time>2012-10-21T12:44:02Z</time>
      </trkpt>
      <trkpt lat="47.747451988980174" lon="14.643214009702206">
        <ele>437.80000000000001</ele>
        <time>2012-10-21T12:44:09Z</time>
      </trkpt>
      <trkpt lat="47.747748959809542" lon="14.643188025802374">
        <ele>437.80000000000001</ele>
        <time>2012-10-21T12:44:16Z</time>
      </trkpt>
      <trkpt lat="47.748093036934733" lon="14.643199006095529">
        <ele>437.80000000000001</ele>
        <time>2012-10-21T12:44:24Z</time>
      </trkpt>
      <trkpt lat="47.748382966965437" lon="14.643228007480502">
        <ele>437.80000000000001</ele>
        <time>2012-10-21T12:44:31Z</time>
      </trkpt>
      <trkpt lat="47.748717991635203" lon="14.643285004422069">
        <ele>437.80000000000001</ele>
        <time>2012-10-21T12:44:39Z</time>
      </trkpt>
      <trkpt lat="47.748840032145381" lon="14.643311994150281">
        <ele>437.80000000000001</ele>
        <time>2012-10-21T12:44:42Z</time>
      </trkpt>
      <trkpt lat="47.74892401881516" lon="14.643336972221732">
        <ele>437.80000000000001</ele>
        <time>2012-10-21T12:44:44Z</time>
      </trkpt>
      <trkpt lat="47.74926801212132" lon="14.643430011346936">
        <ele>437.80000000000001</ele>
        <time>2012-10-21T12:44:52Z</time>
      </trkpt>
      <trkpt lat="47.74939700961113" lon="14.643473010510206">
        <ele>438.19999999999999</ele>
        <time>2012-10-21T12:44:55Z</time>
      </trkpt>
      <trkpt lat="47.749439002946019" lon="14.643491031602025">
        <ele>438.60000000000002</ele>
        <time>2012-10-21T12:44:56Z</time>
      </trkpt>
      <trkpt lat="47.749480996280909" lon="14.643507963046432">
        <ele>439</ele>
        <time>2012-10-21T12:44:57Z</time>
      </trkpt>
      <trkpt lat="47.749522989615798" lon="14.64352598413825">
        <ele>439.39999999999998</ele>
        <time>2012-10-21T12:44:58Z</time>
      </trkpt>
      <trkpt lat="47.749564982950687" lon="14.643541993573308">
        <ele>439.80000000000001</ele>
        <time>2012-10-21T12:44:59Z</time>
      </trkpt>
      <trkpt lat="47.749648969620466" lon="14.643575018271804">
        <ele>439.80000000000001</ele>
        <time>2012-10-21T12:45:01Z</time>
      </trkpt>
      <trkpt lat="47.75002297013998" lon="14.643767969682813">
        <ele>439.80000000000001</ele>
        <time>2012-10-21T12:45:10Z</time>
      </trkpt>
      <trkpt lat="47.750312983989716" lon="14.643924040719867">
        <ele>439.80000000000001</ele>
        <time>2012-10-21T12:45:17Z</time>
      </trkpt>
      <trkpt lat="47.750618001446128" lon="14.644133001565933">
        <ele>439.80000000000001</ele>
        <time>2012-10-21T12:45:25Z</time>
      </trkpt>
      <trkpt lat="47.750972975045443" lon="14.64438496157527">
        <ele>439.80000000000001</ele>
        <time>2012-10-21T12:45:34Z</time>
      </trkpt>
      <trkpt lat="47.751346975564957" lon="14.644623007625341">
        <ele>439.80000000000001</ele>
        <time>2012-10-21T12:45:43Z</time>
      </trkpt>
      <trkpt lat="47.751614023000002" lon="14.644790980964899">
        <ele>439.80000000000001</ele>
        <time>2012-10-21T12:45:49Z</time>
      </trkpt>
      <trkpt lat="47.751659033820033" lon="14.644815037027001">
        <ele>439.80000000000001</ele>
        <time>2012-10-21T12:45:50Z</time>
      </trkpt>
      <trkpt lat="47.751789037138224" lon="14.644884020090103">
        <ele>439.80000000000001</ele>
        <time>2012-10-21T12:45:53Z</time>
      </trkpt>
      <trkpt lat="47.751904036849737" lon="14.644951997324824">
        <ele>439.80000000000001</ele>
        <time>2012-10-21T12:45:56Z</time>
      </trkpt>
      <trkpt lat="47.752304021269083" lon="14.645142015069723">
        <ele>439.80000000000001</ele>
        <time>2012-10-21T12:46:05Z</time>
      </trkpt>
      <trkpt lat="47.752693025395274" lon="14.645277969539165">
        <ele>439.80000000000001</ele>
        <time>2012-10-21T12:46:13Z</time>
      </trkpt>
      <trkpt lat="47.752892011776567" lon="14.645335972309113">
        <ele>439</ele>
        <time>2012-10-21T12:46:17Z</time>
      </trkpt>
      <trkpt lat="47.752944985404611" lon="14.645349970087409">
        <ele>438.60000000000002</ele>
        <time>2012-10-21T12:46:18Z</time>
      </trkpt>
      <trkpt lat="47.752995025366545" lon="14.645366985350847">
        <ele>438.19999999999999</ele>
        <time>2012-10-21T12:46:19Z</time>
      </trkpt>
      <trkpt lat="47.753052022308111" lon="14.645384000614285">
        <ele>437.60000000000002</ele>
        <time>2012-10-21T12:46:20Z</time>
      </trkpt>
      <trkpt lat="47.753384029492736" lon="14.645529007539153">
        <ele>437.60000000000002</ele>
        <time>2012-10-21T12:46:27Z</time>
      </trkpt>
      <trkpt lat="47.75358603335917" lon="14.64567300863564">
        <ele>437.60000000000002</ele>
        <time>2012-10-21T12:46:33Z</time>
      </trkpt>
      <trkpt lat="47.753712013363838" lon="14.645783985033631">
        <ele>438.19999999999999</ele>
        <time>2012-10-21T12:46:39Z</time>
      </trkpt>
      <trkpt lat="47.753731040284038" lon="14.645799994468689">
        <ele>438.60000000000002</ele>
        <time>2012-10-21T12:46:40Z</time>
      </trkpt>
      <trkpt lat="47.753754006698728" lon="14.645811980590224">
        <ele>439</ele>
        <time>2012-10-21T12:46:41Z</time>
      </trkpt>
      <trkpt lat="47.753773033618927" lon="14.645826984196901">
        <ele>439.80000000000001</ele>
        <time>2012-10-21T12:46:42Z</time>
      </trkpt>
      <trkpt lat="47.753845034167171" lon="14.645895967260003">
        <ele>440.19999999999999</ele>
        <time>2012-10-21T12:46:46Z</time>
      </trkpt>
      <trkpt lat="47.753868000581861" lon="14.64591097086668">
        <ele>440.80000000000001</ele>
        <time>2012-10-21T12:46:47Z</time>
      </trkpt>
      <trkpt lat="47.753883004188538" lon="14.645924968644977">
        <ele>441.19999999999999</ele>
        <time>2012-10-21T12:46:48Z</time>
      </trkpt>
      <trkpt lat="47.753899013623595" lon="14.645933015272021">
        <ele>441.60000000000002</ele>
        <time>2012-10-21T12:46:49Z</time>
      </trkpt>
      <trkpt lat="47.753921980038285" lon="14.645943995565176">
        <ele>442</ele>
        <time>2012-10-21T12:46:50Z</time>
      </trkpt>
      <trkpt lat="47.753960033878684" lon="14.645964028313756">
        <ele>442</ele>
        <time>2012-10-21T12:46:52Z</time>
      </trkpt>
      <trkpt lat="47.753998003900051" lon="14.645980037748814">
        <ele>442.60000000000002</ele>
        <time>2012-10-21T12:46:54Z</time>
      </trkpt>
      <trkpt lat="47.754020970314741" lon="14.645989006385207">
        <ele>443</ele>
        <time>2012-10-21T12:46:55Z</time>
      </trkpt>
      <trkpt lat="47.754039997234941" lon="14.64599403552711">
        <ele>443.39999999999998</ele>
        <time>2012-10-21T12:46:56Z</time>
      </trkpt>
      <trkpt lat="47.754062963649631" lon="14.645997975021601">
        <ele>443.80000000000001</ele>
        <time>2012-10-21T12:46:57Z</time>
      </trkpt>
      <trkpt lat="47.754086013883352" lon="14.646003004163504">
        <ele>444.19999999999999</ele>
        <time>2012-10-21T12:46:58Z</time>
      </trkpt>
      <trkpt lat="47.754107974469662" lon="14.646000992506742">
        <ele>444.19999999999999</ele>
        <time>2012-10-21T12:46:59Z</time>
      </trkpt>
      <trkpt lat="47.754222974181175" lon="14.646001998335123">
        <ele>444.60000000000002</ele>
        <time>2012-10-21T12:47:05Z</time>
      </trkpt>
      <trkpt lat="47.754242001101375" lon="14.645998980849981">
        <ele>445</ele>
        <time>2012-10-21T12:47:06Z</time>
      </trkpt>
      <trkpt lat="47.754257004708052" lon="14.645995041355491">
        <ele>445.80000000000001</ele>
        <time>2012-10-21T12:47:07Z</time>
      </trkpt>
      <trkpt lat="47.754276031628251" lon="14.64599696919322">
        <ele>446.19999999999999</ele>
        <time>2012-10-21T12:47:08Z</time>
      </trkpt>
      <trkpt lat="47.754349038004875" lon="14.645998980849981">
        <ele>446.19999999999999</ele>
        <time>2012-10-21T12:47:12Z</time>
      </trkpt>
      <trkpt lat="47.754478035494685" lon="14.646027982234955">
        <ele>446.19999999999999</ele>
        <time>2012-10-21T12:47:18Z</time>
      </trkpt>
      <trkpt lat="47.754569984972477" lon="14.646040974184871">
        <ele>446.60000000000002</ele>
        <time>2012-10-21T12:47:22Z</time>
      </trkpt>
      <trkpt lat="47.754593035206199" lon="14.646038040518761">
        <ele>447.19999999999999</ele>
        <time>2012-10-21T12:47:23Z</time>
      </trkpt>
      <trkpt lat="47.754611978307366" lon="14.646032005548477">
        <ele>447.60000000000002</ele>
        <time>2012-10-21T12:47:24Z</time>
      </trkpt>
      <trkpt lat="47.754635028541088" lon="14.646026976406574">
        <ele>448</ele>
        <time>2012-10-21T12:47:25Z</time>
      </trkpt>
      <trkpt lat="47.754653971642256" lon="14.646026976406574">
        <ele>448.39999999999998</ele>
        <time>2012-10-21T12:47:26Z</time>
      </trkpt>
      <trkpt lat="47.754695964977145" lon="14.646036028862">
        <ele>448.39999999999998</ele>
        <time>2012-10-21T12:47:28Z</time>
      </trkpt>
      <trkpt lat="47.754741981625557" lon="14.646062012761831">
        <ele>448.39999999999998</ele>
        <time>2012-10-21T12:47:30Z</time>
      </trkpt>
      <trkpt lat="47.754844995215535" lon="14.646062012761831">
        <ele>448.39999999999998</ele>
        <time>2012-10-21T12:47:34Z</time>
      </trkpt>
      <trkpt lat="47.754912972450256" lon="14.646056983619928">
        <ele>448.39999999999998</ele>
        <time>2012-10-21T12:47:36Z</time>
      </trkpt>
      <trkpt lat="47.755031995475292" lon="14.646049020811915">
        <ele>448.39999999999998</ele>
        <time>2012-10-21T12:47:39Z</time>
      </trkpt>
      <trkpt lat="47.755073988810182" lon="14.646049020811915">
        <ele>448.39999999999998</ele>
        <time>2012-10-21T12:47:40Z</time>
      </trkpt>
      <trkpt lat="47.755359979346395" lon="14.646020019426942">
        <ele>448.39999999999998</ele>
        <time>2012-10-21T12:47:46Z</time>
      </trkpt>
      <trkpt lat="47.755473973229527" lon="14.646010966971517">
        <ele>447.80000000000001</ele>
        <time>2012-10-21T12:47:48Z</time>
      </trkpt>
      <trkpt lat="47.755539016798139" lon="14.646005015820265">
        <ele>447.39999999999998</ele>
        <time>2012-10-21T12:47:49Z</time>
      </trkpt>
      <trkpt lat="47.755603976547718" lon="14.645988000556827">
        <ele>447</ele>
        <time>2012-10-21T12:47:50Z</time>
      </trkpt>
      <trkpt lat="47.755672037601471" lon="14.645965034142137">
        <ele>446.60000000000002</ele>
        <time>2012-10-21T12:47:51Z</time>
      </trkpt>
      <trkpt lat="47.755748983472586" lon="14.645939972251654">
        <ele>446</ele>
        <time>2012-10-21T12:47:52Z</time>
      </trkpt>
      <trkpt lat="47.755816960707307" lon="14.645918011665344">
        <ele>445.60000000000002</ele>
        <time>2012-10-21T12:47:53Z</time>
      </trkpt>
      <trkpt lat="47.75588602758944" lon="14.645894039422274">
        <ele>445.19999999999999</ele>
        <time>2012-10-21T12:47:54Z</time>
      </trkpt>
      <trkpt lat="47.75595098733902" lon="14.645871995016932">
        <ele>444.80000000000001</ele>
        <time>2012-10-21T12:47:55Z</time>
      </trkpt>
      <trkpt lat="47.756027011200786" lon="14.64586797170341">
        <ele>443.80000000000001</ele>
        <time>2012-10-21T12:47:56Z</time>
      </trkpt>
      <trkpt lat="47.756104040890932" lon="14.645869983360171">
        <ele>443.39999999999998</ele>
        <time>2012-10-21T12:47:57Z</time>
      </trkpt>
      <trkpt lat="47.756176041439176" lon="14.645870989188552">
        <ele>442.80000000000001</ele>
        <time>2012-10-21T12:47:58Z</time>
      </trkpt>
      <trkpt lat="47.75625198148191" lon="14.645873000845313">
        <ele>442.19999999999999</ele>
        <time>2012-10-21T12:47:59Z</time>
      </trkpt>
      <trkpt lat="47.756329011172056" lon="14.645884986966848">
        <ele>441.60000000000002</ele>
        <time>2012-10-21T12:48:00Z</time>
      </trkpt>
      <trkpt lat="47.756412997841835" lon="14.645903008058667">
        <ele>441</ele>
        <time>2012-10-21T12:48:01Z</time>
      </trkpt>
      <trkpt lat="47.756495978683233" lon="14.645920023322105">
        <ele>440.39999999999998</ele>
        <time>2012-10-21T12:48:02Z</time>
      </trkpt>
      <trkpt lat="47.756577031686902" lon="14.645935026928782">
        <ele>439.80000000000001</ele>
        <time>2012-10-21T12:48:03Z</time>
      </trkpt>
      <trkpt lat="47.7566600125283" lon="14.64595003053546">
        <ele>439.19999999999999</ele>
        <time>2012-10-21T12:48:04Z</time>
      </trkpt>
      <trkpt lat="47.756743999198079" lon="14.645968973636627">
        <ele>438.39999999999998</ele>
        <time>2012-10-21T12:48:05Z</time>
      </trkpt>
      <trkpt lat="47.756836032494903" lon="14.645990012213588">
        <ele>437.80000000000001</ele>
        <time>2012-10-21T12:48:06Z</time>
      </trkpt>
      <trkpt lat="47.756920019164681" lon="14.646008033305407">
        <ele>437.19999999999999</ele>
        <time>2012-10-21T12:48:07Z</time>
      </trkpt>
      <trkpt lat="47.75700400583446" lon="14.646023036912084">
        <ele>436.60000000000002</ele>
        <time>2012-10-21T12:48:08Z</time>
      </trkpt>
      <trkpt lat="47.757087992504239" lon="14.646038040518761">
        <ele>436</ele>
        <time>2012-10-21T12:48:09Z</time>
      </trkpt>
      <trkpt lat="47.757168039679527" lon="14.646055977791548">
        <ele>435.60000000000002</ele>
        <time>2012-10-21T12:48:10Z</time>
      </trkpt>
      <trkpt lat="47.757248003035784" lon="14.646075004711747">
        <ele>435.19999999999999</ele>
        <time>2012-10-21T12:48:11Z</time>
      </trkpt>
      <trkpt lat="47.75732402689755" lon="14.646091014146805">
        <ele>434.60000000000002</ele>
        <time>2012-10-21T12:48:12Z</time>
      </trkpt>
      <trkpt lat="47.757403990253806" lon="14.646108029410243">
        <ele>434.19999999999999</ele>
        <time>2012-10-21T12:48:13Z</time>
      </trkpt>
      <trkpt lat="47.757484037429094" lon="14.646126972511411">
        <ele>433.80000000000001</ele>
        <time>2012-10-21T12:48:14Z</time>
      </trkpt>
      <trkpt lat="47.757637007161975" lon="14.646156979724765">
        <ele>433.39999999999998</ele>
        <time>2012-10-21T12:48:16Z</time>
      </trkpt>
      <trkpt lat="47.757713031023741" lon="14.646175000816584">
        <ele>433</ele>
        <time>2012-10-21T12:48:17Z</time>
      </trkpt>
      <trkpt lat="47.757789976894855" lon="14.646190004423261">
        <ele>432.39999999999998</ele>
        <time>2012-10-21T12:48:18Z</time>
      </trkpt>
      <trkpt lat="47.757866000756621" lon="14.646204002201557">
        <ele>432</ele>
        <time>2012-10-21T12:48:19Z</time>
      </trkpt>
      <trkpt lat="47.757945964112878" lon="14.646221017464995">
        <ele>431.60000000000002</ele>
        <time>2012-10-21T12:48:20Z</time>
      </trkpt>
      <trkpt lat="47.758102035149932" lon="14.646255970001221">
        <ele>431.19999999999999</ele>
        <time>2012-10-21T12:48:22Z</time>
      </trkpt>
      <trkpt lat="47.758178981021047" lon="14.646278014406562">
        <ele>430.80000000000001</ele>
        <time>2012-10-21T12:48:23Z</time>
      </trkpt>
      <trkpt lat="47.758255004882813" lon="14.64629796333611">
        <ele>430.39999999999998</ele>
        <time>2012-10-21T12:48:24Z</time>
      </trkpt>
      <trkpt lat="47.758331028744578" lon="14.646319001913071">
        <ele>430</ele>
        <time>2012-10-21T12:48:25Z</time>
      </trkpt>
      <trkpt lat="47.758407974615693" lon="14.646341968327761">
        <ele>429.39999999999998</ele>
        <time>2012-10-21T12:48:26Z</time>
      </trkpt>
      <trkpt lat="47.758705029264092" lon="14.646426038816571">
        <ele>429</ele>
        <time>2012-10-21T12:48:30Z</time>
      </trkpt>
      <trkpt lat="47.758778035640717" lon="14.646444981917739">
        <ele>428.60000000000002</ele>
        <time>2012-10-21T12:48:31Z</time>
      </trkpt>
      <trkpt lat="47.75885003618896" lon="14.646463003009558">
        <ele>428.19999999999999</ele>
        <time>2012-10-21T12:48:32Z</time>
      </trkpt>
      <trkpt lat="47.758919019252062" lon="14.646484041586518">
        <ele>427.60000000000002</ele>
        <time>2012-10-21T12:48:33Z</time>
      </trkpt>
      <trkpt lat="47.758991019800305" lon="14.646502984687686">
        <ele>427.19999999999999</ele>
        <time>2012-10-21T12:48:34Z</time>
      </trkpt>
      <trkpt lat="47.759350016713142" lon="14.646597029641271">
        <ele>426.80000000000001</ele>
        <time>2012-10-21T12:48:39Z</time>
      </trkpt>
      <trkpt lat="47.759417993947864" lon="14.646615972742438">
        <ele>426.39999999999998</ele>
        <time>2012-10-21T12:48:40Z</time>
      </trkpt>
      <trkpt lat="47.759491000324488" lon="14.646636005491018">
        <ele>426</ele>
        <time>2012-10-21T12:48:41Z</time>
      </trkpt>
      <trkpt lat="47.759559983387589" lon="14.646656038239598">
        <ele>425.39999999999998</ele>
        <time>2012-10-21T12:48:42Z</time>
      </trkpt>
      <trkpt lat="47.759631983935833" lon="14.646677998825908">
        <ele>425</ele>
        <time>2012-10-21T12:48:43Z</time>
      </trkpt>
      <trkpt lat="47.759704990312457" lon="14.646697025746107">
        <ele>425</ele>
        <time>2012-10-21T12:48:44Z</time>
      </trkpt>
      <trkpt lat="47.759914034977555" lon="14.646749999374151">
        <ele>424.60000000000002</ele>
        <time>2012-10-21T12:48:47Z</time>
      </trkpt>
      <trkpt lat="47.759987041354179" lon="14.64676802046597">
        <ele>424.19999999999999</ele>
        <time>2012-10-21T12:48:48Z</time>
      </trkpt>
      <trkpt lat="47.760059041902423" lon="14.646786041557789">
        <ele>423.80000000000001</ele>
        <time>2012-10-21T12:48:49Z</time>
      </trkpt>
      <trkpt lat="47.760128024965525" lon="14.646805990487337">
        <ele>423.19999999999999</ele>
        <time>2012-10-21T12:48:50Z</time>
      </trkpt>
      <trkpt lat="47.760201031342149" lon="14.646825017407537">
        <ele>422.80000000000001</ele>
        <time>2012-10-21T12:48:51Z</time>
      </trkpt>
      <trkpt lat="47.760337991639972" lon="14.646857958287001">
        <ele>422.80000000000001</ele>
        <time>2012-10-21T12:48:53Z</time>
      </trkpt>
      <trkpt lat="47.760611996054649" lon="14.646934987977147">
        <ele>422.39999999999998</ele>
        <time>2012-10-21T12:48:57Z</time>
      </trkpt>
      <trkpt lat="47.760680979117751" lon="14.646957032382488">
        <ele>422</ele>
        <time>2012-10-21T12:48:58Z</time>
      </trkpt>
      <trkpt lat="47.760761026293039" lon="14.646986033767462">
        <ele>421.60000000000002</ele>
        <time>2012-10-21T12:48:59Z</time>
      </trkpt>
      <trkpt lat="47.760834032669663" lon="14.647016962990165">
        <ele>421</ele>
        <time>2012-10-21T12:49:00Z</time>
      </trkpt>
      <trkpt lat="47.760906033217907" lon="14.647050993517041">
        <ele>420.60000000000002</ele>
        <time>2012-10-21T12:49:01Z</time>
      </trkpt>
      <trkpt lat="47.761054979637265" lon="14.647120982408524">
        <ele>420.19999999999999</ele>
        <time>2012-10-21T12:49:03Z</time>
      </trkpt>
      <trkpt lat="47.761131003499031" lon="14.647161969915032">
        <ele>419.80000000000001</ele>
        <time>2012-10-21T12:49:04Z</time>
      </trkpt>
      <trkpt lat="47.761208033189178" lon="14.647202035412192">
        <ele>419.39999999999998</ele>
        <time>2012-10-21T12:49:05Z</time>
      </trkpt>
      <trkpt lat="47.761287996545434" lon="14.647238999605179">
        <ele>419</ele>
        <time>2012-10-21T12:49:06Z</time>
      </trkpt>
      <trkpt lat="47.761375000700355" lon="14.647273030132055">
        <ele>418.39999999999998</ele>
        <time>2012-10-21T12:49:07Z</time>
      </trkpt>
      <trkpt lat="47.761463010683656" lon="14.647298008203506">
        <ele>418.39999999999998</ele>
        <time>2012-10-21T12:49:08Z</time>
      </trkpt>
      <trkpt lat="47.761551020666957" lon="14.647314017638564">
        <ele>418</ele>
        <time>2012-10-21T12:49:09Z</time>
      </trkpt>
      <trkpt lat="47.761641964316368" lon="14.647319968789816">
        <ele>417</ele>
        <time>2012-10-21T12:49:10Z</time>
      </trkpt>
      <trkpt lat="47.761733997613192" lon="14.647318040952086">
        <ele>416.60000000000002</ele>
        <time>2012-10-21T12:49:11Z</time>
      </trkpt>
      <trkpt lat="47.761828964576125" lon="14.647303959354758">
        <ele>416</ele>
        <time>2012-10-21T12:49:12Z</time>
      </trkpt>
      <trkpt lat="47.761920997872949" lon="14.647278981283307">
        <ele>415.60000000000002</ele>
        <time>2012-10-21T12:49:13Z</time>
      </trkpt>
      <trkpt lat="47.762012025341392" lon="14.647251991555095">
        <ele>415.19999999999999</ele>
        <time>2012-10-21T12:49:14Z</time>
      </trkpt>
      <trkpt lat="47.762107998132706" lon="14.647214021533728">
        <ele>414.80000000000001</ele>
        <time>2012-10-21T12:49:15Z</time>
      </trkpt>
      <trkpt lat="47.762196008116007" lon="14.647176973521709">
        <ele>414.39999999999998</ele>
        <time>2012-10-21T12:49:16Z</time>
      </trkpt>
      <trkpt lat="47.762283012270927" lon="14.647144032642245">
        <ele>414</ele>
        <time>2012-10-21T12:49:17Z</time>
      </trkpt>
      <trkpt lat="47.762630023062229" lon="14.647041019052267">
        <ele>413.60000000000002</ele>
        <time>2012-10-21T12:49:21Z</time>
      </trkpt>
      <trkpt lat="47.762710992246866" lon="14.647024003788829">
        <ele>413.19999999999999</ele>
        <time>2012-10-21T12:49:22Z</time>
      </trkpt>
      <trkpt lat="47.762797996401787" lon="14.647016040980816">
        <ele>412.60000000000002</ele>
        <time>2012-10-21T12:49:23Z</time>
      </trkpt>
      <trkpt lat="47.762877959758043" lon="14.647017968818545">
        <ele>412.19999999999999</ele>
        <time>2012-10-21T12:49:24Z</time>
      </trkpt>
      <trkpt lat="47.76295498944819" lon="14.647028027102351">
        <ele>411.80000000000001</ele>
        <time>2012-10-21T12:49:25Z</time>
      </trkpt>
      <trkpt lat="47.763107037171721" lon="14.647058034315705">
        <ele>411.80000000000001</ele>
        <time>2012-10-21T12:49:27Z</time>
      </trkpt>
      <trkpt lat="47.763504004105926" lon="14.647145960479975">
        <ele>411.80000000000001</ele>
        <time>2012-10-21T12:49:33Z</time>
      </trkpt>
      <trkpt lat="47.763767028227448" lon="14.647238999605179">
        <ele>412.19999999999999</ele>
        <time>2012-10-21T12:49:38Z</time>
      </trkpt>
      <trkpt lat="47.763812961056828" lon="14.647252997383475">
        <ele>412.60000000000002</ele>
        <time>2012-10-21T12:49:39Z</time>
      </trkpt>
      <trkpt lat="47.76385897770524" lon="14.647269006818533">
        <ele>413.19999999999999</ele>
        <time>2012-10-21T12:49:40Z</time>
      </trkpt>
      <trkpt lat="47.763897031545639" lon="14.647288033738732">
        <ele>413.60000000000002</ele>
        <time>2012-10-21T12:49:41Z</time>
      </trkpt>
      <trkpt lat="47.763939024880528" lon="14.647301025688648">
        <ele>414</ele>
        <time>2012-10-21T12:49:42Z</time>
      </trkpt>
      <trkpt lat="47.764014964923263" lon="14.647320974618196">
        <ele>414</ele>
        <time>2012-10-21T12:49:44Z</time>
      </trkpt>
      <trkpt lat="47.764194002375007" lon="14.647380989044905">
        <ele>414.39999999999998</ele>
        <time>2012-10-21T12:49:49Z</time>
      </trkpt>
      <trkpt lat="47.764229038730264" lon="14.647388029843569">
        <ele>414.80000000000001</ele>
        <time>2012-10-21T12:49:50Z</time>
      </trkpt>
      <trkpt lat="47.764267008751631" lon="14.647396998479962">
        <ele>415.19999999999999</ele>
        <time>2012-10-21T12:49:51Z</time>
      </trkpt>
      <trkpt lat="47.764301039278507" lon="14.647407978773117">
        <ele>415.60000000000002</ele>
        <time>2012-10-21T12:49:52Z</time>
      </trkpt>
      <trkpt lat="47.76433196850121" lon="14.647418959066272">
        <ele>416</ele>
        <time>2012-10-21T12:49:53Z</time>
      </trkpt>
      <trkpt lat="47.764445962384343" lon="14.647486014291644">
        <ele>416</ele>
        <time>2012-10-21T12:49:57Z</time>
      </trkpt>
      <trkpt lat="47.764572026208043" lon="14.647571006789804">
        <ele>416.39999999999998</ele>
        <time>2012-10-21T12:50:01Z</time>
      </trkpt>
      <trkpt lat="47.764603039249778" lon="14.647593973204494">
        <ele>416.80000000000001</ele>
        <time>2012-10-21T12:50:02Z</time>
      </trkpt>
      <trkpt lat="47.7646329626441" lon="14.647614005953074">
        <ele>417.19999999999999</ele>
        <time>2012-10-21T12:50:03Z</time>
      </trkpt>
      <trkpt lat="47.764660036191344" lon="14.647629009559751">
        <ele>417.60000000000002</ele>
        <time>2012-10-21T12:50:04Z</time>
      </trkpt>
      <trkpt lat="47.764689959585667" lon="14.647646024823189">
        <ele>418</ele>
        <time>2012-10-21T12:50:05Z</time>
      </trkpt>
      <trkpt lat="47.76480101980269" lon="14.64771400205791">
        <ele>418</ele>
        <time>2012-10-21T12:50:09Z</time>
      </trkpt>
      <trkpt lat="47.76493102312088" lon="14.647796982899308">
        <ele>418</ele>
        <time>2012-10-21T12:50:15Z</time>
      </trkpt>
      <trkpt lat="47.765003023669124" lon="14.647836964577436">
        <ele>418.39999999999998</ele>
        <time>2012-10-21T12:50:18Z</time>
      </trkpt>
      <trkpt lat="47.765025990083814" lon="14.647848028689623">
        <ele>418.80000000000001</ele>
        <time>2012-10-21T12:50:19Z</time>
      </trkpt>
      <trkpt lat="47.765045017004013" lon="14.647862026467919">
        <ele>419.19999999999999</ele>
        <time>2012-10-21T12:50:20Z</time>
      </trkpt>
      <trkpt lat="47.765067983418703" lon="14.647878035902977">
        <ele>419.60000000000002</ele>
        <time>2012-10-21T12:50:21Z</time>
      </trkpt>
      <trkpt lat="47.765091033652425" lon="14.647891027852893">
        <ele>420</ele>
        <time>2012-10-21T12:50:22Z</time>
      </trkpt>
      <trkpt lat="47.76523201726377" lon="14.647979959845543">
        <ele>420</ele>
        <time>2012-10-21T12:50:29Z</time>
      </trkpt>
      <trkpt lat="47.765365960076451" lon="14.648084985092282">
        <ele>420</ele>
        <time>2012-10-21T12:50:35Z</time>
      </trkpt>
      <trkpt lat="47.765395967289805" lon="14.648109963163733">
        <ele>420.39999999999998</ele>
        <time>2012-10-21T12:50:37Z</time>
      </trkpt>
      <trkpt lat="47.765410970896482" lon="14.648126978427172">
        <ele>420.80000000000001</ele>
        <time>2012-10-21T12:50:38Z</time>
      </trkpt>
      <trkpt lat="47.765429997816682" lon="14.648137958720326">
        <ele>421.19999999999999</ele>
        <time>2012-10-21T12:50:39Z</time>
      </trkpt>
      <trkpt lat="47.765452964231372" lon="14.648152040317655">
        <ele>421.80000000000001</ele>
        <time>2012-10-21T12:50:40Z</time>
      </trkpt>
      <trkpt lat="47.765471991151571" lon="14.6481669601053">
        <ele>422.19999999999999</ele>
        <time>2012-10-21T12:50:41Z</time>
      </trkpt>
      <trkpt lat="47.765633007511497" lon="14.648309033364058">
        <ele>422.19999999999999</ele>
        <time>2012-10-21T12:50:50Z</time>
      </trkpt>
      <trkpt lat="47.765811961144209" lon="14.648434007540345">
        <ele>422.19999999999999</ele>
        <time>2012-10-21T12:50:57Z</time>
      </trkpt>
      <trkpt lat="47.76602896861732" lon="14.648515982553363">
        <ele>422.19999999999999</ele>
        <time>2012-10-21T12:51:04Z</time>
      </trkpt>
      <trkpt lat="47.766334991902113" lon="14.648579014465213">
        <ele>422.19999999999999</ele>
        <time>2012-10-21T12:51:13Z</time>
      </trkpt>
      <trkpt lat="47.766761966049671" lon="14.648667024448514">
        <ele>422.19999999999999</ele>
        <time>2012-10-21T12:51:24Z</time>
      </trkpt>
      <trkpt lat="47.767159016802907" lon="14.648819994181395">
        <ele>422.19999999999999</ele>
        <time>2012-10-21T12:51:34Z</time>
      </trkpt>
      <trkpt lat="47.767319027334452" lon="14.648911021649837">
        <ele>422.19999999999999</ele>
        <time>2012-10-21T12:51:38Z</time>
      </trkpt>
      <trkpt lat="47.767479037865996" lon="14.649015041068196">
        <ele>422.19999999999999</ele>
        <time>2012-10-21T12:51:42Z</time>
      </trkpt>
      <trkpt lat="47.767822025343776" lon="14.649315029382706">
        <ele>422.19999999999999</ele>
        <time>2012-10-21T12:51:50Z</time>
      </trkpt>
      <trkpt lat="47.768124025315046" lon="14.649687018245459">
        <ele>421.80000000000001</ele>
        <time>2012-10-21T12:51:57Z</time>
      </trkpt>
      <trkpt lat="47.768169036135077" lon="14.649751977995038">
        <ele>421.19999999999999</ele>
        <time>2012-10-21T12:51:58Z</time>
      </trkpt>
      <trkpt lat="47.768208011984825" lon="14.649816015735269">
        <ele>420.80000000000001</ele>
        <time>2012-10-21T12:51:59Z</time>
      </trkpt>
      <trkpt lat="47.768250005319715" lon="14.649876030161977">
        <ele>420.39999999999998</ele>
        <time>2012-10-21T12:52:00Z</time>
      </trkpt>
      <trkpt lat="47.768287975341082" lon="14.649946019053459">
        <ele>420</ele>
        <time>2012-10-21T12:52:01Z</time>
      </trkpt>
      <trkpt lat="47.768410015851259" lon="14.650151040405035">
        <ele>420</ele>
        <time>2012-10-21T12:52:04Z</time>
      </trkpt>
      <trkpt lat="47.768489979207516" lon="14.650295041501522">
        <ele>419.60000000000002</ele>
        <time>2012-10-21T12:52:06Z</time>
      </trkpt>
      <trkpt lat="47.768524009734392" lon="14.650371987372637">
        <ele>419.19999999999999</ele>
        <time>2012-10-21T12:52:07Z</time>
      </trkpt>
      <trkpt lat="47.768561979755759" lon="14.650449017062783">
        <ele>418.80000000000001</ele>
        <time>2012-10-21T12:52:08Z</time>
      </trkpt>
      <trkpt lat="47.768597016111016" lon="14.65052998624742">
        <ele>418.39999999999998</ele>
        <time>2012-10-21T12:52:09Z</time>
      </trkpt>
      <trkpt lat="47.768630962818861" lon="14.650610033422709">
        <ele>418</ele>
        <time>2012-10-21T12:52:10Z</time>
      </trkpt>
      <trkpt lat="47.768706986680627" lon="14.650780018419027">
        <ele>418</ele>
        <time>2012-10-21T12:52:12Z</time>
      </trkpt>
      <trkpt lat="47.768779993057251" lon="14.650951009243727">
        <ele>417.60000000000002</ele>
        <time>2012-10-21T12:52:14Z</time>
      </trkpt>
      <trkpt lat="47.768814023584127" lon="14.651041030883789">
        <ele>417.19999999999999</ele>
        <time>2012-10-21T12:52:15Z</time>
      </trkpt>
      <trkpt lat="47.768845036625862" lon="14.651132980361581">
        <ele>416.60000000000002</ele>
        <time>2012-10-21T12:52:16Z</time>
      </trkpt>
      <trkpt lat="47.768871020525694" lon="14.651225013658404">
        <ele>416.19999999999999</ele>
        <time>2012-10-21T12:52:17Z</time>
      </trkpt>
      <trkpt lat="47.768902033567429" lon="14.651316963136196">
        <ele>415.80000000000001</ele>
        <time>2012-10-21T12:52:18Z</time>
      </trkpt>
      <trkpt lat="47.768932040780783" lon="14.65140899643302">
        <ele>415.80000000000001</ele>
        <time>2012-10-21T12:52:19Z</time>
      </trkpt>
      <trkpt lat="47.769053997471929" lon="14.651790037751198">
        <ele>415.39999999999998</ele>
        <time>2012-10-21T12:52:23Z</time>
      </trkpt>
      <trkpt lat="47.769085010513663" lon="14.651879975572228">
        <ele>415</ele>
        <time>2012-10-21T12:52:24Z</time>
      </trkpt>
      <trkpt lat="47.76911904104054" lon="14.65196899138391">
        <ele>414.60000000000002</ele>
        <time>2012-10-21T12:52:25Z</time>
      </trkpt>
      <trkpt lat="47.769153993576765" lon="14.652057001367211">
        <ele>414.19999999999999</ele>
        <time>2012-10-21T12:52:26Z</time>
      </trkpt>
      <trkpt lat="47.769191963598132" lon="14.652146017178893">
        <ele>413.80000000000001</ele>
        <time>2012-10-21T12:52:27Z</time>
      </trkpt>
      <trkpt lat="47.769469991326332" lon="14.652714980766177">
        <ele>413.80000000000001</ele>
        <time>2012-10-21T12:52:34Z</time>
      </trkpt>
      <trkpt lat="47.769520031288266" lon="14.652792010456324">
        <ele>413.39999999999998</ele>
        <time>2012-10-21T12:52:35Z</time>
      </trkpt>
      <trkpt lat="47.769568981602788" lon="14.652866022661328">
        <ele>413</ele>
        <time>2012-10-21T12:52:36Z</time>
      </trkpt>
      <trkpt lat="47.7696149982512" lon="14.652940034866333">
        <ele>412.60000000000002</ele>
        <time>2012-10-21T12:52:37Z</time>
      </trkpt>
      <trkpt lat="47.769665038213134" lon="14.653009017929435">
        <ele>412.19999999999999</ele>
        <time>2012-10-21T12:52:38Z</time>
      </trkpt>
      <trkpt lat="47.769718011841178" lon="14.653078000992537">
        <ele>411.80000000000001</ele>
        <time>2012-10-21T12:52:39Z</time>
      </trkpt>
      <trkpt lat="47.76976796798408" lon="14.653143966570497">
        <ele>411.80000000000001</ele>
        <time>2012-10-21T12:52:40Z</time>
      </trkpt>
      <trkpt lat="47.770119002088904" lon="14.653508998453617">
        <ele>411.80000000000001</ele>
        <time>2012-10-21T12:52:46Z</time>
      </trkpt>
      <trkpt lat="47.770385965704918" lon="14.653687030076981">
        <ele>411.39999999999998</ele>
        <time>2012-10-21T12:52:50Z</time>
      </trkpt>
      <trkpt lat="47.770454026758671" lon="14.653722988441586">
        <ele>411</ele>
        <time>2012-10-21T12:52:51Z</time>
      </trkpt>
      <trkpt lat="47.770527033135295" lon="14.653750983998179">
        <ele>410.39999999999998</ele>
        <time>2012-10-21T12:52:52Z</time>
      </trkpt>
      <trkpt lat="47.770599033683538" lon="14.653775040060282">
        <ele>410</ele>
        <time>2012-10-21T12:52:53Z</time>
      </trkpt>
      <trkpt lat="47.770672040060163" lon="14.653795994818211">
        <ele>409.60000000000002</ele>
        <time>2012-10-21T12:52:54Z</time>
      </trkpt>
      <trkpt lat="47.770816963165998" lon="14.653814015910029">
        <ele>409.60000000000002</ele>
        <time>2012-10-21T12:52:56Z</time>
      </trkpt>
      <trkpt lat="47.771042017266154" lon="14.653789037838578">
        <ele>409.19999999999999</ele>
        <time>2012-10-21T12:52:59Z</time>
      </trkpt>
      <trkpt lat="47.77111804112792" lon="14.653765987604856">
        <ele>408.60000000000002</ele>
        <time>2012-10-21T12:53:00Z</time>
      </trkpt>
      <trkpt lat="47.771193981170654" lon="14.653737992048264">
        <ele>408.19999999999999</ele>
        <time>2012-10-21T12:53:01Z</time>
      </trkpt>
      <trkpt lat="47.771271010860801" lon="14.653704967349768">
        <ele>407.80000000000001</ele>
        <time>2012-10-21T12:53:02Z</time>
      </trkpt>
      <trkpt lat="47.771343011409044" lon="14.653660040348768">
        <ele>407.39999999999998</ele>
        <time>2012-10-21T12:53:03Z</time>
      </trkpt>
      <trkpt lat="47.771420041099191" lon="14.653604971244931">
        <ele>406.80000000000001</ele>
        <time>2012-10-21T12:53:04Z</time>
      </trkpt>
      <trkpt lat="47.771492041647434" lon="14.653546968474984">
        <ele>406.39999999999998</ele>
        <time>2012-10-21T12:53:05Z</time>
      </trkpt>
      <trkpt lat="47.771567981690168" lon="14.653481002897024">
        <ele>406</ele>
        <time>2012-10-21T12:53:06Z</time>
      </trkpt>
      <trkpt lat="47.77163696475327" lon="14.653412019833922">
        <ele>405.60000000000002</ele>
        <time>2012-10-21T12:53:07Z</time>
      </trkpt>
      <trkpt lat="47.771702008321881" lon="14.653337001800537">
        <ele>405.19999999999999</ele>
        <time>2012-10-21T12:53:08Z</time>
      </trkpt>
      <trkpt lat="47.771766968071461" lon="14.653257038444281">
        <ele>404.60000000000002</ele>
        <time>2012-10-21T12:53:09Z</time>
      </trkpt>
      <trkpt lat="47.771835029125214" lon="14.653168022632599">
        <ele>404.19999999999999</ele>
        <time>2012-10-21T12:53:10Z</time>
      </trkpt>
      <trkpt lat="47.771899988874793" lon="14.653076995164156">
        <ele>403.80000000000001</ele>
        <time>2012-10-21T12:53:11Z</time>
      </trkpt>
      <trkpt lat="47.771968971937895" lon="14.652992002665997">
        <ele>403.19999999999999</ele>
        <time>2012-10-21T12:53:12Z</time>
      </trkpt>
      <trkpt lat="47.772040972486138" lon="14.652898041531444">
        <ele>402.60000000000002</ele>
        <time>2012-10-21T12:53:13Z</time>
      </trkpt>
      <trkpt lat="47.772113978862762" lon="14.652810031548142">
        <ele>402</ele>
        <time>2012-10-21T12:53:14Z</time>
      </trkpt>
      <trkpt lat="47.772190002724528" lon="14.652724033221602">
        <ele>401.39999999999998</ele>
        <time>2012-10-21T12:53:15Z</time>
      </trkpt>
      <trkpt lat="47.772269966080785" lon="14.652641974389553">
        <ele>400.80000000000001</ele>
        <time>2012-10-21T12:53:16Z</time>
      </trkpt>
      <trkpt lat="47.772345989942551" lon="14.652567962184548">
        <ele>400</ele>
        <time>2012-10-21T12:53:17Z</time>
      </trkpt>
      <trkpt lat="47.772429976612329" lon="14.652496967464685">
        <ele>399.19999999999999</ele>
        <time>2012-10-21T12:53:18Z</time>
      </trkpt>
      <trkpt lat="47.772511029615998" lon="14.652436031028628">
        <ele>398.60000000000002</ele>
        <time>2012-10-21T12:53:19Z</time>
      </trkpt>
      <trkpt lat="47.772590992972255" lon="14.65237501077354">
        <ele>397.19999999999999</ele>
        <time>2012-10-21T12:53:20Z</time>
      </trkpt>
      <trkpt lat="47.772674979642034" lon="14.652304016053677">
        <ele>396.39999999999998</ele>
        <time>2012-10-21T12:53:21Z</time>
      </trkpt>
      <trkpt lat="47.772751003503799" lon="14.652237966656685">
        <ele>395.80000000000001</ele>
        <time>2012-10-21T12:53:22Z</time>
      </trkpt>
      <trkpt lat="47.772830966860056" lon="14.652174012735486">
        <ele>395.19999999999999</ele>
        <time>2012-10-21T12:53:23Z</time>
      </trkpt>
      <trkpt lat="47.772911014035344" lon="14.652108969166875">
        <ele>394.60000000000002</ele>
        <time>2012-10-21T12:53:24Z</time>
      </trkpt>
      <trkpt lat="47.772995000705123" lon="14.65203202329576">
        <ele>394.19999999999999</ele>
        <time>2012-10-21T12:53:25Z</time>
      </trkpt>
      <trkpt lat="47.773071024566889" lon="14.651965973898768">
        <ele>393.60000000000002</ele>
        <time>2012-10-21T12:53:26Z</time>
      </trkpt>
      <trkpt lat="47.773147970438004" lon="14.651904031634331">
        <ele>393</ele>
        <time>2012-10-21T12:53:27Z</time>
      </trkpt>
      <trkpt lat="47.773300018161535" lon="14.651785008609295">
        <ele>392.60000000000002</ele>
        <time>2012-10-21T12:53:29Z</time>
      </trkpt>
      <trkpt lat="47.773373024538159" lon="14.651715019717813">
        <ele>392.19999999999999</ele>
        <time>2012-10-21T12:53:30Z</time>
      </trkpt>
      <trkpt lat="47.773441001772881" lon="14.651652993634343">
        <ele>391.60000000000002</ele>
        <time>2012-10-21T12:53:31Z</time>
      </trkpt>
      <trkpt lat="47.773514008149505" lon="14.651599014177918">
        <ele>391.19999999999999</ele>
        <time>2012-10-21T12:53:32Z</time>
      </trkpt>
      <trkpt lat="47.773581985384226" lon="14.651544028893113">
        <ele>390.80000000000001</ele>
        <time>2012-10-21T12:53:33Z</time>
      </trkpt>
      <trkpt lat="47.773846015334129" lon="14.651319980621338">
        <ele>390.80000000000001</ele>
        <time>2012-10-21T12:53:37Z</time>
      </trkpt>
      <trkpt lat="47.774078026413918" lon="14.651155024766922">
        <ele>390.39999999999998</ele>
        <time>2012-10-21T12:53:41Z</time>
      </trkpt>
      <trkpt lat="47.774138962849975" lon="14.651123005896807">
        <ele>390</ele>
        <time>2012-10-21T12:53:42Z</time>
      </trkpt>
      <trkpt lat="47.774199983105063" lon="14.651089981198311">
        <ele>389.39999999999998</ele>
        <time>2012-10-21T12:53:43Z</time>
      </trkpt>
      <trkpt lat="47.77425798587501" lon="14.651062991470098">
        <ele>388.60000000000002</ele>
        <time>2012-10-21T12:53:44Z</time>
      </trkpt>
      <trkpt lat="47.774543976411223" lon="14.650975987315178">
        <ele>388.60000000000002</ele>
        <time>2012-10-21T12:53:49Z</time>
      </trkpt>
      <trkpt lat="47.774890987202525" lon="14.650985039770603">
        <ele>388.60000000000002</ele>
        <time>2012-10-21T12:53:55Z</time>
      </trkpt>
      <trkpt lat="47.775218971073627" lon="14.651083024218678">
        <ele>388.19999999999999</ele>
        <time>2012-10-21T12:54:01Z</time>
      </trkpt>
      <trkpt lat="47.775272028520703" lon="14.651110013946891">
        <ele>387.80000000000001</ele>
        <time>2012-10-21T12:54:02Z</time>
      </trkpt>
      <trkpt lat="47.775326007977128" lon="14.651139015331864">
        <ele>387.39999999999998</ele>
        <time>2012-10-21T12:54:03Z</time>
      </trkpt>
      <trkpt lat="47.775378981605172" lon="14.651164999231696">
        <ele>387</ele>
        <time>2012-10-21T12:54:04Z</time>
      </trkpt>
      <trkpt lat="47.775424998253584" lon="14.651196012273431">
        <ele>386.60000000000002</ele>
        <time>2012-10-21T12:54:05Z</time>
      </trkpt>
      <trkpt lat="47.775574028491974" lon="14.651316041126847">
        <ele>386.60000000000002</ele>
        <time>2012-10-21T12:54:08Z</time>
      </trkpt>
      <trkpt lat="47.775969989597797" lon="14.651772016659379">
        <ele>386.60000000000002</ele>
        <time>2012-10-21T12:54:17Z</time>
      </trkpt>
      <trkpt lat="47.776183979585767" lon="14.652170995250344">
        <ele>386.19999999999999</ele>
        <time>2012-10-21T12:54:23Z</time>
      </trkpt>
      <trkpt lat="47.776218010112643" lon="14.652244001626968">
        <ele>385.80000000000001</ele>
        <time>2012-10-21T12:54:24Z</time>
      </trkpt>
      <trkpt lat="47.776252962648869" lon="14.652316002175212">
        <ele>385.19999999999999</ele>
        <time>2012-10-21T12:54:25Z</time>
      </trkpt>
      <trkpt lat="47.776286993175745" lon="14.652386996895075">
        <ele>384.80000000000001</ele>
        <time>2012-10-21T12:54:26Z</time>
      </trkpt>
      <trkpt lat="47.776324963197112" lon="14.652455979958177">
        <ele>384.39999999999998</ele>
        <time>2012-10-21T12:54:27Z</time>
      </trkpt>
      <trkpt lat="47.776526967063546" lon="14.652800979092717">
        <ele>384.39999999999998</ele>
        <time>2012-10-21T12:54:32Z</time>
      </trkpt>
      <trkpt lat="47.776713967323303" lon="14.65306400321424">
        <ele>384</ele>
        <time>2012-10-21T12:54:36Z</time>
      </trkpt>
      <trkpt lat="47.77676803059876" lon="14.65312896296382">
        <ele>383.60000000000002</ele>
        <time>2012-10-21T12:54:37Z</time>
      </trkpt>
      <trkpt lat="47.776821004226804" lon="14.653190989047289">
        <ele>383.19999999999999</ele>
        <time>2012-10-21T12:54:38Z</time>
      </trkpt>
      <trkpt lat="47.77687800116837" lon="14.653255026787519">
        <ele>382.80000000000001</ele>
        <time>2012-10-21T12:54:39Z</time>
      </trkpt>
      <trkpt lat="47.776936003938317" lon="14.653317974880338">
        <ele>382.39999999999998</ele>
        <time>2012-10-21T12:54:40Z</time>
      </trkpt>
      <trkpt lat="47.777000041678548" lon="14.653372038155794">
        <ele>382.39999999999998</ele>
        <time>2012-10-21T12:54:41Z</time>
      </trkpt>
      <trkpt lat="47.777060978114605" lon="14.65342802926898">
        <ele>382</ele>
        <time>2012-10-21T12:54:42Z</time>
      </trkpt>
      <trkpt lat="47.777126021683216" lon="14.653486032038927">
        <ele>381.60000000000002</ele>
        <time>2012-10-21T12:54:43Z</time>
      </trkpt>
      <trkpt lat="47.777186958119273" lon="14.653543028980494">
        <ele>381</ele>
        <time>2012-10-21T12:54:44Z</time>
      </trkpt>
      <trkpt lat="47.777252001687884" lon="14.653596002608538">
        <ele>380.60000000000002</ele>
        <time>2012-10-21T12:54:45Z</time>
      </trkpt>
      <trkpt lat="47.777313021942973" lon="14.653641013428569">
        <ele>380.19999999999999</ele>
        <time>2012-10-21T12:54:46Z</time>
      </trkpt>
      <trkpt lat="47.777515025809407" lon="14.653747966513038">
        <ele>380.19999999999999</ele>
        <time>2012-10-21T12:54:49Z</time>
      </trkpt>
      <trkpt lat="47.777588032186031" lon="14.653779985383153">
        <ele>379.80000000000001</ele>
        <time>2012-10-21T12:54:50Z</time>
      </trkpt>
      <trkpt lat="47.777667995542288" lon="14.653808986768126">
        <ele>379.39999999999998</ele>
        <time>2012-10-21T12:54:51Z</time>
      </trkpt>
      <trkpt lat="47.777744019404054" lon="14.653828013688326">
        <ele>379</ele>
        <time>2012-10-21T12:54:52Z</time>
      </trkpt>
      <trkpt lat="47.77782398276031" lon="14.653841005638242">
        <ele>378.60000000000002</ele>
        <time>2012-10-21T12:54:53Z</time>
      </trkpt>
      <trkpt lat="47.777905035763979" lon="14.653852991759777">
        <ele>378.19999999999999</ele>
        <time>2012-10-21T12:54:54Z</time>
      </trkpt>
      <trkpt lat="47.778290016576648" lon="14.653849974274635">
        <ele>378.19999999999999</ele>
        <time>2012-10-21T12:54:59Z</time>
      </trkpt>
      <trkpt lat="47.778644990175962" lon="14.653789959847927">
        <ele>378.19999999999999</ele>
        <time>2012-10-21T12:55:04Z</time>
      </trkpt>
      <trkpt lat="47.778709027916193" lon="14.653776967898011">
        <ele>378.19999999999999</ele>
        <time>2012-10-21T12:55:05Z</time>
      </trkpt>
      <trkpt lat="47.779120998457074" lon="14.653720976784825">
        <ele>378.19999999999999</ele>
        <time>2012-10-21T12:55:12Z</time>
      </trkpt>
      <trkpt lat="47.779179001227021" lon="14.653717959299684">
        <ele>378.19999999999999</ele>
        <time>2012-10-21T12:55:13Z</time>
      </trkpt>
      <trkpt lat="47.779349992051721" lon="14.653711002320051">
        <ele>378.19999999999999</ele>
        <time>2012-10-21T12:55:16Z</time>
      </trkpt>
      <trkpt lat="47.779403971508145" lon="14.653704967349768">
        <ele>378.19999999999999</ele>
        <time>2012-10-21T12:55:17Z</time>
      </trkpt>
      <trkpt lat="47.779448982328176" lon="14.653687030076981">
        <ele>378.19999999999999</ele>
        <time>2012-10-21T12:55:18Z</time>
      </trkpt>
      <trkpt lat="47.779590971767902" lon="14.653647970408201">
        <ele>378.19999999999999</ele>
        <time>2012-10-21T12:55:21Z</time>
      </trkpt>
      <trkpt lat="47.779689962044358" lon="14.653617041185498">
        <ele>378.19999999999999</ele>
        <time>2012-10-21T12:55:23Z</time>
      </trkpt>
      <trkpt lat="47.779831029474735" lon="14.653583010658622">
        <ele>378.19999999999999</ele>
        <time>2012-10-21T12:55:26Z</time>
      </trkpt>
      <trkpt lat="47.779963966459036" lon="14.653522996231914">
        <ele>378.19999999999999</ele>
        <time>2012-10-21T12:55:29Z</time>
      </trkpt>
      <trkpt lat="47.780247023329139" lon="14.653392992913723">
        <ele>378.19999999999999</ele>
        <time>2012-10-21T12:55:36Z</time>
      </trkpt>
      <trkpt lat="47.780482973903418" lon="14.653243962675333">
        <ele>378.19999999999999</ele>
        <time>2012-10-21T12:55:42Z</time>
      </trkpt>
      <trkpt lat="47.780518010258675" lon="14.653224013745785">
        <ele>378.19999999999999</ele>
        <time>2012-10-21T12:55:43Z</time>
      </trkpt>
      <trkpt lat="47.780632004141808" lon="14.653157964348793">
        <ele>378.60000000000002</ele>
        <time>2012-10-21T12:55:46Z</time>
      </trkpt>
      <trkpt lat="47.780666034668684" lon="14.653126029297709">
        <ele>379.39999999999998</ele>
        <time>2012-10-21T12:55:47Z</time>
      </trkpt>
      <trkpt lat="47.780704004690051" lon="14.653091998770833">
        <ele>379.80000000000001</ele>
        <time>2012-10-21T12:55:48Z</time>
      </trkpt>
      <trkpt lat="47.780739041045308" lon="14.653071966022253">
        <ele>380.19999999999999</ele>
        <time>2012-10-21T12:55:49Z</time>
      </trkpt>
      <trkpt lat="47.780772987753153" lon="14.653045982122421">
        <ele>380.19999999999999</ele>
        <time>2012-10-21T12:55:50Z</time>
      </trkpt>
      <trkpt lat="47.780845994129777" lon="14.652985967695713">
        <ele>380.19999999999999</ele>
        <time>2012-10-21T12:55:52Z</time>
      </trkpt>
      <trkpt lat="47.780986977741122" lon="14.652877002954483">
        <ele>380.19999999999999</ele>
        <time>2012-10-21T12:55:56Z</time>
      </trkpt>
      <trkpt lat="47.7812609821558" lon="14.652661001309752">
        <ele>380.19999999999999</ele>
        <time>2012-10-21T12:56:04Z</time>
      </trkpt>
      <trkpt lat="47.781498022377491" lon="14.652496967464685">
        <ele>380.19999999999999</ele>
        <time>2012-10-21T12:56:11Z</time>
      </trkpt>
      <trkpt lat="47.781601035967469" lon="14.65241901576519">
        <ele>380.60000000000002</ele>
        <time>2012-10-21T12:56:14Z</time>
      </trkpt>
      <trkpt lat="47.781630959361792" lon="14.652390014380217">
        <ele>381</ele>
        <time>2012-10-21T12:56:15Z</time>
      </trkpt>
      <trkpt lat="47.781665995717049" lon="14.652362018823624">
        <ele>381.39999999999998</ele>
        <time>2012-10-21T12:56:16Z</time>
      </trkpt>
      <trkpt lat="47.781700026243925" lon="14.652329999953508">
        <ele>381.80000000000001</ele>
        <time>2012-10-21T12:56:17Z</time>
      </trkpt>
      <trkpt lat="47.78173397295177" lon="14.652296975255013">
        <ele>382.19999999999999</ele>
        <time>2012-10-21T12:56:18Z</time>
      </trkpt>
      <trkpt lat="47.781951986253262" lon="14.652101006358862">
        <ele>382.19999999999999</ele>
        <time>2012-10-21T12:56:25Z</time>
      </trkpt>
      <trkpt lat="47.782158013433218" lon="14.65190302580595">
        <ele>382.19999999999999</ele>
        <time>2012-10-21T12:56:32Z</time>
      </trkpt>
      <trkpt lat="47.782351970672607" lon="14.651696998625994">
        <ele>382.19999999999999</ele>
        <time>2012-10-21T12:56:39Z</time>
      </trkpt>
      <trkpt lat="47.782436041161418" lon="14.651593985036016">
        <ele>382.60000000000002</ele>
        <time>2012-10-21T12:56:42Z</time>
      </trkpt>
      <trkpt lat="47.782459007576108" lon="14.651563977822661">
        <ele>383</ele>
        <time>2012-10-21T12:56:43Z</time>
      </trkpt>
      <trkpt lat="47.78248599730432" lon="14.651532964780927">
        <ele>383.39999999999998</ele>
        <time>2012-10-21T12:56:44Z</time>
      </trkpt>
      <trkpt lat="47.78250896371901" lon="14.651501029729843">
        <ele>384</ele>
        <time>2012-10-21T12:56:45Z</time>
      </trkpt>
      <trkpt lat="47.782532013952732" lon="14.65147496201098">
        <ele>384.39999999999998</ele>
        <time>2012-10-21T12:56:46Z</time>
      </trkpt>
      <trkpt lat="47.782551040872931" lon="14.651445038616657">
        <ele>384.39999999999998</ele>
        <time>2012-10-21T12:56:47Z</time>
      </trkpt>
      <trkpt lat="47.782734017819166" lon="14.651172962039709">
        <ele>384.39999999999998</ele>
        <time>2012-10-21T12:56:55Z</time>
      </trkpt>
      <trkpt lat="47.782890005037189" lon="14.65095897205174">
        <ele>384.39999999999998</ele>
        <time>2012-10-21T12:57:02Z</time>
      </trkpt>
      <trkpt lat="47.782925041392446" lon="14.650908010080457">
        <ele>384.80000000000001</ele>
        <time>2012-10-21T12:57:04Z</time>
      </trkpt>
      <trkpt lat="47.782939961180091" lon="14.650876997038722">
        <ele>385.19999999999999</ele>
        <time>2012-10-21T12:57:05Z</time>
      </trkpt>
      <trkpt lat="47.78295898810029" lon="14.650847995653749">
        <ele>385.60000000000002</ele>
        <time>2012-10-21T12:57:06Z</time>
      </trkpt>
      <trkpt lat="47.78297801502049" lon="14.650823017582297">
        <ele>386</ele>
        <time>2012-10-21T12:57:07Z</time>
      </trkpt>
      <trkpt lat="47.782993018627167" lon="14.650798039510846">
        <ele>386.39999999999998</ele>
        <time>2012-10-21T12:57:08Z</time>
      </trkpt>
      <trkpt lat="47.783011961728334" lon="14.650769960135221">
        <ele>386.39999999999998</ele>
        <time>2012-10-21T12:57:09Z</time>
      </trkpt>
      <trkpt lat="47.783123021945357" lon="14.650606010109186">
        <ele>386.39999999999998</ele>
        <time>2012-10-21T12:57:15Z</time>
      </trkpt>
      <trkpt lat="47.783214971423149" lon="14.650453040376306">
        <ele>386.80000000000001</ele>
        <time>2012-10-21T12:57:21Z</time>
      </trkpt>
      <trkpt lat="47.783229975029826" lon="14.650429990142584">
        <ele>387.19999999999999</ele>
        <time>2012-10-21T12:57:22Z</time>
      </trkpt>
      <trkpt lat="47.783241039142013" lon="14.650401994585991">
        <ele>387.60000000000002</ele>
        <time>2012-10-21T12:57:23Z</time>
      </trkpt>
      <trkpt lat="47.783256964758039" lon="14.65037802234292">
        <ele>388</ele>
        <time>2012-10-21T12:57:24Z</time>
      </trkpt>
      <trkpt lat="47.783275991678238" lon="14.650352038443089">
        <ele>388.39999999999998</ele>
        <time>2012-10-21T12:57:25Z</time>
      </trkpt>
      <trkpt lat="47.783343968912959" lon="14.650231003761292">
        <ele>388.39999999999998</ele>
        <time>2012-10-21T12:57:30Z</time>
      </trkpt>
      <trkpt lat="47.783462991937995" lon="14.650035034865141">
        <ele>388.39999999999998</ele>
        <time>2012-10-21T12:57:38Z</time>
      </trkpt>
      <trkpt lat="47.783477995544672" lon="14.650007961317897">
        <ele>388.80000000000001</ele>
        <time>2012-10-21T12:57:39Z</time>
      </trkpt>
      <trkpt lat="47.783488975837827" lon="14.649987006559968">
        <ele>389.19999999999999</ele>
        <time>2012-10-21T12:57:40Z</time>
      </trkpt>
      <trkpt lat="47.783503979444504" lon="14.649962028488517">
        <ele>389.60000000000002</ele>
        <time>2012-10-21T12:57:41Z</time>
      </trkpt>
      <trkpt lat="47.783524012193084" lon="14.649940989911556">
        <ele>390</ele>
        <time>2012-10-21T12:57:42Z</time>
      </trkpt>
      <trkpt lat="47.783539015799761" lon="14.649921040982008">
        <ele>390.39999999999998</ele>
        <time>2012-10-21T12:57:43Z</time>
      </trkpt>
      <trkpt lat="47.78358100913465" lon="14.649871001020074">
        <ele>390.39999999999998</ele>
        <time>2012-10-21T12:57:46Z</time>
      </trkpt>
      <trkpt lat="47.78373003937304" lon="14.649652987718582">
        <ele>390.80000000000001</ele>
        <time>2012-10-21T12:57:56Z</time>
      </trkpt>
      <trkpt lat="47.783744959160686" lon="14.649633038789034">
        <ele>391.19999999999999</ele>
        <time>2012-10-21T12:57:57Z</time>
      </trkpt>
      <trkpt lat="47.783759962767363" lon="14.649614011868834">
        <ele>391.60000000000002</ele>
        <time>2012-10-21T12:57:58Z</time>
      </trkpt>
      <trkpt lat="47.78377496637404" lon="14.649592973291874">
        <ele>392.19999999999999</ele>
        <time>2012-10-21T12:57:59Z</time>
      </trkpt>
      <trkpt lat="47.783790975809097" lon="14.649573024362326">
        <ele>392.60000000000002</ele>
        <time>2012-10-21T12:58:00Z</time>
      </trkpt>
      <trkpt lat="47.783855013549328" lon="14.649492977187037">
        <ele>392.60000000000002</ele>
        <time>2012-10-21T12:58:04Z</time>
      </trkpt>
      <trkpt lat="47.784018963575363" lon="14.649298014119267">
        <ele>393</ele>
        <time>2012-10-21T12:58:14Z</time>
      </trkpt>
      <trkpt lat="47.78403103351593" lon="14.649279993027449">
        <ele>393.80000000000001</ele>
        <time>2012-10-21T12:58:15Z</time>
      </trkpt>
      <trkpt lat="47.784046037122607" lon="14.64926197193563">
        <ele>394.19999999999999</ele>
        <time>2012-10-21T12:58:16Z</time>
      </trkpt>
      <trkpt lat="47.784064980223775" lon="14.649245040491223">
        <ele>394.80000000000001</ele>
        <time>2012-10-21T12:58:17Z</time>
      </trkpt>
      <trkpt lat="47.784145027399063" lon="14.649158958345652">
        <ele>394.80000000000001</ele>
        <time>2012-10-21T12:58:22Z</time>
      </trkpt>
      <trkpt lat="47.784286011010408" lon="14.649020992219448">
        <ele>394.80000000000001</ele>
        <time>2012-10-21T12:58:30Z</time>
      </trkpt>
      <trkpt lat="47.784350970759988" lon="14.648944968357682">
        <ele>395.19999999999999</ele>
        <time>2012-10-21T12:58:34Z</time>
      </trkpt>
      <trkpt lat="47.784369997680187" lon="14.648928036913276">
        <ele>395.60000000000002</ele>
        <time>2012-10-21T12:58:35Z</time>
      </trkpt>
      <trkpt lat="47.784389024600387" lon="14.648906998336315">
        <ele>396</ele>
        <time>2012-10-21T12:58:36Z</time>
      </trkpt>
      <trkpt lat="47.784405034035444" lon="14.648889983072877">
        <ele>396.39999999999998</ele>
        <time>2012-10-21T12:58:37Z</time>
      </trkpt>
      <trkpt lat="47.784423977136612" lon="14.648871039971709">
        <ele>396.80000000000001</ele>
        <time>2012-10-21T12:58:38Z</time>
      </trkpt>
      <trkpt lat="47.784435041248798" lon="14.648860981687903">
        <ele>396.80000000000001</ele>
        <time>2012-10-21T12:58:39Z</time>
      </trkpt>
      <trkpt lat="47.784573007375002" lon="14.648727960884571">
        <ele>396.80000000000001</ele>
        <time>2012-10-21T12:58:47Z</time>
      </trkpt>
      <trkpt lat="47.784645007923245" lon="14.648656966164708">
        <ele>397.19999999999999</ele>
        <time>2012-10-21T12:58:51Z</time>
      </trkpt>
      <trkpt lat="47.784667974337935" lon="14.648646991699934">
        <ele>397.60000000000002</ele>
        <time>2012-10-21T12:58:52Z</time>
      </trkpt>
      <trkpt lat="47.784682977944613" lon="14.64863802306354">
        <ele>398</ele>
        <time>2012-10-21T12:58:53Z</time>
      </trkpt>
      <trkpt lat="47.78469798155129" lon="14.648622013628483">
        <ele>398.60000000000002</ele>
        <time>2012-10-21T12:58:54Z</time>
      </trkpt>
      <trkpt lat="47.78471801429987" lon="14.648604998365045">
        <ele>399</ele>
        <time>2012-10-21T12:58:55Z</time>
      </trkpt>
      <trkpt lat="47.784866038709879" lon="14.648491004481912">
        <ele>399</ele>
        <time>2012-10-21T12:59:03Z</time>
      </trkpt>
      <trkpt lat="47.784946002066135" lon="14.648419003933668">
        <ele>399.39999999999998</ele>
        <time>2012-10-21T12:59:07Z</time>
      </trkpt>
      <trkpt lat="47.784966034814715" lon="14.648410035297275">
        <ele>399.80000000000001</ele>
        <time>2012-10-21T12:59:08Z</time>
      </trkpt>
      <trkpt lat="47.784987995401025" lon="14.648396037518978">
        <ele>400.19999999999999</ele>
        <time>2012-10-21T12:59:09Z</time>
      </trkpt>
      <trkpt lat="47.785007022321224" lon="14.648384973406792">
        <ele>400.60000000000002</ele>
        <time>2012-10-21T12:59:10Z</time>
      </trkpt>
      <trkpt lat="47.785026971250772" lon="14.648372987285256">
        <ele>401</ele>
        <time>2012-10-21T12:59:11Z</time>
      </trkpt>
      <trkpt lat="47.785197962075472" lon="14.648252036422491">
        <ele>401</ele>
        <time>2012-10-21T12:59:20Z</time>
      </trkpt>
      <trkpt lat="47.785294018685818" lon="14.648190010339022">
        <ele>401.39999999999998</ele>
        <time>2012-10-21T12:59:25Z</time>
      </trkpt>
      <trkpt lat="47.785312961786985" lon="14.648179030045867">
        <ele>401.80000000000001</ele>
        <time>2012-10-21T12:59:26Z</time>
      </trkpt>
      <trkpt lat="47.785327965393662" lon="14.64816402643919">
        <ele>402.19999999999999</ele>
        <time>2012-10-21T12:59:27Z</time>
      </trkpt>
      <trkpt lat="47.785346992313862" lon="14.648150028660893">
        <ele>402.60000000000002</ele>
        <time>2012-10-21T12:59:28Z</time>
      </trkpt>
      <trkpt lat="47.785366019234061" lon="14.648138964548707">
        <ele>403</ele>
        <time>2012-10-21T12:59:29Z</time>
      </trkpt>
      <trkpt lat="47.785480013117194" lon="14.648047015070915">
        <ele>403</ele>
        <time>2012-10-21T12:59:35Z</time>
      </trkpt>
      <trkpt lat="47.785595012828708" lon="14.647967973724008">
        <ele>403.39999999999998</ele>
        <time>2012-10-21T12:59:41Z</time>
      </trkpt>
      <trkpt lat="47.785617979243398" lon="14.647950958460569">
        <ele>403.80000000000001</ele>
        <time>2012-10-21T12:59:42Z</time>
      </trkpt>
      <trkpt lat="47.785637006163597" lon="14.647937966510653">
        <ele>404.19999999999999</ele>
        <time>2012-10-21T12:59:43Z</time>
      </trkpt>
      <trkpt lat="47.785656033083797" lon="14.647922962903976">
        <ele>404.80000000000001</ele>
        <time>2012-10-21T12:59:44Z</time>
      </trkpt>
      <trkpt lat="47.785674976184964" lon="14.64790896512568">
        <ele>405.19999999999999</ele>
        <time>2012-10-21T12:59:45Z</time>
      </trkpt>
      <trkpt lat="47.785694003105164" lon="14.647895973175764">
        <ele>405.19999999999999</ele>
        <time>2012-10-21T12:59:46Z</time>
      </trkpt>
      <trkpt lat="47.785850996151567" lon="14.647781979292631">
        <ele>405.19999999999999</ele>
        <time>2012-10-21T12:59:54Z</time>
      </trkpt>
      <trkpt lat="47.785930959507823" lon="14.647739985957742">
        <ele>405.60000000000002</ele>
        <time>2012-10-21T12:59:58Z</time>
      </trkpt>
      <trkpt lat="47.785954009741545" lon="14.647730011492968">
        <ele>406</ele>
        <time>2012-10-21T12:59:59Z</time>
      </trkpt>
      <trkpt lat="47.785973036661744" lon="14.647720037028193">
        <ele>406.39999999999998</ele>
        <time>2012-10-21T13:00:00Z</time>
      </trkpt>
      <trkpt lat="47.785988040268421" lon="14.647705033421516">
        <ele>406.80000000000001</ele>
        <time>2012-10-21T13:00:01Z</time>
      </trkpt>
      <trkpt lat="47.786006983369589" lon="14.64769396930933">
        <ele>407.19999999999999</ele>
        <time>2012-10-21T13:00:02Z</time>
      </trkpt>
      <trkpt lat="47.7862239908427" lon="14.647548040375113">
        <ele>407.19999999999999</ele>
        <time>2012-10-21T13:00:13Z</time>
      </trkpt>
      <trkpt lat="47.786343013867736" lon="14.647475033998489">
        <ele>408</ele>
        <time>2012-10-21T13:00:19Z</time>
      </trkpt>
      <trkpt lat="47.786362040787935" lon="14.647463969886303">
        <ele>408.39999999999998</ele>
        <time>2012-10-21T13:00:20Z</time>
      </trkpt>
      <trkpt lat="47.786385007202625" lon="14.647452989593148">
        <ele>408.80000000000001</ele>
        <time>2012-10-21T13:00:21Z</time>
      </trkpt>
      <trkpt lat="47.786404034122825" lon="14.647446032613516">
        <ele>409.19999999999999</ele>
        <time>2012-10-21T13:00:22Z</time>
      </trkpt>
      <trkpt lat="47.786591034382582" lon="14.647346036508679">
        <ele>409.19999999999999</ele>
        <time>2012-10-21T13:00:31Z</time>
      </trkpt>
      <trkpt lat="47.786708967760205" lon="14.647272024303675">
        <ele>409.19999999999999</ele>
        <time>2012-10-21T13:00:37Z</time>
      </trkpt>
      <trkpt lat="47.786831008270383" lon="14.647216033190489">
        <ele>409.60000000000002</ele>
        <time>2012-10-21T13:00:43Z</time>
      </trkpt>
      <trkpt lat="47.786853974685073" lon="14.647206980735064">
        <ele>410.39999999999998</ele>
        <time>2012-10-21T13:00:44Z</time>
      </trkpt>
      <trkpt lat="47.786877024918795" lon="14.647194994613528">
        <ele>410.80000000000001</ele>
        <time>2012-10-21T13:00:45Z</time>
      </trkpt>
      <trkpt lat="47.786899991333485" lon="14.647182002663612">
        <ele>411.19999999999999</ele>
        <time>2012-10-21T13:00:46Z</time>
      </trkpt>
      <trkpt lat="47.787052039057016" lon="14.64711201377213">
        <ele>411.19999999999999</ele>
        <time>2012-10-21T13:00:53Z</time>
      </trkpt>
      <trkpt lat="47.787257982417941" lon="14.647022997960448">
        <ele>411.19999999999999</ele>
        <time>2012-10-21T13:01:02Z</time>
      </trkpt>
      <trkpt lat="47.787383962422609" lon="14.646979998797178">
        <ele>411.60000000000002</ele>
        <time>2012-10-21T13:01:07Z</time>
      </trkpt>
      <trkpt lat="47.787407012656331" lon="14.646973041817546">
        <ele>412.39999999999998</ele>
        <time>2012-10-21T13:01:08Z</time>
      </trkpt>
      <trkpt lat="47.787429979071021" lon="14.646964995190501">
        <ele>412.80000000000001</ele>
        <time>2012-10-21T13:01:09Z</time>
      </trkpt>
      <trkpt lat="47.787456968799233" lon="14.646958960220218">
        <ele>413.39999999999998</ele>
        <time>2012-10-21T13:01:10Z</time>
      </trkpt>
      <trkpt lat="47.787631982937455" lon="14.646901963278651">
        <ele>413.39999999999998</ele>
        <time>2012-10-21T13:01:17Z</time>
      </trkpt>
      <trkpt lat="47.787803979590535" lon="14.646839015185833">
        <ele>413.39999999999998</ele>
        <time>2012-10-21T13:01:24Z</time>
      </trkpt>
      <trkpt lat="47.788025010377169" lon="14.646773971617222">
        <ele>413.39999999999998</ele>
        <time>2012-10-21T13:01:32Z</time>
      </trkpt>
      <trkpt lat="47.788254003971815" lon="14.646715968847275">
        <ele>413.80000000000001</ele>
        <time>2012-10-21T13:01:40Z</time>
      </trkpt>
      <trkpt lat="47.788279987871647" lon="14.646707000210881">
        <ele>414.19999999999999</ele>
        <time>2012-10-21T13:01:41Z</time>
      </trkpt>
      <trkpt lat="47.788311000913382" lon="14.646698031574488">
        <ele>414.60000000000002</ele>
        <time>2012-10-21T13:01:42Z</time>
      </trkpt>
      <trkpt lat="47.788337990641594" lon="14.646694008260965">
        <ele>415</ele>
        <time>2012-10-21T13:01:43Z</time>
      </trkpt>
      <trkpt lat="47.788367997854948" lon="14.646687973290682">
        <ele>415.39999999999998</ele>
        <time>2012-10-21T13:01:44Z</time>
      </trkpt>
      <trkpt lat="47.788532031700015" lon="14.646665006875992">
        <ele>415.39999999999998</ele>
        <time>2012-10-21T13:01:49Z</time>
      </trkpt>
      <trkpt lat="47.788840988650918" lon="14.646609015762806">
        <ele>415.39999999999998</ele>
        <time>2012-10-21T13:01:58Z</time>
      </trkpt>
      <trkpt lat="47.789135025814176" lon="14.646579008549452">
        <ele>415.39999999999998</ele>
        <time>2012-10-21T13:02:06Z</time>
      </trkpt>
      <trkpt lat="47.789439959451556" lon="14.646562999114394">
        <ele>415.39999999999998</ele>
        <time>2012-10-21T13:02:14Z</time>
      </trkpt>
      <trkpt lat="47.789722010493279" lon="14.646567022427917">
        <ele>415.39999999999998</ele>
        <time>2012-10-21T13:02:21Z</time>
      </trkpt>
      <trkpt lat="47.79011202044785" lon="14.646559981629252">
        <ele>415.39999999999998</ele>
        <time>2012-10-21T13:02:30Z</time>
      </trkpt>
      <trkpt lat="47.790576964616776" lon="14.646576996892691">
        <ele>415.39999999999998</ele>
        <time>2012-10-21T13:02:40Z</time>
      </trkpt>
      <trkpt lat="47.790916012600064" lon="14.646623013541102">
        <ele>415.39999999999998</ele>
        <time>2012-10-21T13:02:47Z</time>
      </trkpt>
      <trkpt lat="47.791393026709557" lon="14.646694008260965">
        <ele>415.39999999999998</ele>
        <time>2012-10-21T13:02:56Z</time>
      </trkpt>
      <trkpt lat="47.791985040530562" lon="14.64670498855412">
        <ele>415.39999999999998</ele>
        <time>2012-10-21T13:03:07Z</time>
      </trkpt>
      <trkpt lat="47.792416037991643" lon="14.646655032411218">
        <ele>415.39999999999998</ele>
        <time>2012-10-21T13:03:15Z</time>
      </trkpt>
      <trkpt lat="47.792858015745878" lon="14.646547995507717">
        <ele>415.39999999999998</ele>
        <time>2012-10-21T13:03:23Z</time>
      </trkpt>
      <trkpt lat="47.793353972956538" lon="14.646393014118075">
        <ele>415.39999999999998</ele>
        <time>2012-10-21T13:03:32Z</time>
      </trkpt>
      <trkpt lat="47.793727973476052" lon="14.64627499692142">
        <ele>415.39999999999998</ele>
        <time>2012-10-21T13:03:39Z</time>
      </trkpt>
      <trkpt lat="47.793983034789562" lon="14.646212970837951">
        <ele>414.80000000000001</ele>
        <time>2012-10-21T13:03:44Z</time>
      </trkpt>
      <trkpt lat="47.794032990932465" lon="14.646194027736783">
        <ele>414.39999999999998</ele>
        <time>2012-10-21T13:03:45Z</time>
      </trkpt>
      <trkpt lat="47.794079007580876" lon="14.646177012473345">
        <ele>414</ele>
        <time>2012-10-21T13:03:46Z</time>
      </trkpt>
      <trkpt lat="47.79412804171443" lon="14.64616502635181">
        <ele>413.60000000000002</ele>
        <time>2012-10-21T13:03:47Z</time>
      </trkpt>
      <trkpt lat="47.794182021170855" lon="14.646151028573513">
        <ele>413.19999999999999</ele>
        <time>2012-10-21T13:03:48Z</time>
      </trkpt>
      <trkpt lat="47.794380001723766" lon="14.646110041067004">
        <ele>413.19999999999999</ele>
        <time>2012-10-21T13:03:52Z</time>
      </trkpt>
      <trkpt lat="47.79479599557817" lon="14.646040974184871">
        <ele>413.19999999999999</ele>
        <time>2012-10-21T13:04:00Z</time>
      </trkpt>
      <trkpt lat="47.795299999415874" lon="14.646014990285039">
        <ele>413.19999999999999</ele>
        <time>2012-10-21T13:04:10Z</time>
      </trkpt>
      <trkpt lat="47.795615997165442" lon="14.646032005548477">
        <ele>412.80000000000001</ele>
        <time>2012-10-21T13:04:16Z</time>
      </trkpt>
      <trkpt lat="47.795666037127376" lon="14.646035023033619">
        <ele>412.39999999999998</ele>
        <time>2012-10-21T13:04:17Z</time>
      </trkpt>
      <trkpt lat="47.795714987441897" lon="14.646040974184871">
        <ele>412</ele>
        <time>2012-10-21T13:04:18Z</time>
      </trkpt>
      <trkpt lat="47.795768966898322" lon="14.646050026640296">
        <ele>411.39999999999998</ele>
        <time>2012-10-21T13:04:19Z</time>
      </trkpt>
      <trkpt lat="47.795822024345398" lon="14.646057989448309">
        <ele>411</ele>
        <time>2012-10-21T13:04:20Z</time>
      </trkpt>
      <trkpt lat="47.796379001811147" lon="14.646148011088371">
        <ele>411</ele>
        <time>2012-10-21T13:04:31Z</time>
      </trkpt>
      <trkpt lat="47.796844029799104" lon="14.64623099192977">
        <ele>411</ele>
        <time>2012-10-21T13:04:40Z</time>
      </trkpt>
      <trkpt lat="47.797263963147998" lon="14.646310033276677">
        <ele>411</ele>
        <time>2012-10-21T13:04:48Z</time>
      </trkpt>
      <trkpt lat="47.797698983922601" lon="14.646396031603217">
        <ele>411</ele>
        <time>2012-10-21T13:04:56Z</time>
      </trkpt>
      <trkpt lat="47.798140961676836" lon="14.646470965817571">
        <ele>411</ele>
        <time>2012-10-21T13:05:04Z</time>
      </trkpt>
      <trkpt lat="47.798195024952292" lon="14.646481024101377">
        <ele>410.60000000000002</ele>
        <time>2012-10-21T13:05:05Z</time>
      </trkpt>
      <trkpt lat="47.798252021893859" lon="14.646488986909389">
        <ele>410.19999999999999</ele>
        <time>2012-10-21T13:05:06Z</time>
      </trkpt>
      <trkpt lat="47.798301978036761" lon="14.646501978859305">
        <ele>409.80000000000001</ele>
        <time>2012-10-21T13:05:07Z</time>
      </trkpt>
      <trkpt lat="47.798355035483837" lon="14.646509019657969">
        <ele>409.39999999999998</ele>
        <time>2012-10-21T13:05:08Z</time>
      </trkpt>
      <trkpt lat="47.798409014940262" lon="14.646522011607885">
        <ele>409</ele>
        <time>2012-10-21T13:05:09Z</time>
      </trkpt>
      <trkpt lat="47.798560978844762" lon="14.646545983850956">
        <ele>409</ele>
        <time>2012-10-21T13:05:12Z</time>
      </trkpt>
      <trkpt lat="47.799030030146241" lon="14.64661899022758">
        <ele>409</ele>
        <time>2012-10-21T13:05:21Z</time>
      </trkpt>
      <trkpt lat="47.799468990415335" lon="14.646644974127412">
        <ele>409</ele>
        <time>2012-10-21T13:05:29Z</time>
      </trkpt>
      <trkpt lat="47.799862017855048" lon="14.646621001884341">
        <ele>409</ele>
        <time>2012-10-21T13:05:36Z</time>
      </trkpt>
      <trkpt lat="47.800240041688085" lon="14.646535003557801">
        <ele>409</ele>
        <time>2012-10-21T13:05:43Z</time>
      </trkpt>
      <trkpt lat="47.800350012257695" lon="14.646501978859305">
        <ele>408.60000000000002</ele>
        <time>2012-10-21T13:05:45Z</time>
      </trkpt>
      <trkpt lat="47.800407009199262" lon="14.646482029929757">
        <ele>408.19999999999999</ele>
        <time>2012-10-21T13:05:46Z</time>
      </trkpt>
      <trkpt lat="47.800460988655686" lon="14.646460991352797">
        <ele>407.80000000000001</ele>
        <time>2012-10-21T13:05:47Z</time>
      </trkpt>
      <trkpt lat="47.800513962283731" lon="14.646442970260978">
        <ele>407.39999999999998</ele>
        <time>2012-10-21T13:05:48Z</time>
      </trkpt>
      <trkpt lat="47.800568025559187" lon="14.646430984139442">
        <ele>407</ele>
        <time>2012-10-21T13:05:49Z</time>
      </trkpt>
      <trkpt lat="47.800673972815275" lon="14.646408017724752">
        <ele>407</ele>
        <time>2012-10-21T13:05:51Z</time>
      </trkpt>
      <trkpt lat="47.801102036610246" lon="14.646257981657982">
        <ele>407</ele>
        <time>2012-10-21T13:05:59Z</time>
      </trkpt>
      <trkpt lat="47.801463967189193" lon="14.646138036623597">
        <ele>407</ele>
        <time>2012-10-21T13:06:06Z</time>
      </trkpt>
      <trkpt lat="47.801879961043596" lon="14.646036028862">
        <ele>407</ele>
        <time>2012-10-21T13:06:14Z</time>
      </trkpt>
      <trkpt lat="47.802094034850597" lon="14.646000992506742">
        <ele>406.60000000000002</ele>
        <time>2012-10-21T13:06:18Z</time>
      </trkpt>
      <trkpt lat="47.802147008478642" lon="14.64599302969873">
        <ele>406.19999999999999</ele>
        <time>2012-10-21T13:06:19Z</time>
      </trkpt>
      <trkpt lat="47.802199982106686" lon="14.645992023870349">
        <ele>405.80000000000001</ele>
        <time>2012-10-21T13:06:20Z</time>
      </trkpt>
      <trkpt lat="47.80225396156311" lon="14.64599302969873">
        <ele>405.39999999999998</ele>
        <time>2012-10-21T13:06:21Z</time>
      </trkpt>
      <trkpt lat="47.802307019010186" lon="14.64599696919322">
        <ele>405</ele>
        <time>2012-10-21T13:06:22Z</time>
      </trkpt>
      <trkpt lat="47.802733993157744" lon="14.646028988063335">
        <ele>405</ele>
        <time>2012-10-21T13:06:30Z</time>
      </trkpt>
      <trkpt lat="47.803164990618825" lon="14.646109035238624">
        <ele>405</ele>
        <time>2012-10-21T13:06:38Z</time>
      </trkpt>
      <trkpt lat="47.803534967824817" lon="14.646242978051305">
        <ele>405</ele>
        <time>2012-10-21T13:06:45Z</time>
      </trkpt>
      <trkpt lat="47.803917014971375" lon="14.646386979147792">
        <ele>405</ele>
        <time>2012-10-21T13:06:52Z</time>
      </trkpt>
      <trkpt lat="47.8044009860605" lon="14.646586971357465">
        <ele>405</ele>
        <time>2012-10-21T13:07:01Z</time>
      </trkpt>
      <trkpt lat="47.804565019905567" lon="14.646642962470651">
        <ele>405</ele>
        <time>2012-10-21T13:07:04Z</time>
      </trkpt>
      <trkpt lat="47.804717989638448" lon="14.646673975512385">
        <ele>404.39999999999998</ele>
        <time>2012-10-21T13:07:07Z</time>
      </trkpt>
      <trkpt lat="47.80476400628686" lon="14.646695014089346">
        <ele>404</ele>
        <time>2012-10-21T13:07:08Z</time>
      </trkpt>
      <trkpt lat="47.804813040420413" lon="14.646710017696023">
        <ele>403.60000000000002</ele>
        <time>2012-10-21T13:07:09Z</time>
      </trkpt>
      <trkpt lat="47.804870959371328" lon="14.646718986332417">
        <ele>403.19999999999999</ele>
        <time>2012-10-21T13:07:10Z</time>
      </trkpt>
      <trkpt lat="47.804924016818404" lon="14.646726027131081">
        <ele>402.80000000000001</ele>
        <time>2012-10-21T13:07:11Z</time>
      </trkpt>
      <trkpt lat="47.804976990446448" lon="14.646732984110713">
        <ele>402.80000000000001</ele>
        <time>2012-10-21T13:07:12Z</time>
      </trkpt>
      <trkpt lat="47.805362977087498" lon="14.646745976060629">
        <ele>402.80000000000001</ele>
        <time>2012-10-21T13:07:19Z</time>
      </trkpt>
      <trkpt lat="47.805766984820366" lon="14.646699959412217">
        <ele>402.80000000000001</ele>
        <time>2012-10-21T13:07:26Z</time>
      </trkpt>
      <trkpt lat="47.806109972298145" lon="14.646599041298032">
        <ele>402.80000000000001</ele>
        <time>2012-10-21T13:07:32Z</time>
      </trkpt>
      <trkpt lat="47.806564019992948" lon="14.646383039653301">
        <ele>402.80000000000001</ele>
        <time>2012-10-21T13:07:40Z</time>
      </trkpt>
      <trkpt lat="47.807007003575563" lon="14.646109035238624">
        <ele>402.80000000000001</ele>
        <time>2012-10-21T13:07:48Z</time>
      </trkpt>
      <trkpt lat="47.807273967191577" lon="14.645923040807247">
        <ele>402.39999999999998</ele>
        <time>2012-10-21T13:07:53Z</time>
      </trkpt>
      <trkpt lat="47.807327024638653" lon="14.645883981138468">
        <ele>402</ele>
        <time>2012-10-21T13:07:54Z</time>
      </trkpt>
      <trkpt lat="47.807381004095078" lon="14.645848022773862">
        <ele>401.60000000000002</ele>
        <time>2012-10-21T13:07:55Z</time>
      </trkpt>
      <trkpt lat="47.807433977723122" lon="14.645816003903747">
        <ele>401.19999999999999</ele>
        <time>2012-10-21T13:07:56Z</time>
      </trkpt>
      <trkpt lat="47.807487035170197" lon="14.645776022225618">
        <ele>400.80000000000001</ele>
        <time>2012-10-21T13:07:57Z</time>
      </trkpt>
      <trkpt lat="47.807906968519092" lon="14.645483996719122">
        <ele>400.80000000000001</ele>
        <time>2012-10-21T13:08:05Z</time>
      </trkpt>
      <trkpt lat="47.808307958766818" lon="14.645201023668051">
        <ele>400.80000000000001</ele>
        <time>2012-10-21T13:08:13Z</time>
      </trkpt>
      <trkpt lat="47.808684976771474" lon="14.644915033131838">
        <ele>400.80000000000001</ele>
        <time>2012-10-21T13:08:21Z</time>
      </trkpt>
      <trkpt lat="47.809146987274289" lon="14.644599035382271">
        <ele>400.80000000000001</ele>
        <time>2012-10-21T13:08:31Z</time>
      </trkpt>
      <trkpt lat="47.809463990852237" lon="14.644365012645721">
        <ele>400.80000000000001</ele>
        <time>2012-10-21T13:08:38Z</time>
      </trkpt>
      <trkpt lat="47.809860035777092" lon="14.644090002402663">
        <ele>400.80000000000001</ele>
        <time>2012-10-21T13:08:47Z</time>
      </trkpt>
      <trkpt lat="47.810149965807796" lon="14.643887998536229">
        <ele>400.80000000000001</ele>
        <time>2012-10-21T13:08:54Z</time>
      </trkpt>
      <trkpt lat="47.810505023226142" lon="14.64363100938499">
        <ele>400.80000000000001</ele>
        <time>2012-10-21T13:09:03Z</time>
      </trkpt>
      <trkpt lat="47.810813980177045" lon="14.643409978598356">
        <ele>400.80000000000001</ele>
        <time>2012-10-21T13:09:11Z</time>
      </trkpt>
      <trkpt lat="47.811088990420103" lon="14.643220966681838">
        <ele>400.80000000000001</ele>
        <time>2012-10-21T13:09:18Z</time>
      </trkpt>
      <trkpt lat="47.811310021206737" lon="14.643085012212396">
        <ele>400.80000000000001</ele>
        <time>2012-10-21T13:09:24Z</time>
      </trkpt>
      <trkpt lat="47.811645967885852" lon="14.642899017781019">
        <ele>400.80000000000001</ele>
        <time>2012-10-21T13:09:33Z</time>
      </trkpt>
      <trkpt lat="47.811938999220729" lon="14.642740013077855">
        <ele>400.80000000000001</ele>
        <time>2012-10-21T13:09:41Z</time>
      </trkpt>
      <trkpt lat="47.812209986150265" lon="14.6426219958812">
        <ele>400.80000000000001</ele>
        <time>2012-10-21T13:09:48Z</time>
      </trkpt>
      <trkpt lat="47.812449960038066" lon="14.642553012818098">
        <ele>401.19999999999999</ele>
        <time>2012-10-21T13:09:55Z</time>
      </trkpt>
      <trkpt lat="47.812484996393323" lon="14.642543960362673">
        <ele>401.60000000000002</ele>
        <time>2012-10-21T13:09:56Z</time>
      </trkpt>
      <trkpt lat="47.812515003606677" lon="14.642533985897899">
        <ele>402</ele>
        <time>2012-10-21T13:09:57Z</time>
      </trkpt>
      <trkpt lat="47.812550039961934" lon="14.642524011433125">
        <ele>402.39999999999998</ele>
        <time>2012-10-21T13:09:58Z</time>
      </trkpt>
      <trkpt lat="47.812583986669779" lon="14.64251596480608">
        <ele>402.80000000000001</ele>
        <time>2012-10-21T13:09:59Z</time>
      </trkpt>
      <trkpt lat="47.812785990536213" lon="14.642467014491558">
        <ele>402.80000000000001</ele>
        <time>2012-10-21T13:10:05Z</time>
      </trkpt>
      <trkpt lat="47.813041973859072" lon="14.642434995621443">
        <ele>402.80000000000001</ele>
        <time>2012-10-21T13:10:13Z</time>
      </trkpt>
      <trkpt lat="47.813297035172582" lon="14.642433989793062">
        <ele>403.19999999999999</ele>
        <time>2012-10-21T13:10:21Z</time>
      </trkpt>
      <trkpt lat="47.813331987708807" lon="14.642432983964682">
        <ele>403.60000000000002</ele>
        <time>2012-10-21T13:10:22Z</time>
      </trkpt>
      <trkpt lat="47.813361994922161" lon="14.642426026985049">
        <ele>404</ele>
        <time>2012-10-21T13:10:23Z</time>
      </trkpt>
      <trkpt lat="47.813393007963896" lon="14.642426026985049">
        <ele>404.39999999999998</ele>
        <time>2012-10-21T13:10:24Z</time>
      </trkpt>
      <trkpt lat="47.813427038490772" lon="14.642425021156669">
        <ele>404.80000000000001</ele>
        <time>2012-10-21T13:10:25Z</time>
      </trkpt>
      <trkpt lat="47.813599035143852" lon="14.642433989793062">
        <ele>404.80000000000001</ele>
        <time>2012-10-21T13:10:31Z</time>
      </trkpt>
      <trkpt lat="47.813849989324808" lon="14.642485035583377">
        <ele>404.80000000000001</ele>
        <time>2012-10-21T13:10:39Z</time>
      </trkpt>
      <trkpt lat="47.814144026488066" lon="14.642561981454492">
        <ele>404.80000000000001</ele>
        <time>2012-10-21T13:10:48Z</time>
      </trkpt>
      <trkpt lat="47.814274029806256" lon="14.642591988667846">
        <ele>405.19999999999999</ele>
        <time>2012-10-21T13:10:52Z</time>
      </trkpt>
      <trkpt lat="47.81430403701961" lon="14.642598023638129">
        <ele>405.60000000000002</ele>
        <time>2012-10-21T13:10:53Z</time>
      </trkpt>
      <trkpt lat="47.814334966242313" lon="14.642603974789381">
        <ele>406</ele>
        <time>2012-10-21T13:10:54Z</time>
      </trkpt>
      <trkpt lat="47.814364973455667" lon="14.642613027244806">
        <ele>406.39999999999998</ele>
        <time>2012-10-21T13:10:55Z</time>
      </trkpt>
      <trkpt lat="47.81439196318388" lon="14.642619984224439">
        <ele>406.80000000000001</ele>
        <time>2012-10-21T13:10:56Z</time>
      </trkpt>
      <trkpt lat="47.814425993710756" lon="14.642628030851483">
        <ele>406.80000000000001</ele>
        <time>2012-10-21T13:10:57Z</time>
      </trkpt>
      <trkpt lat="47.814674014225602" lon="14.642716040834785">
        <ele>406.80000000000001</ele>
        <time>2012-10-21T13:11:05Z</time>
      </trkpt>
      <trkpt lat="47.814898984506726" lon="14.642803966999054">
        <ele>406.80000000000001</ele>
        <time>2012-10-21T13:11:12Z</time>
      </trkpt>
      <trkpt lat="47.815055977553129" lon="14.642862975597382">
        <ele>407.19999999999999</ele>
        <time>2012-10-21T13:11:17Z</time>
      </trkpt>
      <trkpt lat="47.815085984766483" lon="14.642872028052807">
        <ele>407.60000000000002</ele>
        <time>2012-10-21T13:11:18Z</time>
      </trkpt>
      <trkpt lat="47.815116997808218" lon="14.642888959497213">
        <ele>408</ele>
        <time>2012-10-21T13:11:19Z</time>
      </trkpt>
      <trkpt lat="47.815147005021572" lon="14.642902035266161">
        <ele>408.39999999999998</ele>
        <time>2012-10-21T13:11:20Z</time>
      </trkpt>
      <trkpt lat="47.81518598087132" lon="14.642915027216077">
        <ele>408.80000000000001</ele>
        <time>2012-10-21T13:11:21Z</time>
      </trkpt>
      <trkpt lat="47.815449004992843" lon="14.643022986128926">
        <ele>408.80000000000001</ele>
        <time>2012-10-21T13:11:29Z</time>
      </trkpt>
      <trkpt lat="47.815673975273967" lon="14.643078977242112">
        <ele>408.80000000000001</ele>
        <time>2012-10-21T13:11:36Z</time>
      </trkpt>
      <trkpt lat="47.815947979688644" lon="14.643192971125245">
        <ele>408.80000000000001</ele>
        <time>2012-10-21T13:11:44Z</time>
      </trkpt>
      <trkpt lat="47.816113019362092" lon="14.643262960016727">
        <ele>409.19999999999999</ele>
        <time>2012-10-21T13:11:49Z</time>
      </trkpt>
      <trkpt lat="47.816146966069937" lon="14.643276035785675">
        <ele>410</ele>
        <time>2012-10-21T13:11:50Z</time>
      </trkpt>
      <trkpt lat="47.816185019910336" lon="14.643292967230082">
        <ele>410.39999999999998</ele>
        <time>2012-10-21T13:11:51Z</time>
      </trkpt>
      <trkpt lat="47.816212009638548" lon="14.643311994150281">
        <ele>410.80000000000001</ele>
        <time>2012-10-21T13:11:52Z</time>
      </trkpt>
      <trkpt lat="47.816424993798137" lon="14.643404027447104">
        <ele>410.80000000000001</ele>
        <time>2012-10-21T13:11:58Z</time>
      </trkpt>
      <trkpt lat="47.816704027354717" lon="14.643536964431405">
        <ele>410.80000000000001</ele>
        <time>2012-10-21T13:12:06Z</time>
      </trkpt>
      <trkpt lat="47.816944001242518" lon="14.643624974414706">
        <ele>410.80000000000001</ele>
        <time>2012-10-21T13:12:13Z</time>
      </trkpt>
      <trkpt lat="47.81718104146421" lon="14.64371801353991">
        <ele>410.80000000000001</ele>
        <time>2012-10-21T13:12:20Z</time>
      </trkpt>
      <trkpt lat="47.817470971494913" lon="14.643824966624379">
        <ele>410.80000000000001</ele>
        <time>2012-10-21T13:12:28Z</time>
      </trkpt>
      <trkpt lat="47.817759979516268" lon="14.64393300935626">
        <ele>410.80000000000001</ele>
        <time>2012-10-21T13:12:36Z</time>
      </trkpt>
      <trkpt lat="47.818046975880861" lon="14.644050020724535">
        <ele>410.80000000000001</ele>
        <time>2012-10-21T13:12:44Z</time>
      </trkpt>
      <trkpt lat="47.818359034135938" lon="14.64416703209281">
        <ele>410.80000000000001</ele>
        <time>2012-10-21T13:12:52Z</time>
      </trkpt>
      <trkpt lat="47.818645024672151" lon="14.64427700266242">
        <ele>410.80000000000001</ele>
        <time>2012-10-21T13:12:59Z</time>
      </trkpt>
      <trkpt lat="47.818984994664788" lon="14.644423015415668">
        <ele>410.80000000000001</ele>
        <time>2012-10-21T13:13:07Z</time>
      </trkpt>
      <trkpt lat="47.819240977987647" lon="14.644528962671757">
        <ele>410.80000000000001</ele>
        <time>2012-10-21T13:13:13Z</time>
      </trkpt>
      <trkpt lat="47.819565022364259" lon="14.644678998738527">
        <ele>410.80000000000001</ele>
        <time>2012-10-21T13:13:20Z</time>
      </trkpt>
      <trkpt lat="47.819934999570251" lon="14.644838003441691">
        <ele>410.80000000000001</ele>
        <time>2012-10-21T13:13:28Z</time>
      </trkpt>
      <trkpt lat="47.820354010909796" lon="14.645021986216307">
        <ele>410.80000000000001</ele>
        <time>2012-10-21T13:13:37Z</time>
      </trkpt>
      <trkpt lat="47.820614017546177" lon="14.645130028948188">
        <ele>410.80000000000001</ele>
        <time>2012-10-21T13:13:43Z</time>
      </trkpt>
      <trkpt lat="47.820994975045323" lon="14.645278975367546">
        <ele>410.80000000000001</ele>
        <time>2012-10-21T13:13:51Z</time>
      </trkpt>
      <trkpt lat="47.821388002485037" lon="14.645432028919458">
        <ele>410.80000000000001</ele>
        <time>2012-10-21T13:13:59Z</time>
      </trkpt>
      <trkpt lat="47.821793016046286" lon="14.645561026409268">
        <ele>410.80000000000001</ele>
        <time>2012-10-21T13:14:07Z</time>
      </trkpt>
      <trkpt lat="47.822208004072309" lon="14.645655993372202">
        <ele>410.80000000000001</ele>
        <time>2012-10-21T13:14:15Z</time>
      </trkpt>
      <trkpt lat="47.822623997926712" lon="14.645713996142149">
        <ele>410.80000000000001</ele>
        <time>2012-10-21T13:14:23Z</time>
      </trkpt>
      <trkpt lat="47.823108974844217" lon="14.645761018618941">
        <ele>410.80000000000001</ele>
        <time>2012-10-21T13:14:32Z</time>
      </trkpt>
      <trkpt lat="47.823532009497285" lon="14.645769987255335">
        <ele>410.80000000000001</ele>
        <time>2012-10-21T13:14:40Z</time>
      </trkpt>
      <trkpt lat="47.823681039735675" lon="14.645764958113432">
        <ele>410</ele>
        <time>2012-10-21T13:14:43Z</time>
      </trkpt>
      <trkpt lat="47.823734013363719" lon="14.645763030275702">
        <ele>409.60000000000002</ele>
        <time>2012-10-21T13:14:44Z</time>
      </trkpt>
      <trkpt lat="47.823783969506621" lon="14.64575900696218">
        <ele>409.19999999999999</ele>
        <time>2012-10-21T13:14:45Z</time>
      </trkpt>
      <trkpt lat="47.823833003640175" lon="14.645753977820277">
        <ele>408.80000000000001</ele>
        <time>2012-10-21T13:14:46Z</time>
      </trkpt>
      <trkpt lat="47.824046993628144" lon="14.645736962556839">
        <ele>408.80000000000001</ele>
        <time>2012-10-21T13:14:50Z</time>
      </trkpt>
      <trkpt lat="47.82453197054565" lon="14.645665967836976">
        <ele>408.39999999999998</ele>
        <time>2012-10-21T13:14:59Z</time>
      </trkpt>
      <trkpt lat="47.824585027992725" lon="14.645656999200583">
        <ele>408</ele>
        <time>2012-10-21T13:15:00Z</time>
      </trkpt>
      <trkpt lat="47.82463800162077" lon="14.645646018907428">
        <ele>407.39999999999998</ele>
        <time>2012-10-21T13:15:01Z</time>
      </trkpt>
      <trkpt lat="47.824691981077194" lon="14.645636966452003">
        <ele>407</ele>
        <time>2012-10-21T13:15:02Z</time>
      </trkpt>
      <trkpt lat="47.82474503852427" lon="14.645622968673706">
        <ele>406.60000000000002</ele>
        <time>2012-10-21T13:15:03Z</time>
      </trkpt>
      <trkpt lat="47.825110992416739" lon="14.645526995882392">
        <ele>406.60000000000002</ele>
        <time>2012-10-21T13:15:10Z</time>
      </trkpt>
      <trkpt lat="47.825252981856465" lon="14.645489025861025">
        <ele>406.19999999999999</ele>
        <time>2012-10-21T13:15:13Z</time>
      </trkpt>
      <trkpt lat="47.825282989069819" lon="14.645476033911109">
        <ele>405.80000000000001</ele>
        <time>2012-10-21T13:15:14Z</time>
      </trkpt>
      <trkpt lat="47.825314002111554" lon="14.645464969798923">
        <ele>405.39999999999998</ele>
        <time>2012-10-21T13:15:15Z</time>
      </trkpt>
      <trkpt lat="47.825339986011386" lon="14.645442003384233">
        <ele>405</ele>
        <time>2012-10-21T13:15:16Z</time>
      </trkpt>
      <trkpt lat="47.825366975739598" lon="14.645416019484401">
        <ele>404.60000000000002</ele>
        <time>2012-10-21T13:15:17Z</time>
      </trkpt>
      <trkpt lat="47.825396982952952" lon="14.645327003672719">
        <ele>404.60000000000002</ele>
        <time>2012-10-21T13:15:19Z</time>
      </trkpt>
      <trkpt lat="47.825393965467811" lon="14.645272018387914">
        <ele>404.60000000000002</ele>
        <time>2012-10-21T13:15:20Z</time>
      </trkpt>
      <trkpt lat="47.825324982404709" lon="14.645094992592931">
        <ele>404.60000000000002</ele>
        <time>2012-10-21T13:15:23Z</time>
      </trkpt>
      <trkpt lat="47.825236972421408" lon="14.644949985668063">
        <ele>404.19999999999999</ele>
        <time>2012-10-21T13:15:26Z</time>
      </trkpt>
      <trkpt lat="47.825214006006718" lon="14.644907992333174">
        <ele>403.80000000000001</ele>
        <time>2012-10-21T13:15:27Z</time>
      </trkpt>
      <trkpt lat="47.825194979086518" lon="14.644870022311807">
        <ele>403.19999999999999</ele>
        <time>2012-10-21T13:15:28Z</time>
      </trkpt>
      <trkpt lat="47.825172012671828" lon="14.644840015098453">
        <ele>402.80000000000001</ele>
        <time>2012-10-21T13:15:29Z</time>
      </trkpt>
      <trkpt lat="47.825152985751629" lon="14.644814031198621">
        <ele>402.39999999999998</ele>
        <time>2012-10-21T13:15:30Z</time>
      </trkpt>
      <trkpt lat="47.825095988810062" lon="14.644710011780262">
        <ele>402</ele>
        <time>2012-10-21T13:15:34Z</time>
      </trkpt>
      <trkpt lat="47.825080985203385" lon="14.644681010395288">
        <ele>401.60000000000002</ele>
        <time>2012-10-21T13:15:35Z</time>
      </trkpt>
      <trkpt lat="47.825058018788695" lon="14.644648991525173">
        <ele>401.19999999999999</ele>
        <time>2012-10-21T13:15:36Z</time>
      </trkpt>
      <trkpt lat="47.825031029060483" lon="14.644616972655058">
        <ele>400.80000000000001</ele>
        <time>2012-10-21T13:15:37Z</time>
      </trkpt>
      <trkpt lat="47.825004961341619" lon="14.644581014290452">
        <ele>400.19999999999999</ele>
        <time>2012-10-21T13:15:38Z</time>
      </trkpt>
      <trkpt lat="47.82496296800673" lon="14.644551007077098">
        <ele>400.19999999999999</ele>
        <time>2012-10-21T13:15:39Z</time>
      </trkpt>
      <trkpt lat="47.82491703517735" lon="14.644517982378602">
        <ele>400.19999999999999</ele>
        <time>2012-10-21T13:15:40Z</time>
      </trkpt>
      <trkpt lat="47.824753001332283" lon="14.644429972395301">
        <ele>400.19999999999999</ele>
        <time>2012-10-21T13:15:43Z</time>
      </trkpt>
      <trkpt lat="47.824691981077194" lon="14.644408011808991">
        <ele>399.80000000000001</ele>
        <time>2012-10-21T13:15:44Z</time>
      </trkpt>
      <trkpt lat="47.824627021327615" lon="14.644390996545553">
        <ele>399.39999999999998</ele>
        <time>2012-10-21T13:15:45Z</time>
      </trkpt>
      <trkpt lat="47.824558038264513" lon="14.644373981282115">
        <ele>399</ele>
        <time>2012-10-21T13:15:46Z</time>
      </trkpt>
      <trkpt lat="47.824482014402747" lon="14.644360989332199">
        <ele>398.60000000000002</ele>
        <time>2012-10-21T13:15:47Z</time>
      </trkpt>
      <trkpt lat="47.824401967227459" lon="14.644358977675438">
        <ele>398</ele>
        <time>2012-10-21T13:15:48Z</time>
      </trkpt>
      <trkpt lat="47.82431798055768" lon="14.644356966018677">
        <ele>397.60000000000002</ele>
        <time>2012-10-21T13:15:49Z</time>
      </trkpt>
      <trkpt lat="47.824229970574379" lon="14.644353026524186">
        <ele>397.19999999999999</ele>
        <time>2012-10-21T13:15:50Z</time>
      </trkpt>
      <trkpt lat="47.824139026924968" lon="14.644347997382283">
        <ele>396.60000000000002</ele>
        <time>2012-10-21T13:15:51Z</time>
      </trkpt>
      <trkpt lat="47.824039030820131" lon="14.644337017089128">
        <ele>396.19999999999999</ele>
        <time>2012-10-21T13:15:52Z</time>
      </trkpt>
      <trkpt lat="47.823943980038166" lon="14.644325030967593">
        <ele>395.60000000000002</ele>
        <time>2012-10-21T13:15:53Z</time>
      </trkpt>
      <trkpt lat="47.823635023087263" lon="14.64425696991384">
        <ele>393.80000000000001</ele>
        <time>2012-10-21T13:15:54Z</time>
      </trkpt>
      <trkpt lat="47.823635023087263" lon="14.64425696991384">
        <ele>393.80000000000001</ele>
        <time>2012-10-21T13:15:57Z</time>
      </trkpt>
      <trkpt lat="47.823532009497285" lon="14.644226962700486">
        <ele>392.60000000000002</ele>
        <time>2012-10-21T13:15:58Z</time>
      </trkpt>
      <trkpt lat="47.823424972593784" lon="14.644197039306164">
        <ele>392</ele>
        <time>2012-10-21T13:15:59Z</time>
      </trkpt>
      <trkpt lat="47.823318019509315" lon="14.644160997122526">
        <ele>391.39999999999998</ele>
        <time>2012-10-21T13:16:00Z</time>
      </trkpt>
      <trkpt lat="47.823204025626183" lon="14.64412696659565">
        <ele>390.60000000000002</ele>
        <time>2012-10-21T13:16:01Z</time>
      </trkpt>
      <trkpt lat="47.82309003174305" lon="14.644096037372947">
        <ele>389.80000000000001</ele>
        <time>2012-10-21T13:16:02Z</time>
      </trkpt>
      <trkpt lat="47.822975032031536" lon="14.644063012674451">
        <ele>389</ele>
        <time>2012-10-21T13:16:03Z</time>
      </trkpt>
      <trkpt lat="47.822864977642894" lon="14.644035017117858">
        <ele>388.19999999999999</ele>
        <time>2012-10-21T13:16:04Z</time>
      </trkpt>
      <trkpt lat="47.822758024558425" lon="14.644007021561265">
        <ele>387.39999999999998</ele>
        <time>2012-10-21T13:16:05Z</time>
      </trkpt>
      <trkpt lat="47.822655010968447" lon="14.64397600851953">
        <ele>386.60000000000002</ele>
        <time>2012-10-21T13:16:06Z</time>
      </trkpt>
      <trkpt lat="47.822559038177133" lon="14.643949018791318">
        <ele>385.80000000000001</ele>
        <time>2012-10-21T13:16:07Z</time>
      </trkpt>
      <trkpt lat="47.822459964081645" lon="14.643925968557596">
        <ele>385.19999999999999</ele>
        <time>2012-10-21T13:16:08Z</time>
      </trkpt>
      <trkpt lat="47.822369020432234" lon="14.643897973001003">
        <ele>384.39999999999998</ele>
        <time>2012-10-21T13:16:09Z</time>
      </trkpt>
      <trkpt lat="47.822272963821888" lon="14.64386897161603">
        <ele>383.60000000000002</ele>
        <time>2012-10-21T13:16:10Z</time>
      </trkpt>
      <trkpt lat="47.822170034050941" lon="14.643840976059437">
        <ele>383</ele>
        <time>2012-10-21T13:16:11Z</time>
      </trkpt>
      <trkpt lat="47.822085963562131" lon="14.643813986331224">
        <ele>382.19999999999999</ele>
        <time>2012-10-21T13:16:12Z</time>
      </trkpt>
      <trkpt lat="47.82199895940721" lon="14.643790014088154">
        <ele>381.39999999999998</ele>
        <time>2012-10-21T13:16:13Z</time>
      </trkpt>
      <trkpt lat="47.821917990222573" lon="14.643767969682813">
        <ele>381</ele>
        <time>2012-10-21T13:16:14Z</time>
      </trkpt>
      <trkpt lat="47.821841966360807" lon="14.6437409799546">
        <ele>380.60000000000002</ele>
        <time>2012-10-21T13:16:15Z</time>
      </trkpt>
      <trkpt lat="47.821769965812564" lon="14.643698986619711">
        <ele>380.19999999999999</ele>
        <time>2012-10-21T13:16:16Z</time>
      </trkpt>
      <trkpt lat="47.821720009669662" lon="14.643624974414706">
        <ele>379.60000000000002</ele>
        <time>2012-10-21T13:16:17Z</time>
      </trkpt>
      <trkpt lat="47.821678016334772" lon="14.643539981916547">
        <ele>379.19999999999999</ele>
        <time>2012-10-21T13:16:18Z</time>
      </trkpt>
      <trkpt lat="47.821601992473006" lon="14.643268994987011">
        <ele>379.19999999999999</ele>
        <time>2012-10-21T13:16:21Z</time>
      </trkpt>
      <trkpt lat="47.821498978883028" lon="14.642834980040789">
        <ele>379.19999999999999</ele>
        <time>2012-10-21T13:16:26Z</time>
      </trkpt>
      <trkpt lat="47.821491016075015" lon="14.64275099337101">
        <ele>379.19999999999999</ele>
        <time>2012-10-21T13:16:27Z</time>
      </trkpt>
      <trkpt lat="47.821434019133449" lon="14.64247103780508">
        <ele>379.19999999999999</ele>
        <time>2012-10-21T13:16:31Z</time>
      </trkpt>
      <trkpt lat="47.821404011920094" lon="14.642265010625124">
        <ele>379.19999999999999</ele>
        <time>2012-10-21T13:16:36Z</time>
      </trkpt>
      <trkpt lat="47.821346009150147" lon="14.641970973461866">
        <ele>379.19999999999999</ele>
        <time>2012-10-21T13:16:42Z</time>
      </trkpt>
      <trkpt lat="47.821236038580537" lon="14.641692023724318">
        <ele>379.19999999999999</ele>
        <time>2012-10-21T13:16:48Z</time>
      </trkpt>
      <trkpt lat="47.821067981421947" lon="14.641480967402458">
        <ele>379.19999999999999</ele>
        <time>2012-10-21T13:16:55Z</time>
      </trkpt>
      <trkpt lat="47.820930015295744" lon="14.641362028196454">
        <ele>379.19999999999999</ele>
        <time>2012-10-21T13:17:02Z</time>
      </trkpt>
      <trkpt lat="47.820774028077722" lon="14.641211992129683">
        <ele>379.19999999999999</ele>
        <time>2012-10-21T13:17:10Z</time>
      </trkpt>
      <trkpt lat="47.820755001157522" lon="14.641193971037865">
        <ele>379.60000000000002</ele>
        <time>2012-10-21T13:17:11Z</time>
      </trkpt>
      <trkpt lat="47.820732034742832" lon="14.641180979087949">
        <ele>380.39999999999998</ele>
        <time>2012-10-21T13:17:12Z</time>
      </trkpt>
      <trkpt lat="47.820713007822633" lon="14.64116002433002">
        <ele>380.80000000000001</ele>
        <time>2012-10-21T13:17:13Z</time>
      </trkpt>
      <trkpt lat="47.820693980902433" lon="14.641132028773427">
        <ele>381.19999999999999</ele>
        <time>2012-10-21T13:17:14Z</time>
      </trkpt>
      <trkpt lat="47.820636983960867" lon="14.641071008518338">
        <ele>381.19999999999999</ele>
        <time>2012-10-21T13:17:17Z</time>
      </trkpt>
      <trkpt lat="47.820530030876398" lon="14.640942011028528">
        <ele>381.60000000000002</ele>
        <time>2012-10-21T13:17:22Z</time>
      </trkpt>
      <trkpt lat="47.820511003956199" lon="14.640921978279948">
        <ele>382</ele>
        <time>2012-10-21T13:17:23Z</time>
      </trkpt>
      <trkpt lat="47.820496000349522" lon="14.640903035178781">
        <ele>382.39999999999998</ele>
        <time>2012-10-21T13:17:24Z</time>
      </trkpt>
      <trkpt lat="47.820479990914464" lon="14.640884008258581">
        <ele>383</ele>
        <time>2012-10-21T13:17:25Z</time>
      </trkpt>
      <trkpt lat="47.820464987307787" lon="14.640866992995143">
        <ele>383.39999999999998</ele>
        <time>2012-10-21T13:17:26Z</time>
      </trkpt>
      <trkpt lat="47.820331966504455" lon="14.640700025483966">
        <ele>383.80000000000001</ele>
        <time>2012-10-21T13:17:35Z</time>
      </trkpt>
      <trkpt lat="47.820319980382919" lon="14.640680998563766">
        <ele>384.60000000000002</ele>
        <time>2012-10-21T13:17:36Z</time>
      </trkpt>
      <trkpt lat="47.820301037281752" lon="14.640662977471948">
        <ele>385</ele>
        <time>2012-10-21T13:17:37Z</time>
      </trkpt>
      <trkpt lat="47.820286033675075" lon="14.640645962208509">
        <ele>385.39999999999998</ele>
        <time>2012-10-21T13:17:38Z</time>
      </trkpt>
      <trkpt lat="47.82025502063334" lon="14.640608998015523">
        <ele>385.39999999999998</ele>
        <time>2012-10-21T13:17:40Z</time>
      </trkpt>
      <trkpt lat="47.820156030356884" lon="14.640471031889319">
        <ele>385.39999999999998</ele>
        <time>2012-10-21T13:17:47Z</time>
      </trkpt>
      <trkpt lat="47.820121999830008" lon="14.640406994149089">
        <ele>385.80000000000001</ele>
        <time>2012-10-21T13:17:50Z</time>
      </trkpt>
      <trkpt lat="47.820114037021995" lon="14.640381010249257">
        <ele>386.19999999999999</ele>
        <time>2012-10-21T13:17:51Z</time>
      </trkpt>
      <trkpt lat="47.820102972909808" lon="14.640357038006186">
        <ele>386.80000000000001</ele>
        <time>2012-10-21T13:17:52Z</time>
      </trkpt>
      <trkpt lat="47.820095010101795" lon="14.640329964458942">
        <ele>387.19999999999999</ele>
        <time>2012-10-21T13:17:53Z</time>
      </trkpt>
      <trkpt lat="47.820086963474751" lon="14.640303980559111">
        <ele>387.60000000000002</ele>
        <time>2012-10-21T13:17:54Z</time>
      </trkpt>
      <trkpt lat="47.820065002888441" lon="14.640132989734411">
        <ele>387.60000000000002</ele>
        <time>2012-10-21T13:18:01Z</time>
      </trkpt>
      <trkpt lat="47.820068020373583" lon="14.639991000294685">
        <ele>388</ele>
        <time>2012-10-21T13:18:06Z</time>
      </trkpt>
      <trkpt lat="47.820075983181596" lon="14.639963004738092">
        <ele>388.39999999999998</ele>
        <time>2012-10-21T13:18:07Z</time>
      </trkpt>
      <trkpt lat="47.820080006495118" lon="14.639934003353119">
        <ele>388.80000000000001</ele>
        <time>2012-10-21T13:18:08Z</time>
      </trkpt>
      <trkpt lat="47.82008402980864" lon="14.639905001968145">
        <ele>389.19999999999999</ele>
        <time>2012-10-21T13:18:09Z</time>
      </trkpt>
      <trkpt lat="47.820080006495118" lon="14.639876000583172">
        <ele>389.60000000000002</ele>
        <time>2012-10-21T13:18:10Z</time>
      </trkpt>
      <trkpt lat="47.820110013708472" lon="14.639737028628588">
        <ele>389.60000000000002</ele>
        <time>2012-10-21T13:18:16Z</time>
      </trkpt>
      <trkpt lat="47.820152007043362" lon="14.639534018933773">
        <ele>389.60000000000002</ele>
        <time>2012-10-21T13:18:24Z</time>
      </trkpt>
      <trkpt lat="47.820159969851375" lon="14.639507029205561">
        <ele>390.39999999999998</ele>
        <time>2012-10-21T13:18:25Z</time>
      </trkpt>
      <trkpt lat="47.820163993164897" lon="14.639479033648968">
        <ele>390.80000000000001</ele>
        <time>2012-10-21T13:18:26Z</time>
      </trkpt>
      <trkpt lat="47.820171033963561" lon="14.639451960101724">
        <ele>391.19999999999999</ele>
        <time>2012-10-21T13:18:27Z</time>
      </trkpt>
      <trkpt lat="47.820178996771574" lon="14.639422036707401">
        <ele>391.60000000000002</ele>
        <time>2012-10-21T13:18:28Z</time>
      </trkpt>
      <trkpt lat="47.82021302729845" lon="14.639267977327108">
        <ele>391.60000000000002</ele>
        <time>2012-10-21T13:18:34Z</time>
      </trkpt>
      <trkpt lat="47.820258960127831" lon="14.639074020087719">
        <ele>391.60000000000002</ele>
        <time>2012-10-21T13:18:41Z</time>
      </trkpt>
      <trkpt lat="47.820292990654707" lon="14.638844020664692">
        <ele>391.60000000000002</ele>
        <time>2012-10-21T13:18:49Z</time>
      </trkpt>
      <trkpt lat="47.820319980382919" lon="14.63873396627605">
        <ele>391.60000000000002</ele>
        <time>2012-10-21T13:18:56Z</time>
      </trkpt>
      <trkpt lat="47.820343030616641" lon="14.638720974326134">
        <ele>391.60000000000002</ele>
        <time>2012-10-21T13:19:01Z</time>
      </trkpt>
      <trkpt lat="47.820376977324486" lon="14.638723991811275">
        <ele>391.60000000000002</ele>
        <time>2012-10-21T13:19:04Z</time>
      </trkpt>
      <trkpt lat="47.820403967052698" lon="14.63873497210443">
        <ele>392</ele>
        <time>2012-10-21T13:19:06Z</time>
      </trkpt>
      <trkpt lat="47.820418970659375" lon="14.638736983761191">
        <ele>392.39999999999998</ele>
        <time>2012-10-21T13:19:07Z</time>
      </trkpt>
      <trkpt lat="47.820431040599942" lon="14.63873497210443">
        <ele>392.80000000000001</ele>
        <time>2012-10-21T13:19:08Z</time>
      </trkpt>
      <trkpt lat="47.820442020893097" lon="14.638732960447669">
        <ele>393.19999999999999</ele>
        <time>2012-10-21T13:19:09Z</time>
      </trkpt>
      <trkpt lat="47.82044998370111" lon="14.63873203843832">
        <ele>393.60000000000002</ele>
        <time>2012-10-21T13:19:10Z</time>
      </trkpt>
      <trkpt lat="47.820469010621309" lon="14.638729020953178">
        <ele>393.60000000000002</ele>
        <time>2012-10-21T13:19:15Z</time>
      </trkpt>
      <trkpt lat="47.820469010621309" lon="14.638729020953178">
        <ele>393.60000000000002</ele>
        <time>2012-10-21T13:19:30Z</time>
      </trkpt>
      <trkpt lat="47.820469010621309" lon="14.638729020953178">
        <ele>393.60000000000002</ele>
        <time>2012-10-21T13:19:42Z</time>
      </trkpt>
      <trkpt lat="47.820476973429322" lon="14.63873203843832">
        <ele>393.60000000000002</ele>
        <time>2012-10-21T13:19:45Z</time>
      </trkpt>
      <trkpt lat="47.820499017834663" lon="14.638750981539488">
        <ele>393.60000000000002</ele>
        <time>2012-10-21T13:19:47Z</time>
      </trkpt>
      <trkpt lat="47.8205990139395" lon="14.638810995966196">
        <ele>393.60000000000002</ele>
        <time>2012-10-21T13:19:53Z</time>
      </trkpt>
      <trkpt lat="47.820747038349509" lon="14.638913003727794">
        <ele>393.60000000000002</ele>
        <time>2012-10-21T13:20:00Z</time>
      </trkpt>
      <trkpt lat="47.820904031395912" lon="14.639003025367856">
        <ele>393.60000000000002</ele>
        <time>2012-10-21T13:20:07Z</time>
      </trkpt>
      <trkpt lat="47.821060018613935" lon="14.639122970402241">
        <ele>393.60000000000002</ele>
        <time>2012-10-21T13:20:14Z</time>
      </trkpt>
      <trkpt lat="47.821232015267015" lon="14.639229001477361">
        <ele>393.60000000000002</ele>
        <time>2012-10-21T13:20:21Z</time>
      </trkpt>
      <trkpt lat="47.821392025798559" lon="14.63927099481225">
        <ele>393.60000000000002</ele>
        <time>2012-10-21T13:20:27Z</time>
      </trkpt>
      <trkpt lat="47.821590006351471" lon="14.639326985925436">
        <ele>393.60000000000002</ele>
        <time>2012-10-21T13:20:34Z</time>
      </trkpt>
      <trkpt lat="47.821793016046286" lon="14.639331009238958">
        <ele>393.60000000000002</ele>
        <time>2012-10-21T13:20:41Z</time>
      </trkpt>
      <trkpt lat="47.821926036849618" lon="14.639301002025604">
        <ele>393.60000000000002</ele>
        <time>2012-10-21T13:20:47Z</time>
      </trkpt>
      <trkpt lat="47.821964006870985" lon="14.639292033389211">
        <ele>394.19999999999999</ele>
        <time>2012-10-21T13:20:49Z</time>
      </trkpt>
      <trkpt lat="47.821983033791184" lon="14.639281975105405">
        <ele>394.60000000000002</ele>
        <time>2012-10-21T13:20:50Z</time>
      </trkpt>
      <trkpt lat="47.822006000205874" lon="14.639274012297392">
        <ele>395</ele>
        <time>2012-10-21T13:20:51Z</time>
      </trkpt>
      <trkpt lat="47.822025027126074" lon="14.639264959841967">
        <ele>395.39999999999998</ele>
        <time>2012-10-21T13:20:52Z</time>
      </trkpt>
      <trkpt lat="47.822043970227242" lon="14.639256997033954">
        <ele>395.80000000000001</ele>
        <time>2012-10-21T13:20:53Z</time>
      </trkpt>
      <trkpt lat="47.822116976603866" lon="14.639232018962502">
        <ele>396.19999999999999</ele>
        <time>2012-10-21T13:20:57Z</time>
      </trkpt>
      <trkpt lat="47.822131980210543" lon="14.639230007305741">
        <ele>396.80000000000001</ele>
        <time>2012-10-21T13:20:58Z</time>
      </trkpt>
      <trkpt lat="47.82214698381722" lon="14.639230007305741">
        <ele>397.19999999999999</ele>
        <time>2012-10-21T13:20:59Z</time>
      </trkpt>
      <trkpt lat="47.822166010737419" lon="14.639235036447644">
        <ele>397.60000000000002</ele>
        <time>2012-10-21T13:21:00Z</time>
      </trkpt>
      <trkpt lat="47.822182020172477" lon="14.639236964285374">
        <ele>398</ele>
        <time>2012-10-21T13:21:01Z</time>
      </trkpt>
      <trkpt lat="47.82227698713541" lon="14.639225983992219">
        <ele>398.39999999999998</ele>
        <time>2012-10-21T13:21:06Z</time>
      </trkpt>
      <trkpt lat="47.822291990742087" lon="14.639224978163838">
        <ele>398.80000000000001</ele>
        <time>2012-10-21T13:21:07Z</time>
      </trkpt>
      <trkpt lat="47.822303976863623" lon="14.639231013134122">
        <ele>399.19999999999999</ele>
        <time>2012-10-21T13:21:08Z</time>
      </trkpt>
      <trkpt lat="47.8223189804703" lon="14.639242999255657">
        <ele>399.60000000000002</ele>
        <time>2012-10-21T13:21:09Z</time>
      </trkpt>
      <trkpt lat="47.822333984076977" lon="14.639255991205573">
        <ele>400</ele>
        <time>2012-10-21T13:21:10Z</time>
      </trkpt>
      <trkpt lat="47.822387963533401" lon="14.639281975105405">
        <ele>400</ele>
        <time>2012-10-21T13:21:13Z</time>
      </trkpt>
      <trkpt lat="47.822421994060278" lon="14.639288010075688">
        <ele>400.39999999999998</ele>
        <time>2012-10-21T13:21:15Z</time>
      </trkpt>
      <trkpt lat="47.822441020980477" lon="14.639289015904069">
        <ele>400.80000000000001</ele>
        <time>2012-10-21T13:21:16Z</time>
      </trkpt>
      <trkpt lat="47.822456024587154" lon="14.639293039217591">
        <ele>401.39999999999998</ele>
        <time>2012-10-21T13:21:17Z</time>
      </trkpt>
      <trkpt lat="47.822472034022212" lon="14.639296978712082">
        <ele>402.19999999999999</ele>
        <time>2012-10-21T13:21:18Z</time>
      </trkpt>
      <trkpt lat="47.822498017922044" lon="14.639306031167507">
        <ele>402.19999999999999</ele>
        <time>2012-10-21T13:21:20Z</time>
      </trkpt>
      <trkpt lat="47.822582004591823" lon="14.639337966218591">
        <ele>402.60000000000002</ele>
        <time>2012-10-21T13:21:26Z</time>
      </trkpt>
      <trkpt lat="47.82259801402688" lon="14.639340983703732">
        <ele>403</ele>
        <time>2012-10-21T13:21:27Z</time>
      </trkpt>
      <trkpt lat="47.822608994320035" lon="14.639345007017255">
        <ele>403.60000000000002</ele>
        <time>2012-10-21T13:21:28Z</time>
      </trkpt>
      <trkpt lat="47.822623997926712" lon="14.639350036159158">
        <ele>404</ele>
        <time>2012-10-21T13:21:29Z</time>
      </trkpt>
      <trkpt lat="47.822631960734725" lon="14.63935598731041">
        <ele>404.39999999999998</ele>
        <time>2012-10-21T13:21:30Z</time>
      </trkpt>
      <trkpt lat="47.822703961282969" lon="14.639374008402228">
        <ele>404.39999999999998</ele>
        <time>2012-10-21T13:21:35Z</time>
      </trkpt>
      <trkpt lat="47.822719970718026" lon="14.63937602005899">
        <ele>404.80000000000001</ele>
        <time>2012-10-21T13:21:36Z</time>
      </trkpt>
      <trkpt lat="47.822731034830213" lon="14.639378031715751">
        <ele>405.19999999999999</ele>
        <time>2012-10-21T13:21:37Z</time>
      </trkpt>
      <trkpt lat="47.82274603843689" lon="14.639378031715751">
        <ele>405.60000000000002</ele>
        <time>2012-10-21T13:21:38Z</time>
      </trkpt>
      <trkpt lat="47.822761964052916" lon="14.639379037544131">
        <ele>406.19999999999999</ele>
        <time>2012-10-21T13:21:39Z</time>
      </trkpt>
      <trkpt lat="47.822773028165102" lon="14.639380965381861">
        <ele>406.60000000000002</ele>
        <time>2012-10-21T13:21:40Z</time>
      </trkpt>
      <trkpt lat="47.822810998186469" lon="14.639397980645299">
        <ele>406.60000000000002</ele>
        <time>2012-10-21T13:21:43Z</time>
      </trkpt>
      <trkpt lat="47.822857014834881" lon="14.639422036707401">
        <ele>407</ele>
        <time>2012-10-21T13:21:46Z</time>
      </trkpt>
      <trkpt lat="47.822872018441558" lon="14.639427987858653">
        <ele>407.39999999999998</ele>
        <time>2012-10-21T13:21:47Z</time>
      </trkpt>
      <trkpt lat="47.822887022048235" lon="14.639436034485698">
        <ele>407.80000000000001</ele>
        <time>2012-10-21T13:21:48Z</time>
      </trkpt>
      <trkpt lat="47.822903031483293" lon="14.63944198563695">
        <ele>408.19999999999999</ele>
        <time>2012-10-21T13:21:49Z</time>
      </trkpt>
      <trkpt lat="47.82291803508997" lon="14.639450032263994">
        <ele>408.60000000000002</ele>
        <time>2012-10-21T13:21:50Z</time>
      </trkpt>
      <trkpt lat="47.822925997897983" lon="14.639459000900388">
        <ele>408.60000000000002</ele>
        <time>2012-10-21T13:21:51Z</time>
      </trkpt>
      <trkpt lat="47.82294100150466" lon="14.63946302421391">
        <ele>408.60000000000002</ele>
        <time>2012-10-21T13:21:55Z</time>
      </trkpt>
      <trkpt lat="47.822990035638213" lon="14.639460006728768">
        <ele>408.60000000000002</ele>
        <time>2012-10-21T13:22:02Z</time>
      </trkpt>
      <trkpt lat="47.823002021759748" lon="14.639459000900388">
        <ele>409</ele>
        <time>2012-10-21T13:22:03Z</time>
      </trkpt>
      <trkpt lat="47.823013002052903" lon="14.639456989243627">
        <ele>409.60000000000002</ele>
        <time>2012-10-21T13:22:04Z</time>
      </trkpt>
      <trkpt lat="47.823020964860916" lon="14.639456989243627">
        <ele>410</ele>
        <time>2012-10-21T13:22:05Z</time>
      </trkpt>
      <trkpt lat="47.823032028973103" lon="14.639457995072007">
        <ele>410.39999999999998</ele>
        <time>2012-10-21T13:22:06Z</time>
      </trkpt>
      <trkpt lat="47.823039991781116" lon="14.639456989243627">
        <ele>410.80000000000001</ele>
        <time>2012-10-21T13:22:07Z</time>
      </trkpt>
      <trkpt lat="47.82307100482285" lon="14.639450032263994">
        <ele>410.80000000000001</ele>
        <time>2012-10-21T13:22:10Z</time>
      </trkpt>
      <trkpt lat="47.823077961802483" lon="14.639449026435614">
        <ele>410.80000000000001</ele>
        <time>2012-10-21T13:22:11Z</time>
      </trkpt>
      <trkpt lat="47.823081985116005" lon="14.639451960101724">
        <ele>410.80000000000001</ele>
        <time>2012-10-21T13:22:12Z</time>
      </trkpt>
      <trkpt lat="47.823132025077939" lon="14.639470987021923">
        <ele>410.80000000000001</ele>
        <time>2012-10-21T13:22:17Z</time>
      </trkpt>
      <trkpt lat="47.823150968179107" lon="14.639481967315078">
        <ele>411.19999999999999</ele>
        <time>2012-10-21T13:22:19Z</time>
      </trkpt>
      <trkpt lat="47.823153985664248" lon="14.639482973143458">
        <ele>411.60000000000002</ele>
        <time>2012-10-21T13:22:20Z</time>
      </trkpt>
      <trkpt lat="47.823165971785784" lon="14.639482973143458">
        <ele>412</ele>
        <time>2012-10-21T13:22:21Z</time>
      </trkpt>
      <trkpt lat="47.823174018412828" lon="14.63948498480022">
        <ele>412.39999999999998</ele>
        <time>2012-10-21T13:22:22Z</time>
      </trkpt>
      <trkpt lat="47.823180975392461" lon="14.639488002285361">
        <ele>412.80000000000001</ele>
        <time>2012-10-21T13:22:23Z</time>
      </trkpt>
      <trkpt lat="47.82320000231266" lon="14.639491019770503">
        <ele>412.80000000000001</ele>
        <time>2012-10-21T13:22:25Z</time>
      </trkpt>
      <trkpt lat="47.823235038667917" lon="14.639499988406897">
        <ele>412.80000000000001</ele>
        <time>2012-10-21T13:22:29Z</time>
      </trkpt>
      <trkpt lat="47.82326496206224" lon="14.639503005892038">
        <ele>412.80000000000001</ele>
        <time>2012-10-21T13:22:33Z</time>
      </trkpt>
      <trkpt lat="47.823325982317328" lon="14.63950602337718">
        <ele>413.19999999999999</ele>
        <time>2012-10-21T13:22:39Z</time>
      </trkpt>
      <trkpt lat="47.823337968438864" lon="14.639509040862322">
        <ele>413.60000000000002</ele>
        <time>2012-10-21T13:22:40Z</time>
      </trkpt>
      <trkpt lat="47.823345009237528" lon="14.639511974528432">
        <ele>414</ele>
        <time>2012-10-21T13:22:41Z</time>
      </trkpt>
      <trkpt lat="47.823352972045541" lon="14.639513986185193">
        <ele>414.60000000000002</ele>
        <time>2012-10-21T13:22:42Z</time>
      </trkpt>
      <trkpt lat="47.823360012844205" lon="14.639509962871671">
        <ele>415</ele>
        <time>2012-10-21T13:22:43Z</time>
      </trkpt>
      <trkpt lat="47.823424972593784" lon="14.639517003670335">
        <ele>415</ele>
        <time>2012-10-21T13:22:50Z</time>
      </trkpt>
      <trkpt lat="47.823475012555718" lon="14.63952898979187">
        <ele>415.39999999999998</ele>
        <time>2012-10-21T13:22:56Z</time>
      </trkpt>
      <trkpt lat="47.823485992848873" lon="14.639537036418915">
        <ele>416.19999999999999</ele>
        <time>2012-10-21T13:22:57Z</time>
      </trkpt>
      <trkpt lat="47.823494039475918" lon="14.639540975913405">
        <ele>416.60000000000002</ele>
        <time>2012-10-21T13:22:58Z</time>
      </trkpt>
      <trkpt lat="47.823505019769073" lon="14.639539970085025">
        <ele>417</ele>
        <time>2012-10-21T13:22:59Z</time>
      </trkpt>
      <trkpt lat="47.823554975911975" lon="14.639547010883689">
        <ele>417</ele>
        <time>2012-10-21T13:23:04Z</time>
      </trkpt>
      <trkpt lat="47.823600992560387" lon="14.639558997005224">
        <ele>417</ele>
        <time>2012-10-21T13:23:09Z</time>
      </trkpt>
      <trkpt lat="47.823608033359051" lon="14.639564026147127">
        <ele>417</ele>
        <time>2012-10-21T13:23:15Z</time>
      </trkpt>
      <trkpt lat="47.823620019480586" lon="14.639552040025592">
        <ele>417</ele>
        <time>2012-10-21T13:23:20Z</time>
      </trkpt>
      <trkpt lat="47.823630999773741" lon="14.63954902254045">
        <ele>417</ele>
        <time>2012-10-21T13:23:21Z</time>
      </trkpt>
      <trkpt lat="47.823657989501953" lon="14.639563020318747">
        <ele>417</ele>
        <time>2012-10-21T13:23:23Z</time>
      </trkpt>
      <trkpt lat="47.82369202002883" lon="14.639610964804888">
        <ele>417.39999999999998</ele>
        <time>2012-10-21T13:23:26Z</time>
      </trkpt>
      <trkpt lat="47.823704006150365" lon="14.639625968411565">
        <ele>417.80000000000001</ele>
        <time>2012-10-21T13:23:27Z</time>
      </trkpt>
      <trkpt lat="47.82371498644352" lon="14.639638960361481">
        <ele>418.19999999999999</ele>
        <time>2012-10-21T13:23:28Z</time>
      </trkpt>
      <trkpt lat="47.823729990050197" lon="14.639651030302048">
        <ele>418.60000000000002</ele>
        <time>2012-10-21T13:23:29Z</time>
      </trkpt>
      <trkpt lat="47.823745999485254" lon="14.639666033908725">
        <ele>419</ele>
        <time>2012-10-21T13:23:30Z</time>
      </trkpt>
      <trkpt lat="47.823795033618808" lon="14.639710038900375">
        <ele>419</ele>
        <time>2012-10-21T13:23:33Z</time>
      </trkpt>
      <trkpt lat="47.823825962841511" lon="14.639739962294698">
        <ele>419</ele>
        <time>2012-10-21T13:23:35Z</time>
      </trkpt>
      <trkpt lat="47.823891006410122" lon="14.639774998649955">
        <ele>419</ele>
        <time>2012-10-21T13:23:39Z</time>
      </trkpt>
      <trkpt lat="47.824027966707945" lon="14.639838030561805">
        <ele>419</ele>
        <time>2012-10-21T13:23:47Z</time>
      </trkpt>
      <trkpt lat="47.824199963361025" lon="14.639879018068314">
        <ele>419</ele>
        <time>2012-10-21T13:23:55Z</time>
      </trkpt>
      <trkpt lat="47.824332984164357" lon="14.63987197726965">
        <ele>419</ele>
        <time>2012-10-21T13:24:01Z</time>
      </trkpt>
      <trkpt lat="47.824386963620782" lon="14.639864014461637">
        <ele>419.39999999999998</ele>
        <time>2012-10-21T13:24:03Z</time>
      </trkpt>
      <trkpt lat="47.824405990540981" lon="14.639859991148114">
        <ele>419.80000000000001</ele>
        <time>2012-10-21T13:24:04Z</time>
      </trkpt>
      <trkpt lat="47.824429040774703" lon="14.639855967834592">
        <ele>420.19999999999999</ele>
        <time>2012-10-21T13:24:05Z</time>
      </trkpt>
      <trkpt lat="47.824447983875871" lon="14.639851022511721">
        <ele>420.60000000000002</ele>
        <time>2012-10-21T13:24:06Z</time>
      </trkpt>
      <trkpt lat="47.824471034109592" lon="14.639845993369818">
        <ele>421</ele>
        <time>2012-10-21T13:24:07Z</time>
      </trkpt>
      <trkpt lat="47.824512021616101" lon="14.639833001419902">
        <ele>421</ele>
        <time>2012-10-21T13:24:09Z</time>
      </trkpt>
      <trkpt lat="47.824673037976027" lon="14.639738034456968">
        <ele>421</ele>
        <time>2012-10-21T13:24:16Z</time>
      </trkpt>
      <trkpt lat="47.824836988002062" lon="14.639671985059977">
        <ele>421</ele>
        <time>2012-10-21T13:24:23Z</time>
      </trkpt>
      <trkpt lat="47.824932038784027" lon="14.639623034745455">
        <ele>421.39999999999998</ele>
        <time>2012-10-21T13:24:27Z</time>
      </trkpt>
      <trkpt lat="47.824955005198717" lon="14.63961498811841">
        <ele>421.80000000000001</ele>
        <time>2012-10-21T13:24:28Z</time>
      </trkpt>
      <trkpt lat="47.824977971613407" lon="14.639606019482017">
        <ele>422.19999999999999</ele>
        <time>2012-10-21T13:24:29Z</time>
      </trkpt>
      <trkpt lat="47.825004961341619" lon="14.639597972854972">
        <ele>422.60000000000002</ele>
        <time>2012-10-21T13:24:30Z</time>
      </trkpt>
      <trkpt lat="47.825027005746961" lon="14.63959101587534">
        <ele>423.19999999999999</ele>
        <time>2012-10-21T13:24:31Z</time>
      </trkpt>
      <trkpt lat="47.825049972161651" lon="14.639581041410565">
        <ele>423.19999999999999</ele>
        <time>2012-10-21T13:24:32Z</time>
      </trkpt>
      <trkpt lat="47.825221968814731" lon="14.6395050175488">
        <ele>423.19999999999999</ele>
        <time>2012-10-21T13:24:39Z</time>
      </trkpt>
      <trkpt lat="47.825378039851785" lon="14.639543993398547">
        <ele>423.19999999999999</ele>
        <time>2012-10-21T13:24:46Z</time>
      </trkpt>
      <trkpt lat="47.825480969622731" lon="14.639581963419914">
        <ele>423.19999999999999</ele>
        <time>2012-10-21T13:24:52Z</time>
      </trkpt>
      <trkpt lat="47.825671993196011" lon="14.639722025021911">
        <ele>423.19999999999999</ele>
        <time>2012-10-21T13:25:00Z</time>
      </trkpt>
      <trkpt lat="47.825828986242414" lon="14.639870971441269">
        <ele>423.19999999999999</ele>
        <time>2012-10-21T13:25:06Z</time>
      </trkpt>
      <trkpt lat="47.826098967343569" lon="14.639971973374486">
        <ele>423.19999999999999</ele>
        <time>2012-10-21T13:25:13Z</time>
      </trkpt>
      <trkpt lat="47.82635897397995" lon="14.640021007508039">
        <ele>423.19999999999999</ele>
        <time>2012-10-21T13:25:20Z</time>
      </trkpt>
      <trkpt lat="47.826683018356562" lon="14.640041040256619">
        <ele>423.19999999999999</ele>
        <time>2012-10-21T13:25:28Z</time>
      </trkpt>
      <trkpt lat="47.826797012239695" lon="14.640092002227902">
        <ele>423.19999999999999</ele>
        <time>2012-10-21T13:25:31Z</time>
      </trkpt>
      <trkpt lat="47.826880998909473" lon="14.640141958370805">
        <ele>423.19999999999999</ele>
        <time>2012-10-21T13:25:33Z</time>
      </trkpt>
      <trkpt lat="47.826919974759221" lon="14.640170959755778">
        <ele>423.19999999999999</ele>
        <time>2012-10-21T13:25:34Z</time>
      </trkpt>
      <trkpt lat="47.827114015817642" lon="14.640285037457943">
        <ele>423.19999999999999</ele>
        <time>2012-10-21T13:25:39Z</time>
      </trkpt>
      <trkpt lat="47.827205965295434" lon="14.640265004709363">
        <ele>422.80000000000001</ele>
        <time>2012-10-21T13:25:41Z</time>
      </trkpt>
      <trkpt lat="47.827247958630323" lon="14.640242038294673">
        <ele>422.19999999999999</ele>
        <time>2012-10-21T13:25:42Z</time>
      </trkpt>
      <trkpt lat="47.827296992763877" lon="14.640211025252938">
        <ele>421.80000000000001</ele>
        <time>2012-10-21T13:25:43Z</time>
      </trkpt>
      <trkpt lat="47.827347032725811" lon="14.640172971412539">
        <ele>421.39999999999998</ele>
        <time>2012-10-21T13:25:44Z</time>
      </trkpt>
      <trkpt lat="47.827395983040333" lon="14.640129972249269">
        <ele>421</ele>
        <time>2012-10-21T13:25:45Z</time>
      </trkpt>
      <trkpt lat="47.827506959438324" lon="14.640035005286336">
        <ele>420.60000000000002</ele>
        <time>2012-10-21T13:25:47Z</time>
      </trkpt>
      <trkpt lat="47.827564040198922" lon="14.639981025829911">
        <ele>420</ele>
        <time>2012-10-21T13:25:48Z</time>
      </trkpt>
      <trkpt lat="47.827613996341825" lon="14.639928974211216">
        <ele>419</ele>
        <time>2012-10-21T13:25:49Z</time>
      </trkpt>
      <trkpt lat="47.827660012990236" lon="14.639878012239933">
        <ele>418.39999999999998</ele>
        <time>2012-10-21T13:25:50Z</time>
      </trkpt>
      <trkpt lat="47.827708963304758" lon="14.63982897810638">
        <ele>417.80000000000001</ele>
        <time>2012-10-21T13:25:51Z</time>
      </trkpt>
      <trkpt lat="47.827751040458679" lon="14.639779021963477">
        <ele>417.19999999999999</ele>
        <time>2012-10-21T13:25:52Z</time>
      </trkpt>
      <trkpt lat="47.827796973288059" lon="14.639734011143446">
        <ele>416.60000000000002</ele>
        <time>2012-10-21T13:25:53Z</time>
      </trkpt>
      <trkpt lat="47.827847013249993" lon="14.639697968959808">
        <ele>416.19999999999999</ele>
        <time>2012-10-21T13:25:54Z</time>
      </trkpt>
      <trkpt lat="47.827908033505082" lon="14.639679025858641">
        <ele>415.60000000000002</ele>
        <time>2012-10-21T13:25:55Z</time>
      </trkpt>
      <trkpt lat="47.827976010739803" lon="14.639679025858641">
        <ele>415.19999999999999</ele>
        <time>2012-10-21T13:25:56Z</time>
      </trkpt>
      <trkpt lat="47.828044993802905" lon="14.639684977009892">
        <ele>414.80000000000001</ele>
        <time>2012-10-21T13:25:57Z</time>
      </trkpt>
      <trkpt lat="47.828116994351149" lon="14.639687994495034">
        <ele>414.39999999999998</ele>
        <time>2012-10-21T13:25:58Z</time>
      </trkpt>
      <trkpt lat="47.82818597741425" lon="14.639693023636937">
        <ele>414</ele>
        <time>2012-10-21T13:25:59Z</time>
      </trkpt>
      <trkpt lat="47.828258983790874" lon="14.639706015586853">
        <ele>413.60000000000002</ele>
        <time>2012-10-21T13:26:00Z</time>
      </trkpt>
      <trkpt lat="47.828330984339118" lon="14.639723030850291">
        <ele>413</ele>
        <time>2012-10-21T13:26:01Z</time>
      </trkpt>
      <trkpt lat="47.828402984887362" lon="14.639738034456968">
        <ele>412.60000000000002</ele>
        <time>2012-10-21T13:26:02Z</time>
      </trkpt>
      <trkpt lat="47.82848697155714" lon="14.639762006700039">
        <ele>412.19999999999999</ele>
        <time>2012-10-21T13:26:03Z</time>
      </trkpt>
      <trkpt lat="47.828568024560809" lon="14.639788996428251">
        <ele>411.60000000000002</ele>
        <time>2012-10-21T13:26:04Z</time>
      </trkpt>
      <trkpt lat="47.828719988465309" lon="14.639853034168482">
        <ele>411.19999999999999</ele>
        <time>2012-10-21T13:26:06Z</time>
      </trkpt>
      <trkpt lat="47.828796012327075" lon="14.639896033331752">
        <ele>410.80000000000001</ele>
        <time>2012-10-21T13:26:07Z</time>
      </trkpt>
      <trkpt lat="47.828869018703699" lon="14.639940960332751">
        <ele>410.39999999999998</ele>
        <time>2012-10-21T13:26:08Z</time>
      </trkpt>
      <trkpt lat="47.828938001766801" lon="14.639987982809544">
        <ele>410</ele>
        <time>2012-10-21T13:26:09Z</time>
      </trkpt>
      <trkpt lat="47.829002039507031" lon="14.640038022771478">
        <ele>409.60000000000002</ele>
        <time>2012-10-21T13:26:10Z</time>
      </trkpt>
      <trkpt lat="47.829238995909691" lon="14.640263998880982">
        <ele>409.60000000000002</ele>
        <time>2012-10-21T13:26:14Z</time>
      </trkpt>
      <trkpt lat="47.829514006152749" lon="14.640525011345744">
        <ele>409.60000000000002</ele>
        <time>2012-10-21T13:26:20Z</time>
      </trkpt>
      <trkpt lat="47.82955901697278" lon="14.640555018559098">
        <ele>409.60000000000002</ele>
        <time>2012-10-21T13:26:21Z</time>
      </trkpt>
      <trkpt lat="47.829711986705661" lon="14.640657026320696">
        <ele>409.60000000000002</ele>
        <time>2012-10-21T13:26:25Z</time>
      </trkpt>
      <trkpt lat="47.829876020550728" lon="14.640700025483966">
        <ele>409.60000000000002</ele>
        <time>2012-10-21T13:26:30Z</time>
      </trkpt>
      <trkpt lat="47.829960007220507" lon="14.640717962756753">
        <ele>409.60000000000002</ele>
        <time>2012-10-21T13:26:32Z</time>
      </trkpt>
      <trkpt lat="47.83005497418344" lon="14.640787029638886">
        <ele>409.60000000000002</ele>
        <time>2012-10-21T13:26:34Z</time>
      </trkpt>
      <trkpt lat="47.830153964459896" lon="14.640889959409833">
        <ele>409.60000000000002</ele>
        <time>2012-10-21T13:26:36Z</time>
      </trkpt>
      <trkpt lat="47.830256978049874" lon="14.641004037111998">
        <ele>409.19999999999999</ele>
        <time>2012-10-21T13:26:38Z</time>
      </trkpt>
      <trkpt lat="47.830311041325331" lon="14.6410539932549">
        <ele>408.80000000000001</ele>
        <time>2012-10-21T13:26:39Z</time>
      </trkpt>
      <trkpt lat="47.83037600107491" lon="14.641094980761409">
        <ele>408.39999999999998</ele>
        <time>2012-10-21T13:26:40Z</time>
      </trkpt>
      <trkpt lat="47.83044096082449" lon="14.641134040430188">
        <ele>408</ele>
        <time>2012-10-21T13:26:41Z</time>
      </trkpt>
      <trkpt lat="47.830501981079578" lon="14.641167987138033">
        <ele>407.60000000000002</ele>
        <time>2012-10-21T13:26:42Z</time>
      </trkpt>
      <trkpt lat="47.830563001334667" lon="14.641191959381104">
        <ele>407.19999999999999</ele>
        <time>2012-10-21T13:26:43Z</time>
      </trkpt>
      <trkpt lat="47.830627039074898" lon="14.641212997958064">
        <ele>406.60000000000002</ele>
        <time>2012-10-21T13:26:44Z</time>
      </trkpt>
      <trkpt lat="47.830687975510955" lon="14.641236970201135">
        <ele>406.19999999999999</ele>
        <time>2012-10-21T13:26:45Z</time>
      </trkpt>
      <trkpt lat="47.830753019079566" lon="14.641271000728011">
        <ele>405.80000000000001</ele>
        <time>2012-10-21T13:26:46Z</time>
      </trkpt>
      <trkpt lat="47.830817978829145" lon="14.641315005719662">
        <ele>405.39999999999998</ele>
        <time>2012-10-21T13:26:47Z</time>
      </trkpt>
      <trkpt lat="47.830952005460858" lon="14.641428999602795">
        <ele>405</ele>
        <time>2012-10-21T13:26:49Z</time>
      </trkpt>
      <trkpt lat="47.831013025715947" lon="14.641490019857883">
        <ele>404.39999999999998</ele>
        <time>2012-10-21T13:26:50Z</time>
      </trkpt>
      <trkpt lat="47.831077985465527" lon="14.641551040112972">
        <ele>404</ele>
        <time>2012-10-21T13:26:51Z</time>
      </trkpt>
      <trkpt lat="47.831145962700248" lon="14.641611976549029">
        <ele>403.39999999999998</ele>
        <time>2012-10-21T13:26:52Z</time>
      </trkpt>
      <trkpt lat="47.831215029582381" lon="14.641671990975738">
        <ele>402.80000000000001</ele>
        <time>2012-10-21T13:26:53Z</time>
      </trkpt>
      <trkpt lat="47.831279989331961" lon="14.641730999574065">
        <ele>402.19999999999999</ele>
        <time>2012-10-21T13:26:54Z</time>
      </trkpt>
      <trkpt lat="47.831347966566682" lon="14.64178497903049">
        <ele>401.60000000000002</ele>
        <time>2012-10-21T13:26:55Z</time>
      </trkpt>
      <trkpt lat="47.831424996256828" lon="14.641837030649185">
        <ele>401</ele>
        <time>2012-10-21T13:26:56Z</time>
      </trkpt>
      <trkpt lat="47.831496996805072" lon="14.641883969306946">
        <ele>400.39999999999998</ele>
        <time>2012-10-21T13:26:57Z</time>
      </trkpt>
      <trkpt lat="47.831573020666838" lon="14.641925040632486">
        <ele>400</ele>
        <time>2012-10-21T13:26:58Z</time>
      </trkpt>
      <trkpt lat="47.831646027043462" lon="14.641960998997092">
        <ele>399.39999999999998</ele>
        <time>2012-10-21T13:26:59Z</time>
      </trkpt>
      <trkpt lat="47.831721967086196" lon="14.64199704118073">
        <ele>398.80000000000001</ele>
        <time>2012-10-21T13:27:00Z</time>
      </trkpt>
      <trkpt lat="47.831802014261484" lon="14.642032999545336">
        <ele>398.19999999999999</ele>
        <time>2012-10-21T13:27:01Z</time>
      </trkpt>
      <trkpt lat="47.831881977617741" lon="14.642068035900593">
        <ele>397.80000000000001</ele>
        <time>2012-10-21T13:27:02Z</time>
      </trkpt>
      <trkpt lat="47.831965964287519" lon="14.642102988436818">
        <ele>396.80000000000001</ele>
        <time>2012-10-21T13:27:03Z</time>
      </trkpt>
      <trkpt lat="47.832053974270821" lon="14.642137018963695">
        <ele>396.19999999999999</ele>
        <time>2012-10-21T13:27:04Z</time>
      </trkpt>
      <trkpt lat="47.832137960940599" lon="14.64217197149992">
        <ele>395.60000000000002</ele>
        <time>2012-10-21T13:27:05Z</time>
      </trkpt>
      <trkpt lat="47.83222203142941" lon="14.64221203699708">
        <ele>395</ele>
        <time>2012-10-21T13:27:06Z</time>
      </trkpt>
      <trkpt lat="47.832306018099189" lon="14.64225897565484">
        <ele>394.39999999999998</ele>
        <time>2012-10-21T13:27:07Z</time>
      </trkpt>
      <trkpt lat="47.832390004768968" lon="14.642310021445155">
        <ele>393.80000000000001</ele>
        <time>2012-10-21T13:27:08Z</time>
      </trkpt>
      <trkpt lat="47.832469968125224" lon="14.642357965931296">
        <ele>393.39999999999998</ele>
        <time>2012-10-21T13:27:09Z</time>
      </trkpt>
      <trkpt lat="47.832554038614035" lon="14.64240800589323">
        <ele>392.80000000000001</ele>
        <time>2012-10-21T13:27:10Z</time>
      </trkpt>
      <trkpt lat="47.832629978656769" lon="14.642453016713262">
        <ele>392.19999999999999</ele>
        <time>2012-10-21T13:27:11Z</time>
      </trkpt>
      <trkpt lat="47.832710025832057" lon="14.642486963421106">
        <ele>391.60000000000002</ele>
        <time>2012-10-21T13:27:12Z</time>
      </trkpt>
      <trkpt lat="47.832789989188313" lon="14.642518982291222">
        <ele>391.19999999999999</ele>
        <time>2012-10-21T13:27:13Z</time>
      </trkpt>
      <trkpt lat="47.832873975858092" lon="14.642547983676195">
        <ele>391.19999999999999</ele>
        <time>2012-10-21T13:27:14Z</time>
      </trkpt>
      <trkpt lat="47.833099029958248" lon="14.642607998102903">
        <ele>390.60000000000002</ele>
        <time>2012-10-21T13:27:17Z</time>
      </trkpt>
      <trkpt lat="47.833172036334872" lon="14.642620990052819">
        <ele>390.19999999999999</ele>
        <time>2012-10-21T13:27:18Z</time>
      </trkpt>
      <trkpt lat="47.833247976377606" lon="14.642633982002735">
        <ele>389.80000000000001</ele>
        <time>2012-10-21T13:27:19Z</time>
      </trkpt>
      <trkpt lat="47.83332098275423" lon="14.642644040286541">
        <ele>389.39999999999998</ele>
        <time>2012-10-21T13:27:20Z</time>
      </trkpt>
      <trkpt lat="47.833388959988952" lon="14.642652003094554">
        <ele>389</ele>
        <time>2012-10-21T13:27:21Z</time>
      </trkpt>
      <trkpt lat="47.83374804072082" lon="14.642673963680863">
        <ele>389</ele>
        <time>2012-10-21T13:27:26Z</time>
      </trkpt>
      <trkpt lat="47.834148025140166" lon="14.642742024734616">
        <ele>388.60000000000002</ele>
        <time>2012-10-21T13:27:32Z</time>
      </trkpt>
      <trkpt lat="47.834217008203268" lon="14.642767002806067">
        <ele>388.19999999999999</ele>
        <time>2012-10-21T13:27:33Z</time>
      </trkpt>
      <trkpt lat="47.834281967952847" lon="14.642789969220757">
        <ele>387.80000000000001</ele>
        <time>2012-10-21T13:27:34Z</time>
      </trkpt>
      <trkpt lat="47.834351034834981" lon="14.642813019454479">
        <ele>387.19999999999999</ele>
        <time>2012-10-21T13:27:35Z</time>
      </trkpt>
      <trkpt lat="47.83441498875618" lon="14.642834980040789">
        <ele>386.80000000000001</ele>
        <time>2012-10-21T13:27:36Z</time>
      </trkpt>
      <trkpt lat="47.834598971530795" lon="14.642890971153975">
        <ele>386.80000000000001</ele>
        <time>2012-10-21T13:27:39Z</time>
      </trkpt>
      <trkpt lat="47.835026029497385" lon="14.64294696226716">
        <ele>386.80000000000001</ele>
        <time>2012-10-21T13:27:46Z</time>
      </trkpt>
      <trkpt lat="47.835402963683009" lon="14.642950985580683">
        <ele>386.80000000000001</ele>
        <time>2012-10-21T13:27:53Z</time>
      </trkpt>
      <trkpt lat="47.835613014176488" lon="14.642933970317245">
        <ele>386.80000000000001</ele>
        <time>2012-10-21T13:27:58Z</time>
      </trkpt>
      <trkpt lat="47.835849970579147" lon="14.642905974760652">
        <ele>387.19999999999999</ele>
        <time>2012-10-21T13:28:04Z</time>
      </trkpt>
      <trkpt lat="47.835888024419546" lon="14.64290102943778">
        <ele>387.60000000000002</ele>
        <time>2012-10-21T13:28:05Z</time>
      </trkpt>
      <trkpt lat="47.835921971127391" lon="14.642896000295877">
        <ele>388</ele>
        <time>2012-10-21T13:28:06Z</time>
      </trkpt>
      <trkpt lat="47.835952984169126" lon="14.642888959497213">
        <ele>388.39999999999998</ele>
        <time>2012-10-21T13:28:07Z</time>
      </trkpt>
      <trkpt lat="47.835987014696002" lon="14.64287999086082">
        <ele>389</ele>
        <time>2012-10-21T13:28:08Z</time>
      </trkpt>
      <trkpt lat="47.836105031892657" lon="14.642844032496214">
        <ele>389</ele>
        <time>2012-10-21T13:28:12Z</time>
      </trkpt>
      <trkpt lat="47.836231011897326" lon="14.642775971442461">
        <ele>389</ele>
        <time>2012-10-21T13:28:17Z</time>
      </trkpt>
      <trkpt lat="47.83628499135375" lon="14.64275199919939">
        <ele>389.39999999999998</ele>
        <time>2012-10-21T13:28:19Z</time>
      </trkpt>
      <trkpt lat="47.836308041587472" lon="14.642733978107572">
        <ele>389.80000000000001</ele>
        <time>2012-10-21T13:28:20Z</time>
      </trkpt>
      <trkpt lat="47.836330002173781" lon="14.642715035006404">
        <ele>390.19999999999999</ele>
        <time>2012-10-21T13:28:21Z</time>
      </trkpt>
      <trkpt lat="47.836356991901994" lon="14.642701037228107">
        <ele>390.60000000000002</ele>
        <time>2012-10-21T13:28:22Z</time>
      </trkpt>
      <trkpt lat="47.836383981630206" lon="14.642683016136289">
        <ele>391</ele>
        <time>2012-10-21T13:28:23Z</time>
      </trkpt>
      <trkpt lat="47.836410971358418" lon="14.642659965902567">
        <ele>391</ele>
        <time>2012-10-21T13:28:24Z</time>
      </trkpt>
      <trkpt lat="47.836616998538375" lon="14.642434995621443">
        <ele>391</ele>
        <time>2012-10-21T13:28:31Z</time>
      </trkpt>
      <trkpt lat="47.83677700906992" lon="14.642221005633473">
        <ele>391</ele>
        <time>2012-10-21T13:28:38Z</time>
      </trkpt>
      <trkpt lat="47.836796035990119" lon="14.642195021733642">
        <ele>391.39999999999998</ele>
        <time>2012-10-21T13:28:39Z</time>
      </trkpt>
      <trkpt lat="47.836811039596796" lon="14.642141964286566">
        <ele>391.80000000000001</ele>
        <time>2012-10-21T13:28:40Z</time>
      </trkpt>
      <trkpt lat="47.836823025718331" lon="14.642097037285566">
        <ele>392.19999999999999</ele>
        <time>2012-10-21T13:28:41Z</time>
      </trkpt>
      <trkpt lat="47.836838029325008" lon="14.642062000930309">
        <ele>393</ele>
        <time>2012-10-21T13:28:42Z</time>
      </trkpt>
      <trkpt lat="47.836880022659898" lon="14.641953958198428">
        <ele>393</ele>
        <time>2012-10-21T13:28:45Z</time>
      </trkpt>
      <trkpt lat="47.837028969079256" lon="14.641756983473897">
        <ele>393</ele>
        <time>2012-10-21T13:28:52Z</time>
      </trkpt>
      <trkpt lat="47.837139023467898" lon="14.641581969335675">
        <ele>393.39999999999998</ele>
        <time>2012-10-21T13:28:59Z</time>
      </trkpt>
      <trkpt lat="47.837157966569066" lon="14.641555985435843">
        <ele>393.80000000000001</ele>
        <time>2012-10-21T13:29:00Z</time>
      </trkpt>
      <trkpt lat="47.837172970175743" lon="14.641528995707631">
        <ele>394.19999999999999</ele>
        <time>2012-10-21T13:29:01Z</time>
      </trkpt>
      <trkpt lat="47.837188979610801" lon="14.641499994322658">
        <ele>394.60000000000002</ele>
        <time>2012-10-21T13:29:02Z</time>
      </trkpt>
      <trkpt lat="47.837203983217478" lon="14.641470992937684">
        <ele>395</ele>
        <time>2012-10-21T13:29:03Z</time>
      </trkpt>
      <trkpt lat="47.837242037057877" lon="14.641347024589777">
        <ele>395</ele>
        <time>2012-10-21T13:29:07Z</time>
      </trkpt>
      <trkpt lat="47.837284030392766" lon="14.641163963824511">
        <ele>395</ele>
        <time>2012-10-21T13:29:13Z</time>
      </trkpt>
      <trkpt lat="47.837299033999443" lon="14.641102021560073">
        <ele>395.39999999999998</ele>
        <time>2012-10-21T13:29:15Z</time>
      </trkpt>
      <trkpt lat="47.837306996807456" lon="14.641070002689958">
        <ele>395.80000000000001</ele>
        <time>2012-10-21T13:29:16Z</time>
      </trkpt>
      <trkpt lat="47.837314959615469" lon="14.641039995476604">
        <ele>396.19999999999999</ele>
        <time>2012-10-21T13:29:17Z</time>
      </trkpt>
      <trkpt lat="47.837322000414133" lon="14.641006970778108">
        <ele>396.60000000000002</ele>
        <time>2012-10-21T13:29:18Z</time>
      </trkpt>
      <trkpt lat="47.837333986535668" lon="14.640976963564754">
        <ele>397</ele>
        <time>2012-10-21T13:29:19Z</time>
      </trkpt>
      <trkpt lat="47.837344966828823" lon="14.640944022685289">
        <ele>397</ele>
        <time>2012-10-21T13:29:20Z</time>
      </trkpt>
      <trkpt lat="47.83735703676939" lon="14.640884008258581">
        <ele>397</ele>
        <time>2012-10-21T13:29:22Z</time>
      </trkpt>
      <trkpt lat="47.83740196377039" lon="14.640716034919024">
        <ele>397</ele>
        <time>2012-10-21T13:29:27Z</time>
      </trkpt>
      <trkpt lat="47.837513023987412" lon="14.640430966392159">
        <ele>397</ele>
        <time>2012-10-21T13:29:34Z</time>
      </trkpt>
      <trkpt lat="47.837612014263868" lon="14.640161991119385">
        <ele>397</ele>
        <time>2012-10-21T13:29:39Z</time>
      </trkpt>
      <trkpt lat="47.837673034518957" lon="14.640050008893013">
        <ele>397</ele>
        <time>2012-10-21T13:29:41Z</time>
      </trkpt>
      <trkpt lat="47.837788034230471" lon="14.639907013624907">
        <ele>397</ele>
        <time>2012-10-21T13:29:44Z</time>
      </trkpt>
      <trkpt lat="47.837939998134971" lon="14.639753038063645">
        <ele>396.60000000000002</ele>
        <time>2012-10-21T13:29:47Z</time>
      </trkpt>
      <trkpt lat="47.837986014783382" lon="14.639690006151795">
        <ele>396.19999999999999</ele>
        <time>2012-10-21T13:29:48Z</time>
      </trkpt>
      <trkpt lat="47.838035970926285" lon="14.639621023088694">
        <ele>395.60000000000002</ele>
        <time>2012-10-21T13:29:49Z</time>
      </trkpt>
      <trkpt lat="47.838080981746316" lon="14.639550028368831">
        <ele>395.19999999999999</ele>
        <time>2012-10-21T13:29:50Z</time>
      </trkpt>
      <trkpt lat="47.838126998394728" lon="14.639482973143458">
        <ele>394.80000000000001</ele>
        <time>2012-10-21T13:29:51Z</time>
      </trkpt>
      <trkpt lat="47.838279968127608" lon="14.639297984540462">
        <ele>394.39999999999998</ele>
        <time>2012-10-21T13:29:54Z</time>
      </trkpt>
      <trkpt lat="47.838336965069175" lon="14.63924702256918">
        <ele>393.60000000000002</ele>
        <time>2012-10-21T13:29:55Z</time>
      </trkpt>
      <trkpt lat="47.838397985324264" lon="14.639196982607245">
        <ele>393.19999999999999</ele>
        <time>2012-10-21T13:29:56Z</time>
      </trkpt>
      <trkpt lat="47.838463028892875" lon="14.639145014807582">
        <ele>392.80000000000001</ele>
        <time>2012-10-21T13:29:57Z</time>
      </trkpt>
      <trkpt lat="47.838531006127596" lon="14.639091035351157">
        <ele>392.19999999999999</ele>
        <time>2012-10-21T13:29:58Z</time>
      </trkpt>
      <trkpt lat="47.838595965877175" lon="14.63903596624732">
        <ele>391.80000000000001</ele>
        <time>2012-10-21T13:29:59Z</time>
      </trkpt>
      <trkpt lat="47.838661009445786" lon="14.638978969305754">
        <ele>391.39999999999998</ele>
        <time>2012-10-21T13:30:00Z</time>
      </trkpt>
      <trkpt lat="47.838725969195366" lon="14.638916021212935">
        <ele>391</ele>
        <time>2012-10-21T13:30:01Z</time>
      </trkpt>
      <trkpt lat="47.838786989450455" lon="14.638848965987563">
        <ele>390.39999999999998</ele>
        <time>2012-10-21T13:30:02Z</time>
      </trkpt>
      <trkpt lat="47.838848009705544" lon="14.638783000409603">
        <ele>389.80000000000001</ele>
        <time>2012-10-21T13:30:03Z</time>
      </trkpt>
      <trkpt lat="47.838912969455123" lon="14.63871200568974">
        <ele>389.19999999999999</ele>
        <time>2012-10-21T13:30:04Z</time>
      </trkpt>
      <trkpt lat="47.838973989710212" lon="14.6386450342834">
        <ele>388.60000000000002</ele>
        <time>2012-10-21T13:30:05Z</time>
      </trkpt>
      <trkpt lat="47.839035009965301" lon="14.638584014028311">
        <ele>387.80000000000001</ele>
        <time>2012-10-21T13:30:06Z</time>
      </trkpt>
      <trkpt lat="47.839096030220389" lon="14.638528022915125">
        <ele>387.19999999999999</ele>
        <time>2012-10-21T13:30:07Z</time>
      </trkpt>
      <trkpt lat="47.839156966656446" lon="14.638470020145178">
        <ele>386.39999999999998</ele>
        <time>2012-10-21T13:30:08Z</time>
      </trkpt>
      <trkpt lat="47.839222010225058" lon="14.638416040688753">
        <ele>385.80000000000001</ele>
        <time>2012-10-21T13:30:09Z</time>
      </trkpt>
      <trkpt lat="47.839294010773301" lon="14.63836801238358">
        <ele>385</ele>
        <time>2012-10-21T13:30:10Z</time>
      </trkpt>
      <trkpt lat="47.839362993836403" lon="14.638320989906788">
        <ele>384.39999999999998</ele>
        <time>2012-10-21T13:30:11Z</time>
      </trkpt>
      <trkpt lat="47.839443041011691" lon="14.63828201405704">
        <ele>383.80000000000001</ele>
        <time>2012-10-21T13:30:12Z</time>
      </trkpt>
      <trkpt lat="47.839523004367948" lon="14.638242032378912">
        <ele>383</ele>
        <time>2012-10-21T13:30:13Z</time>
      </trkpt>
      <trkpt lat="47.839600034058094" lon="14.638199033215642">
        <ele>382.39999999999998</ele>
        <time>2012-10-21T13:30:14Z</time>
      </trkpt>
      <trkpt lat="47.839675974100828" lon="14.638148993253708">
        <ele>381.60000000000002</ele>
        <time>2012-10-21T13:30:15Z</time>
      </trkpt>
      <trkpt lat="47.839756021276116" lon="14.638097025454044">
        <ele>381.19999999999999</ele>
        <time>2012-10-21T13:30:16Z</time>
      </trkpt>
      <trkpt lat="47.839835984632373" lon="14.63804597966373">
        <ele>380.80000000000001</ele>
        <time>2012-10-21T13:30:17Z</time>
      </trkpt>
      <trkpt lat="47.839916031807661" lon="14.637999041005969">
        <ele>380.39999999999998</ele>
        <time>2012-10-21T13:30:18Z</time>
      </trkpt>
      <trkpt lat="47.839995995163918" lon="14.637956963852048">
        <ele>379.80000000000001</ele>
        <time>2012-10-21T13:30:19Z</time>
      </trkpt>
      <trkpt lat="47.840075958520174" lon="14.63791698217392">
        <ele>379.39999999999998</ele>
        <time>2012-10-21T13:30:20Z</time>
      </trkpt>
      <trkpt lat="47.840312998741865" lon="14.637804999947548">
        <ele>379</ele>
        <time>2012-10-21T13:30:23Z</time>
      </trkpt>
      <trkpt lat="47.840392962098122" lon="14.637767029926181">
        <ele>378.60000000000002</ele>
        <time>2012-10-21T13:30:24Z</time>
      </trkpt>
      <trkpt lat="47.84047300927341" lon="14.637731993570924">
        <ele>378.19999999999999</ele>
        <time>2012-10-21T13:30:25Z</time>
      </trkpt>
      <trkpt lat="47.840552972629666" lon="14.637693017721176">
        <ele>377.80000000000001</ele>
        <time>2012-10-21T13:30:26Z</time>
      </trkpt>
      <trkpt lat="47.840630002319813" lon="14.637651024386287">
        <ele>377.39999999999998</ele>
        <time>2012-10-21T13:30:27Z</time>
      </trkpt>
      <trkpt lat="47.840706026181579" lon="14.637609031051397">
        <ele>377.39999999999998</ele>
        <time>2012-10-21T13:30:28Z</time>
      </trkpt>
      <trkpt lat="47.841231990605593" lon="14.637337038293481">
        <ele>376.80000000000001</ele>
        <time>2012-10-21T13:30:35Z</time>
      </trkpt>
      <trkpt lat="47.841304996982217" lon="14.637299990281463">
        <ele>376.39999999999998</ele>
        <time>2012-10-21T13:30:36Z</time>
      </trkpt>
      <trkpt lat="47.84137699753046" lon="14.637264031916857">
        <ele>376</ele>
        <time>2012-10-21T13:30:37Z</time>
      </trkpt>
      <trkpt lat="47.841454027220607" lon="14.63723000138998">
        <ele>375.60000000000002</ele>
        <time>2012-10-21T13:30:38Z</time>
      </trkpt>
      <trkpt lat="47.841533990576863" lon="14.637195970863104">
        <ele>375.19999999999999</ele>
        <time>2012-10-21T13:30:39Z</time>
      </trkpt>
      <trkpt lat="47.841758960857987" lon="14.637097986415029">
        <ele>375.19999999999999</ele>
        <time>2012-10-21T13:30:42Z</time>
      </trkpt>
      <trkpt lat="47.841975968331099" lon="14.637005031108856">
        <ele>374.19999999999999</ele>
        <time>2012-10-21T13:30:45Z</time>
      </trkpt>
      <trkpt lat="47.842051992192864" lon="14.636975023895502">
        <ele>373.80000000000001</ele>
        <time>2012-10-21T13:30:46Z</time>
      </trkpt>
      <trkpt lat="47.842124998569489" lon="14.63694803416729">
        <ele>373.39999999999998</ele>
        <time>2012-10-21T13:30:47Z</time>
      </trkpt>
      <trkpt lat="47.842201022431254" lon="14.636923978105187">
        <ele>373</ele>
        <time>2012-10-21T13:30:48Z</time>
      </trkpt>
      <trkpt lat="47.842346029356122" lon="14.636879973113537">
        <ele>373</ele>
        <time>2012-10-21T13:30:50Z</time>
      </trkpt>
      <trkpt lat="47.84270896576345" lon="14.636794980615377">
        <ele>373</ele>
        <time>2012-10-21T13:30:56Z</time>
      </trkpt>
      <trkpt lat="47.842910969629884" lon="14.636772014200687">
        <ele>373</ele>
        <time>2012-10-21T13:31:01Z</time>
      </trkpt>
      <trkpt lat="47.843024963513017" lon="14.636759022250772">
        <ele>373.39999999999998</ele>
        <time>2012-10-21T13:31:05Z</time>
      </trkpt>
      <trkpt lat="47.843052037060261" lon="14.63675600476563">
        <ele>373.80000000000001</ele>
        <time>2012-10-21T13:31:06Z</time>
      </trkpt>
      <trkpt lat="47.843075003474951" lon="14.636753993108869">
        <ele>374.19999999999999</ele>
        <time>2012-10-21T13:31:07Z</time>
      </trkpt>
      <trkpt lat="47.843101993203163" lon="14.636749969795346">
        <ele>374.80000000000001</ele>
        <time>2012-10-21T13:31:08Z</time>
      </trkpt>
      <trkpt lat="47.843124037608504" lon="14.636749969795346">
        <ele>375.19999999999999</ele>
        <time>2012-10-21T13:31:09Z</time>
      </trkpt>
      <trkpt lat="47.843215987086296" lon="14.636775031685829">
        <ele>375.80000000000001</ele>
        <time>2012-10-21T13:31:13Z</time>
      </trkpt>
      <trkpt lat="47.843239037320018" lon="14.636764973402023">
        <ele>376.39999999999998</ele>
        <time>2012-10-21T13:31:14Z</time>
      </trkpt>
      <trkpt lat="47.843262003734708" lon="14.636762961745262">
        <ele>377</ele>
        <time>2012-10-21T13:31:15Z</time>
      </trkpt>
      <trkpt lat="47.843292010948062" lon="14.636758016422391">
        <ele>377.60000000000002</ele>
        <time>2012-10-21T13:31:16Z</time>
      </trkpt>
      <trkpt lat="47.843314977362752" lon="14.636753993108869">
        <ele>378.19999999999999</ele>
        <time>2012-10-21T13:31:17Z</time>
      </trkpt>
      <trkpt lat="47.843360994011164" lon="14.63673697784543">
        <ele>378.19999999999999</ele>
        <time>2012-10-21T13:31:20Z</time>
      </trkpt>
      <trkpt lat="47.843498038128018" lon="14.636719040572643">
        <ele>378.19999999999999</ele>
        <time>2012-10-21T13:31:27Z</time>
      </trkpt>
      <trkpt lat="47.843594010919333" lon="14.636711999773979">
        <ele>378.60000000000002</ele>
        <time>2012-10-21T13:31:31Z</time>
      </trkpt>
      <trkpt lat="47.843613037839532" lon="14.63671401143074">
        <ele>379</ele>
        <time>2012-10-21T13:31:32Z</time>
      </trkpt>
      <trkpt lat="47.8436319809407" lon="14.636717028915882">
        <ele>379.80000000000001</ele>
        <time>2012-10-21T13:31:33Z</time>
      </trkpt>
      <trkpt lat="47.843655031174421" lon="14.636717028915882">
        <ele>380.19999999999999</ele>
        <time>2012-10-21T13:31:34Z</time>
      </trkpt>
      <trkpt lat="47.843677997589111" lon="14.636715017259121">
        <ele>380.19999999999999</ele>
        <time>2012-10-21T13:31:35Z</time>
      </trkpt>
      <trkpt lat="47.843863992020488" lon="14.636733960360289">
        <ele>380.19999999999999</ele>
        <time>2012-10-21T13:31:43Z</time>
      </trkpt>
      <trkpt lat="47.844013022258878" lon="14.636750975623727">
        <ele>380.19999999999999</ele>
        <time>2012-10-21T13:31:48Z</time>
      </trkpt>
      <trkpt lat="47.844260958954692" lon="14.636837979778647">
        <ele>380.19999999999999</ele>
        <time>2012-10-21T13:31:53Z</time>
      </trkpt>
      <trkpt lat="47.844620039686561" lon="14.6369509678334">
        <ele>379.39999999999998</ele>
        <time>2012-10-21T13:31:58Z</time>
      </trkpt>
      <trkpt lat="47.844706960022449" lon="14.636974018067122">
        <ele>378.80000000000001</ele>
        <time>2012-10-21T13:31:59Z</time>
      </trkpt>
      <trkpt lat="47.844788013026118" lon="14.637000001966953">
        <ele>378.39999999999998</ele>
        <time>2012-10-21T13:32:00Z</time>
      </trkpt>
      <trkpt lat="47.844871999695897" lon="14.63703403249383">
        <ele>378</ele>
        <time>2012-10-21T13:32:01Z</time>
      </trkpt>
      <trkpt lat="47.844948023557663" lon="14.637070996686816">
        <ele>377.39999999999998</ele>
        <time>2012-10-21T13:32:02Z</time>
      </trkpt>
      <trkpt lat="47.845016000792384" lon="14.637104021385312">
        <ele>377</ele>
        <time>2012-10-21T13:32:03Z</time>
      </trkpt>
      <trkpt lat="47.845084983855486" lon="14.637132016941905">
        <ele>376.39999999999998</ele>
        <time>2012-10-21T13:32:04Z</time>
      </trkpt>
      <trkpt lat="47.845141980797052" lon="14.637149032205343">
        <ele>376</ele>
        <time>2012-10-21T13:32:05Z</time>
      </trkpt>
      <trkpt lat="47.845244994387031" lon="14.637173004448414">
        <ele>376</ele>
        <time>2012-10-21T13:32:07Z</time>
      </trkpt>
      <trkpt lat="47.845310037955642" lon="14.637177027761936">
        <ele>376.39999999999998</ele>
        <time>2012-10-21T13:32:09Z</time>
      </trkpt>
      <trkpt lat="47.845340967178345" lon="14.637171998620033">
        <ele>376.80000000000001</ele>
        <time>2012-10-21T13:32:10Z</time>
      </trkpt>
      <trkpt lat="47.845367034897208" lon="14.63716403581202">
        <ele>377.19999999999999</ele>
        <time>2012-10-21T13:32:11Z</time>
      </trkpt>
      <trkpt lat="47.845394024625421" lon="14.637158000841737">
        <ele>377.60000000000002</ele>
        <time>2012-10-21T13:32:12Z</time>
      </trkpt>
      <trkpt lat="47.845421014353633" lon="14.637154983356595">
        <ele>378</ele>
        <time>2012-10-21T13:32:13Z</time>
      </trkpt>
      <trkpt lat="47.845554035156965" lon="14.637155989184976">
        <ele>378</ele>
        <time>2012-10-21T13:32:18Z</time>
      </trkpt>
      <trkpt lat="47.845650007948279" lon="14.637184990569949">
        <ele>378.60000000000002</ele>
        <time>2012-10-21T13:32:22Z</time>
      </trkpt>
      <trkpt lat="47.845675991848111" lon="14.637191025540233">
        <ele>379</ele>
        <time>2012-10-21T13:32:23Z</time>
      </trkpt>
      <trkpt lat="47.845702981576324" lon="14.637196976691484">
        <ele>379.39999999999998</ele>
        <time>2012-10-21T13:32:24Z</time>
      </trkpt>
      <trkpt lat="47.845729971304536" lon="14.637203011661768">
        <ele>379.80000000000001</ele>
        <time>2012-10-21T13:32:25Z</time>
      </trkpt>
      <trkpt lat="47.845756961032748" lon="14.63720602914691">
        <ele>380.19999999999999</ele>
        <time>2012-10-21T13:32:26Z</time>
      </trkpt>
      <trkpt lat="47.845783028751612" lon="14.637211980298162">
        <ele>380.19999999999999</ele>
        <time>2012-10-21T13:32:27Z</time>
      </trkpt>
      <trkpt lat="47.846024008467793" lon="14.637267971411347">
        <ele>380.19999999999999</ele>
        <time>2012-10-21T13:32:35Z</time>
      </trkpt>
      <trkpt lat="47.846202962100506" lon="14.637298984453082">
        <ele>380.19999999999999</ele>
        <time>2012-10-21T13:32:41Z</time>
      </trkpt>
      <trkpt lat="47.846241015940905" lon="14.637312982231379">
        <ele>380.19999999999999</ele>
        <time>2012-10-21T13:32:46Z</time>
      </trkpt>
      <trkpt lat="47.846241015940905" lon="14.637333014979959">
        <ele>380.19999999999999</ele>
        <time>2012-10-21T13:32:50Z</time>
      </trkpt>
      <trkpt lat="47.846248978748918" lon="14.637339971959591">
        <ele>380.19999999999999</ele>
        <time>2012-10-21T13:32:52Z</time>
      </trkpt>
      <trkpt lat="47.846248978748918" lon="14.637339971959591">
        <ele>380.19999999999999</ele>
        <time>2012-10-21T13:33:05Z</time>
      </trkpt>
      <trkpt lat="47.846248978748918" lon="14.637339971959591">
        <ele>380.19999999999999</ele>
        <time>2012-10-21T13:33:19Z</time>
      </trkpt>
      <trkpt lat="47.846245039254427" lon="14.63733502663672">
        <ele>380.19999999999999</ele>
        <time>2012-10-21T13:33:36Z</time>
      </trkpt>
      <trkpt lat="47.846248978748918" lon="14.637325974181294">
        <ele>380.19999999999999</ele>
        <time>2012-10-21T13:33:43Z</time>
      </trkpt>
      <trkpt lat="47.846248978748918" lon="14.637323040515184">
        <ele>380.19999999999999</ele>
        <time>2012-10-21T13:33:51Z</time>
      </trkpt>
      <trkpt lat="47.846248978748918" lon="14.637323040515184">
        <ele>380.19999999999999</ele>
        <time>2012-10-21T13:34:03Z</time>
      </trkpt>
      <trkpt lat="47.846248978748918" lon="14.637323040515184">
        <ele>380.19999999999999</ele>
        <time>2012-10-21T13:34:14Z</time>
      </trkpt>
      <trkpt lat="47.846248978748918" lon="14.637323040515184">
        <ele>380.19999999999999</ele>
        <time>2012-10-21T13:34:21Z</time>
      </trkpt>
      <trkpt lat="47.846268005669117" lon="14.637325974181294">
        <ele>380.19999999999999</ele>
        <time>2012-10-21T13:34:27Z</time>
      </trkpt>
      <trkpt lat="47.846283009275794" lon="14.637327985838056">
        <ele>380.19999999999999</ele>
        <time>2012-10-21T13:34:28Z</time>
      </trkpt>
      <trkpt lat="47.846386022865772" lon="14.637351036071777">
        <ele>380.19999999999999</ele>
        <time>2012-10-21T13:34:34Z</time>
      </trkpt>
      <trkpt lat="47.84655399620533" lon="14.637382971122861">
        <ele>380.19999999999999</ele>
        <time>2012-10-21T13:34:40Z</time>
      </trkpt>
      <trkpt lat="47.846699003130198" lon="14.63742496445775">
        <ele>380.19999999999999</ele>
        <time>2012-10-21T13:34:47Z</time>
      </trkpt>
      <trkpt lat="47.846886003389955" lon="14.637482967227697">
        <ele>380.19999999999999</ele>
        <time>2012-10-21T13:34:53Z</time>
      </trkpt>
      <trkpt lat="47.847130000591278" lon="14.63752998970449">
        <ele>380.19999999999999</ele>
        <time>2012-10-21T13:34:58Z</time>
      </trkpt>
      <trkpt lat="47.847321024164557" lon="14.637524038553238">
        <ele>379.80000000000001</ele>
        <time>2012-10-21T13:35:01Z</time>
      </trkpt>
      <trkpt lat="47.847389001399279" lon="14.637532001361251">
        <ele>379.19999999999999</ele>
        <time>2012-10-21T13:35:02Z</time>
      </trkpt>
      <trkpt lat="47.847453961148858" lon="14.637555973604321">
        <ele>378.80000000000001</ele>
        <time>2012-10-21T13:35:03Z</time>
      </trkpt>
      <trkpt lat="47.847519004717469" lon="14.637588998302817">
        <ele>378.39999999999998</ele>
        <time>2012-10-21T13:35:04Z</time>
      </trkpt>
      <trkpt lat="47.847591005265713" lon="14.637624034658074">
        <ele>377.80000000000001</ele>
        <time>2012-10-21T13:35:05Z</time>
      </trkpt>
      <trkpt lat="47.847668034955859" lon="14.637653036043048">
        <ele>377.19999999999999</ele>
        <time>2012-10-21T13:35:06Z</time>
      </trkpt>
      <trkpt lat="47.847743974998593" lon="14.637671979144216">
        <ele>376.80000000000001</ele>
        <time>2012-10-21T13:35:07Z</time>
      </trkpt>
      <trkpt lat="47.847827961668372" lon="14.637686982750893">
        <ele>376.19999999999999</ele>
        <time>2012-10-21T13:35:08Z</time>
      </trkpt>
      <trkpt lat="47.84790800884366" lon="14.637694023549557">
        <ele>375.60000000000002</ele>
        <time>2012-10-21T13:35:09Z</time>
      </trkpt>
      <trkpt lat="47.847987972199917" lon="14.637699974700809">
        <ele>375</ele>
        <time>2012-10-21T13:35:10Z</time>
      </trkpt>
      <trkpt lat="47.848063996061683" lon="14.637703998014331">
        <ele>374.60000000000002</ele>
        <time>2012-10-21T13:35:11Z</time>
      </trkpt>
      <trkpt lat="47.848137002438307" lon="14.637708021327853">
        <ele>374</ele>
        <time>2012-10-21T13:35:12Z</time>
      </trkpt>
      <trkpt lat="47.848205985501409" lon="14.637711960822344">
        <ele>373.39999999999998</ele>
        <time>2012-10-21T13:35:13Z</time>
      </trkpt>
      <trkpt lat="47.848515026271343" lon="14.637760994955897">
        <ele>373.39999999999998</ele>
        <time>2012-10-21T13:35:18Z</time>
      </trkpt>
      <trkpt lat="47.848629020154476" lon="14.637798964977264">
        <ele>373.39999999999998</ele>
        <time>2012-10-21T13:35:20Z</time>
      </trkpt>
      <trkpt lat="47.848838986828923" lon="14.637883035466075">
        <ele>373.39999999999998</ele>
        <time>2012-10-21T13:35:24Z</time>
      </trkpt>
      <trkpt lat="47.848880980163813" lon="14.637900972738862">
        <ele>373</ele>
        <time>2012-10-21T13:35:25Z</time>
      </trkpt>
      <trkpt lat="47.848922973498702" lon="14.637921005487442">
        <ele>372.39999999999998</ele>
        <time>2012-10-21T13:35:26Z</time>
      </trkpt>
      <trkpt lat="47.848961027339101" lon="14.637947995215654">
        <ele>371.80000000000001</ele>
        <time>2012-10-21T13:35:27Z</time>
      </trkpt>
      <trkpt lat="47.848994974046946" lon="14.637970961630344">
        <ele>371.39999999999998</ele>
        <time>2012-10-21T13:35:28Z</time>
      </trkpt>
      <trkpt lat="47.849030010402203" lon="14.637990994378924">
        <ele>370.80000000000001</ele>
        <time>2012-10-21T13:35:29Z</time>
      </trkpt>
      <trkpt lat="47.84906798042357" lon="14.638007003813982">
        <ele>370.19999999999999</ele>
        <time>2012-10-21T13:35:30Z</time>
      </trkpt>
      <trkpt lat="47.849102010950446" lon="14.638019995763898">
        <ele>369.80000000000001</ele>
        <time>2012-10-21T13:35:31Z</time>
      </trkpt>
      <trkpt lat="47.849136041477323" lon="14.638031981885433">
        <ele>369.19999999999999</ele>
        <time>2012-10-21T13:35:32Z</time>
      </trkpt>
      <trkpt lat="47.849170994013548" lon="14.638044973835349">
        <ele>368.60000000000002</ele>
        <time>2012-10-21T13:35:33Z</time>
      </trkpt>
      <trkpt lat="47.849205024540424" lon="14.638055032119155">
        <ele>368.19999999999999</ele>
        <time>2012-10-21T13:35:34Z</time>
      </trkpt>
      <trkpt lat="47.849238971248269" lon="14.638058971613646">
        <ele>367.60000000000002</ele>
        <time>2012-10-21T13:35:35Z</time>
      </trkpt>
      <trkpt lat="47.849269984290004" lon="14.638062994927168">
        <ele>367.19999999999999</ele>
        <time>2012-10-21T13:35:36Z</time>
      </trkpt>
      <trkpt lat="47.849299991503358" lon="14.638070035725832">
        <ele>366.80000000000001</ele>
        <time>2012-10-21T13:35:37Z</time>
      </trkpt>
      <trkpt lat="47.849335027858615" lon="14.638077998533845">
        <ele>366.19999999999999</ele>
        <time>2012-10-21T13:35:38Z</time>
      </trkpt>
      <trkpt lat="47.849361011758447" lon="14.638088978827">
        <ele>365.19999999999999</ele>
        <time>2012-10-21T13:35:39Z</time>
      </trkpt>
      <trkpt lat="47.849392024800181" lon="14.638101970776916">
        <ele>364.60000000000002</ele>
        <time>2012-10-21T13:35:40Z</time>
      </trkpt>
      <trkpt lat="47.849422032013535" lon="14.638119991868734">
        <ele>364.19999999999999</ele>
        <time>2012-10-21T13:35:41Z</time>
      </trkpt>
      <trkpt lat="47.849452961236238" lon="14.638143964111805">
        <ele>363.80000000000001</ele>
        <time>2012-10-21T13:35:42Z</time>
      </trkpt>
      <trkpt lat="47.849482968449593" lon="14.638171959668398">
        <ele>363.19999999999999</ele>
        <time>2012-10-21T13:35:43Z</time>
      </trkpt>
      <trkpt lat="47.849509958177805" lon="14.638205990195274">
        <ele>362.80000000000001</ele>
        <time>2012-10-21T13:35:44Z</time>
      </trkpt>
      <trkpt lat="47.84954097121954" lon="14.638246977701783">
        <ele>362.39999999999998</ele>
        <time>2012-10-21T13:35:45Z</time>
      </trkpt>
      <trkpt lat="47.849567038938403" lon="14.638286959379911">
        <ele>362</ele>
        <time>2012-10-21T13:35:46Z</time>
      </trkpt>
      <trkpt lat="47.849594028666615" lon="14.638327024877071">
        <ele>361.39999999999998</ele>
        <time>2012-10-21T13:35:47Z</time>
      </trkpt>
      <trkpt lat="47.849616995081306" lon="14.638372035697103">
        <ele>361</ele>
        <time>2012-10-21T13:35:48Z</time>
      </trkpt>
      <trkpt lat="47.849643984809518" lon="14.638415034860373">
        <ele>360.39999999999998</ele>
        <time>2012-10-21T13:35:49Z</time>
      </trkpt>
      <trkpt lat="47.84966703504324" lon="14.638457028195262">
        <ele>360</ele>
        <time>2012-10-21T13:35:50Z</time>
      </trkpt>
      <trkpt lat="47.849688995629549" lon="14.638493992388248">
        <ele>359.39999999999998</ele>
        <time>2012-10-21T13:35:51Z</time>
      </trkpt>
      <trkpt lat="47.849711962044239" lon="14.638527017086744">
        <ele>359</ele>
        <time>2012-10-21T13:35:52Z</time>
      </trkpt>
      <trkpt lat="47.849739035591483" lon="14.63856196962297">
        <ele>358.60000000000002</ele>
        <time>2012-10-21T13:35:53Z</time>
      </trkpt>
      <trkpt lat="47.849772982299328" lon="14.638597005978227">
        <ele>358.19999999999999</ele>
        <time>2012-10-21T13:35:54Z</time>
      </trkpt>
      <trkpt lat="47.84981899894774" lon="14.638621984049678">
        <ele>357.80000000000001</ele>
        <time>2012-10-21T13:35:55Z</time>
      </trkpt>
      <trkpt lat="47.849922012537718" lon="14.638663977384567">
        <ele>357.39999999999998</ele>
        <time>2012-10-21T13:35:57Z</time>
      </trkpt>
      <trkpt lat="47.849979009479284" lon="14.63868803344667">
        <ele>356.80000000000001</ele>
        <time>2012-10-21T13:35:58Z</time>
      </trkpt>
      <trkpt lat="47.850043969228864" lon="14.63871099986136">
        <ele>356.39999999999998</ele>
        <time>2012-10-21T13:35:59Z</time>
      </trkpt>
      <trkpt lat="47.850109012797475" lon="14.638735977932811">
        <ele>355.80000000000001</ele>
        <time>2012-10-21T13:36:00Z</time>
      </trkpt>
      <trkpt lat="47.850182019174099" lon="14.638757016509771">
        <ele>355.39999999999998</ele>
        <time>2012-10-21T13:36:01Z</time>
      </trkpt>
      <trkpt lat="47.85024999640882" lon="14.63877696543932">
        <ele>355</ele>
        <time>2012-10-21T13:36:02Z</time>
      </trkpt>
      <trkpt lat="47.850323002785444" lon="14.638793980702758">
        <ele>354.39999999999998</ele>
        <time>2012-10-21T13:36:03Z</time>
      </trkpt>
      <trkpt lat="47.85039902664721" lon="14.638805966824293">
        <ele>353.39999999999998</ele>
        <time>2012-10-21T13:36:04Z</time>
      </trkpt>
      <trkpt lat="47.850468009710312" lon="14.63881803676486">
        <ele>353</ele>
        <time>2012-10-21T13:36:05Z</time>
      </trkpt>
      <trkpt lat="47.850863970816135" lon="14.638866987079382">
        <ele>353</ele>
        <time>2012-10-21T13:36:11Z</time>
      </trkpt>
      <trkpt lat="47.851256998255849" lon="14.638915015384555">
        <ele>353</ele>
        <time>2012-10-21T13:36:18Z</time>
      </trkpt>
      <trkpt lat="47.851360011845827" lon="14.638918032869697">
        <ele>352.60000000000002</ele>
        <time>2012-10-21T13:36:20Z</time>
      </trkpt>
      <trkpt lat="47.851406028494239" lon="14.638916021212935">
        <ele>352.19999999999999</ele>
        <time>2012-10-21T13:36:21Z</time>
      </trkpt>
      <trkpt lat="47.851451961323619" lon="14.638910992071033">
        <ele>351.80000000000001</ele>
        <time>2012-10-21T13:36:22Z</time>
      </trkpt>
      <trkpt lat="47.85149403847754" lon="14.638905040919781">
        <ele>351.39999999999998</ele>
        <time>2012-10-21T13:36:23Z</time>
      </trkpt>
      <trkpt lat="47.851527985185385" lon="14.638896994292736">
        <ele>351</ele>
        <time>2012-10-21T13:36:24Z</time>
      </trkpt>
      <trkpt lat="47.851707022637129" lon="14.638832034543157">
        <ele>351</ele>
        <time>2012-10-21T13:36:30Z</time>
      </trkpt>
      <trkpt lat="47.851798972114921" lon="14.638773025944829">
        <ele>351.39999999999998</ele>
        <time>2012-10-21T13:36:34Z</time>
      </trkpt>
      <trkpt lat="47.851822022348642" lon="14.638761039823294">
        <ele>351.80000000000001</ele>
        <time>2012-10-21T13:36:35Z</time>
      </trkpt>
      <trkpt lat="47.851844988763332" lon="14.638747964054346">
        <ele>352.19999999999999</ele>
        <time>2012-10-21T13:36:36Z</time>
      </trkpt>
      <trkpt lat="47.851870972663164" lon="14.638735977932811">
        <ele>352.60000000000002</ele>
        <time>2012-10-21T13:36:37Z</time>
      </trkpt>
      <trkpt lat="47.851894022896886" lon="14.638722985982895">
        <ele>353</ele>
        <time>2012-10-21T13:36:38Z</time>
      </trkpt>
      <trkpt lat="47.85201296210289" lon="14.638627013191581">
        <ele>353.39999999999998</ele>
        <time>2012-10-21T13:36:44Z</time>
      </trkpt>
      <trkpt lat="47.852036012336612" lon="14.63860304094851">
        <ele>353.80000000000001</ele>
        <time>2012-10-21T13:36:45Z</time>
      </trkpt>
      <trkpt lat="47.852055039256811" lon="14.638580996543169">
        <ele>354.19999999999999</ele>
        <time>2012-10-21T13:36:46Z</time>
      </trkpt>
      <trkpt lat="47.852073982357979" lon="14.63855903595686">
        <ele>354.60000000000002</ele>
        <time>2012-10-21T13:36:47Z</time>
      </trkpt>
      <trkpt lat="47.852097032591701" lon="14.638535985723138">
        <ele>355</ele>
        <time>2012-10-21T13:36:48Z</time>
      </trkpt>
      <trkpt lat="47.852157969027758" lon="14.638487035408616">
        <ele>355</ele>
        <time>2012-10-21T13:36:51Z</time>
      </trkpt>
      <trkpt lat="47.852275986224413" lon="14.638338005170226">
        <ele>355</ele>
        <time>2012-10-21T13:36:57Z</time>
      </trkpt>
      <trkpt lat="47.852371037006378" lon="14.638177994638681">
        <ele>355</ele>
        <time>2012-10-21T13:37:02Z</time>
      </trkpt>
      <trkpt lat="47.852455023676157" lon="14.638013960793614">
        <ele>355</ele>
        <time>2012-10-21T13:37:07Z</time>
      </trkpt>
      <trkpt lat="47.852497017011046" lon="14.63778798468411">
        <ele>355</ele>
        <time>2012-10-21T13:37:14Z</time>
      </trkpt>
      <trkpt lat="47.852497017011046" lon="14.637725036591291">
        <ele>355</ele>
        <time>2012-10-21T13:37:17Z</time>
      </trkpt>
      <trkpt lat="47.852504979819059" lon="14.637654963880777">
        <ele>355</ele>
        <time>2012-10-21T13:37:19Z</time>
      </trkpt>
      <trkpt lat="47.852509003132582" lon="14.637454971671104">
        <ele>355</ele>
        <time>2012-10-21T13:37:22Z</time>
      </trkpt>
      <trkpt lat="47.852515960112214" lon="14.637305019423366">
        <ele>355</ele>
        <time>2012-10-21T13:37:24Z</time>
      </trkpt>
      <trkpt lat="47.852482013404369" lon="14.636810990050435">
        <ele>355</ele>
        <time>2012-10-21T13:37:31Z</time>
      </trkpt>
      <trkpt lat="47.852477990090847" lon="14.636745024472475">
        <ele>355</ele>
        <time>2012-10-21T13:37:32Z</time>
      </trkpt>
      <trkpt lat="47.852470027282834" lon="14.636620972305536">
        <ele>355</ele>
        <time>2012-10-21T13:37:34Z</time>
      </trkpt>
      <trkpt lat="47.852451000362635" lon="14.636437995359302">
        <ele>355</ele>
        <time>2012-10-21T13:37:37Z</time>
      </trkpt>
      <trkpt lat="47.852420993149281" lon="14.635942038148642">
        <ele>355</ele>
        <time>2012-10-21T13:37:45Z</time>
      </trkpt>
      <trkpt lat="47.852405989542603" lon="14.635620005428791">
        <ele>355</ele>
        <time>2012-10-21T13:37:50Z</time>
      </trkpt>
      <trkpt lat="47.852394003421068" lon="14.635480027645826">
        <ele>355</ele>
        <time>2012-10-21T13:37:52Z</time>
      </trkpt>
      <trkpt lat="47.852383023127913" lon="14.635350024327636">
        <ele>355</ele>
        <time>2012-10-21T13:37:54Z</time>
      </trkpt>
      <trkpt lat="47.852363996207714" lon="14.635090017691255">
        <ele>355</ele>
        <time>2012-10-21T13:37:58Z</time>
      </trkpt>
      <trkpt lat="47.852386040613055" lon="14.634819030761719">
        <ele>355</ele>
        <time>2012-10-21T13:38:00Z</time>
      </trkpt>
      <trkpt lat="47.852409007027745" lon="14.634632030501962">
        <ele>355</ele>
        <time>2012-10-21T13:38:06Z</time>
      </trkpt>
      <trkpt lat="47.852394003421068" lon="14.634268004447222">
        <ele>355</ele>
        <time>2012-10-21T13:38:12Z</time>
      </trkpt>
      <trkpt lat="47.852378999814391" lon="14.634212013334036">
        <ele>355</ele>
        <time>2012-10-21T13:38:13Z</time>
      </trkpt>
      <trkpt lat="47.852253019809723" lon="14.633881011977792">
        <ele>355</ele>
        <time>2012-10-21T13:38:19Z</time>
      </trkpt>
      <trkpt lat="47.852046992629766" lon="14.633551016449928">
        <ele>355</ele>
        <time>2012-10-21T13:38:26Z</time>
      </trkpt>
      <trkpt lat="47.851870972663164" lon="14.633247004821897">
        <ele>355</ele>
        <time>2012-10-21T13:38:32Z</time>
      </trkpt>
      <trkpt lat="47.851849012076855" lon="14.633184978738427">
        <ele>355</ele>
        <time>2012-10-21T13:38:33Z</time>
      </trkpt>
      <trkpt lat="47.851684978231788" lon="14.632786000147462">
        <ele>355</ele>
        <time>2012-10-21T13:38:40Z</time>
      </trkpt>
      <trkpt lat="47.85151700489223" lon="14.632384004071355">
        <ele>355</ele>
        <time>2012-10-21T13:38:47Z</time>
      </trkpt>
      <trkpt lat="47.851379038766026" lon="14.632101031020284">
        <ele>354.60000000000002</ele>
        <time>2012-10-21T13:38:52Z</time>
      </trkpt>
      <trkpt lat="47.851352971047163" lon="14.632045039907098">
        <ele>354.19999999999999</ele>
        <time>2012-10-21T13:38:53Z</time>
      </trkpt>
      <trkpt lat="47.851325981318951" lon="14.63198502548039">
        <ele>353.80000000000001</ele>
        <time>2012-10-21T13:38:54Z</time>
      </trkpt>
      <trkpt lat="47.851294968277216" lon="14.631926016882062">
        <ele>353.39999999999998</ele>
        <time>2012-10-21T13:38:55Z</time>
      </trkpt>
      <trkpt lat="47.851268984377384" lon="14.631864996626973">
        <ele>353</ele>
        <time>2012-10-21T13:38:56Z</time>
      </trkpt>
      <trkpt lat="47.851162031292915" lon="14.631633991375566">
        <ele>353</ele>
        <time>2012-10-21T13:39:00Z</time>
      </trkpt>
      <trkpt lat="47.851035967469215" lon="14.631334003061056">
        <ele>353</ele>
        <time>2012-10-21T13:39:05Z</time>
      </trkpt>
      <trkpt lat="47.850993974134326" lon="14.631207017228007">
        <ele>353</ele>
        <time>2012-10-21T13:39:07Z</time>
      </trkpt>
      <trkpt lat="47.850887021049857" lon="14.63071902282536">
        <ele>353</ele>
        <time>2012-10-21T13:39:14Z</time>
      </trkpt>
      <trkpt lat="47.850861037150025" lon="14.63050696067512">
        <ele>353</ele>
        <time>2012-10-21T13:39:17Z</time>
      </trkpt>
      <trkpt lat="47.850852990522981" lon="14.630207978188992">
        <ele>353</ele>
        <time>2012-10-21T13:39:21Z</time>
      </trkpt>
      <trkpt lat="47.85089498385787" lon="14.629743034020066">
        <ele>353</ele>
        <time>2012-10-21T13:39:27Z</time>
      </trkpt>
      <trkpt lat="47.850945023819804" lon="14.629122018814087">
        <ele>353</ele>
        <time>2012-10-21T13:39:35Z</time>
      </trkpt>
      <trkpt lat="47.850997997447848" lon="14.628460016101599">
        <ele>353</ele>
        <time>2012-10-21T13:39:44Z</time>
      </trkpt>
      <trkpt lat="47.850986011326313" lon="14.627988031134009">
        <ele>353</ele>
        <time>2012-10-21T13:39:51Z</time>
      </trkpt>
      <trkpt lat="47.850887021049857" lon="14.627435998991132">
        <ele>353</ele>
        <time>2012-10-21T13:39:59Z</time>
      </trkpt>
      <trkpt lat="47.850773027166724" lon="14.626883966848254">
        <ele>353</ele>
        <time>2012-10-21T13:40:07Z</time>
      </trkpt>
      <trkpt lat="47.850716030225158" lon="14.626394966617227">
        <ele>353</ele>
        <time>2012-10-21T13:40:14Z</time>
      </trkpt>
      <trkpt lat="47.850707983598113" lon="14.625833965837955">
        <ele>353</ele>
        <time>2012-10-21T13:40:22Z</time>
      </trkpt>
      <trkpt lat="47.850734973326325" lon="14.625337002798915">
        <ele>353</ele>
        <time>2012-10-21T13:40:29Z</time>
      </trkpt>
      <trkpt lat="47.85074201412499" lon="14.624783964827657">
        <ele>353</ele>
        <time>2012-10-21T13:40:37Z</time>
      </trkpt>
      <trkpt lat="47.85074201412499" lon="14.624235033988953">
        <ele>353</ele>
        <time>2012-10-21T13:40:45Z</time>
      </trkpt>
      <trkpt lat="47.850758023560047" lon="14.623705968260765">
        <ele>353</ele>
        <time>2012-10-21T13:40:53Z</time>
      </trkpt>
      <trkpt lat="47.850769003853202" lon="14.623162988573313">
        <ele>353</ele>
        <time>2012-10-21T13:41:01Z</time>
      </trkpt>
      <trkpt lat="47.850815020501614" lon="14.62268597446382">
        <ele>353</ele>
        <time>2012-10-21T13:41:08Z</time>
      </trkpt>
      <trkpt lat="47.850933037698269" lon="14.62216998450458">
        <ele>353</ele>
        <time>2012-10-21T13:41:16Z</time>
      </trkpt>
      <trkpt lat="47.851005960255861" lon="14.621793972328305">
        <ele>353</ele>
        <time>2012-10-21T13:41:22Z</time>
      </trkpt>
      <trkpt lat="47.851158007979393" lon="14.621298015117645">
        <ele>353</ele>
        <time>2012-10-21T13:41:30Z</time>
      </trkpt>
      <trkpt lat="47.851349031552672" lon="14.620899958536029">
        <ele>353</ele>
        <time>2012-10-21T13:41:37Z</time>
      </trkpt>
      <trkpt lat="47.851596968248487" lon="14.620521012693644">
        <ele>353</ele>
        <time>2012-10-21T13:41:45Z</time>
      </trkpt>
      <trkpt lat="47.851802995428443" lon="14.620302999392152">
        <ele>353</ele>
        <time>2012-10-21T13:41:52Z</time>
      </trkpt>
      <trkpt lat="47.851948002353311" lon="14.620172996073961">
        <ele>353</ele>
        <time>2012-10-21T13:41:58Z</time>
      </trkpt>
      <trkpt lat="47.852093009278178" lon="14.620042992755771">
        <ele>353</ele>
        <time>2012-10-21T13:42:05Z</time>
      </trkpt>
      <trkpt lat="47.852115975692868" lon="14.620026983320713">
        <ele>353.39999999999998</ele>
        <time>2012-10-21T13:42:06Z</time>
      </trkpt>
      <trkpt lat="47.852135002613068" lon="14.620012985542417">
        <ele>353.80000000000001</ele>
        <time>2012-10-21T13:42:07Z</time>
      </trkpt>
      <trkpt lat="47.852154029533267" lon="14.61999898776412">
        <ele>354.19999999999999</ele>
        <time>2012-10-21T13:42:08Z</time>
      </trkpt>
      <trkpt lat="47.852165009826422" lon="14.619983984157443">
        <ele>354.60000000000002</ele>
        <time>2012-10-21T13:42:09Z</time>
      </trkpt>
      <trkpt lat="47.852176995947957" lon="14.619966968894005">
        <ele>355</ele>
        <time>2012-10-21T13:42:10Z</time>
      </trkpt>
      <trkpt lat="47.852191999554634" lon="14.619950959458947">
        <ele>355</ele>
        <time>2012-10-21T13:42:11Z</time>
      </trkpt>
      <trkpt lat="47.852302975952625" lon="14.619841994717717">
        <ele>355.39999999999998</ele>
        <time>2012-10-21T13:42:18Z</time>
      </trkpt>
      <trkpt lat="47.852314040064812" lon="14.619823973625898">
        <ele>355.80000000000001</ele>
        <time>2012-10-21T13:42:19Z</time>
      </trkpt>
      <trkpt lat="47.852328959852457" lon="14.619810981675982">
        <ele>356.19999999999999</ele>
        <time>2012-10-21T13:42:20Z</time>
      </trkpt>
      <trkpt lat="47.852341029793024" lon="14.619797989726067">
        <ele>356.80000000000001</ele>
        <time>2012-10-21T13:42:21Z</time>
      </trkpt>
      <trkpt lat="47.852347986772656" lon="14.61978298611939">
        <ele>357.19999999999999</ele>
        <time>2012-10-21T13:42:22Z</time>
      </trkpt>
      <trkpt lat="47.852386040613055" lon="14.619729006662965">
        <ele>357.19999999999999</ele>
        <time>2012-10-21T13:42:25Z</time>
      </trkpt>
      <trkpt lat="47.852467009797692" lon="14.619640996679664">
        <ele>357.60000000000002</ele>
        <time>2012-10-21T13:42:31Z</time>
      </trkpt>
      <trkpt lat="47.852482013404369" lon="14.619633033871651">
        <ele>358</ele>
        <time>2012-10-21T13:42:32Z</time>
      </trkpt>
      <trkpt lat="47.852497017011046" lon="14.619620963931084">
        <ele>358.80000000000001</ele>
        <time>2012-10-21T13:42:33Z</time>
      </trkpt>
      <trkpt lat="47.852509003132582" lon="14.619607971981168">
        <ele>359.19999999999999</ele>
        <time>2012-10-21T13:42:34Z</time>
      </trkpt>
      <trkpt lat="47.852588966488838" lon="14.619511999189854">
        <ele>359.19999999999999</ele>
        <time>2012-10-21T13:42:40Z</time>
      </trkpt>
      <trkpt lat="47.852691980078816" lon="14.61939699947834">
        <ele>359.60000000000002</ele>
        <time>2012-10-21T13:42:48Z</time>
      </trkpt>
      <trkpt lat="47.852702960371971" lon="14.619385013356805">
        <ele>360</ele>
        <time>2012-10-21T13:42:49Z</time>
      </trkpt>
      <trkpt lat="47.852717963978648" lon="14.61937403306365">
        <ele>360.39999999999998</ele>
        <time>2012-10-21T13:42:50Z</time>
      </trkpt>
      <trkpt lat="47.852733973413706" lon="14.619365986436605">
        <ele>360.80000000000001</ele>
        <time>2012-10-21T13:42:51Z</time>
      </trkpt>
      <trkpt lat="47.852748977020383" lon="14.619347965344787">
        <ele>361.19999999999999</ele>
        <time>2012-10-21T13:42:52Z</time>
      </trkpt>
      <trkpt lat="47.852825000882149" lon="14.619256015866995">
        <ele>361.19999999999999</ele>
        <time>2012-10-21T13:42:58Z</time>
      </trkpt>
      <trkpt lat="47.852878980338573" lon="14.619206981733441">
        <ele>361.60000000000002</ele>
        <time>2012-10-21T13:43:02Z</time>
      </trkpt>
      <trkpt lat="47.852893983945251" lon="14.619194995611906">
        <ele>362</ele>
        <time>2012-10-21T13:43:03Z</time>
      </trkpt>
      <trkpt lat="47.852908987551928" lon="14.619177980348468">
        <ele>362.39999999999998</ele>
        <time>2012-10-21T13:43:04Z</time>
      </trkpt>
      <trkpt lat="47.852923991158605" lon="14.619162976741791">
        <ele>362.80000000000001</ele>
        <time>2012-10-21T13:43:05Z</time>
      </trkpt>
      <trkpt lat="47.85293597728014" lon="14.619150990620255">
        <ele>363.39999999999998</ele>
        <time>2012-10-21T13:43:06Z</time>
      </trkpt>
      <trkpt lat="47.853031028062105" lon="14.619081001728773">
        <ele>363.39999999999998</ele>
        <time>2012-10-21T13:43:13Z</time>
      </trkpt>
      <trkpt lat="47.853100011125207" lon="14.618981005623937">
        <ele>363.80000000000001</ele>
        <time>2012-10-21T13:43:20Z</time>
      </trkpt>
      <trkpt lat="47.853115014731884" lon="14.61896700784564">
        <ele>364.19999999999999</ele>
        <time>2012-10-21T13:43:21Z</time>
      </trkpt>
      <trkpt lat="47.853134041652083" lon="14.618953010067344">
        <ele>364.60000000000002</ele>
        <time>2012-10-21T13:43:22Z</time>
      </trkpt>
      <trkpt lat="47.853146027773619" lon="14.618938006460667">
        <ele>365.39999999999998</ele>
        <time>2012-10-21T13:43:23Z</time>
      </trkpt>
      <trkpt lat="47.853203024715185" lon="14.618876986205578">
        <ele>365.39999999999998</ele>
        <time>2012-10-21T13:43:28Z</time>
      </trkpt>
      <trkpt lat="47.853291034698486" lon="14.618775984272361">
        <ele>365.80000000000001</ele>
        <time>2012-10-21T13:43:35Z</time>
      </trkpt>
      <trkpt lat="47.853297991678119" lon="14.618757041171193">
        <ele>366.19999999999999</ele>
        <time>2012-10-21T13:43:36Z</time>
      </trkpt>
      <trkpt lat="47.853312995284796" lon="14.618740025907755">
        <ele>366.60000000000002</ele>
        <time>2012-10-21T13:43:37Z</time>
      </trkpt>
      <trkpt lat="47.853329004719853" lon="14.61872803978622">
        <ele>367</ele>
        <time>2012-10-21T13:43:38Z</time>
      </trkpt>
      <trkpt lat="47.85334400832653" lon="14.618715969845653">
        <ele>367.39999999999998</ele>
        <time>2012-10-21T13:43:39Z</time>
      </trkpt>
      <trkpt lat="47.853396981954575" lon="14.618667019531131">
        <ele>367.39999999999998</ele>
        <time>2012-10-21T13:43:43Z</time>
      </trkpt>
      <trkpt lat="47.853504018858075" lon="14.618544979020953">
        <ele>367.80000000000001</ele>
        <time>2012-10-21T13:43:52Z</time>
      </trkpt>
      <trkpt lat="47.85351600497961" lon="14.618527041748166">
        <ele>368.19999999999999</ele>
        <time>2012-10-21T13:43:53Z</time>
      </trkpt>
      <trkpt lat="47.853531008586287" lon="14.618509020656347">
        <ele>368.60000000000002</ele>
        <time>2012-10-21T13:43:54Z</time>
      </trkpt>
      <trkpt lat="47.853541988879442" lon="14.618496028706431">
        <ele>369</ele>
        <time>2012-10-21T13:43:55Z</time>
      </trkpt>
      <trkpt lat="47.853550035506487" lon="14.618481025099754">
        <ele>369.39999999999998</ele>
        <time>2012-10-21T13:43:56Z</time>
      </trkpt>
      <trkpt lat="47.853577025234699" lon="14.618449006229639">
        <ele>369.39999999999998</ele>
        <time>2012-10-21T13:43:58Z</time>
      </trkpt>
      <trkpt lat="47.85366402938962" lon="14.618341969326138">
        <ele>369.39999999999998</ele>
        <time>2012-10-21T13:44:05Z</time>
      </trkpt>
      <trkpt lat="47.853775005787611" lon="14.618223030120134">
        <ele>369.39999999999998</ele>
        <time>2012-10-21T13:44:12Z</time>
      </trkpt>
      <trkpt lat="47.853915989398956" lon="14.618039969354868">
        <ele>369.39999999999998</ele>
        <time>2012-10-21T13:44:20Z</time>
      </trkpt>
      <trkpt lat="47.854053033515811" lon="14.617825979366899">
        <ele>369.80000000000001</ele>
        <time>2012-10-21T13:44:28Z</time>
      </trkpt>
      <trkpt lat="47.854068959131837" lon="14.617799995467067">
        <ele>370.19999999999999</ele>
        <time>2012-10-21T13:44:29Z</time>
      </trkpt>
      <trkpt lat="47.854083962738514" lon="14.617775017395616">
        <ele>370.60000000000002</ele>
        <time>2012-10-21T13:44:30Z</time>
      </trkpt>
      <trkpt lat="47.854102989658713" lon="14.617749033495784">
        <ele>371</ele>
        <time>2012-10-21T13:44:31Z</time>
      </trkpt>
      <trkpt lat="47.85411799326539" lon="14.617723971605301">
        <ele>371.39999999999998</ele>
        <time>2012-10-21T13:44:32Z</time>
      </trkpt>
      <trkpt lat="47.854183036834002" lon="14.617632022127509">
        <ele>371.39999999999998</ele>
        <time>2012-10-21T13:44:36Z</time>
      </trkpt>
      <trkpt lat="47.854298036545515" lon="14.617451978847384">
        <ele>371.39999999999998</ele>
        <time>2012-10-21T13:44:43Z</time>
      </trkpt>
      <trkpt lat="47.854324020445347" lon="14.617386013269424">
        <ele>371.80000000000001</ele>
        <time>2012-10-21T13:44:45Z</time>
      </trkpt>
      <trkpt lat="47.854340029880404" lon="14.617350976914167">
        <ele>372.19999999999999</ele>
        <time>2012-10-21T13:44:46Z</time>
      </trkpt>
      <trkpt lat="47.854355033487082" lon="14.617320969700813">
        <ele>372.60000000000002</ele>
        <time>2012-10-21T13:44:47Z</time>
      </trkpt>
      <trkpt lat="47.854370037093759" lon="14.61729004047811">
        <ele>373</ele>
        <time>2012-10-21T13:44:48Z</time>
      </trkpt>
      <trkpt lat="47.854385040700436" lon="14.617261961102486">
        <ele>373.39999999999998</ele>
        <time>2012-10-21T13:44:49Z</time>
      </trkpt>
      <trkpt lat="47.854514960199594" lon="14.617026010528207">
        <ele>373.39999999999998</ele>
        <time>2012-10-21T13:44:56Z</time>
      </trkpt>
      <trkpt lat="47.854626020416617" lon="14.616742031648755">
        <ele>373.39999999999998</ele>
        <time>2012-10-21T13:45:03Z</time>
      </trkpt>
      <trkpt lat="47.854698020964861" lon="14.616422010585666">
        <ele>373.39999999999998</ele>
        <time>2012-10-21T13:45:10Z</time>
      </trkpt>
      <trkpt lat="47.85476298071444" lon="14.616038035601377">
        <ele>373.39999999999998</ele>
        <time>2012-10-21T13:45:19Z</time>
      </trkpt>
      <trkpt lat="47.854683017358184" lon="14.615836031734943">
        <ele>373.39999999999998</ele>
        <time>2012-10-21T13:45:24Z</time>
      </trkpt>
      <trkpt lat="47.854529963806272" lon="14.615613995119929">
        <ele>373.39999999999998</ele>
        <time>2012-10-21T13:45:31Z</time>
      </trkpt>
      <trkpt lat="47.854487970471382" lon="14.615447027608752">
        <ele>373.39999999999998</ele>
        <time>2012-10-21T13:45:35Z</time>
      </trkpt>
      <trkpt lat="47.854487970471382" lon="14.61540101096034">
        <ele>373.80000000000001</ele>
        <time>2012-10-21T13:45:36Z</time>
      </trkpt>
      <trkpt lat="47.854491993784904" lon="14.615362035110593">
        <ele>374.39999999999998</ele>
        <time>2012-10-21T13:45:37Z</time>
      </trkpt>
      <trkpt lat="47.854500040411949" lon="14.615330016240478">
        <ele>374.80000000000001</ele>
        <time>2012-10-21T13:45:38Z</time>
      </trkpt>
      <trkpt lat="47.854506997391582" lon="14.61529397405684">
        <ele>375.19999999999999</ele>
        <time>2012-10-21T13:45:39Z</time>
      </trkpt>
      <trkpt lat="47.854523006826639" lon="14.615265978500247">
        <ele>375.60000000000002</ele>
        <time>2012-10-21T13:45:40Z</time>
      </trkpt>
      <trkpt lat="47.85461001098156" lon="14.615166988223791">
        <ele>376</ele>
        <time>2012-10-21T13:45:45Z</time>
      </trkpt>
      <trkpt lat="47.854629959911108" lon="14.615152990445495">
        <ele>376.39999999999998</ele>
        <time>2012-10-21T13:45:46Z</time>
      </trkpt>
      <trkpt lat="47.854652004316449" lon="14.615144021809101">
        <ele>376.80000000000001</ele>
        <time>2012-10-21T13:45:47Z</time>
      </trkpt>
      <trkpt lat="47.854671031236649" lon="14.615134969353676">
        <ele>377.19999999999999</ele>
        <time>2012-10-21T13:45:48Z</time>
      </trkpt>
      <trkpt lat="47.854690980166197" lon="14.615127006545663">
        <ele>377.80000000000001</ele>
        <time>2012-10-21T13:45:49Z</time>
      </trkpt>
      <trkpt lat="47.854808997362852" lon="14.615091970190406">
        <ele>377.80000000000001</ele>
        <time>2012-10-21T13:45:54Z</time>
      </trkpt>
      <trkpt lat="47.854861970990896" lon="14.615036984905601">
        <ele>378.19999999999999</ele>
        <time>2012-10-21T13:45:57Z</time>
      </trkpt>
      <trkpt lat="47.854880997911096" lon="14.615019969642162">
        <ele>378.60000000000002</ele>
        <time>2012-10-21T13:45:58Z</time>
      </trkpt>
      <trkpt lat="47.854900024831295" lon="14.615003960207105">
        <ele>379</ele>
        <time>2012-10-21T13:45:59Z</time>
      </trkpt>
      <trkpt lat="47.854918967932463" lon="14.614985017105937">
        <ele>379.39999999999998</ele>
        <time>2012-10-21T13:46:00Z</time>
      </trkpt>
      <trkpt lat="47.854939000681043" lon="14.614964984357357">
        <ele>379.80000000000001</ele>
        <time>2012-10-21T13:46:01Z</time>
      </trkpt>
      <trkpt lat="47.855052994564176" lon="14.614808997139335">
        <ele>379.80000000000001</ele>
        <time>2012-10-21T13:46:08Z</time>
      </trkpt>
      <trkpt lat="47.855133041739464" lon="14.614699026569724">
        <ele>380.19999999999999</ele>
        <time>2012-10-21T13:46:13Z</time>
      </trkpt>
      <trkpt lat="47.855147961527109" lon="14.614672036841512">
        <ele>380.60000000000002</ele>
        <time>2012-10-21T13:46:14Z</time>
      </trkpt>
      <trkpt lat="47.855163970962167" lon="14.614644963294268">
        <ele>381.19999999999999</ele>
        <time>2012-10-21T13:46:15Z</time>
      </trkpt>
      <trkpt lat="47.855178974568844" lon="14.614618979394436">
        <ele>382</ele>
        <time>2012-10-21T13:46:16Z</time>
      </trkpt>
      <trkpt lat="47.855308977887034" lon="14.614450000226498">
        <ele>382</ele>
        <time>2012-10-21T13:46:23Z</time>
      </trkpt>
      <trkpt lat="47.85542699508369" lon="14.614297030493617">
        <ele>382</ele>
        <time>2012-10-21T13:46:29Z</time>
      </trkpt>
      <trkpt lat="47.855587005615234" lon="14.614075999706984">
        <ele>382</ele>
        <time>2012-10-21T13:46:37Z</time>
      </trkpt>
      <trkpt lat="47.85570502281189" lon="14.613954965025187">
        <ele>382</ele>
        <time>2012-10-21T13:46:42Z</time>
      </trkpt>
      <trkpt lat="47.855742992833257" lon="14.613900985568762">
        <ele>382.39999999999998</ele>
        <time>2012-10-21T13:46:44Z</time>
      </trkpt>
      <trkpt lat="47.855762019753456" lon="14.613872990012169">
        <ele>382.80000000000001</ele>
        <time>2012-10-21T13:46:45Z</time>
      </trkpt>
      <trkpt lat="47.855781968683004" lon="14.613850023597479">
        <ele>383.19999999999999</ele>
        <time>2012-10-21T13:46:46Z</time>
      </trkpt>
      <trkpt lat="47.855804013088346" lon="14.613825967535377">
        <ele>383.60000000000002</ele>
        <time>2012-10-21T13:46:47Z</time>
      </trkpt>
      <trkpt lat="47.855831002816558" lon="14.613805012777448">
        <ele>384</ele>
        <time>2012-10-21T13:46:48Z</time>
      </trkpt>
      <trkpt lat="47.856037029996514" lon="14.61355397477746">
        <ele>384</ele>
        <time>2012-10-21T13:46:56Z</time>
      </trkpt>
      <trkpt lat="47.856185976415873" lon="14.613355994224548">
        <ele>384</ele>
        <time>2012-10-21T13:47:01Z</time>
      </trkpt>
      <trkpt lat="47.856215983629227" lon="14.613317018374801">
        <ele>384</ele>
        <time>2012-10-21T13:47:02Z</time>
      </trkpt>
      <trkpt lat="47.856449000537395" lon="14.61301401257515">
        <ele>384</ele>
        <time>2012-10-21T13:47:09Z</time>
      </trkpt>
      <trkpt lat="47.856709007173777" lon="14.612659960985184">
        <ele>384</ele>
        <time>2012-10-21T13:47:17Z</time>
      </trkpt>
      <trkpt lat="47.856959961354733" lon="14.612325020134449">
        <ele>384</ele>
        <time>2012-10-21T13:47:26Z</time>
      </trkpt>
      <trkpt lat="47.857185015454888" lon="14.612040035426617">
        <ele>384</ele>
        <time>2012-10-21T13:47:33Z</time>
      </trkpt>
      <trkpt lat="47.857376039028168" lon="14.611821016296744">
        <ele>383.60000000000002</ele>
        <time>2012-10-21T13:47:38Z</time>
      </trkpt>
      <trkpt lat="47.857414009049535" lon="14.611772987991571">
        <ele>383.19999999999999</ele>
        <time>2012-10-21T13:47:39Z</time>
      </trkpt>
      <trkpt lat="47.857451979070902" lon="14.61172403767705">
        <ele>382.80000000000001</ele>
        <time>2012-10-21T13:47:40Z</time>
      </trkpt>
      <trkpt lat="47.857493972405791" lon="14.611678021028638">
        <ele>382.39999999999998</ele>
        <time>2012-10-21T13:47:41Z</time>
      </trkpt>
      <trkpt lat="47.857533032074571" lon="14.611628986895084">
        <ele>382</ele>
        <time>2012-10-21T13:47:42Z</time>
      </trkpt>
      <trkpt lat="47.857788009569049" lon="14.611327992752194">
        <ele>382</ele>
        <time>2012-10-21T13:47:48Z</time>
      </trkpt>
      <trkpt lat="47.858039969578385" lon="14.610997997224331">
        <ele>382</ele>
        <time>2012-10-21T13:47:55Z</time>
      </trkpt>
      <trkpt lat="47.858223030343652" lon="14.610752994194627">
        <ele>382</ele>
        <time>2012-10-21T13:48:01Z</time>
      </trkpt>
      <trkpt lat="47.85850097425282" lon="14.610493993386626">
        <ele>382</ele>
        <time>2012-10-21T13:48:08Z</time>
      </trkpt>
      <trkpt lat="47.858540033921599" lon="14.610447976738214">
        <ele>381.60000000000002</ele>
        <time>2012-10-21T13:48:09Z</time>
      </trkpt>
      <trkpt lat="47.858573980629444" lon="14.610401960089803">
        <ele>381.19999999999999</ele>
        <time>2012-10-21T13:48:10Z</time>
      </trkpt>
      <trkpt lat="47.858608011156321" lon="14.610355021432042">
        <ele>380.80000000000001</ele>
        <time>2012-10-21T13:48:11Z</time>
      </trkpt>
      <trkpt lat="47.858642963692546" lon="14.610310010612011">
        <ele>380.39999999999998</ele>
        <time>2012-10-21T13:48:12Z</time>
      </trkpt>
      <trkpt lat="47.858676994219422" lon="14.610268017277122">
        <ele>380</ele>
        <time>2012-10-21T13:48:13Z</time>
      </trkpt>
      <trkpt lat="47.858711024746299" lon="14.610217977315187">
        <ele>380</ele>
        <time>2012-10-21T13:48:14Z</time>
      </trkpt>
      <trkpt lat="47.859009001404047" lon="14.609840037301183">
        <ele>380</ele>
        <time>2012-10-21T13:48:22Z</time>
      </trkpt>
      <trkpt lat="47.859375039115548" lon="14.609376015141606">
        <ele>380</ele>
        <time>2012-10-21T13:48:31Z</time>
      </trkpt>
      <trkpt lat="47.859698999673128" lon="14.608963960781693">
        <ele>380</ele>
        <time>2012-10-21T13:48:39Z</time>
      </trkpt>
      <trkpt lat="47.859959006309509" lon="14.608620973303914">
        <ele>380</ele>
        <time>2012-10-21T13:48:46Z</time>
      </trkpt>
      <trkpt lat="47.860255977138877" lon="14.608213026076555">
        <ele>380</ele>
        <time>2012-10-21T13:48:54Z</time>
      </trkpt>
      <trkpt lat="47.860454963520169" lon="14.607959976419806">
        <ele>379.60000000000002</ele>
        <time>2012-10-21T13:48:59Z</time>
      </trkpt>
      <trkpt lat="47.86049704067409" lon="14.607910020276904">
        <ele>379.19999999999999</ele>
        <time>2012-10-21T13:49:00Z</time>
      </trkpt>
      <trkpt lat="47.860538028180599" lon="14.607866015285254">
        <ele>378.80000000000001</ele>
        <time>2012-10-21T13:49:01Z</time>
      </trkpt>
      <trkpt lat="47.860572980716825" lon="14.607821004465222">
        <ele>378.39999999999998</ele>
        <time>2012-10-21T13:49:02Z</time>
      </trkpt>
      <trkpt lat="47.860614974051714" lon="14.607776999473572">
        <ele>378</ele>
        <time>2012-10-21T13:49:03Z</time>
      </trkpt>
      <trkpt lat="47.860943041741848" lon="14.607454966753721">
        <ele>378</ele>
        <time>2012-10-21T13:49:11Z</time>
      </trkpt>
      <trkpt lat="47.861225008964539" lon="14.607237037271261">
        <ele>378</ele>
        <time>2012-10-21T13:49:17Z</time>
      </trkpt>
      <trkpt lat="47.861697999760509" lon="14.606964038684964">
        <ele>378</ele>
        <time>2012-10-21T13:49:26Z</time>
      </trkpt>
      <trkpt lat="47.861983990296721" lon="14.606889020651579">
        <ele>378</ele>
        <time>2012-10-21T13:49:32Z</time>
      </trkpt>
      <trkpt lat="47.862164033576846" lon="14.606860019266605">
        <ele>378</ele>
        <time>2012-10-21T13:49:36Z</time>
      </trkpt>
      <trkpt lat="47.862254977226257" lon="14.606876028701663">
        <ele>378</ele>
        <time>2012-10-21T13:49:38Z</time>
      </trkpt>
      <trkpt lat="47.862296970561147" lon="14.606882985681295">
        <ele>378.39999999999998</ele>
        <time>2012-10-21T13:49:39Z</time>
      </trkpt>
      <trkpt lat="47.862338963896036" lon="14.606882985681295">
        <ele>378.80000000000001</ele>
        <time>2012-10-21T13:49:40Z</time>
      </trkpt>
      <trkpt lat="47.862381041049957" lon="14.606877034530044">
        <ele>379.19999999999999</ele>
        <time>2012-10-21T13:49:41Z</time>
      </trkpt>
      <trkpt lat="47.862423034384847" lon="14.606874017044902">
        <ele>379.60000000000002</ele>
        <time>2012-10-21T13:49:42Z</time>
      </trkpt>
      <trkpt lat="47.862465027719736" lon="14.606882985681295">
        <ele>380</ele>
        <time>2012-10-21T13:49:43Z</time>
      </trkpt>
      <trkpt lat="47.862510960549116" lon="14.60689396597445">
        <ele>380</ele>
        <time>2012-10-21T13:49:44Z</time>
      </trkpt>
      <trkpt lat="47.862755041569471" lon="14.606915004551411">
        <ele>380</ele>
        <time>2012-10-21T13:49:49Z</time>
      </trkpt>
      <trkpt lat="47.863056035712361" lon="14.606954986229539">
        <ele>380</ele>
        <time>2012-10-21T13:49:54Z</time>
      </trkpt>
      <trkpt lat="47.863396005704999" lon="14.606998991221189">
        <ele>379</ele>
        <time>2012-10-21T13:49:59Z</time>
      </trkpt>
      <trkpt lat="47.86346398293972" lon="14.607003014534712">
        <ele>378.60000000000002</ele>
        <time>2012-10-21T13:50:00Z</time>
      </trkpt>
      <trkpt lat="47.863536989316344" lon="14.607009971514344">
        <ele>378.19999999999999</ele>
        <time>2012-10-21T13:50:01Z</time>
      </trkpt>
      <trkpt lat="47.863608989864588" lon="14.607010977342725">
        <ele>377.80000000000001</ele>
        <time>2012-10-21T13:50:02Z</time>
      </trkpt>
      <trkpt lat="47.863758020102978" lon="14.607005026191473">
        <ele>377.19999999999999</ele>
        <time>2012-10-21T13:50:04Z</time>
      </trkpt>
      <trkpt lat="47.86382700316608" lon="14.607010977342725">
        <ele>376.80000000000001</ele>
        <time>2012-10-21T13:50:05Z</time>
      </trkpt>
      <trkpt lat="47.863891962915659" lon="14.60702296346426">
        <ele>376.39999999999998</ele>
        <time>2012-10-21T13:50:06Z</time>
      </trkpt>
      <trkpt lat="47.86395600065589" lon="14.607033021748066">
        <ele>376</ele>
        <time>2012-10-21T13:50:07Z</time>
      </trkpt>
      <trkpt lat="47.864020960405469" lon="14.607041990384459">
        <ele>375.60000000000002</ele>
        <time>2012-10-21T13:50:08Z</time>
      </trkpt>
      <trkpt lat="47.864388003945351" lon="14.607069985941052">
        <ele>375.60000000000002</ele>
        <time>2012-10-21T13:50:14Z</time>
      </trkpt>
      <trkpt lat="47.864811038598418" lon="14.607118014246225">
        <ele>375.60000000000002</ele>
        <time>2012-10-21T13:50:21Z</time>
      </trkpt>
      <trkpt lat="47.865317976102233" lon="14.607161013409495">
        <ele>375.60000000000002</ele>
        <time>2012-10-21T13:50:30Z</time>
      </trkpt>
      <trkpt lat="47.8654820099473" lon="14.607181968167424">
        <ele>375.19999999999999</ele>
        <time>2012-10-21T13:50:33Z</time>
      </trkpt>
      <trkpt lat="47.865535989403725" lon="14.607189008966088">
        <ele>374.80000000000001</ele>
        <time>2012-10-21T13:50:34Z</time>
      </trkpt>
      <trkpt lat="47.865588963031769" lon="14.60719496011734">
        <ele>374.39999999999998</ele>
        <time>2012-10-21T13:50:35Z</time>
      </trkpt>
      <trkpt lat="47.865639002993703" lon="14.607198983430862">
        <ele>373.80000000000001</ele>
        <time>2012-10-21T13:50:36Z</time>
      </trkpt>
      <trkpt lat="47.865691976621747" lon="14.607203006744385">
        <ele>373.39999999999998</ele>
        <time>2012-10-21T13:50:37Z</time>
      </trkpt>
      <trkpt lat="47.865790966898203" lon="14.607200995087624">
        <ele>373.39999999999998</ele>
        <time>2012-10-21T13:50:39Z</time>
      </trkpt>
      <trkpt lat="47.866043010726571" lon="14.607157995924354">
        <ele>373.39999999999998</ele>
        <time>2012-10-21T13:50:44Z</time>
      </trkpt>
      <trkpt lat="47.866080980747938" lon="14.607148021459579">
        <ele>373.39999999999998</ele>
        <time>2012-10-21T13:50:45Z</time>
      </trkpt>
      <trkpt lat="47.866195980459452" lon="14.607139974832535">
        <ele>373.39999999999998</ele>
        <time>2012-10-21T13:50:48Z</time>
      </trkpt>
      <trkpt lat="47.866237973794341" lon="14.607146009802818">
        <ele>373</ele>
        <time>2012-10-21T13:50:49Z</time>
      </trkpt>
      <trkpt lat="47.86627996712923" lon="14.607163025066257">
        <ele>372.60000000000002</ele>
        <time>2012-10-21T13:50:50Z</time>
      </trkpt>
      <trkpt lat="47.866318020969629" lon="14.607180040329695">
        <ele>372.19999999999999</ele>
        <time>2012-10-21T13:50:51Z</time>
      </trkpt>
      <trkpt lat="47.866348028182983" lon="14.607194038107991">
        <ele>371.80000000000001</ele>
        <time>2012-10-21T13:50:52Z</time>
      </trkpt>
      <trkpt lat="47.866379041224718" lon="14.607211975380778">
        <ele>371.39999999999998</ele>
        <time>2012-10-21T13:50:53Z</time>
      </trkpt>
      <trkpt lat="47.866421034559608" lon="14.607223039492965">
        <ele>371.39999999999998</ele>
        <time>2012-10-21T13:50:55Z</time>
      </trkpt>
      <trkpt lat="47.866566041484475" lon="14.607265032827854">
        <ele>371.80000000000001</ele>
        <time>2012-10-21T13:51:01Z</time>
      </trkpt>
      <trkpt lat="47.866584984585643" lon="14.607269978150725">
        <ele>372.19999999999999</ele>
        <time>2012-10-21T13:51:02Z</time>
      </trkpt>
      <trkpt lat="47.866608034819365" lon="14.607274001464248">
        <ele>372.60000000000002</ele>
        <time>2012-10-21T13:51:03Z</time>
      </trkpt>
      <trkpt lat="47.866634018719196" lon="14.607269978150725">
        <ele>373</ele>
        <time>2012-10-21T13:51:04Z</time>
      </trkpt>
      <trkpt lat="47.866661008447409" lon="14.60727802477777">
        <ele>373.39999999999998</ele>
        <time>2012-10-21T13:51:05Z</time>
      </trkpt>
      <trkpt lat="47.866734014824033" lon="14.607286993414164">
        <ele>373.39999999999998</ele>
        <time>2012-10-21T13:51:08Z</time>
      </trkpt>
      <trkpt lat="47.866782965138555" lon="14.607296967878938">
        <ele>373.80000000000001</ele>
        <time>2012-10-21T13:51:10Z</time>
      </trkpt>
      <trkpt lat="47.866801992058754" lon="14.607307026162744">
        <ele>374.39999999999998</ele>
        <time>2012-10-21T13:51:11Z</time>
      </trkpt>
      <trkpt lat="47.866828981786966" lon="14.607304008677602">
        <ele>374.80000000000001</ele>
        <time>2012-10-21T13:51:12Z</time>
      </trkpt>
      <trkpt lat="47.866855971515179" lon="14.607296967878938">
        <ele>375.60000000000002</ele>
        <time>2012-10-21T13:51:13Z</time>
      </trkpt>
      <trkpt lat="47.8668790217489" lon="14.607309037819505">
        <ele>375.60000000000002</ele>
        <time>2012-10-21T13:51:14Z</time>
      </trkpt>
      <trkpt lat="47.866951022297144" lon="14.607309959828854">
        <ele>376</ele>
        <time>2012-10-21T13:51:17Z</time>
      </trkpt>
      <trkpt lat="47.866969965398312" lon="14.607306020334363">
        <ele>376.39999999999998</ele>
        <time>2012-10-21T13:51:18Z</time>
      </trkpt>
      <trkpt lat="47.866997038945556" lon="14.607309037819505">
        <ele>376.80000000000001</ele>
        <time>2012-10-21T13:51:19Z</time>
      </trkpt>
      <trkpt lat="47.867023022845387" lon="14.607307026162744">
        <ele>377.39999999999998</ele>
        <time>2012-10-21T13:51:20Z</time>
      </trkpt>
      <trkpt lat="47.867045989260077" lon="14.607309959828854">
        <ele>377.80000000000001</ele>
        <time>2012-10-21T13:51:21Z</time>
      </trkpt>
      <trkpt lat="47.867190996184945" lon="14.607325969263911">
        <ele>377.80000000000001</ele>
        <time>2012-10-21T13:51:27Z</time>
      </trkpt>
      <trkpt lat="47.867382019758224" lon="14.607348013669252">
        <ele>377.80000000000001</ele>
        <time>2012-10-21T13:51:33Z</time>
      </trkpt>
      <trkpt lat="47.867648983374238" lon="14.607430994510651">
        <ele>377.80000000000001</ele>
        <time>2012-10-21T13:51:40Z</time>
      </trkpt>
      <trkpt lat="47.867862973362207" lon="14.607545994222164">
        <ele>377.80000000000001</ele>
        <time>2012-10-21T13:51:46Z</time>
      </trkpt>
      <trkpt lat="47.868187017738819" lon="14.607701981440187">
        <ele>377.80000000000001</ele>
        <time>2012-10-21T13:51:55Z</time>
      </trkpt>
      <trkpt lat="47.868332024663687" lon="14.607775993645191">
        <ele>378.19999999999999</ele>
        <time>2012-10-21T13:51:59Z</time>
      </trkpt>
      <trkpt lat="47.868365971371531" lon="14.607786973938346">
        <ele>378.60000000000002</ele>
        <time>2012-10-21T13:52:00Z</time>
      </trkpt>
      <trkpt lat="47.868401007726789" lon="14.607798038050532">
        <ele>379.39999999999998</ele>
        <time>2012-10-21T13:52:01Z</time>
      </trkpt>
      <trkpt lat="47.868435038253665" lon="14.607804995030165">
        <ele>379.80000000000001</ele>
        <time>2012-10-21T13:52:02Z</time>
      </trkpt>
      <trkpt lat="47.86846898496151" lon="14.607802983373404">
        <ele>379.80000000000001</ele>
        <time>2012-10-21T13:52:03Z</time>
      </trkpt>
      <trkpt lat="47.868758998811245" lon="14.607860986143351">
        <ele>379.80000000000001</ele>
        <time>2012-10-21T13:52:11Z</time>
      </trkpt>
      <trkpt lat="47.868938036262989" lon="14.607881018891931">
        <ele>379.80000000000001</ele>
        <time>2012-10-21T13:52:15Z</time>
      </trkpt>
      <trkpt lat="47.869034009054303" lon="14.607860986143351">
        <ele>379.80000000000001</ele>
        <time>2012-10-21T13:52:17Z</time>
      </trkpt>
      <trkpt lat="47.869258979335427" lon="14.607789991423488">
        <ele>379.80000000000001</ele>
        <time>2012-10-21T13:52:23Z</time>
      </trkpt>
      <trkpt lat="47.869366016238928" lon="14.607711033895612">
        <ele>380.19999999999999</ele>
        <time>2012-10-21T13:52:27Z</time>
      </trkpt>
      <trkpt lat="47.86939200013876" lon="14.607682032510638">
        <ele>380.60000000000002</ele>
        <time>2012-10-21T13:52:28Z</time>
      </trkpt>
      <trkpt lat="47.869418989866972" lon="14.607646996155381">
        <ele>381</ele>
        <time>2012-10-21T13:52:29Z</time>
      </trkpt>
      <trkpt lat="47.869442040100694" lon="14.607617994770408">
        <ele>381.39999999999998</ele>
        <time>2012-10-21T13:52:30Z</time>
      </trkpt>
      <trkpt lat="47.869465006515384" lon="14.607591005042195">
        <ele>381.80000000000001</ele>
        <time>2012-10-21T13:52:31Z</time>
      </trkpt>
      <trkpt lat="47.86956399679184" lon="14.607398975640535">
        <ele>381.80000000000001</ele>
        <time>2012-10-21T13:52:36Z</time>
      </trkpt>
      <trkpt lat="47.86967103369534" lon="14.607182973995805">
        <ele>381.80000000000001</ele>
        <time>2012-10-21T13:52:42Z</time>
      </trkpt>
      <trkpt lat="47.869743034243584" lon="14.607035033404827">
        <ele>382.19999999999999</ele>
        <time>2012-10-21T13:52:46Z</time>
      </trkpt>
      <trkpt lat="47.86975895985961" lon="14.607007959857583">
        <ele>382.60000000000002</ele>
        <time>2012-10-21T13:52:47Z</time>
      </trkpt>
      <trkpt lat="47.869781004264951" lon="14.606975018978119">
        <ele>383</ele>
        <time>2012-10-21T13:52:48Z</time>
      </trkpt>
      <trkpt lat="47.869807993993163" lon="14.606947023421526">
        <ele>383.39999999999998</ele>
        <time>2012-10-21T13:52:49Z</time>
      </trkpt>
      <trkpt lat="47.86984303034842" lon="14.606921961531043">
        <ele>383.80000000000001</ele>
        <time>2012-10-21T13:52:50Z</time>
      </trkpt>
      <trkpt lat="47.86999499425292" lon="14.606782989576459">
        <ele>383.80000000000001</ele>
        <time>2012-10-21T13:52:55Z</time>
      </trkpt>
      <trkpt lat="47.870232034474611" lon="14.606704032048583">
        <ele>383.80000000000001</ele>
        <time>2012-10-21T13:53:01Z</time>
      </trkpt>
      <trkpt lat="47.870555995032191" lon="14.606800004839897">
        <ele>383.39999999999998</ele>
        <time>2012-10-21T13:53:07Z</time>
      </trkpt>
      <trkpt lat="47.870608968660235" lon="14.60682699456811">
        <ele>383</ele>
        <time>2012-10-21T13:53:08Z</time>
      </trkpt>
      <trkpt lat="47.870659008622169" lon="14.60685096681118">
        <ele>382.60000000000002</ele>
        <time>2012-10-21T13:53:09Z</time>
      </trkpt>
      <trkpt lat="47.870701001957059" lon="14.606880974024534">
        <ele>382.19999999999999</ele>
        <time>2012-10-21T13:53:10Z</time>
      </trkpt>
      <trkpt lat="47.870747018605471" lon="14.606897989287972">
        <ele>381.80000000000001</ele>
        <time>2012-10-21T13:53:11Z</time>
      </trkpt>
      <trkpt lat="47.87078901194036" lon="14.606894971802831">
        <ele>381.80000000000001</ele>
        <time>2012-10-21T13:53:12Z</time>
      </trkpt>
      <trkpt lat="47.870826981961727" lon="14.606854990124702">
        <ele>381.80000000000001</ele>
        <time>2012-10-21T13:53:13Z</time>
      </trkpt>
      <trkpt lat="47.870861012488604" lon="14.606796987354755">
        <ele>381.39999999999998</ele>
        <time>2012-10-21T13:53:14Z</time>
      </trkpt>
      <trkpt lat="47.870892025530338" lon="14.606735967099667">
        <ele>381</ele>
        <time>2012-10-21T13:53:15Z</time>
      </trkpt>
      <trkpt lat="47.870925972238183" lon="14.606666984036565">
        <ele>380.19999999999999</ele>
        <time>2012-10-21T13:53:16Z</time>
      </trkpt>
      <trkpt lat="47.870955979451537" lon="14.60659196600318">
        <ele>379.80000000000001</ele>
        <time>2012-10-21T13:53:17Z</time>
      </trkpt>
      <trkpt lat="47.870979029685259" lon="14.606515020132065">
        <ele>379.80000000000001</ele>
        <time>2012-10-21T13:53:18Z</time>
      </trkpt>
      <trkpt lat="47.871033009141684" lon="14.60633103735745">
        <ele>379.19999999999999</ele>
        <time>2012-10-21T13:53:20Z</time>
      </trkpt>
      <trkpt lat="47.871058993041515" lon="14.606243027374148">
        <ele>378.80000000000001</ele>
        <time>2012-10-21T13:53:21Z</time>
      </trkpt>
      <trkpt lat="47.87109000608325" lon="14.606149988248944">
        <ele>378.39999999999998</ele>
        <time>2012-10-21T13:53:22Z</time>
      </trkpt>
      <trkpt lat="47.871116995811462" lon="14.606052003800869">
        <ele>377.80000000000001</ele>
        <time>2012-10-21T13:53:23Z</time>
      </trkpt>
      <trkpt lat="47.871151026338339" lon="14.605958964675665">
        <ele>377.39999999999998</ele>
        <time>2012-10-21T13:53:24Z</time>
      </trkpt>
      <trkpt lat="47.871188996359706" lon="14.605862991884351">
        <ele>376.80000000000001</ele>
        <time>2012-10-21T13:53:25Z</time>
      </trkpt>
      <trkpt lat="47.871223026886582" lon="14.605764001607895">
        <ele>376.39999999999998</ele>
        <time>2012-10-21T13:53:26Z</time>
      </trkpt>
      <trkpt lat="47.871265020221472" lon="14.605660988017917">
        <ele>375.80000000000001</ele>
        <time>2012-10-21T13:53:27Z</time>
      </trkpt>
      <trkpt lat="47.871307013556361" lon="14.605549005791545">
        <ele>375.39999999999998</ele>
        <time>2012-10-21T13:53:28Z</time>
      </trkpt>
      <trkpt lat="47.871345989406109" lon="14.605449009686708">
        <ele>374.80000000000001</ele>
        <time>2012-10-21T13:53:29Z</time>
      </trkpt>
      <trkpt lat="47.871386976912618" lon="14.605342978611588">
        <ele>374.39999999999998</ele>
        <time>2012-10-21T13:53:30Z</time>
      </trkpt>
      <trkpt lat="47.871426036581397" lon="14.60523602552712">
        <ele>373.80000000000001</ele>
        <time>2012-10-21T13:53:31Z</time>
      </trkpt>
      <trkpt lat="47.871464006602764" lon="14.605133011937141">
        <ele>373.19999999999999</ele>
        <time>2012-10-21T13:53:32Z</time>
      </trkpt>
      <trkpt lat="47.87154003046453" lon="14.60493603721261">
        <ele>372.80000000000001</ele>
        <time>2012-10-21T13:53:34Z</time>
      </trkpt>
      <trkpt lat="47.871582023799419" lon="14.604839980602264">
        <ele>372.39999999999998</ele>
        <time>2012-10-21T13:53:35Z</time>
      </trkpt>
      <trkpt lat="47.871619993820786" lon="14.604741996154189">
        <ele>372</ele>
        <time>2012-10-21T13:53:36Z</time>
      </trkpt>
      <trkpt lat="47.871657963842154" lon="14.604653986170888">
        <ele>371.39999999999998</ele>
        <time>2012-10-21T13:53:37Z</time>
      </trkpt>
      <trkpt lat="47.871696017682552" lon="14.604567987844348">
        <ele>371</ele>
        <time>2012-10-21T13:53:38Z</time>
      </trkpt>
      <trkpt lat="47.871848987415433" lon="14.604299012571573">
        <ele>371</ele>
        <time>2012-10-21T13:53:42Z</time>
      </trkpt>
      <trkpt lat="47.871890980750322" lon="14.604256013408303">
        <ele>371</ele>
        <time>2012-10-21T13:53:43Z</time>
      </trkpt>
      <trkpt lat="47.8720130212605" lon="14.604147970676422">
        <ele>371</ele>
        <time>2012-10-21T13:53:46Z</time>
      </trkpt>
      <trkpt lat="47.87220798432827" lon="14.603930041193962">
        <ele>371</ele>
        <time>2012-10-21T13:53:51Z</time>
      </trkpt>
      <trkpt lat="47.872246038168669" lon="14.603866003453732">
        <ele>371</ele>
        <time>2012-10-21T13:53:52Z</time>
      </trkpt>
      <trkpt lat="47.872326001524925" lon="14.603730970993638">
        <ele>370.60000000000002</ele>
        <time>2012-10-21T13:53:54Z</time>
      </trkpt>
      <trkpt lat="47.872367994859815" lon="14.603656036779284">
        <ele>370.19999999999999</ele>
        <time>2012-10-21T13:53:55Z</time>
      </trkpt>
      <trkpt lat="47.872414011508226" lon="14.603572972118855">
        <ele>369.60000000000002</ele>
        <time>2012-10-21T13:53:56Z</time>
      </trkpt>
      <trkpt lat="47.872451981529593" lon="14.603498037904501">
        <ele>369</ele>
        <time>2012-10-21T13:53:57Z</time>
      </trkpt>
      <trkpt lat="47.87248601205647" lon="14.603421008214355">
        <ele>368.19999999999999</ele>
        <time>2012-10-21T13:53:58Z</time>
      </trkpt>
      <trkpt lat="47.872528005391359" lon="14.603332998231053">
        <ele>367.60000000000002</ele>
        <time>2012-10-21T13:53:59Z</time>
      </trkpt>
      <trkpt lat="47.872577961534262" lon="14.603256974369287">
        <ele>367</ele>
        <time>2012-10-21T13:54:00Z</time>
      </trkpt>
      <trkpt lat="47.872631018981338" lon="14.60319897159934">
        <ele>366.19999999999999</ele>
        <time>2012-10-21T13:54:01Z</time>
      </trkpt>
      <trkpt lat="47.872683992609382" lon="14.603150021284819">
        <ele>365.60000000000002</ele>
        <time>2012-10-21T13:54:02Z</time>
      </trkpt>
      <trkpt lat="47.872746018692851" lon="14.603096041828394">
        <ele>364.80000000000001</ele>
        <time>2012-10-21T13:54:03Z</time>
      </trkpt>
      <trkpt lat="47.87280997261405" lon="14.603053964674473">
        <ele>364.19999999999999</ele>
        <time>2012-10-21T13:54:04Z</time>
      </trkpt>
      <trkpt lat="47.872870992869139" lon="14.60300400853157">
        <ele>363.60000000000002</ele>
        <time>2012-10-21T13:54:05Z</time>
      </trkpt>
      <trkpt lat="47.872928995639086" lon="14.602947011590004">
        <ele>363.19999999999999</ele>
        <time>2012-10-21T13:54:06Z</time>
      </trkpt>
      <trkpt lat="47.872996972873807" lon="14.602884985506535">
        <ele>362.80000000000001</ele>
        <time>2012-10-21T13:54:07Z</time>
      </trkpt>
      <trkpt lat="47.873054975643754" lon="14.602822037413716">
        <ele>362.39999999999998</ele>
        <time>2012-10-21T13:54:08Z</time>
      </trkpt>
      <trkpt lat="47.873115995898843" lon="14.602764034643769">
        <ele>362</ele>
        <time>2012-10-21T13:54:09Z</time>
      </trkpt>
      <trkpt lat="47.873177016153932" lon="14.602708965539932">
        <ele>361.39999999999998</ele>
        <time>2012-10-21T13:54:10Z</time>
      </trkpt>
      <trkpt lat="47.873244993388653" lon="14.602662026882172">
        <ele>361</ele>
        <time>2012-10-21T13:54:11Z</time>
      </trkpt>
      <trkpt lat="47.873313976451755" lon="14.602618021890521">
        <ele>360.39999999999998</ele>
        <time>2012-10-21T13:54:12Z</time>
      </trkpt>
      <trkpt lat="47.873382959514856" lon="14.602582985535264">
        <ele>360</ele>
        <time>2012-10-21T13:54:13Z</time>
      </trkpt>
      <trkpt lat="47.873458983376622" lon="14.602547027170658">
        <ele>359.39999999999998</ele>
        <time>2012-10-21T13:54:14Z</time>
      </trkpt>
      <trkpt lat="47.873557973653078" lon="14.602528000250459">
        <ele>358.80000000000001</ele>
        <time>2012-10-21T13:54:15Z</time>
      </trkpt>
      <trkpt lat="47.873645983636379" lon="14.602506961673498">
        <ele>358.39999999999998</ele>
        <time>2012-10-21T13:54:16Z</time>
      </trkpt>
      <trkpt lat="47.873729970306158" lon="14.602477960288525">
        <ele>357.80000000000001</ele>
        <time>2012-10-21T13:54:17Z</time>
      </trkpt>
      <trkpt lat="47.873814040794969" lon="14.602439990267158">
        <ele>357.39999999999998</ele>
        <time>2012-10-21T13:54:18Z</time>
      </trkpt>
      <trkpt lat="47.873894004151225" lon="14.602403026074171">
        <ele>356.80000000000001</ele>
        <time>2012-10-21T13:54:19Z</time>
      </trkpt>
      <trkpt lat="47.873977990821004" lon="14.602370001375675">
        <ele>356.39999999999998</ele>
        <time>2012-10-21T13:54:20Z</time>
      </trkpt>
      <trkpt lat="47.874058037996292" lon="14.602333037182689">
        <ele>355.80000000000001</ele>
        <time>2012-10-21T13:54:21Z</time>
      </trkpt>
      <trkpt lat="47.874130038544536" lon="14.602293977513909">
        <ele>355.39999999999998</ele>
        <time>2012-10-21T13:54:22Z</time>
      </trkpt>
      <trkpt lat="47.87420698441565" lon="14.602247038856149">
        <ele>355.39999999999998</ele>
        <time>2012-10-21T13:54:23Z</time>
      </trkpt>
      <trkpt lat="47.874500015750527" lon="14.602112006396055">
        <ele>355.39999999999998</ele>
        <time>2012-10-21T13:54:28Z</time>
      </trkpt>
      <trkpt lat="47.87482799962163" lon="14.601990971714258">
        <ele>355.39999999999998</ele>
        <time>2012-10-21T13:54:35Z</time>
      </trkpt>
      <trkpt lat="47.874869992956519" lon="14.601987032219768">
        <ele>355.39999999999998</ele>
        <time>2012-10-21T13:54:36Z</time>
      </trkpt>
      <trkpt lat="47.874965965747833" lon="14.601964987814426">
        <ele>355.39999999999998</ele>
        <time>2012-10-21T13:54:38Z</time>
      </trkpt>
      <trkpt lat="47.875056993216276" lon="14.601958030834794">
        <ele>355.80000000000001</ele>
        <time>2012-10-21T13:54:40Z</time>
      </trkpt>
      <trkpt lat="47.87510703317821" lon="14.601958030834794">
        <ele>356.19999999999999</ele>
        <time>2012-10-21T13:54:41Z</time>
      </trkpt>
      <trkpt lat="47.87515296600759" lon="14.601951995864511">
        <ele>356.60000000000002</ele>
        <time>2012-10-21T13:54:42Z</time>
      </trkpt>
      <trkpt lat="47.875202000141144" lon="14.601948978379369">
        <ele>357</ele>
        <time>2012-10-21T13:54:43Z</time>
      </trkpt>
      <trkpt lat="47.875248016789556" lon="14.601948978379369">
        <ele>357.39999999999998</ele>
        <time>2012-10-21T13:54:44Z</time>
      </trkpt>
      <trkpt lat="47.875297972932458" lon="14.601940009742975">
        <ele>357.39999999999998</ele>
        <time>2012-10-21T13:54:45Z</time>
      </trkpt>
      <trkpt lat="47.875426970422268" lon="14.601901033893228">
        <ele>357.39999999999998</ele>
        <time>2012-10-21T13:54:48Z</time>
      </trkpt>
      <trkpt lat="47.875617993995547" lon="14.601788967847824">
        <ele>357.39999999999998</ele>
        <time>2012-10-21T13:54:53Z</time>
      </trkpt>
      <trkpt lat="47.875689994543791" lon="14.601727025583386">
        <ele>357.39999999999998</ele>
        <time>2012-10-21T13:54:55Z</time>
      </trkpt>
      <trkpt lat="47.875857967883348" lon="14.601538013666868">
        <ele>357.80000000000001</ele>
        <time>2012-10-21T13:55:01Z</time>
      </trkpt>
      <trkpt lat="47.87588101811707" lon="14.601505994796753">
        <ele>358.19999999999999</ele>
        <time>2012-10-21T13:55:02Z</time>
      </trkpt>
      <trkpt lat="47.87590398453176" lon="14.60147799924016">
        <ele>358.60000000000002</ele>
        <time>2012-10-21T13:55:03Z</time>
      </trkpt>
      <trkpt lat="47.87592301145196" lon="14.601452015340328">
        <ele>359</ele>
        <time>2012-10-21T13:55:04Z</time>
      </trkpt>
      <trkpt lat="47.875942038372159" lon="14.601425025612116">
        <ele>359.39999999999998</ele>
        <time>2012-10-21T13:55:05Z</time>
      </trkpt>
      <trkpt lat="47.875991994515061" lon="14.601368028670549">
        <ele>359.39999999999998</ele>
        <time>2012-10-21T13:55:08Z</time>
      </trkpt>
      <trkpt lat="47.876022001728415" lon="14.601329974830151">
        <ele>359.39999999999998</ele>
        <time>2012-10-21T13:55:10Z</time>
      </trkpt>
      <trkpt lat="47.876033987849951" lon="14.601308014243841">
        <ele>359.80000000000001</ele>
        <time>2012-10-21T13:55:11Z</time>
      </trkpt>
      <trkpt lat="47.87605301477015" lon="14.601282030344009">
        <ele>360.19999999999999</ele>
        <time>2012-10-21T13:55:12Z</time>
      </trkpt>
      <trkpt lat="47.87607204169035" lon="14.601259985938668">
        <ele>360.80000000000001</ele>
        <time>2012-10-21T13:55:13Z</time>
      </trkpt>
      <trkpt lat="47.87609500810504" lon="14.601239031180739">
        <ele>361.19999999999999</ele>
        <time>2012-10-21T13:55:14Z</time>
      </trkpt>
      <trkpt lat="47.876110011711717" lon="14.601213969290257">
        <ele>361.60000000000002</ele>
        <time>2012-10-21T13:55:15Z</time>
      </trkpt>
      <trkpt lat="47.876159967854619" lon="14.601152027025819">
        <ele>361.60000000000002</ele>
        <time>2012-10-21T13:55:18Z</time>
      </trkpt>
      <trkpt lat="47.876189975067973" lon="14.601115984842181">
        <ele>362</ele>
        <time>2012-10-21T13:55:20Z</time>
      </trkpt>
      <trkpt lat="47.87620497867465" lon="14.601098969578743">
        <ele>362.39999999999998</ele>
        <time>2012-10-21T13:55:21Z</time>
      </trkpt>
      <trkpt lat="47.87622501142323" lon="14.601071979850531">
        <ele>362.80000000000001</ele>
        <time>2012-10-21T13:55:22Z</time>
      </trkpt>
      <trkpt lat="47.876240015029907" lon="14.601047001779079">
        <ele>363.19999999999999</ele>
        <time>2012-10-21T13:55:23Z</time>
      </trkpt>
      <trkpt lat="47.876255018636584" lon="14.601025963202119">
        <ele>363.60000000000002</ele>
        <time>2012-10-21T13:55:24Z</time>
      </trkpt>
      <trkpt lat="47.876286031678319" lon="14.600981036201119">
        <ele>363.60000000000002</ele>
        <time>2012-10-21T13:55:26Z</time>
      </trkpt>
      <trkpt lat="47.876400025561452" lon="14.600813984870911">
        <ele>364</ele>
        <time>2012-10-21T13:55:33Z</time>
      </trkpt>
      <trkpt lat="47.876415029168129" lon="14.600789006799459">
        <ele>364.39999999999998</ele>
        <time>2012-10-21T13:55:34Z</time>
      </trkpt>
      <trkpt lat="47.876431038603187" lon="14.600766962394118">
        <ele>364.80000000000001</ele>
        <time>2012-10-21T13:55:35Z</time>
      </trkpt>
      <trkpt lat="47.876445958390832" lon="14.600738966837525">
        <ele>365.19999999999999</ele>
        <time>2012-10-21T13:55:36Z</time>
      </trkpt>
      <trkpt lat="47.876464985311031" lon="14.600705020129681">
        <ele>365.60000000000002</ele>
        <time>2012-10-21T13:55:37Z</time>
      </trkpt>
      <trkpt lat="47.876552995294333" lon="14.600542997941375">
        <ele>365.60000000000002</ele>
        <time>2012-10-21T13:55:43Z</time>
      </trkpt>
      <trkpt lat="47.87667503580451" lon="14.600308975204825">
        <ele>365.60000000000002</ele>
        <time>2012-10-21T13:55:51Z</time>
      </trkpt>
      <trkpt lat="47.876816019415855" lon="14.600013010203838">
        <ele>365.60000000000002</ele>
        <time>2012-10-21T13:56:01Z</time>
      </trkpt>
      <trkpt lat="47.876842003315687" lon="14.599957019090652">
        <ele>366</ele>
        <time>2012-10-21T13:56:03Z</time>
      </trkpt>
      <trkpt lat="47.876853989437222" lon="14.59993002936244">
        <ele>366.39999999999998</ele>
        <time>2012-10-21T13:56:04Z</time>
      </trkpt>
      <trkpt lat="47.8768689930439" lon="14.599903961643577">
        <ele>367</ele>
        <time>2012-10-21T13:56:05Z</time>
      </trkpt>
      <trkpt lat="47.876883996650577" lon="14.599880995228887">
        <ele>367.39999999999998</ele>
        <time>2012-10-21T13:56:06Z</time>
      </trkpt>
      <trkpt lat="47.876904029399157" lon="14.599858028814197">
        <ele>367.80000000000001</ele>
        <time>2012-10-21T13:56:07Z</time>
      </trkpt>
      <trkpt lat="47.876941999420524" lon="14.599771024659276">
        <ele>367.80000000000001</ele>
        <time>2012-10-21T13:56:10Z</time>
      </trkpt>
      <trkpt lat="47.877045013010502" lon="14.599549993872643">
        <ele>367.80000000000001</ele>
        <time>2012-10-21T13:56:18Z</time>
      </trkpt>
      <trkpt lat="47.877097986638546" lon="14.599434994161129">
        <ele>368.19999999999999</ele>
        <time>2012-10-21T13:56:22Z</time>
      </trkpt>
      <trkpt lat="47.877112990245223" lon="14.599408004432917">
        <ele>368.60000000000002</ele>
        <time>2012-10-21T13:56:23Z</time>
      </trkpt>
      <trkpt lat="47.877128999680281" lon="14.599381014704704">
        <ele>369</ele>
        <time>2012-10-21T13:56:24Z</time>
      </trkpt>
      <trkpt lat="47.877144003286958" lon="14.599354024976492">
        <ele>369.39999999999998</ele>
        <time>2012-10-21T13:56:25Z</time>
      </trkpt>
      <trkpt lat="47.877159006893635" lon="14.59932703524828">
        <ele>369.80000000000001</ele>
        <time>2012-10-21T13:56:26Z</time>
      </trkpt>
      <trkpt lat="47.877227989956737" lon="14.599204994738102">
        <ele>369.80000000000001</ele>
        <time>2012-10-21T13:56:31Z</time>
      </trkpt>
      <trkpt lat="47.87727702409029" lon="14.599101981148124">
        <ele>370.19999999999999</ele>
        <time>2012-10-21T13:56:35Z</time>
      </trkpt>
      <trkpt lat="47.877293033525348" lon="14.599073985591531">
        <ele>370.60000000000002</ele>
        <time>2012-10-21T13:56:36Z</time>
      </trkpt>
      <trkpt lat="47.877304013818502" lon="14.599048001691699">
        <ele>371</ele>
        <time>2012-10-21T13:56:37Z</time>
      </trkpt>
      <trkpt lat="47.877319017425179" lon="14.599016988649964">
        <ele>371.39999999999998</ele>
        <time>2012-10-21T13:56:38Z</time>
      </trkpt>
      <trkpt lat="47.877331003546715" lon="14.598988993093371">
        <ele>371.80000000000001</ele>
        <time>2012-10-21T13:56:39Z</time>
      </trkpt>
      <trkpt lat="47.877460001036525" lon="14.598761005327106">
        <ele>371.80000000000001</ele>
        <time>2012-10-21T13:56:48Z</time>
      </trkpt>
      <trkpt lat="47.877518003806472" lon="14.598656985908747">
        <ele>372.19999999999999</ele>
        <time>2012-10-21T13:56:52Z</time>
      </trkpt>
      <trkpt lat="47.877533007413149" lon="14.598624967038631">
        <ele>372.60000000000002</ele>
        <time>2012-10-21T13:56:53Z</time>
      </trkpt>
      <trkpt lat="47.877543987706304" lon="14.598596971482038">
        <ele>373</ele>
        <time>2012-10-21T13:56:54Z</time>
      </trkpt>
      <trkpt lat="47.877559997141361" lon="14.598566964268684">
        <ele>373.39999999999998</ele>
        <time>2012-10-21T13:56:55Z</time>
      </trkpt>
      <trkpt lat="47.877567037940025" lon="14.598537962883711">
        <ele>373.80000000000001</ele>
        <time>2012-10-21T13:56:56Z</time>
      </trkpt>
      <trkpt lat="47.877688994631171" lon="14.598263958469033">
        <ele>373.80000000000001</ele>
        <time>2012-10-21T13:57:05Z</time>
      </trkpt>
      <trkpt lat="47.877792008221149" lon="14.597976040095091">
        <ele>373.80000000000001</ele>
        <time>2012-10-21T13:57:13Z</time>
      </trkpt>
      <trkpt lat="47.877911031246185" lon="14.597612014040351">
        <ele>373.80000000000001</ele>
        <time>2012-10-21T13:57:22Z</time>
      </trkpt>
      <trkpt lat="47.878058971837163" lon="14.59722300991416">
        <ele>373.80000000000001</ele>
        <time>2012-10-21T13:57:31Z</time>
      </trkpt>
      <trkpt lat="47.878181012347341" lon="14.596917992457747">
        <ele>373.80000000000001</ele>
        <time>2012-10-21T13:57:38Z</time>
      </trkpt>
      <trkpt lat="47.878287965431809" lon="14.596744989976287">
        <ele>374.39999999999998</ele>
        <time>2012-10-21T13:57:43Z</time>
      </trkpt>
      <trkpt lat="47.878315038979053" lon="14.596715988591313">
        <ele>374.80000000000001</ele>
        <time>2012-10-21T13:57:44Z</time>
      </trkpt>
      <trkpt lat="47.878338005393744" lon="14.59668698720634">
        <ele>375.19999999999999</ele>
        <time>2012-10-21T13:57:45Z</time>
      </trkpt>
      <trkpt lat="47.878357032313943" lon="14.596655974164605">
        <ele>375.60000000000002</ele>
        <time>2012-10-21T13:57:46Z</time>
      </trkpt>
      <trkpt lat="47.87837203592062" lon="14.596623033285141">
        <ele>376</ele>
        <time>2012-10-21T13:57:47Z</time>
      </trkpt>
      <trkpt lat="47.878384022042155" lon="14.596509961411357">
        <ele>376</ele>
        <time>2012-10-21T13:57:50Z</time>
      </trkpt>
      <trkpt lat="47.878368012607098" lon="14.596480038017035">
        <ele>376</ele>
        <time>2012-10-21T13:57:51Z</time>
      </trkpt>
      <trkpt lat="47.878318978473544" lon="14.596398985013366">
        <ele>376.39999999999998</ele>
        <time>2012-10-21T13:57:54Z</time>
      </trkpt>
      <trkpt lat="47.878296012058854" lon="14.596375012770295">
        <ele>376.80000000000001</ele>
        <time>2012-10-21T13:57:55Z</time>
      </trkpt>
      <trkpt lat="47.878276985138655" lon="14.596347017213702">
        <ele>377.19999999999999</ele>
        <time>2012-10-21T13:57:56Z</time>
      </trkpt>
      <trkpt lat="47.878264999017119" lon="14.596322039142251">
        <ele>377.80000000000001</ele>
        <time>2012-10-21T13:57:57Z</time>
      </trkpt>
      <trkpt lat="47.878249995410442" lon="14.596295971423388">
        <ele>378.19999999999999</ele>
        <time>2012-10-21T13:57:58Z</time>
      </trkpt>
      <trkpt lat="47.878227028995752" lon="14.596274010837078">
        <ele>378.19999999999999</ele>
        <time>2012-10-21T13:57:59Z</time>
      </trkpt>
      <trkpt lat="47.878203978762031" lon="14.596252972260118">
        <ele>378.19999999999999</ele>
        <time>2012-10-21T13:58:01Z</time>
      </trkpt>
      <trkpt lat="47.878155028447509" lon="14.596184995025396">
        <ele>378.60000000000002</ele>
        <time>2012-10-21T13:58:04Z</time>
      </trkpt>
      <trkpt lat="47.878142958506942" lon="14.596160016953945">
        <ele>379</ele>
        <time>2012-10-21T13:58:05Z</time>
      </trkpt>
      <trkpt lat="47.878136001527309" lon="14.596135038882494">
        <ele>379.39999999999998</ele>
        <time>2012-10-21T13:58:06Z</time>
      </trkpt>
      <trkpt lat="47.878131978213787" lon="14.59610897116363">
        <ele>379.80000000000001</ele>
        <time>2012-10-21T13:58:07Z</time>
      </trkpt>
      <trkpt lat="47.878128038719296" lon="14.59608600474894">
        <ele>380.19999999999999</ele>
        <time>2012-10-21T13:58:08Z</time>
      </trkpt>
      <trkpt lat="47.878128038719296" lon="14.59591300226748">
        <ele>380.19999999999999</ele>
        <time>2012-10-21T13:58:13Z</time>
      </trkpt>
      <trkpt lat="47.878197021782398" lon="14.595693983137608">
        <ele>380.19999999999999</ele>
        <time>2012-10-21T13:58:19Z</time>
      </trkpt>
      <trkpt lat="47.878296012058854" lon="14.595471024513245">
        <ele>380.19999999999999</ele>
        <time>2012-10-21T13:58:25Z</time>
      </trkpt>
      <trkpt lat="47.878390979021788" lon="14.595264997333288">
        <ele>380.60000000000002</ele>
        <time>2012-10-21T13:58:32Z</time>
      </trkpt>
      <trkpt lat="47.878402965143323" lon="14.595237001776695">
        <ele>381</ele>
        <time>2012-10-21T13:58:33Z</time>
      </trkpt>
      <trkpt lat="47.87841796875" lon="14.59520498290658">
        <ele>381.39999999999998</ele>
        <time>2012-10-21T13:58:34Z</time>
      </trkpt>
      <trkpt lat="47.878432972356677" lon="14.595177993178368">
        <ele>381.80000000000001</ele>
        <time>2012-10-21T13:58:35Z</time>
      </trkpt>
      <trkpt lat="47.878444958478212" lon="14.595144968479872">
        <ele>382.19999999999999</ele>
        <time>2012-10-21T13:58:36Z</time>
      </trkpt>
      <trkpt lat="47.878493992611766" lon="14.594999039545655">
        <ele>382.19999999999999</ele>
        <time>2012-10-21T13:58:41Z</time>
      </trkpt>
      <trkpt lat="47.878571022301912" lon="14.594766022637486">
        <ele>382.60000000000002</ele>
        <time>2012-10-21T13:58:49Z</time>
      </trkpt>
      <trkpt lat="47.878577979281545" lon="14.594740038737655">
        <ele>383</ele>
        <time>2012-10-21T13:58:50Z</time>
      </trkpt>
      <trkpt lat="47.878582002595067" lon="14.594710031524301">
        <ele>383.39999999999998</ele>
        <time>2012-10-21T13:58:51Z</time>
      </trkpt>
      <trkpt lat="47.878586025908589" lon="14.594677006825805">
        <ele>384</ele>
        <time>2012-10-21T13:58:52Z</time>
      </trkpt>
      <trkpt lat="47.878597006201744" lon="14.594649011269212">
        <ele>384.39999999999998</ele>
        <time>2012-10-21T13:58:53Z</time>
      </trkpt>
      <trkpt lat="47.878616033121943" lon="14.594596959650517">
        <ele>384.39999999999998</ele>
        <time>2012-10-21T13:58:55Z</time>
      </trkpt>
      <trkpt lat="47.8786959964782" lon="14.594374001026154">
        <ele>384.39999999999998</ele>
        <time>2012-10-21T13:59:04Z</time>
      </trkpt>
      <trkpt lat="47.87871602922678" lon="14.594320021569729">
        <ele>384.80000000000001</ele>
        <time>2012-10-21T13:59:06Z</time>
      </trkpt>
      <trkpt lat="47.878727009519935" lon="14.594285991042852">
        <ele>385.19999999999999</ele>
        <time>2012-10-21T13:59:07Z</time>
      </trkpt>
      <trkpt lat="47.878737989813089" lon="14.594254978001118">
        <ele>385.60000000000002</ele>
        <time>2012-10-21T13:59:08Z</time>
      </trkpt>
      <trkpt lat="47.878749975934625" lon="14.594227988272905">
        <ele>386</ele>
        <time>2012-10-21T13:59:09Z</time>
      </trkpt>
      <trkpt lat="47.878757016733289" lon="14.594204016029835">
        <ele>386.39999999999998</ele>
        <time>2012-10-21T13:59:10Z</time>
      </trkpt>
      <trkpt lat="47.878784006461501" lon="14.594102008268237">
        <ele>386.39999999999998</ele>
        <time>2012-10-21T13:59:14Z</time>
      </trkpt>
      <trkpt lat="47.878830023109913" lon="14.593843007460237">
        <ele>386.39999999999998</ele>
        <time>2012-10-21T13:59:22Z</time>
      </trkpt>
      <trkpt lat="47.878837985917926" lon="14.593818029388785">
        <ele>386.80000000000001</ele>
        <time>2012-10-21T13:59:23Z</time>
      </trkpt>
      <trkpt lat="47.878837985917926" lon="14.593787016347051">
        <ele>387.19999999999999</ele>
        <time>2012-10-21T13:59:24Z</time>
      </trkpt>
      <trkpt lat="47.878837985917926" lon="14.593760026618838">
        <ele>387.60000000000002</ele>
        <time>2012-10-21T13:59:25Z</time>
      </trkpt>
      <trkpt lat="47.87884502671659" lon="14.593730019405484">
        <ele>388</ele>
        <time>2012-10-21T13:59:26Z</time>
      </trkpt>
      <trkpt lat="47.878848966211081" lon="14.59369900636375">
        <ele>388.39999999999998</ele>
        <time>2012-10-21T13:59:27Z</time>
      </trkpt>
      <trkpt lat="47.87886799313128" lon="14.593649972230196">
        <ele>388.39999999999998</ele>
        <time>2012-10-21T13:59:29Z</time>
      </trkpt>
      <trkpt lat="47.878905963152647" lon="14.593532960861921">
        <ele>388.39999999999998</ele>
        <time>2012-10-21T13:59:33Z</time>
      </trkpt>
      <trkpt lat="47.878948040306568" lon="14.593434976413846">
        <ele>388.80000000000001</ele>
        <time>2012-10-21T13:59:37Z</time>
      </trkpt>
      <trkpt lat="47.878966983407736" lon="14.593406980857253">
        <ele>389.19999999999999</ele>
        <time>2012-10-21T13:59:38Z</time>
      </trkpt>
      <trkpt lat="47.878982992842793" lon="14.593372028321028">
        <ele>389.60000000000002</ele>
        <time>2012-10-21T13:59:39Z</time>
      </trkpt>
      <trkpt lat="47.878997996449471" lon="14.593343026936054">
        <ele>390</ele>
        <time>2012-10-21T13:59:40Z</time>
      </trkpt>
      <trkpt lat="47.879020962864161" lon="14.593316959217191">
        <ele>390.39999999999998</ele>
        <time>2012-10-21T13:59:41Z</time>
      </trkpt>
      <trkpt lat="47.879081983119249" lon="14.593239007517695">
        <ele>390.39999999999998</ele>
        <time>2012-10-21T13:59:44Z</time>
      </trkpt>
      <trkpt lat="47.879162030294538" lon="14.593063993379474">
        <ele>390.80000000000001</ele>
        <time>2012-10-21T13:59:50Z</time>
      </trkpt>
      <trkpt lat="47.879173010587692" lon="14.593037003651261">
        <ele>391.19999999999999</ele>
        <time>2012-10-21T13:59:51Z</time>
      </trkpt>
      <trkpt lat="47.879184996709228" lon="14.593002973124385">
        <ele>391.60000000000002</ele>
        <time>2012-10-21T13:59:52Z</time>
      </trkpt>
      <trkpt lat="47.879200000315905" lon="14.592965003103018">
        <ele>392.39999999999998</ele>
        <time>2012-10-21T13:59:53Z</time>
      </trkpt>
      <trkpt lat="47.879234030842781" lon="14.592847991734743">
        <ele>392.39999999999998</ele>
        <time>2012-10-21T13:59:56Z</time>
      </trkpt>
      <trkpt lat="47.879246016964316" lon="14.592583039775491">
        <ele>392.39999999999998</ele>
        <time>2012-10-21T14:00:01Z</time>
      </trkpt>
      <trkpt lat="47.879222966730595" lon="14.592426968738437">
        <ele>392.39999999999998</ele>
        <time>2012-10-21T14:00:03Z</time>
      </trkpt>
      <trkpt lat="47.879195977002382" lon="14.592180959880352">
        <ele>392</ele>
        <time>2012-10-21T14:00:06Z</time>
      </trkpt>
      <trkpt lat="47.879180973395705" lon="14.592094961553812">
        <ele>391.60000000000002</ele>
        <time>2012-10-21T14:00:07Z</time>
      </trkpt>
      <trkpt lat="47.879165969789028" lon="14.592007035389543">
        <ele>391.19999999999999</ele>
        <time>2012-10-21T14:00:08Z</time>
      </trkpt>
      <trkpt lat="47.87914702668786" lon="14.591918019577861">
        <ele>390.80000000000001</ele>
        <time>2012-10-21T14:00:09Z</time>
      </trkpt>
      <trkpt lat="47.879127999767661" lon="14.59183000959456">
        <ele>390.39999999999998</ele>
        <time>2012-10-21T14:00:10Z</time>
      </trkpt>
      <trkpt lat="47.879096986725926" lon="14.591652983799577">
        <ele>390.39999999999998</ele>
        <time>2012-10-21T14:00:12Z</time>
      </trkpt>
      <trkpt lat="47.879024986177683" lon="14.591277977451682">
        <ele>390</ele>
        <time>2012-10-21T14:00:16Z</time>
      </trkpt>
      <trkpt lat="47.879008976742625" lon="14.591173036023974">
        <ele>389</ele>
        <time>2012-10-21T14:00:17Z</time>
      </trkpt>
      <trkpt lat="47.878997996449471" lon="14.59105895832181">
        <ele>388.60000000000002</ele>
        <time>2012-10-21T14:00:18Z</time>
      </trkpt>
      <trkpt lat="47.878986010327935" lon="14.590946976095438">
        <ele>388.19999999999999</ele>
        <time>2012-10-21T14:00:19Z</time>
      </trkpt>
      <trkpt lat="47.878962960094213" lon="14.590597031638026">
        <ele>387.80000000000001</ele>
        <time>2012-10-21T14:00:22Z</time>
      </trkpt>
      <trkpt lat="47.878956003114581" lon="14.59047800861299">
        <ele>387.39999999999998</ele>
        <time>2012-10-21T14:00:23Z</time>
      </trkpt>
      <trkpt lat="47.878951979801059" lon="14.590364014729857">
        <ele>387</ele>
        <time>2012-10-21T14:00:24Z</time>
      </trkpt>
      <trkpt lat="47.878956003114581" lon="14.590250020846725">
        <ele>386.60000000000002</ele>
        <time>2012-10-21T14:00:25Z</time>
      </trkpt>
      <trkpt lat="47.878951979801059" lon="14.590140972286463">
        <ele>386.19999999999999</ele>
        <time>2012-10-21T14:00:26Z</time>
      </trkpt>
      <trkpt lat="47.878933036699891" lon="14.589710980653763">
        <ele>385.60000000000002</ele>
        <time>2012-10-21T14:00:30Z</time>
      </trkpt>
      <trkpt lat="47.878924990072846" lon="14.589601010084152">
        <ele>385.19999999999999</ele>
        <time>2012-10-21T14:00:31Z</time>
      </trkpt>
      <trkpt lat="47.878921972587705" lon="14.589495984837413">
        <ele>384.80000000000001</ele>
        <time>2012-10-21T14:00:32Z</time>
      </trkpt>
      <trkpt lat="47.878918033093214" lon="14.589390959590673">
        <ele>384.39999999999998</ele>
        <time>2012-10-21T14:00:33Z</time>
      </trkpt>
      <trkpt lat="47.878909986466169" lon="14.589284006506205">
        <ele>384</ele>
        <time>2012-10-21T14:00:34Z</time>
      </trkpt>
      <trkpt lat="47.878848966211081" lon="14.588766004890203">
        <ele>384</ele>
        <time>2012-10-21T14:00:39Z</time>
      </trkpt>
      <trkpt lat="47.878764979541302" lon="14.588305000215769">
        <ele>384</ele>
        <time>2012-10-21T14:00:45Z</time>
      </trkpt>
      <trkpt lat="47.878646962344646" lon="14.5879200194031">
        <ele>384.39999999999998</ele>
        <time>2012-10-21T14:00:52Z</time>
      </trkpt>
      <trkpt lat="47.878631958737969" lon="14.587868973612785">
        <ele>385</ele>
        <time>2012-10-21T14:00:53Z</time>
      </trkpt>
      <trkpt lat="47.878613015636802" lon="14.587817005813122">
        <ele>385.39999999999998</ele>
        <time>2012-10-21T14:00:54Z</time>
      </trkpt>
      <trkpt lat="47.878597006201744" lon="14.587767971679568">
        <ele>385.80000000000001</ele>
        <time>2012-10-21T14:00:55Z</time>
      </trkpt>
      <trkpt lat="47.878577979281545" lon="14.587720027193427">
        <ele>386.19999999999999</ele>
        <time>2012-10-21T14:00:56Z</time>
      </trkpt>
      <trkpt lat="47.878510002046824" lon="14.587593963369727">
        <ele>386.60000000000002</ele>
        <time>2012-10-21T14:00:59Z</time>
      </trkpt>
      <trkpt lat="47.878483012318611" lon="14.587552975863218">
        <ele>387.19999999999999</ele>
        <time>2012-10-21T14:01:00Z</time>
      </trkpt>
      <trkpt lat="47.878456022590399" lon="14.587509976699948">
        <ele>387.60000000000002</ele>
        <time>2012-10-21T14:01:01Z</time>
      </trkpt>
      <trkpt lat="47.878429032862186" lon="14.587467983365059">
        <ele>388</ele>
        <time>2012-10-21T14:01:02Z</time>
      </trkpt>
      <trkpt lat="47.878406988456845" lon="14.58742699585855">
        <ele>388.39999999999998</ele>
        <time>2012-10-21T14:01:03Z</time>
      </trkpt>
      <trkpt lat="47.878276985138655" lon="14.587195990607142">
        <ele>388.39999999999998</ele>
        <time>2012-10-21T14:01:09Z</time>
      </trkpt>
      <trkpt lat="47.878254018723965" lon="14.587161960080266">
        <ele>388.80000000000001</ele>
        <time>2012-10-21T14:01:10Z</time>
      </trkpt>
      <trkpt lat="47.878234991803765" lon="14.587131030857563">
        <ele>389.19999999999999</ele>
        <time>2012-10-21T14:01:11Z</time>
      </trkpt>
      <trkpt lat="47.878212025389075" lon="14.587097000330687">
        <ele>389.60000000000002</ele>
        <time>2012-10-21T14:01:12Z</time>
      </trkpt>
      <trkpt lat="47.878192998468876" lon="14.587066993117332">
        <ele>390</ele>
        <time>2012-10-21T14:01:13Z</time>
      </trkpt>
      <trkpt lat="47.878173971548676" lon="14.587037991732359">
        <ele>390.39999999999998</ele>
        <time>2012-10-21T14:01:14Z</time>
      </trkpt>
      <trkpt lat="47.878136001527309" lon="14.58697596564889">
        <ele>390.39999999999998</ele>
        <time>2012-10-21T14:01:16Z</time>
      </trkpt>
      <trkpt lat="47.878021001815796" lon="14.586811009794474">
        <ele>390.39999999999998</ele>
        <time>2012-10-21T14:01:22Z</time>
      </trkpt>
      <trkpt lat="47.878001974895597" lon="14.58678100258112">
        <ele>390.80000000000001</ele>
        <time>2012-10-21T14:01:23Z</time>
      </trkpt>
      <trkpt lat="47.877983031794429" lon="14.586750995367765">
        <ele>391.19999999999999</ele>
        <time>2012-10-21T14:01:24Z</time>
      </trkpt>
      <trkpt lat="47.877959981560707" lon="14.586719982326031">
        <ele>391.60000000000002</ele>
        <time>2012-10-21T14:01:25Z</time>
      </trkpt>
      <trkpt lat="47.87794497795403" lon="14.586687963455915">
        <ele>392.19999999999999</ele>
        <time>2012-10-21T14:01:26Z</time>
      </trkpt>
      <trkpt lat="47.877926034852862" lon="14.586656028404832">
        <ele>392.60000000000002</ele>
        <time>2012-10-21T14:01:27Z</time>
      </trkpt>
      <trkpt lat="47.877860991284251" lon="14.586516972631216">
        <ele>392.60000000000002</ele>
        <time>2012-10-21T14:01:31Z</time>
      </trkpt>
      <trkpt lat="47.877834001556039" lon="14.586313040927052">
        <ele>392.60000000000002</ele>
        <time>2012-10-21T14:01:35Z</time>
      </trkpt>
      <trkpt lat="47.877902984619141" lon="14.586082035675645">
        <ele>392.60000000000002</ele>
        <time>2012-10-21T14:01:39Z</time>
      </trkpt>
      <trkpt lat="47.877929974347353" lon="14.586028978228569">
        <ele>392.60000000000002</ele>
        <time>2012-10-21T14:01:40Z</time>
      </trkpt>
      <trkpt lat="47.878166008740664" lon="14.585637962445617">
        <ele>392.60000000000002</ele>
        <time>2012-10-21T14:01:48Z</time>
      </trkpt>
      <trkpt lat="47.878390979021788" lon="14.585151979699731">
        <ele>392.60000000000002</ele>
        <time>2012-10-21T14:01:56Z</time>
      </trkpt>
      <trkpt lat="47.878447975963354" lon="14.585046032443643">
        <ele>392</ele>
        <time>2012-10-21T14:01:58Z</time>
      </trkpt>
      <trkpt lat="47.878474965691566" lon="14.584993980824947">
        <ele>391.60000000000002</ele>
        <time>2012-10-21T14:01:59Z</time>
      </trkpt>
      <trkpt lat="47.878505978733301" lon="14.584944024682045">
        <ele>391.19999999999999</ele>
        <time>2012-10-21T14:02:00Z</time>
      </trkpt>
      <trkpt lat="47.878531962633133" lon="14.584893984720111">
        <ele>390.80000000000001</ele>
        <time>2012-10-21T14:02:01Z</time>
      </trkpt>
      <trkpt lat="47.878562975674868" lon="14.584844028577209">
        <ele>390.39999999999998</ele>
        <time>2012-10-21T14:02:02Z</time>
      </trkpt>
      <trkpt lat="47.878658026456833" lon="14.584708996117115">
        <ele>390.39999999999998</ele>
        <time>2012-10-21T14:02:05Z</time>
      </trkpt>
      <trkpt lat="47.878887020051479" lon="14.584403978660703">
        <ele>390.39999999999998</ele>
        <time>2012-10-21T14:02:13Z</time>
      </trkpt>
      <trkpt lat="47.878986010327935" lon="14.584170961752534">
        <ele>390.39999999999998</ele>
        <time>2012-10-21T14:02:19Z</time>
      </trkpt>
      <trkpt lat="47.879086006432772" lon="14.583663018420339">
        <ele>390.39999999999998</ele>
        <time>2012-10-21T14:02:29Z</time>
      </trkpt>
      <trkpt lat="47.879200000315905" lon="14.583315001800656">
        <ele>390.39999999999998</ele>
        <time>2012-10-21T14:02:36Z</time>
      </trkpt>
      <trkpt lat="47.879230007529259" lon="14.583024987950921">
        <ele>390.39999999999998</ele>
        <time>2012-10-21T14:02:41Z</time>
      </trkpt>
      <trkpt lat="47.879268983379006" lon="14.582604970782995">
        <ele>390.39999999999998</ele>
        <time>2012-10-21T14:02:46Z</time>
      </trkpt>
      <trkpt lat="47.87927602417767" lon="14.582511009648442">
        <ele>390</ele>
        <time>2012-10-21T14:02:47Z</time>
      </trkpt>
      <trkpt lat="47.879283986985683" lon="14.582417970523238">
        <ele>389.39999999999998</ele>
        <time>2012-10-21T14:02:48Z</time>
      </trkpt>
      <trkpt lat="47.879292033612728" lon="14.582325015217066">
        <ele>389</ele>
        <time>2012-10-21T14:02:49Z</time>
      </trkpt>
      <trkpt lat="47.879303013905883" lon="14.582233987748623">
        <ele>388.39999999999998</ele>
        <time>2012-10-21T14:02:50Z</time>
      </trkpt>
      <trkpt lat="47.879313994199038" lon="14.58214296028018">
        <ele>388</ele>
        <time>2012-10-21T14:02:51Z</time>
      </trkpt>
      <trkpt lat="47.879325980320573" lon="14.582056039944291">
        <ele>387.39999999999998</ele>
        <time>2012-10-21T14:02:52Z</time>
      </trkpt>
      <trkpt lat="47.879336960613728" lon="14.581973981112242">
        <ele>386.80000000000001</ele>
        <time>2012-10-21T14:02:53Z</time>
      </trkpt>
      <trkpt lat="47.879349030554295" lon="14.581895023584366">
        <ele>386.39999999999998</ele>
        <time>2012-10-21T14:02:54Z</time>
      </trkpt>
      <trkpt lat="47.879355987533927" lon="14.5818189997226">
        <ele>385.80000000000001</ele>
        <time>2012-10-21T14:02:55Z</time>
      </trkpt>
      <trkpt lat="47.879355987533927" lon="14.581740964204073">
        <ele>385.39999999999998</ele>
        <time>2012-10-21T14:02:56Z</time>
      </trkpt>
      <trkpt lat="47.879349030554295" lon="14.58166996948421">
        <ele>385</ele>
        <time>2012-10-21T14:02:57Z</time>
      </trkpt>
      <trkpt lat="47.879330003634095" lon="14.581600986421108">
        <ele>384.39999999999998</ele>
        <time>2012-10-21T14:02:58Z</time>
      </trkpt>
      <trkpt lat="47.87929899059236" lon="14.581533009186387">
        <ele>384</ele>
        <time>2012-10-21T14:02:59Z</time>
      </trkpt>
      <trkpt lat="47.879264960065484" lon="14.581471988931298">
        <ele>383.60000000000002</ele>
        <time>2012-10-21T14:03:00Z</time>
      </trkpt>
      <trkpt lat="47.879162030294538" lon="14.58136604167521">
        <ele>383</ele>
        <time>2012-10-21T14:03:02Z</time>
      </trkpt>
      <trkpt lat="47.879101010039449" lon="14.581318013370037">
        <ele>382.60000000000002</ele>
        <time>2012-10-21T14:03:03Z</time>
      </trkpt>
      <trkpt lat="47.879032026976347" lon="14.581271996721625">
        <ele>382.19999999999999</ele>
        <time>2012-10-21T14:03:04Z</time>
      </trkpt>
      <trkpt lat="47.878960026428103" lon="14.581230003386736">
        <ele>381.80000000000001</ele>
        <time>2012-10-21T14:03:05Z</time>
      </trkpt>
      <trkpt lat="47.878887020051479" lon="14.581187004223466">
        <ele>381.19999999999999</ele>
        <time>2012-10-21T14:03:06Z</time>
      </trkpt>
      <trkpt lat="47.878821976482868" lon="14.581144005060196">
        <ele>380.60000000000002</ele>
        <time>2012-10-21T14:03:07Z</time>
      </trkpt>
      <trkpt lat="47.878757016733289" lon="14.581103017553687">
        <ele>380.19999999999999</ele>
        <time>2012-10-21T14:03:08Z</time>
      </trkpt>
      <trkpt lat="47.878703959286213" lon="14.581064963713288">
        <ele>379.60000000000002</ele>
        <time>2012-10-21T14:03:09Z</time>
      </trkpt>
      <trkpt lat="47.878658026456833" lon="14.581023976206779">
        <ele>378.60000000000002</ele>
        <time>2012-10-21T14:03:10Z</time>
      </trkpt>
      <trkpt lat="47.878623995929956" lon="14.580963961780071">
        <ele>378.19999999999999</ele>
        <time>2012-10-21T14:03:11Z</time>
      </trkpt>
      <trkpt lat="47.878601029515266" lon="14.580888021737337">
        <ele>377.80000000000001</ele>
        <time>2012-10-21T14:03:12Z</time>
      </trkpt>
      <trkpt lat="47.878601029515266" lon="14.580815015360713">
        <ele>377.19999999999999</ele>
        <time>2012-10-21T14:03:13Z</time>
      </trkpt>
      <trkpt lat="47.878616033121943" lon="14.580757012590766">
        <ele>376.80000000000001</ele>
        <time>2012-10-21T14:03:14Z</time>
      </trkpt>
      <trkpt lat="47.878654003143311" lon="14.580664979293942">
        <ele>376.80000000000001</ele>
        <time>2012-10-21T14:03:16Z</time>
      </trkpt>
      <trkpt lat="47.878815019503236" lon="14.580573029816151">
        <ele>376.80000000000001</ele>
        <time>2012-10-21T14:03:20Z</time>
      </trkpt>
      <trkpt lat="47.878857012838125" lon="14.580547967925668">
        <ele>376.80000000000001</ele>
        <time>2012-10-21T14:03:21Z</time>
      </trkpt>
      <trkpt lat="47.878929013386369" lon="14.580476973205805">
        <ele>376.80000000000001</ele>
        <time>2012-10-21T14:03:23Z</time>
      </trkpt>
      <trkpt lat="47.878956003114581" lon="14.580408995971084">
        <ele>376.39999999999998</ele>
        <time>2012-10-21T14:03:24Z</time>
      </trkpt>
      <trkpt lat="47.878975030034781" lon="14.580320985987782">
        <ele>376</ele>
        <time>2012-10-21T14:03:25Z</time>
      </trkpt>
      <trkpt lat="47.878993973135948" lon="14.580229036509991">
        <ele>375.60000000000002</ele>
        <time>2012-10-21T14:03:26Z</time>
      </trkpt>
      <trkpt lat="47.879005037248135" lon="14.580129040405154">
        <ele>375.19999999999999</ele>
        <time>2012-10-21T14:03:27Z</time>
      </trkpt>
      <trkpt lat="47.879008976742625" lon="14.580028038471937">
        <ele>374.80000000000001</ele>
        <time>2012-10-21T14:03:28Z</time>
      </trkpt>
      <trkpt lat="47.879008976742625" lon="14.579695025458932">
        <ele>374.39999999999998</ele>
        <time>2012-10-21T14:03:31Z</time>
      </trkpt>
      <trkpt lat="47.879002019762993" lon="14.579577008262277">
        <ele>373.80000000000001</ele>
        <time>2012-10-21T14:03:32Z</time>
      </trkpt>
      <trkpt lat="47.878990033641458" lon="14.57945597358048">
        <ele>373.39999999999998</ele>
        <time>2012-10-21T14:03:33Z</time>
      </trkpt>
      <trkpt lat="47.878975030034781" lon="14.579335022717714">
        <ele>373</ele>
        <time>2012-10-21T14:03:34Z</time>
      </trkpt>
      <trkpt lat="47.878962960094213" lon="14.579208958894014">
        <ele>372.39999999999998</ele>
        <time>2012-10-21T14:03:35Z</time>
      </trkpt>
      <trkpt lat="47.878929013386369" lon="14.578858008608222">
        <ele>372</ele>
        <time>2012-10-21T14:03:38Z</time>
      </trkpt>
      <trkpt lat="47.878914009779692" lon="14.578742003068328">
        <ele>371.60000000000002</ele>
        <time>2012-10-21T14:03:39Z</time>
      </trkpt>
      <trkpt lat="47.878902023658156" lon="14.578624991700053">
        <ele>371.19999999999999</ele>
        <time>2012-10-21T14:03:40Z</time>
      </trkpt>
      <trkpt lat="47.878887020051479" lon="14.578505968675017">
        <ele>370.60000000000002</ele>
        <time>2012-10-21T14:03:41Z</time>
      </trkpt>
      <trkpt lat="47.878876039758325" lon="14.578388035297394">
        <ele>370.19999999999999</ele>
        <time>2012-10-21T14:03:42Z</time>
      </trkpt>
      <trkpt lat="47.878818958997726" lon="14.578050998970866">
        <ele>369.80000000000001</ele>
        <time>2012-10-21T14:03:45Z</time>
      </trkpt>
      <trkpt lat="47.878791969269514" lon="14.57795100286603">
        <ele>369.39999999999998</ele>
        <time>2012-10-21T14:03:46Z</time>
      </trkpt>
      <trkpt lat="47.878764979541302" lon="14.577850000932813">
        <ele>369</ele>
        <time>2012-10-21T14:03:47Z</time>
      </trkpt>
      <trkpt lat="47.878742013126612" lon="14.577751010656357">
        <ele>368.60000000000002</ele>
        <time>2012-10-21T14:03:48Z</time>
      </trkpt>
      <trkpt lat="47.87871896289289" lon="14.577655037865043">
        <ele>368.19999999999999</ele>
        <time>2012-10-21T14:03:49Z</time>
      </trkpt>
      <trkpt lat="47.878619972616434" lon="14.577254969626665">
        <ele>368.19999999999999</ele>
        <time>2012-10-21T14:03:53Z</time>
      </trkpt>
      <trkpt lat="47.878505978733301" lon="14.576809974387288">
        <ele>367.80000000000001</ele>
        <time>2012-10-21T14:03:57Z</time>
      </trkpt>
      <trkpt lat="47.878471026197076" lon="14.576686006039381">
        <ele>367.19999999999999</ele>
        <time>2012-10-21T14:03:58Z</time>
      </trkpt>
      <trkpt lat="47.878441018983722" lon="14.576570000499487">
        <ele>366.80000000000001</ele>
        <time>2012-10-21T14:03:59Z</time>
      </trkpt>
      <trkpt lat="47.878410005941987" lon="14.576453994959593">
        <ele>366</ele>
        <time>2012-10-21T14:04:00Z</time>
      </trkpt>
      <trkpt lat="47.878348985686898" lon="14.57623103633523">
        <ele>365.60000000000002</ele>
        <time>2012-10-21T14:04:02Z</time>
      </trkpt>
      <trkpt lat="47.878318978473544" lon="14.576120981946588">
        <ele>365</ele>
        <time>2012-10-21T14:04:03Z</time>
      </trkpt>
      <trkpt lat="47.878287965431809" lon="14.576011011376977">
        <ele>364.60000000000002</ele>
        <time>2012-10-21T14:04:04Z</time>
      </trkpt>
      <trkpt lat="47.878257958218455" lon="14.575901962816715">
        <ele>364.19999999999999</ele>
        <time>2012-10-21T14:04:05Z</time>
      </trkpt>
      <trkpt lat="47.878227028995752" lon="14.575790986418724">
        <ele>363.80000000000001</ele>
        <time>2012-10-21T14:04:06Z</time>
      </trkpt>
      <trkpt lat="47.878010021522641" lon="14.575075004249811">
        <ele>363.80000000000001</ele>
        <time>2012-10-21T14:04:13Z</time>
      </trkpt>
      <trkpt lat="47.877823021262884" lon="14.574532024562359">
        <ele>363.80000000000001</ele>
        <time>2012-10-21T14:04:19Z</time>
      </trkpt>
      <trkpt lat="47.877601990476251" lon="14.574016034603119">
        <ele>363.80000000000001</ele>
        <time>2012-10-21T14:04:26Z</time>
      </trkpt>
      <trkpt lat="47.877491014078259" lon="14.573709005489945">
        <ele>364.19999999999999</ele>
        <time>2012-10-21T14:04:31Z</time>
      </trkpt>
      <trkpt lat="47.87747198715806" lon="14.573649996891618">
        <ele>364.60000000000002</ele>
        <time>2012-10-21T14:04:32Z</time>
      </trkpt>
      <trkpt lat="47.877456983551383" lon="14.573587970808148">
        <ele>365.19999999999999</ele>
        <time>2012-10-21T14:04:33Z</time>
      </trkpt>
      <trkpt lat="47.877444997429848" lon="14.573527034372091">
        <ele>365.60000000000002</ele>
        <time>2012-10-21T14:04:34Z</time>
      </trkpt>
      <trkpt lat="47.877425970509648" lon="14.573467019945383">
        <ele>366</ele>
        <time>2012-10-21T14:04:35Z</time>
      </trkpt>
      <trkpt lat="47.877377020195127" lon="14.573274990543723">
        <ele>366.39999999999998</ele>
        <time>2012-10-21T14:04:38Z</time>
      </trkpt>
      <trkpt lat="47.877361010760069" lon="14.573214976117015">
        <ele>366.80000000000001</ele>
        <time>2012-10-21T14:04:39Z</time>
      </trkpt>
      <trkpt lat="47.877350030466914" lon="14.573157979175448">
        <ele>367.19999999999999</ele>
        <time>2012-10-21T14:04:40Z</time>
      </trkpt>
      <trkpt lat="47.877341983839869" lon="14.573102993890643">
        <ele>367.60000000000002</ele>
        <time>2012-10-21T14:04:41Z</time>
      </trkpt>
      <trkpt lat="47.877335026860237" lon="14.573053037747741">
        <ele>368.19999999999999</ele>
        <time>2012-10-21T14:04:42Z</time>
      </trkpt>
      <trkpt lat="47.877319017425179" lon="14.57296502776444">
        <ele>368.19999999999999</ele>
        <time>2012-10-21T14:04:44Z</time>
      </trkpt>
      <trkpt lat="47.877242993563414" lon="14.572745002806187">
        <ele>368.19999999999999</ele>
        <time>2012-10-21T14:04:51Z</time>
      </trkpt>
      <trkpt lat="47.877163030207157" lon="14.572591027244925">
        <ele>368.19999999999999</ele>
        <time>2012-10-21T14:04:57Z</time>
      </trkpt>
      <trkpt lat="47.877075020223856" lon="14.57245197147131">
        <ele>368.60000000000002</ele>
        <time>2012-10-21T14:05:01Z</time>
      </trkpt>
      <trkpt lat="47.877055993303657" lon="14.572410983964801">
        <ele>369</ele>
        <time>2012-10-21T14:05:02Z</time>
      </trkpt>
      <trkpt lat="47.877033026888967" lon="14.572371002286673">
        <ele>369.39999999999998</ele>
        <time>2012-10-21T14:05:03Z</time>
      </trkpt>
      <trkpt lat="47.877009976655245" lon="14.572334960103035">
        <ele>369.80000000000001</ele>
        <time>2012-10-21T14:05:04Z</time>
      </trkpt>
      <trkpt lat="47.876983992755413" lon="14.572299001738429">
        <ele>370.19999999999999</ele>
        <time>2012-10-21T14:05:05Z</time>
      </trkpt>
      <trkpt lat="47.876895982772112" lon="14.572115018963814">
        <ele>370.19999999999999</ele>
        <time>2012-10-21T14:05:09Z</time>
      </trkpt>
      <trkpt lat="47.876880979165435" lon="14.57206598483026">
        <ele>370.60000000000002</ele>
        <time>2012-10-21T14:05:10Z</time>
      </trkpt>
      <trkpt lat="47.876862036064267" lon="14.572018962353468">
        <ele>371</ele>
        <time>2012-10-21T14:05:11Z</time>
      </trkpt>
      <trkpt lat="47.876834962517023" lon="14.571975963190198">
        <ele>371.39999999999998</ele>
        <time>2012-10-21T14:05:12Z</time>
      </trkpt>
      <trkpt lat="47.876807972788811" lon="14.571941010653973">
        <ele>371.80000000000001</ele>
        <time>2012-10-21T14:05:13Z</time>
      </trkpt>
      <trkpt lat="47.876774026080966" lon="14.571917960420251">
        <ele>372.19999999999999</ele>
        <time>2012-10-21T14:05:14Z</time>
      </trkpt>
      <trkpt lat="47.876530028879642" lon="14.571786029264331">
        <ele>372.19999999999999</ele>
        <time>2012-10-21T14:05:21Z</time>
      </trkpt>
      <trkpt lat="47.876312015578151" lon="14.571724003180861">
        <ele>371.80000000000001</ele>
        <time>2012-10-21T14:05:26Z</time>
      </trkpt>
      <trkpt lat="47.876262981444597" lon="14.571716962382197">
        <ele>371.19999999999999</ele>
        <time>2012-10-21T14:05:27Z</time>
      </trkpt>
      <trkpt lat="47.876209001988173" lon="14.571706987917423">
        <ele>370.80000000000001</ele>
        <time>2012-10-21T14:05:28Z</time>
      </trkpt>
      <trkpt lat="47.876159967854619" lon="14.571691984310746">
        <ele>370.19999999999999</ele>
        <time>2012-10-21T14:05:29Z</time>
      </trkpt>
      <trkpt lat="47.876101965084672" lon="14.571672035381198">
        <ele>369.80000000000001</ele>
        <time>2012-10-21T14:05:30Z</time>
      </trkpt>
      <trkpt lat="47.876033987849951" lon="14.57161596044898">
        <ele>369.19999999999999</ele>
        <time>2012-10-21T14:05:31Z</time>
      </trkpt>
      <trkpt lat="47.875976990908384" lon="14.571553012356162">
        <ele>368.80000000000001</ele>
        <time>2012-10-21T14:05:32Z</time>
      </trkpt>
      <trkpt lat="47.875930974259973" lon="14.571476988494396">
        <ele>368.39999999999998</ele>
        <time>2012-10-21T14:05:33Z</time>
      </trkpt>
      <trkpt lat="47.875896021723747" lon="14.571391995996237">
        <ele>368</ele>
        <time>2012-10-21T14:05:34Z</time>
      </trkpt>
      <trkpt lat="47.875876994803548" lon="14.571315972134471">
        <ele>367.60000000000002</ele>
        <time>2012-10-21T14:05:35Z</time>
      </trkpt>
      <trkpt lat="47.875896021723747" lon="14.571116985753179">
        <ele>367.60000000000002</ele>
        <time>2012-10-21T14:05:38Z</time>
      </trkpt>
      <trkpt lat="47.875984031707048" lon="14.571022018790245">
        <ele>367.60000000000002</ele>
        <time>2012-10-21T14:05:41Z</time>
      </trkpt>
      <trkpt lat="47.876209001988173" lon="14.570979019626975">
        <ele>368</ele>
        <time>2012-10-21T14:05:47Z</time>
      </trkpt>
      <trkpt lat="47.87624403834343" lon="14.57096803933382">
        <ele>368.39999999999998</ele>
        <time>2012-10-21T14:05:48Z</time>
      </trkpt>
      <trkpt lat="47.876277985051274" lon="14.570954963564873">
        <ele>368.80000000000001</ele>
        <time>2012-10-21T14:05:49Z</time>
      </trkpt>
      <trkpt lat="47.876316038891673" lon="14.570940965786576">
        <ele>369.19999999999999</ele>
        <time>2012-10-21T14:05:50Z</time>
      </trkpt>
      <trkpt lat="47.876349985599518" lon="14.57092403434217">
        <ele>369.60000000000002</ele>
        <time>2012-10-21T14:05:51Z</time>
      </trkpt>
      <trkpt lat="47.876460961997509" lon="14.570871982723475">
        <ele>369.60000000000002</ele>
        <time>2012-10-21T14:05:54Z</time>
      </trkpt>
      <trkpt lat="47.876659026369452" lon="14.570663021877408">
        <ele>369.60000000000002</ele>
        <time>2012-10-21T14:06:01Z</time>
      </trkpt>
      <trkpt lat="47.876834962517023" lon="14.570280974730849">
        <ele>369.60000000000002</ele>
        <time>2012-10-21T14:06:09Z</time>
      </trkpt>
      <trkpt lat="47.877013999968767" lon="14.569835979491472">
        <ele>369.60000000000002</ele>
        <time>2012-10-21T14:06:18Z</time>
      </trkpt>
      <trkpt lat="47.877051969990134" lon="14.569734977558255">
        <ele>370.19999999999999</ele>
        <time>2012-10-21T14:06:20Z</time>
      </trkpt>
      <trkpt lat="47.877067979425192" lon="14.569684015586972">
        <ele>370.60000000000002</ele>
        <time>2012-10-21T14:06:21Z</time>
      </trkpt>
      <trkpt lat="47.877082983031869" lon="14.569632969796658">
        <ele>371</ele>
        <time>2012-10-21T14:06:22Z</time>
      </trkpt>
      <trkpt lat="47.877102009952068" lon="14.569583013653755">
        <ele>371.39999999999998</ele>
        <time>2012-10-21T14:06:23Z</time>
      </trkpt>
      <trkpt lat="47.877117013558745" lon="14.569527022540569">
        <ele>371.80000000000001</ele>
        <time>2012-10-21T14:06:24Z</time>
      </trkpt>
      <trkpt lat="47.877144003286958" lon="14.569412022829056">
        <ele>371.80000000000001</ele>
        <time>2012-10-21T14:06:26Z</time>
      </trkpt>
      <trkpt lat="47.877205023542047" lon="14.568957975134254">
        <ele>371.80000000000001</ele>
        <time>2012-10-21T14:06:34Z</time>
      </trkpt>
      <trkpt lat="47.877242993563414" lon="14.568637032061815">
        <ele>371.80000000000001</ele>
        <time>2012-10-21T14:06:39Z</time>
      </trkpt>
      <trkpt lat="47.877434017136693" lon="14.56830401904881">
        <ele>371.80000000000001</ele>
        <time>2012-10-21T14:06:46Z</time>
      </trkpt>
      <trkpt lat="47.877575000748038" lon="14.568134034052491">
        <ele>371.80000000000001</ele>
        <time>2012-10-21T14:06:51Z</time>
      </trkpt>
      <trkpt lat="47.877784967422485" lon="14.567945022135973">
        <ele>371.80000000000001</ele>
        <time>2012-10-21T14:06:57Z</time>
      </trkpt>
      <trkpt lat="47.877818997949362" lon="14.56791996024549">
        <ele>372.19999999999999</ele>
        <time>2012-10-21T14:06:58Z</time>
      </trkpt>
      <trkpt lat="47.877850010991096" lon="14.567901017144322">
        <ele>372.60000000000002</ele>
        <time>2012-10-21T14:06:59Z</time>
      </trkpt>
      <trkpt lat="47.877884041517973" lon="14.567879978567362">
        <ele>373</ele>
        <time>2012-10-21T14:07:00Z</time>
      </trkpt>
      <trkpt lat="47.877917988225818" lon="14.567856006324291">
        <ele>373.39999999999998</ele>
        <time>2012-10-21T14:07:01Z</time>
      </trkpt>
      <trkpt lat="47.877953024581075" lon="14.567830022424459">
        <ele>373.80000000000001</ele>
        <time>2012-10-21T14:07:02Z</time>
      </trkpt>
      <trkpt lat="47.878085961565375" lon="14.567732959985733">
        <ele>373.80000000000001</ele>
        <time>2012-10-21T14:07:06Z</time>
      </trkpt>
      <trkpt lat="47.878300035372376" lon="14.567464990541339">
        <ele>373.80000000000001</ele>
        <time>2012-10-21T14:07:13Z</time>
      </trkpt>
      <trkpt lat="47.878463985398412" lon="14.567060982808471">
        <ele>373.80000000000001</ele>
        <time>2012-10-21T14:07:21Z</time>
      </trkpt>
      <trkpt lat="47.878520982339978" lon="14.566760994493961">
        <ele>373.80000000000001</ele>
        <time>2012-10-21T14:07:26Z</time>
      </trkpt>
      <trkpt lat="47.878531962633133" lon="14.566694023087621">
        <ele>373.80000000000001</ele>
        <time>2012-10-21T14:07:27Z</time>
      </trkpt>
      <trkpt lat="47.878529028967023" lon="14.56643401645124">
        <ele>373.80000000000001</ele>
        <time>2012-10-21T14:07:31Z</time>
      </trkpt>
      <trkpt lat="47.878525005653501" lon="14.566365033388138">
        <ele>373.80000000000001</ele>
        <time>2012-10-21T14:07:32Z</time>
      </trkpt>
      <trkpt lat="47.878502039238811" lon="14.566227989271283">
        <ele>373.80000000000001</ele>
        <time>2012-10-21T14:07:34Z</time>
      </trkpt>
      <trkpt lat="47.878489969298244" lon="14.565965970978141">
        <ele>373.80000000000001</ele>
        <time>2012-10-21T14:07:38Z</time>
      </trkpt>
      <trkpt lat="47.878541015088558" lon="14.564443985000253">
        <ele>403.25</ele>
        <time>1970-01-01T00:00:00Z</time>
      </trkpt>
      <trkpt lat="47.879166975617409" lon="14.563992032781243">
        <ele>394.85000000000002</ele>
        <time>1970-01-01T00:00:00Z</time>
      </trkpt>
      <trkpt lat="47.879858985543251" lon="14.562837006524205">
        <ele>388.80000000000001</ele>
        <time>1970-01-01T00:00:00Z</time>
      </trkpt>
      <trkpt lat="47.880127038806677" lon="14.561258023604751">
        <ele>391.06999999999999</ele>
        <time>1970-01-01T00:00:00Z</time>
      </trkpt>
      <trkpt lat="47.880856012925506" lon="14.559350972995162">
        <ele>385.52999999999997</ele>
        <time>1970-01-01T00:00:00Z</time>
      </trkpt>
      <trkpt lat="47.880721986293793" lon="14.556215973570943">
        <ele>391.36000000000001</ele>
        <time>1970-01-01T00:00:00Z</time>
      </trkpt>
      <trkpt lat="47.881967034190893" lon="14.550203969702125">
        <ele>388.86000000000001</ele>
        <time>1970-01-01T00:00:00Z</time>
      </trkpt>
      <trkpt lat="47.882312033325434" lon="14.548348970711231">
        <ele>380</ele>
        <time>1970-01-01T00:00:00Z</time>
      </trkpt>
      <trkpt lat="47.882086979225278" lon="14.546434041112661">
        <ele>381.10000000000002</ele>
        <time>1970-01-01T00:00:00Z</time>
      </trkpt>
      <trkpt lat="47.883166987448931" lon="14.545793998986483">
        <ele>381.88</ele>
        <time>1970-01-01T00:00:00Z</time>
      </trkpt>
      <trkpt lat="47.884386973455548" lon="14.548193989321589">
        <ele>391.70999999999998</ele>
        <time>1970-01-01T00:00:00Z</time>
      </trkpt>
      <trkpt lat="47.884839009493589" lon="14.548053005710244">
        <ele>398.55000000000001</ele>
        <time>1970-01-01T00:00:00Z</time>
      </trkpt>
      <trkpt lat="47.885245028883219" lon="14.548852974548936">
        <ele>418.88</ele>
        <time>1970-01-01T00:00:00Z</time>
      </trkpt>
      <trkpt lat="47.88503497838974" lon="14.55317996442318">
        <ele>421.41000000000003</ele>
        <time>1970-01-01T00:00:00Z</time>
      </trkpt>
      <trkpt lat="47.88509801030159" lon="14.553849007934332">
        <ele>424.88</ele>
        <time>1970-01-01T00:00:00Z</time>
      </trkpt>
      <trkpt lat="47.885704021900892" lon="14.553819000720978">
        <ele>431.88</ele>
        <time>1970-01-01T00:00:00Z</time>
      </trkpt>
      <trkpt lat="47.886208025738597" lon="14.552597003057599">
        <ele>432.24000000000001</ele>
        <time>1970-01-01T00:00:00Z</time>
      </trkpt>
      <trkpt lat="47.886857958510518" lon="14.549687979742885">
        <ele>437.25999999999999</ele>
        <time>1970-01-01T00:00:00Z</time>
      </trkpt>
    </trkseg>
  </trk>

</gpx>
